<?xml version="1.0" encoding="UTF-8" standalone="no" ?>
<gpx xmlns="http://www.topografix.com/GPX/1/1" xmlns:xsi="http://www.w3.org/2001/XMLSchema-instance" xsi:schemaLocation="http://www.topografix.com/GPX/1/1 http://www.topografix.com/GPX/1/1/gpx.xsd" version="1.1" creator="VisuGPX - https://www.visugpx.com">
  <metadata>
    <name>Chaponost col Luere Pollionnay  VTT</name>
    <desc><![CDATA[Une belle sortie VTT musculaire depuis Chaponost, belle vue et jolis chemins.]]></desc>
  </metadata>
  <trk>
    <name><![CDATA[Chaponost Gravel_1]]></name>
    <extensions>
      <line xmlns="http://www.topografix.com/GPX/gpx_style/0/2">
        <color>0000FF</color>
        <width>4</width>
      </line>
    </extensions>
    <trkseg>
      <trkpt lat="45.71082" lon="4.75549">
        <ele>312</ele>
        <time>2025-12-11T13:05:14Z</time>
      </trkpt>
      <trkpt lat="45.71084" lon="4.75542">
        <ele>311.8</ele>
        <time>2025-12-11T13:05:15Z</time>
      </trkpt>
      <trkpt lat="45.71079" lon="4.75541">
        <ele>311.8</ele>
        <time>2025-12-11T13:05:16Z</time>
      </trkpt>
      <trkpt lat="45.71079" lon="4.7554">
        <ele>311.8</ele>
        <time>2025-12-11T13:05:17Z</time>
      </trkpt>
      <trkpt lat="45.7108" lon="4.75542">
        <ele>311.6</ele>
        <time>2025-12-11T13:05:18Z</time>
      </trkpt>
      <trkpt lat="45.7108" lon="4.75541">
        <ele>311.6</ele>
        <time>2025-12-11T13:05:19Z</time>
      </trkpt>
      <trkpt lat="45.7108" lon="4.7554">
        <ele>311.6</ele>
        <time>2025-12-11T13:05:20Z</time>
      </trkpt>
      <trkpt lat="45.71078" lon="4.75537">
        <ele>311.4</ele>
        <time>2025-12-11T13:05:21Z</time>
      </trkpt>
      <trkpt lat="45.71076" lon="4.75537">
        <ele>311.4</ele>
        <time>2025-12-11T13:05:22Z</time>
      </trkpt>
      <trkpt lat="45.71072" lon="4.75537">
        <ele>311.2</ele>
        <time>2025-12-11T13:05:23Z</time>
      </trkpt>
      <trkpt lat="45.71069" lon="4.75538">
        <ele>311.2</ele>
        <time>2025-12-11T13:05:24Z</time>
      </trkpt>
      <trkpt lat="45.71065" lon="4.75539">
        <ele>311</ele>
        <time>2025-12-11T13:05:25Z</time>
      </trkpt>
      <trkpt lat="45.71062" lon="4.75538">
        <ele>310.8</ele>
        <time>2025-12-11T13:05:26Z</time>
      </trkpt>
      <trkpt lat="45.71059" lon="4.75537">
        <ele>310.6</ele>
        <time>2025-12-11T13:05:27Z</time>
      </trkpt>
      <trkpt lat="45.71057" lon="4.75534">
        <ele>310.4</ele>
        <time>2025-12-11T13:05:28Z</time>
      </trkpt>
      <trkpt lat="45.71056" lon="4.75531">
        <ele>310.2</ele>
        <time>2025-12-11T13:05:29Z</time>
      </trkpt>
      <trkpt lat="45.71055" lon="4.75529">
        <ele>310.2</ele>
        <time>2025-12-11T13:05:30Z</time>
      </trkpt>
      <trkpt lat="45.71055" lon="4.75526">
        <ele>310.2</ele>
        <time>2025-12-11T13:05:31Z</time>
      </trkpt>
      <trkpt lat="45.71055" lon="4.75523">
        <ele>310</ele>
        <time>2025-12-11T13:05:32Z</time>
      </trkpt>
      <trkpt lat="45.71056" lon="4.75519">
        <ele>310</ele>
        <time>2025-12-11T13:05:33Z</time>
      </trkpt>
      <trkpt lat="45.71056" lon="4.75513">
        <ele>310</ele>
        <time>2025-12-11T13:05:34Z</time>
      </trkpt>
      <trkpt lat="45.71056" lon="4.75509">
        <ele>309.8</ele>
        <time>2025-12-11T13:05:35Z</time>
      </trkpt>
      <trkpt lat="45.71056" lon="4.75503">
        <ele>309.8</ele>
        <time>2025-12-11T13:05:36Z</time>
      </trkpt>
      <trkpt lat="45.71057" lon="4.75497">
        <ele>309.8</ele>
        <time>2025-12-11T13:05:37Z</time>
      </trkpt>
      <trkpt lat="45.71057" lon="4.75491">
        <ele>309.6</ele>
        <time>2025-12-11T13:05:38Z</time>
      </trkpt>
      <trkpt lat="45.71057" lon="4.75483">
        <ele>309.6</ele>
        <time>2025-12-11T13:05:39Z</time>
      </trkpt>
      <trkpt lat="45.71057" lon="4.75478">
        <ele>309.6</ele>
        <time>2025-12-11T13:05:40Z</time>
      </trkpt>
      <trkpt lat="45.71056" lon="4.75472">
        <ele>309.8</ele>
        <time>2025-12-11T13:05:41Z</time>
      </trkpt>
      <trkpt lat="45.71056" lon="4.75465">
        <ele>309.8</ele>
        <time>2025-12-11T13:05:42Z</time>
      </trkpt>
      <trkpt lat="45.71056" lon="4.75458">
        <ele>309.8</ele>
        <time>2025-12-11T13:05:43Z</time>
      </trkpt>
      <trkpt lat="45.71056" lon="4.75453">
        <ele>309.8</ele>
        <time>2025-12-11T13:05:44Z</time>
      </trkpt>
      <trkpt lat="45.71056" lon="4.75446">
        <ele>310</ele>
        <time>2025-12-11T13:05:45Z</time>
      </trkpt>
      <trkpt lat="45.71057" lon="4.7544">
        <ele>310</ele>
        <time>2025-12-11T13:05:46Z</time>
      </trkpt>
      <trkpt lat="45.71058" lon="4.75433">
        <ele>310</ele>
        <time>2025-12-11T13:05:47Z</time>
      </trkpt>
      <trkpt lat="45.7106" lon="4.7543">
        <ele>310.2</ele>
        <time>2025-12-11T13:05:48Z</time>
      </trkpt>
      <trkpt lat="45.71063" lon="4.75427">
        <ele>310.2</ele>
        <time>2025-12-11T13:05:49Z</time>
      </trkpt>
      <trkpt lat="45.71068" lon="4.75424">
        <ele>310.4</ele>
        <time>2025-12-11T13:05:50Z</time>
      </trkpt>
      <trkpt lat="45.71071" lon="4.75424">
        <ele>310.6</ele>
        <time>2025-12-11T13:05:51Z</time>
      </trkpt>
      <trkpt lat="45.71074" lon="4.75425">
        <ele>310.8</ele>
        <time>2025-12-11T13:05:52Z</time>
      </trkpt>
      <trkpt lat="45.71078" lon="4.75425">
        <ele>311.2</ele>
        <time>2025-12-11T13:05:53Z</time>
      </trkpt>
      <trkpt lat="45.71082" lon="4.75426">
        <ele>311.4</ele>
        <time>2025-12-11T13:05:54Z</time>
      </trkpt>
      <trkpt lat="45.71086" lon="4.75427">
        <ele>311.6</ele>
        <time>2025-12-11T13:05:55Z</time>
      </trkpt>
      <trkpt lat="45.71089" lon="4.75428">
        <ele>311.8</ele>
        <time>2025-12-11T13:05:56Z</time>
      </trkpt>
      <trkpt lat="45.71094" lon="4.75429">
        <ele>312</ele>
        <time>2025-12-11T13:05:57Z</time>
      </trkpt>
      <trkpt lat="45.71097" lon="4.75429">
        <ele>312</ele>
        <time>2025-12-11T13:05:58Z</time>
      </trkpt>
      <trkpt lat="45.71101" lon="4.75429">
        <ele>312.2</ele>
        <time>2025-12-11T13:05:59Z</time>
      </trkpt>
      <trkpt lat="45.71105" lon="4.7543">
        <ele>312.4</ele>
        <time>2025-12-11T13:06:00Z</time>
      </trkpt>
      <trkpt lat="45.71108" lon="4.75431">
        <ele>312.6</ele>
        <time>2025-12-11T13:06:01Z</time>
      </trkpt>
      <trkpt lat="45.71112" lon="4.75432">
        <ele>312.8</ele>
        <time>2025-12-11T13:06:02Z</time>
      </trkpt>
      <trkpt lat="45.71115" lon="4.75434">
        <ele>313</ele>
        <time>2025-12-11T13:06:03Z</time>
      </trkpt>
      <trkpt lat="45.71118" lon="4.75435">
        <ele>313.2</ele>
        <time>2025-12-11T13:06:04Z</time>
      </trkpt>
      <trkpt lat="45.71122" lon="4.75438">
        <ele>313.4</ele>
        <time>2025-12-11T13:06:05Z</time>
      </trkpt>
      <trkpt lat="45.71124" lon="4.75441">
        <ele>313.8</ele>
        <time>2025-12-11T13:06:06Z</time>
      </trkpt>
      <trkpt lat="45.71127" lon="4.75443">
        <ele>313.8</ele>
        <time>2025-12-11T13:06:07Z</time>
      </trkpt>
      <trkpt lat="45.7113" lon="4.75447">
        <ele>314</ele>
        <time>2025-12-11T13:06:08Z</time>
      </trkpt>
      <trkpt lat="45.71132" lon="4.75451">
        <ele>314.2</ele>
        <time>2025-12-11T13:06:09Z</time>
      </trkpt>
      <trkpt lat="45.71135" lon="4.75454">
        <ele>314.4</ele>
        <time>2025-12-11T13:06:10Z</time>
      </trkpt>
      <trkpt lat="45.71138" lon="4.75456">
        <ele>314.6</ele>
        <time>2025-12-11T13:06:11Z</time>
      </trkpt>
      <trkpt lat="45.7114" lon="4.75457">
        <ele>315</ele>
        <time>2025-12-11T13:06:12Z</time>
      </trkpt>
      <trkpt lat="45.71143" lon="4.75458">
        <ele>315.2</ele>
        <time>2025-12-11T13:06:13Z</time>
      </trkpt>
      <trkpt lat="45.71146" lon="4.75459">
        <ele>315.4</ele>
        <time>2025-12-11T13:06:14Z</time>
      </trkpt>
      <trkpt lat="45.71151" lon="4.7546">
        <ele>315.6</ele>
        <time>2025-12-11T13:06:15Z</time>
      </trkpt>
      <trkpt lat="45.71154" lon="4.75459">
        <ele>315.6</ele>
        <time>2025-12-11T13:06:16Z</time>
      </trkpt>
      <trkpt lat="45.71157" lon="4.75459">
        <ele>315.8</ele>
        <time>2025-12-11T13:06:17Z</time>
      </trkpt>
      <trkpt lat="45.71162" lon="4.75458">
        <ele>315.8</ele>
        <time>2025-12-11T13:06:18Z</time>
      </trkpt>
      <trkpt lat="45.71165" lon="4.75456">
        <ele>316</ele>
        <time>2025-12-11T13:06:19Z</time>
      </trkpt>
      <trkpt lat="45.71168" lon="4.75455">
        <ele>316</ele>
        <time>2025-12-11T13:06:20Z</time>
      </trkpt>
      <trkpt lat="45.71172" lon="4.75453">
        <ele>316.2</ele>
        <time>2025-12-11T13:06:21Z</time>
      </trkpt>
      <trkpt lat="45.71174" lon="4.75452">
        <ele>316.2</ele>
        <time>2025-12-11T13:06:22Z</time>
      </trkpt>
      <trkpt lat="45.71178" lon="4.75451">
        <ele>316.4</ele>
        <time>2025-12-11T13:06:23Z</time>
      </trkpt>
      <trkpt lat="45.71181" lon="4.75449">
        <ele>316.4</ele>
        <time>2025-12-11T13:06:24Z</time>
      </trkpt>
      <trkpt lat="45.71185" lon="4.75448">
        <ele>316.6</ele>
        <time>2025-12-11T13:06:25Z</time>
      </trkpt>
      <trkpt lat="45.71189" lon="4.75446">
        <ele>316.6</ele>
        <time>2025-12-11T13:06:26Z</time>
      </trkpt>
      <trkpt lat="45.71192" lon="4.75444">
        <ele>316.6</ele>
        <time>2025-12-11T13:06:27Z</time>
      </trkpt>
      <trkpt lat="45.71195" lon="4.75443">
        <ele>316.8</ele>
        <time>2025-12-11T13:06:28Z</time>
      </trkpt>
      <trkpt lat="45.71199" lon="4.75441">
        <ele>316.8</ele>
        <time>2025-12-11T13:06:29Z</time>
      </trkpt>
      <trkpt lat="45.71202" lon="4.75439">
        <ele>317</ele>
        <time>2025-12-11T13:06:30Z</time>
      </trkpt>
      <trkpt lat="45.71206" lon="4.75437">
        <ele>317.2</ele>
        <time>2025-12-11T13:06:31Z</time>
      </trkpt>
      <trkpt lat="45.71209" lon="4.75435">
        <ele>317.2</ele>
        <time>2025-12-11T13:06:32Z</time>
      </trkpt>
      <trkpt lat="45.71212" lon="4.75433">
        <ele>317.4</ele>
        <time>2025-12-11T13:06:33Z</time>
      </trkpt>
      <trkpt lat="45.71215" lon="4.75432">
        <ele>317.6</ele>
        <time>2025-12-11T13:06:34Z</time>
      </trkpt>
      <trkpt lat="45.71218" lon="4.75433">
        <ele>317.6</ele>
        <time>2025-12-11T13:06:35Z</time>
      </trkpt>
      <trkpt lat="45.71221" lon="4.75434">
        <ele>317.8</ele>
        <time>2025-12-11T13:06:36Z</time>
      </trkpt>
      <trkpt lat="45.71224" lon="4.75436">
        <ele>318</ele>
        <time>2025-12-11T13:06:37Z</time>
      </trkpt>
      <trkpt lat="45.71227" lon="4.75439">
        <ele>318.2</ele>
        <time>2025-12-11T13:06:38Z</time>
      </trkpt>
      <trkpt lat="45.71228" lon="4.75444">
        <ele>318.4</ele>
        <time>2025-12-11T13:06:39Z</time>
      </trkpt>
      <trkpt lat="45.7123" lon="4.75448">
        <ele>318.6</ele>
        <time>2025-12-11T13:06:40Z</time>
      </trkpt>
      <trkpt lat="45.71231" lon="4.75452">
        <ele>318.6</ele>
        <time>2025-12-11T13:06:41Z</time>
      </trkpt>
      <trkpt lat="45.71232" lon="4.75457">
        <ele>318.8</ele>
        <time>2025-12-11T13:06:42Z</time>
      </trkpt>
      <trkpt lat="45.71232" lon="4.75462">
        <ele>319</ele>
        <time>2025-12-11T13:06:43Z</time>
      </trkpt>
      <trkpt lat="45.71232" lon="4.75467">
        <ele>319.2</ele>
        <time>2025-12-11T13:06:44Z</time>
      </trkpt>
      <trkpt lat="45.71232" lon="4.75472">
        <ele>319.4</ele>
        <time>2025-12-11T13:06:45Z</time>
      </trkpt>
      <trkpt lat="45.71232" lon="4.75477">
        <ele>319.4</ele>
        <time>2025-12-11T13:06:46Z</time>
      </trkpt>
      <trkpt lat="45.71232" lon="4.75482">
        <ele>319.6</ele>
        <time>2025-12-11T13:06:47Z</time>
      </trkpt>
      <trkpt lat="45.71232" lon="4.75487">
        <ele>319.6</ele>
        <time>2025-12-11T13:06:48Z</time>
      </trkpt>
      <trkpt lat="45.71232" lon="4.75492">
        <ele>319.8</ele>
        <time>2025-12-11T13:06:49Z</time>
      </trkpt>
      <trkpt lat="45.71233" lon="4.75497">
        <ele>320</ele>
        <time>2025-12-11T13:06:50Z</time>
      </trkpt>
      <trkpt lat="45.71233" lon="4.75501">
        <ele>320</ele>
        <time>2025-12-11T13:06:51Z</time>
      </trkpt>
      <trkpt lat="45.71233" lon="4.75505">
        <ele>320.2</ele>
        <time>2025-12-11T13:06:52Z</time>
      </trkpt>
      <trkpt lat="45.71233" lon="4.7551">
        <ele>320.2</ele>
        <time>2025-12-11T13:06:53Z</time>
      </trkpt>
      <trkpt lat="45.71234" lon="4.75514">
        <ele>320.4</ele>
        <time>2025-12-11T13:06:54Z</time>
      </trkpt>
      <trkpt lat="45.71235" lon="4.75519">
        <ele>320.4</ele>
        <time>2025-12-11T13:06:55Z</time>
      </trkpt>
      <trkpt lat="45.71235" lon="4.75524">
        <ele>320.6</ele>
        <time>2025-12-11T13:06:56Z</time>
      </trkpt>
      <trkpt lat="45.71236" lon="4.75528">
        <ele>320.6</ele>
        <time>2025-12-11T13:06:57Z</time>
      </trkpt>
      <trkpt lat="45.71237" lon="4.75533">
        <ele>320.6</ele>
        <time>2025-12-11T13:06:58Z</time>
      </trkpt>
      <trkpt lat="45.71237" lon="4.75538">
        <ele>320.8</ele>
        <time>2025-12-11T13:06:59Z</time>
      </trkpt>
      <trkpt lat="45.71238" lon="4.75542">
        <ele>320.8</ele>
        <time>2025-12-11T13:07:00Z</time>
      </trkpt>
      <trkpt lat="45.71238" lon="4.75547">
        <ele>321</ele>
        <time>2025-12-11T13:07:01Z</time>
      </trkpt>
      <trkpt lat="45.7124" lon="4.75551">
        <ele>321.2</ele>
        <time>2025-12-11T13:07:02Z</time>
      </trkpt>
      <trkpt lat="45.71241" lon="4.75556">
        <ele>321.4</ele>
        <time>2025-12-11T13:07:03Z</time>
      </trkpt>
      <trkpt lat="45.71242" lon="4.7556">
        <ele>321.6</ele>
        <time>2025-12-11T13:07:04Z</time>
      </trkpt>
      <trkpt lat="45.71242" lon="4.75565">
        <ele>321.8</ele>
        <time>2025-12-11T13:07:05Z</time>
      </trkpt>
      <trkpt lat="45.71243" lon="4.75569">
        <ele>322</ele>
        <time>2025-12-11T13:07:06Z</time>
      </trkpt>
      <trkpt lat="45.71244" lon="4.75574">
        <ele>322.2</ele>
        <time>2025-12-11T13:07:07Z</time>
      </trkpt>
      <trkpt lat="45.71246" lon="4.75578">
        <ele>322.4</ele>
        <time>2025-12-11T13:07:08Z</time>
      </trkpt>
      <trkpt lat="45.71246" lon="4.75583">
        <ele>322.6</ele>
        <time>2025-12-11T13:07:09Z</time>
      </trkpt>
      <trkpt lat="45.71247" lon="4.75587">
        <ele>322.8</ele>
        <time>2025-12-11T13:07:10Z</time>
      </trkpt>
      <trkpt lat="45.71248" lon="4.75591">
        <ele>323</ele>
        <time>2025-12-11T13:07:11Z</time>
      </trkpt>
      <trkpt lat="45.71249" lon="4.75595">
        <ele>323.2</ele>
        <time>2025-12-11T13:07:12Z</time>
      </trkpt>
      <trkpt lat="45.7125" lon="4.756">
        <ele>323.2</ele>
        <time>2025-12-11T13:07:13Z</time>
      </trkpt>
      <trkpt lat="45.71251" lon="4.75604">
        <ele>323.4</ele>
        <time>2025-12-11T13:07:14Z</time>
      </trkpt>
      <trkpt lat="45.71252" lon="4.75609">
        <ele>323.4</ele>
        <time>2025-12-11T13:07:15Z</time>
      </trkpt>
      <trkpt lat="45.71253" lon="4.75613">
        <ele>323.6</ele>
        <time>2025-12-11T13:07:16Z</time>
      </trkpt>
      <trkpt lat="45.71254" lon="4.75618">
        <ele>323.6</ele>
        <time>2025-12-11T13:07:17Z</time>
      </trkpt>
      <trkpt lat="45.71256" lon="4.75622">
        <ele>323.8</ele>
        <time>2025-12-11T13:07:18Z</time>
      </trkpt>
      <trkpt lat="45.71258" lon="4.75625">
        <ele>324</ele>
        <time>2025-12-11T13:07:19Z</time>
      </trkpt>
      <trkpt lat="45.71261" lon="4.75627">
        <ele>324</ele>
        <time>2025-12-11T13:07:20Z</time>
      </trkpt>
      <trkpt lat="45.71264" lon="4.75627">
        <ele>324.2</ele>
        <time>2025-12-11T13:07:21Z</time>
      </trkpt>
      <trkpt lat="45.71267" lon="4.75628">
        <ele>324.4</ele>
        <time>2025-12-11T13:07:22Z</time>
      </trkpt>
      <trkpt lat="45.71271" lon="4.75627">
        <ele>324.4</ele>
        <time>2025-12-11T13:07:23Z</time>
      </trkpt>
      <trkpt lat="45.71275" lon="4.75626">
        <ele>324.6</ele>
        <time>2025-12-11T13:07:24Z</time>
      </trkpt>
      <trkpt lat="45.71279" lon="4.75626">
        <ele>324.4</ele>
        <time>2025-12-11T13:07:25Z</time>
      </trkpt>
      <trkpt lat="45.71283" lon="4.75625">
        <ele>324.4</ele>
        <time>2025-12-11T13:07:26Z</time>
      </trkpt>
      <trkpt lat="45.71287" lon="4.75624">
        <ele>324.4</ele>
        <time>2025-12-11T13:07:27Z</time>
      </trkpt>
      <trkpt lat="45.71291" lon="4.75624">
        <ele>324.6</ele>
        <time>2025-12-11T13:07:28Z</time>
      </trkpt>
      <trkpt lat="45.71295" lon="4.75624">
        <ele>324.4</ele>
        <time>2025-12-11T13:07:29Z</time>
      </trkpt>
      <trkpt lat="45.71299" lon="4.75624">
        <ele>324.6</ele>
        <time>2025-12-11T13:07:30Z</time>
      </trkpt>
      <trkpt lat="45.71303" lon="4.75623">
        <ele>324.6</ele>
        <time>2025-12-11T13:07:31Z</time>
      </trkpt>
      <trkpt lat="45.71307" lon="4.75622">
        <ele>324.6</ele>
        <time>2025-12-11T13:07:32Z</time>
      </trkpt>
      <trkpt lat="45.7131" lon="4.75622">
        <ele>324.6</ele>
        <time>2025-12-11T13:07:33Z</time>
      </trkpt>
      <trkpt lat="45.71313" lon="4.7562">
        <ele>324.6</ele>
        <time>2025-12-11T13:07:34Z</time>
      </trkpt>
      <trkpt lat="45.71316" lon="4.75617">
        <ele>324.6</ele>
        <time>2025-12-11T13:07:35Z</time>
      </trkpt>
      <trkpt lat="45.7132" lon="4.75614">
        <ele>324.6</ele>
        <time>2025-12-11T13:07:36Z</time>
      </trkpt>
      <trkpt lat="45.71322" lon="4.7561">
        <ele>324.6</ele>
        <time>2025-12-11T13:07:37Z</time>
      </trkpt>
      <trkpt lat="45.71325" lon="4.75605">
        <ele>324.6</ele>
        <time>2025-12-11T13:07:38Z</time>
      </trkpt>
      <trkpt lat="45.71327" lon="4.756">
        <ele>324.4</ele>
        <time>2025-12-11T13:07:39Z</time>
      </trkpt>
      <trkpt lat="45.71329" lon="4.75594">
        <ele>324.4</ele>
        <time>2025-12-11T13:07:40Z</time>
      </trkpt>
      <trkpt lat="45.7133" lon="4.75587">
        <ele>324.4</ele>
        <time>2025-12-11T13:07:41Z</time>
      </trkpt>
      <trkpt lat="45.71332" lon="4.7558">
        <ele>324.2</ele>
        <time>2025-12-11T13:07:42Z</time>
      </trkpt>
      <trkpt lat="45.71334" lon="4.75574">
        <ele>324.2</ele>
        <time>2025-12-11T13:07:43Z</time>
      </trkpt>
      <trkpt lat="45.71335" lon="4.75566">
        <ele>324.2</ele>
        <time>2025-12-11T13:07:44Z</time>
      </trkpt>
      <trkpt lat="45.71337" lon="4.75559">
        <ele>324</ele>
        <time>2025-12-11T13:07:45Z</time>
      </trkpt>
      <trkpt lat="45.71339" lon="4.75552">
        <ele>324</ele>
        <time>2025-12-11T13:07:46Z</time>
      </trkpt>
      <trkpt lat="45.7134" lon="4.75545">
        <ele>323.8</ele>
        <time>2025-12-11T13:07:47Z</time>
      </trkpt>
      <trkpt lat="45.71341" lon="4.75537">
        <ele>323.8</ele>
        <time>2025-12-11T13:07:48Z</time>
      </trkpt>
      <trkpt lat="45.71342" lon="4.7553">
        <ele>323.8</ele>
        <time>2025-12-11T13:07:49Z</time>
      </trkpt>
      <trkpt lat="45.71345" lon="4.75523">
        <ele>323.6</ele>
        <time>2025-12-11T13:07:50Z</time>
      </trkpt>
      <trkpt lat="45.71347" lon="4.75515">
        <ele>323.6</ele>
        <time>2025-12-11T13:07:51Z</time>
      </trkpt>
      <trkpt lat="45.71349" lon="4.75508">
        <ele>323.6</ele>
        <time>2025-12-11T13:07:52Z</time>
      </trkpt>
      <trkpt lat="45.71352" lon="4.75501">
        <ele>323.6</ele>
        <time>2025-12-11T13:07:53Z</time>
      </trkpt>
      <trkpt lat="45.71355" lon="4.75494">
        <ele>323.6</ele>
        <time>2025-12-11T13:07:54Z</time>
      </trkpt>
      <trkpt lat="45.71358" lon="4.75488">
        <ele>323.6</ele>
        <time>2025-12-11T13:07:55Z</time>
      </trkpt>
      <trkpt lat="45.71361" lon="4.75482">
        <ele>323.6</ele>
        <time>2025-12-11T13:07:56Z</time>
      </trkpt>
      <trkpt lat="45.71364" lon="4.75476">
        <ele>323.6</ele>
        <time>2025-12-11T13:07:57Z</time>
      </trkpt>
      <trkpt lat="45.71368" lon="4.7547">
        <ele>323.6</ele>
        <time>2025-12-11T13:07:58Z</time>
      </trkpt>
      <trkpt lat="45.71372" lon="4.75465">
        <ele>323.6</ele>
        <time>2025-12-11T13:07:59Z</time>
      </trkpt>
      <trkpt lat="45.71376" lon="4.7546">
        <ele>323.6</ele>
        <time>2025-12-11T13:08:00Z</time>
      </trkpt>
      <trkpt lat="45.7138" lon="4.75456">
        <ele>323.8</ele>
        <time>2025-12-11T13:08:01Z</time>
      </trkpt>
      <trkpt lat="45.71385" lon="4.75452">
        <ele>323.8</ele>
        <time>2025-12-11T13:08:02Z</time>
      </trkpt>
      <trkpt lat="45.7139" lon="4.75449">
        <ele>323.8</ele>
        <time>2025-12-11T13:08:03Z</time>
      </trkpt>
      <trkpt lat="45.71395" lon="4.75447">
        <ele>323.8</ele>
        <time>2025-12-11T13:08:04Z</time>
      </trkpt>
      <trkpt lat="45.71399" lon="4.75444">
        <ele>323.8</ele>
        <time>2025-12-11T13:08:05Z</time>
      </trkpt>
      <trkpt lat="45.71404" lon="4.75442">
        <ele>323.8</ele>
        <time>2025-12-11T13:08:06Z</time>
      </trkpt>
      <trkpt lat="45.71409" lon="4.75439">
        <ele>324</ele>
        <time>2025-12-11T13:08:07Z</time>
      </trkpt>
      <trkpt lat="45.71414" lon="4.75437">
        <ele>324</ele>
        <time>2025-12-11T13:08:08Z</time>
      </trkpt>
      <trkpt lat="45.71419" lon="4.75434">
        <ele>324</ele>
        <time>2025-12-11T13:08:09Z</time>
      </trkpt>
      <trkpt lat="45.71424" lon="4.75432">
        <ele>324</ele>
        <time>2025-12-11T13:08:10Z</time>
      </trkpt>
      <trkpt lat="45.71428" lon="4.75428">
        <ele>324</ele>
        <time>2025-12-11T13:08:11Z</time>
      </trkpt>
      <trkpt lat="45.71432" lon="4.75423">
        <ele>324</ele>
        <time>2025-12-11T13:08:12Z</time>
      </trkpt>
      <trkpt lat="45.71436" lon="4.75417">
        <ele>323.8</ele>
        <time>2025-12-11T13:08:13Z</time>
      </trkpt>
      <trkpt lat="45.71439" lon="4.75411">
        <ele>323.6</ele>
        <time>2025-12-11T13:08:14Z</time>
      </trkpt>
      <trkpt lat="45.71442" lon="4.75403">
        <ele>323.4</ele>
        <time>2025-12-11T13:08:15Z</time>
      </trkpt>
      <trkpt lat="45.71445" lon="4.75395">
        <ele>323</ele>
        <time>2025-12-11T13:08:16Z</time>
      </trkpt>
      <trkpt lat="45.71447" lon="4.75386">
        <ele>322.6</ele>
        <time>2025-12-11T13:08:17Z</time>
      </trkpt>
      <trkpt lat="45.7145" lon="4.75377">
        <ele>322.2</ele>
        <time>2025-12-11T13:08:18Z</time>
      </trkpt>
      <trkpt lat="45.71452" lon="4.75367">
        <ele>321.8</ele>
        <time>2025-12-11T13:08:19Z</time>
      </trkpt>
      <trkpt lat="45.71454" lon="4.75357">
        <ele>321.4</ele>
        <time>2025-12-11T13:08:20Z</time>
      </trkpt>
      <trkpt lat="45.71456" lon="4.75347">
        <ele>320.8</ele>
        <time>2025-12-11T13:08:21Z</time>
      </trkpt>
      <trkpt lat="45.71458" lon="4.75336">
        <ele>320.4</ele>
        <time>2025-12-11T13:08:22Z</time>
      </trkpt>
      <trkpt lat="45.7146" lon="4.75326">
        <ele>320</ele>
        <time>2025-12-11T13:08:23Z</time>
      </trkpt>
      <trkpt lat="45.71462" lon="4.75315">
        <ele>319.6</ele>
        <time>2025-12-11T13:08:24Z</time>
      </trkpt>
      <trkpt lat="45.71463" lon="4.75304">
        <ele>319.2</ele>
        <time>2025-12-11T13:08:25Z</time>
      </trkpt>
      <trkpt lat="45.71465" lon="4.75294">
        <ele>318.8</ele>
        <time>2025-12-11T13:08:26Z</time>
      </trkpt>
      <trkpt lat="45.71468" lon="4.75283">
        <ele>318.6</ele>
        <time>2025-12-11T13:08:27Z</time>
      </trkpt>
      <trkpt lat="45.7147" lon="4.75273">
        <ele>318.2</ele>
        <time>2025-12-11T13:08:28Z</time>
      </trkpt>
      <trkpt lat="45.71472" lon="4.75263">
        <ele>318</ele>
        <time>2025-12-11T13:08:29Z</time>
      </trkpt>
      <trkpt lat="45.71474" lon="4.75252">
        <ele>317.8</ele>
        <time>2025-12-11T13:08:30Z</time>
      </trkpt>
      <trkpt lat="45.71476" lon="4.75242">
        <ele>317.8</ele>
        <time>2025-12-11T13:08:31Z</time>
      </trkpt>
      <trkpt lat="45.71478" lon="4.75232">
        <ele>317.6</ele>
        <time>2025-12-11T13:08:32Z</time>
      </trkpt>
      <trkpt lat="45.7148" lon="4.75222">
        <ele>317.6</ele>
        <time>2025-12-11T13:08:33Z</time>
      </trkpt>
      <trkpt lat="45.71482" lon="4.75212">
        <ele>317.4</ele>
        <time>2025-12-11T13:08:34Z</time>
      </trkpt>
      <trkpt lat="45.71484" lon="4.75203">
        <ele>317.4</ele>
        <time>2025-12-11T13:08:35Z</time>
      </trkpt>
      <trkpt lat="45.71486" lon="4.75193">
        <ele>317.4</ele>
        <time>2025-12-11T13:08:36Z</time>
      </trkpt>
      <trkpt lat="45.71488" lon="4.75183">
        <ele>317.4</ele>
        <time>2025-12-11T13:08:37Z</time>
      </trkpt>
      <trkpt lat="45.7149" lon="4.75174">
        <ele>317.4</ele>
        <time>2025-12-11T13:08:38Z</time>
      </trkpt>
      <trkpt lat="45.71492" lon="4.75165">
        <ele>317.2</ele>
        <time>2025-12-11T13:08:39Z</time>
      </trkpt>
      <trkpt lat="45.71494" lon="4.75156">
        <ele>317.2</ele>
        <time>2025-12-11T13:08:40Z</time>
      </trkpt>
      <trkpt lat="45.71495" lon="4.75147">
        <ele>317.2</ele>
        <time>2025-12-11T13:08:41Z</time>
      </trkpt>
      <trkpt lat="45.71496" lon="4.75137">
        <ele>317</ele>
        <time>2025-12-11T13:08:42Z</time>
      </trkpt>
      <trkpt lat="45.71497" lon="4.75128">
        <ele>317</ele>
        <time>2025-12-11T13:08:43Z</time>
      </trkpt>
      <trkpt lat="45.71498" lon="4.75119">
        <ele>317</ele>
        <time>2025-12-11T13:08:44Z</time>
      </trkpt>
      <trkpt lat="45.71499" lon="4.7511">
        <ele>316.8</ele>
        <time>2025-12-11T13:08:45Z</time>
      </trkpt>
      <trkpt lat="45.715" lon="4.75101">
        <ele>317</ele>
        <time>2025-12-11T13:08:46Z</time>
      </trkpt>
      <trkpt lat="45.71501" lon="4.75093">
        <ele>317</ele>
        <time>2025-12-11T13:08:47Z</time>
      </trkpt>
      <trkpt lat="45.71502" lon="4.75085">
        <ele>317.2</ele>
        <time>2025-12-11T13:08:48Z</time>
      </trkpt>
      <trkpt lat="45.71503" lon="4.75077">
        <ele>317.4</ele>
        <time>2025-12-11T13:08:49Z</time>
      </trkpt>
      <trkpt lat="45.71504" lon="4.75069">
        <ele>317.6</ele>
        <time>2025-12-11T13:08:50Z</time>
      </trkpt>
      <trkpt lat="45.71504" lon="4.75061">
        <ele>317.8</ele>
        <time>2025-12-11T13:08:51Z</time>
      </trkpt>
      <trkpt lat="45.71506" lon="4.75055">
        <ele>318</ele>
        <time>2025-12-11T13:08:52Z</time>
      </trkpt>
      <trkpt lat="45.71508" lon="4.75049">
        <ele>318.2</ele>
        <time>2025-12-11T13:08:53Z</time>
      </trkpt>
      <trkpt lat="45.7151" lon="4.75045">
        <ele>318.4</ele>
        <time>2025-12-11T13:08:54Z</time>
      </trkpt>
      <trkpt lat="45.71512" lon="4.75044">
        <ele>318.8</ele>
        <time>2025-12-11T13:08:55Z</time>
      </trkpt>
      <trkpt lat="45.71514" lon="4.75042">
        <ele>319</ele>
        <time>2025-12-11T13:08:56Z</time>
      </trkpt>
      <trkpt lat="45.71516" lon="4.7504">
        <ele>319.2</ele>
        <time>2025-12-11T13:08:57Z</time>
      </trkpt>
      <trkpt lat="45.71518" lon="4.75038">
        <ele>319.4</ele>
        <time>2025-12-11T13:08:58Z</time>
      </trkpt>
      <trkpt lat="45.7152" lon="4.75035">
        <ele>319.6</ele>
        <time>2025-12-11T13:08:59Z</time>
      </trkpt>
      <trkpt lat="45.71523" lon="4.75032">
        <ele>319.4</ele>
        <time>2025-12-11T13:09:00Z</time>
      </trkpt>
      <trkpt lat="45.71526" lon="4.75028">
        <ele>319.4</ele>
        <time>2025-12-11T13:09:01Z</time>
      </trkpt>
      <trkpt lat="45.7153" lon="4.75024">
        <ele>319.4</ele>
        <time>2025-12-11T13:09:02Z</time>
      </trkpt>
      <trkpt lat="45.71534" lon="4.75021">
        <ele>319.4</ele>
        <time>2025-12-11T13:09:03Z</time>
      </trkpt>
      <trkpt lat="45.71539" lon="4.75018">
        <ele>319.2</ele>
        <time>2025-12-11T13:09:04Z</time>
      </trkpt>
      <trkpt lat="45.71543" lon="4.75014">
        <ele>319.2</ele>
        <time>2025-12-11T13:09:05Z</time>
      </trkpt>
      <trkpt lat="45.71548" lon="4.7501">
        <ele>319.2</ele>
        <time>2025-12-11T13:09:06Z</time>
      </trkpt>
      <trkpt lat="45.71552" lon="4.75005">
        <ele>319.2</ele>
        <time>2025-12-11T13:09:07Z</time>
      </trkpt>
      <trkpt lat="45.71555" lon="4.75">
        <ele>319.4</ele>
        <time>2025-12-11T13:09:08Z</time>
      </trkpt>
      <trkpt lat="45.71558" lon="4.74994">
        <ele>319.6</ele>
        <time>2025-12-11T13:09:09Z</time>
      </trkpt>
      <trkpt lat="45.71562" lon="4.74988">
        <ele>319.6</ele>
        <time>2025-12-11T13:09:10Z</time>
      </trkpt>
      <trkpt lat="45.71565" lon="4.74982">
        <ele>319.8</ele>
        <time>2025-12-11T13:09:11Z</time>
      </trkpt>
      <trkpt lat="45.71568" lon="4.74976">
        <ele>319.8</ele>
        <time>2025-12-11T13:09:12Z</time>
      </trkpt>
      <trkpt lat="45.71571" lon="4.7497">
        <ele>320</ele>
        <time>2025-12-11T13:09:13Z</time>
      </trkpt>
      <trkpt lat="45.71575" lon="4.74964">
        <ele>320</ele>
        <time>2025-12-11T13:09:14Z</time>
      </trkpt>
      <trkpt lat="45.71578" lon="4.74959">
        <ele>320.2</ele>
        <time>2025-12-11T13:09:15Z</time>
      </trkpt>
      <trkpt lat="45.7158" lon="4.74953">
        <ele>320.4</ele>
        <time>2025-12-11T13:09:16Z</time>
      </trkpt>
      <trkpt lat="45.71583" lon="4.74947">
        <ele>320.4</ele>
        <time>2025-12-11T13:09:17Z</time>
      </trkpt>
      <trkpt lat="45.71586" lon="4.74942">
        <ele>320.6</ele>
        <time>2025-12-11T13:09:18Z</time>
      </trkpt>
      <trkpt lat="45.71589" lon="4.74936">
        <ele>320.8</ele>
        <time>2025-12-11T13:09:19Z</time>
      </trkpt>
      <trkpt lat="45.71591" lon="4.74931">
        <ele>321</ele>
        <time>2025-12-11T13:09:20Z</time>
      </trkpt>
      <trkpt lat="45.71594" lon="4.74925">
        <ele>321</ele>
        <time>2025-12-11T13:09:21Z</time>
      </trkpt>
      <trkpt lat="45.71597" lon="4.7492">
        <ele>321.2</ele>
        <time>2025-12-11T13:09:22Z</time>
      </trkpt>
      <trkpt lat="45.71599" lon="4.74914">
        <ele>321.4</ele>
        <time>2025-12-11T13:09:23Z</time>
      </trkpt>
      <trkpt lat="45.71602" lon="4.74909">
        <ele>321.4</ele>
        <time>2025-12-11T13:09:24Z</time>
      </trkpt>
      <trkpt lat="45.71604" lon="4.74903">
        <ele>321.4</ele>
        <time>2025-12-11T13:09:25Z</time>
      </trkpt>
      <trkpt lat="45.71606" lon="4.74898">
        <ele>321.6</ele>
        <time>2025-12-11T13:09:26Z</time>
      </trkpt>
      <trkpt lat="45.71609" lon="4.74893">
        <ele>321.6</ele>
        <time>2025-12-11T13:09:27Z</time>
      </trkpt>
      <trkpt lat="45.71611" lon="4.74887">
        <ele>321.8</ele>
        <time>2025-12-11T13:09:28Z</time>
      </trkpt>
      <trkpt lat="45.71613" lon="4.74882">
        <ele>322</ele>
        <time>2025-12-11T13:09:29Z</time>
      </trkpt>
      <trkpt lat="45.71615" lon="4.74877">
        <ele>322.2</ele>
        <time>2025-12-11T13:09:30Z</time>
      </trkpt>
      <trkpt lat="45.71618" lon="4.74873">
        <ele>322.4</ele>
        <time>2025-12-11T13:09:31Z</time>
      </trkpt>
      <trkpt lat="45.71621" lon="4.7487">
        <ele>322.4</ele>
        <time>2025-12-11T13:09:32Z</time>
      </trkpt>
      <trkpt lat="45.71624" lon="4.74867">
        <ele>322.4</ele>
        <time>2025-12-11T13:09:33Z</time>
      </trkpt>
      <trkpt lat="45.71627" lon="4.74863">
        <ele>322.6</ele>
        <time>2025-12-11T13:09:34Z</time>
      </trkpt>
      <trkpt lat="45.71631" lon="4.7486">
        <ele>322.6</ele>
        <time>2025-12-11T13:09:35Z</time>
      </trkpt>
      <trkpt lat="45.71634" lon="4.74856">
        <ele>322.6</ele>
        <time>2025-12-11T13:09:36Z</time>
      </trkpt>
      <trkpt lat="45.71638" lon="4.74852">
        <ele>322.6</ele>
        <time>2025-12-11T13:09:37Z</time>
      </trkpt>
      <trkpt lat="45.71642" lon="4.74848">
        <ele>322.8</ele>
        <time>2025-12-11T13:09:38Z</time>
      </trkpt>
      <trkpt lat="45.71645" lon="4.74844">
        <ele>322.8</ele>
        <time>2025-12-11T13:09:39Z</time>
      </trkpt>
      <trkpt lat="45.71649" lon="4.7484">
        <ele>322.8</ele>
        <time>2025-12-11T13:09:40Z</time>
      </trkpt>
      <trkpt lat="45.71653" lon="4.74836">
        <ele>323</ele>
        <time>2025-12-11T13:09:41Z</time>
      </trkpt>
      <trkpt lat="45.71657" lon="4.74832">
        <ele>323</ele>
        <time>2025-12-11T13:09:42Z</time>
      </trkpt>
      <trkpt lat="45.7166" lon="4.74828">
        <ele>323.2</ele>
        <time>2025-12-11T13:09:43Z</time>
      </trkpt>
      <trkpt lat="45.71664" lon="4.74824">
        <ele>323.2</ele>
        <time>2025-12-11T13:09:44Z</time>
      </trkpt>
      <trkpt lat="45.71668" lon="4.7482">
        <ele>323.2</ele>
        <time>2025-12-11T13:09:45Z</time>
      </trkpt>
      <trkpt lat="45.71672" lon="4.74816">
        <ele>323.2</ele>
        <time>2025-12-11T13:09:46Z</time>
      </trkpt>
      <trkpt lat="45.71676" lon="4.74813">
        <ele>323.4</ele>
        <time>2025-12-11T13:09:47Z</time>
      </trkpt>
      <trkpt lat="45.7168" lon="4.74809">
        <ele>323.4</ele>
        <time>2025-12-11T13:09:48Z</time>
      </trkpt>
      <trkpt lat="45.71683" lon="4.74805">
        <ele>323.4</ele>
        <time>2025-12-11T13:09:49Z</time>
      </trkpt>
      <trkpt lat="45.71687" lon="4.74801">
        <ele>323.4</ele>
        <time>2025-12-11T13:09:50Z</time>
      </trkpt>
      <trkpt lat="45.71691" lon="4.74798">
        <ele>323.4</ele>
        <time>2025-12-11T13:09:51Z</time>
      </trkpt>
      <trkpt lat="45.71696" lon="4.74794">
        <ele>323.4</ele>
        <time>2025-12-11T13:09:52Z</time>
      </trkpt>
      <trkpt lat="45.71701" lon="4.74791">
        <ele>323.4</ele>
        <time>2025-12-11T13:09:53Z</time>
      </trkpt>
      <trkpt lat="45.71705" lon="4.74788">
        <ele>323.2</ele>
        <time>2025-12-11T13:09:54Z</time>
      </trkpt>
      <trkpt lat="45.7171" lon="4.74785">
        <ele>323</ele>
        <time>2025-12-11T13:09:55Z</time>
      </trkpt>
      <trkpt lat="45.71715" lon="4.74782">
        <ele>322.8</ele>
        <time>2025-12-11T13:09:56Z</time>
      </trkpt>
      <trkpt lat="45.71721" lon="4.74778">
        <ele>322.6</ele>
        <time>2025-12-11T13:09:57Z</time>
      </trkpt>
      <trkpt lat="45.71726" lon="4.74775">
        <ele>322.4</ele>
        <time>2025-12-11T13:09:58Z</time>
      </trkpt>
      <trkpt lat="45.71732" lon="4.74772">
        <ele>322.2</ele>
        <time>2025-12-11T13:09:59Z</time>
      </trkpt>
      <trkpt lat="45.71737" lon="4.74769">
        <ele>322.2</ele>
        <time>2025-12-11T13:10:00Z</time>
      </trkpt>
      <trkpt lat="45.71743" lon="4.74765">
        <ele>322</ele>
        <time>2025-12-11T13:10:01Z</time>
      </trkpt>
      <trkpt lat="45.71748" lon="4.74762">
        <ele>321.8</ele>
        <time>2025-12-11T13:10:02Z</time>
      </trkpt>
      <trkpt lat="45.71753" lon="4.74759">
        <ele>321.8</ele>
        <time>2025-12-11T13:10:03Z</time>
      </trkpt>
      <trkpt lat="45.71759" lon="4.74755">
        <ele>321.6</ele>
        <time>2025-12-11T13:10:04Z</time>
      </trkpt>
      <trkpt lat="45.71764" lon="4.74751">
        <ele>321.6</ele>
        <time>2025-12-11T13:10:05Z</time>
      </trkpt>
      <trkpt lat="45.71769" lon="4.74748">
        <ele>321.4</ele>
        <time>2025-12-11T13:10:06Z</time>
      </trkpt>
      <trkpt lat="45.71775" lon="4.74744">
        <ele>321.2</ele>
        <time>2025-12-11T13:10:07Z</time>
      </trkpt>
      <trkpt lat="45.7178" lon="4.7474">
        <ele>321</ele>
        <time>2025-12-11T13:10:08Z</time>
      </trkpt>
      <trkpt lat="45.71786" lon="4.74736">
        <ele>320.8</ele>
        <time>2025-12-11T13:10:09Z</time>
      </trkpt>
      <trkpt lat="45.71793" lon="4.74732">
        <ele>320.4</ele>
        <time>2025-12-11T13:10:10Z</time>
      </trkpt>
      <trkpt lat="45.71799" lon="4.74728">
        <ele>320.2</ele>
        <time>2025-12-11T13:10:11Z</time>
      </trkpt>
      <trkpt lat="45.71805" lon="4.74725">
        <ele>320</ele>
        <time>2025-12-11T13:10:12Z</time>
      </trkpt>
      <trkpt lat="45.71811" lon="4.7472">
        <ele>319.8</ele>
        <time>2025-12-11T13:10:13Z</time>
      </trkpt>
      <trkpt lat="45.71814" lon="4.74714">
        <ele>319.6</ele>
        <time>2025-12-11T13:10:14Z</time>
      </trkpt>
      <trkpt lat="45.71818" lon="4.74708">
        <ele>319.4</ele>
        <time>2025-12-11T13:10:15Z</time>
      </trkpt>
      <trkpt lat="45.71821" lon="4.74702">
        <ele>319.2</ele>
        <time>2025-12-11T13:10:16Z</time>
      </trkpt>
      <trkpt lat="45.71824" lon="4.74696">
        <ele>319</ele>
        <time>2025-12-11T13:10:17Z</time>
      </trkpt>
      <trkpt lat="45.71827" lon="4.74689">
        <ele>318.8</ele>
        <time>2025-12-11T13:10:18Z</time>
      </trkpt>
      <trkpt lat="45.71831" lon="4.74683">
        <ele>318.4</ele>
        <time>2025-12-11T13:10:19Z</time>
      </trkpt>
      <trkpt lat="45.71835" lon="4.74676">
        <ele>318</ele>
        <time>2025-12-11T13:10:20Z</time>
      </trkpt>
      <trkpt lat="45.71839" lon="4.74668">
        <ele>317.8</ele>
        <time>2025-12-11T13:10:21Z</time>
      </trkpt>
      <trkpt lat="45.71843" lon="4.74661">
        <ele>317.4</ele>
        <time>2025-12-11T13:10:22Z</time>
      </trkpt>
      <trkpt lat="45.71846" lon="4.74653">
        <ele>317</ele>
        <time>2025-12-11T13:10:23Z</time>
      </trkpt>
      <trkpt lat="45.7185" lon="4.74646">
        <ele>316.6</ele>
        <time>2025-12-11T13:10:24Z</time>
      </trkpt>
      <trkpt lat="45.71854" lon="4.74638">
        <ele>316.4</ele>
        <time>2025-12-11T13:10:25Z</time>
      </trkpt>
      <trkpt lat="45.71858" lon="4.74631">
        <ele>316</ele>
        <time>2025-12-11T13:10:26Z</time>
      </trkpt>
      <trkpt lat="45.71862" lon="4.74623">
        <ele>315.8</ele>
        <time>2025-12-11T13:10:27Z</time>
      </trkpt>
      <trkpt lat="45.71865" lon="4.74616">
        <ele>315.6</ele>
        <time>2025-12-11T13:10:28Z</time>
      </trkpt>
      <trkpt lat="45.71869" lon="4.74609">
        <ele>315.4</ele>
        <time>2025-12-11T13:10:29Z</time>
      </trkpt>
      <trkpt lat="45.71872" lon="4.74602">
        <ele>315.4</ele>
        <time>2025-12-11T13:10:30Z</time>
      </trkpt>
      <trkpt lat="45.71875" lon="4.74594">
        <ele>315</ele>
        <time>2025-12-11T13:10:31Z</time>
      </trkpt>
      <trkpt lat="45.71879" lon="4.74587">
        <ele>314.8</ele>
        <time>2025-12-11T13:10:32Z</time>
      </trkpt>
      <trkpt lat="45.71884" lon="4.7458">
        <ele>314.6</ele>
        <time>2025-12-11T13:10:33Z</time>
      </trkpt>
      <trkpt lat="45.71888" lon="4.74573">
        <ele>314.4</ele>
        <time>2025-12-11T13:10:34Z</time>
      </trkpt>
      <trkpt lat="45.71891" lon="4.74566">
        <ele>314.2</ele>
        <time>2025-12-11T13:10:35Z</time>
      </trkpt>
      <trkpt lat="45.71895" lon="4.74559">
        <ele>314</ele>
        <time>2025-12-11T13:10:36Z</time>
      </trkpt>
      <trkpt lat="45.71898" lon="4.74552">
        <ele>313.8</ele>
        <time>2025-12-11T13:10:37Z</time>
      </trkpt>
      <trkpt lat="45.71902" lon="4.74545">
        <ele>313.8</ele>
        <time>2025-12-11T13:10:38Z</time>
      </trkpt>
      <trkpt lat="45.71906" lon="4.74538">
        <ele>313.6</ele>
        <time>2025-12-11T13:10:39Z</time>
      </trkpt>
      <trkpt lat="45.7191" lon="4.74531">
        <ele>313.6</ele>
        <time>2025-12-11T13:10:40Z</time>
      </trkpt>
      <trkpt lat="45.71913" lon="4.74524">
        <ele>313.2</ele>
        <time>2025-12-11T13:10:41Z</time>
      </trkpt>
      <trkpt lat="45.71917" lon="4.74517">
        <ele>313</ele>
        <time>2025-12-11T13:10:42Z</time>
      </trkpt>
      <trkpt lat="45.7192" lon="4.7451">
        <ele>312.8</ele>
        <time>2025-12-11T13:10:43Z</time>
      </trkpt>
      <trkpt lat="45.71924" lon="4.74503">
        <ele>312.4</ele>
        <time>2025-12-11T13:10:44Z</time>
      </trkpt>
      <trkpt lat="45.71928" lon="4.74496">
        <ele>312.2</ele>
        <time>2025-12-11T13:10:45Z</time>
      </trkpt>
      <trkpt lat="45.71933" lon="4.74489">
        <ele>311.8</ele>
        <time>2025-12-11T13:10:46Z</time>
      </trkpt>
      <trkpt lat="45.71937" lon="4.74482">
        <ele>311.4</ele>
        <time>2025-12-11T13:10:47Z</time>
      </trkpt>
      <trkpt lat="45.71941" lon="4.74475">
        <ele>311</ele>
        <time>2025-12-11T13:10:48Z</time>
      </trkpt>
      <trkpt lat="45.71945" lon="4.74468">
        <ele>310.8</ele>
        <time>2025-12-11T13:10:49Z</time>
      </trkpt>
      <trkpt lat="45.71949" lon="4.74461">
        <ele>310.4</ele>
        <time>2025-12-11T13:10:50Z</time>
      </trkpt>
      <trkpt lat="45.71953" lon="4.74453">
        <ele>310</ele>
        <time>2025-12-11T13:10:51Z</time>
      </trkpt>
      <trkpt lat="45.71957" lon="4.74447">
        <ele>309.8</ele>
        <time>2025-12-11T13:10:52Z</time>
      </trkpt>
      <trkpt lat="45.71962" lon="4.7444">
        <ele>309.6</ele>
        <time>2025-12-11T13:10:53Z</time>
      </trkpt>
      <trkpt lat="45.71965" lon="4.74433">
        <ele>309.2</ele>
        <time>2025-12-11T13:10:54Z</time>
      </trkpt>
      <trkpt lat="45.71969" lon="4.74426">
        <ele>309</ele>
        <time>2025-12-11T13:10:55Z</time>
      </trkpt>
      <trkpt lat="45.71973" lon="4.7442">
        <ele>308.8</ele>
        <time>2025-12-11T13:10:56Z</time>
      </trkpt>
      <trkpt lat="45.71976" lon="4.74413">
        <ele>308.6</ele>
        <time>2025-12-11T13:10:57Z</time>
      </trkpt>
      <trkpt lat="45.7198" lon="4.74406">
        <ele>308.2</ele>
        <time>2025-12-11T13:10:58Z</time>
      </trkpt>
      <trkpt lat="45.71984" lon="4.744">
        <ele>307.8</ele>
        <time>2025-12-11T13:10:59Z</time>
      </trkpt>
      <trkpt lat="45.71988" lon="4.74393">
        <ele>307.6</ele>
        <time>2025-12-11T13:11:00Z</time>
      </trkpt>
      <trkpt lat="45.71991" lon="4.74386">
        <ele>307.4</ele>
        <time>2025-12-11T13:11:01Z</time>
      </trkpt>
      <trkpt lat="45.71994" lon="4.74379">
        <ele>307</ele>
        <time>2025-12-11T13:11:02Z</time>
      </trkpt>
      <trkpt lat="45.71997" lon="4.74371">
        <ele>306.6</ele>
        <time>2025-12-11T13:11:03Z</time>
      </trkpt>
      <trkpt lat="45.71999" lon="4.74364">
        <ele>306.2</ele>
        <time>2025-12-11T13:11:04Z</time>
      </trkpt>
      <trkpt lat="45.72002" lon="4.74355">
        <ele>305.8</ele>
        <time>2025-12-11T13:11:05Z</time>
      </trkpt>
      <trkpt lat="45.72006" lon="4.74347">
        <ele>305.2</ele>
        <time>2025-12-11T13:11:06Z</time>
      </trkpt>
      <trkpt lat="45.72011" lon="4.74339">
        <ele>304.8</ele>
        <time>2025-12-11T13:11:07Z</time>
      </trkpt>
      <trkpt lat="45.72016" lon="4.7433">
        <ele>304.2</ele>
        <time>2025-12-11T13:11:08Z</time>
      </trkpt>
      <trkpt lat="45.7202" lon="4.74321">
        <ele>303.6</ele>
        <time>2025-12-11T13:11:09Z</time>
      </trkpt>
      <trkpt lat="45.72025" lon="4.74312">
        <ele>302.8</ele>
        <time>2025-12-11T13:11:10Z</time>
      </trkpt>
      <trkpt lat="45.7203" lon="4.74304">
        <ele>302.4</ele>
        <time>2025-12-11T13:11:11Z</time>
      </trkpt>
      <trkpt lat="45.72035" lon="4.74295">
        <ele>301.8</ele>
        <time>2025-12-11T13:11:12Z</time>
      </trkpt>
      <trkpt lat="45.7204" lon="4.74286">
        <ele>301.4</ele>
        <time>2025-12-11T13:11:13Z</time>
      </trkpt>
      <trkpt lat="45.72044" lon="4.74278">
        <ele>301.2</ele>
        <time>2025-12-11T13:11:14Z</time>
      </trkpt>
      <trkpt lat="45.72049" lon="4.7427">
        <ele>301.2</ele>
        <time>2025-12-11T13:11:15Z</time>
      </trkpt>
      <trkpt lat="45.72054" lon="4.74262">
        <ele>300.8</ele>
        <time>2025-12-11T13:11:16Z</time>
      </trkpt>
      <trkpt lat="45.72058" lon="4.74254">
        <ele>300.6</ele>
        <time>2025-12-11T13:11:17Z</time>
      </trkpt>
      <trkpt lat="45.72063" lon="4.74246">
        <ele>300.2</ele>
        <time>2025-12-11T13:11:18Z</time>
      </trkpt>
      <trkpt lat="45.72068" lon="4.74239">
        <ele>299.8</ele>
        <time>2025-12-11T13:11:19Z</time>
      </trkpt>
      <trkpt lat="45.72072" lon="4.74232">
        <ele>299.6</ele>
        <time>2025-12-11T13:11:20Z</time>
      </trkpt>
      <trkpt lat="45.72077" lon="4.74224">
        <ele>299.4</ele>
        <time>2025-12-11T13:11:21Z</time>
      </trkpt>
      <trkpt lat="45.72082" lon="4.74217">
        <ele>299.2</ele>
        <time>2025-12-11T13:11:22Z</time>
      </trkpt>
      <trkpt lat="45.72086" lon="4.74209">
        <ele>299</ele>
        <time>2025-12-11T13:11:23Z</time>
      </trkpt>
      <trkpt lat="45.7209" lon="4.74201">
        <ele>298.8</ele>
        <time>2025-12-11T13:11:24Z</time>
      </trkpt>
      <trkpt lat="45.72095" lon="4.74193">
        <ele>298.6</ele>
        <time>2025-12-11T13:11:25Z</time>
      </trkpt>
      <trkpt lat="45.72099" lon="4.74186">
        <ele>298.4</ele>
        <time>2025-12-11T13:11:26Z</time>
      </trkpt>
      <trkpt lat="45.72104" lon="4.74178">
        <ele>298</ele>
        <time>2025-12-11T13:11:27Z</time>
      </trkpt>
      <trkpt lat="45.72108" lon="4.74171">
        <ele>297.8</ele>
        <time>2025-12-11T13:11:28Z</time>
      </trkpt>
      <trkpt lat="45.72112" lon="4.74165">
        <ele>297.6</ele>
        <time>2025-12-11T13:11:29Z</time>
      </trkpt>
      <trkpt lat="45.72116" lon="4.74158">
        <ele>297.6</ele>
        <time>2025-12-11T13:11:30Z</time>
      </trkpt>
      <trkpt lat="45.7212" lon="4.74151">
        <ele>297.2</ele>
        <time>2025-12-11T13:11:31Z</time>
      </trkpt>
      <trkpt lat="45.72124" lon="4.74144">
        <ele>297</ele>
        <time>2025-12-11T13:11:32Z</time>
      </trkpt>
      <trkpt lat="45.72128" lon="4.74137">
        <ele>297</ele>
        <time>2025-12-11T13:11:33Z</time>
      </trkpt>
      <trkpt lat="45.72132" lon="4.74131">
        <ele>296.8</ele>
        <time>2025-12-11T13:11:34Z</time>
      </trkpt>
      <trkpt lat="45.72136" lon="4.74125">
        <ele>296.6</ele>
        <time>2025-12-11T13:11:35Z</time>
      </trkpt>
      <trkpt lat="45.7214" lon="4.74119">
        <ele>296.4</ele>
        <time>2025-12-11T13:11:36Z</time>
      </trkpt>
      <trkpt lat="45.72144" lon="4.74112">
        <ele>296.2</ele>
        <time>2025-12-11T13:11:37Z</time>
      </trkpt>
      <trkpt lat="45.72147" lon="4.74105">
        <ele>296.2</ele>
        <time>2025-12-11T13:11:38Z</time>
      </trkpt>
      <trkpt lat="45.72151" lon="4.74098">
        <ele>296</ele>
        <time>2025-12-11T13:11:39Z</time>
      </trkpt>
      <trkpt lat="45.72155" lon="4.74091">
        <ele>295.8</ele>
        <time>2025-12-11T13:11:40Z</time>
      </trkpt>
      <trkpt lat="45.72159" lon="4.74085">
        <ele>295.6</ele>
        <time>2025-12-11T13:11:41Z</time>
      </trkpt>
      <trkpt lat="45.72163" lon="4.74078">
        <ele>295.6</ele>
        <time>2025-12-11T13:11:42Z</time>
      </trkpt>
      <trkpt lat="45.72167" lon="4.74071">
        <ele>295.4</ele>
        <time>2025-12-11T13:11:43Z</time>
      </trkpt>
      <trkpt lat="45.72171" lon="4.74065">
        <ele>295.2</ele>
        <time>2025-12-11T13:11:44Z</time>
      </trkpt>
      <trkpt lat="45.72176" lon="4.74058">
        <ele>295.2</ele>
        <time>2025-12-11T13:11:45Z</time>
      </trkpt>
      <trkpt lat="45.7218" lon="4.74051">
        <ele>295</ele>
        <time>2025-12-11T13:11:46Z</time>
      </trkpt>
      <trkpt lat="45.72183" lon="4.74044">
        <ele>294.8</ele>
        <time>2025-12-11T13:11:47Z</time>
      </trkpt>
      <trkpt lat="45.72187" lon="4.74036">
        <ele>294.6</ele>
        <time>2025-12-11T13:11:48Z</time>
      </trkpt>
      <trkpt lat="45.72191" lon="4.74029">
        <ele>294.4</ele>
        <time>2025-12-11T13:11:49Z</time>
      </trkpt>
      <trkpt lat="45.72196" lon="4.74021">
        <ele>294</ele>
        <time>2025-12-11T13:11:50Z</time>
      </trkpt>
      <trkpt lat="45.722" lon="4.74014">
        <ele>293.6</ele>
        <time>2025-12-11T13:11:51Z</time>
      </trkpt>
      <trkpt lat="45.72204" lon="4.74006">
        <ele>293</ele>
        <time>2025-12-11T13:11:52Z</time>
      </trkpt>
      <trkpt lat="45.72208" lon="4.73998">
        <ele>292.6</ele>
        <time>2025-12-11T13:11:53Z</time>
      </trkpt>
      <trkpt lat="45.72212" lon="4.7399">
        <ele>292.2</ele>
        <time>2025-12-11T13:11:54Z</time>
      </trkpt>
      <trkpt lat="45.72216" lon="4.73982">
        <ele>292</ele>
        <time>2025-12-11T13:11:55Z</time>
      </trkpt>
      <trkpt lat="45.7222" lon="4.73975">
        <ele>291.6</ele>
        <time>2025-12-11T13:11:56Z</time>
      </trkpt>
      <trkpt lat="45.72224" lon="4.73967">
        <ele>291.2</ele>
        <time>2025-12-11T13:11:57Z</time>
      </trkpt>
      <trkpt lat="45.72229" lon="4.73959">
        <ele>290.6</ele>
        <time>2025-12-11T13:11:58Z</time>
      </trkpt>
      <trkpt lat="45.72233" lon="4.73951">
        <ele>290.2</ele>
        <time>2025-12-11T13:11:59Z</time>
      </trkpt>
      <trkpt lat="45.72237" lon="4.73942">
        <ele>289.8</ele>
        <time>2025-12-11T13:12:00Z</time>
      </trkpt>
      <trkpt lat="45.72241" lon="4.73934">
        <ele>289.4</ele>
        <time>2025-12-11T13:12:01Z</time>
      </trkpt>
      <trkpt lat="45.72246" lon="4.73926">
        <ele>289</ele>
        <time>2025-12-11T13:12:02Z</time>
      </trkpt>
      <trkpt lat="45.72249" lon="4.73917">
        <ele>288.8</ele>
        <time>2025-12-11T13:12:03Z</time>
      </trkpt>
      <trkpt lat="45.72253" lon="4.73909">
        <ele>288.6</ele>
        <time>2025-12-11T13:12:04Z</time>
      </trkpt>
      <trkpt lat="45.72257" lon="4.73901">
        <ele>288.4</ele>
        <time>2025-12-11T13:12:05Z</time>
      </trkpt>
      <trkpt lat="45.7226" lon="4.73893">
        <ele>288.2</ele>
        <time>2025-12-11T13:12:06Z</time>
      </trkpt>
      <trkpt lat="45.72264" lon="4.73885">
        <ele>288.2</ele>
        <time>2025-12-11T13:12:07Z</time>
      </trkpt>
      <trkpt lat="45.72267" lon="4.73877">
        <ele>288</ele>
        <time>2025-12-11T13:12:08Z</time>
      </trkpt>
      <trkpt lat="45.7227" lon="4.73869">
        <ele>287.8</ele>
        <time>2025-12-11T13:12:09Z</time>
      </trkpt>
      <trkpt lat="45.72273" lon="4.73861">
        <ele>287.6</ele>
        <time>2025-12-11T13:12:10Z</time>
      </trkpt>
      <trkpt lat="45.72277" lon="4.73853">
        <ele>287.6</ele>
        <time>2025-12-11T13:12:11Z</time>
      </trkpt>
      <trkpt lat="45.7228" lon="4.73845">
        <ele>287.4</ele>
        <time>2025-12-11T13:12:12Z</time>
      </trkpt>
      <trkpt lat="45.72283" lon="4.73837">
        <ele>287.2</ele>
        <time>2025-12-11T13:12:13Z</time>
      </trkpt>
      <trkpt lat="45.72287" lon="4.73829">
        <ele>287</ele>
        <time>2025-12-11T13:12:14Z</time>
      </trkpt>
      <trkpt lat="45.72291" lon="4.73821">
        <ele>286.6</ele>
        <time>2025-12-11T13:12:15Z</time>
      </trkpt>
      <trkpt lat="45.72297" lon="4.73814">
        <ele>286.2</ele>
        <time>2025-12-11T13:12:16Z</time>
      </trkpt>
      <trkpt lat="45.72303" lon="4.73807">
        <ele>285.6</ele>
        <time>2025-12-11T13:12:17Z</time>
      </trkpt>
      <trkpt lat="45.72309" lon="4.738">
        <ele>285</ele>
        <time>2025-12-11T13:12:18Z</time>
      </trkpt>
      <trkpt lat="45.72316" lon="4.73793">
        <ele>284.4</ele>
        <time>2025-12-11T13:12:19Z</time>
      </trkpt>
      <trkpt lat="45.72323" lon="4.73787">
        <ele>283.6</ele>
        <time>2025-12-11T13:12:20Z</time>
      </trkpt>
      <trkpt lat="45.72329" lon="4.7378">
        <ele>283.2</ele>
        <time>2025-12-11T13:12:21Z</time>
      </trkpt>
      <trkpt lat="45.72336" lon="4.73774">
        <ele>282.8</ele>
        <time>2025-12-11T13:12:22Z</time>
      </trkpt>
      <trkpt lat="45.72343" lon="4.73769">
        <ele>282.4</ele>
        <time>2025-12-11T13:12:23Z</time>
      </trkpt>
      <trkpt lat="45.72351" lon="4.73765">
        <ele>281.8</ele>
        <time>2025-12-11T13:12:24Z</time>
      </trkpt>
      <trkpt lat="45.72359" lon="4.73761">
        <ele>281.6</ele>
        <time>2025-12-11T13:12:25Z</time>
      </trkpt>
      <trkpt lat="45.72367" lon="4.73758">
        <ele>281.2</ele>
        <time>2025-12-11T13:12:26Z</time>
      </trkpt>
      <trkpt lat="45.72375" lon="4.73754">
        <ele>280.8</ele>
        <time>2025-12-11T13:12:27Z</time>
      </trkpt>
      <trkpt lat="45.72383" lon="4.7375">
        <ele>280.4</ele>
        <time>2025-12-11T13:12:28Z</time>
      </trkpt>
      <trkpt lat="45.72391" lon="4.73746">
        <ele>280.2</ele>
        <time>2025-12-11T13:12:29Z</time>
      </trkpt>
      <trkpt lat="45.72399" lon="4.73742">
        <ele>279.8</ele>
        <time>2025-12-11T13:12:30Z</time>
      </trkpt>
      <trkpt lat="45.72407" lon="4.73738">
        <ele>279.4</ele>
        <time>2025-12-11T13:12:31Z</time>
      </trkpt>
      <trkpt lat="45.72415" lon="4.73733">
        <ele>279</ele>
        <time>2025-12-11T13:12:32Z</time>
      </trkpt>
      <trkpt lat="45.72422" lon="4.73727">
        <ele>278.6</ele>
        <time>2025-12-11T13:12:33Z</time>
      </trkpt>
      <trkpt lat="45.7243" lon="4.7372">
        <ele>278</ele>
        <time>2025-12-11T13:12:34Z</time>
      </trkpt>
      <trkpt lat="45.72437" lon="4.73713">
        <ele>277.4</ele>
        <time>2025-12-11T13:12:35Z</time>
      </trkpt>
      <trkpt lat="45.72445" lon="4.73706">
        <ele>276.8</ele>
        <time>2025-12-11T13:12:36Z</time>
      </trkpt>
      <trkpt lat="45.72452" lon="4.73698">
        <ele>276.4</ele>
        <time>2025-12-11T13:12:37Z</time>
      </trkpt>
      <trkpt lat="45.72459" lon="4.7369">
        <ele>275.8</ele>
        <time>2025-12-11T13:12:38Z</time>
      </trkpt>
      <trkpt lat="45.72466" lon="4.73682">
        <ele>275.4</ele>
        <time>2025-12-11T13:12:39Z</time>
      </trkpt>
      <trkpt lat="45.72474" lon="4.73675">
        <ele>274.8</ele>
        <time>2025-12-11T13:12:40Z</time>
      </trkpt>
      <trkpt lat="45.72481" lon="4.73668">
        <ele>274.4</ele>
        <time>2025-12-11T13:12:41Z</time>
      </trkpt>
      <trkpt lat="45.72489" lon="4.73661">
        <ele>273.8</ele>
        <time>2025-12-11T13:12:42Z</time>
      </trkpt>
      <trkpt lat="45.72496" lon="4.73654">
        <ele>273.4</ele>
        <time>2025-12-11T13:12:43Z</time>
      </trkpt>
      <trkpt lat="45.72504" lon="4.73647">
        <ele>273</ele>
        <time>2025-12-11T13:12:44Z</time>
      </trkpt>
      <trkpt lat="45.72511" lon="4.73639">
        <ele>272.6</ele>
        <time>2025-12-11T13:12:45Z</time>
      </trkpt>
      <trkpt lat="45.72517" lon="4.7363">
        <ele>272.4</ele>
        <time>2025-12-11T13:12:46Z</time>
      </trkpt>
      <trkpt lat="45.72522" lon="4.7362">
        <ele>272.2</ele>
        <time>2025-12-11T13:12:47Z</time>
      </trkpt>
      <trkpt lat="45.72527" lon="4.73612">
        <ele>272.2</ele>
        <time>2025-12-11T13:12:48Z</time>
      </trkpt>
      <trkpt lat="45.72531" lon="4.73604">
        <ele>272.2</ele>
        <time>2025-12-11T13:12:49Z</time>
      </trkpt>
      <trkpt lat="45.72534" lon="4.73597">
        <ele>272.4</ele>
        <time>2025-12-11T13:12:50Z</time>
      </trkpt>
      <trkpt lat="45.72537" lon="4.73591">
        <ele>272.8</ele>
        <time>2025-12-11T13:12:51Z</time>
      </trkpt>
      <trkpt lat="45.7254" lon="4.73585">
        <ele>273.2</ele>
        <time>2025-12-11T13:12:52Z</time>
      </trkpt>
      <trkpt lat="45.72542" lon="4.7358">
        <ele>273.6</ele>
        <time>2025-12-11T13:12:53Z</time>
      </trkpt>
      <trkpt lat="45.72543" lon="4.73575">
        <ele>274.2</ele>
        <time>2025-12-11T13:12:54Z</time>
      </trkpt>
      <trkpt lat="45.72545" lon="4.73571">
        <ele>274.6</ele>
        <time>2025-12-11T13:12:55Z</time>
      </trkpt>
      <trkpt lat="45.72545" lon="4.73566">
        <ele>275</ele>
        <time>2025-12-11T13:12:56Z</time>
      </trkpt>
      <trkpt lat="45.72545" lon="4.73562">
        <ele>275.4</ele>
        <time>2025-12-11T13:12:57Z</time>
      </trkpt>
      <trkpt lat="45.72545" lon="4.73558">
        <ele>275.8</ele>
        <time>2025-12-11T13:12:58Z</time>
      </trkpt>
      <trkpt lat="45.72543" lon="4.73553">
        <ele>275.8</ele>
        <time>2025-12-11T13:12:59Z</time>
      </trkpt>
      <trkpt lat="45.7254" lon="4.73548">
        <ele>276</ele>
        <time>2025-12-11T13:13:00Z</time>
      </trkpt>
      <trkpt lat="45.72536" lon="4.73544">
        <ele>276</ele>
        <time>2025-12-11T13:13:01Z</time>
      </trkpt>
      <trkpt lat="45.72533" lon="4.73539">
        <ele>276</ele>
        <time>2025-12-11T13:13:02Z</time>
      </trkpt>
      <trkpt lat="45.72529" lon="4.73535">
        <ele>276</ele>
        <time>2025-12-11T13:13:03Z</time>
      </trkpt>
      <trkpt lat="45.72526" lon="4.7353">
        <ele>276.2</ele>
        <time>2025-12-11T13:13:04Z</time>
      </trkpt>
      <trkpt lat="45.72523" lon="4.73526">
        <ele>276.4</ele>
        <time>2025-12-11T13:13:05Z</time>
      </trkpt>
      <trkpt lat="45.72521" lon="4.73522">
        <ele>276.8</ele>
        <time>2025-12-11T13:13:06Z</time>
      </trkpt>
      <trkpt lat="45.72518" lon="4.73518">
        <ele>277</ele>
        <time>2025-12-11T13:13:07Z</time>
      </trkpt>
      <trkpt lat="45.72515" lon="4.73514">
        <ele>277.4</ele>
        <time>2025-12-11T13:13:08Z</time>
      </trkpt>
      <trkpt lat="45.72512" lon="4.73511">
        <ele>277.6</ele>
        <time>2025-12-11T13:13:09Z</time>
      </trkpt>
      <trkpt lat="45.72509" lon="4.73508">
        <ele>278</ele>
        <time>2025-12-11T13:13:10Z</time>
      </trkpt>
      <trkpt lat="45.72506" lon="4.73506">
        <ele>278.2</ele>
        <time>2025-12-11T13:13:11Z</time>
      </trkpt>
      <trkpt lat="45.72504" lon="4.73503">
        <ele>278.6</ele>
        <time>2025-12-11T13:13:12Z</time>
      </trkpt>
      <trkpt lat="45.72502" lon="4.73501">
        <ele>278.8</ele>
        <time>2025-12-11T13:13:13Z</time>
      </trkpt>
      <trkpt lat="45.725" lon="4.73498">
        <ele>279.2</ele>
        <time>2025-12-11T13:13:14Z</time>
      </trkpt>
      <trkpt lat="45.72497" lon="4.73495">
        <ele>279.4</ele>
        <time>2025-12-11T13:13:15Z</time>
      </trkpt>
      <trkpt lat="45.72495" lon="4.73492">
        <ele>279.6</ele>
        <time>2025-12-11T13:13:16Z</time>
      </trkpt>
      <trkpt lat="45.72493" lon="4.73489">
        <ele>279.8</ele>
        <time>2025-12-11T13:13:17Z</time>
      </trkpt>
      <trkpt lat="45.7249" lon="4.73486">
        <ele>280</ele>
        <time>2025-12-11T13:13:18Z</time>
      </trkpt>
      <trkpt lat="45.72488" lon="4.73483">
        <ele>280.2</ele>
        <time>2025-12-11T13:13:19Z</time>
      </trkpt>
      <trkpt lat="45.72485" lon="4.73481">
        <ele>280.4</ele>
        <time>2025-12-11T13:13:20Z</time>
      </trkpt>
      <trkpt lat="45.72483" lon="4.73478">
        <ele>280.6</ele>
        <time>2025-12-11T13:13:21Z</time>
      </trkpt>
      <trkpt lat="45.72481" lon="4.73475">
        <ele>280.8</ele>
        <time>2025-12-11T13:13:22Z</time>
      </trkpt>
      <trkpt lat="45.72479" lon="4.73472">
        <ele>281</ele>
        <time>2025-12-11T13:13:23Z</time>
      </trkpt>
      <trkpt lat="45.72477" lon="4.73468">
        <ele>281.2</ele>
        <time>2025-12-11T13:13:24Z</time>
      </trkpt>
      <trkpt lat="45.72475" lon="4.73465">
        <ele>281.4</ele>
        <time>2025-12-11T13:13:25Z</time>
      </trkpt>
      <trkpt lat="45.72473" lon="4.73462">
        <ele>281.6</ele>
        <time>2025-12-11T13:13:26Z</time>
      </trkpt>
      <trkpt lat="45.72472" lon="4.73459">
        <ele>281.8</ele>
        <time>2025-12-11T13:13:27Z</time>
      </trkpt>
      <trkpt lat="45.7247" lon="4.73456">
        <ele>282.2</ele>
        <time>2025-12-11T13:13:28Z</time>
      </trkpt>
      <trkpt lat="45.72469" lon="4.73453">
        <ele>282.4</ele>
        <time>2025-12-11T13:13:29Z</time>
      </trkpt>
      <trkpt lat="45.72467" lon="4.7345">
        <ele>282.6</ele>
        <time>2025-12-11T13:13:30Z</time>
      </trkpt>
      <trkpt lat="45.72466" lon="4.73447">
        <ele>282.8</ele>
        <time>2025-12-11T13:13:31Z</time>
      </trkpt>
      <trkpt lat="45.72464" lon="4.73444">
        <ele>283</ele>
        <time>2025-12-11T13:13:32Z</time>
      </trkpt>
      <trkpt lat="45.72463" lon="4.7344">
        <ele>283.2</ele>
        <time>2025-12-11T13:13:33Z</time>
      </trkpt>
      <trkpt lat="45.72461" lon="4.73437">
        <ele>283.4</ele>
        <time>2025-12-11T13:13:34Z</time>
      </trkpt>
      <trkpt lat="45.7246" lon="4.73433">
        <ele>283.6</ele>
        <time>2025-12-11T13:13:35Z</time>
      </trkpt>
      <trkpt lat="45.72459" lon="4.7343">
        <ele>283.8</ele>
        <time>2025-12-11T13:13:36Z</time>
      </trkpt>
      <trkpt lat="45.72457" lon="4.73427">
        <ele>284</ele>
        <time>2025-12-11T13:13:37Z</time>
      </trkpt>
      <trkpt lat="45.72456" lon="4.73423">
        <ele>284.2</ele>
        <time>2025-12-11T13:13:38Z</time>
      </trkpt>
      <trkpt lat="45.72455" lon="4.7342">
        <ele>284.4</ele>
        <time>2025-12-11T13:13:39Z</time>
      </trkpt>
      <trkpt lat="45.72453" lon="4.73416">
        <ele>284.6</ele>
        <time>2025-12-11T13:13:40Z</time>
      </trkpt>
      <trkpt lat="45.72452" lon="4.73413">
        <ele>284.8</ele>
        <time>2025-12-11T13:13:41Z</time>
      </trkpt>
      <trkpt lat="45.7245" lon="4.73409">
        <ele>285</ele>
        <time>2025-12-11T13:13:42Z</time>
      </trkpt>
      <trkpt lat="45.72449" lon="4.73406">
        <ele>285.2</ele>
        <time>2025-12-11T13:13:43Z</time>
      </trkpt>
      <trkpt lat="45.72447" lon="4.73403">
        <ele>285.4</ele>
        <time>2025-12-11T13:13:44Z</time>
      </trkpt>
      <trkpt lat="45.72446" lon="4.734">
        <ele>285.6</ele>
        <time>2025-12-11T13:13:45Z</time>
      </trkpt>
      <trkpt lat="45.72445" lon="4.73397">
        <ele>285.8</ele>
        <time>2025-12-11T13:13:46Z</time>
      </trkpt>
      <trkpt lat="45.72444" lon="4.73394">
        <ele>286</ele>
        <time>2025-12-11T13:13:47Z</time>
      </trkpt>
      <trkpt lat="45.72442" lon="4.7339">
        <ele>286.2</ele>
        <time>2025-12-11T13:13:48Z</time>
      </trkpt>
      <trkpt lat="45.7244" lon="4.73387">
        <ele>286.2</ele>
        <time>2025-12-11T13:13:49Z</time>
      </trkpt>
      <trkpt lat="45.72438" lon="4.73383">
        <ele>286.4</ele>
        <time>2025-12-11T13:13:50Z</time>
      </trkpt>
      <trkpt lat="45.72437" lon="4.7338">
        <ele>286.6</ele>
        <time>2025-12-11T13:13:51Z</time>
      </trkpt>
      <trkpt lat="45.72435" lon="4.73377">
        <ele>286.6</ele>
        <time>2025-12-11T13:13:52Z</time>
      </trkpt>
      <trkpt lat="45.72433" lon="4.73373">
        <ele>286.8</ele>
        <time>2025-12-11T13:13:53Z</time>
      </trkpt>
      <trkpt lat="45.72431" lon="4.73369">
        <ele>287</ele>
        <time>2025-12-11T13:13:54Z</time>
      </trkpt>
      <trkpt lat="45.72429" lon="4.73366">
        <ele>287</ele>
        <time>2025-12-11T13:13:55Z</time>
      </trkpt>
      <trkpt lat="45.72427" lon="4.73362">
        <ele>287.2</ele>
        <time>2025-12-11T13:13:56Z</time>
      </trkpt>
      <trkpt lat="45.72425" lon="4.73358">
        <ele>287.4</ele>
        <time>2025-12-11T13:13:57Z</time>
      </trkpt>
      <trkpt lat="45.72423" lon="4.73354">
        <ele>287.4</ele>
        <time>2025-12-11T13:13:58Z</time>
      </trkpt>
      <trkpt lat="45.72421" lon="4.73351">
        <ele>287.6</ele>
        <time>2025-12-11T13:13:59Z</time>
      </trkpt>
      <trkpt lat="45.7242" lon="4.73347">
        <ele>287.8</ele>
        <time>2025-12-11T13:14:00Z</time>
      </trkpt>
      <trkpt lat="45.72418" lon="4.73344">
        <ele>287.8</ele>
        <time>2025-12-11T13:14:01Z</time>
      </trkpt>
      <trkpt lat="45.72416" lon="4.7334">
        <ele>288</ele>
        <time>2025-12-11T13:14:02Z</time>
      </trkpt>
      <trkpt lat="45.72414" lon="4.73337">
        <ele>288.2</ele>
        <time>2025-12-11T13:14:03Z</time>
      </trkpt>
      <trkpt lat="45.72412" lon="4.73333">
        <ele>288.2</ele>
        <time>2025-12-11T13:14:04Z</time>
      </trkpt>
      <trkpt lat="45.72411" lon="4.7333">
        <ele>288.4</ele>
        <time>2025-12-11T13:14:05Z</time>
      </trkpt>
      <trkpt lat="45.72409" lon="4.73327">
        <ele>288.4</ele>
        <time>2025-12-11T13:14:06Z</time>
      </trkpt>
      <trkpt lat="45.72407" lon="4.73323">
        <ele>288.6</ele>
        <time>2025-12-11T13:14:07Z</time>
      </trkpt>
      <trkpt lat="45.72405" lon="4.7332">
        <ele>288.8</ele>
        <time>2025-12-11T13:14:08Z</time>
      </trkpt>
      <trkpt lat="45.72403" lon="4.73316">
        <ele>288.8</ele>
        <time>2025-12-11T13:14:09Z</time>
      </trkpt>
      <trkpt lat="45.72401" lon="4.73313">
        <ele>289</ele>
        <time>2025-12-11T13:14:10Z</time>
      </trkpt>
      <trkpt lat="45.72399" lon="4.73309">
        <ele>289</ele>
        <time>2025-12-11T13:14:11Z</time>
      </trkpt>
      <trkpt lat="45.72397" lon="4.73306">
        <ele>289</ele>
        <time>2025-12-11T13:14:12Z</time>
      </trkpt>
      <trkpt lat="45.72395" lon="4.73302">
        <ele>289.2</ele>
        <time>2025-12-11T13:14:13Z</time>
      </trkpt>
      <trkpt lat="45.72393" lon="4.73298">
        <ele>289.2</ele>
        <time>2025-12-11T13:14:14Z</time>
      </trkpt>
      <trkpt lat="45.72391" lon="4.73294">
        <ele>289.4</ele>
        <time>2025-12-11T13:14:15Z</time>
      </trkpt>
      <trkpt lat="45.72389" lon="4.73291">
        <ele>289.4</ele>
        <time>2025-12-11T13:14:16Z</time>
      </trkpt>
      <trkpt lat="45.72387" lon="4.73287">
        <ele>289.6</ele>
        <time>2025-12-11T13:14:17Z</time>
      </trkpt>
      <trkpt lat="45.72385" lon="4.73284">
        <ele>289.6</ele>
        <time>2025-12-11T13:14:18Z</time>
      </trkpt>
      <trkpt lat="45.72383" lon="4.7328">
        <ele>289.8</ele>
        <time>2025-12-11T13:14:19Z</time>
      </trkpt>
      <trkpt lat="45.72381" lon="4.73277">
        <ele>289.8</ele>
        <time>2025-12-11T13:14:20Z</time>
      </trkpt>
      <trkpt lat="45.72379" lon="4.73273">
        <ele>290</ele>
        <time>2025-12-11T13:14:21Z</time>
      </trkpt>
      <trkpt lat="45.72377" lon="4.7327">
        <ele>290</ele>
        <time>2025-12-11T13:14:22Z</time>
      </trkpt>
      <trkpt lat="45.72375" lon="4.73266">
        <ele>290.2</ele>
        <time>2025-12-11T13:14:23Z</time>
      </trkpt>
      <trkpt lat="45.72372" lon="4.73263">
        <ele>290.4</ele>
        <time>2025-12-11T13:14:24Z</time>
      </trkpt>
      <trkpt lat="45.7237" lon="4.73259">
        <ele>290.4</ele>
        <time>2025-12-11T13:14:25Z</time>
      </trkpt>
      <trkpt lat="45.72368" lon="4.73256">
        <ele>290.6</ele>
        <time>2025-12-11T13:14:26Z</time>
      </trkpt>
      <trkpt lat="45.72366" lon="4.73252">
        <ele>290.6</ele>
        <time>2025-12-11T13:14:27Z</time>
      </trkpt>
      <trkpt lat="45.72364" lon="4.73248">
        <ele>290.6</ele>
        <time>2025-12-11T13:14:28Z</time>
      </trkpt>
      <trkpt lat="45.72362" lon="4.73245">
        <ele>290.8</ele>
        <time>2025-12-11T13:14:29Z</time>
      </trkpt>
      <trkpt lat="45.7236" lon="4.73241">
        <ele>290.8</ele>
        <time>2025-12-11T13:14:30Z</time>
      </trkpt>
      <trkpt lat="45.72358" lon="4.73238">
        <ele>291</ele>
        <time>2025-12-11T13:14:31Z</time>
      </trkpt>
      <trkpt lat="45.72356" lon="4.73234">
        <ele>291</ele>
        <time>2025-12-11T13:14:32Z</time>
      </trkpt>
      <trkpt lat="45.72354" lon="4.73231">
        <ele>291.2</ele>
        <time>2025-12-11T13:14:33Z</time>
      </trkpt>
      <trkpt lat="45.72351" lon="4.73228">
        <ele>291.2</ele>
        <time>2025-12-11T13:14:34Z</time>
      </trkpt>
      <trkpt lat="45.7235" lon="4.73224">
        <ele>291.4</ele>
        <time>2025-12-11T13:14:35Z</time>
      </trkpt>
      <trkpt lat="45.72347" lon="4.73221">
        <ele>291.4</ele>
        <time>2025-12-11T13:14:36Z</time>
      </trkpt>
      <trkpt lat="45.72345" lon="4.73217">
        <ele>291.4</ele>
        <time>2025-12-11T13:14:37Z</time>
      </trkpt>
      <trkpt lat="45.72343" lon="4.73214">
        <ele>291.4</ele>
        <time>2025-12-11T13:14:38Z</time>
      </trkpt>
      <trkpt lat="45.72341" lon="4.7321">
        <ele>291.4</ele>
        <time>2025-12-11T13:14:39Z</time>
      </trkpt>
      <trkpt lat="45.72338" lon="4.73207">
        <ele>291.4</ele>
        <time>2025-12-11T13:14:40Z</time>
      </trkpt>
      <trkpt lat="45.72336" lon="4.73203">
        <ele>291.6</ele>
        <time>2025-12-11T13:14:41Z</time>
      </trkpt>
      <trkpt lat="45.72333" lon="4.732">
        <ele>291.6</ele>
        <time>2025-12-11T13:14:42Z</time>
      </trkpt>
      <trkpt lat="45.72331" lon="4.73196">
        <ele>291.6</ele>
        <time>2025-12-11T13:14:43Z</time>
      </trkpt>
      <trkpt lat="45.72328" lon="4.73193">
        <ele>291.6</ele>
        <time>2025-12-11T13:14:44Z</time>
      </trkpt>
      <trkpt lat="45.72325" lon="4.73189">
        <ele>291.6</ele>
        <time>2025-12-11T13:14:45Z</time>
      </trkpt>
      <trkpt lat="45.72322" lon="4.73186">
        <ele>291.6</ele>
        <time>2025-12-11T13:14:46Z</time>
      </trkpt>
      <trkpt lat="45.7232" lon="4.73182">
        <ele>291.6</ele>
        <time>2025-12-11T13:14:47Z</time>
      </trkpt>
      <trkpt lat="45.72318" lon="4.73178">
        <ele>291.4</ele>
        <time>2025-12-11T13:14:48Z</time>
      </trkpt>
      <trkpt lat="45.72315" lon="4.73174">
        <ele>291.4</ele>
        <time>2025-12-11T13:14:49Z</time>
      </trkpt>
      <trkpt lat="45.72312" lon="4.7317">
        <ele>291.4</ele>
        <time>2025-12-11T13:14:50Z</time>
      </trkpt>
      <trkpt lat="45.7231" lon="4.73165">
        <ele>291.2</ele>
        <time>2025-12-11T13:14:51Z</time>
      </trkpt>
      <trkpt lat="45.72307" lon="4.7316">
        <ele>291.2</ele>
        <time>2025-12-11T13:14:52Z</time>
      </trkpt>
      <trkpt lat="45.72305" lon="4.73155">
        <ele>291.2</ele>
        <time>2025-12-11T13:14:53Z</time>
      </trkpt>
      <trkpt lat="45.72303" lon="4.73149">
        <ele>291</ele>
        <time>2025-12-11T13:14:54Z</time>
      </trkpt>
      <trkpt lat="45.723" lon="4.73144">
        <ele>291</ele>
        <time>2025-12-11T13:14:55Z</time>
      </trkpt>
      <trkpt lat="45.72298" lon="4.73138">
        <ele>291</ele>
        <time>2025-12-11T13:14:56Z</time>
      </trkpt>
      <trkpt lat="45.72296" lon="4.73133">
        <ele>291</ele>
        <time>2025-12-11T13:14:57Z</time>
      </trkpt>
      <trkpt lat="45.72294" lon="4.73127">
        <ele>291</ele>
        <time>2025-12-11T13:14:58Z</time>
      </trkpt>
      <trkpt lat="45.72291" lon="4.73121">
        <ele>291</ele>
        <time>2025-12-11T13:14:59Z</time>
      </trkpt>
      <trkpt lat="45.72289" lon="4.73115">
        <ele>291</ele>
        <time>2025-12-11T13:15:00Z</time>
      </trkpt>
      <trkpt lat="45.72287" lon="4.73109">
        <ele>291</ele>
        <time>2025-12-11T13:15:01Z</time>
      </trkpt>
      <trkpt lat="45.72285" lon="4.73103">
        <ele>291</ele>
        <time>2025-12-11T13:15:02Z</time>
      </trkpt>
      <trkpt lat="45.72282" lon="4.73097">
        <ele>290.8</ele>
        <time>2025-12-11T13:15:03Z</time>
      </trkpt>
      <trkpt lat="45.7228" lon="4.73091">
        <ele>290.8</ele>
        <time>2025-12-11T13:15:04Z</time>
      </trkpt>
      <trkpt lat="45.72278" lon="4.73085">
        <ele>290.8</ele>
        <time>2025-12-11T13:15:05Z</time>
      </trkpt>
      <trkpt lat="45.72276" lon="4.73079">
        <ele>290.8</ele>
        <time>2025-12-11T13:15:06Z</time>
      </trkpt>
      <trkpt lat="45.72274" lon="4.73072">
        <ele>290.8</ele>
        <time>2025-12-11T13:15:07Z</time>
      </trkpt>
      <trkpt lat="45.72272" lon="4.73066">
        <ele>290.6</ele>
        <time>2025-12-11T13:15:08Z</time>
      </trkpt>
      <trkpt lat="45.7227" lon="4.7306">
        <ele>290.6</ele>
        <time>2025-12-11T13:15:09Z</time>
      </trkpt>
      <trkpt lat="45.72267" lon="4.73054">
        <ele>290.6</ele>
        <time>2025-12-11T13:15:10Z</time>
      </trkpt>
      <trkpt lat="45.72265" lon="4.73047">
        <ele>290.6</ele>
        <time>2025-12-11T13:15:11Z</time>
      </trkpt>
      <trkpt lat="45.72263" lon="4.73041">
        <ele>290.6</ele>
        <time>2025-12-11T13:15:12Z</time>
      </trkpt>
      <trkpt lat="45.72261" lon="4.73035">
        <ele>290.6</ele>
        <time>2025-12-11T13:15:13Z</time>
      </trkpt>
      <trkpt lat="45.72259" lon="4.73029">
        <ele>290.6</ele>
        <time>2025-12-11T13:15:14Z</time>
      </trkpt>
      <trkpt lat="45.72257" lon="4.73023">
        <ele>290.8</ele>
        <time>2025-12-11T13:15:15Z</time>
      </trkpt>
      <trkpt lat="45.72255" lon="4.73016">
        <ele>290.8</ele>
        <time>2025-12-11T13:15:16Z</time>
      </trkpt>
      <trkpt lat="45.72253" lon="4.7301">
        <ele>290.8</ele>
        <time>2025-12-11T13:15:17Z</time>
      </trkpt>
      <trkpt lat="45.7225" lon="4.73004">
        <ele>290.8</ele>
        <time>2025-12-11T13:15:18Z</time>
      </trkpt>
      <trkpt lat="45.72248" lon="4.72997">
        <ele>290.8</ele>
        <time>2025-12-11T13:15:19Z</time>
      </trkpt>
      <trkpt lat="45.72246" lon="4.72991">
        <ele>290.6</ele>
        <time>2025-12-11T13:15:20Z</time>
      </trkpt>
      <trkpt lat="45.72244" lon="4.72984">
        <ele>290.6</ele>
        <time>2025-12-11T13:15:21Z</time>
      </trkpt>
      <trkpt lat="45.72241" lon="4.72977">
        <ele>290.4</ele>
        <time>2025-12-11T13:15:22Z</time>
      </trkpt>
      <trkpt lat="45.72238" lon="4.7297">
        <ele>290.4</ele>
        <time>2025-12-11T13:15:23Z</time>
      </trkpt>
      <trkpt lat="45.72236" lon="4.72963">
        <ele>290.2</ele>
        <time>2025-12-11T13:15:24Z</time>
      </trkpt>
      <trkpt lat="45.72233" lon="4.72956">
        <ele>290</ele>
        <time>2025-12-11T13:15:25Z</time>
      </trkpt>
      <trkpt lat="45.72231" lon="4.72949">
        <ele>290</ele>
        <time>2025-12-11T13:15:26Z</time>
      </trkpt>
      <trkpt lat="45.72228" lon="4.72942">
        <ele>289.8</ele>
        <time>2025-12-11T13:15:27Z</time>
      </trkpt>
      <trkpt lat="45.72225" lon="4.72935">
        <ele>289.8</ele>
        <time>2025-12-11T13:15:28Z</time>
      </trkpt>
      <trkpt lat="45.72223" lon="4.72928">
        <ele>289.6</ele>
        <time>2025-12-11T13:15:29Z</time>
      </trkpt>
      <trkpt lat="45.7222" lon="4.72921">
        <ele>289.6</ele>
        <time>2025-12-11T13:15:30Z</time>
      </trkpt>
      <trkpt lat="45.72217" lon="4.72913">
        <ele>289.4</ele>
        <time>2025-12-11T13:15:31Z</time>
      </trkpt>
      <trkpt lat="45.72214" lon="4.72906">
        <ele>289.2</ele>
        <time>2025-12-11T13:15:32Z</time>
      </trkpt>
      <trkpt lat="45.72211" lon="4.72899">
        <ele>289</ele>
        <time>2025-12-11T13:15:33Z</time>
      </trkpt>
      <trkpt lat="45.72208" lon="4.72891">
        <ele>288.8</ele>
        <time>2025-12-11T13:15:34Z</time>
      </trkpt>
      <trkpt lat="45.72205" lon="4.72884">
        <ele>288.6</ele>
        <time>2025-12-11T13:15:35Z</time>
      </trkpt>
      <trkpt lat="45.72202" lon="4.72877">
        <ele>288.4</ele>
        <time>2025-12-11T13:15:36Z</time>
      </trkpt>
      <trkpt lat="45.722" lon="4.72869">
        <ele>288.4</ele>
        <time>2025-12-11T13:15:37Z</time>
      </trkpt>
      <trkpt lat="45.72197" lon="4.72862">
        <ele>288.2</ele>
        <time>2025-12-11T13:15:38Z</time>
      </trkpt>
      <trkpt lat="45.72194" lon="4.72855">
        <ele>288.2</ele>
        <time>2025-12-11T13:15:39Z</time>
      </trkpt>
      <trkpt lat="45.72191" lon="4.72847">
        <ele>288.2</ele>
        <time>2025-12-11T13:15:40Z</time>
      </trkpt>
      <trkpt lat="45.72188" lon="4.7284">
        <ele>288</ele>
        <time>2025-12-11T13:15:41Z</time>
      </trkpt>
      <trkpt lat="45.72185" lon="4.72832">
        <ele>288</ele>
        <time>2025-12-11T13:15:42Z</time>
      </trkpt>
      <trkpt lat="45.72182" lon="4.72824">
        <ele>287.8</ele>
        <time>2025-12-11T13:15:43Z</time>
      </trkpt>
      <trkpt lat="45.72179" lon="4.72817">
        <ele>287.8</ele>
        <time>2025-12-11T13:15:44Z</time>
      </trkpt>
      <trkpt lat="45.72176" lon="4.72809">
        <ele>287.6</ele>
        <time>2025-12-11T13:15:45Z</time>
      </trkpt>
      <trkpt lat="45.72174" lon="4.72802">
        <ele>287.6</ele>
        <time>2025-12-11T13:15:46Z</time>
      </trkpt>
      <trkpt lat="45.72171" lon="4.72794">
        <ele>287.6</ele>
        <time>2025-12-11T13:15:47Z</time>
      </trkpt>
      <trkpt lat="45.72168" lon="4.72787">
        <ele>287.4</ele>
        <time>2025-12-11T13:15:48Z</time>
      </trkpt>
      <trkpt lat="45.72166" lon="4.72779">
        <ele>287.4</ele>
        <time>2025-12-11T13:15:49Z</time>
      </trkpt>
      <trkpt lat="45.72163" lon="4.72772">
        <ele>287.4</ele>
        <time>2025-12-11T13:15:50Z</time>
      </trkpt>
      <trkpt lat="45.7216" lon="4.72764">
        <ele>287.4</ele>
        <time>2025-12-11T13:15:51Z</time>
      </trkpt>
      <trkpt lat="45.72157" lon="4.72757">
        <ele>287.4</ele>
        <time>2025-12-11T13:15:52Z</time>
      </trkpt>
      <trkpt lat="45.72155" lon="4.7275">
        <ele>287.4</ele>
        <time>2025-12-11T13:15:53Z</time>
      </trkpt>
      <trkpt lat="45.72152" lon="4.72742">
        <ele>287.4</ele>
        <time>2025-12-11T13:15:54Z</time>
      </trkpt>
      <trkpt lat="45.72149" lon="4.72734">
        <ele>287.4</ele>
        <time>2025-12-11T13:15:55Z</time>
      </trkpt>
      <trkpt lat="45.72147" lon="4.72727">
        <ele>287.4</ele>
        <time>2025-12-11T13:15:56Z</time>
      </trkpt>
      <trkpt lat="45.72144" lon="4.72719">
        <ele>287.4</ele>
        <time>2025-12-11T13:15:57Z</time>
      </trkpt>
      <trkpt lat="45.72141" lon="4.72711">
        <ele>287.4</ele>
        <time>2025-12-11T13:15:58Z</time>
      </trkpt>
      <trkpt lat="45.72138" lon="4.72703">
        <ele>287.4</ele>
        <time>2025-12-11T13:15:59Z</time>
      </trkpt>
      <trkpt lat="45.72136" lon="4.72695">
        <ele>287.4</ele>
        <time>2025-12-11T13:16:00Z</time>
      </trkpt>
      <trkpt lat="45.72133" lon="4.72688">
        <ele>287.4</ele>
        <time>2025-12-11T13:16:01Z</time>
      </trkpt>
      <trkpt lat="45.72131" lon="4.7268">
        <ele>287.4</ele>
        <time>2025-12-11T13:16:02Z</time>
      </trkpt>
      <trkpt lat="45.72128" lon="4.72672">
        <ele>287.4</ele>
        <time>2025-12-11T13:16:03Z</time>
      </trkpt>
      <trkpt lat="45.72126" lon="4.72664">
        <ele>287.4</ele>
        <time>2025-12-11T13:16:04Z</time>
      </trkpt>
      <trkpt lat="45.72124" lon="4.72657">
        <ele>287.4</ele>
        <time>2025-12-11T13:16:05Z</time>
      </trkpt>
      <trkpt lat="45.72122" lon="4.72649">
        <ele>287.4</ele>
        <time>2025-12-11T13:16:06Z</time>
      </trkpt>
      <trkpt lat="45.7212" lon="4.72642">
        <ele>287.2</ele>
        <time>2025-12-11T13:16:07Z</time>
      </trkpt>
      <trkpt lat="45.72118" lon="4.72634">
        <ele>287.2</ele>
        <time>2025-12-11T13:16:08Z</time>
      </trkpt>
      <trkpt lat="45.72115" lon="4.72626">
        <ele>287.2</ele>
        <time>2025-12-11T13:16:09Z</time>
      </trkpt>
      <trkpt lat="45.72113" lon="4.72618">
        <ele>287</ele>
        <time>2025-12-11T13:16:10Z</time>
      </trkpt>
      <trkpt lat="45.72112" lon="4.72611">
        <ele>287</ele>
        <time>2025-12-11T13:16:11Z</time>
      </trkpt>
      <trkpt lat="45.72109" lon="4.72603">
        <ele>287</ele>
        <time>2025-12-11T13:16:12Z</time>
      </trkpt>
      <trkpt lat="45.72107" lon="4.72595">
        <ele>287</ele>
        <time>2025-12-11T13:16:13Z</time>
      </trkpt>
      <trkpt lat="45.72105" lon="4.72588">
        <ele>286.8</ele>
        <time>2025-12-11T13:16:14Z</time>
      </trkpt>
      <trkpt lat="45.72103" lon="4.7258">
        <ele>286.8</ele>
        <time>2025-12-11T13:16:15Z</time>
      </trkpt>
      <trkpt lat="45.72101" lon="4.72572">
        <ele>286.6</ele>
        <time>2025-12-11T13:16:16Z</time>
      </trkpt>
      <trkpt lat="45.72099" lon="4.72565">
        <ele>286.6</ele>
        <time>2025-12-11T13:16:17Z</time>
      </trkpt>
      <trkpt lat="45.72097" lon="4.72557">
        <ele>286.4</ele>
        <time>2025-12-11T13:16:18Z</time>
      </trkpt>
      <trkpt lat="45.72094" lon="4.72549">
        <ele>286.2</ele>
        <time>2025-12-11T13:16:19Z</time>
      </trkpt>
      <trkpt lat="45.72092" lon="4.72542">
        <ele>285.8</ele>
        <time>2025-12-11T13:16:20Z</time>
      </trkpt>
      <trkpt lat="45.72089" lon="4.72535">
        <ele>285.6</ele>
        <time>2025-12-11T13:16:21Z</time>
      </trkpt>
      <trkpt lat="45.72085" lon="4.72528">
        <ele>285.4</ele>
        <time>2025-12-11T13:16:22Z</time>
      </trkpt>
      <trkpt lat="45.72082" lon="4.72521">
        <ele>285.2</ele>
        <time>2025-12-11T13:16:23Z</time>
      </trkpt>
      <trkpt lat="45.72078" lon="4.72514">
        <ele>285</ele>
        <time>2025-12-11T13:16:24Z</time>
      </trkpt>
      <trkpt lat="45.72074" lon="4.72508">
        <ele>284.8</ele>
        <time>2025-12-11T13:16:25Z</time>
      </trkpt>
      <trkpt lat="45.7207" lon="4.72501">
        <ele>284.8</ele>
        <time>2025-12-11T13:16:26Z</time>
      </trkpt>
      <trkpt lat="45.72066" lon="4.72495">
        <ele>284.6</ele>
        <time>2025-12-11T13:16:27Z</time>
      </trkpt>
      <trkpt lat="45.72062" lon="4.72488">
        <ele>284.4</ele>
        <time>2025-12-11T13:16:28Z</time>
      </trkpt>
      <trkpt lat="45.72057" lon="4.72482">
        <ele>284.2</ele>
        <time>2025-12-11T13:16:29Z</time>
      </trkpt>
      <trkpt lat="45.72053" lon="4.72477">
        <ele>284.2</ele>
        <time>2025-12-11T13:16:30Z</time>
      </trkpt>
      <trkpt lat="45.72048" lon="4.72471">
        <ele>284</ele>
        <time>2025-12-11T13:16:31Z</time>
      </trkpt>
      <trkpt lat="45.72043" lon="4.72466">
        <ele>283.8</ele>
        <time>2025-12-11T13:16:32Z</time>
      </trkpt>
      <trkpt lat="45.72039" lon="4.7246">
        <ele>283.8</ele>
        <time>2025-12-11T13:16:33Z</time>
      </trkpt>
      <trkpt lat="45.72034" lon="4.72454">
        <ele>283.6</ele>
        <time>2025-12-11T13:16:34Z</time>
      </trkpt>
      <trkpt lat="45.72029" lon="4.72449">
        <ele>283.4</ele>
        <time>2025-12-11T13:16:35Z</time>
      </trkpt>
      <trkpt lat="45.72024" lon="4.72443">
        <ele>283.4</ele>
        <time>2025-12-11T13:16:36Z</time>
      </trkpt>
      <trkpt lat="45.72019" lon="4.72438">
        <ele>283.2</ele>
        <time>2025-12-11T13:16:37Z</time>
      </trkpt>
      <trkpt lat="45.72014" lon="4.72432">
        <ele>283</ele>
        <time>2025-12-11T13:16:38Z</time>
      </trkpt>
      <trkpt lat="45.72009" lon="4.72426">
        <ele>282.8</ele>
        <time>2025-12-11T13:16:39Z</time>
      </trkpt>
      <trkpt lat="45.72004" lon="4.72421">
        <ele>282.8</ele>
        <time>2025-12-11T13:16:40Z</time>
      </trkpt>
      <trkpt lat="45.72" lon="4.72416">
        <ele>282.8</ele>
        <time>2025-12-11T13:16:41Z</time>
      </trkpt>
      <trkpt lat="45.71995" lon="4.7241">
        <ele>282.6</ele>
        <time>2025-12-11T13:16:42Z</time>
      </trkpt>
      <trkpt lat="45.7199" lon="4.72405">
        <ele>282.4</ele>
        <time>2025-12-11T13:16:43Z</time>
      </trkpt>
      <trkpt lat="45.71985" lon="4.724">
        <ele>282.4</ele>
        <time>2025-12-11T13:16:44Z</time>
      </trkpt>
      <trkpt lat="45.71979" lon="4.72395">
        <ele>282.2</ele>
        <time>2025-12-11T13:16:45Z</time>
      </trkpt>
      <trkpt lat="45.71975" lon="4.72389">
        <ele>282</ele>
        <time>2025-12-11T13:16:46Z</time>
      </trkpt>
      <trkpt lat="45.71972" lon="4.72382">
        <ele>281.8</ele>
        <time>2025-12-11T13:16:47Z</time>
      </trkpt>
      <trkpt lat="45.71972" lon="4.72373">
        <ele>281.6</ele>
        <time>2025-12-11T13:16:48Z</time>
      </trkpt>
      <trkpt lat="45.71973" lon="4.72365">
        <ele>281.4</ele>
        <time>2025-12-11T13:16:49Z</time>
      </trkpt>
      <trkpt lat="45.71975" lon="4.72356">
        <ele>281.2</ele>
        <time>2025-12-11T13:16:50Z</time>
      </trkpt>
      <trkpt lat="45.71976" lon="4.72346">
        <ele>280.8</ele>
        <time>2025-12-11T13:16:51Z</time>
      </trkpt>
      <trkpt lat="45.71977" lon="4.72336">
        <ele>280</ele>
        <time>2025-12-11T13:16:52Z</time>
      </trkpt>
      <trkpt lat="45.71979" lon="4.72325">
        <ele>279.2</ele>
        <time>2025-12-11T13:16:53Z</time>
      </trkpt>
      <trkpt lat="45.71982" lon="4.72314">
        <ele>278.4</ele>
        <time>2025-12-11T13:16:54Z</time>
      </trkpt>
      <trkpt lat="45.71984" lon="4.72302">
        <ele>277.6</ele>
        <time>2025-12-11T13:16:55Z</time>
      </trkpt>
      <trkpt lat="45.71986" lon="4.72291">
        <ele>276.8</ele>
        <time>2025-12-11T13:16:56Z</time>
      </trkpt>
      <trkpt lat="45.71988" lon="4.7228">
        <ele>276.2</ele>
        <time>2025-12-11T13:16:57Z</time>
      </trkpt>
      <trkpt lat="45.71989" lon="4.72269">
        <ele>275.6</ele>
        <time>2025-12-11T13:16:58Z</time>
      </trkpt>
      <trkpt lat="45.7199" lon="4.72257">
        <ele>275.2</ele>
        <time>2025-12-11T13:16:59Z</time>
      </trkpt>
      <trkpt lat="45.71991" lon="4.72246">
        <ele>275</ele>
        <time>2025-12-11T13:17:00Z</time>
      </trkpt>
      <trkpt lat="45.71992" lon="4.72236">
        <ele>274.8</ele>
        <time>2025-12-11T13:17:01Z</time>
      </trkpt>
      <trkpt lat="45.71993" lon="4.72225">
        <ele>274.8</ele>
        <time>2025-12-11T13:17:02Z</time>
      </trkpt>
      <trkpt lat="45.71994" lon="4.72214">
        <ele>274.6</ele>
        <time>2025-12-11T13:17:03Z</time>
      </trkpt>
      <trkpt lat="45.71995" lon="4.72203">
        <ele>274.4</ele>
        <time>2025-12-11T13:17:04Z</time>
      </trkpt>
      <trkpt lat="45.71995" lon="4.72192">
        <ele>274.4</ele>
        <time>2025-12-11T13:17:05Z</time>
      </trkpt>
      <trkpt lat="45.71996" lon="4.72182">
        <ele>274.2</ele>
        <time>2025-12-11T13:17:06Z</time>
      </trkpt>
      <trkpt lat="45.71997" lon="4.72171">
        <ele>274</ele>
        <time>2025-12-11T13:17:07Z</time>
      </trkpt>
      <trkpt lat="45.71998" lon="4.72161">
        <ele>274</ele>
        <time>2025-12-11T13:17:08Z</time>
      </trkpt>
      <trkpt lat="45.71999" lon="4.7215">
        <ele>273.8</ele>
        <time>2025-12-11T13:17:09Z</time>
      </trkpt>
      <trkpt lat="45.72" lon="4.72139">
        <ele>273.6</ele>
        <time>2025-12-11T13:17:10Z</time>
      </trkpt>
      <trkpt lat="45.72001" lon="4.72129">
        <ele>273.6</ele>
        <time>2025-12-11T13:17:11Z</time>
      </trkpt>
      <trkpt lat="45.72001" lon="4.72118">
        <ele>273.4</ele>
        <time>2025-12-11T13:17:12Z</time>
      </trkpt>
      <trkpt lat="45.72002" lon="4.72108">
        <ele>273.2</ele>
        <time>2025-12-11T13:17:13Z</time>
      </trkpt>
      <trkpt lat="45.72003" lon="4.72098">
        <ele>273.2</ele>
        <time>2025-12-11T13:17:14Z</time>
      </trkpt>
      <trkpt lat="45.72004" lon="4.72087">
        <ele>273</ele>
        <time>2025-12-11T13:17:15Z</time>
      </trkpt>
      <trkpt lat="45.72004" lon="4.72077">
        <ele>273</ele>
        <time>2025-12-11T13:17:16Z</time>
      </trkpt>
      <trkpt lat="45.72005" lon="4.72068">
        <ele>272.8</ele>
        <time>2025-12-11T13:17:17Z</time>
      </trkpt>
      <trkpt lat="45.72006" lon="4.72057">
        <ele>272.8</ele>
        <time>2025-12-11T13:17:18Z</time>
      </trkpt>
      <trkpt lat="45.72007" lon="4.72047">
        <ele>273</ele>
        <time>2025-12-11T13:17:19Z</time>
      </trkpt>
      <trkpt lat="45.72008" lon="4.72037">
        <ele>273</ele>
        <time>2025-12-11T13:17:20Z</time>
      </trkpt>
      <trkpt lat="45.72008" lon="4.72027">
        <ele>273</ele>
        <time>2025-12-11T13:17:21Z</time>
      </trkpt>
      <trkpt lat="45.72009" lon="4.72017">
        <ele>273</ele>
        <time>2025-12-11T13:17:22Z</time>
      </trkpt>
      <trkpt lat="45.7201" lon="4.72008">
        <ele>273.2</ele>
        <time>2025-12-11T13:17:23Z</time>
      </trkpt>
      <trkpt lat="45.72011" lon="4.71998">
        <ele>273.2</ele>
        <time>2025-12-11T13:17:24Z</time>
      </trkpt>
      <trkpt lat="45.72012" lon="4.71989">
        <ele>273.2</ele>
        <time>2025-12-11T13:17:25Z</time>
      </trkpt>
      <trkpt lat="45.72012" lon="4.7198">
        <ele>273.4</ele>
        <time>2025-12-11T13:17:26Z</time>
      </trkpt>
      <trkpt lat="45.72013" lon="4.71971">
        <ele>273.6</ele>
        <time>2025-12-11T13:17:27Z</time>
      </trkpt>
      <trkpt lat="45.72013" lon="4.71962">
        <ele>273.8</ele>
        <time>2025-12-11T13:17:28Z</time>
      </trkpt>
      <trkpt lat="45.72014" lon="4.71954">
        <ele>274</ele>
        <time>2025-12-11T13:17:29Z</time>
      </trkpt>
      <trkpt lat="45.72014" lon="4.71945">
        <ele>274.2</ele>
        <time>2025-12-11T13:17:30Z</time>
      </trkpt>
      <trkpt lat="45.72014" lon="4.71938">
        <ele>274.4</ele>
        <time>2025-12-11T13:17:31Z</time>
      </trkpt>
      <trkpt lat="45.72015" lon="4.7193">
        <ele>274.6</ele>
        <time>2025-12-11T13:17:32Z</time>
      </trkpt>
      <trkpt lat="45.72016" lon="4.71922">
        <ele>274.6</ele>
        <time>2025-12-11T13:17:33Z</time>
      </trkpt>
      <trkpt lat="45.72016" lon="4.71914">
        <ele>274.6</ele>
        <time>2025-12-11T13:17:34Z</time>
      </trkpt>
      <trkpt lat="45.72017" lon="4.71905">
        <ele>274.6</ele>
        <time>2025-12-11T13:17:35Z</time>
      </trkpt>
      <trkpt lat="45.72018" lon="4.71897">
        <ele>274.6</ele>
        <time>2025-12-11T13:17:36Z</time>
      </trkpt>
      <trkpt lat="45.72019" lon="4.71888">
        <ele>274.4</ele>
        <time>2025-12-11T13:17:37Z</time>
      </trkpt>
      <trkpt lat="45.72019" lon="4.71878">
        <ele>274.2</ele>
        <time>2025-12-11T13:17:38Z</time>
      </trkpt>
      <trkpt lat="45.7202" lon="4.71868">
        <ele>274</ele>
        <time>2025-12-11T13:17:39Z</time>
      </trkpt>
      <trkpt lat="45.72021" lon="4.71857">
        <ele>273.6</ele>
        <time>2025-12-11T13:17:40Z</time>
      </trkpt>
      <trkpt lat="45.72024" lon="4.71847">
        <ele>273</ele>
        <time>2025-12-11T13:17:41Z</time>
      </trkpt>
      <trkpt lat="45.72026" lon="4.71836">
        <ele>272.6</ele>
        <time>2025-12-11T13:17:42Z</time>
      </trkpt>
      <trkpt lat="45.7203" lon="4.71825">
        <ele>272</ele>
        <time>2025-12-11T13:17:43Z</time>
      </trkpt>
      <trkpt lat="45.72035" lon="4.71816">
        <ele>271.6</ele>
        <time>2025-12-11T13:17:44Z</time>
      </trkpt>
      <trkpt lat="45.7204" lon="4.71807">
        <ele>271.4</ele>
        <time>2025-12-11T13:17:45Z</time>
      </trkpt>
      <trkpt lat="45.72044" lon="4.718">
        <ele>271.2</ele>
        <time>2025-12-11T13:17:46Z</time>
      </trkpt>
      <trkpt lat="45.72049" lon="4.71792">
        <ele>271.2</ele>
        <time>2025-12-11T13:17:47Z</time>
      </trkpt>
      <trkpt lat="45.72054" lon="4.71786">
        <ele>271.4</ele>
        <time>2025-12-11T13:17:48Z</time>
      </trkpt>
      <trkpt lat="45.72058" lon="4.7178">
        <ele>271.8</ele>
        <time>2025-12-11T13:17:49Z</time>
      </trkpt>
      <trkpt lat="45.72062" lon="4.71773">
        <ele>272.2</ele>
        <time>2025-12-11T13:17:50Z</time>
      </trkpt>
      <trkpt lat="45.72065" lon="4.71767">
        <ele>272.6</ele>
        <time>2025-12-11T13:17:51Z</time>
      </trkpt>
      <trkpt lat="45.72068" lon="4.71762">
        <ele>273.2</ele>
        <time>2025-12-11T13:17:52Z</time>
      </trkpt>
      <trkpt lat="45.72071" lon="4.71757">
        <ele>273.6</ele>
        <time>2025-12-11T13:17:53Z</time>
      </trkpt>
      <trkpt lat="45.72074" lon="4.71752">
        <ele>274.2</ele>
        <time>2025-12-11T13:17:54Z</time>
      </trkpt>
      <trkpt lat="45.72076" lon="4.71747">
        <ele>274.6</ele>
        <time>2025-12-11T13:17:55Z</time>
      </trkpt>
      <trkpt lat="45.72078" lon="4.71743">
        <ele>275.2</ele>
        <time>2025-12-11T13:17:56Z</time>
      </trkpt>
      <trkpt lat="45.72079" lon="4.71738">
        <ele>275.6</ele>
        <time>2025-12-11T13:17:57Z</time>
      </trkpt>
      <trkpt lat="45.72081" lon="4.71734">
        <ele>276</ele>
        <time>2025-12-11T13:17:58Z</time>
      </trkpt>
      <trkpt lat="45.72082" lon="4.7173">
        <ele>276.4</ele>
        <time>2025-12-11T13:17:59Z</time>
      </trkpt>
      <trkpt lat="45.72084" lon="4.71726">
        <ele>276.8</ele>
        <time>2025-12-11T13:18:00Z</time>
      </trkpt>
      <trkpt lat="45.72086" lon="4.71722">
        <ele>277</ele>
        <time>2025-12-11T13:18:01Z</time>
      </trkpt>
      <trkpt lat="45.72087" lon="4.71718">
        <ele>277.2</ele>
        <time>2025-12-11T13:18:02Z</time>
      </trkpt>
      <trkpt lat="45.72088" lon="4.71713">
        <ele>277.6</ele>
        <time>2025-12-11T13:18:03Z</time>
      </trkpt>
      <trkpt lat="45.7209" lon="4.71708">
        <ele>277.8</ele>
        <time>2025-12-11T13:18:04Z</time>
      </trkpt>
      <trkpt lat="45.72091" lon="4.71703">
        <ele>278</ele>
        <time>2025-12-11T13:18:05Z</time>
      </trkpt>
      <trkpt lat="45.72092" lon="4.71698">
        <ele>278.2</ele>
        <time>2025-12-11T13:18:06Z</time>
      </trkpt>
      <trkpt lat="45.72093" lon="4.71694">
        <ele>278.2</ele>
        <time>2025-12-11T13:18:07Z</time>
      </trkpt>
      <trkpt lat="45.72094" lon="4.71689">
        <ele>278.4</ele>
        <time>2025-12-11T13:18:08Z</time>
      </trkpt>
      <trkpt lat="45.72095" lon="4.71684">
        <ele>278.6</ele>
        <time>2025-12-11T13:18:09Z</time>
      </trkpt>
      <trkpt lat="45.72096" lon="4.7168">
        <ele>278.6</ele>
        <time>2025-12-11T13:18:10Z</time>
      </trkpt>
      <trkpt lat="45.72097" lon="4.71675">
        <ele>278.8</ele>
        <time>2025-12-11T13:18:11Z</time>
      </trkpt>
      <trkpt lat="45.72098" lon="4.71671">
        <ele>279</ele>
        <time>2025-12-11T13:18:12Z</time>
      </trkpt>
      <trkpt lat="45.72099" lon="4.71666">
        <ele>279</ele>
        <time>2025-12-11T13:18:13Z</time>
      </trkpt>
      <trkpt lat="45.72099" lon="4.71661">
        <ele>279.2</ele>
        <time>2025-12-11T13:18:14Z</time>
      </trkpt>
      <trkpt lat="45.721" lon="4.71655">
        <ele>279.2</ele>
        <time>2025-12-11T13:18:15Z</time>
      </trkpt>
      <trkpt lat="45.72101" lon="4.7165">
        <ele>279.4</ele>
        <time>2025-12-11T13:18:16Z</time>
      </trkpt>
      <trkpt lat="45.72102" lon="4.71645">
        <ele>279.6</ele>
        <time>2025-12-11T13:18:17Z</time>
      </trkpt>
      <trkpt lat="45.72102" lon="4.7164">
        <ele>279.8</ele>
        <time>2025-12-11T13:18:18Z</time>
      </trkpt>
      <trkpt lat="45.72103" lon="4.71635">
        <ele>280</ele>
        <time>2025-12-11T13:18:19Z</time>
      </trkpt>
      <trkpt lat="45.72103" lon="4.7163">
        <ele>280</ele>
        <time>2025-12-11T13:18:20Z</time>
      </trkpt>
      <trkpt lat="45.72103" lon="4.71624">
        <ele>280.2</ele>
        <time>2025-12-11T13:18:21Z</time>
      </trkpt>
      <trkpt lat="45.72103" lon="4.71619">
        <ele>280.4</ele>
        <time>2025-12-11T13:18:22Z</time>
      </trkpt>
      <trkpt lat="45.72103" lon="4.71614">
        <ele>280.6</ele>
        <time>2025-12-11T13:18:23Z</time>
      </trkpt>
      <trkpt lat="45.72103" lon="4.71608">
        <ele>280.6</ele>
        <time>2025-12-11T13:18:24Z</time>
      </trkpt>
      <trkpt lat="45.72103" lon="4.71603">
        <ele>280.8</ele>
        <time>2025-12-11T13:18:25Z</time>
      </trkpt>
      <trkpt lat="45.72103" lon="4.71598">
        <ele>281</ele>
        <time>2025-12-11T13:18:26Z</time>
      </trkpt>
      <trkpt lat="45.72104" lon="4.71593">
        <ele>281</ele>
        <time>2025-12-11T13:18:27Z</time>
      </trkpt>
      <trkpt lat="45.72104" lon="4.71588">
        <ele>281.2</ele>
        <time>2025-12-11T13:18:28Z</time>
      </trkpt>
      <trkpt lat="45.72104" lon="4.71583">
        <ele>281.2</ele>
        <time>2025-12-11T13:18:29Z</time>
      </trkpt>
      <trkpt lat="45.72104" lon="4.71577">
        <ele>281.4</ele>
        <time>2025-12-11T13:18:30Z</time>
      </trkpt>
      <trkpt lat="45.72104" lon="4.71571">
        <ele>281.6</ele>
        <time>2025-12-11T13:18:31Z</time>
      </trkpt>
      <trkpt lat="45.72104" lon="4.71565">
        <ele>281.6</ele>
        <time>2025-12-11T13:18:32Z</time>
      </trkpt>
      <trkpt lat="45.72104" lon="4.7156">
        <ele>281.8</ele>
        <time>2025-12-11T13:18:33Z</time>
      </trkpt>
      <trkpt lat="45.72104" lon="4.71554">
        <ele>281.8</ele>
        <time>2025-12-11T13:18:34Z</time>
      </trkpt>
      <trkpt lat="45.72104" lon="4.71548">
        <ele>282</ele>
        <time>2025-12-11T13:18:35Z</time>
      </trkpt>
      <trkpt lat="45.72104" lon="4.71542">
        <ele>282</ele>
        <time>2025-12-11T13:18:36Z</time>
      </trkpt>
      <trkpt lat="45.72104" lon="4.71536">
        <ele>282</ele>
        <time>2025-12-11T13:18:37Z</time>
      </trkpt>
      <trkpt lat="45.72104" lon="4.7153">
        <ele>282.2</ele>
        <time>2025-12-11T13:18:38Z</time>
      </trkpt>
      <trkpt lat="45.72104" lon="4.71524">
        <ele>282.2</ele>
        <time>2025-12-11T13:18:39Z</time>
      </trkpt>
      <trkpt lat="45.72103" lon="4.71518">
        <ele>282.2</ele>
        <time>2025-12-11T13:18:40Z</time>
      </trkpt>
      <trkpt lat="45.72103" lon="4.71512">
        <ele>282.2</ele>
        <time>2025-12-11T13:18:41Z</time>
      </trkpt>
      <trkpt lat="45.72103" lon="4.71506">
        <ele>282.2</ele>
        <time>2025-12-11T13:18:42Z</time>
      </trkpt>
      <trkpt lat="45.72103" lon="4.715">
        <ele>282.4</ele>
        <time>2025-12-11T13:18:43Z</time>
      </trkpt>
      <trkpt lat="45.72102" lon="4.71494">
        <ele>282.4</ele>
        <time>2025-12-11T13:18:44Z</time>
      </trkpt>
      <trkpt lat="45.72102" lon="4.71488">
        <ele>282.6</ele>
        <time>2025-12-11T13:18:45Z</time>
      </trkpt>
      <trkpt lat="45.72102" lon="4.71482">
        <ele>282.6</ele>
        <time>2025-12-11T13:18:46Z</time>
      </trkpt>
      <trkpt lat="45.72102" lon="4.71475">
        <ele>282.6</ele>
        <time>2025-12-11T13:18:47Z</time>
      </trkpt>
      <trkpt lat="45.72102" lon="4.71469">
        <ele>282.6</ele>
        <time>2025-12-11T13:18:48Z</time>
      </trkpt>
      <trkpt lat="45.72101" lon="4.71462">
        <ele>282.8</ele>
        <time>2025-12-11T13:18:49Z</time>
      </trkpt>
      <trkpt lat="45.72101" lon="4.71456">
        <ele>282.8</ele>
        <time>2025-12-11T13:18:50Z</time>
      </trkpt>
      <trkpt lat="45.72101" lon="4.7145">
        <ele>282.8</ele>
        <time>2025-12-11T13:18:51Z</time>
      </trkpt>
      <trkpt lat="45.721" lon="4.71443">
        <ele>282.8</ele>
        <time>2025-12-11T13:18:52Z</time>
      </trkpt>
      <trkpt lat="45.721" lon="4.71437">
        <ele>283</ele>
        <time>2025-12-11T13:18:53Z</time>
      </trkpt>
      <trkpt lat="45.721" lon="4.7143">
        <ele>283</ele>
        <time>2025-12-11T13:18:54Z</time>
      </trkpt>
      <trkpt lat="45.72099" lon="4.71423">
        <ele>283</ele>
        <time>2025-12-11T13:18:55Z</time>
      </trkpt>
      <trkpt lat="45.72099" lon="4.71417">
        <ele>283</ele>
        <time>2025-12-11T13:18:56Z</time>
      </trkpt>
      <trkpt lat="45.72099" lon="4.7141">
        <ele>282.8</ele>
        <time>2025-12-11T13:18:57Z</time>
      </trkpt>
      <trkpt lat="45.72098" lon="4.71403">
        <ele>282.8</ele>
        <time>2025-12-11T13:18:58Z</time>
      </trkpt>
      <trkpt lat="45.72098" lon="4.71396">
        <ele>282.8</ele>
        <time>2025-12-11T13:18:59Z</time>
      </trkpt>
      <trkpt lat="45.72097" lon="4.71389">
        <ele>282.6</ele>
        <time>2025-12-11T13:19:00Z</time>
      </trkpt>
      <trkpt lat="45.72097" lon="4.71381">
        <ele>282.6</ele>
        <time>2025-12-11T13:19:01Z</time>
      </trkpt>
      <trkpt lat="45.72097" lon="4.71375">
        <ele>282.6</ele>
        <time>2025-12-11T13:19:02Z</time>
      </trkpt>
      <trkpt lat="45.72096" lon="4.71367">
        <ele>282.6</ele>
        <time>2025-12-11T13:19:03Z</time>
      </trkpt>
      <trkpt lat="45.72096" lon="4.7136">
        <ele>282.4</ele>
        <time>2025-12-11T13:19:04Z</time>
      </trkpt>
      <trkpt lat="45.72095" lon="4.71353">
        <ele>282.4</ele>
        <time>2025-12-11T13:19:05Z</time>
      </trkpt>
      <trkpt lat="45.72095" lon="4.71346">
        <ele>282.4</ele>
        <time>2025-12-11T13:19:06Z</time>
      </trkpt>
      <trkpt lat="45.72094" lon="4.71339">
        <ele>282.4</ele>
        <time>2025-12-11T13:19:07Z</time>
      </trkpt>
      <trkpt lat="45.72094" lon="4.71333">
        <ele>282.6</ele>
        <time>2025-12-11T13:19:08Z</time>
      </trkpt>
      <trkpt lat="45.72093" lon="4.71327">
        <ele>282.6</ele>
        <time>2025-12-11T13:19:09Z</time>
      </trkpt>
      <trkpt lat="45.72093" lon="4.7132">
        <ele>282.6</ele>
        <time>2025-12-11T13:19:10Z</time>
      </trkpt>
      <trkpt lat="45.72092" lon="4.71314">
        <ele>282.6</ele>
        <time>2025-12-11T13:19:11Z</time>
      </trkpt>
      <trkpt lat="45.72091" lon="4.71307">
        <ele>282.8</ele>
        <time>2025-12-11T13:19:12Z</time>
      </trkpt>
      <trkpt lat="45.7209" lon="4.713">
        <ele>282.8</ele>
        <time>2025-12-11T13:19:13Z</time>
      </trkpt>
      <trkpt lat="45.72089" lon="4.71293">
        <ele>282.8</ele>
        <time>2025-12-11T13:19:14Z</time>
      </trkpt>
      <trkpt lat="45.72088" lon="4.71286">
        <ele>282.8</ele>
        <time>2025-12-11T13:19:15Z</time>
      </trkpt>
      <trkpt lat="45.72087" lon="4.71279">
        <ele>282.8</ele>
        <time>2025-12-11T13:19:16Z</time>
      </trkpt>
      <trkpt lat="45.72086" lon="4.71272">
        <ele>282.6</ele>
        <time>2025-12-11T13:19:17Z</time>
      </trkpt>
      <trkpt lat="45.72084" lon="4.71264">
        <ele>282.6</ele>
        <time>2025-12-11T13:19:18Z</time>
      </trkpt>
      <trkpt lat="45.72083" lon="4.71257">
        <ele>282.6</ele>
        <time>2025-12-11T13:19:19Z</time>
      </trkpt>
      <trkpt lat="45.72082" lon="4.7125">
        <ele>282.6</ele>
        <time>2025-12-11T13:19:20Z</time>
      </trkpt>
      <trkpt lat="45.7208" lon="4.71243">
        <ele>282.4</ele>
        <time>2025-12-11T13:19:21Z</time>
      </trkpt>
      <trkpt lat="45.72079" lon="4.71236">
        <ele>282.4</ele>
        <time>2025-12-11T13:19:22Z</time>
      </trkpt>
      <trkpt lat="45.72078" lon="4.71229">
        <ele>282.4</ele>
        <time>2025-12-11T13:19:23Z</time>
      </trkpt>
      <trkpt lat="45.72076" lon="4.71221">
        <ele>282.4</ele>
        <time>2025-12-11T13:19:24Z</time>
      </trkpt>
      <trkpt lat="45.72075" lon="4.71214">
        <ele>282.4</ele>
        <time>2025-12-11T13:19:25Z</time>
      </trkpt>
      <trkpt lat="45.72073" lon="4.71207">
        <ele>282.4</ele>
        <time>2025-12-11T13:19:26Z</time>
      </trkpt>
      <trkpt lat="45.72072" lon="4.71199">
        <ele>282.4</ele>
        <time>2025-12-11T13:19:27Z</time>
      </trkpt>
      <trkpt lat="45.72071" lon="4.71192">
        <ele>282.4</ele>
        <time>2025-12-11T13:19:28Z</time>
      </trkpt>
      <trkpt lat="45.72069" lon="4.71184">
        <ele>282.4</ele>
        <time>2025-12-11T13:19:29Z</time>
      </trkpt>
      <trkpt lat="45.72068" lon="4.71177">
        <ele>282.4</ele>
        <time>2025-12-11T13:19:30Z</time>
      </trkpt>
      <trkpt lat="45.72067" lon="4.71169">
        <ele>282.4</ele>
        <time>2025-12-11T13:19:31Z</time>
      </trkpt>
      <trkpt lat="45.72066" lon="4.71162">
        <ele>282.2</ele>
        <time>2025-12-11T13:19:32Z</time>
      </trkpt>
      <trkpt lat="45.72065" lon="4.71155">
        <ele>282.2</ele>
        <time>2025-12-11T13:19:33Z</time>
      </trkpt>
      <trkpt lat="45.72064" lon="4.71148">
        <ele>282.2</ele>
        <time>2025-12-11T13:19:34Z</time>
      </trkpt>
      <trkpt lat="45.72064" lon="4.71141">
        <ele>282.2</ele>
        <time>2025-12-11T13:19:35Z</time>
      </trkpt>
      <trkpt lat="45.72063" lon="4.71134">
        <ele>282.2</ele>
        <time>2025-12-11T13:19:36Z</time>
      </trkpt>
      <trkpt lat="45.72062" lon="4.71127">
        <ele>282.4</ele>
        <time>2025-12-11T13:19:37Z</time>
      </trkpt>
      <trkpt lat="45.72061" lon="4.7112">
        <ele>282.4</ele>
        <time>2025-12-11T13:19:38Z</time>
      </trkpt>
      <trkpt lat="45.72061" lon="4.71114">
        <ele>282.6</ele>
        <time>2025-12-11T13:19:39Z</time>
      </trkpt>
      <trkpt lat="45.7206" lon="4.71107">
        <ele>282.8</ele>
        <time>2025-12-11T13:19:40Z</time>
      </trkpt>
      <trkpt lat="45.72059" lon="4.711">
        <ele>283</ele>
        <time>2025-12-11T13:19:41Z</time>
      </trkpt>
      <trkpt lat="45.72058" lon="4.71094">
        <ele>283.2</ele>
        <time>2025-12-11T13:19:42Z</time>
      </trkpt>
      <trkpt lat="45.72058" lon="4.71087">
        <ele>283.2</ele>
        <time>2025-12-11T13:19:43Z</time>
      </trkpt>
      <trkpt lat="45.72056" lon="4.71081">
        <ele>283.4</ele>
        <time>2025-12-11T13:19:44Z</time>
      </trkpt>
      <trkpt lat="45.72055" lon="4.71075">
        <ele>283.6</ele>
        <time>2025-12-11T13:19:45Z</time>
      </trkpt>
      <trkpt lat="45.72054" lon="4.71069">
        <ele>283.6</ele>
        <time>2025-12-11T13:19:46Z</time>
      </trkpt>
      <trkpt lat="45.72052" lon="4.71062">
        <ele>283.8</ele>
        <time>2025-12-11T13:19:47Z</time>
      </trkpt>
      <trkpt lat="45.72051" lon="4.71056">
        <ele>283.8</ele>
        <time>2025-12-11T13:19:48Z</time>
      </trkpt>
      <trkpt lat="45.72049" lon="4.71049">
        <ele>284</ele>
        <time>2025-12-11T13:19:49Z</time>
      </trkpt>
      <trkpt lat="45.72047" lon="4.71043">
        <ele>284</ele>
        <time>2025-12-11T13:19:50Z</time>
      </trkpt>
      <trkpt lat="45.72046" lon="4.71036">
        <ele>284</ele>
        <time>2025-12-11T13:19:51Z</time>
      </trkpt>
      <trkpt lat="45.72044" lon="4.7103">
        <ele>284</ele>
        <time>2025-12-11T13:19:52Z</time>
      </trkpt>
      <trkpt lat="45.72042" lon="4.71024">
        <ele>284.2</ele>
        <time>2025-12-11T13:19:53Z</time>
      </trkpt>
      <trkpt lat="45.7204" lon="4.71018">
        <ele>284.2</ele>
        <time>2025-12-11T13:19:54Z</time>
      </trkpt>
      <trkpt lat="45.72038" lon="4.71011">
        <ele>284.2</ele>
        <time>2025-12-11T13:19:55Z</time>
      </trkpt>
      <trkpt lat="45.72036" lon="4.71004">
        <ele>284</ele>
        <time>2025-12-11T13:19:56Z</time>
      </trkpt>
      <trkpt lat="45.72034" lon="4.70998">
        <ele>284</ele>
        <time>2025-12-11T13:19:57Z</time>
      </trkpt>
      <trkpt lat="45.72031" lon="4.70991">
        <ele>283.8</ele>
        <time>2025-12-11T13:19:58Z</time>
      </trkpt>
      <trkpt lat="45.72029" lon="4.70984">
        <ele>283.8</ele>
        <time>2025-12-11T13:19:59Z</time>
      </trkpt>
      <trkpt lat="45.72027" lon="4.70978">
        <ele>283.8</ele>
        <time>2025-12-11T13:20:00Z</time>
      </trkpt>
      <trkpt lat="45.72024" lon="4.70971">
        <ele>283.6</ele>
        <time>2025-12-11T13:20:01Z</time>
      </trkpt>
      <trkpt lat="45.72021" lon="4.70964">
        <ele>283.6</ele>
        <time>2025-12-11T13:20:02Z</time>
      </trkpt>
      <trkpt lat="45.72019" lon="4.70957">
        <ele>283.4</ele>
        <time>2025-12-11T13:20:03Z</time>
      </trkpt>
      <trkpt lat="45.72017" lon="4.7095">
        <ele>283.4</ele>
        <time>2025-12-11T13:20:04Z</time>
      </trkpt>
      <trkpt lat="45.72015" lon="4.70943">
        <ele>283.4</ele>
        <time>2025-12-11T13:20:05Z</time>
      </trkpt>
      <trkpt lat="45.72015" lon="4.70935">
        <ele>283.4</ele>
        <time>2025-12-11T13:20:06Z</time>
      </trkpt>
      <trkpt lat="45.72014" lon="4.70927">
        <ele>283.4</ele>
        <time>2025-12-11T13:20:07Z</time>
      </trkpt>
      <trkpt lat="45.72015" lon="4.7092">
        <ele>283.4</ele>
        <time>2025-12-11T13:20:08Z</time>
      </trkpt>
      <trkpt lat="45.72015" lon="4.70912">
        <ele>283.4</ele>
        <time>2025-12-11T13:20:09Z</time>
      </trkpt>
      <trkpt lat="45.72016" lon="4.70904">
        <ele>283.4</ele>
        <time>2025-12-11T13:20:10Z</time>
      </trkpt>
      <trkpt lat="45.72017" lon="4.70896">
        <ele>283.4</ele>
        <time>2025-12-11T13:20:11Z</time>
      </trkpt>
      <trkpt lat="45.72019" lon="4.70889">
        <ele>283.4</ele>
        <time>2025-12-11T13:20:12Z</time>
      </trkpt>
      <trkpt lat="45.7202" lon="4.70882">
        <ele>283.6</ele>
        <time>2025-12-11T13:20:13Z</time>
      </trkpt>
      <trkpt lat="45.72022" lon="4.70875">
        <ele>283.6</ele>
        <time>2025-12-11T13:20:14Z</time>
      </trkpt>
      <trkpt lat="45.72023" lon="4.70867">
        <ele>283.6</ele>
        <time>2025-12-11T13:20:15Z</time>
      </trkpt>
      <trkpt lat="45.72024" lon="4.7086">
        <ele>283.8</ele>
        <time>2025-12-11T13:20:16Z</time>
      </trkpt>
      <trkpt lat="45.72025" lon="4.70852">
        <ele>283.8</ele>
        <time>2025-12-11T13:20:17Z</time>
      </trkpt>
      <trkpt lat="45.72026" lon="4.70844">
        <ele>283.8</ele>
        <time>2025-12-11T13:20:18Z</time>
      </trkpt>
      <trkpt lat="45.72027" lon="4.70837">
        <ele>283.8</ele>
        <time>2025-12-11T13:20:19Z</time>
      </trkpt>
      <trkpt lat="45.72027" lon="4.7083">
        <ele>283.8</ele>
        <time>2025-12-11T13:20:20Z</time>
      </trkpt>
      <trkpt lat="45.72028" lon="4.70822">
        <ele>283.6</ele>
        <time>2025-12-11T13:20:21Z</time>
      </trkpt>
      <trkpt lat="45.72029" lon="4.70815">
        <ele>283.8</ele>
        <time>2025-12-11T13:20:22Z</time>
      </trkpt>
      <trkpt lat="45.7203" lon="4.70808">
        <ele>283.8</ele>
        <time>2025-12-11T13:20:23Z</time>
      </trkpt>
      <trkpt lat="45.72031" lon="4.70801">
        <ele>283.8</ele>
        <time>2025-12-11T13:20:24Z</time>
      </trkpt>
      <trkpt lat="45.72032" lon="4.70793">
        <ele>284</ele>
        <time>2025-12-11T13:20:25Z</time>
      </trkpt>
      <trkpt lat="45.72033" lon="4.70786">
        <ele>284</ele>
        <time>2025-12-11T13:20:26Z</time>
      </trkpt>
      <trkpt lat="45.72033" lon="4.70778">
        <ele>284</ele>
        <time>2025-12-11T13:20:27Z</time>
      </trkpt>
      <trkpt lat="45.72033" lon="4.70771">
        <ele>284</ele>
        <time>2025-12-11T13:20:28Z</time>
      </trkpt>
      <trkpt lat="45.72034" lon="4.70763">
        <ele>284</ele>
        <time>2025-12-11T13:20:29Z</time>
      </trkpt>
      <trkpt lat="45.72034" lon="4.70756">
        <ele>283.8</ele>
        <time>2025-12-11T13:20:30Z</time>
      </trkpt>
      <trkpt lat="45.72035" lon="4.70749">
        <ele>283.8</ele>
        <time>2025-12-11T13:20:31Z</time>
      </trkpt>
      <trkpt lat="45.72035" lon="4.70741">
        <ele>283.6</ele>
        <time>2025-12-11T13:20:32Z</time>
      </trkpt>
      <trkpt lat="45.72035" lon="4.70734">
        <ele>283.6</ele>
        <time>2025-12-11T13:20:33Z</time>
      </trkpt>
      <trkpt lat="45.72035" lon="4.70727">
        <ele>283.4</ele>
        <time>2025-12-11T13:20:34Z</time>
      </trkpt>
      <trkpt lat="45.72035" lon="4.7072">
        <ele>283.4</ele>
        <time>2025-12-11T13:20:35Z</time>
      </trkpt>
      <trkpt lat="45.72035" lon="4.70713">
        <ele>283.4</ele>
        <time>2025-12-11T13:20:36Z</time>
      </trkpt>
      <trkpt lat="45.72035" lon="4.70706">
        <ele>283.4</ele>
        <time>2025-12-11T13:20:37Z</time>
      </trkpt>
      <trkpt lat="45.72035" lon="4.70699">
        <ele>283.6</ele>
        <time>2025-12-11T13:20:38Z</time>
      </trkpt>
      <trkpt lat="45.72036" lon="4.70693">
        <ele>283.8</ele>
        <time>2025-12-11T13:20:39Z</time>
      </trkpt>
      <trkpt lat="45.72036" lon="4.70686">
        <ele>283.8</ele>
        <time>2025-12-11T13:20:40Z</time>
      </trkpt>
      <trkpt lat="45.72036" lon="4.70679">
        <ele>284</ele>
        <time>2025-12-11T13:20:41Z</time>
      </trkpt>
      <trkpt lat="45.72036" lon="4.70672">
        <ele>284</ele>
        <time>2025-12-11T13:20:42Z</time>
      </trkpt>
      <trkpt lat="45.72037" lon="4.70665">
        <ele>284.2</ele>
        <time>2025-12-11T13:20:43Z</time>
      </trkpt>
      <trkpt lat="45.72037" lon="4.70658">
        <ele>284.2</ele>
        <time>2025-12-11T13:20:44Z</time>
      </trkpt>
      <trkpt lat="45.72038" lon="4.70652">
        <ele>284.4</ele>
        <time>2025-12-11T13:20:45Z</time>
      </trkpt>
      <trkpt lat="45.72039" lon="4.70646">
        <ele>284.4</ele>
        <time>2025-12-11T13:20:46Z</time>
      </trkpt>
      <trkpt lat="45.7204" lon="4.70639">
        <ele>284.6</ele>
        <time>2025-12-11T13:20:47Z</time>
      </trkpt>
      <trkpt lat="45.72042" lon="4.70632">
        <ele>284.6</ele>
        <time>2025-12-11T13:20:48Z</time>
      </trkpt>
      <trkpt lat="45.72044" lon="4.70626">
        <ele>284.8</ele>
        <time>2025-12-11T13:20:49Z</time>
      </trkpt>
      <trkpt lat="45.72046" lon="4.70619">
        <ele>284.8</ele>
        <time>2025-12-11T13:20:50Z</time>
      </trkpt>
      <trkpt lat="45.72048" lon="4.70613">
        <ele>284.8</ele>
        <time>2025-12-11T13:20:51Z</time>
      </trkpt>
      <trkpt lat="45.72051" lon="4.70608">
        <ele>285</ele>
        <time>2025-12-11T13:20:52Z</time>
      </trkpt>
      <trkpt lat="45.72054" lon="4.70602">
        <ele>285</ele>
        <time>2025-12-11T13:20:53Z</time>
      </trkpt>
      <trkpt lat="45.72057" lon="4.70597">
        <ele>285</ele>
        <time>2025-12-11T13:20:54Z</time>
      </trkpt>
      <trkpt lat="45.7206" lon="4.70592">
        <ele>285.2</ele>
        <time>2025-12-11T13:20:55Z</time>
      </trkpt>
      <trkpt lat="45.72063" lon="4.70587">
        <ele>285.2</ele>
        <time>2025-12-11T13:20:56Z</time>
      </trkpt>
      <trkpt lat="45.72066" lon="4.70582">
        <ele>285.4</ele>
        <time>2025-12-11T13:20:57Z</time>
      </trkpt>
      <trkpt lat="45.72069" lon="4.70577">
        <ele>285.4</ele>
        <time>2025-12-11T13:20:58Z</time>
      </trkpt>
      <trkpt lat="45.72073" lon="4.70572">
        <ele>285.6</ele>
        <time>2025-12-11T13:20:59Z</time>
      </trkpt>
      <trkpt lat="45.72076" lon="4.70567">
        <ele>285.6</ele>
        <time>2025-12-11T13:21:00Z</time>
      </trkpt>
      <trkpt lat="45.72079" lon="4.70561">
        <ele>285.8</ele>
        <time>2025-12-11T13:21:01Z</time>
      </trkpt>
      <trkpt lat="45.72082" lon="4.70556">
        <ele>285.8</ele>
        <time>2025-12-11T13:21:02Z</time>
      </trkpt>
      <trkpt lat="45.72084" lon="4.7055">
        <ele>285.8</ele>
        <time>2025-12-11T13:21:03Z</time>
      </trkpt>
      <trkpt lat="45.72086" lon="4.70544">
        <ele>285.8</ele>
        <time>2025-12-11T13:21:04Z</time>
      </trkpt>
      <trkpt lat="45.72088" lon="4.70537">
        <ele>286</ele>
        <time>2025-12-11T13:21:05Z</time>
      </trkpt>
      <trkpt lat="45.7209" lon="4.70531">
        <ele>286</ele>
        <time>2025-12-11T13:21:06Z</time>
      </trkpt>
      <trkpt lat="45.72092" lon="4.70525">
        <ele>286</ele>
        <time>2025-12-11T13:21:07Z</time>
      </trkpt>
      <trkpt lat="45.72094" lon="4.70519">
        <ele>286.2</ele>
        <time>2025-12-11T13:21:08Z</time>
      </trkpt>
      <trkpt lat="45.72095" lon="4.70512">
        <ele>286.2</ele>
        <time>2025-12-11T13:21:09Z</time>
      </trkpt>
      <trkpt lat="45.72097" lon="4.70505">
        <ele>286.4</ele>
        <time>2025-12-11T13:21:10Z</time>
      </trkpt>
      <trkpt lat="45.72098" lon="4.70499">
        <ele>286.4</ele>
        <time>2025-12-11T13:21:11Z</time>
      </trkpt>
      <trkpt lat="45.72099" lon="4.70493">
        <ele>286.6</ele>
        <time>2025-12-11T13:21:12Z</time>
      </trkpt>
      <trkpt lat="45.72101" lon="4.70486">
        <ele>286.8</ele>
        <time>2025-12-11T13:21:13Z</time>
      </trkpt>
      <trkpt lat="45.72102" lon="4.7048">
        <ele>286.8</ele>
        <time>2025-12-11T13:21:14Z</time>
      </trkpt>
      <trkpt lat="45.72103" lon="4.70474">
        <ele>287</ele>
        <time>2025-12-11T13:21:15Z</time>
      </trkpt>
      <trkpt lat="45.72104" lon="4.70468">
        <ele>287</ele>
        <time>2025-12-11T13:21:16Z</time>
      </trkpt>
      <trkpt lat="45.72105" lon="4.70462">
        <ele>287.2</ele>
        <time>2025-12-11T13:21:17Z</time>
      </trkpt>
      <trkpt lat="45.72106" lon="4.70455">
        <ele>287.4</ele>
        <time>2025-12-11T13:21:18Z</time>
      </trkpt>
      <trkpt lat="45.72106" lon="4.70449">
        <ele>287.4</ele>
        <time>2025-12-11T13:21:19Z</time>
      </trkpt>
      <trkpt lat="45.72107" lon="4.70443">
        <ele>287.6</ele>
        <time>2025-12-11T13:21:20Z</time>
      </trkpt>
      <trkpt lat="45.72108" lon="4.70437">
        <ele>287.6</ele>
        <time>2025-12-11T13:21:21Z</time>
      </trkpt>
      <trkpt lat="45.72109" lon="4.70431">
        <ele>287.8</ele>
        <time>2025-12-11T13:21:22Z</time>
      </trkpt>
      <trkpt lat="45.72111" lon="4.70425">
        <ele>287.8</ele>
        <time>2025-12-11T13:21:23Z</time>
      </trkpt>
      <trkpt lat="45.72112" lon="4.7042">
        <ele>287.8</ele>
        <time>2025-12-11T13:21:24Z</time>
      </trkpt>
      <trkpt lat="45.72113" lon="4.70414">
        <ele>288</ele>
        <time>2025-12-11T13:21:25Z</time>
      </trkpt>
      <trkpt lat="45.72115" lon="4.70408">
        <ele>288</ele>
        <time>2025-12-11T13:21:26Z</time>
      </trkpt>
      <trkpt lat="45.72116" lon="4.70402">
        <ele>288.2</ele>
        <time>2025-12-11T13:21:27Z</time>
      </trkpt>
      <trkpt lat="45.72117" lon="4.70396">
        <ele>288.4</ele>
        <time>2025-12-11T13:21:28Z</time>
      </trkpt>
      <trkpt lat="45.72118" lon="4.7039">
        <ele>288.6</ele>
        <time>2025-12-11T13:21:29Z</time>
      </trkpt>
      <trkpt lat="45.72119" lon="4.70385">
        <ele>288.6</ele>
        <time>2025-12-11T13:21:30Z</time>
      </trkpt>
      <trkpt lat="45.72121" lon="4.70379">
        <ele>288.8</ele>
        <time>2025-12-11T13:21:31Z</time>
      </trkpt>
      <trkpt lat="45.72122" lon="4.70374">
        <ele>289</ele>
        <time>2025-12-11T13:21:32Z</time>
      </trkpt>
      <trkpt lat="45.72124" lon="4.70369">
        <ele>289.2</ele>
        <time>2025-12-11T13:21:33Z</time>
      </trkpt>
      <trkpt lat="45.72125" lon="4.70364">
        <ele>289.4</ele>
        <time>2025-12-11T13:21:34Z</time>
      </trkpt>
      <trkpt lat="45.72126" lon="4.70358">
        <ele>289.4</ele>
        <time>2025-12-11T13:21:35Z</time>
      </trkpt>
      <trkpt lat="45.72126" lon="4.70352">
        <ele>289.6</ele>
        <time>2025-12-11T13:21:36Z</time>
      </trkpt>
      <trkpt lat="45.72127" lon="4.70346">
        <ele>289.6</ele>
        <time>2025-12-11T13:21:37Z</time>
      </trkpt>
      <trkpt lat="45.72128" lon="4.70341">
        <ele>289.8</ele>
        <time>2025-12-11T13:21:38Z</time>
      </trkpt>
      <trkpt lat="45.72129" lon="4.70335">
        <ele>289.8</ele>
        <time>2025-12-11T13:21:39Z</time>
      </trkpt>
      <trkpt lat="45.7213" lon="4.7033">
        <ele>290</ele>
        <time>2025-12-11T13:21:40Z</time>
      </trkpt>
      <trkpt lat="45.72131" lon="4.70324">
        <ele>290.2</ele>
        <time>2025-12-11T13:21:41Z</time>
      </trkpt>
      <trkpt lat="45.72132" lon="4.70319">
        <ele>290.2</ele>
        <time>2025-12-11T13:21:42Z</time>
      </trkpt>
      <trkpt lat="45.72133" lon="4.70313">
        <ele>290.4</ele>
        <time>2025-12-11T13:21:43Z</time>
      </trkpt>
      <trkpt lat="45.72134" lon="4.70308">
        <ele>290.6</ele>
        <time>2025-12-11T13:21:44Z</time>
      </trkpt>
      <trkpt lat="45.72135" lon="4.70303">
        <ele>290.6</ele>
        <time>2025-12-11T13:21:45Z</time>
      </trkpt>
      <trkpt lat="45.72136" lon="4.70297">
        <ele>290.8</ele>
        <time>2025-12-11T13:21:46Z</time>
      </trkpt>
      <trkpt lat="45.72137" lon="4.70292">
        <ele>290.8</ele>
        <time>2025-12-11T13:21:47Z</time>
      </trkpt>
      <trkpt lat="45.72138" lon="4.70286">
        <ele>290.8</ele>
        <time>2025-12-11T13:21:48Z</time>
      </trkpt>
      <trkpt lat="45.7214" lon="4.70281">
        <ele>291</ele>
        <time>2025-12-11T13:21:49Z</time>
      </trkpt>
      <trkpt lat="45.72141" lon="4.70275">
        <ele>291.2</ele>
        <time>2025-12-11T13:21:50Z</time>
      </trkpt>
      <trkpt lat="45.72142" lon="4.70269">
        <ele>291.2</ele>
        <time>2025-12-11T13:21:51Z</time>
      </trkpt>
      <trkpt lat="45.72143" lon="4.70264">
        <ele>291.4</ele>
        <time>2025-12-11T13:21:52Z</time>
      </trkpt>
      <trkpt lat="45.72144" lon="4.70258">
        <ele>291.4</ele>
        <time>2025-12-11T13:21:53Z</time>
      </trkpt>
      <trkpt lat="45.72145" lon="4.70252">
        <ele>291.6</ele>
        <time>2025-12-11T13:21:54Z</time>
      </trkpt>
      <trkpt lat="45.72146" lon="4.70247">
        <ele>291.6</ele>
        <time>2025-12-11T13:21:55Z</time>
      </trkpt>
      <trkpt lat="45.72147" lon="4.70241">
        <ele>291.8</ele>
        <time>2025-12-11T13:21:56Z</time>
      </trkpt>
      <trkpt lat="45.72148" lon="4.70236">
        <ele>291.8</ele>
        <time>2025-12-11T13:21:57Z</time>
      </trkpt>
      <trkpt lat="45.72149" lon="4.7023">
        <ele>292</ele>
        <time>2025-12-11T13:21:58Z</time>
      </trkpt>
      <trkpt lat="45.72151" lon="4.70224">
        <ele>292</ele>
        <time>2025-12-11T13:21:59Z</time>
      </trkpt>
      <trkpt lat="45.72152" lon="4.70219">
        <ele>292</ele>
        <time>2025-12-11T13:22:00Z</time>
      </trkpt>
      <trkpt lat="45.72153" lon="4.70213">
        <ele>292.2</ele>
        <time>2025-12-11T13:22:01Z</time>
      </trkpt>
      <trkpt lat="45.72154" lon="4.70207">
        <ele>292.2</ele>
        <time>2025-12-11T13:22:02Z</time>
      </trkpt>
      <trkpt lat="45.72156" lon="4.70202">
        <ele>292.2</ele>
        <time>2025-12-11T13:22:03Z</time>
      </trkpt>
      <trkpt lat="45.72157" lon="4.70196">
        <ele>292.4</ele>
        <time>2025-12-11T13:22:04Z</time>
      </trkpt>
      <trkpt lat="45.72158" lon="4.7019">
        <ele>292.4</ele>
        <time>2025-12-11T13:22:05Z</time>
      </trkpt>
      <trkpt lat="45.72159" lon="4.70184">
        <ele>292.4</ele>
        <time>2025-12-11T13:22:06Z</time>
      </trkpt>
      <trkpt lat="45.7216" lon="4.70178">
        <ele>292.4</ele>
        <time>2025-12-11T13:22:07Z</time>
      </trkpt>
      <trkpt lat="45.72161" lon="4.70172">
        <ele>292.4</ele>
        <time>2025-12-11T13:22:08Z</time>
      </trkpt>
      <trkpt lat="45.72162" lon="4.70166">
        <ele>292.6</ele>
        <time>2025-12-11T13:22:09Z</time>
      </trkpt>
      <trkpt lat="45.72163" lon="4.7016">
        <ele>292.6</ele>
        <time>2025-12-11T13:22:10Z</time>
      </trkpt>
      <trkpt lat="45.72164" lon="4.70154">
        <ele>292.8</ele>
        <time>2025-12-11T13:22:11Z</time>
      </trkpt>
      <trkpt lat="45.72165" lon="4.70148">
        <ele>292.8</ele>
        <time>2025-12-11T13:22:12Z</time>
      </trkpt>
      <trkpt lat="45.72166" lon="4.70142">
        <ele>293</ele>
        <time>2025-12-11T13:22:13Z</time>
      </trkpt>
      <trkpt lat="45.72167" lon="4.70136">
        <ele>293</ele>
        <time>2025-12-11T13:22:14Z</time>
      </trkpt>
      <trkpt lat="45.72168" lon="4.7013">
        <ele>293.2</ele>
        <time>2025-12-11T13:22:15Z</time>
      </trkpt>
      <trkpt lat="45.72169" lon="4.70124">
        <ele>293.2</ele>
        <time>2025-12-11T13:22:16Z</time>
      </trkpt>
      <trkpt lat="45.7217" lon="4.70118">
        <ele>293.2</ele>
        <time>2025-12-11T13:22:17Z</time>
      </trkpt>
      <trkpt lat="45.72171" lon="4.70112">
        <ele>293.4</ele>
        <time>2025-12-11T13:22:18Z</time>
      </trkpt>
      <trkpt lat="45.72172" lon="4.70106">
        <ele>293.4</ele>
        <time>2025-12-11T13:22:19Z</time>
      </trkpt>
      <trkpt lat="45.72173" lon="4.701">
        <ele>293.4</ele>
        <time>2025-12-11T13:22:20Z</time>
      </trkpt>
      <trkpt lat="45.72174" lon="4.70094">
        <ele>293.6</ele>
        <time>2025-12-11T13:22:21Z</time>
      </trkpt>
      <trkpt lat="45.72176" lon="4.70087">
        <ele>293.6</ele>
        <time>2025-12-11T13:22:22Z</time>
      </trkpt>
      <trkpt lat="45.72177" lon="4.70081">
        <ele>293.8</ele>
        <time>2025-12-11T13:22:23Z</time>
      </trkpt>
      <trkpt lat="45.72178" lon="4.70076">
        <ele>294</ele>
        <time>2025-12-11T13:22:24Z</time>
      </trkpt>
      <trkpt lat="45.7218" lon="4.7007">
        <ele>294</ele>
        <time>2025-12-11T13:22:25Z</time>
      </trkpt>
      <trkpt lat="45.72181" lon="4.70064">
        <ele>294.2</ele>
        <time>2025-12-11T13:22:26Z</time>
      </trkpt>
      <trkpt lat="45.72182" lon="4.70058">
        <ele>294.2</ele>
        <time>2025-12-11T13:22:27Z</time>
      </trkpt>
      <trkpt lat="45.72183" lon="4.70052">
        <ele>294.4</ele>
        <time>2025-12-11T13:22:28Z</time>
      </trkpt>
      <trkpt lat="45.72184" lon="4.70046">
        <ele>294.4</ele>
        <time>2025-12-11T13:22:29Z</time>
      </trkpt>
      <trkpt lat="45.72186" lon="4.7004">
        <ele>294.6</ele>
        <time>2025-12-11T13:22:30Z</time>
      </trkpt>
      <trkpt lat="45.72186" lon="4.70034">
        <ele>294.6</ele>
        <time>2025-12-11T13:22:31Z</time>
      </trkpt>
      <trkpt lat="45.72187" lon="4.70029">
        <ele>294.8</ele>
        <time>2025-12-11T13:22:32Z</time>
      </trkpt>
      <trkpt lat="45.72189" lon="4.70023">
        <ele>295</ele>
        <time>2025-12-11T13:22:33Z</time>
      </trkpt>
      <trkpt lat="45.7219" lon="4.70018">
        <ele>295</ele>
        <time>2025-12-11T13:22:34Z</time>
      </trkpt>
      <trkpt lat="45.72191" lon="4.70012">
        <ele>295.2</ele>
        <time>2025-12-11T13:22:35Z</time>
      </trkpt>
      <trkpt lat="45.72193" lon="4.70006">
        <ele>295.2</ele>
        <time>2025-12-11T13:22:36Z</time>
      </trkpt>
      <trkpt lat="45.72194" lon="4.70001">
        <ele>295.4</ele>
        <time>2025-12-11T13:22:37Z</time>
      </trkpt>
      <trkpt lat="45.72195" lon="4.69995">
        <ele>295.4</ele>
        <time>2025-12-11T13:22:38Z</time>
      </trkpt>
      <trkpt lat="45.72196" lon="4.69989">
        <ele>295.6</ele>
        <time>2025-12-11T13:22:39Z</time>
      </trkpt>
      <trkpt lat="45.72198" lon="4.69984">
        <ele>295.6</ele>
        <time>2025-12-11T13:22:40Z</time>
      </trkpt>
      <trkpt lat="45.72199" lon="4.69978">
        <ele>295.6</ele>
        <time>2025-12-11T13:22:41Z</time>
      </trkpt>
      <trkpt lat="45.72202" lon="4.69973">
        <ele>295.8</ele>
        <time>2025-12-11T13:22:42Z</time>
      </trkpt>
      <trkpt lat="45.72204" lon="4.69968">
        <ele>295.8</ele>
        <time>2025-12-11T13:22:43Z</time>
      </trkpt>
      <trkpt lat="45.72206" lon="4.69963">
        <ele>296</ele>
        <time>2025-12-11T13:22:44Z</time>
      </trkpt>
      <trkpt lat="45.72207" lon="4.69958">
        <ele>296.2</ele>
        <time>2025-12-11T13:22:45Z</time>
      </trkpt>
      <trkpt lat="45.72209" lon="4.69953">
        <ele>296.4</ele>
        <time>2025-12-11T13:22:46Z</time>
      </trkpt>
      <trkpt lat="45.7221" lon="4.69948">
        <ele>296.6</ele>
        <time>2025-12-11T13:22:47Z</time>
      </trkpt>
      <trkpt lat="45.72211" lon="4.69943">
        <ele>296.6</ele>
        <time>2025-12-11T13:22:48Z</time>
      </trkpt>
      <trkpt lat="45.72213" lon="4.69938">
        <ele>296.8</ele>
        <time>2025-12-11T13:22:49Z</time>
      </trkpt>
      <trkpt lat="45.72214" lon="4.69933">
        <ele>297.2</ele>
        <time>2025-12-11T13:22:50Z</time>
      </trkpt>
      <trkpt lat="45.72215" lon="4.69928">
        <ele>297.4</ele>
        <time>2025-12-11T13:22:51Z</time>
      </trkpt>
      <trkpt lat="45.72216" lon="4.69924">
        <ele>297.6</ele>
        <time>2025-12-11T13:22:52Z</time>
      </trkpt>
      <trkpt lat="45.72217" lon="4.6992">
        <ele>297.8</ele>
        <time>2025-12-11T13:22:53Z</time>
      </trkpt>
      <trkpt lat="45.72219" lon="4.69916">
        <ele>298</ele>
        <time>2025-12-11T13:22:54Z</time>
      </trkpt>
      <trkpt lat="45.7222" lon="4.69912">
        <ele>298.2</ele>
        <time>2025-12-11T13:22:55Z</time>
      </trkpt>
      <trkpt lat="45.72221" lon="4.69908">
        <ele>298.4</ele>
        <time>2025-12-11T13:22:56Z</time>
      </trkpt>
      <trkpt lat="45.72223" lon="4.69904">
        <ele>298.4</ele>
        <time>2025-12-11T13:22:57Z</time>
      </trkpt>
      <trkpt lat="45.72224" lon="4.699">
        <ele>298.6</ele>
        <time>2025-12-11T13:22:58Z</time>
      </trkpt>
      <trkpt lat="45.72225" lon="4.69897">
        <ele>298.8</ele>
        <time>2025-12-11T13:22:59Z</time>
      </trkpt>
      <trkpt lat="45.72226" lon="4.69894">
        <ele>299</ele>
        <time>2025-12-11T13:23:00Z</time>
      </trkpt>
      <trkpt lat="45.72227" lon="4.6989">
        <ele>299</ele>
        <time>2025-12-11T13:23:01Z</time>
      </trkpt>
      <trkpt lat="45.72228" lon="4.69887">
        <ele>299.2</ele>
        <time>2025-12-11T13:23:02Z</time>
      </trkpt>
      <trkpt lat="45.72229" lon="4.69883">
        <ele>299.4</ele>
        <time>2025-12-11T13:23:03Z</time>
      </trkpt>
      <trkpt lat="45.72229" lon="4.6988">
        <ele>299.6</ele>
        <time>2025-12-11T13:23:04Z</time>
      </trkpt>
      <trkpt lat="45.72228" lon="4.69877">
        <ele>299.6</ele>
        <time>2025-12-11T13:23:05Z</time>
      </trkpt>
      <trkpt lat="45.72227" lon="4.69874">
        <ele>299.8</ele>
        <time>2025-12-11T13:23:06Z</time>
      </trkpt>
      <trkpt lat="45.72226" lon="4.69872">
        <ele>299.8</ele>
        <time>2025-12-11T13:23:07Z</time>
      </trkpt>
      <trkpt lat="45.72224" lon="4.69869">
        <ele>300</ele>
        <time>2025-12-11T13:23:08Z</time>
      </trkpt>
      <trkpt lat="45.72222" lon="4.69866">
        <ele>300.2</ele>
        <time>2025-12-11T13:23:09Z</time>
      </trkpt>
      <trkpt lat="45.72221" lon="4.69863">
        <ele>300.2</ele>
        <time>2025-12-11T13:23:10Z</time>
      </trkpt>
      <trkpt lat="45.72219" lon="4.6986">
        <ele>300.6</ele>
        <time>2025-12-11T13:23:11Z</time>
      </trkpt>
      <trkpt lat="45.72218" lon="4.69858">
        <ele>300.8</ele>
        <time>2025-12-11T13:23:12Z</time>
      </trkpt>
      <trkpt lat="45.72216" lon="4.69856">
        <ele>301</ele>
        <time>2025-12-11T13:23:13Z</time>
      </trkpt>
      <trkpt lat="45.72216" lon="4.69853">
        <ele>301.2</ele>
        <time>2025-12-11T13:23:14Z</time>
      </trkpt>
      <trkpt lat="45.72215" lon="4.6985">
        <ele>301.4</ele>
        <time>2025-12-11T13:23:15Z</time>
      </trkpt>
      <trkpt lat="45.72216" lon="4.69846">
        <ele>301.6</ele>
        <time>2025-12-11T13:23:16Z</time>
      </trkpt>
      <trkpt lat="45.72217" lon="4.69842">
        <ele>301.8</ele>
        <time>2025-12-11T13:23:17Z</time>
      </trkpt>
      <trkpt lat="45.72218" lon="4.69837">
        <ele>301.8</ele>
        <time>2025-12-11T13:23:18Z</time>
      </trkpt>
      <trkpt lat="45.7222" lon="4.69832">
        <ele>301.8</ele>
        <time>2025-12-11T13:23:19Z</time>
      </trkpt>
      <trkpt lat="45.72221" lon="4.69827">
        <ele>301.8</ele>
        <time>2025-12-11T13:23:20Z</time>
      </trkpt>
      <trkpt lat="45.72222" lon="4.69822">
        <ele>302</ele>
        <time>2025-12-11T13:23:21Z</time>
      </trkpt>
      <trkpt lat="45.72222" lon="4.69817">
        <ele>302</ele>
        <time>2025-12-11T13:23:22Z</time>
      </trkpt>
      <trkpt lat="45.72221" lon="4.69811">
        <ele>302</ele>
        <time>2025-12-11T13:23:23Z</time>
      </trkpt>
      <trkpt lat="45.7222" lon="4.69806">
        <ele>302</ele>
        <time>2025-12-11T13:23:24Z</time>
      </trkpt>
      <trkpt lat="45.72218" lon="4.69801">
        <ele>302</ele>
        <time>2025-12-11T13:23:25Z</time>
      </trkpt>
      <trkpt lat="45.72216" lon="4.69796">
        <ele>302</ele>
        <time>2025-12-11T13:23:26Z</time>
      </trkpt>
      <trkpt lat="45.72214" lon="4.69792">
        <ele>302</ele>
        <time>2025-12-11T13:23:27Z</time>
      </trkpt>
      <trkpt lat="45.72211" lon="4.69787">
        <ele>302</ele>
        <time>2025-12-11T13:23:28Z</time>
      </trkpt>
      <trkpt lat="45.72208" lon="4.69783">
        <ele>302</ele>
        <time>2025-12-11T13:23:29Z</time>
      </trkpt>
      <trkpt lat="45.72205" lon="4.69779">
        <ele>302</ele>
        <time>2025-12-11T13:23:30Z</time>
      </trkpt>
      <trkpt lat="45.72203" lon="4.69774">
        <ele>302</ele>
        <time>2025-12-11T13:23:31Z</time>
      </trkpt>
      <trkpt lat="45.72201" lon="4.69769">
        <ele>302</ele>
        <time>2025-12-11T13:23:32Z</time>
      </trkpt>
      <trkpt lat="45.72198" lon="4.69764">
        <ele>302.2</ele>
        <time>2025-12-11T13:23:33Z</time>
      </trkpt>
      <trkpt lat="45.72196" lon="4.6976">
        <ele>302.2</ele>
        <time>2025-12-11T13:23:34Z</time>
      </trkpt>
      <trkpt lat="45.72194" lon="4.69756">
        <ele>302.2</ele>
        <time>2025-12-11T13:23:35Z</time>
      </trkpt>
      <trkpt lat="45.72192" lon="4.69751">
        <ele>302.4</ele>
        <time>2025-12-11T13:23:36Z</time>
      </trkpt>
      <trkpt lat="45.7219" lon="4.69747">
        <ele>302.6</ele>
        <time>2025-12-11T13:23:37Z</time>
      </trkpt>
      <trkpt lat="45.72188" lon="4.69744">
        <ele>302.6</ele>
        <time>2025-12-11T13:23:38Z</time>
      </trkpt>
      <trkpt lat="45.72187" lon="4.6974">
        <ele>302.8</ele>
        <time>2025-12-11T13:23:39Z</time>
      </trkpt>
      <trkpt lat="45.72186" lon="4.69736">
        <ele>303</ele>
        <time>2025-12-11T13:23:40Z</time>
      </trkpt>
      <trkpt lat="45.72184" lon="4.69733">
        <ele>303.2</ele>
        <time>2025-12-11T13:23:41Z</time>
      </trkpt>
      <trkpt lat="45.72183" lon="4.69729">
        <ele>303.4</ele>
        <time>2025-12-11T13:23:42Z</time>
      </trkpt>
      <trkpt lat="45.72181" lon="4.69725">
        <ele>303.6</ele>
        <time>2025-12-11T13:23:43Z</time>
      </trkpt>
      <trkpt lat="45.7218" lon="4.69721">
        <ele>303.8</ele>
        <time>2025-12-11T13:23:44Z</time>
      </trkpt>
      <trkpt lat="45.72178" lon="4.69718">
        <ele>304</ele>
        <time>2025-12-11T13:23:45Z</time>
      </trkpt>
      <trkpt lat="45.72177" lon="4.69715">
        <ele>304</ele>
        <time>2025-12-11T13:23:46Z</time>
      </trkpt>
      <trkpt lat="45.72176" lon="4.69712">
        <ele>304.2</ele>
        <time>2025-12-11T13:23:47Z</time>
      </trkpt>
      <trkpt lat="45.72175" lon="4.69709">
        <ele>304.4</ele>
        <time>2025-12-11T13:23:48Z</time>
      </trkpt>
      <trkpt lat="45.72173" lon="4.69707">
        <ele>304.6</ele>
        <time>2025-12-11T13:23:49Z</time>
      </trkpt>
      <trkpt lat="45.72172" lon="4.69704">
        <ele>304.8</ele>
        <time>2025-12-11T13:23:50Z</time>
      </trkpt>
      <trkpt lat="45.7217" lon="4.69701">
        <ele>305</ele>
        <time>2025-12-11T13:23:51Z</time>
      </trkpt>
      <trkpt lat="45.72168" lon="4.69698">
        <ele>305.4</ele>
        <time>2025-12-11T13:23:52Z</time>
      </trkpt>
      <trkpt lat="45.72167" lon="4.69695">
        <ele>305.6</ele>
        <time>2025-12-11T13:23:53Z</time>
      </trkpt>
      <trkpt lat="45.72165" lon="4.69692">
        <ele>305.8</ele>
        <time>2025-12-11T13:23:54Z</time>
      </trkpt>
      <trkpt lat="45.72164" lon="4.69689">
        <ele>306</ele>
        <time>2025-12-11T13:23:55Z</time>
      </trkpt>
      <trkpt lat="45.72163" lon="4.69685">
        <ele>306.2</ele>
        <time>2025-12-11T13:23:56Z</time>
      </trkpt>
      <trkpt lat="45.72162" lon="4.69682">
        <ele>306.4</ele>
        <time>2025-12-11T13:23:57Z</time>
      </trkpt>
      <trkpt lat="45.72161" lon="4.69679">
        <ele>306.4</ele>
        <time>2025-12-11T13:23:58Z</time>
      </trkpt>
      <trkpt lat="45.7216" lon="4.69676">
        <ele>306.6</ele>
        <time>2025-12-11T13:23:59Z</time>
      </trkpt>
      <trkpt lat="45.72159" lon="4.69673">
        <ele>306.8</ele>
        <time>2025-12-11T13:24:00Z</time>
      </trkpt>
      <trkpt lat="45.72157" lon="4.69671">
        <ele>307</ele>
        <time>2025-12-11T13:24:01Z</time>
      </trkpt>
      <trkpt lat="45.72156" lon="4.69668">
        <ele>307.2</ele>
        <time>2025-12-11T13:24:02Z</time>
      </trkpt>
      <trkpt lat="45.72155" lon="4.69666">
        <ele>307.4</ele>
        <time>2025-12-11T13:24:03Z</time>
      </trkpt>
      <trkpt lat="45.72153" lon="4.69663">
        <ele>307.6</ele>
        <time>2025-12-11T13:24:04Z</time>
      </trkpt>
      <trkpt lat="45.72152" lon="4.6966">
        <ele>307.8</ele>
        <time>2025-12-11T13:24:05Z</time>
      </trkpt>
      <trkpt lat="45.72151" lon="4.69658">
        <ele>308</ele>
        <time>2025-12-11T13:24:06Z</time>
      </trkpt>
      <trkpt lat="45.7215" lon="4.69655">
        <ele>308.2</ele>
        <time>2025-12-11T13:24:07Z</time>
      </trkpt>
      <trkpt lat="45.72149" lon="4.69652">
        <ele>308.4</ele>
        <time>2025-12-11T13:24:08Z</time>
      </trkpt>
      <trkpt lat="45.72149" lon="4.6965">
        <ele>308.6</ele>
        <time>2025-12-11T13:24:09Z</time>
      </trkpt>
      <trkpt lat="45.72148" lon="4.69647">
        <ele>308.8</ele>
        <time>2025-12-11T13:24:10Z</time>
      </trkpt>
      <trkpt lat="45.72147" lon="4.69645">
        <ele>309</ele>
        <time>2025-12-11T13:24:11Z</time>
      </trkpt>
      <trkpt lat="45.72146" lon="4.69642">
        <ele>309.2</ele>
        <time>2025-12-11T13:24:12Z</time>
      </trkpt>
      <trkpt lat="45.72144" lon="4.6964">
        <ele>309.4</ele>
        <time>2025-12-11T13:24:13Z</time>
      </trkpt>
      <trkpt lat="45.72143" lon="4.69637">
        <ele>309.6</ele>
        <time>2025-12-11T13:24:14Z</time>
      </trkpt>
      <trkpt lat="45.72141" lon="4.69635">
        <ele>309.8</ele>
        <time>2025-12-11T13:24:15Z</time>
      </trkpt>
      <trkpt lat="45.7214" lon="4.69633">
        <ele>310</ele>
        <time>2025-12-11T13:24:16Z</time>
      </trkpt>
      <trkpt lat="45.72139" lon="4.6963">
        <ele>310</ele>
        <time>2025-12-11T13:24:17Z</time>
      </trkpt>
      <trkpt lat="45.72138" lon="4.69627">
        <ele>310.2</ele>
        <time>2025-12-11T13:24:18Z</time>
      </trkpt>
      <trkpt lat="45.72136" lon="4.69625">
        <ele>310.4</ele>
        <time>2025-12-11T13:24:19Z</time>
      </trkpt>
      <trkpt lat="45.72135" lon="4.69622">
        <ele>310.6</ele>
        <time>2025-12-11T13:24:20Z</time>
      </trkpt>
      <trkpt lat="45.72134" lon="4.69619">
        <ele>310.8</ele>
        <time>2025-12-11T13:24:21Z</time>
      </trkpt>
      <trkpt lat="45.72133" lon="4.69616">
        <ele>310.8</ele>
        <time>2025-12-11T13:24:22Z</time>
      </trkpt>
      <trkpt lat="45.72132" lon="4.69613">
        <ele>311</ele>
        <time>2025-12-11T13:24:23Z</time>
      </trkpt>
      <trkpt lat="45.72132" lon="4.6961">
        <ele>311.2</ele>
        <time>2025-12-11T13:24:24Z</time>
      </trkpt>
      <trkpt lat="45.72131" lon="4.69607">
        <ele>311.4</ele>
        <time>2025-12-11T13:24:25Z</time>
      </trkpt>
      <trkpt lat="45.7213" lon="4.69604">
        <ele>311.6</ele>
        <time>2025-12-11T13:24:26Z</time>
      </trkpt>
      <trkpt lat="45.72129" lon="4.69602">
        <ele>311.8</ele>
        <time>2025-12-11T13:24:27Z</time>
      </trkpt>
      <trkpt lat="45.72128" lon="4.69599">
        <ele>312</ele>
        <time>2025-12-11T13:24:28Z</time>
      </trkpt>
      <trkpt lat="45.72126" lon="4.69597">
        <ele>312.2</ele>
        <time>2025-12-11T13:24:29Z</time>
      </trkpt>
      <trkpt lat="45.72125" lon="4.69594">
        <ele>312.4</ele>
        <time>2025-12-11T13:24:30Z</time>
      </trkpt>
      <trkpt lat="45.72124" lon="4.69592">
        <ele>312.6</ele>
        <time>2025-12-11T13:24:31Z</time>
      </trkpt>
      <trkpt lat="45.72123" lon="4.69589">
        <ele>312.8</ele>
        <time>2025-12-11T13:24:32Z</time>
      </trkpt>
      <trkpt lat="45.72123" lon="4.69587">
        <ele>313</ele>
        <time>2025-12-11T13:24:33Z</time>
      </trkpt>
      <trkpt lat="45.72122" lon="4.69584">
        <ele>313.2</ele>
        <time>2025-12-11T13:24:34Z</time>
      </trkpt>
      <trkpt lat="45.72121" lon="4.69582">
        <ele>313.4</ele>
        <time>2025-12-11T13:24:35Z</time>
      </trkpt>
      <trkpt lat="45.7212" lon="4.69579">
        <ele>313.6</ele>
        <time>2025-12-11T13:24:36Z</time>
      </trkpt>
      <trkpt lat="45.72119" lon="4.69576">
        <ele>313.8</ele>
        <time>2025-12-11T13:24:37Z</time>
      </trkpt>
      <trkpt lat="45.72118" lon="4.69574">
        <ele>314</ele>
        <time>2025-12-11T13:24:38Z</time>
      </trkpt>
      <trkpt lat="45.72117" lon="4.69572">
        <ele>314.2</ele>
        <time>2025-12-11T13:24:39Z</time>
      </trkpt>
      <trkpt lat="45.72116" lon="4.6957">
        <ele>314.4</ele>
        <time>2025-12-11T13:24:40Z</time>
      </trkpt>
      <trkpt lat="45.72115" lon="4.69568">
        <ele>314.6</ele>
        <time>2025-12-11T13:24:41Z</time>
      </trkpt>
      <trkpt lat="45.72114" lon="4.69566">
        <ele>314.8</ele>
        <time>2025-12-11T13:24:42Z</time>
      </trkpt>
      <trkpt lat="45.72113" lon="4.69564">
        <ele>315</ele>
        <time>2025-12-11T13:24:43Z</time>
      </trkpt>
      <trkpt lat="45.72112" lon="4.69562">
        <ele>315.2</ele>
        <time>2025-12-11T13:24:44Z</time>
      </trkpt>
      <trkpt lat="45.72111" lon="4.6956">
        <ele>315.4</ele>
        <time>2025-12-11T13:24:45Z</time>
      </trkpt>
      <trkpt lat="45.7211" lon="4.69557">
        <ele>315.6</ele>
        <time>2025-12-11T13:24:46Z</time>
      </trkpt>
      <trkpt lat="45.72108" lon="4.69555">
        <ele>315.8</ele>
        <time>2025-12-11T13:24:47Z</time>
      </trkpt>
      <trkpt lat="45.72107" lon="4.69553">
        <ele>316</ele>
        <time>2025-12-11T13:24:48Z</time>
      </trkpt>
      <trkpt lat="45.72106" lon="4.69551">
        <ele>316.2</ele>
        <time>2025-12-11T13:24:49Z</time>
      </trkpt>
      <trkpt lat="45.72105" lon="4.69549">
        <ele>316.4</ele>
        <time>2025-12-11T13:24:50Z</time>
      </trkpt>
      <trkpt lat="45.72103" lon="4.69547">
        <ele>316.6</ele>
        <time>2025-12-11T13:24:51Z</time>
      </trkpt>
      <trkpt lat="45.72101" lon="4.69545">
        <ele>316.8</ele>
        <time>2025-12-11T13:24:52Z</time>
      </trkpt>
      <trkpt lat="45.721" lon="4.69543">
        <ele>317</ele>
        <time>2025-12-11T13:24:53Z</time>
      </trkpt>
      <trkpt lat="45.72098" lon="4.69541">
        <ele>317.4</ele>
        <time>2025-12-11T13:24:54Z</time>
      </trkpt>
      <trkpt lat="45.72097" lon="4.69539">
        <ele>317.6</ele>
        <time>2025-12-11T13:24:55Z</time>
      </trkpt>
      <trkpt lat="45.72096" lon="4.69537">
        <ele>317.8</ele>
        <time>2025-12-11T13:24:56Z</time>
      </trkpt>
      <trkpt lat="45.72095" lon="4.69535">
        <ele>318</ele>
        <time>2025-12-11T13:24:57Z</time>
      </trkpt>
      <trkpt lat="45.72093" lon="4.69534">
        <ele>318</ele>
        <time>2025-12-11T13:24:58Z</time>
      </trkpt>
      <trkpt lat="45.72092" lon="4.69532">
        <ele>318.2</ele>
        <time>2025-12-11T13:24:59Z</time>
      </trkpt>
      <trkpt lat="45.72092" lon="4.6953">
        <ele>318.4</ele>
        <time>2025-12-11T13:25:00Z</time>
      </trkpt>
      <trkpt lat="45.72091" lon="4.69528">
        <ele>318.6</ele>
        <time>2025-12-11T13:25:01Z</time>
      </trkpt>
      <trkpt lat="45.72091" lon="4.69526">
        <ele>318.8</ele>
        <time>2025-12-11T13:25:02Z</time>
      </trkpt>
      <trkpt lat="45.7209" lon="4.69524">
        <ele>318.8</ele>
        <time>2025-12-11T13:25:03Z</time>
      </trkpt>
      <trkpt lat="45.72089" lon="4.69522">
        <ele>319</ele>
        <time>2025-12-11T13:25:04Z</time>
      </trkpt>
      <trkpt lat="45.72088" lon="4.6952">
        <ele>319.2</ele>
        <time>2025-12-11T13:25:05Z</time>
      </trkpt>
      <trkpt lat="45.72087" lon="4.69518">
        <ele>319.4</ele>
        <time>2025-12-11T13:25:06Z</time>
      </trkpt>
      <trkpt lat="45.72086" lon="4.69516">
        <ele>319.6</ele>
        <time>2025-12-11T13:25:07Z</time>
      </trkpt>
      <trkpt lat="45.72084" lon="4.69514">
        <ele>319.8</ele>
        <time>2025-12-11T13:25:08Z</time>
      </trkpt>
      <trkpt lat="45.72083" lon="4.69512">
        <ele>320</ele>
        <time>2025-12-11T13:25:09Z</time>
      </trkpt>
      <trkpt lat="45.72082" lon="4.6951">
        <ele>320.2</ele>
        <time>2025-12-11T13:25:10Z</time>
      </trkpt>
      <trkpt lat="45.72081" lon="4.69507">
        <ele>320.4</ele>
        <time>2025-12-11T13:25:11Z</time>
      </trkpt>
      <trkpt lat="45.72079" lon="4.69505">
        <ele>320.6</ele>
        <time>2025-12-11T13:25:12Z</time>
      </trkpt>
      <trkpt lat="45.72078" lon="4.69503">
        <ele>320.8</ele>
        <time>2025-12-11T13:25:13Z</time>
      </trkpt>
      <trkpt lat="45.72077" lon="4.69501">
        <ele>321</ele>
        <time>2025-12-11T13:25:14Z</time>
      </trkpt>
      <trkpt lat="45.72076" lon="4.69499">
        <ele>321.2</ele>
        <time>2025-12-11T13:25:15Z</time>
      </trkpt>
      <trkpt lat="45.72075" lon="4.69497">
        <ele>321.4</ele>
        <time>2025-12-11T13:25:16Z</time>
      </trkpt>
      <trkpt lat="45.72073" lon="4.69495">
        <ele>321.4</ele>
        <time>2025-12-11T13:25:17Z</time>
      </trkpt>
      <trkpt lat="45.72072" lon="4.69492">
        <ele>321.6</ele>
        <time>2025-12-11T13:25:18Z</time>
      </trkpt>
      <trkpt lat="45.72072" lon="4.6949">
        <ele>321.8</ele>
        <time>2025-12-11T13:25:19Z</time>
      </trkpt>
      <trkpt lat="45.72071" lon="4.69489">
        <ele>322</ele>
        <time>2025-12-11T13:25:20Z</time>
      </trkpt>
      <trkpt lat="45.72071" lon="4.69486">
        <ele>322.2</ele>
        <time>2025-12-11T13:25:21Z</time>
      </trkpt>
      <trkpt lat="45.7207" lon="4.69484">
        <ele>322.4</ele>
        <time>2025-12-11T13:25:22Z</time>
      </trkpt>
      <trkpt lat="45.7207" lon="4.69481">
        <ele>322.6</ele>
        <time>2025-12-11T13:25:23Z</time>
      </trkpt>
      <trkpt lat="45.72069" lon="4.69478">
        <ele>322.6</ele>
        <time>2025-12-11T13:25:24Z</time>
      </trkpt>
      <trkpt lat="45.72068" lon="4.69476">
        <ele>322.8</ele>
        <time>2025-12-11T13:25:25Z</time>
      </trkpt>
      <trkpt lat="45.72067" lon="4.69473">
        <ele>323</ele>
        <time>2025-12-11T13:25:26Z</time>
      </trkpt>
      <trkpt lat="45.72066" lon="4.69471">
        <ele>323</ele>
        <time>2025-12-11T13:25:27Z</time>
      </trkpt>
      <trkpt lat="45.72065" lon="4.69468">
        <ele>323.2</ele>
        <time>2025-12-11T13:25:28Z</time>
      </trkpt>
      <trkpt lat="45.72064" lon="4.69465">
        <ele>323.2</ele>
        <time>2025-12-11T13:25:29Z</time>
      </trkpt>
      <trkpt lat="45.72063" lon="4.69461">
        <ele>323.2</ele>
        <time>2025-12-11T13:25:30Z</time>
      </trkpt>
      <trkpt lat="45.72062" lon="4.69458">
        <ele>323.4</ele>
        <time>2025-12-11T13:25:31Z</time>
      </trkpt>
      <trkpt lat="45.72061" lon="4.69455">
        <ele>323.4</ele>
        <time>2025-12-11T13:25:32Z</time>
      </trkpt>
      <trkpt lat="45.7206" lon="4.69453">
        <ele>323.6</ele>
        <time>2025-12-11T13:25:33Z</time>
      </trkpt>
      <trkpt lat="45.72058" lon="4.6945">
        <ele>323.6</ele>
        <time>2025-12-11T13:25:34Z</time>
      </trkpt>
      <trkpt lat="45.72057" lon="4.69447">
        <ele>323.8</ele>
        <time>2025-12-11T13:25:35Z</time>
      </trkpt>
      <trkpt lat="45.72057" lon="4.69444">
        <ele>323.8</ele>
        <time>2025-12-11T13:25:36Z</time>
      </trkpt>
      <trkpt lat="45.72056" lon="4.69441">
        <ele>323.8</ele>
        <time>2025-12-11T13:25:37Z</time>
      </trkpt>
      <trkpt lat="45.72055" lon="4.69438">
        <ele>324</ele>
        <time>2025-12-11T13:25:38Z</time>
      </trkpt>
      <trkpt lat="45.72054" lon="4.69435">
        <ele>324</ele>
        <time>2025-12-11T13:25:39Z</time>
      </trkpt>
      <trkpt lat="45.72053" lon="4.69431">
        <ele>324.2</ele>
        <time>2025-12-11T13:25:40Z</time>
      </trkpt>
      <trkpt lat="45.72053" lon="4.69428">
        <ele>324.4</ele>
        <time>2025-12-11T13:25:41Z</time>
      </trkpt>
      <trkpt lat="45.72052" lon="4.69425">
        <ele>324.4</ele>
        <time>2025-12-11T13:25:42Z</time>
      </trkpt>
      <trkpt lat="45.72052" lon="4.69422">
        <ele>324.6</ele>
        <time>2025-12-11T13:25:43Z</time>
      </trkpt>
      <trkpt lat="45.72051" lon="4.69418">
        <ele>324.6</ele>
        <time>2025-12-11T13:25:44Z</time>
      </trkpt>
      <trkpt lat="45.72051" lon="4.69415">
        <ele>324.8</ele>
        <time>2025-12-11T13:25:45Z</time>
      </trkpt>
      <trkpt lat="45.7205" lon="4.69411">
        <ele>325</ele>
        <time>2025-12-11T13:25:46Z</time>
      </trkpt>
      <trkpt lat="45.7205" lon="4.69408">
        <ele>325</ele>
        <time>2025-12-11T13:25:47Z</time>
      </trkpt>
      <trkpt lat="45.7205" lon="4.69405">
        <ele>325.2</ele>
        <time>2025-12-11T13:25:48Z</time>
      </trkpt>
      <trkpt lat="45.7205" lon="4.69401">
        <ele>325.2</ele>
        <time>2025-12-11T13:25:49Z</time>
      </trkpt>
      <trkpt lat="45.72051" lon="4.69398">
        <ele>325.4</ele>
        <time>2025-12-11T13:25:50Z</time>
      </trkpt>
      <trkpt lat="45.72051" lon="4.69394">
        <ele>325.4</ele>
        <time>2025-12-11T13:25:51Z</time>
      </trkpt>
      <trkpt lat="45.72051" lon="4.6939">
        <ele>325.4</ele>
        <time>2025-12-11T13:25:52Z</time>
      </trkpt>
      <trkpt lat="45.72052" lon="4.69387">
        <ele>325.6</ele>
        <time>2025-12-11T13:25:53Z</time>
      </trkpt>
      <trkpt lat="45.72053" lon="4.69384">
        <ele>325.6</ele>
        <time>2025-12-11T13:25:54Z</time>
      </trkpt>
      <trkpt lat="45.72054" lon="4.69381">
        <ele>325.6</ele>
        <time>2025-12-11T13:25:55Z</time>
      </trkpt>
      <trkpt lat="45.72055" lon="4.69379">
        <ele>325.8</ele>
        <time>2025-12-11T13:25:56Z</time>
      </trkpt>
      <trkpt lat="45.72057" lon="4.69377">
        <ele>325.8</ele>
        <time>2025-12-11T13:25:57Z</time>
      </trkpt>
      <trkpt lat="45.72058" lon="4.69377">
        <ele>325.8</ele>
        <time>2025-12-11T13:25:58Z</time>
      </trkpt>
      <trkpt lat="45.7206" lon="4.69376">
        <ele>326</ele>
        <time>2025-12-11T13:25:59Z</time>
      </trkpt>
      <trkpt lat="45.72062" lon="4.69376">
        <ele>326</ele>
        <time>2025-12-11T13:26:00Z</time>
      </trkpt>
      <trkpt lat="45.72065" lon="4.69375">
        <ele>326</ele>
        <time>2025-12-11T13:26:01Z</time>
      </trkpt>
      <trkpt lat="45.72067" lon="4.69373">
        <ele>326</ele>
        <time>2025-12-11T13:26:02Z</time>
      </trkpt>
      <trkpt lat="45.72069" lon="4.6937">
        <ele>326.2</ele>
        <time>2025-12-11T13:26:03Z</time>
      </trkpt>
      <trkpt lat="45.7207" lon="4.69367">
        <ele>326.2</ele>
        <time>2025-12-11T13:26:04Z</time>
      </trkpt>
      <trkpt lat="45.72071" lon="4.69363">
        <ele>326.4</ele>
        <time>2025-12-11T13:26:05Z</time>
      </trkpt>
      <trkpt lat="45.72072" lon="4.69359">
        <ele>326.4</ele>
        <time>2025-12-11T13:26:06Z</time>
      </trkpt>
      <trkpt lat="45.72073" lon="4.69354">
        <ele>326.6</ele>
        <time>2025-12-11T13:26:07Z</time>
      </trkpt>
      <trkpt lat="45.72073" lon="4.69351">
        <ele>326.6</ele>
        <time>2025-12-11T13:26:08Z</time>
      </trkpt>
      <trkpt lat="45.72074" lon="4.69347">
        <ele>326.8</ele>
        <time>2025-12-11T13:26:09Z</time>
      </trkpt>
      <trkpt lat="45.72075" lon="4.69343">
        <ele>326.8</ele>
        <time>2025-12-11T13:26:10Z</time>
      </trkpt>
      <trkpt lat="45.72076" lon="4.69339">
        <ele>327</ele>
        <time>2025-12-11T13:26:11Z</time>
      </trkpt>
      <trkpt lat="45.72077" lon="4.69336">
        <ele>327.2</ele>
        <time>2025-12-11T13:26:12Z</time>
      </trkpt>
      <trkpt lat="45.72077" lon="4.69332">
        <ele>327.2</ele>
        <time>2025-12-11T13:26:13Z</time>
      </trkpt>
      <trkpt lat="45.72078" lon="4.69328">
        <ele>327.4</ele>
        <time>2025-12-11T13:26:14Z</time>
      </trkpt>
      <trkpt lat="45.72078" lon="4.69324">
        <ele>327.6</ele>
        <time>2025-12-11T13:26:15Z</time>
      </trkpt>
      <trkpt lat="45.72079" lon="4.69319">
        <ele>327.6</ele>
        <time>2025-12-11T13:26:16Z</time>
      </trkpt>
      <trkpt lat="45.72079" lon="4.69316">
        <ele>327.6</ele>
        <time>2025-12-11T13:26:17Z</time>
      </trkpt>
      <trkpt lat="45.7208" lon="4.69312">
        <ele>327.8</ele>
        <time>2025-12-11T13:26:18Z</time>
      </trkpt>
      <trkpt lat="45.72081" lon="4.69307">
        <ele>327.8</ele>
        <time>2025-12-11T13:26:19Z</time>
      </trkpt>
      <trkpt lat="45.72082" lon="4.69303">
        <ele>327.8</ele>
        <time>2025-12-11T13:26:20Z</time>
      </trkpt>
      <trkpt lat="45.72083" lon="4.693">
        <ele>328</ele>
        <time>2025-12-11T13:26:21Z</time>
      </trkpt>
      <trkpt lat="45.72085" lon="4.69296">
        <ele>328</ele>
        <time>2025-12-11T13:26:22Z</time>
      </trkpt>
      <trkpt lat="45.72087" lon="4.69293">
        <ele>328.2</ele>
        <time>2025-12-11T13:26:23Z</time>
      </trkpt>
      <trkpt lat="45.72089" lon="4.6929">
        <ele>328.2</ele>
        <time>2025-12-11T13:26:24Z</time>
      </trkpt>
      <trkpt lat="45.72092" lon="4.69288">
        <ele>328.2</ele>
        <time>2025-12-11T13:26:25Z</time>
      </trkpt>
      <trkpt lat="45.72094" lon="4.69285">
        <ele>328.2</ele>
        <time>2025-12-11T13:26:26Z</time>
      </trkpt>
      <trkpt lat="45.72097" lon="4.69282">
        <ele>328.2</ele>
        <time>2025-12-11T13:26:27Z</time>
      </trkpt>
      <trkpt lat="45.721" lon="4.6928">
        <ele>328.2</ele>
        <time>2025-12-11T13:26:28Z</time>
      </trkpt>
      <trkpt lat="45.72103" lon="4.69278">
        <ele>328.4</ele>
        <time>2025-12-11T13:26:29Z</time>
      </trkpt>
      <trkpt lat="45.72105" lon="4.69275">
        <ele>328.4</ele>
        <time>2025-12-11T13:26:30Z</time>
      </trkpt>
      <trkpt lat="45.72108" lon="4.69272">
        <ele>328.4</ele>
        <time>2025-12-11T13:26:31Z</time>
      </trkpt>
      <trkpt lat="45.7211" lon="4.69269">
        <ele>328.4</ele>
        <time>2025-12-11T13:26:32Z</time>
      </trkpt>
      <trkpt lat="45.72112" lon="4.69265">
        <ele>328.6</ele>
        <time>2025-12-11T13:26:33Z</time>
      </trkpt>
      <trkpt lat="45.72113" lon="4.6926">
        <ele>328.6</ele>
        <time>2025-12-11T13:26:34Z</time>
      </trkpt>
      <trkpt lat="45.72114" lon="4.69255">
        <ele>328.8</ele>
        <time>2025-12-11T13:26:35Z</time>
      </trkpt>
      <trkpt lat="45.72115" lon="4.69251">
        <ele>328.8</ele>
        <time>2025-12-11T13:26:36Z</time>
      </trkpt>
      <trkpt lat="45.72115" lon="4.69246">
        <ele>328.8</ele>
        <time>2025-12-11T13:26:37Z</time>
      </trkpt>
      <trkpt lat="45.72116" lon="4.69241">
        <ele>329</ele>
        <time>2025-12-11T13:26:38Z</time>
      </trkpt>
      <trkpt lat="45.72116" lon="4.69236">
        <ele>329</ele>
        <time>2025-12-11T13:26:39Z</time>
      </trkpt>
      <trkpt lat="45.72116" lon="4.69231">
        <ele>329.2</ele>
        <time>2025-12-11T13:26:40Z</time>
      </trkpt>
      <trkpt lat="45.72117" lon="4.69226">
        <ele>329.2</ele>
        <time>2025-12-11T13:26:41Z</time>
      </trkpt>
      <trkpt lat="45.72117" lon="4.69221">
        <ele>329.2</ele>
        <time>2025-12-11T13:26:42Z</time>
      </trkpt>
      <trkpt lat="45.72118" lon="4.69216">
        <ele>329.4</ele>
        <time>2025-12-11T13:26:43Z</time>
      </trkpt>
      <trkpt lat="45.72118" lon="4.69212">
        <ele>329.4</ele>
        <time>2025-12-11T13:26:44Z</time>
      </trkpt>
      <trkpt lat="45.72119" lon="4.69207">
        <ele>329.6</ele>
        <time>2025-12-11T13:26:45Z</time>
      </trkpt>
      <trkpt lat="45.72119" lon="4.69202">
        <ele>329.6</ele>
        <time>2025-12-11T13:26:46Z</time>
      </trkpt>
      <trkpt lat="45.72119" lon="4.69197">
        <ele>329.8</ele>
        <time>2025-12-11T13:26:47Z</time>
      </trkpt>
      <trkpt lat="45.72119" lon="4.69193">
        <ele>329.8</ele>
        <time>2025-12-11T13:26:48Z</time>
      </trkpt>
      <trkpt lat="45.72119" lon="4.69188">
        <ele>330</ele>
        <time>2025-12-11T13:26:49Z</time>
      </trkpt>
      <trkpt lat="45.7212" lon="4.69184">
        <ele>330</ele>
        <time>2025-12-11T13:26:50Z</time>
      </trkpt>
      <trkpt lat="45.7212" lon="4.69179">
        <ele>330.2</ele>
        <time>2025-12-11T13:26:51Z</time>
      </trkpt>
      <trkpt lat="45.7212" lon="4.69174">
        <ele>330.2</ele>
        <time>2025-12-11T13:26:52Z</time>
      </trkpt>
      <trkpt lat="45.72121" lon="4.6917">
        <ele>330.2</ele>
        <time>2025-12-11T13:26:53Z</time>
      </trkpt>
      <trkpt lat="45.72121" lon="4.69165">
        <ele>330.4</ele>
        <time>2025-12-11T13:26:54Z</time>
      </trkpt>
      <trkpt lat="45.72122" lon="4.69161">
        <ele>330.6</ele>
        <time>2025-12-11T13:26:55Z</time>
      </trkpt>
      <trkpt lat="45.72122" lon="4.69156">
        <ele>330.6</ele>
        <time>2025-12-11T13:26:56Z</time>
      </trkpt>
      <trkpt lat="45.72123" lon="4.69152">
        <ele>330.8</ele>
        <time>2025-12-11T13:26:57Z</time>
      </trkpt>
      <trkpt lat="45.72123" lon="4.69148">
        <ele>330.8</ele>
        <time>2025-12-11T13:26:58Z</time>
      </trkpt>
      <trkpt lat="45.72123" lon="4.69144">
        <ele>331</ele>
        <time>2025-12-11T13:26:59Z</time>
      </trkpt>
      <trkpt lat="45.72123" lon="4.6914">
        <ele>331.2</ele>
        <time>2025-12-11T13:27:00Z</time>
      </trkpt>
      <trkpt lat="45.72123" lon="4.69136">
        <ele>331.2</ele>
        <time>2025-12-11T13:27:01Z</time>
      </trkpt>
      <trkpt lat="45.72124" lon="4.69132">
        <ele>331.4</ele>
        <time>2025-12-11T13:27:02Z</time>
      </trkpt>
      <trkpt lat="45.72124" lon="4.69128">
        <ele>331.6</ele>
        <time>2025-12-11T13:27:03Z</time>
      </trkpt>
      <trkpt lat="45.72125" lon="4.69124">
        <ele>331.8</ele>
        <time>2025-12-11T13:27:04Z</time>
      </trkpt>
      <trkpt lat="45.72125" lon="4.6912">
        <ele>331.8</ele>
        <time>2025-12-11T13:27:05Z</time>
      </trkpt>
      <trkpt lat="45.72126" lon="4.69116">
        <ele>332</ele>
        <time>2025-12-11T13:27:06Z</time>
      </trkpt>
      <trkpt lat="45.72126" lon="4.69112">
        <ele>332</ele>
        <time>2025-12-11T13:27:07Z</time>
      </trkpt>
      <trkpt lat="45.72126" lon="4.69107">
        <ele>332.2</ele>
        <time>2025-12-11T13:27:08Z</time>
      </trkpt>
      <trkpt lat="45.72126" lon="4.69103">
        <ele>332.2</ele>
        <time>2025-12-11T13:27:09Z</time>
      </trkpt>
      <trkpt lat="45.72127" lon="4.69098">
        <ele>332.4</ele>
        <time>2025-12-11T13:27:10Z</time>
      </trkpt>
      <trkpt lat="45.72127" lon="4.69094">
        <ele>332.4</ele>
        <time>2025-12-11T13:27:11Z</time>
      </trkpt>
      <trkpt lat="45.72128" lon="4.6909">
        <ele>332.4</ele>
        <time>2025-12-11T13:27:12Z</time>
      </trkpt>
      <trkpt lat="45.72128" lon="4.69086">
        <ele>332.6</ele>
        <time>2025-12-11T13:27:13Z</time>
      </trkpt>
      <trkpt lat="45.72128" lon="4.69081">
        <ele>332.6</ele>
        <time>2025-12-11T13:27:14Z</time>
      </trkpt>
      <trkpt lat="45.72128" lon="4.69077">
        <ele>332.8</ele>
        <time>2025-12-11T13:27:15Z</time>
      </trkpt>
      <trkpt lat="45.72129" lon="4.69073">
        <ele>332.8</ele>
        <time>2025-12-11T13:27:16Z</time>
      </trkpt>
      <trkpt lat="45.7213" lon="4.69068">
        <ele>332.8</ele>
        <time>2025-12-11T13:27:17Z</time>
      </trkpt>
      <trkpt lat="45.7213" lon="4.69064">
        <ele>333</ele>
        <time>2025-12-11T13:27:18Z</time>
      </trkpt>
      <trkpt lat="45.7213" lon="4.6906">
        <ele>333</ele>
        <time>2025-12-11T13:27:19Z</time>
      </trkpt>
      <trkpt lat="45.72131" lon="4.69056">
        <ele>333.2</ele>
        <time>2025-12-11T13:27:20Z</time>
      </trkpt>
      <trkpt lat="45.72131" lon="4.69052">
        <ele>333.4</ele>
        <time>2025-12-11T13:27:21Z</time>
      </trkpt>
      <trkpt lat="45.72131" lon="4.69048">
        <ele>333.4</ele>
        <time>2025-12-11T13:27:22Z</time>
      </trkpt>
      <trkpt lat="45.7213" lon="4.69044">
        <ele>333.6</ele>
        <time>2025-12-11T13:27:23Z</time>
      </trkpt>
      <trkpt lat="45.7213" lon="4.69041">
        <ele>333.8</ele>
        <time>2025-12-11T13:27:24Z</time>
      </trkpt>
      <trkpt lat="45.72129" lon="4.69037">
        <ele>334</ele>
        <time>2025-12-11T13:27:25Z</time>
      </trkpt>
      <trkpt lat="45.72128" lon="4.69034">
        <ele>334</ele>
        <time>2025-12-11T13:27:26Z</time>
      </trkpt>
      <trkpt lat="45.72126" lon="4.69031">
        <ele>334.2</ele>
        <time>2025-12-11T13:27:27Z</time>
      </trkpt>
      <trkpt lat="45.72123" lon="4.69029">
        <ele>334.2</ele>
        <time>2025-12-11T13:27:28Z</time>
      </trkpt>
      <trkpt lat="45.72121" lon="4.69026">
        <ele>334.4</ele>
        <time>2025-12-11T13:27:29Z</time>
      </trkpt>
      <trkpt lat="45.72118" lon="4.69024">
        <ele>334.4</ele>
        <time>2025-12-11T13:27:30Z</time>
      </trkpt>
      <trkpt lat="45.72115" lon="4.69022">
        <ele>334.4</ele>
        <time>2025-12-11T13:27:31Z</time>
      </trkpt>
      <trkpt lat="45.72112" lon="4.69019">
        <ele>334.4</ele>
        <time>2025-12-11T13:27:32Z</time>
      </trkpt>
      <trkpt lat="45.72109" lon="4.69018">
        <ele>334.4</ele>
        <time>2025-12-11T13:27:33Z</time>
      </trkpt>
      <trkpt lat="45.72106" lon="4.69016">
        <ele>334.4</ele>
        <time>2025-12-11T13:27:34Z</time>
      </trkpt>
      <trkpt lat="45.72103" lon="4.69014">
        <ele>334.6</ele>
        <time>2025-12-11T13:27:35Z</time>
      </trkpt>
      <trkpt lat="45.721" lon="4.69011">
        <ele>334.6</ele>
        <time>2025-12-11T13:27:36Z</time>
      </trkpt>
      <trkpt lat="45.72097" lon="4.69009">
        <ele>334.6</ele>
        <time>2025-12-11T13:27:37Z</time>
      </trkpt>
      <trkpt lat="45.72094" lon="4.69007">
        <ele>334.8</ele>
        <time>2025-12-11T13:27:38Z</time>
      </trkpt>
      <trkpt lat="45.72092" lon="4.69005">
        <ele>334.8</ele>
        <time>2025-12-11T13:27:39Z</time>
      </trkpt>
      <trkpt lat="45.72089" lon="4.69002">
        <ele>335</ele>
        <time>2025-12-11T13:27:40Z</time>
      </trkpt>
      <trkpt lat="45.72087" lon="4.68999">
        <ele>335</ele>
        <time>2025-12-11T13:27:41Z</time>
      </trkpt>
      <trkpt lat="45.72086" lon="4.68995">
        <ele>335.2</ele>
        <time>2025-12-11T13:27:42Z</time>
      </trkpt>
      <trkpt lat="45.72085" lon="4.68991">
        <ele>335.2</ele>
        <time>2025-12-11T13:27:43Z</time>
      </trkpt>
      <trkpt lat="45.72085" lon="4.68987">
        <ele>335.2</ele>
        <time>2025-12-11T13:27:44Z</time>
      </trkpt>
      <trkpt lat="45.72086" lon="4.68983">
        <ele>335.4</ele>
        <time>2025-12-11T13:27:45Z</time>
      </trkpt>
      <trkpt lat="45.72087" lon="4.68979">
        <ele>335.4</ele>
        <time>2025-12-11T13:27:46Z</time>
      </trkpt>
      <trkpt lat="45.72088" lon="4.68976">
        <ele>335.6</ele>
        <time>2025-12-11T13:27:47Z</time>
      </trkpt>
      <trkpt lat="45.7209" lon="4.68972">
        <ele>335.8</ele>
        <time>2025-12-11T13:27:48Z</time>
      </trkpt>
      <trkpt lat="45.72091" lon="4.68968">
        <ele>335.8</ele>
        <time>2025-12-11T13:27:49Z</time>
      </trkpt>
      <trkpt lat="45.72093" lon="4.68965">
        <ele>336</ele>
        <time>2025-12-11T13:27:50Z</time>
      </trkpt>
      <trkpt lat="45.72095" lon="4.68961">
        <ele>336</ele>
        <time>2025-12-11T13:27:51Z</time>
      </trkpt>
      <trkpt lat="45.72096" lon="4.68957">
        <ele>336.2</ele>
        <time>2025-12-11T13:27:52Z</time>
      </trkpt>
      <trkpt lat="45.72098" lon="4.68953">
        <ele>336.2</ele>
        <time>2025-12-11T13:27:53Z</time>
      </trkpt>
      <trkpt lat="45.721" lon="4.6895">
        <ele>336.2</ele>
        <time>2025-12-11T13:27:54Z</time>
      </trkpt>
      <trkpt lat="45.72102" lon="4.68946">
        <ele>336.4</ele>
        <time>2025-12-11T13:27:55Z</time>
      </trkpt>
      <trkpt lat="45.72103" lon="4.68942">
        <ele>336.4</ele>
        <time>2025-12-11T13:27:56Z</time>
      </trkpt>
      <trkpt lat="45.72105" lon="4.68938">
        <ele>336.4</ele>
        <time>2025-12-11T13:27:57Z</time>
      </trkpt>
      <trkpt lat="45.72106" lon="4.68934">
        <ele>336.4</ele>
        <time>2025-12-11T13:27:58Z</time>
      </trkpt>
      <trkpt lat="45.72107" lon="4.6893">
        <ele>336.4</ele>
        <time>2025-12-11T13:27:59Z</time>
      </trkpt>
      <trkpt lat="45.72109" lon="4.68926">
        <ele>336.6</ele>
        <time>2025-12-11T13:28:00Z</time>
      </trkpt>
      <trkpt lat="45.7211" lon="4.68922">
        <ele>336.6</ele>
        <time>2025-12-11T13:28:01Z</time>
      </trkpt>
      <trkpt lat="45.72112" lon="4.68918">
        <ele>336.8</ele>
        <time>2025-12-11T13:28:02Z</time>
      </trkpt>
      <trkpt lat="45.72114" lon="4.68914">
        <ele>337</ele>
        <time>2025-12-11T13:28:03Z</time>
      </trkpt>
      <trkpt lat="45.72115" lon="4.68909">
        <ele>337</ele>
        <time>2025-12-11T13:28:04Z</time>
      </trkpt>
      <trkpt lat="45.72117" lon="4.68905">
        <ele>337.2</ele>
        <time>2025-12-11T13:28:05Z</time>
      </trkpt>
      <trkpt lat="45.72118" lon="4.68901">
        <ele>337.2</ele>
        <time>2025-12-11T13:28:06Z</time>
      </trkpt>
      <trkpt lat="45.7212" lon="4.68898">
        <ele>337.4</ele>
        <time>2025-12-11T13:28:07Z</time>
      </trkpt>
      <trkpt lat="45.72121" lon="4.68894">
        <ele>337.4</ele>
        <time>2025-12-11T13:28:08Z</time>
      </trkpt>
      <trkpt lat="45.72123" lon="4.6889">
        <ele>337.4</ele>
        <time>2025-12-11T13:28:09Z</time>
      </trkpt>
      <trkpt lat="45.72125" lon="4.68886">
        <ele>337.6</ele>
        <time>2025-12-11T13:28:10Z</time>
      </trkpt>
      <trkpt lat="45.72126" lon="4.68882">
        <ele>337.6</ele>
        <time>2025-12-11T13:28:11Z</time>
      </trkpt>
      <trkpt lat="45.72128" lon="4.68878">
        <ele>337.8</ele>
        <time>2025-12-11T13:28:12Z</time>
      </trkpt>
      <trkpt lat="45.7213" lon="4.68874">
        <ele>337.8</ele>
        <time>2025-12-11T13:28:13Z</time>
      </trkpt>
      <trkpt lat="45.72132" lon="4.6887">
        <ele>337.8</ele>
        <time>2025-12-11T13:28:14Z</time>
      </trkpt>
      <trkpt lat="45.72134" lon="4.68865">
        <ele>338</ele>
        <time>2025-12-11T13:28:15Z</time>
      </trkpt>
      <trkpt lat="45.72136" lon="4.68861">
        <ele>338</ele>
        <time>2025-12-11T13:28:16Z</time>
      </trkpt>
      <trkpt lat="45.72138" lon="4.68857">
        <ele>338</ele>
        <time>2025-12-11T13:28:17Z</time>
      </trkpt>
      <trkpt lat="45.7214" lon="4.68853">
        <ele>338</ele>
        <time>2025-12-11T13:28:18Z</time>
      </trkpt>
      <trkpt lat="45.72142" lon="4.68849">
        <ele>338.2</ele>
        <time>2025-12-11T13:28:19Z</time>
      </trkpt>
      <trkpt lat="45.72143" lon="4.68845">
        <ele>338.2</ele>
        <time>2025-12-11T13:28:20Z</time>
      </trkpt>
      <trkpt lat="45.72145" lon="4.68841">
        <ele>338.2</ele>
        <time>2025-12-11T13:28:21Z</time>
      </trkpt>
      <trkpt lat="45.72146" lon="4.68837">
        <ele>338.2</ele>
        <time>2025-12-11T13:28:22Z</time>
      </trkpt>
      <trkpt lat="45.72148" lon="4.68834">
        <ele>338.2</ele>
        <time>2025-12-11T13:28:23Z</time>
      </trkpt>
      <trkpt lat="45.7215" lon="4.68829">
        <ele>338.2</ele>
        <time>2025-12-11T13:28:24Z</time>
      </trkpt>
      <trkpt lat="45.72152" lon="4.68825">
        <ele>338</ele>
        <time>2025-12-11T13:28:25Z</time>
      </trkpt>
      <trkpt lat="45.72153" lon="4.6882">
        <ele>338</ele>
        <time>2025-12-11T13:28:26Z</time>
      </trkpt>
      <trkpt lat="45.72154" lon="4.68814">
        <ele>338</ele>
        <time>2025-12-11T13:28:27Z</time>
      </trkpt>
      <trkpt lat="45.72156" lon="4.68809">
        <ele>337.8</ele>
        <time>2025-12-11T13:28:28Z</time>
      </trkpt>
      <trkpt lat="45.72157" lon="4.68803">
        <ele>337.6</ele>
        <time>2025-12-11T13:28:29Z</time>
      </trkpt>
      <trkpt lat="45.72158" lon="4.68798">
        <ele>337.6</ele>
        <time>2025-12-11T13:28:30Z</time>
      </trkpt>
      <trkpt lat="45.72159" lon="4.68793">
        <ele>337.4</ele>
        <time>2025-12-11T13:28:31Z</time>
      </trkpt>
      <trkpt lat="45.7216" lon="4.68789">
        <ele>337.4</ele>
        <time>2025-12-11T13:28:32Z</time>
      </trkpt>
      <trkpt lat="45.72161" lon="4.68785">
        <ele>337.2</ele>
        <time>2025-12-11T13:28:33Z</time>
      </trkpt>
      <trkpt lat="45.72162" lon="4.68781">
        <ele>337.2</ele>
        <time>2025-12-11T13:28:34Z</time>
      </trkpt>
      <trkpt lat="45.72163" lon="4.68776">
        <ele>337.2</ele>
        <time>2025-12-11T13:28:35Z</time>
      </trkpt>
      <trkpt lat="45.72164" lon="4.68771">
        <ele>337.2</ele>
        <time>2025-12-11T13:28:36Z</time>
      </trkpt>
      <trkpt lat="45.72165" lon="4.68766">
        <ele>337.2</ele>
        <time>2025-12-11T13:28:37Z</time>
      </trkpt>
      <trkpt lat="45.72166" lon="4.68761">
        <ele>337</ele>
        <time>2025-12-11T13:28:38Z</time>
      </trkpt>
      <trkpt lat="45.72168" lon="4.68756">
        <ele>337</ele>
        <time>2025-12-11T13:28:39Z</time>
      </trkpt>
      <trkpt lat="45.7217" lon="4.6875">
        <ele>336.8</ele>
        <time>2025-12-11T13:28:40Z</time>
      </trkpt>
      <trkpt lat="45.72172" lon="4.68744">
        <ele>336.8</ele>
        <time>2025-12-11T13:28:41Z</time>
      </trkpt>
      <trkpt lat="45.72174" lon="4.68738">
        <ele>336.6</ele>
        <time>2025-12-11T13:28:42Z</time>
      </trkpt>
      <trkpt lat="45.72176" lon="4.68733">
        <ele>336.4</ele>
        <time>2025-12-11T13:28:43Z</time>
      </trkpt>
      <trkpt lat="45.72179" lon="4.68727">
        <ele>336.2</ele>
        <time>2025-12-11T13:28:44Z</time>
      </trkpt>
      <trkpt lat="45.72181" lon="4.6872">
        <ele>335.8</ele>
        <time>2025-12-11T13:28:45Z</time>
      </trkpt>
      <trkpt lat="45.72183" lon="4.68714">
        <ele>335.6</ele>
        <time>2025-12-11T13:28:46Z</time>
      </trkpt>
      <trkpt lat="45.72186" lon="4.68708">
        <ele>335.4</ele>
        <time>2025-12-11T13:28:47Z</time>
      </trkpt>
      <trkpt lat="45.72188" lon="4.68702">
        <ele>335.4</ele>
        <time>2025-12-11T13:28:48Z</time>
      </trkpt>
      <trkpt lat="45.72191" lon="4.68695">
        <ele>335.2</ele>
        <time>2025-12-11T13:28:49Z</time>
      </trkpt>
      <trkpt lat="45.72193" lon="4.68689">
        <ele>335.2</ele>
        <time>2025-12-11T13:28:50Z</time>
      </trkpt>
      <trkpt lat="45.72196" lon="4.68683">
        <ele>335</ele>
        <time>2025-12-11T13:28:51Z</time>
      </trkpt>
      <trkpt lat="45.72198" lon="4.68676">
        <ele>334.8</ele>
        <time>2025-12-11T13:28:52Z</time>
      </trkpt>
      <trkpt lat="45.72201" lon="4.6867">
        <ele>334.8</ele>
        <time>2025-12-11T13:28:53Z</time>
      </trkpt>
      <trkpt lat="45.72203" lon="4.68664">
        <ele>334.6</ele>
        <time>2025-12-11T13:28:54Z</time>
      </trkpt>
      <trkpt lat="45.72205" lon="4.68657">
        <ele>334.6</ele>
        <time>2025-12-11T13:28:55Z</time>
      </trkpt>
      <trkpt lat="45.72207" lon="4.68651">
        <ele>334.4</ele>
        <time>2025-12-11T13:28:56Z</time>
      </trkpt>
      <trkpt lat="45.72209" lon="4.68644">
        <ele>334.4</ele>
        <time>2025-12-11T13:28:57Z</time>
      </trkpt>
      <trkpt lat="45.72211" lon="4.68638">
        <ele>334.4</ele>
        <time>2025-12-11T13:28:58Z</time>
      </trkpt>
      <trkpt lat="45.72213" lon="4.68632">
        <ele>334.2</ele>
        <time>2025-12-11T13:28:59Z</time>
      </trkpt>
      <trkpt lat="45.72215" lon="4.68627">
        <ele>334.2</ele>
        <time>2025-12-11T13:29:00Z</time>
      </trkpt>
      <trkpt lat="45.72217" lon="4.68621">
        <ele>334.2</ele>
        <time>2025-12-11T13:29:01Z</time>
      </trkpt>
      <trkpt lat="45.72219" lon="4.68615">
        <ele>334.2</ele>
        <time>2025-12-11T13:29:02Z</time>
      </trkpt>
      <trkpt lat="45.72221" lon="4.6861">
        <ele>334.2</ele>
        <time>2025-12-11T13:29:03Z</time>
      </trkpt>
      <trkpt lat="45.72224" lon="4.68605">
        <ele>334.2</ele>
        <time>2025-12-11T13:29:04Z</time>
      </trkpt>
      <trkpt lat="45.72226" lon="4.686">
        <ele>334.2</ele>
        <time>2025-12-11T13:29:05Z</time>
      </trkpt>
      <trkpt lat="45.72228" lon="4.68595">
        <ele>334</ele>
        <time>2025-12-11T13:29:06Z</time>
      </trkpt>
      <trkpt lat="45.72231" lon="4.68589">
        <ele>334</ele>
        <time>2025-12-11T13:29:07Z</time>
      </trkpt>
      <trkpt lat="45.72233" lon="4.68583">
        <ele>334</ele>
        <time>2025-12-11T13:29:08Z</time>
      </trkpt>
      <trkpt lat="45.72235" lon="4.68577">
        <ele>334</ele>
        <time>2025-12-11T13:29:09Z</time>
      </trkpt>
      <trkpt lat="45.72237" lon="4.68571">
        <ele>333.8</ele>
        <time>2025-12-11T13:29:10Z</time>
      </trkpt>
      <trkpt lat="45.7224" lon="4.68565">
        <ele>333.8</ele>
        <time>2025-12-11T13:29:11Z</time>
      </trkpt>
      <trkpt lat="45.72242" lon="4.68559">
        <ele>333.8</ele>
        <time>2025-12-11T13:29:12Z</time>
      </trkpt>
      <trkpt lat="45.72245" lon="4.68552">
        <ele>333.6</ele>
        <time>2025-12-11T13:29:13Z</time>
      </trkpt>
      <trkpt lat="45.72247" lon="4.68545">
        <ele>333.4</ele>
        <time>2025-12-11T13:29:14Z</time>
      </trkpt>
      <trkpt lat="45.72249" lon="4.68538">
        <ele>333.4</ele>
        <time>2025-12-11T13:29:15Z</time>
      </trkpt>
      <trkpt lat="45.72251" lon="4.68531">
        <ele>333.2</ele>
        <time>2025-12-11T13:29:16Z</time>
      </trkpt>
      <trkpt lat="45.72253" lon="4.68524">
        <ele>333.2</ele>
        <time>2025-12-11T13:29:17Z</time>
      </trkpt>
      <trkpt lat="45.72253" lon="4.68517">
        <ele>333.2</ele>
        <time>2025-12-11T13:29:18Z</time>
      </trkpt>
      <trkpt lat="45.72254" lon="4.6851">
        <ele>333</ele>
        <time>2025-12-11T13:29:19Z</time>
      </trkpt>
      <trkpt lat="45.72254" lon="4.68503">
        <ele>333</ele>
        <time>2025-12-11T13:29:20Z</time>
      </trkpt>
      <trkpt lat="45.72255" lon="4.68496">
        <ele>333</ele>
        <time>2025-12-11T13:29:21Z</time>
      </trkpt>
      <trkpt lat="45.72255" lon="4.6849">
        <ele>333</ele>
        <time>2025-12-11T13:29:22Z</time>
      </trkpt>
      <trkpt lat="45.72256" lon="4.68483">
        <ele>332.8</ele>
        <time>2025-12-11T13:29:23Z</time>
      </trkpt>
      <trkpt lat="45.72257" lon="4.68475">
        <ele>332.8</ele>
        <time>2025-12-11T13:29:24Z</time>
      </trkpt>
      <trkpt lat="45.72259" lon="4.68468">
        <ele>332.6</ele>
        <time>2025-12-11T13:29:25Z</time>
      </trkpt>
      <trkpt lat="45.7226" lon="4.6846">
        <ele>332.4</ele>
        <time>2025-12-11T13:29:26Z</time>
      </trkpt>
      <trkpt lat="45.72262" lon="4.68452">
        <ele>332</ele>
        <time>2025-12-11T13:29:27Z</time>
      </trkpt>
      <trkpt lat="45.72265" lon="4.68444">
        <ele>331.6</ele>
        <time>2025-12-11T13:29:28Z</time>
      </trkpt>
      <trkpt lat="45.72267" lon="4.68436">
        <ele>331.2</ele>
        <time>2025-12-11T13:29:29Z</time>
      </trkpt>
      <trkpt lat="45.72269" lon="4.68427">
        <ele>330.8</ele>
        <time>2025-12-11T13:29:30Z</time>
      </trkpt>
      <trkpt lat="45.72271" lon="4.68418">
        <ele>330.4</ele>
        <time>2025-12-11T13:29:31Z</time>
      </trkpt>
      <trkpt lat="45.72274" lon="4.68409">
        <ele>330</ele>
        <time>2025-12-11T13:29:32Z</time>
      </trkpt>
      <trkpt lat="45.72276" lon="4.684">
        <ele>329.4</ele>
        <time>2025-12-11T13:29:33Z</time>
      </trkpt>
      <trkpt lat="45.72279" lon="4.68391">
        <ele>329</ele>
        <time>2025-12-11T13:29:34Z</time>
      </trkpt>
      <trkpt lat="45.72281" lon="4.68381">
        <ele>328.6</ele>
        <time>2025-12-11T13:29:35Z</time>
      </trkpt>
      <trkpt lat="45.72284" lon="4.6837">
        <ele>328</ele>
        <time>2025-12-11T13:29:36Z</time>
      </trkpt>
      <trkpt lat="45.72287" lon="4.6836">
        <ele>327.6</ele>
        <time>2025-12-11T13:29:37Z</time>
      </trkpt>
      <trkpt lat="45.72289" lon="4.6835">
        <ele>327.2</ele>
        <time>2025-12-11T13:29:38Z</time>
      </trkpt>
      <trkpt lat="45.72291" lon="4.68339">
        <ele>326.8</ele>
        <time>2025-12-11T13:29:39Z</time>
      </trkpt>
      <trkpt lat="45.72293" lon="4.68328">
        <ele>326.4</ele>
        <time>2025-12-11T13:29:40Z</time>
      </trkpt>
      <trkpt lat="45.72296" lon="4.68318">
        <ele>326.2</ele>
        <time>2025-12-11T13:29:41Z</time>
      </trkpt>
      <trkpt lat="45.72298" lon="4.68307">
        <ele>325.8</ele>
        <time>2025-12-11T13:29:42Z</time>
      </trkpt>
      <trkpt lat="45.72301" lon="4.68297">
        <ele>325.2</ele>
        <time>2025-12-11T13:29:43Z</time>
      </trkpt>
      <trkpt lat="45.72304" lon="4.68285">
        <ele>324.6</ele>
        <time>2025-12-11T13:29:44Z</time>
      </trkpt>
      <trkpt lat="45.72307" lon="4.68273">
        <ele>323.6</ele>
        <time>2025-12-11T13:29:45Z</time>
      </trkpt>
      <trkpt lat="45.7231" lon="4.68261">
        <ele>322.6</ele>
        <time>2025-12-11T13:29:46Z</time>
      </trkpt>
      <trkpt lat="45.72313" lon="4.68249">
        <ele>321.6</ele>
        <time>2025-12-11T13:29:47Z</time>
      </trkpt>
      <trkpt lat="45.72317" lon="4.68236">
        <ele>320.6</ele>
        <time>2025-12-11T13:29:48Z</time>
      </trkpt>
      <trkpt lat="45.7232" lon="4.68223">
        <ele>320</ele>
        <time>2025-12-11T13:29:49Z</time>
      </trkpt>
      <trkpt lat="45.72323" lon="4.6821">
        <ele>319.4</ele>
        <time>2025-12-11T13:29:50Z</time>
      </trkpt>
      <trkpt lat="45.72326" lon="4.68197">
        <ele>318.8</ele>
        <time>2025-12-11T13:29:51Z</time>
      </trkpt>
      <trkpt lat="45.72328" lon="4.68185">
        <ele>318.4</ele>
        <time>2025-12-11T13:29:52Z</time>
      </trkpt>
      <trkpt lat="45.72331" lon="4.68174">
        <ele>318.2</ele>
        <time>2025-12-11T13:29:53Z</time>
      </trkpt>
      <trkpt lat="45.72333" lon="4.68162">
        <ele>318.2</ele>
        <time>2025-12-11T13:29:54Z</time>
      </trkpt>
      <trkpt lat="45.72336" lon="4.68151">
        <ele>318.2</ele>
        <time>2025-12-11T13:29:55Z</time>
      </trkpt>
      <trkpt lat="45.72338" lon="4.68141">
        <ele>318.4</ele>
        <time>2025-12-11T13:29:56Z</time>
      </trkpt>
      <trkpt lat="45.7234" lon="4.6813">
        <ele>318.4</ele>
        <time>2025-12-11T13:29:57Z</time>
      </trkpt>
      <trkpt lat="45.72341" lon="4.6812">
        <ele>318.6</ele>
        <time>2025-12-11T13:29:58Z</time>
      </trkpt>
      <trkpt lat="45.72343" lon="4.68111">
        <ele>318.6</ele>
        <time>2025-12-11T13:29:59Z</time>
      </trkpt>
      <trkpt lat="45.72344" lon="4.68101">
        <ele>318.8</ele>
        <time>2025-12-11T13:30:00Z</time>
      </trkpt>
      <trkpt lat="45.72345" lon="4.68092">
        <ele>319</ele>
        <time>2025-12-11T13:30:01Z</time>
      </trkpt>
      <trkpt lat="45.72346" lon="4.68083">
        <ele>319.2</ele>
        <time>2025-12-11T13:30:02Z</time>
      </trkpt>
      <trkpt lat="45.72347" lon="4.68074">
        <ele>319.2</ele>
        <time>2025-12-11T13:30:03Z</time>
      </trkpt>
      <trkpt lat="45.72348" lon="4.68066">
        <ele>319.4</ele>
        <time>2025-12-11T13:30:04Z</time>
      </trkpt>
      <trkpt lat="45.72349" lon="4.68058">
        <ele>319.6</ele>
        <time>2025-12-11T13:30:05Z</time>
      </trkpt>
      <trkpt lat="45.7235" lon="4.68049">
        <ele>319.6</ele>
        <time>2025-12-11T13:30:06Z</time>
      </trkpt>
      <trkpt lat="45.72351" lon="4.68041">
        <ele>319.8</ele>
        <time>2025-12-11T13:30:07Z</time>
      </trkpt>
      <trkpt lat="45.72352" lon="4.68033">
        <ele>319.8</ele>
        <time>2025-12-11T13:30:08Z</time>
      </trkpt>
      <trkpt lat="45.72354" lon="4.68026">
        <ele>320</ele>
        <time>2025-12-11T13:30:09Z</time>
      </trkpt>
      <trkpt lat="45.72355" lon="4.68018">
        <ele>320</ele>
        <time>2025-12-11T13:30:10Z</time>
      </trkpt>
      <trkpt lat="45.72357" lon="4.68009">
        <ele>320</ele>
        <time>2025-12-11T13:30:11Z</time>
      </trkpt>
      <trkpt lat="45.72359" lon="4.68001">
        <ele>320.2</ele>
        <time>2025-12-11T13:30:12Z</time>
      </trkpt>
      <trkpt lat="45.7236" lon="4.67993">
        <ele>320.2</ele>
        <time>2025-12-11T13:30:13Z</time>
      </trkpt>
      <trkpt lat="45.72363" lon="4.67986">
        <ele>320.2</ele>
        <time>2025-12-11T13:30:14Z</time>
      </trkpt>
      <trkpt lat="45.72365" lon="4.67978">
        <ele>320.2</ele>
        <time>2025-12-11T13:30:15Z</time>
      </trkpt>
      <trkpt lat="45.72368" lon="4.67972">
        <ele>320.4</ele>
        <time>2025-12-11T13:30:16Z</time>
      </trkpt>
      <trkpt lat="45.7237" lon="4.67965">
        <ele>320.6</ele>
        <time>2025-12-11T13:30:17Z</time>
      </trkpt>
      <trkpt lat="45.72373" lon="4.67959">
        <ele>320.8</ele>
        <time>2025-12-11T13:30:18Z</time>
      </trkpt>
      <trkpt lat="45.72375" lon="4.67952">
        <ele>321</ele>
        <time>2025-12-11T13:30:19Z</time>
      </trkpt>
      <trkpt lat="45.72378" lon="4.67945">
        <ele>321</ele>
        <time>2025-12-11T13:30:20Z</time>
      </trkpt>
      <trkpt lat="45.72381" lon="4.67939">
        <ele>321</ele>
        <time>2025-12-11T13:30:21Z</time>
      </trkpt>
      <trkpt lat="45.72384" lon="4.67932">
        <ele>321</ele>
        <time>2025-12-11T13:30:22Z</time>
      </trkpt>
      <trkpt lat="45.72387" lon="4.67925">
        <ele>320.8</ele>
        <time>2025-12-11T13:30:23Z</time>
      </trkpt>
      <trkpt lat="45.7239" lon="4.67918">
        <ele>320.6</ele>
        <time>2025-12-11T13:30:24Z</time>
      </trkpt>
      <trkpt lat="45.72393" lon="4.67911">
        <ele>320.6</ele>
        <time>2025-12-11T13:30:25Z</time>
      </trkpt>
      <trkpt lat="45.72396" lon="4.67904">
        <ele>320.4</ele>
        <time>2025-12-11T13:30:26Z</time>
      </trkpt>
      <trkpt lat="45.72398" lon="4.67897">
        <ele>320.4</ele>
        <time>2025-12-11T13:30:27Z</time>
      </trkpt>
      <trkpt lat="45.724" lon="4.6789">
        <ele>320.4</ele>
        <time>2025-12-11T13:30:28Z</time>
      </trkpt>
      <trkpt lat="45.72402" lon="4.67883">
        <ele>320.4</ele>
        <time>2025-12-11T13:30:29Z</time>
      </trkpt>
      <trkpt lat="45.72404" lon="4.67876">
        <ele>320.4</ele>
        <time>2025-12-11T13:30:30Z</time>
      </trkpt>
      <trkpt lat="45.72405" lon="4.67869">
        <ele>320.2</ele>
        <time>2025-12-11T13:30:31Z</time>
      </trkpt>
      <trkpt lat="45.72407" lon="4.67862">
        <ele>320.2</ele>
        <time>2025-12-11T13:30:32Z</time>
      </trkpt>
      <trkpt lat="45.72408" lon="4.67854">
        <ele>320</ele>
        <time>2025-12-11T13:30:33Z</time>
      </trkpt>
      <trkpt lat="45.72409" lon="4.67847">
        <ele>320</ele>
        <time>2025-12-11T13:30:34Z</time>
      </trkpt>
      <trkpt lat="45.7241" lon="4.67838">
        <ele>319.8</ele>
        <time>2025-12-11T13:30:35Z</time>
      </trkpt>
      <trkpt lat="45.72411" lon="4.6783">
        <ele>319.4</ele>
        <time>2025-12-11T13:30:36Z</time>
      </trkpt>
      <trkpt lat="45.72411" lon="4.6782">
        <ele>319</ele>
        <time>2025-12-11T13:30:37Z</time>
      </trkpt>
      <trkpt lat="45.72412" lon="4.67812">
        <ele>318.6</ele>
        <time>2025-12-11T13:30:38Z</time>
      </trkpt>
      <trkpt lat="45.72412" lon="4.67803">
        <ele>318.2</ele>
        <time>2025-12-11T13:30:39Z</time>
      </trkpt>
      <trkpt lat="45.72413" lon="4.67797">
        <ele>318.2</ele>
        <time>2025-12-11T13:30:40Z</time>
      </trkpt>
      <trkpt lat="45.72414" lon="4.67791">
        <ele>318.2</ele>
        <time>2025-12-11T13:30:41Z</time>
      </trkpt>
      <trkpt lat="45.72415" lon="4.67786">
        <ele>318.2</ele>
        <time>2025-12-11T13:30:42Z</time>
      </trkpt>
      <trkpt lat="45.72416" lon="4.67781">
        <ele>318</ele>
        <time>2025-12-11T13:30:43Z</time>
      </trkpt>
      <trkpt lat="45.72417" lon="4.67775">
        <ele>317.8</ele>
        <time>2025-12-11T13:30:44Z</time>
      </trkpt>
      <trkpt lat="45.72419" lon="4.67767">
        <ele>317.2</ele>
        <time>2025-12-11T13:30:45Z</time>
      </trkpt>
      <trkpt lat="45.72421" lon="4.67759">
        <ele>316.4</ele>
        <time>2025-12-11T13:30:46Z</time>
      </trkpt>
      <trkpt lat="45.72424" lon="4.67753">
        <ele>315.6</ele>
        <time>2025-12-11T13:30:47Z</time>
      </trkpt>
      <trkpt lat="45.72427" lon="4.67747">
        <ele>314.8</ele>
        <time>2025-12-11T13:30:48Z</time>
      </trkpt>
      <trkpt lat="45.7243" lon="4.6774">
        <ele>313.8</ele>
        <time>2025-12-11T13:30:49Z</time>
      </trkpt>
      <trkpt lat="45.72431" lon="4.67733">
        <ele>313.2</ele>
        <time>2025-12-11T13:30:50Z</time>
      </trkpt>
      <trkpt lat="45.72432" lon="4.67726">
        <ele>312.4</ele>
        <time>2025-12-11T13:30:51Z</time>
      </trkpt>
      <trkpt lat="45.72432" lon="4.67719">
        <ele>311.8</ele>
        <time>2025-12-11T13:30:52Z</time>
      </trkpt>
      <trkpt lat="45.72431" lon="4.67714">
        <ele>311.2</ele>
        <time>2025-12-11T13:30:53Z</time>
      </trkpt>
      <trkpt lat="45.7243" lon="4.6771">
        <ele>310.4</ele>
        <time>2025-12-11T13:30:54Z</time>
      </trkpt>
      <trkpt lat="45.72429" lon="4.67704">
        <ele>309.6</ele>
        <time>2025-12-11T13:30:55Z</time>
      </trkpt>
      <trkpt lat="45.72429" lon="4.677">
        <ele>309</ele>
        <time>2025-12-11T13:30:56Z</time>
      </trkpt>
      <trkpt lat="45.72429" lon="4.67696">
        <ele>308.2</ele>
        <time>2025-12-11T13:30:57Z</time>
      </trkpt>
      <trkpt lat="45.72429" lon="4.67695">
        <ele>307.8</ele>
        <time>2025-12-11T13:30:58Z</time>
      </trkpt>
      <trkpt lat="45.72431" lon="4.67695">
        <ele>307.2</ele>
        <time>2025-12-11T13:30:59Z</time>
      </trkpt>
      <trkpt lat="45.72433" lon="4.67695">
        <ele>306.6</ele>
        <time>2025-12-11T13:31:00Z</time>
      </trkpt>
      <trkpt lat="45.72436" lon="4.67697">
        <ele>306</ele>
        <time>2025-12-11T13:31:01Z</time>
      </trkpt>
      <trkpt lat="45.72439" lon="4.67699">
        <ele>305.4</ele>
        <time>2025-12-11T13:31:02Z</time>
      </trkpt>
      <trkpt lat="45.72442" lon="4.67701">
        <ele>304.8</ele>
        <time>2025-12-11T13:31:03Z</time>
      </trkpt>
      <trkpt lat="45.72445" lon="4.67702">
        <ele>304</ele>
        <time>2025-12-11T13:31:04Z</time>
      </trkpt>
      <trkpt lat="45.72448" lon="4.67703">
        <ele>303.6</ele>
        <time>2025-12-11T13:31:05Z</time>
      </trkpt>
      <trkpt lat="45.72451" lon="4.67704">
        <ele>303</ele>
        <time>2025-12-11T13:31:06Z</time>
      </trkpt>
      <trkpt lat="45.72454" lon="4.67707">
        <ele>302.4</ele>
        <time>2025-12-11T13:31:07Z</time>
      </trkpt>
      <trkpt lat="45.72458" lon="4.6771">
        <ele>301.6</ele>
        <time>2025-12-11T13:31:08Z</time>
      </trkpt>
      <trkpt lat="45.72462" lon="4.67713">
        <ele>301</ele>
        <time>2025-12-11T13:31:09Z</time>
      </trkpt>
      <trkpt lat="45.72467" lon="4.67716">
        <ele>300.4</ele>
        <time>2025-12-11T13:31:10Z</time>
      </trkpt>
      <trkpt lat="45.72471" lon="4.67721">
        <ele>299.8</ele>
        <time>2025-12-11T13:31:11Z</time>
      </trkpt>
      <trkpt lat="45.72474" lon="4.67725">
        <ele>299.2</ele>
        <time>2025-12-11T13:31:12Z</time>
      </trkpt>
      <trkpt lat="45.72477" lon="4.67729">
        <ele>299</ele>
        <time>2025-12-11T13:31:13Z</time>
      </trkpt>
      <trkpt lat="45.72479" lon="4.67731">
        <ele>298.6</ele>
        <time>2025-12-11T13:31:14Z</time>
      </trkpt>
      <trkpt lat="45.72481" lon="4.67732">
        <ele>298.4</ele>
        <time>2025-12-11T13:31:15Z</time>
      </trkpt>
      <trkpt lat="45.72484" lon="4.67734">
        <ele>298.2</ele>
        <time>2025-12-11T13:31:16Z</time>
      </trkpt>
      <trkpt lat="45.72485" lon="4.67735">
        <ele>298.2</ele>
        <time>2025-12-11T13:31:17Z</time>
      </trkpt>
      <trkpt lat="45.72485" lon="4.67735">
        <ele>298</ele>
        <time>2025-12-11T13:31:18Z</time>
      </trkpt>
      <trkpt lat="45.72487" lon="4.67734">
        <ele>298</ele>
        <time>2025-12-11T13:31:19Z</time>
      </trkpt>
      <trkpt lat="45.72487" lon="4.67731">
        <ele>298</ele>
        <time>2025-12-11T13:31:20Z</time>
      </trkpt>
      <trkpt lat="45.72488" lon="4.67729">
        <ele>298.2</ele>
        <time>2025-12-11T13:31:21Z</time>
      </trkpt>
      <trkpt lat="45.7249" lon="4.67727">
        <ele>298.2</ele>
        <time>2025-12-11T13:31:22Z</time>
      </trkpt>
      <trkpt lat="45.72491" lon="4.67726">
        <ele>298.2</ele>
        <time>2025-12-11T13:31:23Z</time>
      </trkpt>
      <trkpt lat="45.72493" lon="4.67723">
        <ele>298.4</ele>
        <time>2025-12-11T13:31:24Z</time>
      </trkpt>
      <trkpt lat="45.72494" lon="4.6772">
        <ele>298.4</ele>
        <time>2025-12-11T13:31:25Z</time>
      </trkpt>
      <trkpt lat="45.72496" lon="4.67717">
        <ele>298.4</ele>
        <time>2025-12-11T13:31:26Z</time>
      </trkpt>
      <trkpt lat="45.72498" lon="4.67713">
        <ele>298.4</ele>
        <time>2025-12-11T13:31:27Z</time>
      </trkpt>
      <trkpt lat="45.725" lon="4.6771">
        <ele>298.6</ele>
        <time>2025-12-11T13:31:28Z</time>
      </trkpt>
      <trkpt lat="45.72502" lon="4.67706">
        <ele>298.6</ele>
        <time>2025-12-11T13:31:29Z</time>
      </trkpt>
      <trkpt lat="45.72504" lon="4.67702">
        <ele>298.8</ele>
        <time>2025-12-11T13:31:30Z</time>
      </trkpt>
      <trkpt lat="45.72506" lon="4.67698">
        <ele>298.8</ele>
        <time>2025-12-11T13:31:31Z</time>
      </trkpt>
      <trkpt lat="45.72508" lon="4.67694">
        <ele>299</ele>
        <time>2025-12-11T13:31:32Z</time>
      </trkpt>
      <trkpt lat="45.7251" lon="4.67691">
        <ele>299</ele>
        <time>2025-12-11T13:31:33Z</time>
      </trkpt>
      <trkpt lat="45.72511" lon="4.67687">
        <ele>299.2</ele>
        <time>2025-12-11T13:31:34Z</time>
      </trkpt>
      <trkpt lat="45.72511" lon="4.67684">
        <ele>299.2</ele>
        <time>2025-12-11T13:31:35Z</time>
      </trkpt>
      <trkpt lat="45.72513" lon="4.6768">
        <ele>299.4</ele>
        <time>2025-12-11T13:31:36Z</time>
      </trkpt>
      <trkpt lat="45.72515" lon="4.67678">
        <ele>299.4</ele>
        <time>2025-12-11T13:31:37Z</time>
      </trkpt>
      <trkpt lat="45.72516" lon="4.67675">
        <ele>299.6</ele>
        <time>2025-12-11T13:31:38Z</time>
      </trkpt>
      <trkpt lat="45.72518" lon="4.67673">
        <ele>299.6</ele>
        <time>2025-12-11T13:31:39Z</time>
      </trkpt>
      <trkpt lat="45.72519" lon="4.67671">
        <ele>299.6</ele>
        <time>2025-12-11T13:31:40Z</time>
      </trkpt>
      <trkpt lat="45.72521" lon="4.67669">
        <ele>299.6</ele>
        <time>2025-12-11T13:31:41Z</time>
      </trkpt>
      <trkpt lat="45.72522" lon="4.67668">
        <ele>299.6</ele>
        <time>2025-12-11T13:31:42Z</time>
      </trkpt>
      <trkpt lat="45.72523" lon="4.67667">
        <ele>299.6</ele>
        <time>2025-12-11T13:31:43Z</time>
      </trkpt>
      <trkpt lat="45.72523" lon="4.67667">
        <ele>299.6</ele>
        <time>2025-12-11T13:31:44Z</time>
      </trkpt>
      <trkpt lat="45.72524" lon="4.67667">
        <ele>299.6</ele>
        <time>2025-12-11T13:31:45Z</time>
      </trkpt>
      <trkpt lat="45.72524" lon="4.67667">
        <ele>299.6</ele>
        <time>2025-12-11T13:31:46Z</time>
      </trkpt>
      <trkpt lat="45.72524" lon="4.67667">
        <ele>299.6</ele>
        <time>2025-12-11T13:31:47Z</time>
      </trkpt>
      <trkpt lat="45.72524" lon="4.67667">
        <ele>299.6</ele>
        <time>2025-12-11T13:31:48Z</time>
      </trkpt>
      <trkpt lat="45.72526" lon="4.67668">
        <ele>299.6</ele>
        <time>2025-12-11T13:31:49Z</time>
      </trkpt>
      <trkpt lat="45.72528" lon="4.67668">
        <ele>299.6</ele>
        <time>2025-12-11T13:31:50Z</time>
      </trkpt>
      <trkpt lat="45.7253" lon="4.67668">
        <ele>299.4</ele>
        <time>2025-12-11T13:31:51Z</time>
      </trkpt>
      <trkpt lat="45.72532" lon="4.67666">
        <ele>299.4</ele>
        <time>2025-12-11T13:31:52Z</time>
      </trkpt>
      <trkpt lat="45.72533" lon="4.67664">
        <ele>299.4</ele>
        <time>2025-12-11T13:31:53Z</time>
      </trkpt>
      <trkpt lat="45.72534" lon="4.67661">
        <ele>299.6</ele>
        <time>2025-12-11T13:31:54Z</time>
      </trkpt>
      <trkpt lat="45.72535" lon="4.67658">
        <ele>299.6</ele>
        <time>2025-12-11T13:31:55Z</time>
      </trkpt>
      <trkpt lat="45.72537" lon="4.67655">
        <ele>299.6</ele>
        <time>2025-12-11T13:31:56Z</time>
      </trkpt>
      <trkpt lat="45.72538" lon="4.67653">
        <ele>299.8</ele>
        <time>2025-12-11T13:31:57Z</time>
      </trkpt>
      <trkpt lat="45.72539" lon="4.67651">
        <ele>299.8</ele>
        <time>2025-12-11T13:31:58Z</time>
      </trkpt>
      <trkpt lat="45.7254" lon="4.67648">
        <ele>300</ele>
        <time>2025-12-11T13:31:59Z</time>
      </trkpt>
      <trkpt lat="45.72541" lon="4.67646">
        <ele>300</ele>
        <time>2025-12-11T13:32:00Z</time>
      </trkpt>
      <trkpt lat="45.72543" lon="4.67644">
        <ele>300.2</ele>
        <time>2025-12-11T13:32:01Z</time>
      </trkpt>
      <trkpt lat="45.72544" lon="4.67643">
        <ele>300.4</ele>
        <time>2025-12-11T13:32:02Z</time>
      </trkpt>
      <trkpt lat="45.72545" lon="4.67641">
        <ele>300.6</ele>
        <time>2025-12-11T13:32:03Z</time>
      </trkpt>
      <trkpt lat="45.72546" lon="4.6764">
        <ele>300.8</ele>
        <time>2025-12-11T13:32:04Z</time>
      </trkpt>
      <trkpt lat="45.72548" lon="4.67638">
        <ele>301</ele>
        <time>2025-12-11T13:32:05Z</time>
      </trkpt>
      <trkpt lat="45.7255" lon="4.67636">
        <ele>301.2</ele>
        <time>2025-12-11T13:32:06Z</time>
      </trkpt>
      <trkpt lat="45.72551" lon="4.67635">
        <ele>301.4</ele>
        <time>2025-12-11T13:32:07Z</time>
      </trkpt>
      <trkpt lat="45.72553" lon="4.67634">
        <ele>301.6</ele>
        <time>2025-12-11T13:32:08Z</time>
      </trkpt>
      <trkpt lat="45.72554" lon="4.67632">
        <ele>301.8</ele>
        <time>2025-12-11T13:32:09Z</time>
      </trkpt>
      <trkpt lat="45.72555" lon="4.67631">
        <ele>301.8</ele>
        <time>2025-12-11T13:32:10Z</time>
      </trkpt>
      <trkpt lat="45.72557" lon="4.6763">
        <ele>302.2</ele>
        <time>2025-12-11T13:32:11Z</time>
      </trkpt>
      <trkpt lat="45.72557" lon="4.6763">
        <ele>302.4</ele>
        <time>2025-12-11T13:32:12Z</time>
      </trkpt>
      <trkpt lat="45.72558" lon="4.6763">
        <ele>302.6</ele>
        <time>2025-12-11T13:32:13Z</time>
      </trkpt>
      <trkpt lat="45.72559" lon="4.67629">
        <ele>302.8</ele>
        <time>2025-12-11T13:32:14Z</time>
      </trkpt>
      <trkpt lat="45.7256" lon="4.67629">
        <ele>303</ele>
        <time>2025-12-11T13:32:15Z</time>
      </trkpt>
      <trkpt lat="45.7256" lon="4.67629">
        <ele>303</ele>
        <time>2025-12-11T13:32:16Z</time>
      </trkpt>
      <trkpt lat="45.7256" lon="4.67629">
        <ele>303.2</ele>
        <time>2025-12-11T13:32:17Z</time>
      </trkpt>
      <trkpt lat="45.7256" lon="4.67629">
        <ele>303.2</ele>
        <time>2025-12-11T13:32:18Z</time>
      </trkpt>
      <trkpt lat="45.72561" lon="4.67629">
        <ele>303.4</ele>
        <time>2025-12-11T13:32:19Z</time>
      </trkpt>
      <trkpt lat="45.72561" lon="4.67629">
        <ele>303.4</ele>
        <time>2025-12-11T13:32:20Z</time>
      </trkpt>
      <trkpt lat="45.72561" lon="4.67629">
        <ele>303.6</ele>
        <time>2025-12-11T13:32:21Z</time>
      </trkpt>
      <trkpt lat="45.72561" lon="4.67629">
        <ele>303.6</ele>
        <time>2025-12-11T13:32:22Z</time>
      </trkpt>
      <trkpt lat="45.72561" lon="4.67629">
        <ele>303.6</ele>
        <time>2025-12-11T13:32:23Z</time>
      </trkpt>
      <trkpt lat="45.72561" lon="4.67629">
        <ele>303.6</ele>
        <time>2025-12-11T13:32:24Z</time>
      </trkpt>
      <trkpt lat="45.72561" lon="4.67629">
        <ele>303.6</ele>
        <time>2025-12-11T13:32:25Z</time>
      </trkpt>
      <trkpt lat="45.72561" lon="4.67629">
        <ele>303.4</ele>
        <time>2025-12-11T13:32:26Z</time>
      </trkpt>
      <trkpt lat="45.72561" lon="4.67627">
        <ele>303.4</ele>
        <time>2025-12-11T13:32:27Z</time>
      </trkpt>
      <trkpt lat="45.72562" lon="4.67626">
        <ele>303.4</ele>
        <time>2025-12-11T13:32:28Z</time>
      </trkpt>
      <trkpt lat="45.72563" lon="4.67624">
        <ele>303.4</ele>
        <time>2025-12-11T13:32:29Z</time>
      </trkpt>
      <trkpt lat="45.72565" lon="4.67623">
        <ele>303.6</ele>
        <time>2025-12-11T13:32:30Z</time>
      </trkpt>
      <trkpt lat="45.72565" lon="4.67622">
        <ele>303.8</ele>
        <time>2025-12-11T13:32:31Z</time>
      </trkpt>
      <trkpt lat="45.72566" lon="4.6762">
        <ele>304</ele>
        <time>2025-12-11T13:32:32Z</time>
      </trkpt>
      <trkpt lat="45.72566" lon="4.67618">
        <ele>304</ele>
        <time>2025-12-11T13:32:33Z</time>
      </trkpt>
      <trkpt lat="45.72567" lon="4.67617">
        <ele>304.2</ele>
        <time>2025-12-11T13:32:34Z</time>
      </trkpt>
      <trkpt lat="45.72568" lon="4.67615">
        <ele>304.4</ele>
        <time>2025-12-11T13:32:35Z</time>
      </trkpt>
      <trkpt lat="45.72569" lon="4.67614">
        <ele>304.6</ele>
        <time>2025-12-11T13:32:36Z</time>
      </trkpt>
      <trkpt lat="45.7257" lon="4.67613">
        <ele>304.6</ele>
        <time>2025-12-11T13:32:37Z</time>
      </trkpt>
      <trkpt lat="45.72571" lon="4.67613">
        <ele>304.8</ele>
        <time>2025-12-11T13:32:38Z</time>
      </trkpt>
      <trkpt lat="45.72571" lon="4.67611">
        <ele>305</ele>
        <time>2025-12-11T13:32:39Z</time>
      </trkpt>
      <trkpt lat="45.72573" lon="4.6761">
        <ele>305.2</ele>
        <time>2025-12-11T13:32:40Z</time>
      </trkpt>
      <trkpt lat="45.72574" lon="4.67609">
        <ele>305.4</ele>
        <time>2025-12-11T13:32:41Z</time>
      </trkpt>
      <trkpt lat="45.72575" lon="4.67607">
        <ele>305.4</ele>
        <time>2025-12-11T13:32:42Z</time>
      </trkpt>
      <trkpt lat="45.72577" lon="4.67606">
        <ele>305.6</ele>
        <time>2025-12-11T13:32:43Z</time>
      </trkpt>
      <trkpt lat="45.72578" lon="4.67605">
        <ele>305.8</ele>
        <time>2025-12-11T13:32:44Z</time>
      </trkpt>
      <trkpt lat="45.7258" lon="4.67603">
        <ele>305.8</ele>
        <time>2025-12-11T13:32:45Z</time>
      </trkpt>
      <trkpt lat="45.7258" lon="4.67603">
        <ele>306</ele>
        <time>2025-12-11T13:32:46Z</time>
      </trkpt>
      <trkpt lat="45.72581" lon="4.67603">
        <ele>306.2</ele>
        <time>2025-12-11T13:32:47Z</time>
      </trkpt>
      <trkpt lat="45.72583" lon="4.67602">
        <ele>306.2</ele>
        <time>2025-12-11T13:32:48Z</time>
      </trkpt>
      <trkpt lat="45.72585" lon="4.67601">
        <ele>306.4</ele>
        <time>2025-12-11T13:32:49Z</time>
      </trkpt>
      <trkpt lat="45.72587" lon="4.676">
        <ele>306.6</ele>
        <time>2025-12-11T13:32:50Z</time>
      </trkpt>
      <trkpt lat="45.72589" lon="4.67599">
        <ele>306.8</ele>
        <time>2025-12-11T13:32:51Z</time>
      </trkpt>
      <trkpt lat="45.72591" lon="4.67599">
        <ele>307</ele>
        <time>2025-12-11T13:32:52Z</time>
      </trkpt>
      <trkpt lat="45.72593" lon="4.676">
        <ele>307</ele>
        <time>2025-12-11T13:32:53Z</time>
      </trkpt>
      <trkpt lat="45.72594" lon="4.67601">
        <ele>307.2</ele>
        <time>2025-12-11T13:32:54Z</time>
      </trkpt>
      <trkpt lat="45.72596" lon="4.67601">
        <ele>307.4</ele>
        <time>2025-12-11T13:32:55Z</time>
      </trkpt>
      <trkpt lat="45.72597" lon="4.67601">
        <ele>307.6</ele>
        <time>2025-12-11T13:32:56Z</time>
      </trkpt>
      <trkpt lat="45.72599" lon="4.676">
        <ele>307.8</ele>
        <time>2025-12-11T13:32:57Z</time>
      </trkpt>
      <trkpt lat="45.72601" lon="4.67599">
        <ele>308</ele>
        <time>2025-12-11T13:32:58Z</time>
      </trkpt>
      <trkpt lat="45.72603" lon="4.67599">
        <ele>308.2</ele>
        <time>2025-12-11T13:32:59Z</time>
      </trkpt>
      <trkpt lat="45.72604" lon="4.67599">
        <ele>308.6</ele>
        <time>2025-12-11T13:33:00Z</time>
      </trkpt>
      <trkpt lat="45.72606" lon="4.67598">
        <ele>308.8</ele>
        <time>2025-12-11T13:33:01Z</time>
      </trkpt>
      <trkpt lat="45.72606" lon="4.67598">
        <ele>309</ele>
        <time>2025-12-11T13:33:02Z</time>
      </trkpt>
      <trkpt lat="45.72607" lon="4.67598">
        <ele>309.2</ele>
        <time>2025-12-11T13:33:03Z</time>
      </trkpt>
      <trkpt lat="45.72608" lon="4.67597">
        <ele>309.4</ele>
        <time>2025-12-11T13:33:04Z</time>
      </trkpt>
      <trkpt lat="45.72609" lon="4.67596">
        <ele>309.6</ele>
        <time>2025-12-11T13:33:05Z</time>
      </trkpt>
      <trkpt lat="45.72611" lon="4.67596">
        <ele>309.8</ele>
        <time>2025-12-11T13:33:06Z</time>
      </trkpt>
      <trkpt lat="45.72613" lon="4.67596">
        <ele>310</ele>
        <time>2025-12-11T13:33:07Z</time>
      </trkpt>
      <trkpt lat="45.72614" lon="4.67596">
        <ele>310</ele>
        <time>2025-12-11T13:33:08Z</time>
      </trkpt>
      <trkpt lat="45.72616" lon="4.67595">
        <ele>310.2</ele>
        <time>2025-12-11T13:33:09Z</time>
      </trkpt>
      <trkpt lat="45.72618" lon="4.67594">
        <ele>310.4</ele>
        <time>2025-12-11T13:33:10Z</time>
      </trkpt>
      <trkpt lat="45.72619" lon="4.67594">
        <ele>310.6</ele>
        <time>2025-12-11T13:33:11Z</time>
      </trkpt>
      <trkpt lat="45.7262" lon="4.67593">
        <ele>310.8</ele>
        <time>2025-12-11T13:33:12Z</time>
      </trkpt>
      <trkpt lat="45.72621" lon="4.67592">
        <ele>311.2</ele>
        <time>2025-12-11T13:33:13Z</time>
      </trkpt>
      <trkpt lat="45.72623" lon="4.67591">
        <ele>311.4</ele>
        <time>2025-12-11T13:33:14Z</time>
      </trkpt>
      <trkpt lat="45.72624" lon="4.67591">
        <ele>311.6</ele>
        <time>2025-12-11T13:33:15Z</time>
      </trkpt>
      <trkpt lat="45.72625" lon="4.67591">
        <ele>311.8</ele>
        <time>2025-12-11T13:33:16Z</time>
      </trkpt>
      <trkpt lat="45.72626" lon="4.67591">
        <ele>312</ele>
        <time>2025-12-11T13:33:17Z</time>
      </trkpt>
      <trkpt lat="45.72627" lon="4.6759">
        <ele>312.2</ele>
        <time>2025-12-11T13:33:18Z</time>
      </trkpt>
      <trkpt lat="45.72628" lon="4.67589">
        <ele>312.6</ele>
        <time>2025-12-11T13:33:19Z</time>
      </trkpt>
      <trkpt lat="45.72629" lon="4.67589">
        <ele>312.8</ele>
        <time>2025-12-11T13:33:20Z</time>
      </trkpt>
      <trkpt lat="45.72631" lon="4.67589">
        <ele>313</ele>
        <time>2025-12-11T13:33:21Z</time>
      </trkpt>
      <trkpt lat="45.72632" lon="4.67588">
        <ele>313.2</ele>
        <time>2025-12-11T13:33:22Z</time>
      </trkpt>
      <trkpt lat="45.72633" lon="4.67588">
        <ele>313.4</ele>
        <time>2025-12-11T13:33:23Z</time>
      </trkpt>
      <trkpt lat="45.72635" lon="4.67588">
        <ele>313.6</ele>
        <time>2025-12-11T13:33:24Z</time>
      </trkpt>
      <trkpt lat="45.72636" lon="4.67588">
        <ele>313.8</ele>
        <time>2025-12-11T13:33:25Z</time>
      </trkpt>
      <trkpt lat="45.72637" lon="4.67588">
        <ele>314</ele>
        <time>2025-12-11T13:33:26Z</time>
      </trkpt>
      <trkpt lat="45.72638" lon="4.67587">
        <ele>314</ele>
        <time>2025-12-11T13:33:27Z</time>
      </trkpt>
      <trkpt lat="45.72639" lon="4.67587">
        <ele>314.2</ele>
        <time>2025-12-11T13:33:28Z</time>
      </trkpt>
      <trkpt lat="45.7264" lon="4.67586">
        <ele>314.4</ele>
        <time>2025-12-11T13:33:29Z</time>
      </trkpt>
      <trkpt lat="45.72641" lon="4.67585">
        <ele>314.6</ele>
        <time>2025-12-11T13:33:30Z</time>
      </trkpt>
      <trkpt lat="45.72642" lon="4.67585">
        <ele>314.6</ele>
        <time>2025-12-11T13:33:31Z</time>
      </trkpt>
      <trkpt lat="45.72644" lon="4.67584">
        <ele>314.8</ele>
        <time>2025-12-11T13:33:32Z</time>
      </trkpt>
      <trkpt lat="45.72645" lon="4.67583">
        <ele>315</ele>
        <time>2025-12-11T13:33:33Z</time>
      </trkpt>
      <trkpt lat="45.72646" lon="4.67583">
        <ele>315</ele>
        <time>2025-12-11T13:33:34Z</time>
      </trkpt>
      <trkpt lat="45.72647" lon="4.67582">
        <ele>315.2</ele>
        <time>2025-12-11T13:33:35Z</time>
      </trkpt>
      <trkpt lat="45.72648" lon="4.67581">
        <ele>315.4</ele>
        <time>2025-12-11T13:33:36Z</time>
      </trkpt>
      <trkpt lat="45.72649" lon="4.67581">
        <ele>315.6</ele>
        <time>2025-12-11T13:33:37Z</time>
      </trkpt>
      <trkpt lat="45.7265" lon="4.67581">
        <ele>315.6</ele>
        <time>2025-12-11T13:33:38Z</time>
      </trkpt>
      <trkpt lat="45.72651" lon="4.6758">
        <ele>315.8</ele>
        <time>2025-12-11T13:33:39Z</time>
      </trkpt>
      <trkpt lat="45.72652" lon="4.67579">
        <ele>316</ele>
        <time>2025-12-11T13:33:40Z</time>
      </trkpt>
      <trkpt lat="45.72654" lon="4.67578">
        <ele>316.2</ele>
        <time>2025-12-11T13:33:41Z</time>
      </trkpt>
      <trkpt lat="45.72655" lon="4.67578">
        <ele>316.2</ele>
        <time>2025-12-11T13:33:42Z</time>
      </trkpt>
      <trkpt lat="45.72656" lon="4.67577">
        <ele>316.4</ele>
        <time>2025-12-11T13:33:43Z</time>
      </trkpt>
      <trkpt lat="45.72657" lon="4.67577">
        <ele>316.6</ele>
        <time>2025-12-11T13:33:44Z</time>
      </trkpt>
      <trkpt lat="45.72658" lon="4.67576">
        <ele>316.8</ele>
        <time>2025-12-11T13:33:45Z</time>
      </trkpt>
      <trkpt lat="45.72659" lon="4.67575">
        <ele>316.8</ele>
        <time>2025-12-11T13:33:46Z</time>
      </trkpt>
      <trkpt lat="45.7266" lon="4.67575">
        <ele>317</ele>
        <time>2025-12-11T13:33:47Z</time>
      </trkpt>
      <trkpt lat="45.72661" lon="4.67574">
        <ele>317.2</ele>
        <time>2025-12-11T13:33:48Z</time>
      </trkpt>
      <trkpt lat="45.72662" lon="4.67574">
        <ele>317.4</ele>
        <time>2025-12-11T13:33:49Z</time>
      </trkpt>
      <trkpt lat="45.72663" lon="4.67573">
        <ele>317.4</ele>
        <time>2025-12-11T13:33:50Z</time>
      </trkpt>
      <trkpt lat="45.72665" lon="4.67573">
        <ele>317.6</ele>
        <time>2025-12-11T13:33:51Z</time>
      </trkpt>
      <trkpt lat="45.72666" lon="4.67572">
        <ele>317.8</ele>
        <time>2025-12-11T13:33:52Z</time>
      </trkpt>
      <trkpt lat="45.72667" lon="4.67572">
        <ele>317.8</ele>
        <time>2025-12-11T13:33:53Z</time>
      </trkpt>
      <trkpt lat="45.72669" lon="4.67571">
        <ele>318</ele>
        <time>2025-12-11T13:33:54Z</time>
      </trkpt>
      <trkpt lat="45.7267" lon="4.67571">
        <ele>318.2</ele>
        <time>2025-12-11T13:33:55Z</time>
      </trkpt>
      <trkpt lat="45.72671" lon="4.67571">
        <ele>318.4</ele>
        <time>2025-12-11T13:33:56Z</time>
      </trkpt>
      <trkpt lat="45.72672" lon="4.6757">
        <ele>318.4</ele>
        <time>2025-12-11T13:33:57Z</time>
      </trkpt>
      <trkpt lat="45.72674" lon="4.6757">
        <ele>318.6</ele>
        <time>2025-12-11T13:33:58Z</time>
      </trkpt>
      <trkpt lat="45.72675" lon="4.6757">
        <ele>318.8</ele>
        <time>2025-12-11T13:33:59Z</time>
      </trkpt>
      <trkpt lat="45.72676" lon="4.67569">
        <ele>319</ele>
        <time>2025-12-11T13:34:00Z</time>
      </trkpt>
      <trkpt lat="45.72677" lon="4.67569">
        <ele>319</ele>
        <time>2025-12-11T13:34:01Z</time>
      </trkpt>
      <trkpt lat="45.72678" lon="4.67569">
        <ele>319.2</ele>
        <time>2025-12-11T13:34:02Z</time>
      </trkpt>
      <trkpt lat="45.72679" lon="4.67568">
        <ele>319.4</ele>
        <time>2025-12-11T13:34:03Z</time>
      </trkpt>
      <trkpt lat="45.7268" lon="4.67567">
        <ele>319.6</ele>
        <time>2025-12-11T13:34:04Z</time>
      </trkpt>
      <trkpt lat="45.72681" lon="4.67567">
        <ele>319.8</ele>
        <time>2025-12-11T13:34:05Z</time>
      </trkpt>
      <trkpt lat="45.72682" lon="4.67566">
        <ele>320</ele>
        <time>2025-12-11T13:34:06Z</time>
      </trkpt>
      <trkpt lat="45.72683" lon="4.67566">
        <ele>320.2</ele>
        <time>2025-12-11T13:34:07Z</time>
      </trkpt>
      <trkpt lat="45.72684" lon="4.67566">
        <ele>320.4</ele>
        <time>2025-12-11T13:34:08Z</time>
      </trkpt>
      <trkpt lat="45.72685" lon="4.67566">
        <ele>320.4</ele>
        <time>2025-12-11T13:34:09Z</time>
      </trkpt>
      <trkpt lat="45.72686" lon="4.67567">
        <ele>320.6</ele>
        <time>2025-12-11T13:34:10Z</time>
      </trkpt>
      <trkpt lat="45.72687" lon="4.67567">
        <ele>320.8</ele>
        <time>2025-12-11T13:34:11Z</time>
      </trkpt>
      <trkpt lat="45.72688" lon="4.67567">
        <ele>321</ele>
        <time>2025-12-11T13:34:12Z</time>
      </trkpt>
      <trkpt lat="45.72689" lon="4.67567">
        <ele>321.2</ele>
        <time>2025-12-11T13:34:13Z</time>
      </trkpt>
      <trkpt lat="45.72691" lon="4.67567">
        <ele>321.2</ele>
        <time>2025-12-11T13:34:14Z</time>
      </trkpt>
      <trkpt lat="45.72692" lon="4.67568">
        <ele>321.4</ele>
        <time>2025-12-11T13:34:15Z</time>
      </trkpt>
      <trkpt lat="45.72693" lon="4.67567">
        <ele>321.6</ele>
        <time>2025-12-11T13:34:16Z</time>
      </trkpt>
      <trkpt lat="45.72694" lon="4.67566">
        <ele>321.8</ele>
        <time>2025-12-11T13:34:17Z</time>
      </trkpt>
      <trkpt lat="45.72695" lon="4.67566">
        <ele>322</ele>
        <time>2025-12-11T13:34:18Z</time>
      </trkpt>
      <trkpt lat="45.72695" lon="4.67565">
        <ele>322.2</ele>
        <time>2025-12-11T13:34:19Z</time>
      </trkpt>
      <trkpt lat="45.72695" lon="4.67565">
        <ele>322.2</ele>
        <time>2025-12-11T13:34:20Z</time>
      </trkpt>
      <trkpt lat="45.72695" lon="4.67565">
        <ele>322.4</ele>
        <time>2025-12-11T13:34:21Z</time>
      </trkpt>
      <trkpt lat="45.72695" lon="4.67565">
        <ele>322.4</ele>
        <time>2025-12-11T13:34:22Z</time>
      </trkpt>
      <trkpt lat="45.72695" lon="4.67565">
        <ele>322.4</ele>
        <time>2025-12-11T13:34:23Z</time>
      </trkpt>
      <trkpt lat="45.72696" lon="4.67565">
        <ele>322.6</ele>
        <time>2025-12-11T13:34:24Z</time>
      </trkpt>
      <trkpt lat="45.72697" lon="4.67566">
        <ele>322.6</ele>
        <time>2025-12-11T13:34:25Z</time>
      </trkpt>
      <trkpt lat="45.72698" lon="4.67565">
        <ele>322.8</ele>
        <time>2025-12-11T13:34:26Z</time>
      </trkpt>
      <trkpt lat="45.72699" lon="4.67565">
        <ele>322.8</ele>
        <time>2025-12-11T13:34:27Z</time>
      </trkpt>
      <trkpt lat="45.727" lon="4.67565">
        <ele>323</ele>
        <time>2025-12-11T13:34:28Z</time>
      </trkpt>
      <trkpt lat="45.72701" lon="4.67565">
        <ele>323.2</ele>
        <time>2025-12-11T13:34:29Z</time>
      </trkpt>
      <trkpt lat="45.72702" lon="4.67565">
        <ele>323.2</ele>
        <time>2025-12-11T13:34:30Z</time>
      </trkpt>
      <trkpt lat="45.72703" lon="4.67565">
        <ele>323.4</ele>
        <time>2025-12-11T13:34:31Z</time>
      </trkpt>
      <trkpt lat="45.72704" lon="4.67564">
        <ele>323.6</ele>
        <time>2025-12-11T13:34:32Z</time>
      </trkpt>
      <trkpt lat="45.72705" lon="4.67564">
        <ele>323.8</ele>
        <time>2025-12-11T13:34:33Z</time>
      </trkpt>
      <trkpt lat="45.72706" lon="4.67563">
        <ele>323.8</ele>
        <time>2025-12-11T13:34:34Z</time>
      </trkpt>
      <trkpt lat="45.72707" lon="4.67563">
        <ele>324</ele>
        <time>2025-12-11T13:34:35Z</time>
      </trkpt>
      <trkpt lat="45.72708" lon="4.67563">
        <ele>324.2</ele>
        <time>2025-12-11T13:34:36Z</time>
      </trkpt>
      <trkpt lat="45.72709" lon="4.67562">
        <ele>324.4</ele>
        <time>2025-12-11T13:34:37Z</time>
      </trkpt>
      <trkpt lat="45.7271" lon="4.67561">
        <ele>324.4</ele>
        <time>2025-12-11T13:34:38Z</time>
      </trkpt>
      <trkpt lat="45.72711" lon="4.67561">
        <ele>324.6</ele>
        <time>2025-12-11T13:34:39Z</time>
      </trkpt>
      <trkpt lat="45.72712" lon="4.67561">
        <ele>324.8</ele>
        <time>2025-12-11T13:34:40Z</time>
      </trkpt>
      <trkpt lat="45.72713" lon="4.6756">
        <ele>324.8</ele>
        <time>2025-12-11T13:34:41Z</time>
      </trkpt>
      <trkpt lat="45.72713" lon="4.67559">
        <ele>325</ele>
        <time>2025-12-11T13:34:42Z</time>
      </trkpt>
      <trkpt lat="45.72714" lon="4.67559">
        <ele>325.2</ele>
        <time>2025-12-11T13:34:43Z</time>
      </trkpt>
      <trkpt lat="45.72715" lon="4.67558">
        <ele>325.2</ele>
        <time>2025-12-11T13:34:44Z</time>
      </trkpt>
      <trkpt lat="45.72715" lon="4.67558">
        <ele>325.4</ele>
        <time>2025-12-11T13:34:45Z</time>
      </trkpt>
      <trkpt lat="45.72715" lon="4.67558">
        <ele>325.4</ele>
        <time>2025-12-11T13:34:46Z</time>
      </trkpt>
      <trkpt lat="45.72715" lon="4.67558">
        <ele>325.4</ele>
        <time>2025-12-11T13:34:47Z</time>
      </trkpt>
      <trkpt lat="45.72715" lon="4.67558">
        <ele>325.6</ele>
        <time>2025-12-11T13:34:48Z</time>
      </trkpt>
      <trkpt lat="45.72715" lon="4.67558">
        <ele>325.6</ele>
        <time>2025-12-11T13:34:49Z</time>
      </trkpt>
      <trkpt lat="45.72715" lon="4.67558">
        <ele>325.6</ele>
        <time>2025-12-11T13:34:50Z</time>
      </trkpt>
      <trkpt lat="45.72715" lon="4.67558">
        <ele>325.6</ele>
        <time>2025-12-11T13:34:51Z</time>
      </trkpt>
      <trkpt lat="45.72715" lon="4.67558">
        <ele>325.4</ele>
        <time>2025-12-11T13:34:52Z</time>
      </trkpt>
      <trkpt lat="45.72715" lon="4.67558">
        <ele>325.4</ele>
        <time>2025-12-11T13:34:53Z</time>
      </trkpt>
      <trkpt lat="45.72716" lon="4.67557">
        <ele>325.4</ele>
        <time>2025-12-11T13:34:54Z</time>
      </trkpt>
      <trkpt lat="45.72717" lon="4.67557">
        <ele>325.6</ele>
        <time>2025-12-11T13:34:55Z</time>
      </trkpt>
      <trkpt lat="45.72718" lon="4.67556">
        <ele>325.6</ele>
        <time>2025-12-11T13:34:56Z</time>
      </trkpt>
      <trkpt lat="45.72719" lon="4.67555">
        <ele>325.6</ele>
        <time>2025-12-11T13:34:57Z</time>
      </trkpt>
      <trkpt lat="45.7272" lon="4.67554">
        <ele>325.8</ele>
        <time>2025-12-11T13:34:58Z</time>
      </trkpt>
      <trkpt lat="45.72721" lon="4.67552">
        <ele>325.8</ele>
        <time>2025-12-11T13:34:59Z</time>
      </trkpt>
      <trkpt lat="45.72723" lon="4.67551">
        <ele>326</ele>
        <time>2025-12-11T13:35:00Z</time>
      </trkpt>
      <trkpt lat="45.72724" lon="4.6755">
        <ele>326</ele>
        <time>2025-12-11T13:35:01Z</time>
      </trkpt>
      <trkpt lat="45.72725" lon="4.67549">
        <ele>326.2</ele>
        <time>2025-12-11T13:35:02Z</time>
      </trkpt>
      <trkpt lat="45.72727" lon="4.67548">
        <ele>326.2</ele>
        <time>2025-12-11T13:35:03Z</time>
      </trkpt>
      <trkpt lat="45.72728" lon="4.67546">
        <ele>326.4</ele>
        <time>2025-12-11T13:35:04Z</time>
      </trkpt>
      <trkpt lat="45.7273" lon="4.67545">
        <ele>326.4</ele>
        <time>2025-12-11T13:35:05Z</time>
      </trkpt>
      <trkpt lat="45.72731" lon="4.67544">
        <ele>326.6</ele>
        <time>2025-12-11T13:35:06Z</time>
      </trkpt>
      <trkpt lat="45.72732" lon="4.67542">
        <ele>326.6</ele>
        <time>2025-12-11T13:35:07Z</time>
      </trkpt>
      <trkpt lat="45.72733" lon="4.6754">
        <ele>326.8</ele>
        <time>2025-12-11T13:35:08Z</time>
      </trkpt>
      <trkpt lat="45.72733" lon="4.67538">
        <ele>326.8</ele>
        <time>2025-12-11T13:35:09Z</time>
      </trkpt>
      <trkpt lat="45.72734" lon="4.67536">
        <ele>327</ele>
        <time>2025-12-11T13:35:10Z</time>
      </trkpt>
      <trkpt lat="45.72735" lon="4.67534">
        <ele>327.2</ele>
        <time>2025-12-11T13:35:11Z</time>
      </trkpt>
      <trkpt lat="45.72735" lon="4.67532">
        <ele>327.4</ele>
        <time>2025-12-11T13:35:12Z</time>
      </trkpt>
      <trkpt lat="45.72736" lon="4.6753">
        <ele>327.6</ele>
        <time>2025-12-11T13:35:13Z</time>
      </trkpt>
      <trkpt lat="45.72737" lon="4.67528">
        <ele>327.8</ele>
        <time>2025-12-11T13:35:14Z</time>
      </trkpt>
      <trkpt lat="45.72737" lon="4.67526">
        <ele>327.8</ele>
        <time>2025-12-11T13:35:15Z</time>
      </trkpt>
      <trkpt lat="45.72738" lon="4.67524">
        <ele>328</ele>
        <time>2025-12-11T13:35:16Z</time>
      </trkpt>
      <trkpt lat="45.72739" lon="4.67522">
        <ele>328.2</ele>
        <time>2025-12-11T13:35:17Z</time>
      </trkpt>
      <trkpt lat="45.7274" lon="4.6752">
        <ele>328.2</ele>
        <time>2025-12-11T13:35:18Z</time>
      </trkpt>
      <trkpt lat="45.72741" lon="4.67518">
        <ele>328.4</ele>
        <time>2025-12-11T13:35:19Z</time>
      </trkpt>
      <trkpt lat="45.72742" lon="4.67516">
        <ele>328.6</ele>
        <time>2025-12-11T13:35:20Z</time>
      </trkpt>
      <trkpt lat="45.72743" lon="4.67515">
        <ele>328.6</ele>
        <time>2025-12-11T13:35:21Z</time>
      </trkpt>
      <trkpt lat="45.72744" lon="4.67513">
        <ele>328.8</ele>
        <time>2025-12-11T13:35:22Z</time>
      </trkpt>
      <trkpt lat="45.72745" lon="4.67511">
        <ele>329</ele>
        <time>2025-12-11T13:35:23Z</time>
      </trkpt>
      <trkpt lat="45.72745" lon="4.67508">
        <ele>329.2</ele>
        <time>2025-12-11T13:35:24Z</time>
      </trkpt>
      <trkpt lat="45.72746" lon="4.67507">
        <ele>329.2</ele>
        <time>2025-12-11T13:35:25Z</time>
      </trkpt>
      <trkpt lat="45.72746" lon="4.67504">
        <ele>329.4</ele>
        <time>2025-12-11T13:35:26Z</time>
      </trkpt>
      <trkpt lat="45.72747" lon="4.67502">
        <ele>329.6</ele>
        <time>2025-12-11T13:35:27Z</time>
      </trkpt>
      <trkpt lat="45.72748" lon="4.67501">
        <ele>329.6</ele>
        <time>2025-12-11T13:35:28Z</time>
      </trkpt>
      <trkpt lat="45.72749" lon="4.67499">
        <ele>329.8</ele>
        <time>2025-12-11T13:35:29Z</time>
      </trkpt>
      <trkpt lat="45.7275" lon="4.67498">
        <ele>329.8</ele>
        <time>2025-12-11T13:35:30Z</time>
      </trkpt>
      <trkpt lat="45.72752" lon="4.67496">
        <ele>330</ele>
        <time>2025-12-11T13:35:31Z</time>
      </trkpt>
      <trkpt lat="45.72753" lon="4.67495">
        <ele>330</ele>
        <time>2025-12-11T13:35:32Z</time>
      </trkpt>
      <trkpt lat="45.72755" lon="4.67493">
        <ele>330.2</ele>
        <time>2025-12-11T13:35:33Z</time>
      </trkpt>
      <trkpt lat="45.72756" lon="4.67492">
        <ele>330.2</ele>
        <time>2025-12-11T13:35:34Z</time>
      </trkpt>
      <trkpt lat="45.72758" lon="4.6749">
        <ele>330.2</ele>
        <time>2025-12-11T13:35:35Z</time>
      </trkpt>
      <trkpt lat="45.72759" lon="4.67489">
        <ele>330.4</ele>
        <time>2025-12-11T13:35:36Z</time>
      </trkpt>
      <trkpt lat="45.72761" lon="4.67488">
        <ele>330.4</ele>
        <time>2025-12-11T13:35:37Z</time>
      </trkpt>
      <trkpt lat="45.72762" lon="4.67488">
        <ele>330.6</ele>
        <time>2025-12-11T13:35:38Z</time>
      </trkpt>
      <trkpt lat="45.72764" lon="4.67487">
        <ele>330.6</ele>
        <time>2025-12-11T13:35:39Z</time>
      </trkpt>
      <trkpt lat="45.72765" lon="4.67485">
        <ele>330.6</ele>
        <time>2025-12-11T13:35:40Z</time>
      </trkpt>
      <trkpt lat="45.72767" lon="4.67484">
        <ele>330.8</ele>
        <time>2025-12-11T13:35:41Z</time>
      </trkpt>
      <trkpt lat="45.72769" lon="4.67483">
        <ele>330.8</ele>
        <time>2025-12-11T13:35:42Z</time>
      </trkpt>
      <trkpt lat="45.72771" lon="4.67482">
        <ele>331</ele>
        <time>2025-12-11T13:35:43Z</time>
      </trkpt>
      <trkpt lat="45.72773" lon="4.67481">
        <ele>331</ele>
        <time>2025-12-11T13:35:44Z</time>
      </trkpt>
      <trkpt lat="45.72775" lon="4.6748">
        <ele>331.2</ele>
        <time>2025-12-11T13:35:45Z</time>
      </trkpt>
      <trkpt lat="45.72777" lon="4.67479">
        <ele>331.2</ele>
        <time>2025-12-11T13:35:46Z</time>
      </trkpt>
      <trkpt lat="45.72779" lon="4.67478">
        <ele>331.2</ele>
        <time>2025-12-11T13:35:47Z</time>
      </trkpt>
      <trkpt lat="45.7278" lon="4.67477">
        <ele>331.4</ele>
        <time>2025-12-11T13:35:48Z</time>
      </trkpt>
      <trkpt lat="45.72782" lon="4.67477">
        <ele>331.4</ele>
        <time>2025-12-11T13:35:49Z</time>
      </trkpt>
      <trkpt lat="45.72784" lon="4.67476">
        <ele>331.4</ele>
        <time>2025-12-11T13:35:50Z</time>
      </trkpt>
      <trkpt lat="45.72786" lon="4.67475">
        <ele>331.4</ele>
        <time>2025-12-11T13:35:51Z</time>
      </trkpt>
      <trkpt lat="45.72788" lon="4.67473">
        <ele>331.4</ele>
        <time>2025-12-11T13:35:52Z</time>
      </trkpt>
      <trkpt lat="45.7279" lon="4.67472">
        <ele>331.4</ele>
        <time>2025-12-11T13:35:53Z</time>
      </trkpt>
      <trkpt lat="45.72792" lon="4.67471">
        <ele>331.4</ele>
        <time>2025-12-11T13:35:54Z</time>
      </trkpt>
      <trkpt lat="45.72795" lon="4.67471">
        <ele>331.4</ele>
        <time>2025-12-11T13:35:55Z</time>
      </trkpt>
      <trkpt lat="45.72797" lon="4.6747">
        <ele>331.4</ele>
        <time>2025-12-11T13:35:56Z</time>
      </trkpt>
      <trkpt lat="45.72799" lon="4.6747">
        <ele>331.4</ele>
        <time>2025-12-11T13:35:57Z</time>
      </trkpt>
      <trkpt lat="45.72801" lon="4.67472">
        <ele>331.4</ele>
        <time>2025-12-11T13:35:58Z</time>
      </trkpt>
      <trkpt lat="45.72802" lon="4.67473">
        <ele>331.4</ele>
        <time>2025-12-11T13:35:59Z</time>
      </trkpt>
      <trkpt lat="45.72803" lon="4.67473">
        <ele>331.6</ele>
        <time>2025-12-11T13:36:00Z</time>
      </trkpt>
      <trkpt lat="45.72805" lon="4.67472">
        <ele>331.6</ele>
        <time>2025-12-11T13:36:01Z</time>
      </trkpt>
      <trkpt lat="45.72807" lon="4.67471">
        <ele>331.6</ele>
        <time>2025-12-11T13:36:02Z</time>
      </trkpt>
      <trkpt lat="45.72809" lon="4.67469">
        <ele>331.6</ele>
        <time>2025-12-11T13:36:03Z</time>
      </trkpt>
      <trkpt lat="45.72811" lon="4.67466">
        <ele>331.6</ele>
        <time>2025-12-11T13:36:04Z</time>
      </trkpt>
      <trkpt lat="45.72813" lon="4.67463">
        <ele>331.8</ele>
        <time>2025-12-11T13:36:05Z</time>
      </trkpt>
      <trkpt lat="45.72814" lon="4.67461">
        <ele>331.8</ele>
        <time>2025-12-11T13:36:06Z</time>
      </trkpt>
      <trkpt lat="45.72816" lon="4.67459">
        <ele>332.2</ele>
        <time>2025-12-11T13:36:07Z</time>
      </trkpt>
      <trkpt lat="45.72818" lon="4.67457">
        <ele>332.4</ele>
        <time>2025-12-11T13:36:08Z</time>
      </trkpt>
      <trkpt lat="45.72819" lon="4.67455">
        <ele>332.8</ele>
        <time>2025-12-11T13:36:09Z</time>
      </trkpt>
      <trkpt lat="45.72821" lon="4.67453">
        <ele>333.2</ele>
        <time>2025-12-11T13:36:10Z</time>
      </trkpt>
      <trkpt lat="45.72823" lon="4.67451">
        <ele>333.4</ele>
        <time>2025-12-11T13:36:11Z</time>
      </trkpt>
      <trkpt lat="45.72824" lon="4.67449">
        <ele>333.6</ele>
        <time>2025-12-11T13:36:12Z</time>
      </trkpt>
      <trkpt lat="45.72826" lon="4.67447">
        <ele>333.8</ele>
        <time>2025-12-11T13:36:13Z</time>
      </trkpt>
      <trkpt lat="45.72828" lon="4.67445">
        <ele>334</ele>
        <time>2025-12-11T13:36:14Z</time>
      </trkpt>
      <trkpt lat="45.72829" lon="4.67443">
        <ele>334</ele>
        <time>2025-12-11T13:36:15Z</time>
      </trkpt>
      <trkpt lat="45.72831" lon="4.67441">
        <ele>334.2</ele>
        <time>2025-12-11T13:36:16Z</time>
      </trkpt>
      <trkpt lat="45.72833" lon="4.67439">
        <ele>334.4</ele>
        <time>2025-12-11T13:36:17Z</time>
      </trkpt>
      <trkpt lat="45.72835" lon="4.67437">
        <ele>334.4</ele>
        <time>2025-12-11T13:36:18Z</time>
      </trkpt>
      <trkpt lat="45.72837" lon="4.67435">
        <ele>334.4</ele>
        <time>2025-12-11T13:36:19Z</time>
      </trkpt>
      <trkpt lat="45.72839" lon="4.67434">
        <ele>334.6</ele>
        <time>2025-12-11T13:36:20Z</time>
      </trkpt>
      <trkpt lat="45.72841" lon="4.67432">
        <ele>334.8</ele>
        <time>2025-12-11T13:36:21Z</time>
      </trkpt>
      <trkpt lat="45.72843" lon="4.6743">
        <ele>334.8</ele>
        <time>2025-12-11T13:36:22Z</time>
      </trkpt>
      <trkpt lat="45.72844" lon="4.67428">
        <ele>335</ele>
        <time>2025-12-11T13:36:23Z</time>
      </trkpt>
      <trkpt lat="45.72846" lon="4.67426">
        <ele>335.2</ele>
        <time>2025-12-11T13:36:24Z</time>
      </trkpt>
      <trkpt lat="45.72848" lon="4.67424">
        <ele>335.2</ele>
        <time>2025-12-11T13:36:25Z</time>
      </trkpt>
      <trkpt lat="45.72849" lon="4.67422">
        <ele>335.4</ele>
        <time>2025-12-11T13:36:26Z</time>
      </trkpt>
      <trkpt lat="45.72851" lon="4.6742">
        <ele>335.4</ele>
        <time>2025-12-11T13:36:27Z</time>
      </trkpt>
      <trkpt lat="45.72853" lon="4.67418">
        <ele>335.6</ele>
        <time>2025-12-11T13:36:28Z</time>
      </trkpt>
      <trkpt lat="45.72855" lon="4.67416">
        <ele>335.6</ele>
        <time>2025-12-11T13:36:29Z</time>
      </trkpt>
      <trkpt lat="45.72857" lon="4.67414">
        <ele>335.8</ele>
        <time>2025-12-11T13:36:30Z</time>
      </trkpt>
      <trkpt lat="45.72859" lon="4.67413">
        <ele>335.8</ele>
        <time>2025-12-11T13:36:31Z</time>
      </trkpt>
      <trkpt lat="45.72861" lon="4.6741">
        <ele>335.8</ele>
        <time>2025-12-11T13:36:32Z</time>
      </trkpt>
      <trkpt lat="45.72863" lon="4.67408">
        <ele>336</ele>
        <time>2025-12-11T13:36:33Z</time>
      </trkpt>
      <trkpt lat="45.72864" lon="4.67405">
        <ele>336</ele>
        <time>2025-12-11T13:36:34Z</time>
      </trkpt>
      <trkpt lat="45.72866" lon="4.67403">
        <ele>336</ele>
        <time>2025-12-11T13:36:35Z</time>
      </trkpt>
      <trkpt lat="45.72868" lon="4.674">
        <ele>336</ele>
        <time>2025-12-11T13:36:36Z</time>
      </trkpt>
      <trkpt lat="45.7287" lon="4.67397">
        <ele>336</ele>
        <time>2025-12-11T13:36:37Z</time>
      </trkpt>
      <trkpt lat="45.72872" lon="4.67394">
        <ele>336</ele>
        <time>2025-12-11T13:36:38Z</time>
      </trkpt>
      <trkpt lat="45.72874" lon="4.67391">
        <ele>336.2</ele>
        <time>2025-12-11T13:36:39Z</time>
      </trkpt>
      <trkpt lat="45.72876" lon="4.67388">
        <ele>336.2</ele>
        <time>2025-12-11T13:36:40Z</time>
      </trkpt>
      <trkpt lat="45.72877" lon="4.67385">
        <ele>336.2</ele>
        <time>2025-12-11T13:36:41Z</time>
      </trkpt>
      <trkpt lat="45.72879" lon="4.67383">
        <ele>336.4</ele>
        <time>2025-12-11T13:36:42Z</time>
      </trkpt>
      <trkpt lat="45.7288" lon="4.6738">
        <ele>336.4</ele>
        <time>2025-12-11T13:36:43Z</time>
      </trkpt>
      <trkpt lat="45.72882" lon="4.67377">
        <ele>336.6</ele>
        <time>2025-12-11T13:36:44Z</time>
      </trkpt>
      <trkpt lat="45.72883" lon="4.67374">
        <ele>336.6</ele>
        <time>2025-12-11T13:36:45Z</time>
      </trkpt>
      <trkpt lat="45.72885" lon="4.67372">
        <ele>336.8</ele>
        <time>2025-12-11T13:36:46Z</time>
      </trkpt>
      <trkpt lat="45.72886" lon="4.67369">
        <ele>336.8</ele>
        <time>2025-12-11T13:36:47Z</time>
      </trkpt>
      <trkpt lat="45.72888" lon="4.67366">
        <ele>337</ele>
        <time>2025-12-11T13:36:48Z</time>
      </trkpt>
      <trkpt lat="45.72889" lon="4.67363">
        <ele>337</ele>
        <time>2025-12-11T13:36:49Z</time>
      </trkpt>
      <trkpt lat="45.72891" lon="4.6736">
        <ele>337</ele>
        <time>2025-12-11T13:36:50Z</time>
      </trkpt>
      <trkpt lat="45.72893" lon="4.67357">
        <ele>337</ele>
        <time>2025-12-11T13:36:51Z</time>
      </trkpt>
      <trkpt lat="45.72896" lon="4.67355">
        <ele>337.2</ele>
        <time>2025-12-11T13:36:52Z</time>
      </trkpt>
      <trkpt lat="45.72897" lon="4.67352">
        <ele>337.2</ele>
        <time>2025-12-11T13:36:53Z</time>
      </trkpt>
      <trkpt lat="45.72899" lon="4.67348">
        <ele>337.2</ele>
        <time>2025-12-11T13:36:54Z</time>
      </trkpt>
      <trkpt lat="45.729" lon="4.67345">
        <ele>337.4</ele>
        <time>2025-12-11T13:36:55Z</time>
      </trkpt>
      <trkpt lat="45.72901" lon="4.67342">
        <ele>337.4</ele>
        <time>2025-12-11T13:36:56Z</time>
      </trkpt>
      <trkpt lat="45.72903" lon="4.67339">
        <ele>337.6</ele>
        <time>2025-12-11T13:36:57Z</time>
      </trkpt>
      <trkpt lat="45.72904" lon="4.67337">
        <ele>337.6</ele>
        <time>2025-12-11T13:36:58Z</time>
      </trkpt>
      <trkpt lat="45.72906" lon="4.67334">
        <ele>337.6</ele>
        <time>2025-12-11T13:36:59Z</time>
      </trkpt>
      <trkpt lat="45.72907" lon="4.67331">
        <ele>337.8</ele>
        <time>2025-12-11T13:37:00Z</time>
      </trkpt>
      <trkpt lat="45.72908" lon="4.67328">
        <ele>337.8</ele>
        <time>2025-12-11T13:37:01Z</time>
      </trkpt>
      <trkpt lat="45.72909" lon="4.67325">
        <ele>337.8</ele>
        <time>2025-12-11T13:37:02Z</time>
      </trkpt>
      <trkpt lat="45.7291" lon="4.67322">
        <ele>338</ele>
        <time>2025-12-11T13:37:03Z</time>
      </trkpt>
      <trkpt lat="45.72912" lon="4.67319">
        <ele>338</ele>
        <time>2025-12-11T13:37:04Z</time>
      </trkpt>
      <trkpt lat="45.72913" lon="4.67315">
        <ele>338.2</ele>
        <time>2025-12-11T13:37:05Z</time>
      </trkpt>
      <trkpt lat="45.72914" lon="4.67312">
        <ele>338.2</ele>
        <time>2025-12-11T13:37:06Z</time>
      </trkpt>
      <trkpt lat="45.72916" lon="4.67309">
        <ele>338.4</ele>
        <time>2025-12-11T13:37:07Z</time>
      </trkpt>
      <trkpt lat="45.72917" lon="4.67305">
        <ele>338.4</ele>
        <time>2025-12-11T13:37:08Z</time>
      </trkpt>
      <trkpt lat="45.72918" lon="4.67302">
        <ele>338.6</ele>
        <time>2025-12-11T13:37:09Z</time>
      </trkpt>
      <trkpt lat="45.72919" lon="4.67299">
        <ele>338.6</ele>
        <time>2025-12-11T13:37:10Z</time>
      </trkpt>
      <trkpt lat="45.72921" lon="4.67296">
        <ele>338.8</ele>
        <time>2025-12-11T13:37:11Z</time>
      </trkpt>
      <trkpt lat="45.72922" lon="4.67293">
        <ele>339</ele>
        <time>2025-12-11T13:37:12Z</time>
      </trkpt>
      <trkpt lat="45.72923" lon="4.6729">
        <ele>339</ele>
        <time>2025-12-11T13:37:13Z</time>
      </trkpt>
      <trkpt lat="45.72924" lon="4.67286">
        <ele>339.2</ele>
        <time>2025-12-11T13:37:14Z</time>
      </trkpt>
      <trkpt lat="45.72926" lon="4.67283">
        <ele>339.4</ele>
        <time>2025-12-11T13:37:15Z</time>
      </trkpt>
      <trkpt lat="45.72926" lon="4.6728">
        <ele>339.4</ele>
        <time>2025-12-11T13:37:16Z</time>
      </trkpt>
      <trkpt lat="45.72927" lon="4.67277">
        <ele>339.6</ele>
        <time>2025-12-11T13:37:17Z</time>
      </trkpt>
      <trkpt lat="45.72927" lon="4.67274">
        <ele>339.8</ele>
        <time>2025-12-11T13:37:18Z</time>
      </trkpt>
      <trkpt lat="45.72928" lon="4.67271">
        <ele>339.8</ele>
        <time>2025-12-11T13:37:19Z</time>
      </trkpt>
      <trkpt lat="45.72928" lon="4.67268">
        <ele>340</ele>
        <time>2025-12-11T13:37:20Z</time>
      </trkpt>
      <trkpt lat="45.72929" lon="4.67265">
        <ele>340.2</ele>
        <time>2025-12-11T13:37:21Z</time>
      </trkpt>
      <trkpt lat="45.7293" lon="4.67262">
        <ele>340.2</ele>
        <time>2025-12-11T13:37:22Z</time>
      </trkpt>
      <trkpt lat="45.72931" lon="4.67259">
        <ele>340.4</ele>
        <time>2025-12-11T13:37:23Z</time>
      </trkpt>
      <trkpt lat="45.72932" lon="4.67255">
        <ele>340.4</ele>
        <time>2025-12-11T13:37:24Z</time>
      </trkpt>
      <trkpt lat="45.72933" lon="4.67252">
        <ele>340.6</ele>
        <time>2025-12-11T13:37:25Z</time>
      </trkpt>
      <trkpt lat="45.72935" lon="4.67249">
        <ele>340.8</ele>
        <time>2025-12-11T13:37:26Z</time>
      </trkpt>
      <trkpt lat="45.72936" lon="4.67246">
        <ele>340.8</ele>
        <time>2025-12-11T13:37:27Z</time>
      </trkpt>
      <trkpt lat="45.72937" lon="4.67243">
        <ele>341</ele>
        <time>2025-12-11T13:37:28Z</time>
      </trkpt>
      <trkpt lat="45.72939" lon="4.6724">
        <ele>341.2</ele>
        <time>2025-12-11T13:37:29Z</time>
      </trkpt>
      <trkpt lat="45.72939" lon="4.67237">
        <ele>341.2</ele>
        <time>2025-12-11T13:37:30Z</time>
      </trkpt>
      <trkpt lat="45.7294" lon="4.67234">
        <ele>341.4</ele>
        <time>2025-12-11T13:37:31Z</time>
      </trkpt>
      <trkpt lat="45.72941" lon="4.67231">
        <ele>341.6</ele>
        <time>2025-12-11T13:37:32Z</time>
      </trkpt>
      <trkpt lat="45.72942" lon="4.67229">
        <ele>341.6</ele>
        <time>2025-12-11T13:37:33Z</time>
      </trkpt>
      <trkpt lat="45.72943" lon="4.67226">
        <ele>341.8</ele>
        <time>2025-12-11T13:37:34Z</time>
      </trkpt>
      <trkpt lat="45.72944" lon="4.67223">
        <ele>342</ele>
        <time>2025-12-11T13:37:35Z</time>
      </trkpt>
      <trkpt lat="45.72945" lon="4.6722">
        <ele>342</ele>
        <time>2025-12-11T13:37:36Z</time>
      </trkpt>
      <trkpt lat="45.72946" lon="4.67216">
        <ele>342.2</ele>
        <time>2025-12-11T13:37:37Z</time>
      </trkpt>
      <trkpt lat="45.72947" lon="4.67213">
        <ele>342.4</ele>
        <time>2025-12-11T13:37:38Z</time>
      </trkpt>
      <trkpt lat="45.72948" lon="4.6721">
        <ele>342.4</ele>
        <time>2025-12-11T13:37:39Z</time>
      </trkpt>
      <trkpt lat="45.72949" lon="4.67208">
        <ele>342.6</ele>
        <time>2025-12-11T13:37:40Z</time>
      </trkpt>
      <trkpt lat="45.7295" lon="4.67205">
        <ele>342.8</ele>
        <time>2025-12-11T13:37:41Z</time>
      </trkpt>
      <trkpt lat="45.72952" lon="4.67202">
        <ele>342.8</ele>
        <time>2025-12-11T13:37:42Z</time>
      </trkpt>
      <trkpt lat="45.72953" lon="4.67198">
        <ele>342.8</ele>
        <time>2025-12-11T13:37:43Z</time>
      </trkpt>
      <trkpt lat="45.72954" lon="4.67195">
        <ele>342.8</ele>
        <time>2025-12-11T13:37:44Z</time>
      </trkpt>
      <trkpt lat="45.72956" lon="4.67192">
        <ele>343</ele>
        <time>2025-12-11T13:37:45Z</time>
      </trkpt>
      <trkpt lat="45.72957" lon="4.67189">
        <ele>343</ele>
        <time>2025-12-11T13:37:46Z</time>
      </trkpt>
      <trkpt lat="45.72958" lon="4.67186">
        <ele>343.2</ele>
        <time>2025-12-11T13:37:47Z</time>
      </trkpt>
      <trkpt lat="45.72959" lon="4.67183">
        <ele>343.2</ele>
        <time>2025-12-11T13:37:48Z</time>
      </trkpt>
      <trkpt lat="45.72961" lon="4.6718">
        <ele>343.4</ele>
        <time>2025-12-11T13:37:49Z</time>
      </trkpt>
      <trkpt lat="45.72962" lon="4.67177">
        <ele>343.4</ele>
        <time>2025-12-11T13:37:50Z</time>
      </trkpt>
      <trkpt lat="45.72963" lon="4.67174">
        <ele>343.6</ele>
        <time>2025-12-11T13:37:51Z</time>
      </trkpt>
      <trkpt lat="45.72964" lon="4.6717">
        <ele>343.6</ele>
        <time>2025-12-11T13:37:52Z</time>
      </trkpt>
      <trkpt lat="45.72966" lon="4.67168">
        <ele>343.6</ele>
        <time>2025-12-11T13:37:53Z</time>
      </trkpt>
      <trkpt lat="45.72967" lon="4.67165">
        <ele>343.6</ele>
        <time>2025-12-11T13:37:54Z</time>
      </trkpt>
      <trkpt lat="45.72968" lon="4.67161">
        <ele>343.8</ele>
        <time>2025-12-11T13:37:55Z</time>
      </trkpt>
      <trkpt lat="45.7297" lon="4.67158">
        <ele>343.8</ele>
        <time>2025-12-11T13:37:56Z</time>
      </trkpt>
      <trkpt lat="45.72971" lon="4.67155">
        <ele>344</ele>
        <time>2025-12-11T13:37:57Z</time>
      </trkpt>
      <trkpt lat="45.72973" lon="4.67152">
        <ele>344</ele>
        <time>2025-12-11T13:37:58Z</time>
      </trkpt>
      <trkpt lat="45.72974" lon="4.67149">
        <ele>344.2</ele>
        <time>2025-12-11T13:37:59Z</time>
      </trkpt>
      <trkpt lat="45.72976" lon="4.67147">
        <ele>344.2</ele>
        <time>2025-12-11T13:38:00Z</time>
      </trkpt>
      <trkpt lat="45.72977" lon="4.67144">
        <ele>344.4</ele>
        <time>2025-12-11T13:38:01Z</time>
      </trkpt>
      <trkpt lat="45.72979" lon="4.6714">
        <ele>344.4</ele>
        <time>2025-12-11T13:38:02Z</time>
      </trkpt>
      <trkpt lat="45.7298" lon="4.67137">
        <ele>344.4</ele>
        <time>2025-12-11T13:38:03Z</time>
      </trkpt>
      <trkpt lat="45.72982" lon="4.67134">
        <ele>344.6</ele>
        <time>2025-12-11T13:38:04Z</time>
      </trkpt>
      <trkpt lat="45.72983" lon="4.67131">
        <ele>344.6</ele>
        <time>2025-12-11T13:38:05Z</time>
      </trkpt>
      <trkpt lat="45.72985" lon="4.67128">
        <ele>344.6</ele>
        <time>2025-12-11T13:38:06Z</time>
      </trkpt>
      <trkpt lat="45.72987" lon="4.67126">
        <ele>344.8</ele>
        <time>2025-12-11T13:38:07Z</time>
      </trkpt>
      <trkpt lat="45.72989" lon="4.67123">
        <ele>344.8</ele>
        <time>2025-12-11T13:38:08Z</time>
      </trkpt>
      <trkpt lat="45.7299" lon="4.6712">
        <ele>345</ele>
        <time>2025-12-11T13:38:09Z</time>
      </trkpt>
      <trkpt lat="45.72992" lon="4.67117">
        <ele>345</ele>
        <time>2025-12-11T13:38:10Z</time>
      </trkpt>
      <trkpt lat="45.72994" lon="4.67114">
        <ele>345.2</ele>
        <time>2025-12-11T13:38:11Z</time>
      </trkpt>
      <trkpt lat="45.72996" lon="4.67111">
        <ele>345.2</ele>
        <time>2025-12-11T13:38:12Z</time>
      </trkpt>
      <trkpt lat="45.72997" lon="4.67109">
        <ele>345.4</ele>
        <time>2025-12-11T13:38:13Z</time>
      </trkpt>
      <trkpt lat="45.72999" lon="4.67106">
        <ele>345.6</ele>
        <time>2025-12-11T13:38:14Z</time>
      </trkpt>
      <trkpt lat="45.73001" lon="4.67104">
        <ele>345.6</ele>
        <time>2025-12-11T13:38:15Z</time>
      </trkpt>
      <trkpt lat="45.73002" lon="4.67102">
        <ele>345.8</ele>
        <time>2025-12-11T13:38:16Z</time>
      </trkpt>
      <trkpt lat="45.73004" lon="4.671">
        <ele>346</ele>
        <time>2025-12-11T13:38:17Z</time>
      </trkpt>
      <trkpt lat="45.73006" lon="4.67098">
        <ele>346.2</ele>
        <time>2025-12-11T13:38:18Z</time>
      </trkpt>
      <trkpt lat="45.73008" lon="4.67096">
        <ele>346.4</ele>
        <time>2025-12-11T13:38:19Z</time>
      </trkpt>
      <trkpt lat="45.73009" lon="4.67094">
        <ele>346.4</ele>
        <time>2025-12-11T13:38:20Z</time>
      </trkpt>
      <trkpt lat="45.73011" lon="4.67091">
        <ele>346.6</ele>
        <time>2025-12-11T13:38:21Z</time>
      </trkpt>
      <trkpt lat="45.73013" lon="4.67089">
        <ele>346.8</ele>
        <time>2025-12-11T13:38:22Z</time>
      </trkpt>
      <trkpt lat="45.73014" lon="4.67087">
        <ele>346.8</ele>
        <time>2025-12-11T13:38:23Z</time>
      </trkpt>
      <trkpt lat="45.73017" lon="4.67085">
        <ele>347</ele>
        <time>2025-12-11T13:38:24Z</time>
      </trkpt>
      <trkpt lat="45.73019" lon="4.67084">
        <ele>347.2</ele>
        <time>2025-12-11T13:38:25Z</time>
      </trkpt>
      <trkpt lat="45.73021" lon="4.67082">
        <ele>347.2</ele>
        <time>2025-12-11T13:38:26Z</time>
      </trkpt>
      <trkpt lat="45.73022" lon="4.6708">
        <ele>347.4</ele>
        <time>2025-12-11T13:38:27Z</time>
      </trkpt>
      <trkpt lat="45.73024" lon="4.67078">
        <ele>347.4</ele>
        <time>2025-12-11T13:38:28Z</time>
      </trkpt>
      <trkpt lat="45.73026" lon="4.67076">
        <ele>347.6</ele>
        <time>2025-12-11T13:38:29Z</time>
      </trkpt>
      <trkpt lat="45.73028" lon="4.67074">
        <ele>347.6</ele>
        <time>2025-12-11T13:38:30Z</time>
      </trkpt>
      <trkpt lat="45.73029" lon="4.67072">
        <ele>347.8</ele>
        <time>2025-12-11T13:38:31Z</time>
      </trkpt>
      <trkpt lat="45.73031" lon="4.6707">
        <ele>348</ele>
        <time>2025-12-11T13:38:32Z</time>
      </trkpt>
      <trkpt lat="45.73033" lon="4.67069">
        <ele>348</ele>
        <time>2025-12-11T13:38:33Z</time>
      </trkpt>
      <trkpt lat="45.73035" lon="4.67067">
        <ele>348.2</ele>
        <time>2025-12-11T13:38:34Z</time>
      </trkpt>
      <trkpt lat="45.73037" lon="4.67066">
        <ele>348.4</ele>
        <time>2025-12-11T13:38:35Z</time>
      </trkpt>
      <trkpt lat="45.73039" lon="4.67064">
        <ele>348.6</ele>
        <time>2025-12-11T13:38:36Z</time>
      </trkpt>
      <trkpt lat="45.7304" lon="4.67063">
        <ele>348.8</ele>
        <time>2025-12-11T13:38:37Z</time>
      </trkpt>
      <trkpt lat="45.73042" lon="4.67061">
        <ele>349</ele>
        <time>2025-12-11T13:38:38Z</time>
      </trkpt>
      <trkpt lat="45.73044" lon="4.6706">
        <ele>349.2</ele>
        <time>2025-12-11T13:38:39Z</time>
      </trkpt>
      <trkpt lat="45.73045" lon="4.67059">
        <ele>349.4</ele>
        <time>2025-12-11T13:38:40Z</time>
      </trkpt>
      <trkpt lat="45.73046" lon="4.67057">
        <ele>349.6</ele>
        <time>2025-12-11T13:38:41Z</time>
      </trkpt>
      <trkpt lat="45.73047" lon="4.67056">
        <ele>349.6</ele>
        <time>2025-12-11T13:38:42Z</time>
      </trkpt>
      <trkpt lat="45.73049" lon="4.67054">
        <ele>349.8</ele>
        <time>2025-12-11T13:38:43Z</time>
      </trkpt>
      <trkpt lat="45.73051" lon="4.67053">
        <ele>350</ele>
        <time>2025-12-11T13:38:44Z</time>
      </trkpt>
      <trkpt lat="45.73052" lon="4.67051">
        <ele>350.2</ele>
        <time>2025-12-11T13:38:45Z</time>
      </trkpt>
      <trkpt lat="45.73054" lon="4.6705">
        <ele>350.4</ele>
        <time>2025-12-11T13:38:46Z</time>
      </trkpt>
      <trkpt lat="45.73056" lon="4.67049">
        <ele>350.6</ele>
        <time>2025-12-11T13:38:47Z</time>
      </trkpt>
      <trkpt lat="45.73057" lon="4.67047">
        <ele>350.8</ele>
        <time>2025-12-11T13:38:48Z</time>
      </trkpt>
      <trkpt lat="45.73059" lon="4.67046">
        <ele>350.8</ele>
        <time>2025-12-11T13:38:49Z</time>
      </trkpt>
      <trkpt lat="45.73061" lon="4.67044">
        <ele>351</ele>
        <time>2025-12-11T13:38:50Z</time>
      </trkpt>
      <trkpt lat="45.73062" lon="4.67042">
        <ele>351.2</ele>
        <time>2025-12-11T13:38:51Z</time>
      </trkpt>
      <trkpt lat="45.73064" lon="4.67041">
        <ele>351.4</ele>
        <time>2025-12-11T13:38:52Z</time>
      </trkpt>
      <trkpt lat="45.73065" lon="4.67039">
        <ele>351.6</ele>
        <time>2025-12-11T13:38:53Z</time>
      </trkpt>
      <trkpt lat="45.73066" lon="4.67038">
        <ele>351.8</ele>
        <time>2025-12-11T13:38:54Z</time>
      </trkpt>
      <trkpt lat="45.73068" lon="4.67037">
        <ele>351.8</ele>
        <time>2025-12-11T13:38:55Z</time>
      </trkpt>
      <trkpt lat="45.73069" lon="4.67036">
        <ele>352</ele>
        <time>2025-12-11T13:38:56Z</time>
      </trkpt>
      <trkpt lat="45.73071" lon="4.67035">
        <ele>352.2</ele>
        <time>2025-12-11T13:38:57Z</time>
      </trkpt>
      <trkpt lat="45.73073" lon="4.67033">
        <ele>352.4</ele>
        <time>2025-12-11T13:38:58Z</time>
      </trkpt>
      <trkpt lat="45.73074" lon="4.67032">
        <ele>352.4</ele>
        <time>2025-12-11T13:38:59Z</time>
      </trkpt>
      <trkpt lat="45.73075" lon="4.6703">
        <ele>352.6</ele>
        <time>2025-12-11T13:39:00Z</time>
      </trkpt>
      <trkpt lat="45.73077" lon="4.67029">
        <ele>352.8</ele>
        <time>2025-12-11T13:39:01Z</time>
      </trkpt>
      <trkpt lat="45.73078" lon="4.67028">
        <ele>353</ele>
        <time>2025-12-11T13:39:02Z</time>
      </trkpt>
      <trkpt lat="45.7308" lon="4.67027">
        <ele>353.2</ele>
        <time>2025-12-11T13:39:03Z</time>
      </trkpt>
      <trkpt lat="45.73081" lon="4.67025">
        <ele>353.4</ele>
        <time>2025-12-11T13:39:04Z</time>
      </trkpt>
      <trkpt lat="45.73083" lon="4.67024">
        <ele>353.6</ele>
        <time>2025-12-11T13:39:05Z</time>
      </trkpt>
      <trkpt lat="45.73084" lon="4.67022">
        <ele>353.6</ele>
        <time>2025-12-11T13:39:06Z</time>
      </trkpt>
      <trkpt lat="45.73086" lon="4.67021">
        <ele>353.8</ele>
        <time>2025-12-11T13:39:07Z</time>
      </trkpt>
      <trkpt lat="45.73087" lon="4.6702">
        <ele>354</ele>
        <time>2025-12-11T13:39:08Z</time>
      </trkpt>
      <trkpt lat="45.73089" lon="4.67019">
        <ele>354</ele>
        <time>2025-12-11T13:39:09Z</time>
      </trkpt>
      <trkpt lat="45.7309" lon="4.67018">
        <ele>354.2</ele>
        <time>2025-12-11T13:39:10Z</time>
      </trkpt>
      <trkpt lat="45.73092" lon="4.67017">
        <ele>354.4</ele>
        <time>2025-12-11T13:39:11Z</time>
      </trkpt>
      <trkpt lat="45.73093" lon="4.67016">
        <ele>354.4</ele>
        <time>2025-12-11T13:39:12Z</time>
      </trkpt>
      <trkpt lat="45.73095" lon="4.67015">
        <ele>354.6</ele>
        <time>2025-12-11T13:39:13Z</time>
      </trkpt>
      <trkpt lat="45.73096" lon="4.67013">
        <ele>354.8</ele>
        <time>2025-12-11T13:39:14Z</time>
      </trkpt>
      <trkpt lat="45.73098" lon="4.67012">
        <ele>355</ele>
        <time>2025-12-11T13:39:15Z</time>
      </trkpt>
      <trkpt lat="45.73099" lon="4.6701">
        <ele>355</ele>
        <time>2025-12-11T13:39:16Z</time>
      </trkpt>
      <trkpt lat="45.73101" lon="4.67008">
        <ele>355.2</ele>
        <time>2025-12-11T13:39:17Z</time>
      </trkpt>
      <trkpt lat="45.73102" lon="4.67007">
        <ele>355.4</ele>
        <time>2025-12-11T13:39:18Z</time>
      </trkpt>
      <trkpt lat="45.73104" lon="4.67006">
        <ele>355.4</ele>
        <time>2025-12-11T13:39:19Z</time>
      </trkpt>
      <trkpt lat="45.73105" lon="4.67005">
        <ele>355.6</ele>
        <time>2025-12-11T13:39:20Z</time>
      </trkpt>
      <trkpt lat="45.73107" lon="4.67004">
        <ele>355.8</ele>
        <time>2025-12-11T13:39:21Z</time>
      </trkpt>
      <trkpt lat="45.73108" lon="4.67002">
        <ele>356</ele>
        <time>2025-12-11T13:39:22Z</time>
      </trkpt>
      <trkpt lat="45.73109" lon="4.67001">
        <ele>356</ele>
        <time>2025-12-11T13:39:23Z</time>
      </trkpt>
      <trkpt lat="45.73111" lon="4.66999">
        <ele>356.2</ele>
        <time>2025-12-11T13:39:24Z</time>
      </trkpt>
      <trkpt lat="45.73112" lon="4.66998">
        <ele>356.4</ele>
        <time>2025-12-11T13:39:25Z</time>
      </trkpt>
      <trkpt lat="45.73114" lon="4.66998">
        <ele>356.4</ele>
        <time>2025-12-11T13:39:26Z</time>
      </trkpt>
      <trkpt lat="45.73115" lon="4.66997">
        <ele>356.6</ele>
        <time>2025-12-11T13:39:27Z</time>
      </trkpt>
      <trkpt lat="45.73117" lon="4.66995">
        <ele>356.6</ele>
        <time>2025-12-11T13:39:28Z</time>
      </trkpt>
      <trkpt lat="45.73118" lon="4.66994">
        <ele>356.8</ele>
        <time>2025-12-11T13:39:29Z</time>
      </trkpt>
      <trkpt lat="45.7312" lon="4.66992">
        <ele>357</ele>
        <time>2025-12-11T13:39:30Z</time>
      </trkpt>
      <trkpt lat="45.73121" lon="4.66991">
        <ele>357.2</ele>
        <time>2025-12-11T13:39:31Z</time>
      </trkpt>
      <trkpt lat="45.73123" lon="4.6699">
        <ele>357.4</ele>
        <time>2025-12-11T13:39:32Z</time>
      </trkpt>
      <trkpt lat="45.73125" lon="4.66989">
        <ele>357.4</ele>
        <time>2025-12-11T13:39:33Z</time>
      </trkpt>
      <trkpt lat="45.73126" lon="4.66988">
        <ele>357.6</ele>
        <time>2025-12-11T13:39:34Z</time>
      </trkpt>
      <trkpt lat="45.73128" lon="4.66986">
        <ele>357.8</ele>
        <time>2025-12-11T13:39:35Z</time>
      </trkpt>
      <trkpt lat="45.73129" lon="4.66985">
        <ele>357.8</ele>
        <time>2025-12-11T13:39:36Z</time>
      </trkpt>
      <trkpt lat="45.73131" lon="4.66984">
        <ele>358</ele>
        <time>2025-12-11T13:39:37Z</time>
      </trkpt>
      <trkpt lat="45.73132" lon="4.66983">
        <ele>358.2</ele>
        <time>2025-12-11T13:39:38Z</time>
      </trkpt>
      <trkpt lat="45.73134" lon="4.66982">
        <ele>358.2</ele>
        <time>2025-12-11T13:39:39Z</time>
      </trkpt>
      <trkpt lat="45.73135" lon="4.6698">
        <ele>358.4</ele>
        <time>2025-12-11T13:39:40Z</time>
      </trkpt>
      <trkpt lat="45.73136" lon="4.66979">
        <ele>358.4</ele>
        <time>2025-12-11T13:39:41Z</time>
      </trkpt>
      <trkpt lat="45.73137" lon="4.66977">
        <ele>358.6</ele>
        <time>2025-12-11T13:39:42Z</time>
      </trkpt>
      <trkpt lat="45.73139" lon="4.66976">
        <ele>358.8</ele>
        <time>2025-12-11T13:39:43Z</time>
      </trkpt>
      <trkpt lat="45.7314" lon="4.66975">
        <ele>358.8</ele>
        <time>2025-12-11T13:39:44Z</time>
      </trkpt>
      <trkpt lat="45.73142" lon="4.66974">
        <ele>359</ele>
        <time>2025-12-11T13:39:45Z</time>
      </trkpt>
      <trkpt lat="45.73144" lon="4.66974">
        <ele>359</ele>
        <time>2025-12-11T13:39:46Z</time>
      </trkpt>
      <trkpt lat="45.73145" lon="4.66973">
        <ele>359.2</ele>
        <time>2025-12-11T13:39:47Z</time>
      </trkpt>
      <trkpt lat="45.73147" lon="4.66972">
        <ele>359.2</ele>
        <time>2025-12-11T13:39:48Z</time>
      </trkpt>
      <trkpt lat="45.73149" lon="4.66971">
        <ele>359.2</ele>
        <time>2025-12-11T13:39:49Z</time>
      </trkpt>
      <trkpt lat="45.73151" lon="4.6697">
        <ele>359.4</ele>
        <time>2025-12-11T13:39:50Z</time>
      </trkpt>
      <trkpt lat="45.73152" lon="4.66968">
        <ele>359.6</ele>
        <time>2025-12-11T13:39:51Z</time>
      </trkpt>
      <trkpt lat="45.73154" lon="4.66967">
        <ele>359.6</ele>
        <time>2025-12-11T13:39:52Z</time>
      </trkpt>
      <trkpt lat="45.73155" lon="4.66967">
        <ele>359.6</ele>
        <time>2025-12-11T13:39:53Z</time>
      </trkpt>
      <trkpt lat="45.73157" lon="4.66965">
        <ele>359.8</ele>
        <time>2025-12-11T13:39:54Z</time>
      </trkpt>
      <trkpt lat="45.73158" lon="4.66964">
        <ele>359.8</ele>
        <time>2025-12-11T13:39:55Z</time>
      </trkpt>
      <trkpt lat="45.73159" lon="4.66963">
        <ele>360</ele>
        <time>2025-12-11T13:39:56Z</time>
      </trkpt>
      <trkpt lat="45.73159" lon="4.66963">
        <ele>360</ele>
        <time>2025-12-11T13:39:57Z</time>
      </trkpt>
      <trkpt lat="45.7316" lon="4.66963">
        <ele>360</ele>
        <time>2025-12-11T13:39:58Z</time>
      </trkpt>
      <trkpt lat="45.7316" lon="4.66963">
        <ele>360</ele>
        <time>2025-12-11T13:39:59Z</time>
      </trkpt>
      <trkpt lat="45.73161" lon="4.66963">
        <ele>360.2</ele>
        <time>2025-12-11T13:40:00Z</time>
      </trkpt>
      <trkpt lat="45.73161" lon="4.66963">
        <ele>360.2</ele>
        <time>2025-12-11T13:40:01Z</time>
      </trkpt>
      <trkpt lat="45.73161" lon="4.66963">
        <ele>360.2</ele>
        <time>2025-12-11T13:40:02Z</time>
      </trkpt>
      <trkpt lat="45.73161" lon="4.66963">
        <ele>360.2</ele>
        <time>2025-12-11T13:40:03Z</time>
      </trkpt>
      <trkpt lat="45.73161" lon="4.66963">
        <ele>360.2</ele>
        <time>2025-12-11T13:40:04Z</time>
      </trkpt>
      <trkpt lat="45.73161" lon="4.66963">
        <ele>360.2</ele>
        <time>2025-12-11T13:40:05Z</time>
      </trkpt>
      <trkpt lat="45.73161" lon="4.66963">
        <ele>360.2</ele>
        <time>2025-12-11T13:40:06Z</time>
      </trkpt>
      <trkpt lat="45.73161" lon="4.66963">
        <ele>360.2</ele>
        <time>2025-12-11T13:40:07Z</time>
      </trkpt>
      <trkpt lat="45.73161" lon="4.66963">
        <ele>360.2</ele>
        <time>2025-12-11T13:40:08Z</time>
      </trkpt>
      <trkpt lat="45.73161" lon="4.66963">
        <ele>360.2</ele>
        <time>2025-12-11T13:40:09Z</time>
      </trkpt>
      <trkpt lat="45.73161" lon="4.66963">
        <ele>360.2</ele>
        <time>2025-12-11T13:40:10Z</time>
      </trkpt>
      <trkpt lat="45.73161" lon="4.66963">
        <ele>360.2</ele>
        <time>2025-12-11T13:40:11Z</time>
      </trkpt>
      <trkpt lat="45.73161" lon="4.66963">
        <ele>360.2</ele>
        <time>2025-12-11T13:40:12Z</time>
      </trkpt>
      <trkpt lat="45.73161" lon="4.66963">
        <ele>360.2</ele>
        <time>2025-12-11T13:40:13Z</time>
      </trkpt>
      <trkpt lat="45.73161" lon="4.66963">
        <ele>360.2</ele>
        <time>2025-12-11T13:40:14Z</time>
      </trkpt>
      <trkpt lat="45.73161" lon="4.66963">
        <ele>360.2</ele>
        <time>2025-12-11T13:40:15Z</time>
      </trkpt>
      <trkpt lat="45.73161" lon="4.66963">
        <ele>360.2</ele>
        <time>2025-12-11T13:40:16Z</time>
      </trkpt>
      <trkpt lat="45.73161" lon="4.66963">
        <ele>360.2</ele>
        <time>2025-12-11T13:40:17Z</time>
      </trkpt>
      <trkpt lat="45.73161" lon="4.66963">
        <ele>360.2</ele>
        <time>2025-12-11T13:40:18Z</time>
      </trkpt>
      <trkpt lat="45.73161" lon="4.66963">
        <ele>360.2</ele>
        <time>2025-12-11T13:40:19Z</time>
      </trkpt>
      <trkpt lat="45.73161" lon="4.66963">
        <ele>360.2</ele>
        <time>2025-12-11T13:40:20Z</time>
      </trkpt>
      <trkpt lat="45.73161" lon="4.66963">
        <ele>360.2</ele>
        <time>2025-12-11T13:40:21Z</time>
      </trkpt>
      <trkpt lat="45.73161" lon="4.66963">
        <ele>360.2</ele>
        <time>2025-12-11T13:40:22Z</time>
      </trkpt>
      <trkpt lat="45.73161" lon="4.66963">
        <ele>360.2</ele>
        <time>2025-12-11T13:40:23Z</time>
      </trkpt>
      <trkpt lat="45.73161" lon="4.66963">
        <ele>360.2</ele>
        <time>2025-12-11T13:40:24Z</time>
      </trkpt>
      <trkpt lat="45.73161" lon="4.66963">
        <ele>360.2</ele>
        <time>2025-12-11T13:40:25Z</time>
      </trkpt>
      <trkpt lat="45.73161" lon="4.66963">
        <ele>360.2</ele>
        <time>2025-12-11T13:40:26Z</time>
      </trkpt>
      <trkpt lat="45.73161" lon="4.66963">
        <ele>360.2</ele>
        <time>2025-12-11T13:40:27Z</time>
      </trkpt>
      <trkpt lat="45.73161" lon="4.66963">
        <ele>360.2</ele>
        <time>2025-12-11T13:40:28Z</time>
      </trkpt>
      <trkpt lat="45.73161" lon="4.66963">
        <ele>360.2</ele>
        <time>2025-12-11T13:40:29Z</time>
      </trkpt>
      <trkpt lat="45.73161" lon="4.66963">
        <ele>360.2</ele>
        <time>2025-12-11T13:40:30Z</time>
      </trkpt>
      <trkpt lat="45.73161" lon="4.66963">
        <ele>360.2</ele>
        <time>2025-12-11T13:40:31Z</time>
      </trkpt>
      <trkpt lat="45.73161" lon="4.66963">
        <ele>360.2</ele>
        <time>2025-12-11T13:40:32Z</time>
      </trkpt>
      <trkpt lat="45.73161" lon="4.66963">
        <ele>360.2</ele>
        <time>2025-12-11T13:40:33Z</time>
      </trkpt>
      <trkpt lat="45.73161" lon="4.66963">
        <ele>360.2</ele>
        <time>2025-12-11T13:40:34Z</time>
      </trkpt>
      <trkpt lat="45.73161" lon="4.66963">
        <ele>360.2</ele>
        <time>2025-12-11T13:40:35Z</time>
      </trkpt>
      <trkpt lat="45.73161" lon="4.66963">
        <ele>360.2</ele>
        <time>2025-12-11T13:40:36Z</time>
      </trkpt>
      <trkpt lat="45.73161" lon="4.66963">
        <ele>360.2</ele>
        <time>2025-12-11T13:40:37Z</time>
      </trkpt>
      <trkpt lat="45.73161" lon="4.66963">
        <ele>360.2</ele>
        <time>2025-12-11T13:40:38Z</time>
      </trkpt>
      <trkpt lat="45.73161" lon="4.66963">
        <ele>360.2</ele>
        <time>2025-12-11T13:40:39Z</time>
      </trkpt>
      <trkpt lat="45.73161" lon="4.66963">
        <ele>360.2</ele>
        <time>2025-12-11T13:40:40Z</time>
      </trkpt>
      <trkpt lat="45.73161" lon="4.66963">
        <ele>360.2</ele>
        <time>2025-12-11T13:40:41Z</time>
      </trkpt>
      <trkpt lat="45.73161" lon="4.66963">
        <ele>360.2</ele>
        <time>2025-12-11T13:40:42Z</time>
      </trkpt>
      <trkpt lat="45.73161" lon="4.66963">
        <ele>360.2</ele>
        <time>2025-12-11T13:40:43Z</time>
      </trkpt>
      <trkpt lat="45.73161" lon="4.66963">
        <ele>360.2</ele>
        <time>2025-12-11T13:40:44Z</time>
      </trkpt>
      <trkpt lat="45.73161" lon="4.66963">
        <ele>360.2</ele>
        <time>2025-12-11T13:40:45Z</time>
      </trkpt>
      <trkpt lat="45.73161" lon="4.66963">
        <ele>360.2</ele>
        <time>2025-12-11T13:40:46Z</time>
      </trkpt>
      <trkpt lat="45.73161" lon="4.66963">
        <ele>360.2</ele>
        <time>2025-12-11T13:40:47Z</time>
      </trkpt>
      <trkpt lat="45.73161" lon="4.66963">
        <ele>360.2</ele>
        <time>2025-12-11T13:40:48Z</time>
      </trkpt>
      <trkpt lat="45.73161" lon="4.66963">
        <ele>360.2</ele>
        <time>2025-12-11T13:40:49Z</time>
      </trkpt>
      <trkpt lat="45.73161" lon="4.66963">
        <ele>360.2</ele>
        <time>2025-12-11T13:40:50Z</time>
      </trkpt>
      <trkpt lat="45.73161" lon="4.66963">
        <ele>360.2</ele>
        <time>2025-12-11T13:40:51Z</time>
      </trkpt>
      <trkpt lat="45.73161" lon="4.66963">
        <ele>360.2</ele>
        <time>2025-12-11T13:40:52Z</time>
      </trkpt>
      <trkpt lat="45.73161" lon="4.66963">
        <ele>360.2</ele>
        <time>2025-12-11T13:40:53Z</time>
      </trkpt>
      <trkpt lat="45.73161" lon="4.66963">
        <ele>360.2</ele>
        <time>2025-12-11T13:40:54Z</time>
      </trkpt>
      <trkpt lat="45.73161" lon="4.66963">
        <ele>360.2</ele>
        <time>2025-12-11T13:40:55Z</time>
      </trkpt>
      <trkpt lat="45.73161" lon="4.66963">
        <ele>360.2</ele>
        <time>2025-12-11T13:40:56Z</time>
      </trkpt>
      <trkpt lat="45.73161" lon="4.66963">
        <ele>360.2</ele>
        <time>2025-12-11T13:40:57Z</time>
      </trkpt>
      <trkpt lat="45.73161" lon="4.66963">
        <ele>360.2</ele>
        <time>2025-12-11T13:40:58Z</time>
      </trkpt>
      <trkpt lat="45.73161" lon="4.66963">
        <ele>360.2</ele>
        <time>2025-12-11T13:40:59Z</time>
      </trkpt>
      <trkpt lat="45.73161" lon="4.66963">
        <ele>360.2</ele>
        <time>2025-12-11T13:41:00Z</time>
      </trkpt>
      <trkpt lat="45.73161" lon="4.66963">
        <ele>360.2</ele>
        <time>2025-12-11T13:41:01Z</time>
      </trkpt>
      <trkpt lat="45.73161" lon="4.66963">
        <ele>360.2</ele>
        <time>2025-12-11T13:41:02Z</time>
      </trkpt>
      <trkpt lat="45.73161" lon="4.66963">
        <ele>360.2</ele>
        <time>2025-12-11T13:41:03Z</time>
      </trkpt>
      <trkpt lat="45.73161" lon="4.66963">
        <ele>360.2</ele>
        <time>2025-12-11T13:41:04Z</time>
      </trkpt>
      <trkpt lat="45.73161" lon="4.66963">
        <ele>360.2</ele>
        <time>2025-12-11T13:41:05Z</time>
      </trkpt>
      <trkpt lat="45.73161" lon="4.66963">
        <ele>360.2</ele>
        <time>2025-12-11T13:41:06Z</time>
      </trkpt>
      <trkpt lat="45.73161" lon="4.66963">
        <ele>360.2</ele>
        <time>2025-12-11T13:41:07Z</time>
      </trkpt>
      <trkpt lat="45.73161" lon="4.66963">
        <ele>360.2</ele>
        <time>2025-12-11T13:41:08Z</time>
      </trkpt>
      <trkpt lat="45.73161" lon="4.66963">
        <ele>360.2</ele>
        <time>2025-12-11T13:41:09Z</time>
      </trkpt>
      <trkpt lat="45.73161" lon="4.66963">
        <ele>360.2</ele>
        <time>2025-12-11T13:41:10Z</time>
      </trkpt>
      <trkpt lat="45.73161" lon="4.66963">
        <ele>360.2</ele>
        <time>2025-12-11T13:41:11Z</time>
      </trkpt>
      <trkpt lat="45.73161" lon="4.66963">
        <ele>360.2</ele>
        <time>2025-12-11T13:41:12Z</time>
      </trkpt>
      <trkpt lat="45.73161" lon="4.66963">
        <ele>360.2</ele>
        <time>2025-12-11T13:41:13Z</time>
      </trkpt>
      <trkpt lat="45.73161" lon="4.66963">
        <ele>360.2</ele>
        <time>2025-12-11T13:41:14Z</time>
      </trkpt>
      <trkpt lat="45.73161" lon="4.66963">
        <ele>360.2</ele>
        <time>2025-12-11T13:41:15Z</time>
      </trkpt>
      <trkpt lat="45.73161" lon="4.66963">
        <ele>360.2</ele>
        <time>2025-12-11T13:41:16Z</time>
      </trkpt>
      <trkpt lat="45.73161" lon="4.66963">
        <ele>360.2</ele>
        <time>2025-12-11T13:41:17Z</time>
      </trkpt>
      <trkpt lat="45.73161" lon="4.66963">
        <ele>360.2</ele>
        <time>2025-12-11T13:41:18Z</time>
      </trkpt>
      <trkpt lat="45.73161" lon="4.66963">
        <ele>360.2</ele>
        <time>2025-12-11T13:41:19Z</time>
      </trkpt>
      <trkpt lat="45.73161" lon="4.66963">
        <ele>360.2</ele>
        <time>2025-12-11T13:41:20Z</time>
      </trkpt>
      <trkpt lat="45.73161" lon="4.66963">
        <ele>360.2</ele>
        <time>2025-12-11T13:41:21Z</time>
      </trkpt>
      <trkpt lat="45.73161" lon="4.66963">
        <ele>360.2</ele>
        <time>2025-12-11T13:41:22Z</time>
      </trkpt>
      <trkpt lat="45.73161" lon="4.66963">
        <ele>360.2</ele>
        <time>2025-12-11T13:41:23Z</time>
      </trkpt>
      <trkpt lat="45.73161" lon="4.66963">
        <ele>360.2</ele>
        <time>2025-12-11T13:41:24Z</time>
      </trkpt>
      <trkpt lat="45.73161" lon="4.66963">
        <ele>360.2</ele>
        <time>2025-12-11T13:41:25Z</time>
      </trkpt>
      <trkpt lat="45.73161" lon="4.66963">
        <ele>360.2</ele>
        <time>2025-12-11T13:41:26Z</time>
      </trkpt>
      <trkpt lat="45.73161" lon="4.66963">
        <ele>360.2</ele>
        <time>2025-12-11T13:41:27Z</time>
      </trkpt>
      <trkpt lat="45.73161" lon="4.66963">
        <ele>360.2</ele>
        <time>2025-12-11T13:41:28Z</time>
      </trkpt>
      <trkpt lat="45.73161" lon="4.66963">
        <ele>360.2</ele>
        <time>2025-12-11T13:41:29Z</time>
      </trkpt>
      <trkpt lat="45.73161" lon="4.66963">
        <ele>360.2</ele>
        <time>2025-12-11T13:41:30Z</time>
      </trkpt>
      <trkpt lat="45.73161" lon="4.66963">
        <ele>360.2</ele>
        <time>2025-12-11T13:41:31Z</time>
      </trkpt>
      <trkpt lat="45.73161" lon="4.66963">
        <ele>360.2</ele>
        <time>2025-12-11T13:41:32Z</time>
      </trkpt>
      <trkpt lat="45.73161" lon="4.66963">
        <ele>360.2</ele>
        <time>2025-12-11T13:41:33Z</time>
      </trkpt>
      <trkpt lat="45.73161" lon="4.66963">
        <ele>360.2</ele>
        <time>2025-12-11T13:41:34Z</time>
      </trkpt>
      <trkpt lat="45.73161" lon="4.66963">
        <ele>360.2</ele>
        <time>2025-12-11T13:41:35Z</time>
      </trkpt>
      <trkpt lat="45.73161" lon="4.66963">
        <ele>360.2</ele>
        <time>2025-12-11T13:41:36Z</time>
      </trkpt>
      <trkpt lat="45.73161" lon="4.66963">
        <ele>360.2</ele>
        <time>2025-12-11T13:41:37Z</time>
      </trkpt>
      <trkpt lat="45.73161" lon="4.66963">
        <ele>360.2</ele>
        <time>2025-12-11T13:41:38Z</time>
      </trkpt>
      <trkpt lat="45.73161" lon="4.66963">
        <ele>360.2</ele>
        <time>2025-12-11T13:41:39Z</time>
      </trkpt>
      <trkpt lat="45.73161" lon="4.66963">
        <ele>360.2</ele>
        <time>2025-12-11T13:41:40Z</time>
      </trkpt>
      <trkpt lat="45.73161" lon="4.66963">
        <ele>360.2</ele>
        <time>2025-12-11T13:41:41Z</time>
      </trkpt>
      <trkpt lat="45.73161" lon="4.66963">
        <ele>360.2</ele>
        <time>2025-12-11T13:41:42Z</time>
      </trkpt>
      <trkpt lat="45.73161" lon="4.66963">
        <ele>360.2</ele>
        <time>2025-12-11T13:41:43Z</time>
      </trkpt>
      <trkpt lat="45.73161" lon="4.66963">
        <ele>360.2</ele>
        <time>2025-12-11T13:41:44Z</time>
      </trkpt>
      <trkpt lat="45.73161" lon="4.66963">
        <ele>360.2</ele>
        <time>2025-12-11T13:41:45Z</time>
      </trkpt>
      <trkpt lat="45.73161" lon="4.66963">
        <ele>360.2</ele>
        <time>2025-12-11T13:41:46Z</time>
      </trkpt>
      <trkpt lat="45.73161" lon="4.66963">
        <ele>360.2</ele>
        <time>2025-12-11T13:41:47Z</time>
      </trkpt>
      <trkpt lat="45.73161" lon="4.66963">
        <ele>360.2</ele>
        <time>2025-12-11T13:41:48Z</time>
      </trkpt>
      <trkpt lat="45.73161" lon="4.66963">
        <ele>360.2</ele>
        <time>2025-12-11T13:41:49Z</time>
      </trkpt>
      <trkpt lat="45.73161" lon="4.66963">
        <ele>360.2</ele>
        <time>2025-12-11T13:41:50Z</time>
      </trkpt>
      <trkpt lat="45.73161" lon="4.66963">
        <ele>360.2</ele>
        <time>2025-12-11T13:41:51Z</time>
      </trkpt>
      <trkpt lat="45.73161" lon="4.66963">
        <ele>360.2</ele>
        <time>2025-12-11T13:41:52Z</time>
      </trkpt>
      <trkpt lat="45.73161" lon="4.66963">
        <ele>360.2</ele>
        <time>2025-12-11T13:41:53Z</time>
      </trkpt>
      <trkpt lat="45.73161" lon="4.66963">
        <ele>360.2</ele>
        <time>2025-12-11T13:41:54Z</time>
      </trkpt>
      <trkpt lat="45.73161" lon="4.66963">
        <ele>360.2</ele>
        <time>2025-12-11T13:41:55Z</time>
      </trkpt>
      <trkpt lat="45.73161" lon="4.66963">
        <ele>360.2</ele>
        <time>2025-12-11T13:41:56Z</time>
      </trkpt>
      <trkpt lat="45.73161" lon="4.66963">
        <ele>360.2</ele>
        <time>2025-12-11T13:41:57Z</time>
      </trkpt>
      <trkpt lat="45.73161" lon="4.66963">
        <ele>360.2</ele>
        <time>2025-12-11T13:41:58Z</time>
      </trkpt>
      <trkpt lat="45.73161" lon="4.66963">
        <ele>360.2</ele>
        <time>2025-12-11T13:41:59Z</time>
      </trkpt>
      <trkpt lat="45.73161" lon="4.66963">
        <ele>360.2</ele>
        <time>2025-12-11T13:42:00Z</time>
      </trkpt>
      <trkpt lat="45.73161" lon="4.66963">
        <ele>360.2</ele>
        <time>2025-12-11T13:42:01Z</time>
      </trkpt>
      <trkpt lat="45.73161" lon="4.66963">
        <ele>360.2</ele>
        <time>2025-12-11T13:42:02Z</time>
      </trkpt>
      <trkpt lat="45.73161" lon="4.66963">
        <ele>360.2</ele>
        <time>2025-12-11T13:42:03Z</time>
      </trkpt>
      <trkpt lat="45.73161" lon="4.66963">
        <ele>360.2</ele>
        <time>2025-12-11T13:42:04Z</time>
      </trkpt>
      <trkpt lat="45.73161" lon="4.66963">
        <ele>360.2</ele>
        <time>2025-12-11T13:42:05Z</time>
      </trkpt>
      <trkpt lat="45.73161" lon="4.66963">
        <ele>360.2</ele>
        <time>2025-12-11T13:42:06Z</time>
      </trkpt>
      <trkpt lat="45.73161" lon="4.66963">
        <ele>360.2</ele>
        <time>2025-12-11T13:42:07Z</time>
      </trkpt>
      <trkpt lat="45.73161" lon="4.66963">
        <ele>360.2</ele>
        <time>2025-12-11T13:42:08Z</time>
      </trkpt>
      <trkpt lat="45.73161" lon="4.66963">
        <ele>360.2</ele>
        <time>2025-12-11T13:42:09Z</time>
      </trkpt>
      <trkpt lat="45.73161" lon="4.66963">
        <ele>360.2</ele>
        <time>2025-12-11T13:42:10Z</time>
      </trkpt>
      <trkpt lat="45.73161" lon="4.66963">
        <ele>360.2</ele>
        <time>2025-12-11T13:42:11Z</time>
      </trkpt>
      <trkpt lat="45.73161" lon="4.66963">
        <ele>360.2</ele>
        <time>2025-12-11T13:42:12Z</time>
      </trkpt>
      <trkpt lat="45.73161" lon="4.66963">
        <ele>360.2</ele>
        <time>2025-12-11T13:42:13Z</time>
      </trkpt>
      <trkpt lat="45.73161" lon="4.66963">
        <ele>360.2</ele>
        <time>2025-12-11T13:42:14Z</time>
      </trkpt>
      <trkpt lat="45.73161" lon="4.66963">
        <ele>360.2</ele>
        <time>2025-12-11T13:42:15Z</time>
      </trkpt>
      <trkpt lat="45.73161" lon="4.66963">
        <ele>360.2</ele>
        <time>2025-12-11T13:42:16Z</time>
      </trkpt>
      <trkpt lat="45.73161" lon="4.66963">
        <ele>360.2</ele>
        <time>2025-12-11T13:42:17Z</time>
      </trkpt>
      <trkpt lat="45.73161" lon="4.66963">
        <ele>360.2</ele>
        <time>2025-12-11T13:42:18Z</time>
      </trkpt>
      <trkpt lat="45.73161" lon="4.66963">
        <ele>360.2</ele>
        <time>2025-12-11T13:42:19Z</time>
      </trkpt>
      <trkpt lat="45.73161" lon="4.66963">
        <ele>360.2</ele>
        <time>2025-12-11T13:42:20Z</time>
      </trkpt>
      <trkpt lat="45.73161" lon="4.66963">
        <ele>360.2</ele>
        <time>2025-12-11T13:42:21Z</time>
      </trkpt>
      <trkpt lat="45.73161" lon="4.66963">
        <ele>360.2</ele>
        <time>2025-12-11T13:42:22Z</time>
      </trkpt>
      <trkpt lat="45.73161" lon="4.66963">
        <ele>360.2</ele>
        <time>2025-12-11T13:42:23Z</time>
      </trkpt>
      <trkpt lat="45.73161" lon="4.66963">
        <ele>360.2</ele>
        <time>2025-12-11T13:42:24Z</time>
      </trkpt>
      <trkpt lat="45.73161" lon="4.66963">
        <ele>360.2</ele>
        <time>2025-12-11T13:42:25Z</time>
      </trkpt>
      <trkpt lat="45.73161" lon="4.66963">
        <ele>360.2</ele>
        <time>2025-12-11T13:42:26Z</time>
      </trkpt>
      <trkpt lat="45.73161" lon="4.66963">
        <ele>360.2</ele>
        <time>2025-12-11T13:42:27Z</time>
      </trkpt>
      <trkpt lat="45.73161" lon="4.66963">
        <ele>360.2</ele>
        <time>2025-12-11T13:42:28Z</time>
      </trkpt>
      <trkpt lat="45.73161" lon="4.66963">
        <ele>360.2</ele>
        <time>2025-12-11T13:42:29Z</time>
      </trkpt>
      <trkpt lat="45.73161" lon="4.66963">
        <ele>360.2</ele>
        <time>2025-12-11T13:42:30Z</time>
      </trkpt>
      <trkpt lat="45.73161" lon="4.66963">
        <ele>360.2</ele>
        <time>2025-12-11T13:42:31Z</time>
      </trkpt>
      <trkpt lat="45.73161" lon="4.66963">
        <ele>360.2</ele>
        <time>2025-12-11T13:42:32Z</time>
      </trkpt>
      <trkpt lat="45.73161" lon="4.66963">
        <ele>360.2</ele>
        <time>2025-12-11T13:42:33Z</time>
      </trkpt>
      <trkpt lat="45.73161" lon="4.66963">
        <ele>360.2</ele>
        <time>2025-12-11T13:42:34Z</time>
      </trkpt>
      <trkpt lat="45.73161" lon="4.66963">
        <ele>360.2</ele>
        <time>2025-12-11T13:42:35Z</time>
      </trkpt>
      <trkpt lat="45.73161" lon="4.66963">
        <ele>360.2</ele>
        <time>2025-12-11T13:42:36Z</time>
      </trkpt>
      <trkpt lat="45.73161" lon="4.66963">
        <ele>360.2</ele>
        <time>2025-12-11T13:42:37Z</time>
      </trkpt>
      <trkpt lat="45.73161" lon="4.66963">
        <ele>360.2</ele>
        <time>2025-12-11T13:42:38Z</time>
      </trkpt>
      <trkpt lat="45.73161" lon="4.66963">
        <ele>360.2</ele>
        <time>2025-12-11T13:42:39Z</time>
      </trkpt>
      <trkpt lat="45.73161" lon="4.66963">
        <ele>360.2</ele>
        <time>2025-12-11T13:42:40Z</time>
      </trkpt>
      <trkpt lat="45.73161" lon="4.66963">
        <ele>360.2</ele>
        <time>2025-12-11T13:42:41Z</time>
      </trkpt>
      <trkpt lat="45.73161" lon="4.66963">
        <ele>360.2</ele>
        <time>2025-12-11T13:42:42Z</time>
      </trkpt>
      <trkpt lat="45.73161" lon="4.66963">
        <ele>360.2</ele>
        <time>2025-12-11T13:42:43Z</time>
      </trkpt>
      <trkpt lat="45.73162" lon="4.66962">
        <ele>360.2</ele>
        <time>2025-12-11T13:42:44Z</time>
      </trkpt>
      <trkpt lat="45.73163" lon="4.66962">
        <ele>360.2</ele>
        <time>2025-12-11T13:42:45Z</time>
      </trkpt>
      <trkpt lat="45.73163" lon="4.66961">
        <ele>360.2</ele>
        <time>2025-12-11T13:42:46Z</time>
      </trkpt>
      <trkpt lat="45.73164" lon="4.6696">
        <ele>360.2</ele>
        <time>2025-12-11T13:42:47Z</time>
      </trkpt>
      <trkpt lat="45.73164" lon="4.66959">
        <ele>360.2</ele>
        <time>2025-12-11T13:42:48Z</time>
      </trkpt>
      <trkpt lat="45.73164" lon="4.66959">
        <ele>360.2</ele>
        <time>2025-12-11T13:42:49Z</time>
      </trkpt>
      <trkpt lat="45.73164" lon="4.66959">
        <ele>360.2</ele>
        <time>2025-12-11T13:42:50Z</time>
      </trkpt>
      <trkpt lat="45.73164" lon="4.66959">
        <ele>360.2</ele>
        <time>2025-12-11T13:42:51Z</time>
      </trkpt>
      <trkpt lat="45.73164" lon="4.66959">
        <ele>360.2</ele>
        <time>2025-12-11T13:42:52Z</time>
      </trkpt>
      <trkpt lat="45.73165" lon="4.66959">
        <ele>360.2</ele>
        <time>2025-12-11T13:42:53Z</time>
      </trkpt>
      <trkpt lat="45.73165" lon="4.66958">
        <ele>360.2</ele>
        <time>2025-12-11T13:42:54Z</time>
      </trkpt>
      <trkpt lat="45.73166" lon="4.66957">
        <ele>360.2</ele>
        <time>2025-12-11T13:42:55Z</time>
      </trkpt>
      <trkpt lat="45.73168" lon="4.66956">
        <ele>360.2</ele>
        <time>2025-12-11T13:42:56Z</time>
      </trkpt>
      <trkpt lat="45.7317" lon="4.66955">
        <ele>360</ele>
        <time>2025-12-11T13:42:57Z</time>
      </trkpt>
      <trkpt lat="45.73171" lon="4.66953">
        <ele>360.2</ele>
        <time>2025-12-11T13:42:58Z</time>
      </trkpt>
      <trkpt lat="45.73173" lon="4.66951">
        <ele>360.2</ele>
        <time>2025-12-11T13:42:59Z</time>
      </trkpt>
      <trkpt lat="45.73175" lon="4.6695">
        <ele>360.2</ele>
        <time>2025-12-11T13:43:00Z</time>
      </trkpt>
      <trkpt lat="45.73177" lon="4.66948">
        <ele>360.2</ele>
        <time>2025-12-11T13:43:01Z</time>
      </trkpt>
      <trkpt lat="45.73179" lon="4.66946">
        <ele>360.2</ele>
        <time>2025-12-11T13:43:02Z</time>
      </trkpt>
      <trkpt lat="45.73182" lon="4.66945">
        <ele>360.2</ele>
        <time>2025-12-11T13:43:03Z</time>
      </trkpt>
      <trkpt lat="45.73185" lon="4.66944">
        <ele>360.2</ele>
        <time>2025-12-11T13:43:04Z</time>
      </trkpt>
      <trkpt lat="45.73187" lon="4.66944">
        <ele>360.2</ele>
        <time>2025-12-11T13:43:05Z</time>
      </trkpt>
      <trkpt lat="45.7319" lon="4.66942">
        <ele>360.4</ele>
        <time>2025-12-11T13:43:06Z</time>
      </trkpt>
      <trkpt lat="45.73192" lon="4.66941">
        <ele>360.4</ele>
        <time>2025-12-11T13:43:07Z</time>
      </trkpt>
      <trkpt lat="45.73194" lon="4.66939">
        <ele>360.6</ele>
        <time>2025-12-11T13:43:08Z</time>
      </trkpt>
      <trkpt lat="45.73196" lon="4.66938">
        <ele>360.8</ele>
        <time>2025-12-11T13:43:09Z</time>
      </trkpt>
      <trkpt lat="45.73198" lon="4.66936">
        <ele>361</ele>
        <time>2025-12-11T13:43:10Z</time>
      </trkpt>
      <trkpt lat="45.732" lon="4.66934">
        <ele>361.2</ele>
        <time>2025-12-11T13:43:11Z</time>
      </trkpt>
      <trkpt lat="45.73202" lon="4.66932">
        <ele>361.4</ele>
        <time>2025-12-11T13:43:12Z</time>
      </trkpt>
      <trkpt lat="45.73204" lon="4.6693">
        <ele>361.4</ele>
        <time>2025-12-11T13:43:13Z</time>
      </trkpt>
      <trkpt lat="45.73205" lon="4.66927">
        <ele>361.6</ele>
        <time>2025-12-11T13:43:14Z</time>
      </trkpt>
      <trkpt lat="45.73207" lon="4.66925">
        <ele>361.8</ele>
        <time>2025-12-11T13:43:15Z</time>
      </trkpt>
      <trkpt lat="45.73209" lon="4.66923">
        <ele>362</ele>
        <time>2025-12-11T13:43:16Z</time>
      </trkpt>
      <trkpt lat="45.73211" lon="4.66921">
        <ele>362.2</ele>
        <time>2025-12-11T13:43:17Z</time>
      </trkpt>
      <trkpt lat="45.73213" lon="4.66919">
        <ele>362.4</ele>
        <time>2025-12-11T13:43:18Z</time>
      </trkpt>
      <trkpt lat="45.73214" lon="4.66917">
        <ele>362.6</ele>
        <time>2025-12-11T13:43:19Z</time>
      </trkpt>
      <trkpt lat="45.73216" lon="4.66915">
        <ele>362.8</ele>
        <time>2025-12-11T13:43:20Z</time>
      </trkpt>
      <trkpt lat="45.73218" lon="4.66912">
        <ele>363</ele>
        <time>2025-12-11T13:43:21Z</time>
      </trkpt>
      <trkpt lat="45.7322" lon="4.6691">
        <ele>363.2</ele>
        <time>2025-12-11T13:43:22Z</time>
      </trkpt>
      <trkpt lat="45.73221" lon="4.66908">
        <ele>363.4</ele>
        <time>2025-12-11T13:43:23Z</time>
      </trkpt>
      <trkpt lat="45.73223" lon="4.66906">
        <ele>363.6</ele>
        <time>2025-12-11T13:43:24Z</time>
      </trkpt>
      <trkpt lat="45.73225" lon="4.66904">
        <ele>363.8</ele>
        <time>2025-12-11T13:43:25Z</time>
      </trkpt>
      <trkpt lat="45.73226" lon="4.66902">
        <ele>364</ele>
        <time>2025-12-11T13:43:26Z</time>
      </trkpt>
      <trkpt lat="45.73228" lon="4.669">
        <ele>364</ele>
        <time>2025-12-11T13:43:27Z</time>
      </trkpt>
      <trkpt lat="45.73229" lon="4.66898">
        <ele>364.2</ele>
        <time>2025-12-11T13:43:28Z</time>
      </trkpt>
      <trkpt lat="45.73231" lon="4.66896">
        <ele>364.4</ele>
        <time>2025-12-11T13:43:29Z</time>
      </trkpt>
      <trkpt lat="45.73233" lon="4.66894">
        <ele>364.6</ele>
        <time>2025-12-11T13:43:30Z</time>
      </trkpt>
      <trkpt lat="45.73234" lon="4.66892">
        <ele>364.8</ele>
        <time>2025-12-11T13:43:31Z</time>
      </trkpt>
      <trkpt lat="45.73236" lon="4.66889">
        <ele>365</ele>
        <time>2025-12-11T13:43:32Z</time>
      </trkpt>
      <trkpt lat="45.73237" lon="4.66887">
        <ele>365.2</ele>
        <time>2025-12-11T13:43:33Z</time>
      </trkpt>
      <trkpt lat="45.73239" lon="4.66885">
        <ele>365.4</ele>
        <time>2025-12-11T13:43:34Z</time>
      </trkpt>
      <trkpt lat="45.73241" lon="4.66884">
        <ele>365.6</ele>
        <time>2025-12-11T13:43:35Z</time>
      </trkpt>
      <trkpt lat="45.73243" lon="4.66882">
        <ele>365.8</ele>
        <time>2025-12-11T13:43:36Z</time>
      </trkpt>
      <trkpt lat="45.73244" lon="4.66881">
        <ele>366</ele>
        <time>2025-12-11T13:43:37Z</time>
      </trkpt>
      <trkpt lat="45.73246" lon="4.66879">
        <ele>366.2</ele>
        <time>2025-12-11T13:43:38Z</time>
      </trkpt>
      <trkpt lat="45.73248" lon="4.66876">
        <ele>366.2</ele>
        <time>2025-12-11T13:43:39Z</time>
      </trkpt>
      <trkpt lat="45.73249" lon="4.66874">
        <ele>366.4</ele>
        <time>2025-12-11T13:43:40Z</time>
      </trkpt>
      <trkpt lat="45.73251" lon="4.66872">
        <ele>366.6</ele>
        <time>2025-12-11T13:43:41Z</time>
      </trkpt>
      <trkpt lat="45.73252" lon="4.66871">
        <ele>366.8</ele>
        <time>2025-12-11T13:43:42Z</time>
      </trkpt>
      <trkpt lat="45.73254" lon="4.66868">
        <ele>367</ele>
        <time>2025-12-11T13:43:43Z</time>
      </trkpt>
      <trkpt lat="45.73255" lon="4.66866">
        <ele>367.2</ele>
        <time>2025-12-11T13:43:44Z</time>
      </trkpt>
      <trkpt lat="45.73257" lon="4.66865">
        <ele>367.4</ele>
        <time>2025-12-11T13:43:45Z</time>
      </trkpt>
      <trkpt lat="45.73259" lon="4.66863">
        <ele>367.6</ele>
        <time>2025-12-11T13:43:46Z</time>
      </trkpt>
      <trkpt lat="45.7326" lon="4.66861">
        <ele>367.6</ele>
        <time>2025-12-11T13:43:47Z</time>
      </trkpt>
      <trkpt lat="45.73261" lon="4.66859">
        <ele>367.8</ele>
        <time>2025-12-11T13:43:48Z</time>
      </trkpt>
      <trkpt lat="45.73263" lon="4.66857">
        <ele>368</ele>
        <time>2025-12-11T13:43:49Z</time>
      </trkpt>
      <trkpt lat="45.73264" lon="4.66856">
        <ele>368.2</ele>
        <time>2025-12-11T13:43:50Z</time>
      </trkpt>
      <trkpt lat="45.73266" lon="4.66854">
        <ele>368.2</ele>
        <time>2025-12-11T13:43:51Z</time>
      </trkpt>
      <trkpt lat="45.73267" lon="4.66852">
        <ele>368.4</ele>
        <time>2025-12-11T13:43:52Z</time>
      </trkpt>
      <trkpt lat="45.73268" lon="4.6685">
        <ele>368.6</ele>
        <time>2025-12-11T13:43:53Z</time>
      </trkpt>
      <trkpt lat="45.7327" lon="4.66848">
        <ele>368.8</ele>
        <time>2025-12-11T13:43:54Z</time>
      </trkpt>
      <trkpt lat="45.73271" lon="4.66846">
        <ele>369</ele>
        <time>2025-12-11T13:43:55Z</time>
      </trkpt>
      <trkpt lat="45.73273" lon="4.66845">
        <ele>369</ele>
        <time>2025-12-11T13:43:56Z</time>
      </trkpt>
      <trkpt lat="45.73275" lon="4.66844">
        <ele>369.2</ele>
        <time>2025-12-11T13:43:57Z</time>
      </trkpt>
      <trkpt lat="45.73276" lon="4.66843">
        <ele>369.4</ele>
        <time>2025-12-11T13:43:58Z</time>
      </trkpt>
      <trkpt lat="45.73278" lon="4.66842">
        <ele>369.6</ele>
        <time>2025-12-11T13:43:59Z</time>
      </trkpt>
      <trkpt lat="45.7328" lon="4.6684">
        <ele>369.8</ele>
        <time>2025-12-11T13:44:00Z</time>
      </trkpt>
      <trkpt lat="45.73281" lon="4.66839">
        <ele>369.8</ele>
        <time>2025-12-11T13:44:01Z</time>
      </trkpt>
      <trkpt lat="45.73283" lon="4.66837">
        <ele>370</ele>
        <time>2025-12-11T13:44:02Z</time>
      </trkpt>
      <trkpt lat="45.73284" lon="4.66835">
        <ele>370.2</ele>
        <time>2025-12-11T13:44:03Z</time>
      </trkpt>
      <trkpt lat="45.73286" lon="4.66833">
        <ele>370.2</ele>
        <time>2025-12-11T13:44:04Z</time>
      </trkpt>
      <trkpt lat="45.73288" lon="4.66832">
        <ele>370.4</ele>
        <time>2025-12-11T13:44:05Z</time>
      </trkpt>
      <trkpt lat="45.73289" lon="4.6683">
        <ele>370.6</ele>
        <time>2025-12-11T13:44:06Z</time>
      </trkpt>
      <trkpt lat="45.7329" lon="4.66828">
        <ele>370.8</ele>
        <time>2025-12-11T13:44:07Z</time>
      </trkpt>
      <trkpt lat="45.73292" lon="4.66827">
        <ele>371</ele>
        <time>2025-12-11T13:44:08Z</time>
      </trkpt>
      <trkpt lat="45.73294" lon="4.66825">
        <ele>371</ele>
        <time>2025-12-11T13:44:09Z</time>
      </trkpt>
      <trkpt lat="45.73295" lon="4.66824">
        <ele>371.2</ele>
        <time>2025-12-11T13:44:10Z</time>
      </trkpt>
      <trkpt lat="45.73297" lon="4.66822">
        <ele>371.4</ele>
        <time>2025-12-11T13:44:11Z</time>
      </trkpt>
      <trkpt lat="45.73298" lon="4.6682">
        <ele>371.6</ele>
        <time>2025-12-11T13:44:12Z</time>
      </trkpt>
      <trkpt lat="45.733" lon="4.66819">
        <ele>371.8</ele>
        <time>2025-12-11T13:44:13Z</time>
      </trkpt>
      <trkpt lat="45.73301" lon="4.66817">
        <ele>372</ele>
        <time>2025-12-11T13:44:14Z</time>
      </trkpt>
      <trkpt lat="45.73303" lon="4.66815">
        <ele>372</ele>
        <time>2025-12-11T13:44:15Z</time>
      </trkpt>
      <trkpt lat="45.73304" lon="4.66813">
        <ele>372.2</ele>
        <time>2025-12-11T13:44:16Z</time>
      </trkpt>
      <trkpt lat="45.73305" lon="4.66811">
        <ele>372.4</ele>
        <time>2025-12-11T13:44:17Z</time>
      </trkpt>
      <trkpt lat="45.73307" lon="4.6681">
        <ele>372.6</ele>
        <time>2025-12-11T13:44:18Z</time>
      </trkpt>
      <trkpt lat="45.73308" lon="4.66808">
        <ele>372.8</ele>
        <time>2025-12-11T13:44:19Z</time>
      </trkpt>
      <trkpt lat="45.73309" lon="4.66807">
        <ele>373</ele>
        <time>2025-12-11T13:44:20Z</time>
      </trkpt>
      <trkpt lat="45.7331" lon="4.66805">
        <ele>373.2</ele>
        <time>2025-12-11T13:44:21Z</time>
      </trkpt>
      <trkpt lat="45.73311" lon="4.66804">
        <ele>373.4</ele>
        <time>2025-12-11T13:44:22Z</time>
      </trkpt>
      <trkpt lat="45.73313" lon="4.66803">
        <ele>373.4</ele>
        <time>2025-12-11T13:44:23Z</time>
      </trkpt>
      <trkpt lat="45.73314" lon="4.66802">
        <ele>373.6</ele>
        <time>2025-12-11T13:44:24Z</time>
      </trkpt>
      <trkpt lat="45.73315" lon="4.668">
        <ele>373.8</ele>
        <time>2025-12-11T13:44:25Z</time>
      </trkpt>
      <trkpt lat="45.73316" lon="4.66799">
        <ele>374</ele>
        <time>2025-12-11T13:44:26Z</time>
      </trkpt>
      <trkpt lat="45.73317" lon="4.66797">
        <ele>374.2</ele>
        <time>2025-12-11T13:44:27Z</time>
      </trkpt>
      <trkpt lat="45.73318" lon="4.66796">
        <ele>374.4</ele>
        <time>2025-12-11T13:44:28Z</time>
      </trkpt>
      <trkpt lat="45.73319" lon="4.66795">
        <ele>374.6</ele>
        <time>2025-12-11T13:44:29Z</time>
      </trkpt>
      <trkpt lat="45.7332" lon="4.66793">
        <ele>374.8</ele>
        <time>2025-12-11T13:44:30Z</time>
      </trkpt>
      <trkpt lat="45.73321" lon="4.66791">
        <ele>375</ele>
        <time>2025-12-11T13:44:31Z</time>
      </trkpt>
      <trkpt lat="45.73322" lon="4.6679">
        <ele>375.2</ele>
        <time>2025-12-11T13:44:32Z</time>
      </trkpt>
      <trkpt lat="45.73323" lon="4.66789">
        <ele>375.4</ele>
        <time>2025-12-11T13:44:33Z</time>
      </trkpt>
      <trkpt lat="45.73324" lon="4.66788">
        <ele>375.6</ele>
        <time>2025-12-11T13:44:34Z</time>
      </trkpt>
      <trkpt lat="45.73325" lon="4.66787">
        <ele>375.8</ele>
        <time>2025-12-11T13:44:35Z</time>
      </trkpt>
      <trkpt lat="45.73326" lon="4.66786">
        <ele>376</ele>
        <time>2025-12-11T13:44:36Z</time>
      </trkpt>
      <trkpt lat="45.73327" lon="4.66784">
        <ele>376.2</ele>
        <time>2025-12-11T13:44:37Z</time>
      </trkpt>
      <trkpt lat="45.73328" lon="4.66782">
        <ele>376.4</ele>
        <time>2025-12-11T13:44:38Z</time>
      </trkpt>
      <trkpt lat="45.73328" lon="4.6678">
        <ele>376.4</ele>
        <time>2025-12-11T13:44:39Z</time>
      </trkpt>
      <trkpt lat="45.73328" lon="4.66778">
        <ele>376.6</ele>
        <time>2025-12-11T13:44:40Z</time>
      </trkpt>
      <trkpt lat="45.73329" lon="4.66776">
        <ele>376.8</ele>
        <time>2025-12-11T13:44:41Z</time>
      </trkpt>
      <trkpt lat="45.73329" lon="4.66774">
        <ele>377</ele>
        <time>2025-12-11T13:44:42Z</time>
      </trkpt>
      <trkpt lat="45.7333" lon="4.66772">
        <ele>377.2</ele>
        <time>2025-12-11T13:44:43Z</time>
      </trkpt>
      <trkpt lat="45.73331" lon="4.6677">
        <ele>377.4</ele>
        <time>2025-12-11T13:44:44Z</time>
      </trkpt>
      <trkpt lat="45.73332" lon="4.66768">
        <ele>377.6</ele>
        <time>2025-12-11T13:44:45Z</time>
      </trkpt>
      <trkpt lat="45.73333" lon="4.66767">
        <ele>377.6</ele>
        <time>2025-12-11T13:44:46Z</time>
      </trkpt>
      <trkpt lat="45.73334" lon="4.66765">
        <ele>377.8</ele>
        <time>2025-12-11T13:44:47Z</time>
      </trkpt>
      <trkpt lat="45.73335" lon="4.66764">
        <ele>378</ele>
        <time>2025-12-11T13:44:48Z</time>
      </trkpt>
      <trkpt lat="45.73337" lon="4.66762">
        <ele>378</ele>
        <time>2025-12-11T13:44:49Z</time>
      </trkpt>
      <trkpt lat="45.73338" lon="4.66761">
        <ele>378.2</ele>
        <time>2025-12-11T13:44:50Z</time>
      </trkpt>
      <trkpt lat="45.73339" lon="4.66759">
        <ele>378.4</ele>
        <time>2025-12-11T13:44:51Z</time>
      </trkpt>
      <trkpt lat="45.7334" lon="4.66758">
        <ele>378.6</ele>
        <time>2025-12-11T13:44:52Z</time>
      </trkpt>
      <trkpt lat="45.73341" lon="4.66756">
        <ele>378.8</ele>
        <time>2025-12-11T13:44:53Z</time>
      </trkpt>
      <trkpt lat="45.73342" lon="4.66754">
        <ele>379</ele>
        <time>2025-12-11T13:44:54Z</time>
      </trkpt>
      <trkpt lat="45.73343" lon="4.66753">
        <ele>379.2</ele>
        <time>2025-12-11T13:44:55Z</time>
      </trkpt>
      <trkpt lat="45.73344" lon="4.66751">
        <ele>379.4</ele>
        <time>2025-12-11T13:44:56Z</time>
      </trkpt>
      <trkpt lat="45.73345" lon="4.6675">
        <ele>379.4</ele>
        <time>2025-12-11T13:44:57Z</time>
      </trkpt>
      <trkpt lat="45.73346" lon="4.66749">
        <ele>379.6</ele>
        <time>2025-12-11T13:44:58Z</time>
      </trkpt>
      <trkpt lat="45.73348" lon="4.66749">
        <ele>379.8</ele>
        <time>2025-12-11T13:44:59Z</time>
      </trkpt>
      <trkpt lat="45.73349" lon="4.66749">
        <ele>380</ele>
        <time>2025-12-11T13:45:00Z</time>
      </trkpt>
      <trkpt lat="45.7335" lon="4.66748">
        <ele>380.2</ele>
        <time>2025-12-11T13:45:01Z</time>
      </trkpt>
      <trkpt lat="45.73351" lon="4.66747">
        <ele>380.2</ele>
        <time>2025-12-11T13:45:02Z</time>
      </trkpt>
      <trkpt lat="45.73353" lon="4.66746">
        <ele>380.4</ele>
        <time>2025-12-11T13:45:03Z</time>
      </trkpt>
      <trkpt lat="45.73354" lon="4.66744">
        <ele>380.6</ele>
        <time>2025-12-11T13:45:04Z</time>
      </trkpt>
      <trkpt lat="45.73355" lon="4.66743">
        <ele>380.8</ele>
        <time>2025-12-11T13:45:05Z</time>
      </trkpt>
      <trkpt lat="45.73356" lon="4.66742">
        <ele>381</ele>
        <time>2025-12-11T13:45:06Z</time>
      </trkpt>
      <trkpt lat="45.73357" lon="4.6674">
        <ele>381.2</ele>
        <time>2025-12-11T13:45:07Z</time>
      </trkpt>
      <trkpt lat="45.73359" lon="4.66739">
        <ele>381.4</ele>
        <time>2025-12-11T13:45:08Z</time>
      </trkpt>
      <trkpt lat="45.7336" lon="4.66738">
        <ele>381.6</ele>
        <time>2025-12-11T13:45:09Z</time>
      </trkpt>
      <trkpt lat="45.73361" lon="4.66737">
        <ele>381.6</ele>
        <time>2025-12-11T13:45:10Z</time>
      </trkpt>
      <trkpt lat="45.73363" lon="4.66735">
        <ele>381.8</ele>
        <time>2025-12-11T13:45:11Z</time>
      </trkpt>
      <trkpt lat="45.73364" lon="4.66734">
        <ele>382</ele>
        <time>2025-12-11T13:45:12Z</time>
      </trkpt>
      <trkpt lat="45.73365" lon="4.66733">
        <ele>382.2</ele>
        <time>2025-12-11T13:45:13Z</time>
      </trkpt>
      <trkpt lat="45.73366" lon="4.66733">
        <ele>382.4</ele>
        <time>2025-12-11T13:45:14Z</time>
      </trkpt>
      <trkpt lat="45.73367" lon="4.66732">
        <ele>382.6</ele>
        <time>2025-12-11T13:45:15Z</time>
      </trkpt>
      <trkpt lat="45.73369" lon="4.66731">
        <ele>382.6</ele>
        <time>2025-12-11T13:45:16Z</time>
      </trkpt>
      <trkpt lat="45.7337" lon="4.6673">
        <ele>382.8</ele>
        <time>2025-12-11T13:45:17Z</time>
      </trkpt>
      <trkpt lat="45.73371" lon="4.66729">
        <ele>383</ele>
        <time>2025-12-11T13:45:18Z</time>
      </trkpt>
      <trkpt lat="45.73372" lon="4.66728">
        <ele>383.2</ele>
        <time>2025-12-11T13:45:19Z</time>
      </trkpt>
      <trkpt lat="45.73374" lon="4.66727">
        <ele>383.4</ele>
        <time>2025-12-11T13:45:20Z</time>
      </trkpt>
      <trkpt lat="45.73375" lon="4.66726">
        <ele>383.4</ele>
        <time>2025-12-11T13:45:21Z</time>
      </trkpt>
      <trkpt lat="45.73376" lon="4.66725">
        <ele>383.6</ele>
        <time>2025-12-11T13:45:22Z</time>
      </trkpt>
      <trkpt lat="45.73377" lon="4.66724">
        <ele>383.8</ele>
        <time>2025-12-11T13:45:23Z</time>
      </trkpt>
      <trkpt lat="45.73379" lon="4.66723">
        <ele>384</ele>
        <time>2025-12-11T13:45:24Z</time>
      </trkpt>
      <trkpt lat="45.7338" lon="4.66722">
        <ele>384</ele>
        <time>2025-12-11T13:45:25Z</time>
      </trkpt>
      <trkpt lat="45.73381" lon="4.6672">
        <ele>384.2</ele>
        <time>2025-12-11T13:45:26Z</time>
      </trkpt>
      <trkpt lat="45.73382" lon="4.66719">
        <ele>384.4</ele>
        <time>2025-12-11T13:45:27Z</time>
      </trkpt>
      <trkpt lat="45.73383" lon="4.66718">
        <ele>384.4</ele>
        <time>2025-12-11T13:45:28Z</time>
      </trkpt>
      <trkpt lat="45.73384" lon="4.66717">
        <ele>384.6</ele>
        <time>2025-12-11T13:45:29Z</time>
      </trkpt>
      <trkpt lat="45.73386" lon="4.66716">
        <ele>384.8</ele>
        <time>2025-12-11T13:45:30Z</time>
      </trkpt>
      <trkpt lat="45.73387" lon="4.66716">
        <ele>385</ele>
        <time>2025-12-11T13:45:31Z</time>
      </trkpt>
      <trkpt lat="45.73388" lon="4.66715">
        <ele>385</ele>
        <time>2025-12-11T13:45:32Z</time>
      </trkpt>
      <trkpt lat="45.73389" lon="4.66714">
        <ele>385.2</ele>
        <time>2025-12-11T13:45:33Z</time>
      </trkpt>
      <trkpt lat="45.7339" lon="4.66713">
        <ele>385.4</ele>
        <time>2025-12-11T13:45:34Z</time>
      </trkpt>
      <trkpt lat="45.73392" lon="4.66712">
        <ele>385.4</ele>
        <time>2025-12-11T13:45:35Z</time>
      </trkpt>
      <trkpt lat="45.73393" lon="4.66711">
        <ele>385.6</ele>
        <time>2025-12-11T13:45:36Z</time>
      </trkpt>
      <trkpt lat="45.73394" lon="4.66709">
        <ele>385.8</ele>
        <time>2025-12-11T13:45:37Z</time>
      </trkpt>
      <trkpt lat="45.73396" lon="4.66708">
        <ele>385.8</ele>
        <time>2025-12-11T13:45:38Z</time>
      </trkpt>
      <trkpt lat="45.73397" lon="4.66707">
        <ele>386</ele>
        <time>2025-12-11T13:45:39Z</time>
      </trkpt>
      <trkpt lat="45.73398" lon="4.66705">
        <ele>386.2</ele>
        <time>2025-12-11T13:45:40Z</time>
      </trkpt>
      <trkpt lat="45.73399" lon="4.66705">
        <ele>386.4</ele>
        <time>2025-12-11T13:45:41Z</time>
      </trkpt>
      <trkpt lat="45.734" lon="4.66704">
        <ele>386.4</ele>
        <time>2025-12-11T13:45:42Z</time>
      </trkpt>
      <trkpt lat="45.73402" lon="4.66703">
        <ele>386.6</ele>
        <time>2025-12-11T13:45:43Z</time>
      </trkpt>
      <trkpt lat="45.73403" lon="4.66701">
        <ele>386.8</ele>
        <time>2025-12-11T13:45:44Z</time>
      </trkpt>
      <trkpt lat="45.73404" lon="4.667">
        <ele>387</ele>
        <time>2025-12-11T13:45:45Z</time>
      </trkpt>
      <trkpt lat="45.73405" lon="4.66699">
        <ele>387.2</ele>
        <time>2025-12-11T13:45:46Z</time>
      </trkpt>
      <trkpt lat="45.73407" lon="4.66699">
        <ele>387.2</ele>
        <time>2025-12-11T13:45:47Z</time>
      </trkpt>
      <trkpt lat="45.73407" lon="4.66698">
        <ele>387.4</ele>
        <time>2025-12-11T13:45:48Z</time>
      </trkpt>
      <trkpt lat="45.73408" lon="4.66697">
        <ele>387.6</ele>
        <time>2025-12-11T13:45:49Z</time>
      </trkpt>
      <trkpt lat="45.73408" lon="4.66697">
        <ele>387.8</ele>
        <time>2025-12-11T13:45:50Z</time>
      </trkpt>
      <trkpt lat="45.73408" lon="4.66697">
        <ele>388</ele>
        <time>2025-12-11T13:45:51Z</time>
      </trkpt>
      <trkpt lat="45.73408" lon="4.66697">
        <ele>388</ele>
        <time>2025-12-11T13:45:52Z</time>
      </trkpt>
      <trkpt lat="45.73409" lon="4.66696">
        <ele>388.2</ele>
        <time>2025-12-11T13:45:53Z</time>
      </trkpt>
      <trkpt lat="45.7341" lon="4.66696">
        <ele>388.2</ele>
        <time>2025-12-11T13:45:54Z</time>
      </trkpt>
      <trkpt lat="45.7341" lon="4.66695">
        <ele>388.2</ele>
        <time>2025-12-11T13:45:55Z</time>
      </trkpt>
      <trkpt lat="45.73411" lon="4.66695">
        <ele>388.4</ele>
        <time>2025-12-11T13:45:56Z</time>
      </trkpt>
      <trkpt lat="45.73411" lon="4.66694">
        <ele>388.4</ele>
        <time>2025-12-11T13:45:57Z</time>
      </trkpt>
      <trkpt lat="45.73412" lon="4.66694">
        <ele>388.6</ele>
        <time>2025-12-11T13:45:58Z</time>
      </trkpt>
      <trkpt lat="45.73413" lon="4.66693">
        <ele>388.8</ele>
        <time>2025-12-11T13:45:59Z</time>
      </trkpt>
      <trkpt lat="45.73414" lon="4.66692">
        <ele>388.8</ele>
        <time>2025-12-11T13:46:00Z</time>
      </trkpt>
      <trkpt lat="45.73414" lon="4.66691">
        <ele>389</ele>
        <time>2025-12-11T13:46:01Z</time>
      </trkpt>
      <trkpt lat="45.73415" lon="4.6669">
        <ele>389</ele>
        <time>2025-12-11T13:46:02Z</time>
      </trkpt>
      <trkpt lat="45.73416" lon="4.66689">
        <ele>389.2</ele>
        <time>2025-12-11T13:46:03Z</time>
      </trkpt>
      <trkpt lat="45.73416" lon="4.66689">
        <ele>389.4</ele>
        <time>2025-12-11T13:46:04Z</time>
      </trkpt>
      <trkpt lat="45.73416" lon="4.66689">
        <ele>389.4</ele>
        <time>2025-12-11T13:46:05Z</time>
      </trkpt>
      <trkpt lat="45.73416" lon="4.66689">
        <ele>389.6</ele>
        <time>2025-12-11T13:46:06Z</time>
      </trkpt>
      <trkpt lat="45.73416" lon="4.66688">
        <ele>389.6</ele>
        <time>2025-12-11T13:46:07Z</time>
      </trkpt>
      <trkpt lat="45.73417" lon="4.66688">
        <ele>389.8</ele>
        <time>2025-12-11T13:46:08Z</time>
      </trkpt>
      <trkpt lat="45.73418" lon="4.66688">
        <ele>389.8</ele>
        <time>2025-12-11T13:46:09Z</time>
      </trkpt>
      <trkpt lat="45.7342" lon="4.66688">
        <ele>389.8</ele>
        <time>2025-12-11T13:46:10Z</time>
      </trkpt>
      <trkpt lat="45.73421" lon="4.66687">
        <ele>389.8</ele>
        <time>2025-12-11T13:46:11Z</time>
      </trkpt>
      <trkpt lat="45.73422" lon="4.66687">
        <ele>389.8</ele>
        <time>2025-12-11T13:46:12Z</time>
      </trkpt>
      <trkpt lat="45.73423" lon="4.66685">
        <ele>389.6</ele>
        <time>2025-12-11T13:46:13Z</time>
      </trkpt>
      <trkpt lat="45.73424" lon="4.66684">
        <ele>389.6</ele>
        <time>2025-12-11T13:46:14Z</time>
      </trkpt>
      <trkpt lat="45.73424" lon="4.66683">
        <ele>389.6</ele>
        <time>2025-12-11T13:46:15Z</time>
      </trkpt>
      <trkpt lat="45.73424" lon="4.66683">
        <ele>389.8</ele>
        <time>2025-12-11T13:46:16Z</time>
      </trkpt>
      <trkpt lat="45.73425" lon="4.66682">
        <ele>389.8</ele>
        <time>2025-12-11T13:46:17Z</time>
      </trkpt>
      <trkpt lat="45.73425" lon="4.66681">
        <ele>389.8</ele>
        <time>2025-12-11T13:46:18Z</time>
      </trkpt>
      <trkpt lat="45.73426" lon="4.6668">
        <ele>390</ele>
        <time>2025-12-11T13:46:19Z</time>
      </trkpt>
      <trkpt lat="45.73427" lon="4.66679">
        <ele>390.2</ele>
        <time>2025-12-11T13:46:20Z</time>
      </trkpt>
      <trkpt lat="45.73427" lon="4.66678">
        <ele>390.2</ele>
        <time>2025-12-11T13:46:21Z</time>
      </trkpt>
      <trkpt lat="45.73428" lon="4.66677">
        <ele>390.4</ele>
        <time>2025-12-11T13:46:22Z</time>
      </trkpt>
      <trkpt lat="45.73428" lon="4.66677">
        <ele>390.6</ele>
        <time>2025-12-11T13:46:23Z</time>
      </trkpt>
      <trkpt lat="45.73428" lon="4.66677">
        <ele>390.6</ele>
        <time>2025-12-11T13:46:24Z</time>
      </trkpt>
      <trkpt lat="45.73428" lon="4.66677">
        <ele>390.8</ele>
        <time>2025-12-11T13:46:25Z</time>
      </trkpt>
      <trkpt lat="45.73428" lon="4.66677">
        <ele>390.8</ele>
        <time>2025-12-11T13:46:26Z</time>
      </trkpt>
      <trkpt lat="45.73428" lon="4.66677">
        <ele>390.8</ele>
        <time>2025-12-11T13:46:27Z</time>
      </trkpt>
      <trkpt lat="45.73428" lon="4.66677">
        <ele>390.8</ele>
        <time>2025-12-11T13:46:28Z</time>
      </trkpt>
      <trkpt lat="45.73428" lon="4.66677">
        <ele>390.8</ele>
        <time>2025-12-11T13:46:29Z</time>
      </trkpt>
      <trkpt lat="45.73428" lon="4.66677">
        <ele>390.8</ele>
        <time>2025-12-11T13:46:30Z</time>
      </trkpt>
      <trkpt lat="45.73428" lon="4.66677">
        <ele>390.8</ele>
        <time>2025-12-11T13:46:31Z</time>
      </trkpt>
      <trkpt lat="45.73428" lon="4.66677">
        <ele>390.8</ele>
        <time>2025-12-11T13:46:32Z</time>
      </trkpt>
      <trkpt lat="45.73428" lon="4.66677">
        <ele>390.8</ele>
        <time>2025-12-11T13:46:33Z</time>
      </trkpt>
      <trkpt lat="45.73428" lon="4.66676">
        <ele>390.8</ele>
        <time>2025-12-11T13:46:34Z</time>
      </trkpt>
      <trkpt lat="45.73429" lon="4.66676">
        <ele>390.8</ele>
        <time>2025-12-11T13:46:35Z</time>
      </trkpt>
      <trkpt lat="45.7343" lon="4.66675">
        <ele>390.8</ele>
        <time>2025-12-11T13:46:36Z</time>
      </trkpt>
      <trkpt lat="45.73431" lon="4.66673">
        <ele>390.8</ele>
        <time>2025-12-11T13:46:37Z</time>
      </trkpt>
      <trkpt lat="45.73433" lon="4.66672">
        <ele>390.8</ele>
        <time>2025-12-11T13:46:38Z</time>
      </trkpt>
      <trkpt lat="45.73435" lon="4.66671">
        <ele>391</ele>
        <time>2025-12-11T13:46:39Z</time>
      </trkpt>
      <trkpt lat="45.73436" lon="4.6667">
        <ele>391.2</ele>
        <time>2025-12-11T13:46:40Z</time>
      </trkpt>
      <trkpt lat="45.73437" lon="4.66668">
        <ele>391.4</ele>
        <time>2025-12-11T13:46:41Z</time>
      </trkpt>
      <trkpt lat="45.73438" lon="4.66667">
        <ele>391.4</ele>
        <time>2025-12-11T13:46:42Z</time>
      </trkpt>
      <trkpt lat="45.7344" lon="4.66666">
        <ele>391.6</ele>
        <time>2025-12-11T13:46:43Z</time>
      </trkpt>
      <trkpt lat="45.73441" lon="4.66665">
        <ele>391.8</ele>
        <time>2025-12-11T13:46:44Z</time>
      </trkpt>
      <trkpt lat="45.73443" lon="4.66663">
        <ele>392</ele>
        <time>2025-12-11T13:46:45Z</time>
      </trkpt>
      <trkpt lat="45.73445" lon="4.66662">
        <ele>392.2</ele>
        <time>2025-12-11T13:46:46Z</time>
      </trkpt>
      <trkpt lat="45.73446" lon="4.66661">
        <ele>392.4</ele>
        <time>2025-12-11T13:46:47Z</time>
      </trkpt>
      <trkpt lat="45.73448" lon="4.6666">
        <ele>392.6</ele>
        <time>2025-12-11T13:46:48Z</time>
      </trkpt>
      <trkpt lat="45.7345" lon="4.66659">
        <ele>392.8</ele>
        <time>2025-12-11T13:46:49Z</time>
      </trkpt>
      <trkpt lat="45.73451" lon="4.66658">
        <ele>392.8</ele>
        <time>2025-12-11T13:46:50Z</time>
      </trkpt>
      <trkpt lat="45.73452" lon="4.66657">
        <ele>393</ele>
        <time>2025-12-11T13:46:51Z</time>
      </trkpt>
      <trkpt lat="45.73453" lon="4.66656">
        <ele>393.2</ele>
        <time>2025-12-11T13:46:52Z</time>
      </trkpt>
      <trkpt lat="45.73455" lon="4.66655">
        <ele>393.4</ele>
        <time>2025-12-11T13:46:53Z</time>
      </trkpt>
      <trkpt lat="45.73456" lon="4.66654">
        <ele>393.6</ele>
        <time>2025-12-11T13:46:54Z</time>
      </trkpt>
      <trkpt lat="45.73457" lon="4.66653">
        <ele>393.8</ele>
        <time>2025-12-11T13:46:55Z</time>
      </trkpt>
      <trkpt lat="45.73458" lon="4.66652">
        <ele>394</ele>
        <time>2025-12-11T13:46:56Z</time>
      </trkpt>
      <trkpt lat="45.73459" lon="4.66651">
        <ele>394.2</ele>
        <time>2025-12-11T13:46:57Z</time>
      </trkpt>
      <trkpt lat="45.7346" lon="4.6665">
        <ele>394.4</ele>
        <time>2025-12-11T13:46:58Z</time>
      </trkpt>
      <trkpt lat="45.73461" lon="4.66649">
        <ele>394.6</ele>
        <time>2025-12-11T13:46:59Z</time>
      </trkpt>
      <trkpt lat="45.73462" lon="4.66648">
        <ele>394.8</ele>
        <time>2025-12-11T13:47:00Z</time>
      </trkpt>
      <trkpt lat="45.73463" lon="4.66647">
        <ele>395</ele>
        <time>2025-12-11T13:47:01Z</time>
      </trkpt>
      <trkpt lat="45.73465" lon="4.66646">
        <ele>395.2</ele>
        <time>2025-12-11T13:47:02Z</time>
      </trkpt>
      <trkpt lat="45.73467" lon="4.66645">
        <ele>395.6</ele>
        <time>2025-12-11T13:47:03Z</time>
      </trkpt>
      <trkpt lat="45.73468" lon="4.66644">
        <ele>395.8</ele>
        <time>2025-12-11T13:47:04Z</time>
      </trkpt>
      <trkpt lat="45.7347" lon="4.66642">
        <ele>396</ele>
        <time>2025-12-11T13:47:05Z</time>
      </trkpt>
      <trkpt lat="45.73471" lon="4.6664">
        <ele>396</ele>
        <time>2025-12-11T13:47:06Z</time>
      </trkpt>
      <trkpt lat="45.73472" lon="4.66639">
        <ele>396.2</ele>
        <time>2025-12-11T13:47:07Z</time>
      </trkpt>
      <trkpt lat="45.73474" lon="4.66638">
        <ele>396.4</ele>
        <time>2025-12-11T13:47:08Z</time>
      </trkpt>
      <trkpt lat="45.73475" lon="4.66637">
        <ele>396.6</ele>
        <time>2025-12-11T13:47:09Z</time>
      </trkpt>
      <trkpt lat="45.73476" lon="4.66636">
        <ele>396.8</ele>
        <time>2025-12-11T13:47:10Z</time>
      </trkpt>
      <trkpt lat="45.73478" lon="4.66634">
        <ele>397</ele>
        <time>2025-12-11T13:47:11Z</time>
      </trkpt>
      <trkpt lat="45.7348" lon="4.66633">
        <ele>397.2</ele>
        <time>2025-12-11T13:47:12Z</time>
      </trkpt>
      <trkpt lat="45.7348" lon="4.66633">
        <ele>397.4</ele>
        <time>2025-12-11T13:47:13Z</time>
      </trkpt>
      <trkpt lat="45.73481" lon="4.66632">
        <ele>397.6</ele>
        <time>2025-12-11T13:47:14Z</time>
      </trkpt>
      <trkpt lat="45.73483" lon="4.66632">
        <ele>397.8</ele>
        <time>2025-12-11T13:47:15Z</time>
      </trkpt>
      <trkpt lat="45.73485" lon="4.66631">
        <ele>398</ele>
        <time>2025-12-11T13:47:16Z</time>
      </trkpt>
      <trkpt lat="45.73486" lon="4.66629">
        <ele>398.2</ele>
        <time>2025-12-11T13:47:17Z</time>
      </trkpt>
      <trkpt lat="45.73488" lon="4.66628">
        <ele>398.2</ele>
        <time>2025-12-11T13:47:18Z</time>
      </trkpt>
      <trkpt lat="45.7349" lon="4.66627">
        <ele>398.4</ele>
        <time>2025-12-11T13:47:19Z</time>
      </trkpt>
      <trkpt lat="45.73491" lon="4.66626">
        <ele>398.6</ele>
        <time>2025-12-11T13:47:20Z</time>
      </trkpt>
      <trkpt lat="45.73493" lon="4.66624">
        <ele>398.8</ele>
        <time>2025-12-11T13:47:21Z</time>
      </trkpt>
      <trkpt lat="45.73495" lon="4.66623">
        <ele>399</ele>
        <time>2025-12-11T13:47:22Z</time>
      </trkpt>
      <trkpt lat="45.73496" lon="4.66622">
        <ele>399.2</ele>
        <time>2025-12-11T13:47:23Z</time>
      </trkpt>
      <trkpt lat="45.73497" lon="4.66621">
        <ele>399.4</ele>
        <time>2025-12-11T13:47:24Z</time>
      </trkpt>
      <trkpt lat="45.73499" lon="4.66619">
        <ele>399.6</ele>
        <time>2025-12-11T13:47:25Z</time>
      </trkpt>
      <trkpt lat="45.735" lon="4.66618">
        <ele>399.8</ele>
        <time>2025-12-11T13:47:26Z</time>
      </trkpt>
      <trkpt lat="45.73502" lon="4.66617">
        <ele>400</ele>
        <time>2025-12-11T13:47:27Z</time>
      </trkpt>
      <trkpt lat="45.73504" lon="4.66616">
        <ele>400.2</ele>
        <time>2025-12-11T13:47:28Z</time>
      </trkpt>
      <trkpt lat="45.73505" lon="4.66616">
        <ele>400.2</ele>
        <time>2025-12-11T13:47:29Z</time>
      </trkpt>
      <trkpt lat="45.73507" lon="4.66615">
        <ele>400.4</ele>
        <time>2025-12-11T13:47:30Z</time>
      </trkpt>
      <trkpt lat="45.73508" lon="4.66613">
        <ele>400.6</ele>
        <time>2025-12-11T13:47:31Z</time>
      </trkpt>
      <trkpt lat="45.7351" lon="4.66612">
        <ele>400.8</ele>
        <time>2025-12-11T13:47:32Z</time>
      </trkpt>
      <trkpt lat="45.73511" lon="4.66611">
        <ele>401</ele>
        <time>2025-12-11T13:47:33Z</time>
      </trkpt>
      <trkpt lat="45.73512" lon="4.6661">
        <ele>401.2</ele>
        <time>2025-12-11T13:47:34Z</time>
      </trkpt>
      <trkpt lat="45.73514" lon="4.66609">
        <ele>401.4</ele>
        <time>2025-12-11T13:47:35Z</time>
      </trkpt>
      <trkpt lat="45.73515" lon="4.66608">
        <ele>401.4</ele>
        <time>2025-12-11T13:47:36Z</time>
      </trkpt>
      <trkpt lat="45.73517" lon="4.66607">
        <ele>401.6</ele>
        <time>2025-12-11T13:47:37Z</time>
      </trkpt>
      <trkpt lat="45.73518" lon="4.66607">
        <ele>401.8</ele>
        <time>2025-12-11T13:47:38Z</time>
      </trkpt>
      <trkpt lat="45.73519" lon="4.66606">
        <ele>401.8</ele>
        <time>2025-12-11T13:47:39Z</time>
      </trkpt>
      <trkpt lat="45.7352" lon="4.66604">
        <ele>402</ele>
        <time>2025-12-11T13:47:40Z</time>
      </trkpt>
      <trkpt lat="45.73522" lon="4.66603">
        <ele>402.2</ele>
        <time>2025-12-11T13:47:41Z</time>
      </trkpt>
      <trkpt lat="45.73524" lon="4.66602">
        <ele>402.4</ele>
        <time>2025-12-11T13:47:42Z</time>
      </trkpt>
      <trkpt lat="45.73525" lon="4.66601">
        <ele>402.6</ele>
        <time>2025-12-11T13:47:43Z</time>
      </trkpt>
      <trkpt lat="45.73526" lon="4.66599">
        <ele>402.8</ele>
        <time>2025-12-11T13:47:44Z</time>
      </trkpt>
      <trkpt lat="45.73527" lon="4.66598">
        <ele>403</ele>
        <time>2025-12-11T13:47:45Z</time>
      </trkpt>
      <trkpt lat="45.73528" lon="4.66597">
        <ele>403.2</ele>
        <time>2025-12-11T13:47:46Z</time>
      </trkpt>
      <trkpt lat="45.73529" lon="4.66596">
        <ele>403.2</ele>
        <time>2025-12-11T13:47:47Z</time>
      </trkpt>
      <trkpt lat="45.7353" lon="4.66594">
        <ele>403.4</ele>
        <time>2025-12-11T13:47:48Z</time>
      </trkpt>
      <trkpt lat="45.73532" lon="4.66593">
        <ele>403.6</ele>
        <time>2025-12-11T13:47:49Z</time>
      </trkpt>
      <trkpt lat="45.73533" lon="4.66592">
        <ele>403.8</ele>
        <time>2025-12-11T13:47:50Z</time>
      </trkpt>
      <trkpt lat="45.73534" lon="4.6659">
        <ele>403.8</ele>
        <time>2025-12-11T13:47:51Z</time>
      </trkpt>
      <trkpt lat="45.73535" lon="4.66588">
        <ele>404</ele>
        <time>2025-12-11T13:47:52Z</time>
      </trkpt>
      <trkpt lat="45.73536" lon="4.66587">
        <ele>404.2</ele>
        <time>2025-12-11T13:47:53Z</time>
      </trkpt>
      <trkpt lat="45.73537" lon="4.66585">
        <ele>404.4</ele>
        <time>2025-12-11T13:47:54Z</time>
      </trkpt>
      <trkpt lat="45.73538" lon="4.66584">
        <ele>404.6</ele>
        <time>2025-12-11T13:47:55Z</time>
      </trkpt>
      <trkpt lat="45.73539" lon="4.66582">
        <ele>404.8</ele>
        <time>2025-12-11T13:47:56Z</time>
      </trkpt>
      <trkpt lat="45.73541" lon="4.66582">
        <ele>405</ele>
        <time>2025-12-11T13:47:57Z</time>
      </trkpt>
      <trkpt lat="45.73542" lon="4.66581">
        <ele>405.2</ele>
        <time>2025-12-11T13:47:58Z</time>
      </trkpt>
      <trkpt lat="45.73543" lon="4.66581">
        <ele>405.4</ele>
        <time>2025-12-11T13:47:59Z</time>
      </trkpt>
      <trkpt lat="45.73544" lon="4.6658">
        <ele>405.6</ele>
        <time>2025-12-11T13:48:00Z</time>
      </trkpt>
      <trkpt lat="45.73545" lon="4.66579">
        <ele>405.8</ele>
        <time>2025-12-11T13:48:01Z</time>
      </trkpt>
      <trkpt lat="45.73547" lon="4.66578">
        <ele>406</ele>
        <time>2025-12-11T13:48:02Z</time>
      </trkpt>
      <trkpt lat="45.73548" lon="4.66577">
        <ele>406</ele>
        <time>2025-12-11T13:48:03Z</time>
      </trkpt>
      <trkpt lat="45.73549" lon="4.66575">
        <ele>406.2</ele>
        <time>2025-12-11T13:48:04Z</time>
      </trkpt>
      <trkpt lat="45.7355" lon="4.66574">
        <ele>406.4</ele>
        <time>2025-12-11T13:48:05Z</time>
      </trkpt>
      <trkpt lat="45.73551" lon="4.66572">
        <ele>406.6</ele>
        <time>2025-12-11T13:48:06Z</time>
      </trkpt>
      <trkpt lat="45.73551" lon="4.66571">
        <ele>406.8</ele>
        <time>2025-12-11T13:48:07Z</time>
      </trkpt>
      <trkpt lat="45.73552" lon="4.66569">
        <ele>407</ele>
        <time>2025-12-11T13:48:08Z</time>
      </trkpt>
      <trkpt lat="45.73554" lon="4.66568">
        <ele>407.2</ele>
        <time>2025-12-11T13:48:09Z</time>
      </trkpt>
      <trkpt lat="45.73555" lon="4.66566">
        <ele>407.4</ele>
        <time>2025-12-11T13:48:10Z</time>
      </trkpt>
      <trkpt lat="45.73555" lon="4.66564">
        <ele>407.6</ele>
        <time>2025-12-11T13:48:11Z</time>
      </trkpt>
      <trkpt lat="45.73555" lon="4.66562">
        <ele>407.8</ele>
        <time>2025-12-11T13:48:12Z</time>
      </trkpt>
      <trkpt lat="45.73555" lon="4.6656">
        <ele>408</ele>
        <time>2025-12-11T13:48:13Z</time>
      </trkpt>
      <trkpt lat="45.73556" lon="4.66559">
        <ele>408.2</ele>
        <time>2025-12-11T13:48:14Z</time>
      </trkpt>
      <trkpt lat="45.73557" lon="4.66558">
        <ele>408.4</ele>
        <time>2025-12-11T13:48:15Z</time>
      </trkpt>
      <trkpt lat="45.73558" lon="4.66556">
        <ele>408.6</ele>
        <time>2025-12-11T13:48:16Z</time>
      </trkpt>
      <trkpt lat="45.73557" lon="4.66554">
        <ele>408.8</ele>
        <time>2025-12-11T13:48:17Z</time>
      </trkpt>
      <trkpt lat="45.73557" lon="4.66552">
        <ele>409.2</ele>
        <time>2025-12-11T13:48:18Z</time>
      </trkpt>
      <trkpt lat="45.73558" lon="4.6655">
        <ele>409.4</ele>
        <time>2025-12-11T13:48:19Z</time>
      </trkpt>
      <trkpt lat="45.73559" lon="4.66549">
        <ele>409.6</ele>
        <time>2025-12-11T13:48:20Z</time>
      </trkpt>
      <trkpt lat="45.73559" lon="4.66547">
        <ele>409.8</ele>
        <time>2025-12-11T13:48:21Z</time>
      </trkpt>
      <trkpt lat="45.7356" lon="4.66545">
        <ele>410</ele>
        <time>2025-12-11T13:48:22Z</time>
      </trkpt>
      <trkpt lat="45.7356" lon="4.66543">
        <ele>410.2</ele>
        <time>2025-12-11T13:48:23Z</time>
      </trkpt>
      <trkpt lat="45.73561" lon="4.66541">
        <ele>410.4</ele>
        <time>2025-12-11T13:48:24Z</time>
      </trkpt>
      <trkpt lat="45.73561" lon="4.66539">
        <ele>410.6</ele>
        <time>2025-12-11T13:48:25Z</time>
      </trkpt>
      <trkpt lat="45.73562" lon="4.66537">
        <ele>410.8</ele>
        <time>2025-12-11T13:48:26Z</time>
      </trkpt>
      <trkpt lat="45.73562" lon="4.66535">
        <ele>411</ele>
        <time>2025-12-11T13:48:27Z</time>
      </trkpt>
      <trkpt lat="45.73563" lon="4.66534">
        <ele>411</ele>
        <time>2025-12-11T13:48:28Z</time>
      </trkpt>
      <trkpt lat="45.73564" lon="4.66531">
        <ele>411.2</ele>
        <time>2025-12-11T13:48:29Z</time>
      </trkpt>
      <trkpt lat="45.73564" lon="4.66529">
        <ele>411.2</ele>
        <time>2025-12-11T13:48:30Z</time>
      </trkpt>
      <trkpt lat="45.73564" lon="4.66527">
        <ele>411.2</ele>
        <time>2025-12-11T13:48:31Z</time>
      </trkpt>
      <trkpt lat="45.73564" lon="4.66526">
        <ele>411.2</ele>
        <time>2025-12-11T13:48:32Z</time>
      </trkpt>
      <trkpt lat="45.73564" lon="4.66526">
        <ele>411.4</ele>
        <time>2025-12-11T13:48:33Z</time>
      </trkpt>
      <trkpt lat="45.73564" lon="4.66526">
        <ele>411.4</ele>
        <time>2025-12-11T13:48:34Z</time>
      </trkpt>
      <trkpt lat="45.73564" lon="4.66526">
        <ele>411.4</ele>
        <time>2025-12-11T13:48:35Z</time>
      </trkpt>
      <trkpt lat="45.73564" lon="4.66526">
        <ele>411.6</ele>
        <time>2025-12-11T13:48:36Z</time>
      </trkpt>
      <trkpt lat="45.73564" lon="4.66526">
        <ele>411.6</ele>
        <time>2025-12-11T13:48:37Z</time>
      </trkpt>
      <trkpt lat="45.73564" lon="4.66526">
        <ele>411.6</ele>
        <time>2025-12-11T13:48:38Z</time>
      </trkpt>
      <trkpt lat="45.73564" lon="4.66526">
        <ele>411.6</ele>
        <time>2025-12-11T13:48:39Z</time>
      </trkpt>
      <trkpt lat="45.73564" lon="4.66526">
        <ele>411.6</ele>
        <time>2025-12-11T13:48:40Z</time>
      </trkpt>
      <trkpt lat="45.73564" lon="4.66526">
        <ele>411.6</ele>
        <time>2025-12-11T13:48:41Z</time>
      </trkpt>
      <trkpt lat="45.73564" lon="4.66526">
        <ele>411.4</ele>
        <time>2025-12-11T13:48:42Z</time>
      </trkpt>
      <trkpt lat="45.73564" lon="4.66526">
        <ele>411.4</ele>
        <time>2025-12-11T13:48:43Z</time>
      </trkpt>
      <trkpt lat="45.73564" lon="4.66526">
        <ele>411.6</ele>
        <time>2025-12-11T13:48:44Z</time>
      </trkpt>
      <trkpt lat="45.73564" lon="4.66526">
        <ele>411.6</ele>
        <time>2025-12-11T13:48:45Z</time>
      </trkpt>
      <trkpt lat="45.73564" lon="4.66526">
        <ele>411.6</ele>
        <time>2025-12-11T13:48:46Z</time>
      </trkpt>
      <trkpt lat="45.73564" lon="4.66526">
        <ele>411.6</ele>
        <time>2025-12-11T13:48:47Z</time>
      </trkpt>
      <trkpt lat="45.73564" lon="4.66526">
        <ele>411.6</ele>
        <time>2025-12-11T13:48:48Z</time>
      </trkpt>
      <trkpt lat="45.73565" lon="4.66526">
        <ele>411.6</ele>
        <time>2025-12-11T13:48:49Z</time>
      </trkpt>
      <trkpt lat="45.73565" lon="4.66526">
        <ele>411.6</ele>
        <time>2025-12-11T13:48:50Z</time>
      </trkpt>
      <trkpt lat="45.73566" lon="4.66525">
        <ele>411.6</ele>
        <time>2025-12-11T13:48:51Z</time>
      </trkpt>
      <trkpt lat="45.73567" lon="4.66524">
        <ele>411.6</ele>
        <time>2025-12-11T13:48:52Z</time>
      </trkpt>
      <trkpt lat="45.73568" lon="4.66522">
        <ele>411.8</ele>
        <time>2025-12-11T13:48:53Z</time>
      </trkpt>
      <trkpt lat="45.73569" lon="4.66521">
        <ele>411.8</ele>
        <time>2025-12-11T13:48:54Z</time>
      </trkpt>
      <trkpt lat="45.7357" lon="4.66519">
        <ele>412</ele>
        <time>2025-12-11T13:48:55Z</time>
      </trkpt>
      <trkpt lat="45.73571" lon="4.66518">
        <ele>412.2</ele>
        <time>2025-12-11T13:48:56Z</time>
      </trkpt>
      <trkpt lat="45.73572" lon="4.66516">
        <ele>412.4</ele>
        <time>2025-12-11T13:48:57Z</time>
      </trkpt>
      <trkpt lat="45.73574" lon="4.66515">
        <ele>412.6</ele>
        <time>2025-12-11T13:48:58Z</time>
      </trkpt>
      <trkpt lat="45.73575" lon="4.66513">
        <ele>412.8</ele>
        <time>2025-12-11T13:48:59Z</time>
      </trkpt>
      <trkpt lat="45.73577" lon="4.66512">
        <ele>413</ele>
        <time>2025-12-11T13:49:00Z</time>
      </trkpt>
      <trkpt lat="45.73578" lon="4.66511">
        <ele>413.2</ele>
        <time>2025-12-11T13:49:01Z</time>
      </trkpt>
      <trkpt lat="45.73579" lon="4.6651">
        <ele>413.4</ele>
        <time>2025-12-11T13:49:02Z</time>
      </trkpt>
      <trkpt lat="45.73581" lon="4.6651">
        <ele>413.4</ele>
        <time>2025-12-11T13:49:03Z</time>
      </trkpt>
      <trkpt lat="45.73582" lon="4.6651">
        <ele>413.6</ele>
        <time>2025-12-11T13:49:04Z</time>
      </trkpt>
      <trkpt lat="45.73584" lon="4.66509">
        <ele>413.8</ele>
        <time>2025-12-11T13:49:05Z</time>
      </trkpt>
      <trkpt lat="45.73586" lon="4.66508">
        <ele>414</ele>
        <time>2025-12-11T13:49:06Z</time>
      </trkpt>
      <trkpt lat="45.73587" lon="4.66507">
        <ele>414.2</ele>
        <time>2025-12-11T13:49:07Z</time>
      </trkpt>
      <trkpt lat="45.73589" lon="4.66506">
        <ele>414.4</ele>
        <time>2025-12-11T13:49:08Z</time>
      </trkpt>
      <trkpt lat="45.7359" lon="4.66505">
        <ele>414.6</ele>
        <time>2025-12-11T13:49:09Z</time>
      </trkpt>
      <trkpt lat="45.73592" lon="4.66505">
        <ele>414.8</ele>
        <time>2025-12-11T13:49:10Z</time>
      </trkpt>
      <trkpt lat="45.73594" lon="4.66504">
        <ele>414.8</ele>
        <time>2025-12-11T13:49:11Z</time>
      </trkpt>
      <trkpt lat="45.73595" lon="4.66503">
        <ele>415</ele>
        <time>2025-12-11T13:49:12Z</time>
      </trkpt>
      <trkpt lat="45.73597" lon="4.66501">
        <ele>415.2</ele>
        <time>2025-12-11T13:49:13Z</time>
      </trkpt>
      <trkpt lat="45.73598" lon="4.665">
        <ele>415.4</ele>
        <time>2025-12-11T13:49:14Z</time>
      </trkpt>
      <trkpt lat="45.73599" lon="4.66499">
        <ele>415.4</ele>
        <time>2025-12-11T13:49:15Z</time>
      </trkpt>
      <trkpt lat="45.73601" lon="4.66498">
        <ele>415.6</ele>
        <time>2025-12-11T13:49:16Z</time>
      </trkpt>
      <trkpt lat="45.73602" lon="4.66497">
        <ele>415.8</ele>
        <time>2025-12-11T13:49:17Z</time>
      </trkpt>
      <trkpt lat="45.73604" lon="4.66496">
        <ele>416</ele>
        <time>2025-12-11T13:49:18Z</time>
      </trkpt>
      <trkpt lat="45.73605" lon="4.66495">
        <ele>416.2</ele>
        <time>2025-12-11T13:49:19Z</time>
      </trkpt>
      <trkpt lat="45.73606" lon="4.66493">
        <ele>416.4</ele>
        <time>2025-12-11T13:49:20Z</time>
      </trkpt>
      <trkpt lat="45.73608" lon="4.66492">
        <ele>416.6</ele>
        <time>2025-12-11T13:49:21Z</time>
      </trkpt>
      <trkpt lat="45.73609" lon="4.66491">
        <ele>416.8</ele>
        <time>2025-12-11T13:49:22Z</time>
      </trkpt>
      <trkpt lat="45.7361" lon="4.6649">
        <ele>417</ele>
        <time>2025-12-11T13:49:23Z</time>
      </trkpt>
      <trkpt lat="45.73612" lon="4.66489">
        <ele>417</ele>
        <time>2025-12-11T13:49:24Z</time>
      </trkpt>
      <trkpt lat="45.73613" lon="4.66487">
        <ele>417.2</ele>
        <time>2025-12-11T13:49:25Z</time>
      </trkpt>
      <trkpt lat="45.73614" lon="4.66486">
        <ele>417.4</ele>
        <time>2025-12-11T13:49:26Z</time>
      </trkpt>
      <trkpt lat="45.73616" lon="4.66484">
        <ele>417.6</ele>
        <time>2025-12-11T13:49:27Z</time>
      </trkpt>
      <trkpt lat="45.73617" lon="4.66483">
        <ele>417.8</ele>
        <time>2025-12-11T13:49:28Z</time>
      </trkpt>
      <trkpt lat="45.73618" lon="4.66482">
        <ele>418</ele>
        <time>2025-12-11T13:49:29Z</time>
      </trkpt>
      <trkpt lat="45.7362" lon="4.66481">
        <ele>418.2</ele>
        <time>2025-12-11T13:49:30Z</time>
      </trkpt>
      <trkpt lat="45.73621" lon="4.6648">
        <ele>418.4</ele>
        <time>2025-12-11T13:49:31Z</time>
      </trkpt>
      <trkpt lat="45.73623" lon="4.66479">
        <ele>418.6</ele>
        <time>2025-12-11T13:49:32Z</time>
      </trkpt>
      <trkpt lat="45.73624" lon="4.66478">
        <ele>418.8</ele>
        <time>2025-12-11T13:49:33Z</time>
      </trkpt>
      <trkpt lat="45.73625" lon="4.66477">
        <ele>419</ele>
        <time>2025-12-11T13:49:34Z</time>
      </trkpt>
      <trkpt lat="45.73626" lon="4.66476">
        <ele>419.2</ele>
        <time>2025-12-11T13:49:35Z</time>
      </trkpt>
      <trkpt lat="45.73628" lon="4.66474">
        <ele>419.4</ele>
        <time>2025-12-11T13:49:36Z</time>
      </trkpt>
      <trkpt lat="45.73629" lon="4.66473">
        <ele>419.4</ele>
        <time>2025-12-11T13:49:37Z</time>
      </trkpt>
      <trkpt lat="45.7363" lon="4.66472">
        <ele>419.6</ele>
        <time>2025-12-11T13:49:38Z</time>
      </trkpt>
      <trkpt lat="45.73631" lon="4.66471">
        <ele>419.8</ele>
        <time>2025-12-11T13:49:39Z</time>
      </trkpt>
      <trkpt lat="45.73633" lon="4.6647">
        <ele>420</ele>
        <time>2025-12-11T13:49:40Z</time>
      </trkpt>
      <trkpt lat="45.73634" lon="4.6647">
        <ele>420.2</ele>
        <time>2025-12-11T13:49:41Z</time>
      </trkpt>
      <trkpt lat="45.73636" lon="4.66469">
        <ele>420.4</ele>
        <time>2025-12-11T13:49:42Z</time>
      </trkpt>
      <trkpt lat="45.73637" lon="4.66468">
        <ele>420.6</ele>
        <time>2025-12-11T13:49:43Z</time>
      </trkpt>
      <trkpt lat="45.73638" lon="4.66468">
        <ele>420.8</ele>
        <time>2025-12-11T13:49:44Z</time>
      </trkpt>
      <trkpt lat="45.7364" lon="4.66468">
        <ele>421</ele>
        <time>2025-12-11T13:49:45Z</time>
      </trkpt>
      <trkpt lat="45.73641" lon="4.66467">
        <ele>421.2</ele>
        <time>2025-12-11T13:49:46Z</time>
      </trkpt>
      <trkpt lat="45.73642" lon="4.66465">
        <ele>421.4</ele>
        <time>2025-12-11T13:49:47Z</time>
      </trkpt>
      <trkpt lat="45.73643" lon="4.66464">
        <ele>421.4</ele>
        <time>2025-12-11T13:49:48Z</time>
      </trkpt>
      <trkpt lat="45.73645" lon="4.66462">
        <ele>421.6</ele>
        <time>2025-12-11T13:49:49Z</time>
      </trkpt>
      <trkpt lat="45.73646" lon="4.66461">
        <ele>421.8</ele>
        <time>2025-12-11T13:49:50Z</time>
      </trkpt>
      <trkpt lat="45.73647" lon="4.6646">
        <ele>422</ele>
        <time>2025-12-11T13:49:51Z</time>
      </trkpt>
      <trkpt lat="45.73649" lon="4.66459">
        <ele>422.2</ele>
        <time>2025-12-11T13:49:52Z</time>
      </trkpt>
      <trkpt lat="45.7365" lon="4.66459">
        <ele>422.4</ele>
        <time>2025-12-11T13:49:53Z</time>
      </trkpt>
      <trkpt lat="45.73651" lon="4.66458">
        <ele>422.6</ele>
        <time>2025-12-11T13:49:54Z</time>
      </trkpt>
      <trkpt lat="45.73653" lon="4.66458">
        <ele>422.8</ele>
        <time>2025-12-11T13:49:55Z</time>
      </trkpt>
      <trkpt lat="45.73654" lon="4.66457">
        <ele>423</ele>
        <time>2025-12-11T13:49:56Z</time>
      </trkpt>
      <trkpt lat="45.73655" lon="4.66456">
        <ele>423.2</ele>
        <time>2025-12-11T13:49:57Z</time>
      </trkpt>
      <trkpt lat="45.73657" lon="4.66455">
        <ele>423.4</ele>
        <time>2025-12-11T13:49:58Z</time>
      </trkpt>
      <trkpt lat="45.73658" lon="4.66453">
        <ele>423.6</ele>
        <time>2025-12-11T13:49:59Z</time>
      </trkpt>
      <trkpt lat="45.73659" lon="4.66451">
        <ele>423.8</ele>
        <time>2025-12-11T13:50:00Z</time>
      </trkpt>
      <trkpt lat="45.7366" lon="4.6645">
        <ele>424</ele>
        <time>2025-12-11T13:50:01Z</time>
      </trkpt>
      <trkpt lat="45.73661" lon="4.66449">
        <ele>424.2</ele>
        <time>2025-12-11T13:50:02Z</time>
      </trkpt>
      <trkpt lat="45.73663" lon="4.66448">
        <ele>424.4</ele>
        <time>2025-12-11T13:50:03Z</time>
      </trkpt>
      <trkpt lat="45.73664" lon="4.66448">
        <ele>424.6</ele>
        <time>2025-12-11T13:50:04Z</time>
      </trkpt>
      <trkpt lat="45.73665" lon="4.66448">
        <ele>424.8</ele>
        <time>2025-12-11T13:50:05Z</time>
      </trkpt>
      <trkpt lat="45.73667" lon="4.66448">
        <ele>425</ele>
        <time>2025-12-11T13:50:06Z</time>
      </trkpt>
      <trkpt lat="45.73668" lon="4.66447">
        <ele>425.2</ele>
        <time>2025-12-11T13:50:07Z</time>
      </trkpt>
      <trkpt lat="45.73669" lon="4.66446">
        <ele>425.4</ele>
        <time>2025-12-11T13:50:08Z</time>
      </trkpt>
      <trkpt lat="45.73669" lon="4.66445">
        <ele>425.4</ele>
        <time>2025-12-11T13:50:09Z</time>
      </trkpt>
      <trkpt lat="45.7367" lon="4.66443">
        <ele>425.6</ele>
        <time>2025-12-11T13:50:10Z</time>
      </trkpt>
      <trkpt lat="45.7367" lon="4.66441">
        <ele>425.8</ele>
        <time>2025-12-11T13:50:11Z</time>
      </trkpt>
      <trkpt lat="45.73671" lon="4.6644">
        <ele>426</ele>
        <time>2025-12-11T13:50:12Z</time>
      </trkpt>
      <trkpt lat="45.73673" lon="4.6644">
        <ele>426.2</ele>
        <time>2025-12-11T13:50:13Z</time>
      </trkpt>
      <trkpt lat="45.73674" lon="4.6644">
        <ele>426.4</ele>
        <time>2025-12-11T13:50:14Z</time>
      </trkpt>
      <trkpt lat="45.73675" lon="4.66439">
        <ele>426.6</ele>
        <time>2025-12-11T13:50:15Z</time>
      </trkpt>
      <trkpt lat="45.73677" lon="4.66439">
        <ele>426.8</ele>
        <time>2025-12-11T13:50:16Z</time>
      </trkpt>
      <trkpt lat="45.73678" lon="4.66438">
        <ele>427</ele>
        <time>2025-12-11T13:50:17Z</time>
      </trkpt>
      <trkpt lat="45.73679" lon="4.66437">
        <ele>427.2</ele>
        <time>2025-12-11T13:50:18Z</time>
      </trkpt>
      <trkpt lat="45.7368" lon="4.66436">
        <ele>427.4</ele>
        <time>2025-12-11T13:50:19Z</time>
      </trkpt>
      <trkpt lat="45.73681" lon="4.66434">
        <ele>427.4</ele>
        <time>2025-12-11T13:50:20Z</time>
      </trkpt>
      <trkpt lat="45.73682" lon="4.66433">
        <ele>427.6</ele>
        <time>2025-12-11T13:50:21Z</time>
      </trkpt>
      <trkpt lat="45.73683" lon="4.66432">
        <ele>427.8</ele>
        <time>2025-12-11T13:50:22Z</time>
      </trkpt>
      <trkpt lat="45.73684" lon="4.66432">
        <ele>428</ele>
        <time>2025-12-11T13:50:23Z</time>
      </trkpt>
      <trkpt lat="45.73685" lon="4.66432">
        <ele>428.2</ele>
        <time>2025-12-11T13:50:24Z</time>
      </trkpt>
      <trkpt lat="45.73686" lon="4.66431">
        <ele>428.4</ele>
        <time>2025-12-11T13:50:25Z</time>
      </trkpt>
      <trkpt lat="45.73687" lon="4.6643">
        <ele>428.6</ele>
        <time>2025-12-11T13:50:26Z</time>
      </trkpt>
      <trkpt lat="45.73688" lon="4.66429">
        <ele>428.8</ele>
        <time>2025-12-11T13:50:27Z</time>
      </trkpt>
      <trkpt lat="45.7369" lon="4.66428">
        <ele>429</ele>
        <time>2025-12-11T13:50:28Z</time>
      </trkpt>
      <trkpt lat="45.7369" lon="4.66427">
        <ele>429.2</ele>
        <time>2025-12-11T13:50:29Z</time>
      </trkpt>
      <trkpt lat="45.73691" lon="4.66426">
        <ele>429.4</ele>
        <time>2025-12-11T13:50:30Z</time>
      </trkpt>
      <trkpt lat="45.73692" lon="4.66425">
        <ele>429.6</ele>
        <time>2025-12-11T13:50:31Z</time>
      </trkpt>
      <trkpt lat="45.73693" lon="4.66424">
        <ele>429.8</ele>
        <time>2025-12-11T13:50:32Z</time>
      </trkpt>
      <trkpt lat="45.73694" lon="4.66422">
        <ele>430</ele>
        <time>2025-12-11T13:50:33Z</time>
      </trkpt>
      <trkpt lat="45.73695" lon="4.66421">
        <ele>430</ele>
        <time>2025-12-11T13:50:34Z</time>
      </trkpt>
      <trkpt lat="45.73696" lon="4.6642">
        <ele>430.2</ele>
        <time>2025-12-11T13:50:35Z</time>
      </trkpt>
      <trkpt lat="45.73698" lon="4.66419">
        <ele>430.4</ele>
        <time>2025-12-11T13:50:36Z</time>
      </trkpt>
      <trkpt lat="45.73698" lon="4.66418">
        <ele>430.6</ele>
        <time>2025-12-11T13:50:37Z</time>
      </trkpt>
      <trkpt lat="45.737" lon="4.66417">
        <ele>430.8</ele>
        <time>2025-12-11T13:50:38Z</time>
      </trkpt>
      <trkpt lat="45.73701" lon="4.66416">
        <ele>431</ele>
        <time>2025-12-11T13:50:39Z</time>
      </trkpt>
      <trkpt lat="45.73702" lon="4.66414">
        <ele>431.2</ele>
        <time>2025-12-11T13:50:40Z</time>
      </trkpt>
      <trkpt lat="45.73703" lon="4.66412">
        <ele>431.2</ele>
        <time>2025-12-11T13:50:41Z</time>
      </trkpt>
      <trkpt lat="45.73704" lon="4.6641">
        <ele>431.4</ele>
        <time>2025-12-11T13:50:42Z</time>
      </trkpt>
      <trkpt lat="45.73706" lon="4.66409">
        <ele>431.6</ele>
        <time>2025-12-11T13:50:43Z</time>
      </trkpt>
      <trkpt lat="45.73707" lon="4.66407">
        <ele>431.6</ele>
        <time>2025-12-11T13:50:44Z</time>
      </trkpt>
      <trkpt lat="45.73708" lon="4.66405">
        <ele>431.6</ele>
        <time>2025-12-11T13:50:45Z</time>
      </trkpt>
      <trkpt lat="45.73709" lon="4.66404">
        <ele>431.8</ele>
        <time>2025-12-11T13:50:46Z</time>
      </trkpt>
      <trkpt lat="45.73711" lon="4.66402">
        <ele>431.8</ele>
        <time>2025-12-11T13:50:47Z</time>
      </trkpt>
      <trkpt lat="45.73712" lon="4.66401">
        <ele>431.8</ele>
        <time>2025-12-11T13:50:48Z</time>
      </trkpt>
      <trkpt lat="45.73713" lon="4.664">
        <ele>432</ele>
        <time>2025-12-11T13:50:49Z</time>
      </trkpt>
      <trkpt lat="45.73714" lon="4.66398">
        <ele>432.2</ele>
        <time>2025-12-11T13:50:50Z</time>
      </trkpt>
      <trkpt lat="45.73714" lon="4.66396">
        <ele>432.4</ele>
        <time>2025-12-11T13:50:51Z</time>
      </trkpt>
      <trkpt lat="45.73715" lon="4.66395">
        <ele>432.6</ele>
        <time>2025-12-11T13:50:52Z</time>
      </trkpt>
      <trkpt lat="45.73716" lon="4.66395">
        <ele>432.8</ele>
        <time>2025-12-11T13:50:53Z</time>
      </trkpt>
      <trkpt lat="45.73718" lon="4.66395">
        <ele>433</ele>
        <time>2025-12-11T13:50:54Z</time>
      </trkpt>
      <trkpt lat="45.73719" lon="4.66396">
        <ele>433.2</ele>
        <time>2025-12-11T13:50:55Z</time>
      </trkpt>
      <trkpt lat="45.73721" lon="4.66396">
        <ele>433.4</ele>
        <time>2025-12-11T13:50:56Z</time>
      </trkpt>
      <trkpt lat="45.73722" lon="4.66395">
        <ele>433.6</ele>
        <time>2025-12-11T13:50:57Z</time>
      </trkpt>
      <trkpt lat="45.73723" lon="4.66394">
        <ele>433.8</ele>
        <time>2025-12-11T13:50:58Z</time>
      </trkpt>
      <trkpt lat="45.73723" lon="4.66392">
        <ele>434</ele>
        <time>2025-12-11T13:50:59Z</time>
      </trkpt>
      <trkpt lat="45.73724" lon="4.6639">
        <ele>434.2</ele>
        <time>2025-12-11T13:51:00Z</time>
      </trkpt>
      <trkpt lat="45.73725" lon="4.66389">
        <ele>434.4</ele>
        <time>2025-12-11T13:51:01Z</time>
      </trkpt>
      <trkpt lat="45.73726" lon="4.66388">
        <ele>434.6</ele>
        <time>2025-12-11T13:51:02Z</time>
      </trkpt>
      <trkpt lat="45.73727" lon="4.66387">
        <ele>434.8</ele>
        <time>2025-12-11T13:51:03Z</time>
      </trkpt>
      <trkpt lat="45.73728" lon="4.66388">
        <ele>435</ele>
        <time>2025-12-11T13:51:04Z</time>
      </trkpt>
      <trkpt lat="45.73729" lon="4.66389">
        <ele>435</ele>
        <time>2025-12-11T13:51:05Z</time>
      </trkpt>
      <trkpt lat="45.73731" lon="4.66388">
        <ele>435.2</ele>
        <time>2025-12-11T13:51:06Z</time>
      </trkpt>
      <trkpt lat="45.73732" lon="4.66388">
        <ele>435.4</ele>
        <time>2025-12-11T13:51:07Z</time>
      </trkpt>
      <trkpt lat="45.73733" lon="4.66387">
        <ele>435.6</ele>
        <time>2025-12-11T13:51:08Z</time>
      </trkpt>
      <trkpt lat="45.73735" lon="4.66386">
        <ele>435.8</ele>
        <time>2025-12-11T13:51:09Z</time>
      </trkpt>
      <trkpt lat="45.73736" lon="4.66386">
        <ele>436</ele>
        <time>2025-12-11T13:51:10Z</time>
      </trkpt>
      <trkpt lat="45.73738" lon="4.66385">
        <ele>436.2</ele>
        <time>2025-12-11T13:51:11Z</time>
      </trkpt>
      <trkpt lat="45.73739" lon="4.66385">
        <ele>436.4</ele>
        <time>2025-12-11T13:51:12Z</time>
      </trkpt>
      <trkpt lat="45.7374" lon="4.66384">
        <ele>436.6</ele>
        <time>2025-12-11T13:51:13Z</time>
      </trkpt>
      <trkpt lat="45.73741" lon="4.66383">
        <ele>436.8</ele>
        <time>2025-12-11T13:51:14Z</time>
      </trkpt>
      <trkpt lat="45.73742" lon="4.66383">
        <ele>437</ele>
        <time>2025-12-11T13:51:15Z</time>
      </trkpt>
      <trkpt lat="45.73744" lon="4.66381">
        <ele>437.2</ele>
        <time>2025-12-11T13:51:16Z</time>
      </trkpt>
      <trkpt lat="45.73745" lon="4.6638">
        <ele>437.4</ele>
        <time>2025-12-11T13:51:17Z</time>
      </trkpt>
      <trkpt lat="45.73746" lon="4.66379">
        <ele>437.4</ele>
        <time>2025-12-11T13:51:18Z</time>
      </trkpt>
      <trkpt lat="45.73747" lon="4.66378">
        <ele>437.6</ele>
        <time>2025-12-11T13:51:19Z</time>
      </trkpt>
      <trkpt lat="45.73748" lon="4.66376">
        <ele>437.8</ele>
        <time>2025-12-11T13:51:20Z</time>
      </trkpt>
      <trkpt lat="45.73749" lon="4.66375">
        <ele>438.2</ele>
        <time>2025-12-11T13:51:21Z</time>
      </trkpt>
      <trkpt lat="45.7375" lon="4.66374">
        <ele>438.4</ele>
        <time>2025-12-11T13:51:22Z</time>
      </trkpt>
      <trkpt lat="45.73751" lon="4.66372">
        <ele>438.4</ele>
        <time>2025-12-11T13:51:23Z</time>
      </trkpt>
      <trkpt lat="45.73751" lon="4.6637">
        <ele>438.6</ele>
        <time>2025-12-11T13:51:24Z</time>
      </trkpt>
      <trkpt lat="45.73752" lon="4.66369">
        <ele>438.8</ele>
        <time>2025-12-11T13:51:25Z</time>
      </trkpt>
      <trkpt lat="45.73754" lon="4.66369">
        <ele>439</ele>
        <time>2025-12-11T13:51:26Z</time>
      </trkpt>
      <trkpt lat="45.73755" lon="4.66369">
        <ele>439</ele>
        <time>2025-12-11T13:51:27Z</time>
      </trkpt>
      <trkpt lat="45.73757" lon="4.66368">
        <ele>439.2</ele>
        <time>2025-12-11T13:51:28Z</time>
      </trkpt>
      <trkpt lat="45.73758" lon="4.66367">
        <ele>439.4</ele>
        <time>2025-12-11T13:51:29Z</time>
      </trkpt>
      <trkpt lat="45.73759" lon="4.66366">
        <ele>439.4</ele>
        <time>2025-12-11T13:51:30Z</time>
      </trkpt>
      <trkpt lat="45.7376" lon="4.66365">
        <ele>439.6</ele>
        <time>2025-12-11T13:51:31Z</time>
      </trkpt>
      <trkpt lat="45.73761" lon="4.66363">
        <ele>439.8</ele>
        <time>2025-12-11T13:51:32Z</time>
      </trkpt>
      <trkpt lat="45.73762" lon="4.66362">
        <ele>440</ele>
        <time>2025-12-11T13:51:33Z</time>
      </trkpt>
      <trkpt lat="45.73763" lon="4.6636">
        <ele>440.2</ele>
        <time>2025-12-11T13:51:34Z</time>
      </trkpt>
      <trkpt lat="45.73763" lon="4.66358">
        <ele>440.2</ele>
        <time>2025-12-11T13:51:35Z</time>
      </trkpt>
      <trkpt lat="45.73764" lon="4.66357">
        <ele>440.4</ele>
        <time>2025-12-11T13:51:36Z</time>
      </trkpt>
      <trkpt lat="45.73765" lon="4.66356">
        <ele>440.6</ele>
        <time>2025-12-11T13:51:37Z</time>
      </trkpt>
      <trkpt lat="45.73766" lon="4.66356">
        <ele>440.8</ele>
        <time>2025-12-11T13:51:38Z</time>
      </trkpt>
      <trkpt lat="45.73768" lon="4.66356">
        <ele>441</ele>
        <time>2025-12-11T13:51:39Z</time>
      </trkpt>
      <trkpt lat="45.73769" lon="4.66355">
        <ele>441.2</ele>
        <time>2025-12-11T13:51:40Z</time>
      </trkpt>
      <trkpt lat="45.7377" lon="4.66354">
        <ele>441.4</ele>
        <time>2025-12-11T13:51:41Z</time>
      </trkpt>
      <trkpt lat="45.73771" lon="4.66352">
        <ele>441.4</ele>
        <time>2025-12-11T13:51:42Z</time>
      </trkpt>
      <trkpt lat="45.73772" lon="4.66351">
        <ele>441.6</ele>
        <time>2025-12-11T13:51:43Z</time>
      </trkpt>
      <trkpt lat="45.73773" lon="4.66349">
        <ele>441.8</ele>
        <time>2025-12-11T13:51:44Z</time>
      </trkpt>
      <trkpt lat="45.73773" lon="4.66348">
        <ele>442</ele>
        <time>2025-12-11T13:51:45Z</time>
      </trkpt>
      <trkpt lat="45.73774" lon="4.66346">
        <ele>442</ele>
        <time>2025-12-11T13:51:46Z</time>
      </trkpt>
      <trkpt lat="45.73775" lon="4.66344">
        <ele>442.2</ele>
        <time>2025-12-11T13:51:47Z</time>
      </trkpt>
      <trkpt lat="45.73775" lon="4.66343">
        <ele>442.4</ele>
        <time>2025-12-11T13:51:48Z</time>
      </trkpt>
      <trkpt lat="45.73776" lon="4.66341">
        <ele>442.6</ele>
        <time>2025-12-11T13:51:49Z</time>
      </trkpt>
      <trkpt lat="45.73777" lon="4.6634">
        <ele>442.8</ele>
        <time>2025-12-11T13:51:50Z</time>
      </trkpt>
      <trkpt lat="45.73778" lon="4.66339">
        <ele>442.8</ele>
        <time>2025-12-11T13:51:51Z</time>
      </trkpt>
      <trkpt lat="45.7378" lon="4.66337">
        <ele>443</ele>
        <time>2025-12-11T13:51:52Z</time>
      </trkpt>
      <trkpt lat="45.73781" lon="4.66336">
        <ele>443.2</ele>
        <time>2025-12-11T13:51:53Z</time>
      </trkpt>
      <trkpt lat="45.73781" lon="4.66334">
        <ele>443.4</ele>
        <time>2025-12-11T13:51:54Z</time>
      </trkpt>
      <trkpt lat="45.73781" lon="4.66332">
        <ele>443.6</ele>
        <time>2025-12-11T13:51:55Z</time>
      </trkpt>
      <trkpt lat="45.73781" lon="4.6633">
        <ele>443.8</ele>
        <time>2025-12-11T13:51:56Z</time>
      </trkpt>
      <trkpt lat="45.73781" lon="4.66328">
        <ele>443.8</ele>
        <time>2025-12-11T13:51:57Z</time>
      </trkpt>
      <trkpt lat="45.73781" lon="4.66326">
        <ele>444</ele>
        <time>2025-12-11T13:51:58Z</time>
      </trkpt>
      <trkpt lat="45.73782" lon="4.66324">
        <ele>444.2</ele>
        <time>2025-12-11T13:51:59Z</time>
      </trkpt>
      <trkpt lat="45.73783" lon="4.66322">
        <ele>444.2</ele>
        <time>2025-12-11T13:52:00Z</time>
      </trkpt>
      <trkpt lat="45.73784" lon="4.66322">
        <ele>444.4</ele>
        <time>2025-12-11T13:52:01Z</time>
      </trkpt>
      <trkpt lat="45.73785" lon="4.66321">
        <ele>444.6</ele>
        <time>2025-12-11T13:52:02Z</time>
      </trkpt>
      <trkpt lat="45.73787" lon="4.6632">
        <ele>444.8</ele>
        <time>2025-12-11T13:52:03Z</time>
      </trkpt>
      <trkpt lat="45.73788" lon="4.66319">
        <ele>445</ele>
        <time>2025-12-11T13:52:04Z</time>
      </trkpt>
      <trkpt lat="45.73789" lon="4.66318">
        <ele>445.2</ele>
        <time>2025-12-11T13:52:05Z</time>
      </trkpt>
      <trkpt lat="45.7379" lon="4.66317">
        <ele>445.2</ele>
        <time>2025-12-11T13:52:06Z</time>
      </trkpt>
      <trkpt lat="45.73791" lon="4.66315">
        <ele>445.4</ele>
        <time>2025-12-11T13:52:07Z</time>
      </trkpt>
      <trkpt lat="45.73792" lon="4.66313">
        <ele>445.6</ele>
        <time>2025-12-11T13:52:08Z</time>
      </trkpt>
      <trkpt lat="45.73793" lon="4.66312">
        <ele>445.8</ele>
        <time>2025-12-11T13:52:09Z</time>
      </trkpt>
      <trkpt lat="45.73795" lon="4.66311">
        <ele>445.8</ele>
        <time>2025-12-11T13:52:10Z</time>
      </trkpt>
      <trkpt lat="45.73796" lon="4.6631">
        <ele>446</ele>
        <time>2025-12-11T13:52:11Z</time>
      </trkpt>
      <trkpt lat="45.73797" lon="4.6631">
        <ele>446.2</ele>
        <time>2025-12-11T13:52:12Z</time>
      </trkpt>
      <trkpt lat="45.73799" lon="4.6631">
        <ele>446.4</ele>
        <time>2025-12-11T13:52:13Z</time>
      </trkpt>
      <trkpt lat="45.738" lon="4.6631">
        <ele>446.4</ele>
        <time>2025-12-11T13:52:14Z</time>
      </trkpt>
      <trkpt lat="45.73802" lon="4.6631">
        <ele>446.6</ele>
        <time>2025-12-11T13:52:15Z</time>
      </trkpt>
      <trkpt lat="45.73803" lon="4.6631">
        <ele>446.8</ele>
        <time>2025-12-11T13:52:16Z</time>
      </trkpt>
      <trkpt lat="45.73804" lon="4.66311">
        <ele>447</ele>
        <time>2025-12-11T13:52:17Z</time>
      </trkpt>
      <trkpt lat="45.73805" lon="4.66311">
        <ele>447.2</ele>
        <time>2025-12-11T13:52:18Z</time>
      </trkpt>
      <trkpt lat="45.73806" lon="4.66311">
        <ele>447.4</ele>
        <time>2025-12-11T13:52:19Z</time>
      </trkpt>
      <trkpt lat="45.73807" lon="4.66311">
        <ele>447.6</ele>
        <time>2025-12-11T13:52:20Z</time>
      </trkpt>
      <trkpt lat="45.73808" lon="4.66311">
        <ele>448</ele>
        <time>2025-12-11T13:52:21Z</time>
      </trkpt>
      <trkpt lat="45.73809" lon="4.66311">
        <ele>448</ele>
        <time>2025-12-11T13:52:22Z</time>
      </trkpt>
      <trkpt lat="45.73811" lon="4.6631">
        <ele>448.2</ele>
        <time>2025-12-11T13:52:23Z</time>
      </trkpt>
      <trkpt lat="45.73812" lon="4.66309">
        <ele>448.4</ele>
        <time>2025-12-11T13:52:24Z</time>
      </trkpt>
      <trkpt lat="45.73813" lon="4.66308">
        <ele>448.6</ele>
        <time>2025-12-11T13:52:25Z</time>
      </trkpt>
      <trkpt lat="45.73814" lon="4.66306">
        <ele>448.8</ele>
        <time>2025-12-11T13:52:26Z</time>
      </trkpt>
      <trkpt lat="45.73815" lon="4.66306">
        <ele>449</ele>
        <time>2025-12-11T13:52:27Z</time>
      </trkpt>
      <trkpt lat="45.73817" lon="4.66306">
        <ele>449.2</ele>
        <time>2025-12-11T13:52:28Z</time>
      </trkpt>
      <trkpt lat="45.73818" lon="4.66306">
        <ele>449.4</ele>
        <time>2025-12-11T13:52:29Z</time>
      </trkpt>
      <trkpt lat="45.7382" lon="4.66307">
        <ele>449.6</ele>
        <time>2025-12-11T13:52:30Z</time>
      </trkpt>
      <trkpt lat="45.73821" lon="4.66307">
        <ele>449.8</ele>
        <time>2025-12-11T13:52:31Z</time>
      </trkpt>
      <trkpt lat="45.73822" lon="4.66308">
        <ele>449.8</ele>
        <time>2025-12-11T13:52:32Z</time>
      </trkpt>
      <trkpt lat="45.73824" lon="4.66309">
        <ele>450</ele>
        <time>2025-12-11T13:52:33Z</time>
      </trkpt>
      <trkpt lat="45.73825" lon="4.66309">
        <ele>450.2</ele>
        <time>2025-12-11T13:52:34Z</time>
      </trkpt>
      <trkpt lat="45.73827" lon="4.6631">
        <ele>450.4</ele>
        <time>2025-12-11T13:52:35Z</time>
      </trkpt>
      <trkpt lat="45.73828" lon="4.66311">
        <ele>450.6</ele>
        <time>2025-12-11T13:52:36Z</time>
      </trkpt>
      <trkpt lat="45.7383" lon="4.66312">
        <ele>450.6</ele>
        <time>2025-12-11T13:52:37Z</time>
      </trkpt>
      <trkpt lat="45.73831" lon="4.66312">
        <ele>450.8</ele>
        <time>2025-12-11T13:52:38Z</time>
      </trkpt>
      <trkpt lat="45.73833" lon="4.66312">
        <ele>450.8</ele>
        <time>2025-12-11T13:52:39Z</time>
      </trkpt>
      <trkpt lat="45.73834" lon="4.66311">
        <ele>451</ele>
        <time>2025-12-11T13:52:40Z</time>
      </trkpt>
      <trkpt lat="45.73835" lon="4.66311">
        <ele>451</ele>
        <time>2025-12-11T13:52:41Z</time>
      </trkpt>
      <trkpt lat="45.73836" lon="4.6631">
        <ele>451.2</ele>
        <time>2025-12-11T13:52:42Z</time>
      </trkpt>
      <trkpt lat="45.73838" lon="4.6631">
        <ele>451.4</ele>
        <time>2025-12-11T13:52:43Z</time>
      </trkpt>
      <trkpt lat="45.73839" lon="4.66309">
        <ele>451.4</ele>
        <time>2025-12-11T13:52:44Z</time>
      </trkpt>
      <trkpt lat="45.7384" lon="4.66309">
        <ele>451.6</ele>
        <time>2025-12-11T13:52:45Z</time>
      </trkpt>
      <trkpt lat="45.73842" lon="4.66308">
        <ele>451.6</ele>
        <time>2025-12-11T13:52:46Z</time>
      </trkpt>
      <trkpt lat="45.73843" lon="4.66307">
        <ele>451.8</ele>
        <time>2025-12-11T13:52:47Z</time>
      </trkpt>
      <trkpt lat="45.73844" lon="4.66306">
        <ele>451.8</ele>
        <time>2025-12-11T13:52:48Z</time>
      </trkpt>
      <trkpt lat="45.73846" lon="4.66305">
        <ele>452</ele>
        <time>2025-12-11T13:52:49Z</time>
      </trkpt>
      <trkpt lat="45.73847" lon="4.66304">
        <ele>452</ele>
        <time>2025-12-11T13:52:50Z</time>
      </trkpt>
      <trkpt lat="45.73848" lon="4.66303">
        <ele>452.2</ele>
        <time>2025-12-11T13:52:51Z</time>
      </trkpt>
      <trkpt lat="45.7385" lon="4.66302">
        <ele>452.2</ele>
        <time>2025-12-11T13:52:52Z</time>
      </trkpt>
      <trkpt lat="45.73851" lon="4.66301">
        <ele>452.4</ele>
        <time>2025-12-11T13:52:53Z</time>
      </trkpt>
      <trkpt lat="45.73852" lon="4.66301">
        <ele>452.6</ele>
        <time>2025-12-11T13:52:54Z</time>
      </trkpt>
      <trkpt lat="45.73854" lon="4.66301">
        <ele>452.6</ele>
        <time>2025-12-11T13:52:55Z</time>
      </trkpt>
      <trkpt lat="45.73856" lon="4.66301">
        <ele>452.8</ele>
        <time>2025-12-11T13:52:56Z</time>
      </trkpt>
      <trkpt lat="45.73857" lon="4.663">
        <ele>453</ele>
        <time>2025-12-11T13:52:57Z</time>
      </trkpt>
      <trkpt lat="45.73858" lon="4.66299">
        <ele>453.2</ele>
        <time>2025-12-11T13:52:58Z</time>
      </trkpt>
      <trkpt lat="45.7386" lon="4.66298">
        <ele>453.2</ele>
        <time>2025-12-11T13:52:59Z</time>
      </trkpt>
      <trkpt lat="45.73861" lon="4.66297">
        <ele>453.4</ele>
        <time>2025-12-11T13:53:00Z</time>
      </trkpt>
      <trkpt lat="45.73862" lon="4.66295">
        <ele>453.6</ele>
        <time>2025-12-11T13:53:01Z</time>
      </trkpt>
      <trkpt lat="45.73863" lon="4.66294">
        <ele>453.6</ele>
        <time>2025-12-11T13:53:02Z</time>
      </trkpt>
      <trkpt lat="45.73865" lon="4.66294">
        <ele>453.8</ele>
        <time>2025-12-11T13:53:03Z</time>
      </trkpt>
      <trkpt lat="45.73866" lon="4.66294">
        <ele>454</ele>
        <time>2025-12-11T13:53:04Z</time>
      </trkpt>
      <trkpt lat="45.73867" lon="4.66294">
        <ele>454</ele>
        <time>2025-12-11T13:53:05Z</time>
      </trkpt>
      <trkpt lat="45.73868" lon="4.66293">
        <ele>454.2</ele>
        <time>2025-12-11T13:53:06Z</time>
      </trkpt>
      <trkpt lat="45.7387" lon="4.66292">
        <ele>454.4</ele>
        <time>2025-12-11T13:53:07Z</time>
      </trkpt>
      <trkpt lat="45.73871" lon="4.66292">
        <ele>454.6</ele>
        <time>2025-12-11T13:53:08Z</time>
      </trkpt>
      <trkpt lat="45.73872" lon="4.66291">
        <ele>454.8</ele>
        <time>2025-12-11T13:53:09Z</time>
      </trkpt>
      <trkpt lat="45.73873" lon="4.66289">
        <ele>454.8</ele>
        <time>2025-12-11T13:53:10Z</time>
      </trkpt>
      <trkpt lat="45.73874" lon="4.66287">
        <ele>455</ele>
        <time>2025-12-11T13:53:11Z</time>
      </trkpt>
      <trkpt lat="45.73875" lon="4.66286">
        <ele>455.2</ele>
        <time>2025-12-11T13:53:12Z</time>
      </trkpt>
      <trkpt lat="45.73877" lon="4.66285">
        <ele>455.4</ele>
        <time>2025-12-11T13:53:13Z</time>
      </trkpt>
      <trkpt lat="45.73878" lon="4.66284">
        <ele>455.6</ele>
        <time>2025-12-11T13:53:14Z</time>
      </trkpt>
      <trkpt lat="45.7388" lon="4.66283">
        <ele>455.8</ele>
        <time>2025-12-11T13:53:15Z</time>
      </trkpt>
      <trkpt lat="45.73881" lon="4.66282">
        <ele>455.8</ele>
        <time>2025-12-11T13:53:16Z</time>
      </trkpt>
      <trkpt lat="45.73883" lon="4.66282">
        <ele>456</ele>
        <time>2025-12-11T13:53:17Z</time>
      </trkpt>
      <trkpt lat="45.73884" lon="4.66282">
        <ele>456.2</ele>
        <time>2025-12-11T13:53:18Z</time>
      </trkpt>
      <trkpt lat="45.73886" lon="4.66281">
        <ele>456.4</ele>
        <time>2025-12-11T13:53:19Z</time>
      </trkpt>
      <trkpt lat="45.73887" lon="4.66279">
        <ele>456.6</ele>
        <time>2025-12-11T13:53:20Z</time>
      </trkpt>
      <trkpt lat="45.73889" lon="4.66278">
        <ele>456.6</ele>
        <time>2025-12-11T13:53:21Z</time>
      </trkpt>
      <trkpt lat="45.7389" lon="4.66277">
        <ele>456.8</ele>
        <time>2025-12-11T13:53:22Z</time>
      </trkpt>
      <trkpt lat="45.73891" lon="4.66275">
        <ele>457</ele>
        <time>2025-12-11T13:53:23Z</time>
      </trkpt>
      <trkpt lat="45.73893" lon="4.66273">
        <ele>457.2</ele>
        <time>2025-12-11T13:53:24Z</time>
      </trkpt>
      <trkpt lat="45.73894" lon="4.66271">
        <ele>457.2</ele>
        <time>2025-12-11T13:53:25Z</time>
      </trkpt>
      <trkpt lat="45.73895" lon="4.6627">
        <ele>457.4</ele>
        <time>2025-12-11T13:53:26Z</time>
      </trkpt>
      <trkpt lat="45.73897" lon="4.66269">
        <ele>457.6</ele>
        <time>2025-12-11T13:53:27Z</time>
      </trkpt>
      <trkpt lat="45.73898" lon="4.66268">
        <ele>457.6</ele>
        <time>2025-12-11T13:53:28Z</time>
      </trkpt>
      <trkpt lat="45.73899" lon="4.66267">
        <ele>457.8</ele>
        <time>2025-12-11T13:53:29Z</time>
      </trkpt>
      <trkpt lat="45.73901" lon="4.66266">
        <ele>458</ele>
        <time>2025-12-11T13:53:30Z</time>
      </trkpt>
      <trkpt lat="45.73902" lon="4.66265">
        <ele>458</ele>
        <time>2025-12-11T13:53:31Z</time>
      </trkpt>
      <trkpt lat="45.73904" lon="4.66264">
        <ele>458.2</ele>
        <time>2025-12-11T13:53:32Z</time>
      </trkpt>
      <trkpt lat="45.73905" lon="4.66262">
        <ele>458.4</ele>
        <time>2025-12-11T13:53:33Z</time>
      </trkpt>
      <trkpt lat="45.73906" lon="4.6626">
        <ele>458.4</ele>
        <time>2025-12-11T13:53:34Z</time>
      </trkpt>
      <trkpt lat="45.73907" lon="4.66259">
        <ele>458.6</ele>
        <time>2025-12-11T13:53:35Z</time>
      </trkpt>
      <trkpt lat="45.73909" lon="4.66257">
        <ele>458.6</ele>
        <time>2025-12-11T13:53:36Z</time>
      </trkpt>
      <trkpt lat="45.7391" lon="4.66256">
        <ele>458.8</ele>
        <time>2025-12-11T13:53:37Z</time>
      </trkpt>
      <trkpt lat="45.73911" lon="4.66254">
        <ele>459</ele>
        <time>2025-12-11T13:53:38Z</time>
      </trkpt>
      <trkpt lat="45.73912" lon="4.66252">
        <ele>459</ele>
        <time>2025-12-11T13:53:39Z</time>
      </trkpt>
      <trkpt lat="45.73913" lon="4.6625">
        <ele>459.2</ele>
        <time>2025-12-11T13:53:40Z</time>
      </trkpt>
      <trkpt lat="45.73914" lon="4.66248">
        <ele>459.2</ele>
        <time>2025-12-11T13:53:41Z</time>
      </trkpt>
      <trkpt lat="45.73916" lon="4.66247">
        <ele>459.4</ele>
        <time>2025-12-11T13:53:42Z</time>
      </trkpt>
      <trkpt lat="45.73918" lon="4.66245">
        <ele>459.4</ele>
        <time>2025-12-11T13:53:43Z</time>
      </trkpt>
      <trkpt lat="45.73919" lon="4.66244">
        <ele>459.6</ele>
        <time>2025-12-11T13:53:44Z</time>
      </trkpt>
      <trkpt lat="45.73921" lon="4.66243">
        <ele>459.6</ele>
        <time>2025-12-11T13:53:45Z</time>
      </trkpt>
      <trkpt lat="45.73923" lon="4.66243">
        <ele>459.8</ele>
        <time>2025-12-11T13:53:46Z</time>
      </trkpt>
      <trkpt lat="45.73925" lon="4.66242">
        <ele>460</ele>
        <time>2025-12-11T13:53:47Z</time>
      </trkpt>
      <trkpt lat="45.73927" lon="4.66241">
        <ele>460</ele>
        <time>2025-12-11T13:53:48Z</time>
      </trkpt>
      <trkpt lat="45.73928" lon="4.66241">
        <ele>460.2</ele>
        <time>2025-12-11T13:53:49Z</time>
      </trkpt>
      <trkpt lat="45.7393" lon="4.6624">
        <ele>460.2</ele>
        <time>2025-12-11T13:53:50Z</time>
      </trkpt>
      <trkpt lat="45.73931" lon="4.66238">
        <ele>460.4</ele>
        <time>2025-12-11T13:53:51Z</time>
      </trkpt>
      <trkpt lat="45.73933" lon="4.66237">
        <ele>460.4</ele>
        <time>2025-12-11T13:53:52Z</time>
      </trkpt>
      <trkpt lat="45.73934" lon="4.66236">
        <ele>460.6</ele>
        <time>2025-12-11T13:53:53Z</time>
      </trkpt>
      <trkpt lat="45.73936" lon="4.66236">
        <ele>460.8</ele>
        <time>2025-12-11T13:53:54Z</time>
      </trkpt>
      <trkpt lat="45.73938" lon="4.66236">
        <ele>460.8</ele>
        <time>2025-12-11T13:53:55Z</time>
      </trkpt>
      <trkpt lat="45.7394" lon="4.66236">
        <ele>461</ele>
        <time>2025-12-11T13:53:56Z</time>
      </trkpt>
      <trkpt lat="45.73942" lon="4.66236">
        <ele>461</ele>
        <time>2025-12-11T13:53:57Z</time>
      </trkpt>
      <trkpt lat="45.73944" lon="4.66237">
        <ele>461.2</ele>
        <time>2025-12-11T13:53:58Z</time>
      </trkpt>
      <trkpt lat="45.73946" lon="4.66237">
        <ele>461.2</ele>
        <time>2025-12-11T13:53:59Z</time>
      </trkpt>
      <trkpt lat="45.73948" lon="4.66238">
        <ele>461.4</ele>
        <time>2025-12-11T13:54:00Z</time>
      </trkpt>
      <trkpt lat="45.7395" lon="4.66238">
        <ele>461.4</ele>
        <time>2025-12-11T13:54:01Z</time>
      </trkpt>
      <trkpt lat="45.73952" lon="4.66237">
        <ele>461.6</ele>
        <time>2025-12-11T13:54:02Z</time>
      </trkpt>
      <trkpt lat="45.73954" lon="4.66237">
        <ele>461.6</ele>
        <time>2025-12-11T13:54:03Z</time>
      </trkpt>
      <trkpt lat="45.73956" lon="4.66235">
        <ele>461.8</ele>
        <time>2025-12-11T13:54:04Z</time>
      </trkpt>
      <trkpt lat="45.73957" lon="4.66235">
        <ele>462</ele>
        <time>2025-12-11T13:54:05Z</time>
      </trkpt>
      <trkpt lat="45.73959" lon="4.66234">
        <ele>462</ele>
        <time>2025-12-11T13:54:06Z</time>
      </trkpt>
      <trkpt lat="45.73961" lon="4.66233">
        <ele>462.2</ele>
        <time>2025-12-11T13:54:07Z</time>
      </trkpt>
      <trkpt lat="45.73963" lon="4.66233">
        <ele>462.2</ele>
        <time>2025-12-11T13:54:08Z</time>
      </trkpt>
      <trkpt lat="45.73965" lon="4.66232">
        <ele>462.4</ele>
        <time>2025-12-11T13:54:09Z</time>
      </trkpt>
      <trkpt lat="45.73967" lon="4.66231">
        <ele>462.6</ele>
        <time>2025-12-11T13:54:10Z</time>
      </trkpt>
      <trkpt lat="45.73969" lon="4.6623">
        <ele>462.6</ele>
        <time>2025-12-11T13:54:11Z</time>
      </trkpt>
      <trkpt lat="45.7397" lon="4.6623">
        <ele>462.8</ele>
        <time>2025-12-11T13:54:12Z</time>
      </trkpt>
      <trkpt lat="45.73972" lon="4.66229">
        <ele>463</ele>
        <time>2025-12-11T13:54:13Z</time>
      </trkpt>
      <trkpt lat="45.73974" lon="4.66228">
        <ele>463</ele>
        <time>2025-12-11T13:54:14Z</time>
      </trkpt>
      <trkpt lat="45.73976" lon="4.66227">
        <ele>463.2</ele>
        <time>2025-12-11T13:54:15Z</time>
      </trkpt>
      <trkpt lat="45.73978" lon="4.66226">
        <ele>463.2</ele>
        <time>2025-12-11T13:54:16Z</time>
      </trkpt>
      <trkpt lat="45.73979" lon="4.66224">
        <ele>463.4</ele>
        <time>2025-12-11T13:54:17Z</time>
      </trkpt>
      <trkpt lat="45.73981" lon="4.66223">
        <ele>463.4</ele>
        <time>2025-12-11T13:54:18Z</time>
      </trkpt>
      <trkpt lat="45.73983" lon="4.66222">
        <ele>463.6</ele>
        <time>2025-12-11T13:54:19Z</time>
      </trkpt>
      <trkpt lat="45.73985" lon="4.66222">
        <ele>463.6</ele>
        <time>2025-12-11T13:54:20Z</time>
      </trkpt>
      <trkpt lat="45.73987" lon="4.66221">
        <ele>463.8</ele>
        <time>2025-12-11T13:54:21Z</time>
      </trkpt>
      <trkpt lat="45.73989" lon="4.66221">
        <ele>463.8</ele>
        <time>2025-12-11T13:54:22Z</time>
      </trkpt>
      <trkpt lat="45.73991" lon="4.66221">
        <ele>464</ele>
        <time>2025-12-11T13:54:23Z</time>
      </trkpt>
      <trkpt lat="45.73993" lon="4.6622">
        <ele>464</ele>
        <time>2025-12-11T13:54:24Z</time>
      </trkpt>
      <trkpt lat="45.73995" lon="4.66219">
        <ele>464.2</ele>
        <time>2025-12-11T13:54:25Z</time>
      </trkpt>
      <trkpt lat="45.73997" lon="4.66218">
        <ele>464.2</ele>
        <time>2025-12-11T13:54:26Z</time>
      </trkpt>
      <trkpt lat="45.73999" lon="4.66217">
        <ele>464.4</ele>
        <time>2025-12-11T13:54:27Z</time>
      </trkpt>
      <trkpt lat="45.74001" lon="4.66217">
        <ele>464.6</ele>
        <time>2025-12-11T13:54:28Z</time>
      </trkpt>
      <trkpt lat="45.74003" lon="4.66216">
        <ele>464.6</ele>
        <time>2025-12-11T13:54:29Z</time>
      </trkpt>
      <trkpt lat="45.74005" lon="4.66215">
        <ele>464.8</ele>
        <time>2025-12-11T13:54:30Z</time>
      </trkpt>
      <trkpt lat="45.74007" lon="4.66215">
        <ele>464.8</ele>
        <time>2025-12-11T13:54:31Z</time>
      </trkpt>
      <trkpt lat="45.74009" lon="4.66214">
        <ele>465</ele>
        <time>2025-12-11T13:54:32Z</time>
      </trkpt>
      <trkpt lat="45.74011" lon="4.66213">
        <ele>465.2</ele>
        <time>2025-12-11T13:54:33Z</time>
      </trkpt>
      <trkpt lat="45.74013" lon="4.66212">
        <ele>465.2</ele>
        <time>2025-12-11T13:54:34Z</time>
      </trkpt>
      <trkpt lat="45.74015" lon="4.6621">
        <ele>465.4</ele>
        <time>2025-12-11T13:54:35Z</time>
      </trkpt>
      <trkpt lat="45.74018" lon="4.66209">
        <ele>465.4</ele>
        <time>2025-12-11T13:54:36Z</time>
      </trkpt>
      <trkpt lat="45.7402" lon="4.66208">
        <ele>465.4</ele>
        <time>2025-12-11T13:54:37Z</time>
      </trkpt>
      <trkpt lat="45.74023" lon="4.66207">
        <ele>465.4</ele>
        <time>2025-12-11T13:54:38Z</time>
      </trkpt>
      <trkpt lat="45.74025" lon="4.66205">
        <ele>465.6</ele>
        <time>2025-12-11T13:54:39Z</time>
      </trkpt>
      <trkpt lat="45.74027" lon="4.66204">
        <ele>465.6</ele>
        <time>2025-12-11T13:54:40Z</time>
      </trkpt>
      <trkpt lat="45.74029" lon="4.66203">
        <ele>465.6</ele>
        <time>2025-12-11T13:54:41Z</time>
      </trkpt>
      <trkpt lat="45.74032" lon="4.66203">
        <ele>465.6</ele>
        <time>2025-12-11T13:54:42Z</time>
      </trkpt>
      <trkpt lat="45.74034" lon="4.66202">
        <ele>465.6</ele>
        <time>2025-12-11T13:54:43Z</time>
      </trkpt>
      <trkpt lat="45.74037" lon="4.66202">
        <ele>465.8</ele>
        <time>2025-12-11T13:54:44Z</time>
      </trkpt>
      <trkpt lat="45.74039" lon="4.66201">
        <ele>465.8</ele>
        <time>2025-12-11T13:54:45Z</time>
      </trkpt>
      <trkpt lat="45.74042" lon="4.662">
        <ele>465.8</ele>
        <time>2025-12-11T13:54:46Z</time>
      </trkpt>
      <trkpt lat="45.74044" lon="4.66199">
        <ele>466</ele>
        <time>2025-12-11T13:54:47Z</time>
      </trkpt>
      <trkpt lat="45.74047" lon="4.66199">
        <ele>466</ele>
        <time>2025-12-11T13:54:48Z</time>
      </trkpt>
      <trkpt lat="45.7405" lon="4.66198">
        <ele>466</ele>
        <time>2025-12-11T13:54:49Z</time>
      </trkpt>
      <trkpt lat="45.74052" lon="4.66197">
        <ele>466.2</ele>
        <time>2025-12-11T13:54:50Z</time>
      </trkpt>
      <trkpt lat="45.74055" lon="4.66196">
        <ele>466.2</ele>
        <time>2025-12-11T13:54:51Z</time>
      </trkpt>
      <trkpt lat="45.74057" lon="4.66195">
        <ele>466.2</ele>
        <time>2025-12-11T13:54:52Z</time>
      </trkpt>
      <trkpt lat="45.7406" lon="4.66193">
        <ele>466.2</ele>
        <time>2025-12-11T13:54:53Z</time>
      </trkpt>
      <trkpt lat="45.74063" lon="4.66191">
        <ele>466.4</ele>
        <time>2025-12-11T13:54:54Z</time>
      </trkpt>
      <trkpt lat="45.74065" lon="4.6619">
        <ele>466.4</ele>
        <time>2025-12-11T13:54:55Z</time>
      </trkpt>
      <trkpt lat="45.74068" lon="4.66189">
        <ele>466.4</ele>
        <time>2025-12-11T13:54:56Z</time>
      </trkpt>
      <trkpt lat="45.74071" lon="4.66188">
        <ele>466.6</ele>
        <time>2025-12-11T13:54:57Z</time>
      </trkpt>
      <trkpt lat="45.74074" lon="4.66186">
        <ele>466.6</ele>
        <time>2025-12-11T13:54:58Z</time>
      </trkpt>
      <trkpt lat="45.74077" lon="4.66184">
        <ele>466.8</ele>
        <time>2025-12-11T13:54:59Z</time>
      </trkpt>
      <trkpt lat="45.74079" lon="4.66183">
        <ele>466.8</ele>
        <time>2025-12-11T13:55:00Z</time>
      </trkpt>
      <trkpt lat="45.74082" lon="4.66181">
        <ele>467</ele>
        <time>2025-12-11T13:55:01Z</time>
      </trkpt>
      <trkpt lat="45.74084" lon="4.6618">
        <ele>467</ele>
        <time>2025-12-11T13:55:02Z</time>
      </trkpt>
      <trkpt lat="45.74087" lon="4.66179">
        <ele>467.2</ele>
        <time>2025-12-11T13:55:03Z</time>
      </trkpt>
      <trkpt lat="45.74089" lon="4.66177">
        <ele>467.4</ele>
        <time>2025-12-11T13:55:04Z</time>
      </trkpt>
      <trkpt lat="45.74091" lon="4.66175">
        <ele>467.6</ele>
        <time>2025-12-11T13:55:05Z</time>
      </trkpt>
      <trkpt lat="45.74094" lon="4.66174">
        <ele>467.8</ele>
        <time>2025-12-11T13:55:06Z</time>
      </trkpt>
      <trkpt lat="45.74096" lon="4.66172">
        <ele>467.8</ele>
        <time>2025-12-11T13:55:07Z</time>
      </trkpt>
      <trkpt lat="45.74097" lon="4.66171">
        <ele>468</ele>
        <time>2025-12-11T13:55:08Z</time>
      </trkpt>
      <trkpt lat="45.74099" lon="4.6617">
        <ele>468.2</ele>
        <time>2025-12-11T13:55:09Z</time>
      </trkpt>
      <trkpt lat="45.74101" lon="4.66168">
        <ele>468.4</ele>
        <time>2025-12-11T13:55:10Z</time>
      </trkpt>
      <trkpt lat="45.74103" lon="4.66167">
        <ele>468.6</ele>
        <time>2025-12-11T13:55:11Z</time>
      </trkpt>
      <trkpt lat="45.74105" lon="4.66166">
        <ele>468.8</ele>
        <time>2025-12-11T13:55:12Z</time>
      </trkpt>
      <trkpt lat="45.74107" lon="4.66164">
        <ele>469</ele>
        <time>2025-12-11T13:55:13Z</time>
      </trkpt>
      <trkpt lat="45.74109" lon="4.66162">
        <ele>469.2</ele>
        <time>2025-12-11T13:55:14Z</time>
      </trkpt>
      <trkpt lat="45.74111" lon="4.66161">
        <ele>469.4</ele>
        <time>2025-12-11T13:55:15Z</time>
      </trkpt>
      <trkpt lat="45.74113" lon="4.6616">
        <ele>469.6</ele>
        <time>2025-12-11T13:55:16Z</time>
      </trkpt>
      <trkpt lat="45.74115" lon="4.66159">
        <ele>469.6</ele>
        <time>2025-12-11T13:55:17Z</time>
      </trkpt>
      <trkpt lat="45.74117" lon="4.66158">
        <ele>469.8</ele>
        <time>2025-12-11T13:55:18Z</time>
      </trkpt>
      <trkpt lat="45.74119" lon="4.66156">
        <ele>470</ele>
        <time>2025-12-11T13:55:19Z</time>
      </trkpt>
      <trkpt lat="45.74121" lon="4.66155">
        <ele>470</ele>
        <time>2025-12-11T13:55:20Z</time>
      </trkpt>
      <trkpt lat="45.74123" lon="4.66153">
        <ele>470.2</ele>
        <time>2025-12-11T13:55:21Z</time>
      </trkpt>
      <trkpt lat="45.74126" lon="4.66152">
        <ele>470.2</ele>
        <time>2025-12-11T13:55:22Z</time>
      </trkpt>
      <trkpt lat="45.74128" lon="4.6615">
        <ele>470.4</ele>
        <time>2025-12-11T13:55:23Z</time>
      </trkpt>
      <trkpt lat="45.7413" lon="4.66148">
        <ele>470.4</ele>
        <time>2025-12-11T13:55:24Z</time>
      </trkpt>
      <trkpt lat="45.74132" lon="4.66146">
        <ele>470.6</ele>
        <time>2025-12-11T13:55:25Z</time>
      </trkpt>
      <trkpt lat="45.74134" lon="4.66145">
        <ele>470.8</ele>
        <time>2025-12-11T13:55:26Z</time>
      </trkpt>
      <trkpt lat="45.74136" lon="4.66143">
        <ele>470.8</ele>
        <time>2025-12-11T13:55:27Z</time>
      </trkpt>
      <trkpt lat="45.74138" lon="4.66141">
        <ele>471</ele>
        <time>2025-12-11T13:55:28Z</time>
      </trkpt>
      <trkpt lat="45.7414" lon="4.66139">
        <ele>471.2</ele>
        <time>2025-12-11T13:55:29Z</time>
      </trkpt>
      <trkpt lat="45.74142" lon="4.66138">
        <ele>471.4</ele>
        <time>2025-12-11T13:55:30Z</time>
      </trkpt>
      <trkpt lat="45.74145" lon="4.66136">
        <ele>471.4</ele>
        <time>2025-12-11T13:55:31Z</time>
      </trkpt>
      <trkpt lat="45.74147" lon="4.66134">
        <ele>471.6</ele>
        <time>2025-12-11T13:55:32Z</time>
      </trkpt>
      <trkpt lat="45.74149" lon="4.66132">
        <ele>471.6</ele>
        <time>2025-12-11T13:55:33Z</time>
      </trkpt>
      <trkpt lat="45.74151" lon="4.6613">
        <ele>471.6</ele>
        <time>2025-12-11T13:55:34Z</time>
      </trkpt>
      <trkpt lat="45.74153" lon="4.66128">
        <ele>471.8</ele>
        <time>2025-12-11T13:55:35Z</time>
      </trkpt>
      <trkpt lat="45.74155" lon="4.66126">
        <ele>471.8</ele>
        <time>2025-12-11T13:55:36Z</time>
      </trkpt>
      <trkpt lat="45.74158" lon="4.66124">
        <ele>471.8</ele>
        <time>2025-12-11T13:55:37Z</time>
      </trkpt>
      <trkpt lat="45.7416" lon="4.66122">
        <ele>472</ele>
        <time>2025-12-11T13:55:38Z</time>
      </trkpt>
      <trkpt lat="45.74162" lon="4.6612">
        <ele>472.2</ele>
        <time>2025-12-11T13:55:39Z</time>
      </trkpt>
      <trkpt lat="45.74163" lon="4.66118">
        <ele>472.2</ele>
        <time>2025-12-11T13:55:40Z</time>
      </trkpt>
      <trkpt lat="45.74165" lon="4.66116">
        <ele>472.4</ele>
        <time>2025-12-11T13:55:41Z</time>
      </trkpt>
      <trkpt lat="45.74167" lon="4.66115">
        <ele>472.4</ele>
        <time>2025-12-11T13:55:42Z</time>
      </trkpt>
      <trkpt lat="45.74169" lon="4.66112">
        <ele>472.6</ele>
        <time>2025-12-11T13:55:43Z</time>
      </trkpt>
      <trkpt lat="45.7417" lon="4.6611">
        <ele>472.6</ele>
        <time>2025-12-11T13:55:44Z</time>
      </trkpt>
      <trkpt lat="45.74172" lon="4.66107">
        <ele>472.8</ele>
        <time>2025-12-11T13:55:45Z</time>
      </trkpt>
      <trkpt lat="45.74174" lon="4.66105">
        <ele>472.8</ele>
        <time>2025-12-11T13:55:46Z</time>
      </trkpt>
      <trkpt lat="45.74176" lon="4.66103">
        <ele>473</ele>
        <time>2025-12-11T13:55:47Z</time>
      </trkpt>
      <trkpt lat="45.74178" lon="4.661">
        <ele>473.2</ele>
        <time>2025-12-11T13:55:48Z</time>
      </trkpt>
      <trkpt lat="45.7418" lon="4.66098">
        <ele>473.2</ele>
        <time>2025-12-11T13:55:49Z</time>
      </trkpt>
      <trkpt lat="45.74182" lon="4.66096">
        <ele>473.4</ele>
        <time>2025-12-11T13:55:50Z</time>
      </trkpt>
      <trkpt lat="45.74184" lon="4.66094">
        <ele>473.4</ele>
        <time>2025-12-11T13:55:51Z</time>
      </trkpt>
      <trkpt lat="45.74185" lon="4.66092">
        <ele>473.6</ele>
        <time>2025-12-11T13:55:52Z</time>
      </trkpt>
      <trkpt lat="45.74187" lon="4.6609">
        <ele>473.6</ele>
        <time>2025-12-11T13:55:53Z</time>
      </trkpt>
      <trkpt lat="45.74189" lon="4.66087">
        <ele>473.8</ele>
        <time>2025-12-11T13:55:54Z</time>
      </trkpt>
      <trkpt lat="45.7419" lon="4.66084">
        <ele>473.8</ele>
        <time>2025-12-11T13:55:55Z</time>
      </trkpt>
      <trkpt lat="45.74192" lon="4.66082">
        <ele>474</ele>
        <time>2025-12-11T13:55:56Z</time>
      </trkpt>
      <trkpt lat="45.74193" lon="4.66079">
        <ele>474.2</ele>
        <time>2025-12-11T13:55:57Z</time>
      </trkpt>
      <trkpt lat="45.74195" lon="4.66077">
        <ele>474.4</ele>
        <time>2025-12-11T13:55:58Z</time>
      </trkpt>
      <trkpt lat="45.74197" lon="4.66075">
        <ele>474.4</ele>
        <time>2025-12-11T13:55:59Z</time>
      </trkpt>
      <trkpt lat="45.74199" lon="4.66073">
        <ele>474.6</ele>
        <time>2025-12-11T13:56:00Z</time>
      </trkpt>
      <trkpt lat="45.742" lon="4.66071">
        <ele>474.8</ele>
        <time>2025-12-11T13:56:01Z</time>
      </trkpt>
      <trkpt lat="45.74202" lon="4.66068">
        <ele>475</ele>
        <time>2025-12-11T13:56:02Z</time>
      </trkpt>
      <trkpt lat="45.74203" lon="4.66066">
        <ele>475</ele>
        <time>2025-12-11T13:56:03Z</time>
      </trkpt>
      <trkpt lat="45.74204" lon="4.66063">
        <ele>475.2</ele>
        <time>2025-12-11T13:56:04Z</time>
      </trkpt>
      <trkpt lat="45.74206" lon="4.6606">
        <ele>475.4</ele>
        <time>2025-12-11T13:56:05Z</time>
      </trkpt>
      <trkpt lat="45.74207" lon="4.66057">
        <ele>475.4</ele>
        <time>2025-12-11T13:56:06Z</time>
      </trkpt>
      <trkpt lat="45.74209" lon="4.66055">
        <ele>475.6</ele>
        <time>2025-12-11T13:56:07Z</time>
      </trkpt>
      <trkpt lat="45.7421" lon="4.66052">
        <ele>475.8</ele>
        <time>2025-12-11T13:56:08Z</time>
      </trkpt>
      <trkpt lat="45.74211" lon="4.66049">
        <ele>475.8</ele>
        <time>2025-12-11T13:56:09Z</time>
      </trkpt>
      <trkpt lat="45.74213" lon="4.66047">
        <ele>476</ele>
        <time>2025-12-11T13:56:10Z</time>
      </trkpt>
      <trkpt lat="45.74214" lon="4.66044">
        <ele>476.2</ele>
        <time>2025-12-11T13:56:11Z</time>
      </trkpt>
      <trkpt lat="45.74215" lon="4.66042">
        <ele>476.4</ele>
        <time>2025-12-11T13:56:12Z</time>
      </trkpt>
      <trkpt lat="45.74215" lon="4.6604">
        <ele>476.4</ele>
        <time>2025-12-11T13:56:13Z</time>
      </trkpt>
      <trkpt lat="45.74216" lon="4.66037">
        <ele>476.6</ele>
        <time>2025-12-11T13:56:14Z</time>
      </trkpt>
      <trkpt lat="45.74217" lon="4.66035">
        <ele>476.8</ele>
        <time>2025-12-11T13:56:15Z</time>
      </trkpt>
      <trkpt lat="45.74219" lon="4.66033">
        <ele>477</ele>
        <time>2025-12-11T13:56:16Z</time>
      </trkpt>
      <trkpt lat="45.7422" lon="4.66031">
        <ele>477.2</ele>
        <time>2025-12-11T13:56:17Z</time>
      </trkpt>
      <trkpt lat="45.74221" lon="4.66029">
        <ele>477.4</ele>
        <time>2025-12-11T13:56:18Z</time>
      </trkpt>
      <trkpt lat="45.74222" lon="4.66027">
        <ele>477.6</ele>
        <time>2025-12-11T13:56:19Z</time>
      </trkpt>
      <trkpt lat="45.74224" lon="4.66025">
        <ele>477.6</ele>
        <time>2025-12-11T13:56:20Z</time>
      </trkpt>
      <trkpt lat="45.74225" lon="4.66023">
        <ele>477.8</ele>
        <time>2025-12-11T13:56:21Z</time>
      </trkpt>
      <trkpt lat="45.74226" lon="4.66021">
        <ele>478</ele>
        <time>2025-12-11T13:56:22Z</time>
      </trkpt>
      <trkpt lat="45.74227" lon="4.66018">
        <ele>478.2</ele>
        <time>2025-12-11T13:56:23Z</time>
      </trkpt>
      <trkpt lat="45.74228" lon="4.66016">
        <ele>478.4</ele>
        <time>2025-12-11T13:56:24Z</time>
      </trkpt>
      <trkpt lat="45.74229" lon="4.66013">
        <ele>478.4</ele>
        <time>2025-12-11T13:56:25Z</time>
      </trkpt>
      <trkpt lat="45.7423" lon="4.6601">
        <ele>478.6</ele>
        <time>2025-12-11T13:56:26Z</time>
      </trkpt>
      <trkpt lat="45.74231" lon="4.66008">
        <ele>478.8</ele>
        <time>2025-12-11T13:56:27Z</time>
      </trkpt>
      <trkpt lat="45.74232" lon="4.66005">
        <ele>479</ele>
        <time>2025-12-11T13:56:28Z</time>
      </trkpt>
      <trkpt lat="45.74233" lon="4.66002">
        <ele>479</ele>
        <time>2025-12-11T13:56:29Z</time>
      </trkpt>
      <trkpt lat="45.74234" lon="4.65999">
        <ele>479</ele>
        <time>2025-12-11T13:56:30Z</time>
      </trkpt>
      <trkpt lat="45.74235" lon="4.65996">
        <ele>479.2</ele>
        <time>2025-12-11T13:56:31Z</time>
      </trkpt>
      <trkpt lat="45.74236" lon="4.65993">
        <ele>479.2</ele>
        <time>2025-12-11T13:56:32Z</time>
      </trkpt>
      <trkpt lat="45.74237" lon="4.65991">
        <ele>479.4</ele>
        <time>2025-12-11T13:56:33Z</time>
      </trkpt>
      <trkpt lat="45.74238" lon="4.65988">
        <ele>479.4</ele>
        <time>2025-12-11T13:56:34Z</time>
      </trkpt>
      <trkpt lat="45.74239" lon="4.65985">
        <ele>479.6</ele>
        <time>2025-12-11T13:56:35Z</time>
      </trkpt>
      <trkpt lat="45.74241" lon="4.65983">
        <ele>479.8</ele>
        <time>2025-12-11T13:56:36Z</time>
      </trkpt>
      <trkpt lat="45.74242" lon="4.6598">
        <ele>479.8</ele>
        <time>2025-12-11T13:56:37Z</time>
      </trkpt>
      <trkpt lat="45.74243" lon="4.65977">
        <ele>480</ele>
        <time>2025-12-11T13:56:38Z</time>
      </trkpt>
      <trkpt lat="45.74244" lon="4.65973">
        <ele>480.2</ele>
        <time>2025-12-11T13:56:39Z</time>
      </trkpt>
      <trkpt lat="45.74245" lon="4.6597">
        <ele>480.2</ele>
        <time>2025-12-11T13:56:40Z</time>
      </trkpt>
      <trkpt lat="45.74246" lon="4.65967">
        <ele>480.4</ele>
        <time>2025-12-11T13:56:41Z</time>
      </trkpt>
      <trkpt lat="45.74247" lon="4.65964">
        <ele>480.4</ele>
        <time>2025-12-11T13:56:42Z</time>
      </trkpt>
      <trkpt lat="45.74248" lon="4.65961">
        <ele>480.6</ele>
        <time>2025-12-11T13:56:43Z</time>
      </trkpt>
      <trkpt lat="45.74249" lon="4.65959">
        <ele>480.6</ele>
        <time>2025-12-11T13:56:44Z</time>
      </trkpt>
      <trkpt lat="45.7425" lon="4.65956">
        <ele>480.8</ele>
        <time>2025-12-11T13:56:45Z</time>
      </trkpt>
      <trkpt lat="45.74251" lon="4.65953">
        <ele>481</ele>
        <time>2025-12-11T13:56:46Z</time>
      </trkpt>
      <trkpt lat="45.74252" lon="4.6595">
        <ele>481</ele>
        <time>2025-12-11T13:56:47Z</time>
      </trkpt>
      <trkpt lat="45.74253" lon="4.65947">
        <ele>481.2</ele>
        <time>2025-12-11T13:56:48Z</time>
      </trkpt>
      <trkpt lat="45.74254" lon="4.65945">
        <ele>481.4</ele>
        <time>2025-12-11T13:56:49Z</time>
      </trkpt>
      <trkpt lat="45.74255" lon="4.65943">
        <ele>481.4</ele>
        <time>2025-12-11T13:56:50Z</time>
      </trkpt>
      <trkpt lat="45.74256" lon="4.6594">
        <ele>481.6</ele>
        <time>2025-12-11T13:56:51Z</time>
      </trkpt>
      <trkpt lat="45.74258" lon="4.65938">
        <ele>481.8</ele>
        <time>2025-12-11T13:56:52Z</time>
      </trkpt>
      <trkpt lat="45.74259" lon="4.65935">
        <ele>481.8</ele>
        <time>2025-12-11T13:56:53Z</time>
      </trkpt>
      <trkpt lat="45.7426" lon="4.65932">
        <ele>482</ele>
        <time>2025-12-11T13:56:54Z</time>
      </trkpt>
      <trkpt lat="45.74261" lon="4.65929">
        <ele>482.2</ele>
        <time>2025-12-11T13:56:55Z</time>
      </trkpt>
      <trkpt lat="45.74261" lon="4.65926">
        <ele>482.2</ele>
        <time>2025-12-11T13:56:56Z</time>
      </trkpt>
      <trkpt lat="45.74262" lon="4.65923">
        <ele>482.4</ele>
        <time>2025-12-11T13:56:57Z</time>
      </trkpt>
      <trkpt lat="45.74263" lon="4.65921">
        <ele>482.4</ele>
        <time>2025-12-11T13:56:58Z</time>
      </trkpt>
      <trkpt lat="45.74264" lon="4.65918">
        <ele>482.6</ele>
        <time>2025-12-11T13:56:59Z</time>
      </trkpt>
      <trkpt lat="45.74265" lon="4.65915">
        <ele>482.6</ele>
        <time>2025-12-11T13:57:00Z</time>
      </trkpt>
      <trkpt lat="45.74266" lon="4.65911">
        <ele>482.8</ele>
        <time>2025-12-11T13:57:01Z</time>
      </trkpt>
      <trkpt lat="45.74267" lon="4.65908">
        <ele>482.8</ele>
        <time>2025-12-11T13:57:02Z</time>
      </trkpt>
      <trkpt lat="45.74268" lon="4.65905">
        <ele>483</ele>
        <time>2025-12-11T13:57:03Z</time>
      </trkpt>
      <trkpt lat="45.74269" lon="4.65902">
        <ele>483</ele>
        <time>2025-12-11T13:57:04Z</time>
      </trkpt>
      <trkpt lat="45.7427" lon="4.65899">
        <ele>483.2</ele>
        <time>2025-12-11T13:57:05Z</time>
      </trkpt>
      <trkpt lat="45.74271" lon="4.65896">
        <ele>483.2</ele>
        <time>2025-12-11T13:57:06Z</time>
      </trkpt>
      <trkpt lat="45.74272" lon="4.65892">
        <ele>483.4</ele>
        <time>2025-12-11T13:57:07Z</time>
      </trkpt>
      <trkpt lat="45.74273" lon="4.65889">
        <ele>483.4</ele>
        <time>2025-12-11T13:57:08Z</time>
      </trkpt>
      <trkpt lat="45.74273" lon="4.65885">
        <ele>483.4</ele>
        <time>2025-12-11T13:57:09Z</time>
      </trkpt>
      <trkpt lat="45.74274" lon="4.65881">
        <ele>483.4</ele>
        <time>2025-12-11T13:57:10Z</time>
      </trkpt>
      <trkpt lat="45.74276" lon="4.65877">
        <ele>483.4</ele>
        <time>2025-12-11T13:57:11Z</time>
      </trkpt>
      <trkpt lat="45.74277" lon="4.65873">
        <ele>483.2</ele>
        <time>2025-12-11T13:57:12Z</time>
      </trkpt>
      <trkpt lat="45.74279" lon="4.6587">
        <ele>483.2</ele>
        <time>2025-12-11T13:57:13Z</time>
      </trkpt>
      <trkpt lat="45.7428" lon="4.65865">
        <ele>483.2</ele>
        <time>2025-12-11T13:57:14Z</time>
      </trkpt>
      <trkpt lat="45.74282" lon="4.65861">
        <ele>483</ele>
        <time>2025-12-11T13:57:15Z</time>
      </trkpt>
      <trkpt lat="45.74283" lon="4.65857">
        <ele>483</ele>
        <time>2025-12-11T13:57:16Z</time>
      </trkpt>
      <trkpt lat="45.74284" lon="4.65852">
        <ele>483</ele>
        <time>2025-12-11T13:57:17Z</time>
      </trkpt>
      <trkpt lat="45.74285" lon="4.65847">
        <ele>482.8</ele>
        <time>2025-12-11T13:57:18Z</time>
      </trkpt>
      <trkpt lat="45.74287" lon="4.65842">
        <ele>482.8</ele>
        <time>2025-12-11T13:57:19Z</time>
      </trkpt>
      <trkpt lat="45.74288" lon="4.65836">
        <ele>482.6</ele>
        <time>2025-12-11T13:57:20Z</time>
      </trkpt>
      <trkpt lat="45.7429" lon="4.6583">
        <ele>482.4</ele>
        <time>2025-12-11T13:57:21Z</time>
      </trkpt>
      <trkpt lat="45.74293" lon="4.65825">
        <ele>482.2</ele>
        <time>2025-12-11T13:57:22Z</time>
      </trkpt>
      <trkpt lat="45.74295" lon="4.65819">
        <ele>482</ele>
        <time>2025-12-11T13:57:23Z</time>
      </trkpt>
      <trkpt lat="45.74298" lon="4.65813">
        <ele>481.6</ele>
        <time>2025-12-11T13:57:24Z</time>
      </trkpt>
      <trkpt lat="45.74301" lon="4.65806">
        <ele>481.2</ele>
        <time>2025-12-11T13:57:25Z</time>
      </trkpt>
      <trkpt lat="45.74304" lon="4.658">
        <ele>481</ele>
        <time>2025-12-11T13:57:26Z</time>
      </trkpt>
      <trkpt lat="45.74307" lon="4.65794">
        <ele>480.8</ele>
        <time>2025-12-11T13:57:27Z</time>
      </trkpt>
      <trkpt lat="45.74311" lon="4.65789">
        <ele>480.6</ele>
        <time>2025-12-11T13:57:28Z</time>
      </trkpt>
      <trkpt lat="45.74315" lon="4.65783">
        <ele>480.6</ele>
        <time>2025-12-11T13:57:29Z</time>
      </trkpt>
      <trkpt lat="45.74318" lon="4.65778">
        <ele>480.4</ele>
        <time>2025-12-11T13:57:30Z</time>
      </trkpt>
      <trkpt lat="45.74322" lon="4.65772">
        <ele>480.4</ele>
        <time>2025-12-11T13:57:31Z</time>
      </trkpt>
      <trkpt lat="45.74326" lon="4.65768">
        <ele>480.4</ele>
        <time>2025-12-11T13:57:32Z</time>
      </trkpt>
      <trkpt lat="45.7433" lon="4.65764">
        <ele>480.4</ele>
        <time>2025-12-11T13:57:33Z</time>
      </trkpt>
      <trkpt lat="45.74334" lon="4.6576">
        <ele>480.4</ele>
        <time>2025-12-11T13:57:34Z</time>
      </trkpt>
      <trkpt lat="45.74338" lon="4.65755">
        <ele>480.4</ele>
        <time>2025-12-11T13:57:35Z</time>
      </trkpt>
      <trkpt lat="45.74342" lon="4.6575">
        <ele>480.4</ele>
        <time>2025-12-11T13:57:36Z</time>
      </trkpt>
      <trkpt lat="45.74346" lon="4.65745">
        <ele>480.2</ele>
        <time>2025-12-11T13:57:37Z</time>
      </trkpt>
      <trkpt lat="45.74349" lon="4.6574">
        <ele>480.2</ele>
        <time>2025-12-11T13:57:38Z</time>
      </trkpt>
      <trkpt lat="45.74352" lon="4.65735">
        <ele>480.2</ele>
        <time>2025-12-11T13:57:39Z</time>
      </trkpt>
      <trkpt lat="45.74357" lon="4.6573">
        <ele>480.2</ele>
        <time>2025-12-11T13:57:40Z</time>
      </trkpt>
      <trkpt lat="45.74361" lon="4.65724">
        <ele>480</ele>
        <time>2025-12-11T13:57:41Z</time>
      </trkpt>
      <trkpt lat="45.74365" lon="4.65719">
        <ele>480</ele>
        <time>2025-12-11T13:57:42Z</time>
      </trkpt>
      <trkpt lat="45.74369" lon="4.65713">
        <ele>480</ele>
        <time>2025-12-11T13:57:43Z</time>
      </trkpt>
      <trkpt lat="45.74373" lon="4.65707">
        <ele>479.8</ele>
        <time>2025-12-11T13:57:44Z</time>
      </trkpt>
      <trkpt lat="45.74377" lon="4.65701">
        <ele>479.4</ele>
        <time>2025-12-11T13:57:45Z</time>
      </trkpt>
      <trkpt lat="45.74382" lon="4.65695">
        <ele>479.4</ele>
        <time>2025-12-11T13:57:46Z</time>
      </trkpt>
      <trkpt lat="45.74386" lon="4.6569">
        <ele>479.2</ele>
        <time>2025-12-11T13:57:47Z</time>
      </trkpt>
      <trkpt lat="45.7439" lon="4.65685">
        <ele>479.2</ele>
        <time>2025-12-11T13:57:48Z</time>
      </trkpt>
      <trkpt lat="45.74395" lon="4.6568">
        <ele>479.4</ele>
        <time>2025-12-11T13:57:49Z</time>
      </trkpt>
      <trkpt lat="45.74398" lon="4.65675">
        <ele>479.4</ele>
        <time>2025-12-11T13:57:50Z</time>
      </trkpt>
      <trkpt lat="45.74402" lon="4.6567">
        <ele>479.6</ele>
        <time>2025-12-11T13:57:51Z</time>
      </trkpt>
      <trkpt lat="45.74406" lon="4.65665">
        <ele>479.8</ele>
        <time>2025-12-11T13:57:52Z</time>
      </trkpt>
      <trkpt lat="45.74409" lon="4.65659">
        <ele>480</ele>
        <time>2025-12-11T13:57:53Z</time>
      </trkpt>
      <trkpt lat="45.74413" lon="4.65654">
        <ele>480</ele>
        <time>2025-12-11T13:57:54Z</time>
      </trkpt>
      <trkpt lat="45.74416" lon="4.65649">
        <ele>480.2</ele>
        <time>2025-12-11T13:57:55Z</time>
      </trkpt>
      <trkpt lat="45.7442" lon="4.65644">
        <ele>480.4</ele>
        <time>2025-12-11T13:57:56Z</time>
      </trkpt>
      <trkpt lat="45.74423" lon="4.6564">
        <ele>480.4</ele>
        <time>2025-12-11T13:57:57Z</time>
      </trkpt>
      <trkpt lat="45.74426" lon="4.65635">
        <ele>480.6</ele>
        <time>2025-12-11T13:57:58Z</time>
      </trkpt>
      <trkpt lat="45.7443" lon="4.6563">
        <ele>480.8</ele>
        <time>2025-12-11T13:57:59Z</time>
      </trkpt>
      <trkpt lat="45.74432" lon="4.65626">
        <ele>480.8</ele>
        <time>2025-12-11T13:58:00Z</time>
      </trkpt>
      <trkpt lat="45.74435" lon="4.65621">
        <ele>481</ele>
        <time>2025-12-11T13:58:01Z</time>
      </trkpt>
      <trkpt lat="45.74438" lon="4.65616">
        <ele>481</ele>
        <time>2025-12-11T13:58:02Z</time>
      </trkpt>
      <trkpt lat="45.74441" lon="4.65611">
        <ele>481.2</ele>
        <time>2025-12-11T13:58:03Z</time>
      </trkpt>
      <trkpt lat="45.74443" lon="4.65607">
        <ele>481.4</ele>
        <time>2025-12-11T13:58:04Z</time>
      </trkpt>
      <trkpt lat="45.74446" lon="4.65602">
        <ele>481.4</ele>
        <time>2025-12-11T13:58:05Z</time>
      </trkpt>
      <trkpt lat="45.74449" lon="4.65598">
        <ele>481.6</ele>
        <time>2025-12-11T13:58:06Z</time>
      </trkpt>
      <trkpt lat="45.74451" lon="4.65593">
        <ele>481.6</ele>
        <time>2025-12-11T13:58:07Z</time>
      </trkpt>
      <trkpt lat="45.74454" lon="4.65589">
        <ele>481.6</ele>
        <time>2025-12-11T13:58:08Z</time>
      </trkpt>
      <trkpt lat="45.74457" lon="4.65584">
        <ele>481.8</ele>
        <time>2025-12-11T13:58:09Z</time>
      </trkpt>
      <trkpt lat="45.7446" lon="4.6558">
        <ele>482</ele>
        <time>2025-12-11T13:58:10Z</time>
      </trkpt>
      <trkpt lat="45.74462" lon="4.65576">
        <ele>482.2</ele>
        <time>2025-12-11T13:58:11Z</time>
      </trkpt>
      <trkpt lat="45.74464" lon="4.65571">
        <ele>482.4</ele>
        <time>2025-12-11T13:58:12Z</time>
      </trkpt>
      <trkpt lat="45.74466" lon="4.65567">
        <ele>482.4</ele>
        <time>2025-12-11T13:58:13Z</time>
      </trkpt>
      <trkpt lat="45.74468" lon="4.65562">
        <ele>482.6</ele>
        <time>2025-12-11T13:58:14Z</time>
      </trkpt>
      <trkpt lat="45.7447" lon="4.65558">
        <ele>482.8</ele>
        <time>2025-12-11T13:58:15Z</time>
      </trkpt>
      <trkpt lat="45.74471" lon="4.65553">
        <ele>483</ele>
        <time>2025-12-11T13:58:16Z</time>
      </trkpt>
      <trkpt lat="45.74473" lon="4.65549">
        <ele>483.2</ele>
        <time>2025-12-11T13:58:17Z</time>
      </trkpt>
      <trkpt lat="45.74475" lon="4.65546">
        <ele>483.4</ele>
        <time>2025-12-11T13:58:18Z</time>
      </trkpt>
      <trkpt lat="45.74477" lon="4.65542">
        <ele>483.4</ele>
        <time>2025-12-11T13:58:19Z</time>
      </trkpt>
      <trkpt lat="45.74479" lon="4.65538">
        <ele>483.6</ele>
        <time>2025-12-11T13:58:20Z</time>
      </trkpt>
      <trkpt lat="45.74481" lon="4.65534">
        <ele>483.8</ele>
        <time>2025-12-11T13:58:21Z</time>
      </trkpt>
      <trkpt lat="45.74483" lon="4.6553">
        <ele>484</ele>
        <time>2025-12-11T13:58:22Z</time>
      </trkpt>
      <trkpt lat="45.74484" lon="4.65526">
        <ele>484.2</ele>
        <time>2025-12-11T13:58:23Z</time>
      </trkpt>
      <trkpt lat="45.74486" lon="4.65522">
        <ele>484.4</ele>
        <time>2025-12-11T13:58:24Z</time>
      </trkpt>
      <trkpt lat="45.74487" lon="4.65519">
        <ele>484.6</ele>
        <time>2025-12-11T13:58:25Z</time>
      </trkpt>
      <trkpt lat="45.74489" lon="4.65516">
        <ele>484.6</ele>
        <time>2025-12-11T13:58:26Z</time>
      </trkpt>
      <trkpt lat="45.74492" lon="4.65512">
        <ele>484.8</ele>
        <time>2025-12-11T13:58:27Z</time>
      </trkpt>
      <trkpt lat="45.74494" lon="4.65509">
        <ele>485</ele>
        <time>2025-12-11T13:58:28Z</time>
      </trkpt>
      <trkpt lat="45.74496" lon="4.65506">
        <ele>485</ele>
        <time>2025-12-11T13:58:29Z</time>
      </trkpt>
      <trkpt lat="45.74498" lon="4.65503">
        <ele>485.2</ele>
        <time>2025-12-11T13:58:30Z</time>
      </trkpt>
      <trkpt lat="45.74499" lon="4.65499">
        <ele>485.4</ele>
        <time>2025-12-11T13:58:31Z</time>
      </trkpt>
      <trkpt lat="45.74501" lon="4.65495">
        <ele>485.4</ele>
        <time>2025-12-11T13:58:32Z</time>
      </trkpt>
      <trkpt lat="45.74503" lon="4.65492">
        <ele>485.6</ele>
        <time>2025-12-11T13:58:33Z</time>
      </trkpt>
      <trkpt lat="45.74505" lon="4.65488">
        <ele>485.8</ele>
        <time>2025-12-11T13:58:34Z</time>
      </trkpt>
      <trkpt lat="45.74507" lon="4.65484">
        <ele>485.8</ele>
        <time>2025-12-11T13:58:35Z</time>
      </trkpt>
      <trkpt lat="45.74509" lon="4.6548">
        <ele>486</ele>
        <time>2025-12-11T13:58:36Z</time>
      </trkpt>
      <trkpt lat="45.7451" lon="4.65477">
        <ele>486.2</ele>
        <time>2025-12-11T13:58:37Z</time>
      </trkpt>
      <trkpt lat="45.74512" lon="4.65473">
        <ele>486.2</ele>
        <time>2025-12-11T13:58:38Z</time>
      </trkpt>
      <trkpt lat="45.74514" lon="4.6547">
        <ele>486.4</ele>
        <time>2025-12-11T13:58:39Z</time>
      </trkpt>
      <trkpt lat="45.74516" lon="4.65467">
        <ele>486.6</ele>
        <time>2025-12-11T13:58:40Z</time>
      </trkpt>
      <trkpt lat="45.74518" lon="4.65464">
        <ele>486.8</ele>
        <time>2025-12-11T13:58:41Z</time>
      </trkpt>
      <trkpt lat="45.7452" lon="4.65461">
        <ele>487</ele>
        <time>2025-12-11T13:58:42Z</time>
      </trkpt>
      <trkpt lat="45.74522" lon="4.65457">
        <ele>487</ele>
        <time>2025-12-11T13:58:43Z</time>
      </trkpt>
      <trkpt lat="45.74524" lon="4.65454">
        <ele>487.2</ele>
        <time>2025-12-11T13:58:44Z</time>
      </trkpt>
      <trkpt lat="45.74526" lon="4.65451">
        <ele>487.4</ele>
        <time>2025-12-11T13:58:45Z</time>
      </trkpt>
      <trkpt lat="45.74528" lon="4.65448">
        <ele>487.6</ele>
        <time>2025-12-11T13:58:46Z</time>
      </trkpt>
      <trkpt lat="45.7453" lon="4.65445">
        <ele>487.6</ele>
        <time>2025-12-11T13:58:47Z</time>
      </trkpt>
      <trkpt lat="45.74532" lon="4.65442">
        <ele>487.8</ele>
        <time>2025-12-11T13:58:48Z</time>
      </trkpt>
      <trkpt lat="45.74534" lon="4.65439">
        <ele>488</ele>
        <time>2025-12-11T13:58:49Z</time>
      </trkpt>
      <trkpt lat="45.74535" lon="4.65436">
        <ele>488</ele>
        <time>2025-12-11T13:58:50Z</time>
      </trkpt>
      <trkpt lat="45.74537" lon="4.65433">
        <ele>488.2</ele>
        <time>2025-12-11T13:58:51Z</time>
      </trkpt>
      <trkpt lat="45.74539" lon="4.6543">
        <ele>488.4</ele>
        <time>2025-12-11T13:58:52Z</time>
      </trkpt>
      <trkpt lat="45.7454" lon="4.65427">
        <ele>488.4</ele>
        <time>2025-12-11T13:58:53Z</time>
      </trkpt>
      <trkpt lat="45.74542" lon="4.65424">
        <ele>488.6</ele>
        <time>2025-12-11T13:58:54Z</time>
      </trkpt>
      <trkpt lat="45.74544" lon="4.65421">
        <ele>488.6</ele>
        <time>2025-12-11T13:58:55Z</time>
      </trkpt>
      <trkpt lat="45.74545" lon="4.65418">
        <ele>488.8</ele>
        <time>2025-12-11T13:58:56Z</time>
      </trkpt>
      <trkpt lat="45.74547" lon="4.65415">
        <ele>488.8</ele>
        <time>2025-12-11T13:58:57Z</time>
      </trkpt>
      <trkpt lat="45.74549" lon="4.65413">
        <ele>489</ele>
        <time>2025-12-11T13:58:58Z</time>
      </trkpt>
      <trkpt lat="45.7455" lon="4.65411">
        <ele>489</ele>
        <time>2025-12-11T13:58:59Z</time>
      </trkpt>
      <trkpt lat="45.74552" lon="4.65409">
        <ele>489.2</ele>
        <time>2025-12-11T13:59:00Z</time>
      </trkpt>
      <trkpt lat="45.74554" lon="4.65407">
        <ele>489.4</ele>
        <time>2025-12-11T13:59:01Z</time>
      </trkpt>
      <trkpt lat="45.74555" lon="4.65405">
        <ele>489.4</ele>
        <time>2025-12-11T13:59:02Z</time>
      </trkpt>
      <trkpt lat="45.74557" lon="4.65402">
        <ele>489.6</ele>
        <time>2025-12-11T13:59:03Z</time>
      </trkpt>
      <trkpt lat="45.74558" lon="4.65399">
        <ele>489.6</ele>
        <time>2025-12-11T13:59:04Z</time>
      </trkpt>
      <trkpt lat="45.74559" lon="4.65396">
        <ele>489.8</ele>
        <time>2025-12-11T13:59:05Z</time>
      </trkpt>
      <trkpt lat="45.74561" lon="4.65394">
        <ele>489.8</ele>
        <time>2025-12-11T13:59:06Z</time>
      </trkpt>
      <trkpt lat="45.74563" lon="4.65391">
        <ele>489.8</ele>
        <time>2025-12-11T13:59:07Z</time>
      </trkpt>
      <trkpt lat="45.74565" lon="4.65388">
        <ele>490</ele>
        <time>2025-12-11T13:59:08Z</time>
      </trkpt>
      <trkpt lat="45.74567" lon="4.65385">
        <ele>490</ele>
        <time>2025-12-11T13:59:09Z</time>
      </trkpt>
      <trkpt lat="45.74569" lon="4.65382">
        <ele>490</ele>
        <time>2025-12-11T13:59:10Z</time>
      </trkpt>
      <trkpt lat="45.74571" lon="4.65379">
        <ele>490.2</ele>
        <time>2025-12-11T13:59:11Z</time>
      </trkpt>
      <trkpt lat="45.74573" lon="4.65376">
        <ele>490.2</ele>
        <time>2025-12-11T13:59:12Z</time>
      </trkpt>
      <trkpt lat="45.74575" lon="4.65373">
        <ele>490.2</ele>
        <time>2025-12-11T13:59:13Z</time>
      </trkpt>
      <trkpt lat="45.74577" lon="4.65369">
        <ele>490.2</ele>
        <time>2025-12-11T13:59:14Z</time>
      </trkpt>
      <trkpt lat="45.7458" lon="4.65366">
        <ele>490.2</ele>
        <time>2025-12-11T13:59:15Z</time>
      </trkpt>
      <trkpt lat="45.74582" lon="4.65362">
        <ele>490.2</ele>
        <time>2025-12-11T13:59:16Z</time>
      </trkpt>
      <trkpt lat="45.74584" lon="4.65358">
        <ele>490.2</ele>
        <time>2025-12-11T13:59:17Z</time>
      </trkpt>
      <trkpt lat="45.74587" lon="4.65355">
        <ele>490.2</ele>
        <time>2025-12-11T13:59:18Z</time>
      </trkpt>
      <trkpt lat="45.74589" lon="4.65351">
        <ele>490.2</ele>
        <time>2025-12-11T13:59:19Z</time>
      </trkpt>
      <trkpt lat="45.74591" lon="4.65347">
        <ele>490.2</ele>
        <time>2025-12-11T13:59:20Z</time>
      </trkpt>
      <trkpt lat="45.74594" lon="4.65343">
        <ele>490.4</ele>
        <time>2025-12-11T13:59:21Z</time>
      </trkpt>
      <trkpt lat="45.74595" lon="4.65339">
        <ele>490.4</ele>
        <time>2025-12-11T13:59:22Z</time>
      </trkpt>
      <trkpt lat="45.74597" lon="4.65335">
        <ele>490.4</ele>
        <time>2025-12-11T13:59:23Z</time>
      </trkpt>
      <trkpt lat="45.74599" lon="4.6533">
        <ele>490.4</ele>
        <time>2025-12-11T13:59:24Z</time>
      </trkpt>
      <trkpt lat="45.746" lon="4.65325">
        <ele>490.4</ele>
        <time>2025-12-11T13:59:25Z</time>
      </trkpt>
      <trkpt lat="45.74601" lon="4.6532">
        <ele>490.6</ele>
        <time>2025-12-11T13:59:26Z</time>
      </trkpt>
      <trkpt lat="45.74601" lon="4.65315">
        <ele>490.6</ele>
        <time>2025-12-11T13:59:27Z</time>
      </trkpt>
      <trkpt lat="45.74602" lon="4.65311">
        <ele>490.6</ele>
        <time>2025-12-11T13:59:28Z</time>
      </trkpt>
      <trkpt lat="45.74603" lon="4.65306">
        <ele>490.8</ele>
        <time>2025-12-11T13:59:29Z</time>
      </trkpt>
      <trkpt lat="45.74603" lon="4.65302">
        <ele>491</ele>
        <time>2025-12-11T13:59:30Z</time>
      </trkpt>
      <trkpt lat="45.74603" lon="4.65298">
        <ele>491.2</ele>
        <time>2025-12-11T13:59:31Z</time>
      </trkpt>
      <trkpt lat="45.74604" lon="4.65294">
        <ele>491.4</ele>
        <time>2025-12-11T13:59:32Z</time>
      </trkpt>
      <trkpt lat="45.74604" lon="4.6529">
        <ele>491.6</ele>
        <time>2025-12-11T13:59:33Z</time>
      </trkpt>
      <trkpt lat="45.74605" lon="4.65287">
        <ele>491.8</ele>
        <time>2025-12-11T13:59:34Z</time>
      </trkpt>
      <trkpt lat="45.74605" lon="4.65283">
        <ele>491.8</ele>
        <time>2025-12-11T13:59:35Z</time>
      </trkpt>
      <trkpt lat="45.74606" lon="4.6528">
        <ele>492</ele>
        <time>2025-12-11T13:59:36Z</time>
      </trkpt>
      <trkpt lat="45.74607" lon="4.65276">
        <ele>492</ele>
        <time>2025-12-11T13:59:37Z</time>
      </trkpt>
      <trkpt lat="45.74608" lon="4.65273">
        <ele>492.2</ele>
        <time>2025-12-11T13:59:38Z</time>
      </trkpt>
      <trkpt lat="45.74608" lon="4.6527">
        <ele>492.2</ele>
        <time>2025-12-11T13:59:39Z</time>
      </trkpt>
      <trkpt lat="45.74609" lon="4.65267">
        <ele>492.4</ele>
        <time>2025-12-11T13:59:40Z</time>
      </trkpt>
      <trkpt lat="45.74609" lon="4.65263">
        <ele>492.6</ele>
        <time>2025-12-11T13:59:41Z</time>
      </trkpt>
      <trkpt lat="45.7461" lon="4.65261">
        <ele>492.8</ele>
        <time>2025-12-11T13:59:42Z</time>
      </trkpt>
      <trkpt lat="45.7461" lon="4.65258">
        <ele>492.8</ele>
        <time>2025-12-11T13:59:43Z</time>
      </trkpt>
      <trkpt lat="45.7461" lon="4.65255">
        <ele>493</ele>
        <time>2025-12-11T13:59:44Z</time>
      </trkpt>
      <trkpt lat="45.74611" lon="4.65252">
        <ele>493.2</ele>
        <time>2025-12-11T13:59:45Z</time>
      </trkpt>
      <trkpt lat="45.74611" lon="4.65248">
        <ele>493.4</ele>
        <time>2025-12-11T13:59:46Z</time>
      </trkpt>
      <trkpt lat="45.74611" lon="4.65246">
        <ele>493.6</ele>
        <time>2025-12-11T13:59:47Z</time>
      </trkpt>
      <trkpt lat="45.74611" lon="4.65243">
        <ele>493.6</ele>
        <time>2025-12-11T13:59:48Z</time>
      </trkpt>
      <trkpt lat="45.74612" lon="4.65241">
        <ele>493.8</ele>
        <time>2025-12-11T13:59:49Z</time>
      </trkpt>
      <trkpt lat="45.74612" lon="4.65239">
        <ele>494</ele>
        <time>2025-12-11T13:59:50Z</time>
      </trkpt>
      <trkpt lat="45.74612" lon="4.65236">
        <ele>494.2</ele>
        <time>2025-12-11T13:59:51Z</time>
      </trkpt>
      <trkpt lat="45.74612" lon="4.65234">
        <ele>494.2</ele>
        <time>2025-12-11T13:59:52Z</time>
      </trkpt>
      <trkpt lat="45.74613" lon="4.65231">
        <ele>494.4</ele>
        <time>2025-12-11T13:59:53Z</time>
      </trkpt>
      <trkpt lat="45.74613" lon="4.65229">
        <ele>494.6</ele>
        <time>2025-12-11T13:59:54Z</time>
      </trkpt>
      <trkpt lat="45.74613" lon="4.65226">
        <ele>494.6</ele>
        <time>2025-12-11T13:59:55Z</time>
      </trkpt>
      <trkpt lat="45.74613" lon="4.65223">
        <ele>494.8</ele>
        <time>2025-12-11T13:59:56Z</time>
      </trkpt>
      <trkpt lat="45.74613" lon="4.6522">
        <ele>495</ele>
        <time>2025-12-11T13:59:57Z</time>
      </trkpt>
      <trkpt lat="45.74614" lon="4.65218">
        <ele>495.2</ele>
        <time>2025-12-11T13:59:58Z</time>
      </trkpt>
      <trkpt lat="45.74614" lon="4.65216">
        <ele>495.2</ele>
        <time>2025-12-11T13:59:59Z</time>
      </trkpt>
      <trkpt lat="45.74615" lon="4.65213">
        <ele>495.4</ele>
        <time>2025-12-11T14:00:00Z</time>
      </trkpt>
      <trkpt lat="45.74615" lon="4.65211">
        <ele>495.6</ele>
        <time>2025-12-11T14:00:01Z</time>
      </trkpt>
      <trkpt lat="45.74614" lon="4.65209">
        <ele>495.8</ele>
        <time>2025-12-11T14:00:02Z</time>
      </trkpt>
      <trkpt lat="45.74615" lon="4.65207">
        <ele>496</ele>
        <time>2025-12-11T14:00:03Z</time>
      </trkpt>
      <trkpt lat="45.74615" lon="4.65205">
        <ele>496.2</ele>
        <time>2025-12-11T14:00:04Z</time>
      </trkpt>
      <trkpt lat="45.74615" lon="4.65203">
        <ele>496.4</ele>
        <time>2025-12-11T14:00:05Z</time>
      </trkpt>
      <trkpt lat="45.74616" lon="4.65201">
        <ele>496.6</ele>
        <time>2025-12-11T14:00:06Z</time>
      </trkpt>
      <trkpt lat="45.74616" lon="4.65199">
        <ele>496.6</ele>
        <time>2025-12-11T14:00:07Z</time>
      </trkpt>
      <trkpt lat="45.74616" lon="4.65197">
        <ele>496.8</ele>
        <time>2025-12-11T14:00:08Z</time>
      </trkpt>
      <trkpt lat="45.74617" lon="4.65195">
        <ele>497</ele>
        <time>2025-12-11T14:00:09Z</time>
      </trkpt>
      <trkpt lat="45.74617" lon="4.65193">
        <ele>497.2</ele>
        <time>2025-12-11T14:00:10Z</time>
      </trkpt>
      <trkpt lat="45.74617" lon="4.65191">
        <ele>497.4</ele>
        <time>2025-12-11T14:00:11Z</time>
      </trkpt>
      <trkpt lat="45.74617" lon="4.6519">
        <ele>497.6</ele>
        <time>2025-12-11T14:00:12Z</time>
      </trkpt>
      <trkpt lat="45.74617" lon="4.65188">
        <ele>497.8</ele>
        <time>2025-12-11T14:00:13Z</time>
      </trkpt>
      <trkpt lat="45.74618" lon="4.65186">
        <ele>498</ele>
        <time>2025-12-11T14:00:14Z</time>
      </trkpt>
      <trkpt lat="45.74618" lon="4.65184">
        <ele>498.2</ele>
        <time>2025-12-11T14:00:15Z</time>
      </trkpt>
      <trkpt lat="45.74617" lon="4.65183">
        <ele>498.2</ele>
        <time>2025-12-11T14:00:16Z</time>
      </trkpt>
      <trkpt lat="45.74617" lon="4.65181">
        <ele>498.4</ele>
        <time>2025-12-11T14:00:17Z</time>
      </trkpt>
      <trkpt lat="45.74617" lon="4.6518">
        <ele>498.6</ele>
        <time>2025-12-11T14:00:18Z</time>
      </trkpt>
      <trkpt lat="45.74617" lon="4.65178">
        <ele>498.8</ele>
        <time>2025-12-11T14:00:19Z</time>
      </trkpt>
      <trkpt lat="45.74617" lon="4.65176">
        <ele>499</ele>
        <time>2025-12-11T14:00:20Z</time>
      </trkpt>
      <trkpt lat="45.74616" lon="4.65175">
        <ele>499.2</ele>
        <time>2025-12-11T14:00:21Z</time>
      </trkpt>
      <trkpt lat="45.74617" lon="4.65173">
        <ele>499.4</ele>
        <time>2025-12-11T14:00:22Z</time>
      </trkpt>
      <trkpt lat="45.74618" lon="4.65171">
        <ele>499.4</ele>
        <time>2025-12-11T14:00:23Z</time>
      </trkpt>
      <trkpt lat="45.74618" lon="4.65169">
        <ele>499.6</ele>
        <time>2025-12-11T14:00:24Z</time>
      </trkpt>
      <trkpt lat="45.74618" lon="4.65167">
        <ele>499.8</ele>
        <time>2025-12-11T14:00:25Z</time>
      </trkpt>
      <trkpt lat="45.74617" lon="4.65166">
        <ele>500</ele>
        <time>2025-12-11T14:00:26Z</time>
      </trkpt>
      <trkpt lat="45.74617" lon="4.65164">
        <ele>500.2</ele>
        <time>2025-12-11T14:00:27Z</time>
      </trkpt>
      <trkpt lat="45.74617" lon="4.65162">
        <ele>500.4</ele>
        <time>2025-12-11T14:00:28Z</time>
      </trkpt>
      <trkpt lat="45.74617" lon="4.65161">
        <ele>500.8</ele>
        <time>2025-12-11T14:00:29Z</time>
      </trkpt>
      <trkpt lat="45.74617" lon="4.6516">
        <ele>501</ele>
        <time>2025-12-11T14:00:30Z</time>
      </trkpt>
      <trkpt lat="45.74617" lon="4.65158">
        <ele>501</ele>
        <time>2025-12-11T14:00:31Z</time>
      </trkpt>
      <trkpt lat="45.74617" lon="4.65156">
        <ele>501.2</ele>
        <time>2025-12-11T14:00:32Z</time>
      </trkpt>
      <trkpt lat="45.74617" lon="4.65154">
        <ele>501.4</ele>
        <time>2025-12-11T14:00:33Z</time>
      </trkpt>
      <trkpt lat="45.74616" lon="4.65153">
        <ele>501.6</ele>
        <time>2025-12-11T14:00:34Z</time>
      </trkpt>
      <trkpt lat="45.74616" lon="4.65151">
        <ele>501.8</ele>
        <time>2025-12-11T14:00:35Z</time>
      </trkpt>
      <trkpt lat="45.74617" lon="4.65149">
        <ele>502</ele>
        <time>2025-12-11T14:00:36Z</time>
      </trkpt>
      <trkpt lat="45.74617" lon="4.65148">
        <ele>502.2</ele>
        <time>2025-12-11T14:00:37Z</time>
      </trkpt>
      <trkpt lat="45.74619" lon="4.65146">
        <ele>502.4</ele>
        <time>2025-12-11T14:00:38Z</time>
      </trkpt>
      <trkpt lat="45.7462" lon="4.65145">
        <ele>502.6</ele>
        <time>2025-12-11T14:00:39Z</time>
      </trkpt>
      <trkpt lat="45.7462" lon="4.65143">
        <ele>502.8</ele>
        <time>2025-12-11T14:00:40Z</time>
      </trkpt>
      <trkpt lat="45.74621" lon="4.65142">
        <ele>502.8</ele>
        <time>2025-12-11T14:00:41Z</time>
      </trkpt>
      <trkpt lat="45.74621" lon="4.6514">
        <ele>503</ele>
        <time>2025-12-11T14:00:42Z</time>
      </trkpt>
      <trkpt lat="45.74622" lon="4.65138">
        <ele>503.2</ele>
        <time>2025-12-11T14:00:43Z</time>
      </trkpt>
      <trkpt lat="45.74622" lon="4.65136">
        <ele>503.4</ele>
        <time>2025-12-11T14:00:44Z</time>
      </trkpt>
      <trkpt lat="45.74622" lon="4.65134">
        <ele>503.4</ele>
        <time>2025-12-11T14:00:45Z</time>
      </trkpt>
      <trkpt lat="45.74622" lon="4.65132">
        <ele>503.6</ele>
        <time>2025-12-11T14:00:46Z</time>
      </trkpt>
      <trkpt lat="45.74622" lon="4.65131">
        <ele>503.8</ele>
        <time>2025-12-11T14:00:47Z</time>
      </trkpt>
      <trkpt lat="45.74621" lon="4.65129">
        <ele>504</ele>
        <time>2025-12-11T14:00:48Z</time>
      </trkpt>
      <trkpt lat="45.74621" lon="4.65127">
        <ele>504</ele>
        <time>2025-12-11T14:00:49Z</time>
      </trkpt>
      <trkpt lat="45.7462" lon="4.65126">
        <ele>504.2</ele>
        <time>2025-12-11T14:00:50Z</time>
      </trkpt>
      <trkpt lat="45.74619" lon="4.65124">
        <ele>504.4</ele>
        <time>2025-12-11T14:00:51Z</time>
      </trkpt>
      <trkpt lat="45.7462" lon="4.65122">
        <ele>504.6</ele>
        <time>2025-12-11T14:00:52Z</time>
      </trkpt>
      <trkpt lat="45.7462" lon="4.65121">
        <ele>504.6</ele>
        <time>2025-12-11T14:00:53Z</time>
      </trkpt>
      <trkpt lat="45.74621" lon="4.65119">
        <ele>504.8</ele>
        <time>2025-12-11T14:00:54Z</time>
      </trkpt>
      <trkpt lat="45.74621" lon="4.65117">
        <ele>505</ele>
        <time>2025-12-11T14:00:55Z</time>
      </trkpt>
      <trkpt lat="45.74622" lon="4.65115">
        <ele>505</ele>
        <time>2025-12-11T14:00:56Z</time>
      </trkpt>
      <trkpt lat="45.74622" lon="4.65113">
        <ele>505.2</ele>
        <time>2025-12-11T14:00:57Z</time>
      </trkpt>
      <trkpt lat="45.74623" lon="4.65111">
        <ele>505.2</ele>
        <time>2025-12-11T14:00:58Z</time>
      </trkpt>
      <trkpt lat="45.74623" lon="4.65109">
        <ele>505.4</ele>
        <time>2025-12-11T14:00:59Z</time>
      </trkpt>
      <trkpt lat="45.74623" lon="4.65107">
        <ele>505.4</ele>
        <time>2025-12-11T14:01:00Z</time>
      </trkpt>
      <trkpt lat="45.74623" lon="4.65104">
        <ele>505.6</ele>
        <time>2025-12-11T14:01:01Z</time>
      </trkpt>
      <trkpt lat="45.74623" lon="4.65102">
        <ele>505.8</ele>
        <time>2025-12-11T14:01:02Z</time>
      </trkpt>
      <trkpt lat="45.74623" lon="4.651">
        <ele>505.8</ele>
        <time>2025-12-11T14:01:03Z</time>
      </trkpt>
      <trkpt lat="45.74623" lon="4.65097">
        <ele>506</ele>
        <time>2025-12-11T14:01:04Z</time>
      </trkpt>
      <trkpt lat="45.74624" lon="4.65095">
        <ele>506</ele>
        <time>2025-12-11T14:01:05Z</time>
      </trkpt>
      <trkpt lat="45.74624" lon="4.65092">
        <ele>506.2</ele>
        <time>2025-12-11T14:01:06Z</time>
      </trkpt>
      <trkpt lat="45.74624" lon="4.6509">
        <ele>506.4</ele>
        <time>2025-12-11T14:01:07Z</time>
      </trkpt>
      <trkpt lat="45.74624" lon="4.65088">
        <ele>506.4</ele>
        <time>2025-12-11T14:01:08Z</time>
      </trkpt>
      <trkpt lat="45.74624" lon="4.65086">
        <ele>506.4</ele>
        <time>2025-12-11T14:01:09Z</time>
      </trkpt>
      <trkpt lat="45.74624" lon="4.65083">
        <ele>506.6</ele>
        <time>2025-12-11T14:01:10Z</time>
      </trkpt>
      <trkpt lat="45.74624" lon="4.6508">
        <ele>506.6</ele>
        <time>2025-12-11T14:01:11Z</time>
      </trkpt>
      <trkpt lat="45.74624" lon="4.65078">
        <ele>506.6</ele>
        <time>2025-12-11T14:01:12Z</time>
      </trkpt>
      <trkpt lat="45.74623" lon="4.65075">
        <ele>506.8</ele>
        <time>2025-12-11T14:01:13Z</time>
      </trkpt>
      <trkpt lat="45.74623" lon="4.65073">
        <ele>506.8</ele>
        <time>2025-12-11T14:01:14Z</time>
      </trkpt>
      <trkpt lat="45.74623" lon="4.6507">
        <ele>507</ele>
        <time>2025-12-11T14:01:15Z</time>
      </trkpt>
      <trkpt lat="45.74623" lon="4.65068">
        <ele>507</ele>
        <time>2025-12-11T14:01:16Z</time>
      </trkpt>
      <trkpt lat="45.74623" lon="4.65066">
        <ele>507</ele>
        <time>2025-12-11T14:01:17Z</time>
      </trkpt>
      <trkpt lat="45.74624" lon="4.65063">
        <ele>507.2</ele>
        <time>2025-12-11T14:01:18Z</time>
      </trkpt>
      <trkpt lat="45.74624" lon="4.65061">
        <ele>507.2</ele>
        <time>2025-12-11T14:01:19Z</time>
      </trkpt>
      <trkpt lat="45.74624" lon="4.65058">
        <ele>507.4</ele>
        <time>2025-12-11T14:01:20Z</time>
      </trkpt>
      <trkpt lat="45.74625" lon="4.65056">
        <ele>507.4</ele>
        <time>2025-12-11T14:01:21Z</time>
      </trkpt>
      <trkpt lat="45.74625" lon="4.65053">
        <ele>507.6</ele>
        <time>2025-12-11T14:01:22Z</time>
      </trkpt>
      <trkpt lat="45.74625" lon="4.65051">
        <ele>507.6</ele>
        <time>2025-12-11T14:01:23Z</time>
      </trkpt>
      <trkpt lat="45.74625" lon="4.65049">
        <ele>507.8</ele>
        <time>2025-12-11T14:01:24Z</time>
      </trkpt>
      <trkpt lat="45.74625" lon="4.65046">
        <ele>507.8</ele>
        <time>2025-12-11T14:01:25Z</time>
      </trkpt>
      <trkpt lat="45.74626" lon="4.65044">
        <ele>507.8</ele>
        <time>2025-12-11T14:01:26Z</time>
      </trkpt>
      <trkpt lat="45.74626" lon="4.65041">
        <ele>508</ele>
        <time>2025-12-11T14:01:27Z</time>
      </trkpt>
      <trkpt lat="45.74626" lon="4.65039">
        <ele>508</ele>
        <time>2025-12-11T14:01:28Z</time>
      </trkpt>
      <trkpt lat="45.74627" lon="4.65036">
        <ele>508.2</ele>
        <time>2025-12-11T14:01:29Z</time>
      </trkpt>
      <trkpt lat="45.74627" lon="4.65034">
        <ele>508.2</ele>
        <time>2025-12-11T14:01:30Z</time>
      </trkpt>
      <trkpt lat="45.74627" lon="4.65031">
        <ele>508.4</ele>
        <time>2025-12-11T14:01:31Z</time>
      </trkpt>
      <trkpt lat="45.74628" lon="4.65029">
        <ele>508.4</ele>
        <time>2025-12-11T14:01:32Z</time>
      </trkpt>
      <trkpt lat="45.74628" lon="4.65027">
        <ele>508.4</ele>
        <time>2025-12-11T14:01:33Z</time>
      </trkpt>
      <trkpt lat="45.74629" lon="4.65024">
        <ele>508.6</ele>
        <time>2025-12-11T14:01:34Z</time>
      </trkpt>
      <trkpt lat="45.74629" lon="4.65022">
        <ele>508.6</ele>
        <time>2025-12-11T14:01:35Z</time>
      </trkpt>
      <trkpt lat="45.74629" lon="4.6502">
        <ele>508.8</ele>
        <time>2025-12-11T14:01:36Z</time>
      </trkpt>
      <trkpt lat="45.7463" lon="4.65017">
        <ele>508.8</ele>
        <time>2025-12-11T14:01:37Z</time>
      </trkpt>
      <trkpt lat="45.7463" lon="4.65015">
        <ele>509</ele>
        <time>2025-12-11T14:01:38Z</time>
      </trkpt>
      <trkpt lat="45.7463" lon="4.65012">
        <ele>509.2</ele>
        <time>2025-12-11T14:01:39Z</time>
      </trkpt>
      <trkpt lat="45.7463" lon="4.6501">
        <ele>509.2</ele>
        <time>2025-12-11T14:01:40Z</time>
      </trkpt>
      <trkpt lat="45.74631" lon="4.65008">
        <ele>509.4</ele>
        <time>2025-12-11T14:01:41Z</time>
      </trkpt>
      <trkpt lat="45.74631" lon="4.65005">
        <ele>509.6</ele>
        <time>2025-12-11T14:01:42Z</time>
      </trkpt>
      <trkpt lat="45.74632" lon="4.65003">
        <ele>509.6</ele>
        <time>2025-12-11T14:01:43Z</time>
      </trkpt>
      <trkpt lat="45.74632" lon="4.65001">
        <ele>509.8</ele>
        <time>2025-12-11T14:01:44Z</time>
      </trkpt>
      <trkpt lat="45.74633" lon="4.64999">
        <ele>510</ele>
        <time>2025-12-11T14:01:45Z</time>
      </trkpt>
      <trkpt lat="45.74634" lon="4.64996">
        <ele>510.2</ele>
        <time>2025-12-11T14:01:46Z</time>
      </trkpt>
      <trkpt lat="45.74634" lon="4.64994">
        <ele>510.2</ele>
        <time>2025-12-11T14:01:47Z</time>
      </trkpt>
      <trkpt lat="45.74634" lon="4.64992">
        <ele>510.4</ele>
        <time>2025-12-11T14:01:48Z</time>
      </trkpt>
      <trkpt lat="45.74634" lon="4.6499">
        <ele>510.6</ele>
        <time>2025-12-11T14:01:49Z</time>
      </trkpt>
      <trkpt lat="45.74634" lon="4.64987">
        <ele>510.8</ele>
        <time>2025-12-11T14:01:50Z</time>
      </trkpt>
      <trkpt lat="45.74635" lon="4.64985">
        <ele>510.8</ele>
        <time>2025-12-11T14:01:51Z</time>
      </trkpt>
      <trkpt lat="45.74635" lon="4.64984">
        <ele>511</ele>
        <time>2025-12-11T14:01:52Z</time>
      </trkpt>
      <trkpt lat="45.74636" lon="4.64982">
        <ele>511.2</ele>
        <time>2025-12-11T14:01:53Z</time>
      </trkpt>
      <trkpt lat="45.74637" lon="4.6498">
        <ele>511.2</ele>
        <time>2025-12-11T14:01:54Z</time>
      </trkpt>
      <trkpt lat="45.74638" lon="4.64977">
        <ele>511.4</ele>
        <time>2025-12-11T14:01:55Z</time>
      </trkpt>
      <trkpt lat="45.74639" lon="4.64975">
        <ele>511.6</ele>
        <time>2025-12-11T14:01:56Z</time>
      </trkpt>
      <trkpt lat="45.7464" lon="4.64973">
        <ele>511.8</ele>
        <time>2025-12-11T14:01:57Z</time>
      </trkpt>
      <trkpt lat="45.7464" lon="4.64971">
        <ele>511.8</ele>
        <time>2025-12-11T14:01:58Z</time>
      </trkpt>
      <trkpt lat="45.7464" lon="4.64969">
        <ele>512</ele>
        <time>2025-12-11T14:01:59Z</time>
      </trkpt>
      <trkpt lat="45.7464" lon="4.64966">
        <ele>512.2</ele>
        <time>2025-12-11T14:02:00Z</time>
      </trkpt>
      <trkpt lat="45.74641" lon="4.64964">
        <ele>512.2</ele>
        <time>2025-12-11T14:02:01Z</time>
      </trkpt>
      <trkpt lat="45.74642" lon="4.64962">
        <ele>512.4</ele>
        <time>2025-12-11T14:02:02Z</time>
      </trkpt>
      <trkpt lat="45.74643" lon="4.6496">
        <ele>512.4</ele>
        <time>2025-12-11T14:02:03Z</time>
      </trkpt>
      <trkpt lat="45.74643" lon="4.64958">
        <ele>512.6</ele>
        <time>2025-12-11T14:02:04Z</time>
      </trkpt>
      <trkpt lat="45.74644" lon="4.64955">
        <ele>512.8</ele>
        <time>2025-12-11T14:02:05Z</time>
      </trkpt>
      <trkpt lat="45.74645" lon="4.64953">
        <ele>512.8</ele>
        <time>2025-12-11T14:02:06Z</time>
      </trkpt>
      <trkpt lat="45.74646" lon="4.64951">
        <ele>513</ele>
        <time>2025-12-11T14:02:07Z</time>
      </trkpt>
      <trkpt lat="45.74647" lon="4.64949">
        <ele>513</ele>
        <time>2025-12-11T14:02:08Z</time>
      </trkpt>
      <trkpt lat="45.74647" lon="4.64947">
        <ele>513.2</ele>
        <time>2025-12-11T14:02:09Z</time>
      </trkpt>
      <trkpt lat="45.74648" lon="4.64944">
        <ele>513.2</ele>
        <time>2025-12-11T14:02:10Z</time>
      </trkpt>
      <trkpt lat="45.74649" lon="4.64942">
        <ele>513.2</ele>
        <time>2025-12-11T14:02:11Z</time>
      </trkpt>
      <trkpt lat="45.7465" lon="4.6494">
        <ele>513.4</ele>
        <time>2025-12-11T14:02:12Z</time>
      </trkpt>
      <trkpt lat="45.74651" lon="4.64938">
        <ele>513.4</ele>
        <time>2025-12-11T14:02:13Z</time>
      </trkpt>
      <trkpt lat="45.74652" lon="4.64936">
        <ele>513.6</ele>
        <time>2025-12-11T14:02:14Z</time>
      </trkpt>
      <trkpt lat="45.74653" lon="4.64933">
        <ele>513.6</ele>
        <time>2025-12-11T14:02:15Z</time>
      </trkpt>
      <trkpt lat="45.74654" lon="4.64931">
        <ele>513.8</ele>
        <time>2025-12-11T14:02:16Z</time>
      </trkpt>
      <trkpt lat="45.74654" lon="4.64928">
        <ele>513.8</ele>
        <time>2025-12-11T14:02:17Z</time>
      </trkpt>
      <trkpt lat="45.74655" lon="4.64926">
        <ele>513.8</ele>
        <time>2025-12-11T14:02:18Z</time>
      </trkpt>
      <trkpt lat="45.74655" lon="4.64923">
        <ele>513.8</ele>
        <time>2025-12-11T14:02:19Z</time>
      </trkpt>
      <trkpt lat="45.74656" lon="4.64921">
        <ele>514</ele>
        <time>2025-12-11T14:02:20Z</time>
      </trkpt>
      <trkpt lat="45.74656" lon="4.64918">
        <ele>514</ele>
        <time>2025-12-11T14:02:21Z</time>
      </trkpt>
      <trkpt lat="45.74657" lon="4.64915">
        <ele>514</ele>
        <time>2025-12-11T14:02:22Z</time>
      </trkpt>
      <trkpt lat="45.74658" lon="4.64913">
        <ele>514.2</ele>
        <time>2025-12-11T14:02:23Z</time>
      </trkpt>
      <trkpt lat="45.74658" lon="4.64911">
        <ele>514.4</ele>
        <time>2025-12-11T14:02:24Z</time>
      </trkpt>
      <trkpt lat="45.74659" lon="4.64908">
        <ele>514.4</ele>
        <time>2025-12-11T14:02:25Z</time>
      </trkpt>
      <trkpt lat="45.7466" lon="4.64906">
        <ele>514.6</ele>
        <time>2025-12-11T14:02:26Z</time>
      </trkpt>
      <trkpt lat="45.7466" lon="4.64904">
        <ele>514.6</ele>
        <time>2025-12-11T14:02:27Z</time>
      </trkpt>
      <trkpt lat="45.7466" lon="4.64901">
        <ele>514.8</ele>
        <time>2025-12-11T14:02:28Z</time>
      </trkpt>
      <trkpt lat="45.7466" lon="4.64899">
        <ele>514.8</ele>
        <time>2025-12-11T14:02:29Z</time>
      </trkpt>
      <trkpt lat="45.7466" lon="4.64896">
        <ele>515</ele>
        <time>2025-12-11T14:02:30Z</time>
      </trkpt>
      <trkpt lat="45.74661" lon="4.64894">
        <ele>515.2</ele>
        <time>2025-12-11T14:02:31Z</time>
      </trkpt>
      <trkpt lat="45.74663" lon="4.64892">
        <ele>515.2</ele>
        <time>2025-12-11T14:02:32Z</time>
      </trkpt>
      <trkpt lat="45.74664" lon="4.64891">
        <ele>515.4</ele>
        <time>2025-12-11T14:02:33Z</time>
      </trkpt>
      <trkpt lat="45.74665" lon="4.64889">
        <ele>515.6</ele>
        <time>2025-12-11T14:02:34Z</time>
      </trkpt>
      <trkpt lat="45.74666" lon="4.64887">
        <ele>515.6</ele>
        <time>2025-12-11T14:02:35Z</time>
      </trkpt>
      <trkpt lat="45.74666" lon="4.64884">
        <ele>515.8</ele>
        <time>2025-12-11T14:02:36Z</time>
      </trkpt>
      <trkpt lat="45.74667" lon="4.64882">
        <ele>515.8</ele>
        <time>2025-12-11T14:02:37Z</time>
      </trkpt>
      <trkpt lat="45.74667" lon="4.6488">
        <ele>516</ele>
        <time>2025-12-11T14:02:38Z</time>
      </trkpt>
      <trkpt lat="45.74668" lon="4.64877">
        <ele>516</ele>
        <time>2025-12-11T14:02:39Z</time>
      </trkpt>
      <trkpt lat="45.74668" lon="4.64875">
        <ele>516.2</ele>
        <time>2025-12-11T14:02:40Z</time>
      </trkpt>
      <trkpt lat="45.74669" lon="4.64873">
        <ele>516.4</ele>
        <time>2025-12-11T14:02:41Z</time>
      </trkpt>
      <trkpt lat="45.74669" lon="4.64871">
        <ele>516.4</ele>
        <time>2025-12-11T14:02:42Z</time>
      </trkpt>
      <trkpt lat="45.7467" lon="4.64869">
        <ele>516.6</ele>
        <time>2025-12-11T14:02:43Z</time>
      </trkpt>
      <trkpt lat="45.7467" lon="4.64866">
        <ele>516.8</ele>
        <time>2025-12-11T14:02:44Z</time>
      </trkpt>
      <trkpt lat="45.74671" lon="4.64864">
        <ele>517</ele>
        <time>2025-12-11T14:02:45Z</time>
      </trkpt>
      <trkpt lat="45.74671" lon="4.64862">
        <ele>517</ele>
        <time>2025-12-11T14:02:46Z</time>
      </trkpt>
      <trkpt lat="45.74672" lon="4.64861">
        <ele>517.2</ele>
        <time>2025-12-11T14:02:47Z</time>
      </trkpt>
      <trkpt lat="45.74672" lon="4.64859">
        <ele>517.4</ele>
        <time>2025-12-11T14:02:48Z</time>
      </trkpt>
      <trkpt lat="45.74673" lon="4.64857">
        <ele>517.6</ele>
        <time>2025-12-11T14:02:49Z</time>
      </trkpt>
      <trkpt lat="45.74673" lon="4.64855">
        <ele>517.8</ele>
        <time>2025-12-11T14:02:50Z</time>
      </trkpt>
      <trkpt lat="45.74674" lon="4.64852">
        <ele>517.8</ele>
        <time>2025-12-11T14:02:51Z</time>
      </trkpt>
      <trkpt lat="45.74674" lon="4.6485">
        <ele>518</ele>
        <time>2025-12-11T14:02:52Z</time>
      </trkpt>
      <trkpt lat="45.74675" lon="4.64848">
        <ele>518.2</ele>
        <time>2025-12-11T14:02:53Z</time>
      </trkpt>
      <trkpt lat="45.74675" lon="4.64846">
        <ele>518.4</ele>
        <time>2025-12-11T14:02:54Z</time>
      </trkpt>
      <trkpt lat="45.74675" lon="4.64844">
        <ele>518.6</ele>
        <time>2025-12-11T14:02:55Z</time>
      </trkpt>
      <trkpt lat="45.74674" lon="4.64842">
        <ele>518.8</ele>
        <time>2025-12-11T14:02:56Z</time>
      </trkpt>
      <trkpt lat="45.74674" lon="4.6484">
        <ele>518.8</ele>
        <time>2025-12-11T14:02:57Z</time>
      </trkpt>
      <trkpt lat="45.74673" lon="4.64838">
        <ele>519</ele>
        <time>2025-12-11T14:02:58Z</time>
      </trkpt>
      <trkpt lat="45.74673" lon="4.64835">
        <ele>519.2</ele>
        <time>2025-12-11T14:02:59Z</time>
      </trkpt>
      <trkpt lat="45.74673" lon="4.64833">
        <ele>519.4</ele>
        <time>2025-12-11T14:03:00Z</time>
      </trkpt>
      <trkpt lat="45.74673" lon="4.64831">
        <ele>519.6</ele>
        <time>2025-12-11T14:03:01Z</time>
      </trkpt>
      <trkpt lat="45.74673" lon="4.6483">
        <ele>519.8</ele>
        <time>2025-12-11T14:03:02Z</time>
      </trkpt>
      <trkpt lat="45.74672" lon="4.64828">
        <ele>520</ele>
        <time>2025-12-11T14:03:03Z</time>
      </trkpt>
      <trkpt lat="45.74672" lon="4.64827">
        <ele>520.2</ele>
        <time>2025-12-11T14:03:04Z</time>
      </trkpt>
      <trkpt lat="45.74672" lon="4.64825">
        <ele>520.4</ele>
        <time>2025-12-11T14:03:05Z</time>
      </trkpt>
      <trkpt lat="45.74671" lon="4.64823">
        <ele>520.6</ele>
        <time>2025-12-11T14:03:06Z</time>
      </trkpt>
      <trkpt lat="45.74671" lon="4.64822">
        <ele>520.8</ele>
        <time>2025-12-11T14:03:07Z</time>
      </trkpt>
      <trkpt lat="45.74671" lon="4.6482">
        <ele>521</ele>
        <time>2025-12-11T14:03:08Z</time>
      </trkpt>
      <trkpt lat="45.74671" lon="4.64819">
        <ele>521.2</ele>
        <time>2025-12-11T14:03:09Z</time>
      </trkpt>
      <trkpt lat="45.7467" lon="4.64818">
        <ele>521.4</ele>
        <time>2025-12-11T14:03:10Z</time>
      </trkpt>
      <trkpt lat="45.74669" lon="4.64818">
        <ele>521.6</ele>
        <time>2025-12-11T14:03:11Z</time>
      </trkpt>
      <trkpt lat="45.74668" lon="4.64817">
        <ele>521.8</ele>
        <time>2025-12-11T14:03:12Z</time>
      </trkpt>
      <trkpt lat="45.74667" lon="4.64816">
        <ele>522</ele>
        <time>2025-12-11T14:03:13Z</time>
      </trkpt>
      <trkpt lat="45.74665" lon="4.64815">
        <ele>522.2</ele>
        <time>2025-12-11T14:03:14Z</time>
      </trkpt>
      <trkpt lat="45.74664" lon="4.64813">
        <ele>522.4</ele>
        <time>2025-12-11T14:03:15Z</time>
      </trkpt>
      <trkpt lat="45.74664" lon="4.64812">
        <ele>522.6</ele>
        <time>2025-12-11T14:03:16Z</time>
      </trkpt>
      <trkpt lat="45.74663" lon="4.6481">
        <ele>522.8</ele>
        <time>2025-12-11T14:03:17Z</time>
      </trkpt>
      <trkpt lat="45.74662" lon="4.64808">
        <ele>523</ele>
        <time>2025-12-11T14:03:18Z</time>
      </trkpt>
      <trkpt lat="45.74661" lon="4.64807">
        <ele>523</ele>
        <time>2025-12-11T14:03:19Z</time>
      </trkpt>
      <trkpt lat="45.7466" lon="4.64806">
        <ele>523.2</ele>
        <time>2025-12-11T14:03:20Z</time>
      </trkpt>
      <trkpt lat="45.74659" lon="4.64806">
        <ele>523.4</ele>
        <time>2025-12-11T14:03:21Z</time>
      </trkpt>
      <trkpt lat="45.74658" lon="4.64806">
        <ele>523.6</ele>
        <time>2025-12-11T14:03:22Z</time>
      </trkpt>
      <trkpt lat="45.74657" lon="4.64806">
        <ele>523.8</ele>
        <time>2025-12-11T14:03:23Z</time>
      </trkpt>
      <trkpt lat="45.74655" lon="4.64805">
        <ele>524</ele>
        <time>2025-12-11T14:03:24Z</time>
      </trkpt>
      <trkpt lat="45.74654" lon="4.64804">
        <ele>524.2</ele>
        <time>2025-12-11T14:03:25Z</time>
      </trkpt>
      <trkpt lat="45.74654" lon="4.64802">
        <ele>524.4</ele>
        <time>2025-12-11T14:03:26Z</time>
      </trkpt>
      <trkpt lat="45.74654" lon="4.64801">
        <ele>524.6</ele>
        <time>2025-12-11T14:03:27Z</time>
      </trkpt>
      <trkpt lat="45.74653" lon="4.648">
        <ele>524.6</ele>
        <time>2025-12-11T14:03:28Z</time>
      </trkpt>
      <trkpt lat="45.74652" lon="4.64799">
        <ele>524.8</ele>
        <time>2025-12-11T14:03:29Z</time>
      </trkpt>
      <trkpt lat="45.74651" lon="4.64799">
        <ele>525</ele>
        <time>2025-12-11T14:03:30Z</time>
      </trkpt>
      <trkpt lat="45.74649" lon="4.64799">
        <ele>525.2</ele>
        <time>2025-12-11T14:03:31Z</time>
      </trkpt>
      <trkpt lat="45.74648" lon="4.64798">
        <ele>525.4</ele>
        <time>2025-12-11T14:03:32Z</time>
      </trkpt>
      <trkpt lat="45.74647" lon="4.64797">
        <ele>525.6</ele>
        <time>2025-12-11T14:03:33Z</time>
      </trkpt>
      <trkpt lat="45.74647" lon="4.64795">
        <ele>525.8</ele>
        <time>2025-12-11T14:03:34Z</time>
      </trkpt>
      <trkpt lat="45.74646" lon="4.64794">
        <ele>526</ele>
        <time>2025-12-11T14:03:35Z</time>
      </trkpt>
      <trkpt lat="45.74645" lon="4.64793">
        <ele>526</ele>
        <time>2025-12-11T14:03:36Z</time>
      </trkpt>
      <trkpt lat="45.74644" lon="4.64792">
        <ele>526.2</ele>
        <time>2025-12-11T14:03:37Z</time>
      </trkpt>
      <trkpt lat="45.74643" lon="4.64792">
        <ele>526.4</ele>
        <time>2025-12-11T14:03:38Z</time>
      </trkpt>
      <trkpt lat="45.74642" lon="4.64791">
        <ele>526.6</ele>
        <time>2025-12-11T14:03:39Z</time>
      </trkpt>
      <trkpt lat="45.74641" lon="4.6479">
        <ele>526.8</ele>
        <time>2025-12-11T14:03:40Z</time>
      </trkpt>
      <trkpt lat="45.7464" lon="4.64788">
        <ele>526.8</ele>
        <time>2025-12-11T14:03:41Z</time>
      </trkpt>
      <trkpt lat="45.74639" lon="4.64787">
        <ele>527</ele>
        <time>2025-12-11T14:03:42Z</time>
      </trkpt>
      <trkpt lat="45.74639" lon="4.64785">
        <ele>527.2</ele>
        <time>2025-12-11T14:03:43Z</time>
      </trkpt>
      <trkpt lat="45.74638" lon="4.64784">
        <ele>527.4</ele>
        <time>2025-12-11T14:03:44Z</time>
      </trkpt>
      <trkpt lat="45.74638" lon="4.64783">
        <ele>527.4</ele>
        <time>2025-12-11T14:03:45Z</time>
      </trkpt>
      <trkpt lat="45.74637" lon="4.64782">
        <ele>527.6</ele>
        <time>2025-12-11T14:03:46Z</time>
      </trkpt>
      <trkpt lat="45.74635" lon="4.64781">
        <ele>527.8</ele>
        <time>2025-12-11T14:03:47Z</time>
      </trkpt>
      <trkpt lat="45.74634" lon="4.6478">
        <ele>528</ele>
        <time>2025-12-11T14:03:48Z</time>
      </trkpt>
      <trkpt lat="45.74633" lon="4.6478">
        <ele>528.2</ele>
        <time>2025-12-11T14:03:49Z</time>
      </trkpt>
      <trkpt lat="45.74632" lon="4.64779">
        <ele>528.4</ele>
        <time>2025-12-11T14:03:50Z</time>
      </trkpt>
      <trkpt lat="45.74631" lon="4.64779">
        <ele>528.6</ele>
        <time>2025-12-11T14:03:51Z</time>
      </trkpt>
      <trkpt lat="45.7463" lon="4.64777">
        <ele>528.8</ele>
        <time>2025-12-11T14:03:52Z</time>
      </trkpt>
      <trkpt lat="45.7463" lon="4.64776">
        <ele>528.8</ele>
        <time>2025-12-11T14:03:53Z</time>
      </trkpt>
      <trkpt lat="45.74629" lon="4.64774">
        <ele>529</ele>
        <time>2025-12-11T14:03:54Z</time>
      </trkpt>
      <trkpt lat="45.74629" lon="4.64773">
        <ele>529.2</ele>
        <time>2025-12-11T14:03:55Z</time>
      </trkpt>
      <trkpt lat="45.74628" lon="4.64772">
        <ele>529.4</ele>
        <time>2025-12-11T14:03:56Z</time>
      </trkpt>
      <trkpt lat="45.74627" lon="4.64771">
        <ele>529.6</ele>
        <time>2025-12-11T14:03:57Z</time>
      </trkpt>
      <trkpt lat="45.74625" lon="4.6477">
        <ele>529.8</ele>
        <time>2025-12-11T14:03:58Z</time>
      </trkpt>
      <trkpt lat="45.74624" lon="4.6477">
        <ele>530</ele>
        <time>2025-12-11T14:03:59Z</time>
      </trkpt>
      <trkpt lat="45.74623" lon="4.64769">
        <ele>530</ele>
        <time>2025-12-11T14:04:00Z</time>
      </trkpt>
      <trkpt lat="45.74622" lon="4.64768">
        <ele>530.2</ele>
        <time>2025-12-11T14:04:01Z</time>
      </trkpt>
      <trkpt lat="45.74621" lon="4.64767">
        <ele>530.4</ele>
        <time>2025-12-11T14:04:02Z</time>
      </trkpt>
      <trkpt lat="45.7462" lon="4.64765">
        <ele>530.6</ele>
        <time>2025-12-11T14:04:03Z</time>
      </trkpt>
      <trkpt lat="45.74619" lon="4.64764">
        <ele>530.8</ele>
        <time>2025-12-11T14:04:04Z</time>
      </trkpt>
      <trkpt lat="45.74619" lon="4.64762">
        <ele>531</ele>
        <time>2025-12-11T14:04:05Z</time>
      </trkpt>
      <trkpt lat="45.74618" lon="4.64761">
        <ele>531</ele>
        <time>2025-12-11T14:04:06Z</time>
      </trkpt>
      <trkpt lat="45.74617" lon="4.6476">
        <ele>531.2</ele>
        <time>2025-12-11T14:04:07Z</time>
      </trkpt>
      <trkpt lat="45.74616" lon="4.64759">
        <ele>531.4</ele>
        <time>2025-12-11T14:04:08Z</time>
      </trkpt>
      <trkpt lat="45.74616" lon="4.64758">
        <ele>531.6</ele>
        <time>2025-12-11T14:04:09Z</time>
      </trkpt>
      <trkpt lat="45.74615" lon="4.64758">
        <ele>531.8</ele>
        <time>2025-12-11T14:04:10Z</time>
      </trkpt>
      <trkpt lat="45.74613" lon="4.64757">
        <ele>532</ele>
        <time>2025-12-11T14:04:11Z</time>
      </trkpt>
      <trkpt lat="45.74613" lon="4.64755">
        <ele>532.2</ele>
        <time>2025-12-11T14:04:12Z</time>
      </trkpt>
      <trkpt lat="45.74612" lon="4.64754">
        <ele>532.2</ele>
        <time>2025-12-11T14:04:13Z</time>
      </trkpt>
      <trkpt lat="45.74611" lon="4.64753">
        <ele>532.4</ele>
        <time>2025-12-11T14:04:14Z</time>
      </trkpt>
      <trkpt lat="45.7461" lon="4.64751">
        <ele>532.6</ele>
        <time>2025-12-11T14:04:15Z</time>
      </trkpt>
      <trkpt lat="45.74608" lon="4.6475">
        <ele>532.8</ele>
        <time>2025-12-11T14:04:16Z</time>
      </trkpt>
      <trkpt lat="45.74607" lon="4.6475">
        <ele>533</ele>
        <time>2025-12-11T14:04:17Z</time>
      </trkpt>
      <trkpt lat="45.74606" lon="4.64748">
        <ele>533.2</ele>
        <time>2025-12-11T14:04:18Z</time>
      </trkpt>
      <trkpt lat="45.74605" lon="4.64747">
        <ele>533.4</ele>
        <time>2025-12-11T14:04:19Z</time>
      </trkpt>
      <trkpt lat="45.74605" lon="4.64745">
        <ele>533.6</ele>
        <time>2025-12-11T14:04:20Z</time>
      </trkpt>
      <trkpt lat="45.74604" lon="4.64744">
        <ele>533.8</ele>
        <time>2025-12-11T14:04:21Z</time>
      </trkpt>
      <trkpt lat="45.74603" lon="4.64743">
        <ele>534</ele>
        <time>2025-12-11T14:04:22Z</time>
      </trkpt>
      <trkpt lat="45.74602" lon="4.64742">
        <ele>534.2</ele>
        <time>2025-12-11T14:04:23Z</time>
      </trkpt>
      <trkpt lat="45.74601" lon="4.64741">
        <ele>534.4</ele>
        <time>2025-12-11T14:04:24Z</time>
      </trkpt>
      <trkpt lat="45.746" lon="4.6474">
        <ele>534.6</ele>
        <time>2025-12-11T14:04:25Z</time>
      </trkpt>
      <trkpt lat="45.74599" lon="4.64739">
        <ele>534.8</ele>
        <time>2025-12-11T14:04:26Z</time>
      </trkpt>
      <trkpt lat="45.74597" lon="4.64738">
        <ele>535</ele>
        <time>2025-12-11T14:04:27Z</time>
      </trkpt>
      <trkpt lat="45.74596" lon="4.64737">
        <ele>535.2</ele>
        <time>2025-12-11T14:04:28Z</time>
      </trkpt>
      <trkpt lat="45.74594" lon="4.64736">
        <ele>535.2</ele>
        <time>2025-12-11T14:04:29Z</time>
      </trkpt>
      <trkpt lat="45.74593" lon="4.64735">
        <ele>535.4</ele>
        <time>2025-12-11T14:04:30Z</time>
      </trkpt>
      <trkpt lat="45.74592" lon="4.64734">
        <ele>535.6</ele>
        <time>2025-12-11T14:04:31Z</time>
      </trkpt>
      <trkpt lat="45.74591" lon="4.64733">
        <ele>535.8</ele>
        <time>2025-12-11T14:04:32Z</time>
      </trkpt>
      <trkpt lat="45.7459" lon="4.64733">
        <ele>536</ele>
        <time>2025-12-11T14:04:33Z</time>
      </trkpt>
      <trkpt lat="45.74589" lon="4.64732">
        <ele>536.2</ele>
        <time>2025-12-11T14:04:34Z</time>
      </trkpt>
      <trkpt lat="45.74588" lon="4.64732">
        <ele>536.4</ele>
        <time>2025-12-11T14:04:35Z</time>
      </trkpt>
      <trkpt lat="45.74586" lon="4.64731">
        <ele>536.4</ele>
        <time>2025-12-11T14:04:36Z</time>
      </trkpt>
      <trkpt lat="45.74585" lon="4.6473">
        <ele>536.6</ele>
        <time>2025-12-11T14:04:37Z</time>
      </trkpt>
      <trkpt lat="45.74584" lon="4.64729">
        <ele>536.8</ele>
        <time>2025-12-11T14:04:38Z</time>
      </trkpt>
      <trkpt lat="45.74583" lon="4.64727">
        <ele>537</ele>
        <time>2025-12-11T14:04:39Z</time>
      </trkpt>
      <trkpt lat="45.74583" lon="4.64726">
        <ele>537.2</ele>
        <time>2025-12-11T14:04:40Z</time>
      </trkpt>
      <trkpt lat="45.74582" lon="4.64725">
        <ele>537.4</ele>
        <time>2025-12-11T14:04:41Z</time>
      </trkpt>
      <trkpt lat="45.74581" lon="4.64724">
        <ele>537.6</ele>
        <time>2025-12-11T14:04:42Z</time>
      </trkpt>
      <trkpt lat="45.74579" lon="4.64724">
        <ele>537.8</ele>
        <time>2025-12-11T14:04:43Z</time>
      </trkpt>
      <trkpt lat="45.74578" lon="4.64723">
        <ele>538</ele>
        <time>2025-12-11T14:04:44Z</time>
      </trkpt>
      <trkpt lat="45.74576" lon="4.64723">
        <ele>538.2</ele>
        <time>2025-12-11T14:04:45Z</time>
      </trkpt>
      <trkpt lat="45.74575" lon="4.64722">
        <ele>538.2</ele>
        <time>2025-12-11T14:04:46Z</time>
      </trkpt>
      <trkpt lat="45.74574" lon="4.64721">
        <ele>538.4</ele>
        <time>2025-12-11T14:04:47Z</time>
      </trkpt>
      <trkpt lat="45.74572" lon="4.6472">
        <ele>538.6</ele>
        <time>2025-12-11T14:04:48Z</time>
      </trkpt>
      <trkpt lat="45.74571" lon="4.64719">
        <ele>538.8</ele>
        <time>2025-12-11T14:04:49Z</time>
      </trkpt>
      <trkpt lat="45.7457" lon="4.64718">
        <ele>539</ele>
        <time>2025-12-11T14:04:50Z</time>
      </trkpt>
      <trkpt lat="45.74569" lon="4.64717">
        <ele>539.2</ele>
        <time>2025-12-11T14:04:51Z</time>
      </trkpt>
      <trkpt lat="45.74568" lon="4.64716">
        <ele>539.2</ele>
        <time>2025-12-11T14:04:52Z</time>
      </trkpt>
      <trkpt lat="45.74566" lon="4.64715">
        <ele>539.4</ele>
        <time>2025-12-11T14:04:53Z</time>
      </trkpt>
      <trkpt lat="45.74564" lon="4.64714">
        <ele>539.6</ele>
        <time>2025-12-11T14:04:54Z</time>
      </trkpt>
      <trkpt lat="45.74563" lon="4.64712">
        <ele>539.6</ele>
        <time>2025-12-11T14:04:55Z</time>
      </trkpt>
      <trkpt lat="45.74562" lon="4.64711">
        <ele>539.8</ele>
        <time>2025-12-11T14:04:56Z</time>
      </trkpt>
      <trkpt lat="45.74561" lon="4.64709">
        <ele>539.8</ele>
        <time>2025-12-11T14:04:57Z</time>
      </trkpt>
      <trkpt lat="45.7456" lon="4.64707">
        <ele>540</ele>
        <time>2025-12-11T14:04:58Z</time>
      </trkpt>
      <trkpt lat="45.74559" lon="4.64706">
        <ele>540.2</ele>
        <time>2025-12-11T14:04:59Z</time>
      </trkpt>
      <trkpt lat="45.74558" lon="4.64704">
        <ele>540.2</ele>
        <time>2025-12-11T14:05:00Z</time>
      </trkpt>
      <trkpt lat="45.74557" lon="4.64702">
        <ele>540.4</ele>
        <time>2025-12-11T14:05:01Z</time>
      </trkpt>
      <trkpt lat="45.74556" lon="4.64701">
        <ele>540.6</ele>
        <time>2025-12-11T14:05:02Z</time>
      </trkpt>
      <trkpt lat="45.74555" lon="4.64699">
        <ele>540.6</ele>
        <time>2025-12-11T14:05:03Z</time>
      </trkpt>
      <trkpt lat="45.74554" lon="4.64697">
        <ele>540.8</ele>
        <time>2025-12-11T14:05:04Z</time>
      </trkpt>
      <trkpt lat="45.74553" lon="4.64696">
        <ele>540.8</ele>
        <time>2025-12-11T14:05:05Z</time>
      </trkpt>
      <trkpt lat="45.74552" lon="4.64694">
        <ele>541</ele>
        <time>2025-12-11T14:05:06Z</time>
      </trkpt>
      <trkpt lat="45.74552" lon="4.64692">
        <ele>541.2</ele>
        <time>2025-12-11T14:05:07Z</time>
      </trkpt>
      <trkpt lat="45.74551" lon="4.6469">
        <ele>541.2</ele>
        <time>2025-12-11T14:05:08Z</time>
      </trkpt>
      <trkpt lat="45.74551" lon="4.64688">
        <ele>541.4</ele>
        <time>2025-12-11T14:05:09Z</time>
      </trkpt>
      <trkpt lat="45.7455" lon="4.64686">
        <ele>541.6</ele>
        <time>2025-12-11T14:05:10Z</time>
      </trkpt>
      <trkpt lat="45.74549" lon="4.64685">
        <ele>541.8</ele>
        <time>2025-12-11T14:05:11Z</time>
      </trkpt>
      <trkpt lat="45.74549" lon="4.64683">
        <ele>542</ele>
        <time>2025-12-11T14:05:12Z</time>
      </trkpt>
      <trkpt lat="45.74548" lon="4.64681">
        <ele>542</ele>
        <time>2025-12-11T14:05:13Z</time>
      </trkpt>
      <trkpt lat="45.74548" lon="4.64679">
        <ele>542.2</ele>
        <time>2025-12-11T14:05:14Z</time>
      </trkpt>
      <trkpt lat="45.74547" lon="4.64677">
        <ele>542.4</ele>
        <time>2025-12-11T14:05:15Z</time>
      </trkpt>
      <trkpt lat="45.74547" lon="4.64676">
        <ele>542.6</ele>
        <time>2025-12-11T14:05:16Z</time>
      </trkpt>
      <trkpt lat="45.74546" lon="4.64674">
        <ele>542.8</ele>
        <time>2025-12-11T14:05:17Z</time>
      </trkpt>
      <trkpt lat="45.74546" lon="4.64672">
        <ele>543</ele>
        <time>2025-12-11T14:05:18Z</time>
      </trkpt>
      <trkpt lat="45.74545" lon="4.6467">
        <ele>543.2</ele>
        <time>2025-12-11T14:05:19Z</time>
      </trkpt>
      <trkpt lat="45.74545" lon="4.64668">
        <ele>543.2</ele>
        <time>2025-12-11T14:05:20Z</time>
      </trkpt>
      <trkpt lat="45.74544" lon="4.64666">
        <ele>543.4</ele>
        <time>2025-12-11T14:05:21Z</time>
      </trkpt>
      <trkpt lat="45.74543" lon="4.64664">
        <ele>543.4</ele>
        <time>2025-12-11T14:05:22Z</time>
      </trkpt>
      <trkpt lat="45.74543" lon="4.64662">
        <ele>543.6</ele>
        <time>2025-12-11T14:05:23Z</time>
      </trkpt>
      <trkpt lat="45.74542" lon="4.6466">
        <ele>543.8</ele>
        <time>2025-12-11T14:05:24Z</time>
      </trkpt>
      <trkpt lat="45.74541" lon="4.64658">
        <ele>544</ele>
        <time>2025-12-11T14:05:25Z</time>
      </trkpt>
      <trkpt lat="45.7454" lon="4.64656">
        <ele>544</ele>
        <time>2025-12-11T14:05:26Z</time>
      </trkpt>
      <trkpt lat="45.7454" lon="4.64654">
        <ele>544.2</ele>
        <time>2025-12-11T14:05:27Z</time>
      </trkpt>
      <trkpt lat="45.74539" lon="4.64652">
        <ele>544.4</ele>
        <time>2025-12-11T14:05:28Z</time>
      </trkpt>
      <trkpt lat="45.74539" lon="4.6465">
        <ele>544.4</ele>
        <time>2025-12-11T14:05:29Z</time>
      </trkpt>
      <trkpt lat="45.74538" lon="4.64648">
        <ele>544.6</ele>
        <time>2025-12-11T14:05:30Z</time>
      </trkpt>
      <trkpt lat="45.74537" lon="4.64646">
        <ele>544.6</ele>
        <time>2025-12-11T14:05:31Z</time>
      </trkpt>
      <trkpt lat="45.74537" lon="4.64645">
        <ele>544.8</ele>
        <time>2025-12-11T14:05:32Z</time>
      </trkpt>
      <trkpt lat="45.74536" lon="4.64643">
        <ele>545</ele>
        <time>2025-12-11T14:05:33Z</time>
      </trkpt>
      <trkpt lat="45.74534" lon="4.64641">
        <ele>545</ele>
        <time>2025-12-11T14:05:34Z</time>
      </trkpt>
      <trkpt lat="45.74533" lon="4.64639">
        <ele>545.2</ele>
        <time>2025-12-11T14:05:35Z</time>
      </trkpt>
      <trkpt lat="45.74532" lon="4.64637">
        <ele>545.2</ele>
        <time>2025-12-11T14:05:36Z</time>
      </trkpt>
      <trkpt lat="45.74531" lon="4.64635">
        <ele>545.4</ele>
        <time>2025-12-11T14:05:37Z</time>
      </trkpt>
      <trkpt lat="45.74531" lon="4.64633">
        <ele>545.4</ele>
        <time>2025-12-11T14:05:38Z</time>
      </trkpt>
      <trkpt lat="45.7453" lon="4.64631">
        <ele>545.6</ele>
        <time>2025-12-11T14:05:39Z</time>
      </trkpt>
      <trkpt lat="45.74529" lon="4.64629">
        <ele>545.8</ele>
        <time>2025-12-11T14:05:40Z</time>
      </trkpt>
      <trkpt lat="45.74528" lon="4.64627">
        <ele>545.8</ele>
        <time>2025-12-11T14:05:41Z</time>
      </trkpt>
      <trkpt lat="45.74528" lon="4.64625">
        <ele>546</ele>
        <time>2025-12-11T14:05:42Z</time>
      </trkpt>
      <trkpt lat="45.74527" lon="4.64623">
        <ele>546.2</ele>
        <time>2025-12-11T14:05:43Z</time>
      </trkpt>
      <trkpt lat="45.74527" lon="4.64622">
        <ele>546.2</ele>
        <time>2025-12-11T14:05:44Z</time>
      </trkpt>
      <trkpt lat="45.74526" lon="4.6462">
        <ele>546.4</ele>
        <time>2025-12-11T14:05:45Z</time>
      </trkpt>
      <trkpt lat="45.74525" lon="4.64618">
        <ele>546.6</ele>
        <time>2025-12-11T14:05:46Z</time>
      </trkpt>
      <trkpt lat="45.74524" lon="4.64616">
        <ele>546.6</ele>
        <time>2025-12-11T14:05:47Z</time>
      </trkpt>
      <trkpt lat="45.74524" lon="4.64614">
        <ele>546.8</ele>
        <time>2025-12-11T14:05:48Z</time>
      </trkpt>
      <trkpt lat="45.74523" lon="4.64612">
        <ele>547</ele>
        <time>2025-12-11T14:05:49Z</time>
      </trkpt>
      <trkpt lat="45.74523" lon="4.64609">
        <ele>547.2</ele>
        <time>2025-12-11T14:05:50Z</time>
      </trkpt>
      <trkpt lat="45.74523" lon="4.64608">
        <ele>547.2</ele>
        <time>2025-12-11T14:05:51Z</time>
      </trkpt>
      <trkpt lat="45.74522" lon="4.64606">
        <ele>547.4</ele>
        <time>2025-12-11T14:05:52Z</time>
      </trkpt>
      <trkpt lat="45.74522" lon="4.64604">
        <ele>547.6</ele>
        <time>2025-12-11T14:05:53Z</time>
      </trkpt>
      <trkpt lat="45.74522" lon="4.64602">
        <ele>547.8</ele>
        <time>2025-12-11T14:05:54Z</time>
      </trkpt>
      <trkpt lat="45.74521" lon="4.64601">
        <ele>547.8</ele>
        <time>2025-12-11T14:05:55Z</time>
      </trkpt>
      <trkpt lat="45.74521" lon="4.64599">
        <ele>548</ele>
        <time>2025-12-11T14:05:56Z</time>
      </trkpt>
      <trkpt lat="45.7452" lon="4.64597">
        <ele>548.2</ele>
        <time>2025-12-11T14:05:57Z</time>
      </trkpt>
      <trkpt lat="45.7452" lon="4.64596">
        <ele>548.4</ele>
        <time>2025-12-11T14:05:58Z</time>
      </trkpt>
      <trkpt lat="45.7452" lon="4.64594">
        <ele>548.6</ele>
        <time>2025-12-11T14:05:59Z</time>
      </trkpt>
      <trkpt lat="45.74519" lon="4.64593">
        <ele>548.8</ele>
        <time>2025-12-11T14:06:00Z</time>
      </trkpt>
      <trkpt lat="45.74519" lon="4.64591">
        <ele>549</ele>
        <time>2025-12-11T14:06:01Z</time>
      </trkpt>
      <trkpt lat="45.74518" lon="4.64589">
        <ele>549.2</ele>
        <time>2025-12-11T14:06:02Z</time>
      </trkpt>
      <trkpt lat="45.74518" lon="4.64587">
        <ele>549.2</ele>
        <time>2025-12-11T14:06:03Z</time>
      </trkpt>
      <trkpt lat="45.74517" lon="4.64585">
        <ele>549.4</ele>
        <time>2025-12-11T14:06:04Z</time>
      </trkpt>
      <trkpt lat="45.74517" lon="4.64583">
        <ele>549.4</ele>
        <time>2025-12-11T14:06:05Z</time>
      </trkpt>
      <trkpt lat="45.74516" lon="4.64582">
        <ele>549.6</ele>
        <time>2025-12-11T14:06:06Z</time>
      </trkpt>
      <trkpt lat="45.74516" lon="4.64582">
        <ele>549.6</ele>
        <time>2025-12-11T14:06:07Z</time>
      </trkpt>
      <trkpt lat="45.74516" lon="4.64582">
        <ele>549.8</ele>
        <time>2025-12-11T14:06:08Z</time>
      </trkpt>
      <trkpt lat="45.74516" lon="4.64582">
        <ele>549.8</ele>
        <time>2025-12-11T14:06:09Z</time>
      </trkpt>
      <trkpt lat="45.74516" lon="4.64582">
        <ele>550</ele>
        <time>2025-12-11T14:06:10Z</time>
      </trkpt>
      <trkpt lat="45.74516" lon="4.64582">
        <ele>550</ele>
        <time>2025-12-11T14:06:11Z</time>
      </trkpt>
      <trkpt lat="45.74516" lon="4.64582">
        <ele>550</ele>
        <time>2025-12-11T14:06:12Z</time>
      </trkpt>
      <trkpt lat="45.74516" lon="4.64582">
        <ele>550</ele>
        <time>2025-12-11T14:06:13Z</time>
      </trkpt>
      <trkpt lat="45.74516" lon="4.64582">
        <ele>550</ele>
        <time>2025-12-11T14:06:14Z</time>
      </trkpt>
      <trkpt lat="45.74516" lon="4.64582">
        <ele>550</ele>
        <time>2025-12-11T14:06:15Z</time>
      </trkpt>
      <trkpt lat="45.74516" lon="4.64582">
        <ele>550</ele>
        <time>2025-12-11T14:06:16Z</time>
      </trkpt>
      <trkpt lat="45.74516" lon="4.64582">
        <ele>550</ele>
        <time>2025-12-11T14:06:17Z</time>
      </trkpt>
      <trkpt lat="45.74516" lon="4.64582">
        <ele>550</ele>
        <time>2025-12-11T14:06:18Z</time>
      </trkpt>
      <trkpt lat="45.74516" lon="4.64582">
        <ele>550</ele>
        <time>2025-12-11T14:06:19Z</time>
      </trkpt>
      <trkpt lat="45.74516" lon="4.64582">
        <ele>550</ele>
        <time>2025-12-11T14:06:20Z</time>
      </trkpt>
      <trkpt lat="45.74516" lon="4.64582">
        <ele>550</ele>
        <time>2025-12-11T14:06:21Z</time>
      </trkpt>
      <trkpt lat="45.74516" lon="4.64582">
        <ele>550</ele>
        <time>2025-12-11T14:06:22Z</time>
      </trkpt>
      <trkpt lat="45.74516" lon="4.64582">
        <ele>550</ele>
        <time>2025-12-11T14:06:23Z</time>
      </trkpt>
      <trkpt lat="45.74516" lon="4.64582">
        <ele>550</ele>
        <time>2025-12-11T14:06:24Z</time>
      </trkpt>
      <trkpt lat="45.74516" lon="4.64582">
        <ele>550</ele>
        <time>2025-12-11T14:06:25Z</time>
      </trkpt>
      <trkpt lat="45.74516" lon="4.64582">
        <ele>550</ele>
        <time>2025-12-11T14:06:26Z</time>
      </trkpt>
      <trkpt lat="45.74516" lon="4.64582">
        <ele>549.8</ele>
        <time>2025-12-11T14:06:27Z</time>
      </trkpt>
      <trkpt lat="45.74516" lon="4.64582">
        <ele>550</ele>
        <time>2025-12-11T14:06:28Z</time>
      </trkpt>
      <trkpt lat="45.74516" lon="4.64582">
        <ele>550</ele>
        <time>2025-12-11T14:06:29Z</time>
      </trkpt>
      <trkpt lat="45.74516" lon="4.64582">
        <ele>550</ele>
        <time>2025-12-11T14:06:30Z</time>
      </trkpt>
      <trkpt lat="45.74516" lon="4.64582">
        <ele>550</ele>
        <time>2025-12-11T14:06:31Z</time>
      </trkpt>
      <trkpt lat="45.74516" lon="4.64582">
        <ele>550</ele>
        <time>2025-12-11T14:06:32Z</time>
      </trkpt>
      <trkpt lat="45.74516" lon="4.64582">
        <ele>550</ele>
        <time>2025-12-11T14:06:33Z</time>
      </trkpt>
      <trkpt lat="45.74516" lon="4.64582">
        <ele>550</ele>
        <time>2025-12-11T14:06:34Z</time>
      </trkpt>
      <trkpt lat="45.74516" lon="4.64582">
        <ele>550</ele>
        <time>2025-12-11T14:06:35Z</time>
      </trkpt>
      <trkpt lat="45.74516" lon="4.64582">
        <ele>550</ele>
        <time>2025-12-11T14:06:36Z</time>
      </trkpt>
      <trkpt lat="45.74516" lon="4.64582">
        <ele>549.8</ele>
        <time>2025-12-11T14:06:37Z</time>
      </trkpt>
      <trkpt lat="45.74516" lon="4.64582">
        <ele>549.6</ele>
        <time>2025-12-11T14:06:38Z</time>
      </trkpt>
      <trkpt lat="45.74516" lon="4.64582">
        <ele>549.4</ele>
        <time>2025-12-11T14:06:39Z</time>
      </trkpt>
      <trkpt lat="45.74516" lon="4.64582">
        <ele>549.4</ele>
        <time>2025-12-11T14:06:40Z</time>
      </trkpt>
      <trkpt lat="45.74516" lon="4.64582">
        <ele>549.6</ele>
        <time>2025-12-11T14:06:41Z</time>
      </trkpt>
      <trkpt lat="45.74516" lon="4.64582">
        <ele>549.6</ele>
        <time>2025-12-11T14:06:42Z</time>
      </trkpt>
      <trkpt lat="45.74516" lon="4.64582">
        <ele>549.6</ele>
        <time>2025-12-11T14:06:43Z</time>
      </trkpt>
      <trkpt lat="45.74516" lon="4.64582">
        <ele>550.6</ele>
        <time>2025-12-11T14:06:44Z</time>
      </trkpt>
      <trkpt lat="45.74516" lon="4.64582">
        <ele>550.4</ele>
        <time>2025-12-11T14:06:45Z</time>
      </trkpt>
      <trkpt lat="45.74516" lon="4.64582">
        <ele>550.2</ele>
        <time>2025-12-11T14:06:46Z</time>
      </trkpt>
      <trkpt lat="45.74516" lon="4.64582">
        <ele>550.2</ele>
        <time>2025-12-11T14:06:47Z</time>
      </trkpt>
      <trkpt lat="45.74516" lon="4.64582">
        <ele>550</ele>
        <time>2025-12-11T14:06:48Z</time>
      </trkpt>
      <trkpt lat="45.74516" lon="4.64582">
        <ele>549.6</ele>
        <time>2025-12-11T14:06:49Z</time>
      </trkpt>
      <trkpt lat="45.74516" lon="4.64582">
        <ele>549.6</ele>
        <time>2025-12-11T14:06:50Z</time>
      </trkpt>
      <trkpt lat="45.74516" lon="4.64582">
        <ele>549.6</ele>
        <time>2025-12-11T14:06:51Z</time>
      </trkpt>
      <trkpt lat="45.74516" lon="4.64582">
        <ele>549.4</ele>
        <time>2025-12-11T14:06:52Z</time>
      </trkpt>
      <trkpt lat="45.74516" lon="4.64582">
        <ele>550</ele>
        <time>2025-12-11T14:06:53Z</time>
      </trkpt>
      <trkpt lat="45.74516" lon="4.64582">
        <ele>550.4</ele>
        <time>2025-12-11T14:06:54Z</time>
      </trkpt>
      <trkpt lat="45.74516" lon="4.64582">
        <ele>550.4</ele>
        <time>2025-12-11T14:06:55Z</time>
      </trkpt>
      <trkpt lat="45.74516" lon="4.64582">
        <ele>550.4</ele>
        <time>2025-12-11T14:06:56Z</time>
      </trkpt>
      <trkpt lat="45.74516" lon="4.64582">
        <ele>550.2</ele>
        <time>2025-12-11T14:06:57Z</time>
      </trkpt>
      <trkpt lat="45.74516" lon="4.64582">
        <ele>550</ele>
        <time>2025-12-11T14:06:58Z</time>
      </trkpt>
      <trkpt lat="45.74516" lon="4.64582">
        <ele>549.8</ele>
        <time>2025-12-11T14:06:59Z</time>
      </trkpt>
      <trkpt lat="45.74516" lon="4.64582">
        <ele>549.8</ele>
        <time>2025-12-11T14:07:00Z</time>
      </trkpt>
      <trkpt lat="45.74516" lon="4.64582">
        <ele>549.8</ele>
        <time>2025-12-11T14:07:01Z</time>
      </trkpt>
      <trkpt lat="45.74516" lon="4.64582">
        <ele>549.8</ele>
        <time>2025-12-11T14:07:02Z</time>
      </trkpt>
      <trkpt lat="45.74516" lon="4.64582">
        <ele>549.8</ele>
        <time>2025-12-11T14:07:03Z</time>
      </trkpt>
      <trkpt lat="45.74516" lon="4.64582">
        <ele>549.8</ele>
        <time>2025-12-11T14:07:04Z</time>
      </trkpt>
      <trkpt lat="45.74516" lon="4.64582">
        <ele>550</ele>
        <time>2025-12-11T14:07:05Z</time>
      </trkpt>
      <trkpt lat="45.74516" lon="4.64582">
        <ele>550</ele>
        <time>2025-12-11T14:07:06Z</time>
      </trkpt>
      <trkpt lat="45.74516" lon="4.64582">
        <ele>550.2</ele>
        <time>2025-12-11T14:07:07Z</time>
      </trkpt>
      <trkpt lat="45.74516" lon="4.64582">
        <ele>550</ele>
        <time>2025-12-11T14:07:08Z</time>
      </trkpt>
      <trkpt lat="45.74516" lon="4.64582">
        <ele>550</ele>
        <time>2025-12-11T14:07:09Z</time>
      </trkpt>
      <trkpt lat="45.74516" lon="4.64582">
        <ele>550</ele>
        <time>2025-12-11T14:07:10Z</time>
      </trkpt>
      <trkpt lat="45.74516" lon="4.64582">
        <ele>550</ele>
        <time>2025-12-11T14:07:11Z</time>
      </trkpt>
      <trkpt lat="45.74516" lon="4.64582">
        <ele>550</ele>
        <time>2025-12-11T14:07:12Z</time>
      </trkpt>
      <trkpt lat="45.74516" lon="4.64582">
        <ele>550</ele>
        <time>2025-12-11T14:07:13Z</time>
      </trkpt>
      <trkpt lat="45.74516" lon="4.64582">
        <ele>550</ele>
        <time>2025-12-11T14:07:14Z</time>
      </trkpt>
      <trkpt lat="45.74516" lon="4.64582">
        <ele>550</ele>
        <time>2025-12-11T14:07:15Z</time>
      </trkpt>
      <trkpt lat="45.74516" lon="4.64582">
        <ele>550</ele>
        <time>2025-12-11T14:07:16Z</time>
      </trkpt>
      <trkpt lat="45.74516" lon="4.64582">
        <ele>550</ele>
        <time>2025-12-11T14:07:17Z</time>
      </trkpt>
      <trkpt lat="45.74516" lon="4.64582">
        <ele>550</ele>
        <time>2025-12-11T14:07:18Z</time>
      </trkpt>
      <trkpt lat="45.74516" lon="4.64582">
        <ele>550</ele>
        <time>2025-12-11T14:07:19Z</time>
      </trkpt>
      <trkpt lat="45.74516" lon="4.64582">
        <ele>550</ele>
        <time>2025-12-11T14:07:20Z</time>
      </trkpt>
      <trkpt lat="45.74516" lon="4.64582">
        <ele>550</ele>
        <time>2025-12-11T14:07:21Z</time>
      </trkpt>
      <trkpt lat="45.74516" lon="4.64582">
        <ele>550</ele>
        <time>2025-12-11T14:07:22Z</time>
      </trkpt>
      <trkpt lat="45.74516" lon="4.64582">
        <ele>550</ele>
        <time>2025-12-11T14:07:23Z</time>
      </trkpt>
      <trkpt lat="45.74516" lon="4.64582">
        <ele>550</ele>
        <time>2025-12-11T14:07:24Z</time>
      </trkpt>
      <trkpt lat="45.74516" lon="4.64582">
        <ele>550</ele>
        <time>2025-12-11T14:07:25Z</time>
      </trkpt>
      <trkpt lat="45.74516" lon="4.64582">
        <ele>550</ele>
        <time>2025-12-11T14:07:26Z</time>
      </trkpt>
      <trkpt lat="45.74516" lon="4.64582">
        <ele>550</ele>
        <time>2025-12-11T14:07:27Z</time>
      </trkpt>
      <trkpt lat="45.74516" lon="4.64582">
        <ele>550</ele>
        <time>2025-12-11T14:07:28Z</time>
      </trkpt>
      <trkpt lat="45.74516" lon="4.64582">
        <ele>550</ele>
        <time>2025-12-11T14:07:29Z</time>
      </trkpt>
      <trkpt lat="45.74516" lon="4.64582">
        <ele>550</ele>
        <time>2025-12-11T14:07:30Z</time>
      </trkpt>
      <trkpt lat="45.74516" lon="4.64582">
        <ele>550</ele>
        <time>2025-12-11T14:07:31Z</time>
      </trkpt>
      <trkpt lat="45.74516" lon="4.64582">
        <ele>550</ele>
        <time>2025-12-11T14:07:32Z</time>
      </trkpt>
      <trkpt lat="45.74516" lon="4.64582">
        <ele>550</ele>
        <time>2025-12-11T14:07:33Z</time>
      </trkpt>
      <trkpt lat="45.74516" lon="4.64582">
        <ele>550</ele>
        <time>2025-12-11T14:07:34Z</time>
      </trkpt>
      <trkpt lat="45.74516" lon="4.64582">
        <ele>550</ele>
        <time>2025-12-11T14:07:35Z</time>
      </trkpt>
      <trkpt lat="45.74516" lon="4.64582">
        <ele>550</ele>
        <time>2025-12-11T14:07:36Z</time>
      </trkpt>
      <trkpt lat="45.74516" lon="4.64582">
        <ele>550</ele>
        <time>2025-12-11T14:07:37Z</time>
      </trkpt>
      <trkpt lat="45.74516" lon="4.64582">
        <ele>550</ele>
        <time>2025-12-11T14:07:38Z</time>
      </trkpt>
      <trkpt lat="45.74516" lon="4.64582">
        <ele>550</ele>
        <time>2025-12-11T14:07:39Z</time>
      </trkpt>
      <trkpt lat="45.74516" lon="4.64582">
        <ele>550</ele>
        <time>2025-12-11T14:07:40Z</time>
      </trkpt>
      <trkpt lat="45.74516" lon="4.64582">
        <ele>550</ele>
        <time>2025-12-11T14:07:41Z</time>
      </trkpt>
      <trkpt lat="45.74516" lon="4.64582">
        <ele>550</ele>
        <time>2025-12-11T14:07:42Z</time>
      </trkpt>
      <trkpt lat="45.74516" lon="4.64582">
        <ele>550</ele>
        <time>2025-12-11T14:07:43Z</time>
      </trkpt>
      <trkpt lat="45.74516" lon="4.64582">
        <ele>550</ele>
        <time>2025-12-11T14:07:44Z</time>
      </trkpt>
      <trkpt lat="45.74516" lon="4.64582">
        <ele>550</ele>
        <time>2025-12-11T14:07:45Z</time>
      </trkpt>
      <trkpt lat="45.74516" lon="4.64582">
        <ele>550</ele>
        <time>2025-12-11T14:07:46Z</time>
      </trkpt>
      <trkpt lat="45.74516" lon="4.64582">
        <ele>550</ele>
        <time>2025-12-11T14:07:47Z</time>
      </trkpt>
      <trkpt lat="45.74516" lon="4.64582">
        <ele>550</ele>
        <time>2025-12-11T14:07:48Z</time>
      </trkpt>
      <trkpt lat="45.74516" lon="4.64582">
        <ele>550</ele>
        <time>2025-12-11T14:07:49Z</time>
      </trkpt>
      <trkpt lat="45.74516" lon="4.64582">
        <ele>550</ele>
        <time>2025-12-11T14:07:50Z</time>
      </trkpt>
      <trkpt lat="45.74516" lon="4.64582">
        <ele>550</ele>
        <time>2025-12-11T14:07:51Z</time>
      </trkpt>
      <trkpt lat="45.74516" lon="4.64582">
        <ele>550</ele>
        <time>2025-12-11T14:07:52Z</time>
      </trkpt>
      <trkpt lat="45.74516" lon="4.64582">
        <ele>550</ele>
        <time>2025-12-11T14:07:53Z</time>
      </trkpt>
      <trkpt lat="45.74516" lon="4.64582">
        <ele>550</ele>
        <time>2025-12-11T14:07:54Z</time>
      </trkpt>
      <trkpt lat="45.74516" lon="4.64582">
        <ele>550</ele>
        <time>2025-12-11T14:07:55Z</time>
      </trkpt>
      <trkpt lat="45.74516" lon="4.64582">
        <ele>550</ele>
        <time>2025-12-11T14:07:56Z</time>
      </trkpt>
      <trkpt lat="45.74516" lon="4.64582">
        <ele>550</ele>
        <time>2025-12-11T14:07:57Z</time>
      </trkpt>
      <trkpt lat="45.74516" lon="4.64582">
        <ele>550</ele>
        <time>2025-12-11T14:07:58Z</time>
      </trkpt>
      <trkpt lat="45.74516" lon="4.64582">
        <ele>550</ele>
        <time>2025-12-11T14:07:59Z</time>
      </trkpt>
      <trkpt lat="45.74516" lon="4.64582">
        <ele>550</ele>
        <time>2025-12-11T14:08:00Z</time>
      </trkpt>
      <trkpt lat="45.74516" lon="4.64582">
        <ele>550</ele>
        <time>2025-12-11T14:08:01Z</time>
      </trkpt>
      <trkpt lat="45.74516" lon="4.64582">
        <ele>550</ele>
        <time>2025-12-11T14:08:02Z</time>
      </trkpt>
      <trkpt lat="45.74516" lon="4.64582">
        <ele>550</ele>
        <time>2025-12-11T14:08:03Z</time>
      </trkpt>
      <trkpt lat="45.74516" lon="4.64582">
        <ele>550</ele>
        <time>2025-12-11T14:08:04Z</time>
      </trkpt>
      <trkpt lat="45.74516" lon="4.64582">
        <ele>550</ele>
        <time>2025-12-11T14:08:05Z</time>
      </trkpt>
      <trkpt lat="45.74516" lon="4.64582">
        <ele>550</ele>
        <time>2025-12-11T14:08:06Z</time>
      </trkpt>
      <trkpt lat="45.74516" lon="4.64582">
        <ele>550</ele>
        <time>2025-12-11T14:08:07Z</time>
      </trkpt>
      <trkpt lat="45.74516" lon="4.64582">
        <ele>550</ele>
        <time>2025-12-11T14:08:08Z</time>
      </trkpt>
      <trkpt lat="45.74516" lon="4.64582">
        <ele>550</ele>
        <time>2025-12-11T14:08:09Z</time>
      </trkpt>
      <trkpt lat="45.74516" lon="4.64582">
        <ele>550</ele>
        <time>2025-12-11T14:08:10Z</time>
      </trkpt>
      <trkpt lat="45.74516" lon="4.64582">
        <ele>550</ele>
        <time>2025-12-11T14:08:11Z</time>
      </trkpt>
      <trkpt lat="45.74516" lon="4.64582">
        <ele>550</ele>
        <time>2025-12-11T14:08:12Z</time>
      </trkpt>
      <trkpt lat="45.74516" lon="4.64582">
        <ele>550</ele>
        <time>2025-12-11T14:08:13Z</time>
      </trkpt>
      <trkpt lat="45.74516" lon="4.64582">
        <ele>550</ele>
        <time>2025-12-11T14:08:14Z</time>
      </trkpt>
      <trkpt lat="45.74516" lon="4.64582">
        <ele>550</ele>
        <time>2025-12-11T14:08:15Z</time>
      </trkpt>
      <trkpt lat="45.74516" lon="4.6458">
        <ele>550</ele>
        <time>2025-12-11T14:08:16Z</time>
      </trkpt>
      <trkpt lat="45.74516" lon="4.64578">
        <ele>550</ele>
        <time>2025-12-11T14:08:17Z</time>
      </trkpt>
      <trkpt lat="45.74515" lon="4.64576">
        <ele>550</ele>
        <time>2025-12-11T14:08:18Z</time>
      </trkpt>
      <trkpt lat="45.74515" lon="4.64574">
        <ele>550.2</ele>
        <time>2025-12-11T14:08:19Z</time>
      </trkpt>
      <trkpt lat="45.74514" lon="4.64571">
        <ele>550.2</ele>
        <time>2025-12-11T14:08:20Z</time>
      </trkpt>
      <trkpt lat="45.74513" lon="4.64569">
        <ele>550.4</ele>
        <time>2025-12-11T14:08:21Z</time>
      </trkpt>
      <trkpt lat="45.74512" lon="4.64567">
        <ele>550.6</ele>
        <time>2025-12-11T14:08:22Z</time>
      </trkpt>
      <trkpt lat="45.74511" lon="4.64565">
        <ele>550.8</ele>
        <time>2025-12-11T14:08:23Z</time>
      </trkpt>
      <trkpt lat="45.7451" lon="4.64562">
        <ele>551</ele>
        <time>2025-12-11T14:08:24Z</time>
      </trkpt>
      <trkpt lat="45.7451" lon="4.6456">
        <ele>551</ele>
        <time>2025-12-11T14:08:25Z</time>
      </trkpt>
      <trkpt lat="45.7451" lon="4.64558">
        <ele>551.2</ele>
        <time>2025-12-11T14:08:26Z</time>
      </trkpt>
      <trkpt lat="45.74509" lon="4.64555">
        <ele>551.4</ele>
        <time>2025-12-11T14:08:27Z</time>
      </trkpt>
      <trkpt lat="45.74509" lon="4.64553">
        <ele>551.8</ele>
        <time>2025-12-11T14:08:28Z</time>
      </trkpt>
      <trkpt lat="45.74508" lon="4.64551">
        <ele>552</ele>
        <time>2025-12-11T14:08:29Z</time>
      </trkpt>
      <trkpt lat="45.74507" lon="4.64548">
        <ele>552.2</ele>
        <time>2025-12-11T14:08:30Z</time>
      </trkpt>
      <trkpt lat="45.74507" lon="4.64546">
        <ele>552.4</ele>
        <time>2025-12-11T14:08:31Z</time>
      </trkpt>
      <trkpt lat="45.74506" lon="4.64544">
        <ele>552.8</ele>
        <time>2025-12-11T14:08:32Z</time>
      </trkpt>
      <trkpt lat="45.74506" lon="4.64542">
        <ele>553</ele>
        <time>2025-12-11T14:08:33Z</time>
      </trkpt>
      <trkpt lat="45.74506" lon="4.6454">
        <ele>553.2</ele>
        <time>2025-12-11T14:08:34Z</time>
      </trkpt>
      <trkpt lat="45.74506" lon="4.64538">
        <ele>553.4</ele>
        <time>2025-12-11T14:08:35Z</time>
      </trkpt>
      <trkpt lat="45.74506" lon="4.64535">
        <ele>553.6</ele>
        <time>2025-12-11T14:08:36Z</time>
      </trkpt>
      <trkpt lat="45.74506" lon="4.64533">
        <ele>553.8</ele>
        <time>2025-12-11T14:08:37Z</time>
      </trkpt>
      <trkpt lat="45.74505" lon="4.6453">
        <ele>554</ele>
        <time>2025-12-11T14:08:38Z</time>
      </trkpt>
      <trkpt lat="45.74504" lon="4.64528">
        <ele>554.2</ele>
        <time>2025-12-11T14:08:39Z</time>
      </trkpt>
      <trkpt lat="45.74503" lon="4.64526">
        <ele>554.2</ele>
        <time>2025-12-11T14:08:40Z</time>
      </trkpt>
      <trkpt lat="45.74503" lon="4.64523">
        <ele>554.4</ele>
        <time>2025-12-11T14:08:41Z</time>
      </trkpt>
      <trkpt lat="45.74503" lon="4.64521">
        <ele>554.6</ele>
        <time>2025-12-11T14:08:42Z</time>
      </trkpt>
      <trkpt lat="45.74503" lon="4.64519">
        <ele>554.8</ele>
        <time>2025-12-11T14:08:43Z</time>
      </trkpt>
      <trkpt lat="45.74503" lon="4.64517">
        <ele>555</ele>
        <time>2025-12-11T14:08:44Z</time>
      </trkpt>
      <trkpt lat="45.74502" lon="4.64515">
        <ele>555</ele>
        <time>2025-12-11T14:08:45Z</time>
      </trkpt>
      <trkpt lat="45.74502" lon="4.64513">
        <ele>555.2</ele>
        <time>2025-12-11T14:08:46Z</time>
      </trkpt>
      <trkpt lat="45.74501" lon="4.64511">
        <ele>555.4</ele>
        <time>2025-12-11T14:08:47Z</time>
      </trkpt>
      <trkpt lat="45.74501" lon="4.64509">
        <ele>555.6</ele>
        <time>2025-12-11T14:08:48Z</time>
      </trkpt>
      <trkpt lat="45.745" lon="4.64507">
        <ele>555.6</ele>
        <time>2025-12-11T14:08:49Z</time>
      </trkpt>
      <trkpt lat="45.745" lon="4.64504">
        <ele>555.8</ele>
        <time>2025-12-11T14:08:50Z</time>
      </trkpt>
      <trkpt lat="45.745" lon="4.64502">
        <ele>556</ele>
        <time>2025-12-11T14:08:51Z</time>
      </trkpt>
      <trkpt lat="45.745" lon="4.645">
        <ele>556</ele>
        <time>2025-12-11T14:08:52Z</time>
      </trkpt>
      <trkpt lat="45.745" lon="4.64498">
        <ele>556.2</ele>
        <time>2025-12-11T14:08:53Z</time>
      </trkpt>
      <trkpt lat="45.745" lon="4.64496">
        <ele>556.4</ele>
        <time>2025-12-11T14:08:54Z</time>
      </trkpt>
      <trkpt lat="45.74501" lon="4.64494">
        <ele>556.4</ele>
        <time>2025-12-11T14:08:55Z</time>
      </trkpt>
      <trkpt lat="45.74501" lon="4.64492">
        <ele>556.6</ele>
        <time>2025-12-11T14:08:56Z</time>
      </trkpt>
      <trkpt lat="45.74501" lon="4.6449">
        <ele>556.8</ele>
        <time>2025-12-11T14:08:57Z</time>
      </trkpt>
      <trkpt lat="45.74501" lon="4.64488">
        <ele>557</ele>
        <time>2025-12-11T14:08:58Z</time>
      </trkpt>
      <trkpt lat="45.74501" lon="4.64486">
        <ele>557.2</ele>
        <time>2025-12-11T14:08:59Z</time>
      </trkpt>
      <trkpt lat="45.74501" lon="4.64484">
        <ele>557.4</ele>
        <time>2025-12-11T14:09:00Z</time>
      </trkpt>
      <trkpt lat="45.745" lon="4.64482">
        <ele>557.6</ele>
        <time>2025-12-11T14:09:01Z</time>
      </trkpt>
      <trkpt lat="45.745" lon="4.64481">
        <ele>557.8</ele>
        <time>2025-12-11T14:09:02Z</time>
      </trkpt>
      <trkpt lat="45.74499" lon="4.64479">
        <ele>557.8</ele>
        <time>2025-12-11T14:09:03Z</time>
      </trkpt>
      <trkpt lat="45.74499" lon="4.64477">
        <ele>558</ele>
        <time>2025-12-11T14:09:04Z</time>
      </trkpt>
      <trkpt lat="45.74499" lon="4.64475">
        <ele>558.2</ele>
        <time>2025-12-11T14:09:05Z</time>
      </trkpt>
      <trkpt lat="45.74499" lon="4.64473">
        <ele>558.4</ele>
        <time>2025-12-11T14:09:06Z</time>
      </trkpt>
      <trkpt lat="45.74498" lon="4.64471">
        <ele>558.6</ele>
        <time>2025-12-11T14:09:07Z</time>
      </trkpt>
      <trkpt lat="45.74497" lon="4.64469">
        <ele>558.8</ele>
        <time>2025-12-11T14:09:08Z</time>
      </trkpt>
      <trkpt lat="45.74497" lon="4.64467">
        <ele>559</ele>
        <time>2025-12-11T14:09:09Z</time>
      </trkpt>
      <trkpt lat="45.74496" lon="4.64465">
        <ele>559</ele>
        <time>2025-12-11T14:09:10Z</time>
      </trkpt>
      <trkpt lat="45.74496" lon="4.64463">
        <ele>559.2</ele>
        <time>2025-12-11T14:09:11Z</time>
      </trkpt>
      <trkpt lat="45.74496" lon="4.64461">
        <ele>559.4</ele>
        <time>2025-12-11T14:09:12Z</time>
      </trkpt>
      <trkpt lat="45.74496" lon="4.64459">
        <ele>559.4</ele>
        <time>2025-12-11T14:09:13Z</time>
      </trkpt>
      <trkpt lat="45.74496" lon="4.64457">
        <ele>559.6</ele>
        <time>2025-12-11T14:09:14Z</time>
      </trkpt>
      <trkpt lat="45.74495" lon="4.64455">
        <ele>559.8</ele>
        <time>2025-12-11T14:09:15Z</time>
      </trkpt>
      <trkpt lat="45.74496" lon="4.64453">
        <ele>560</ele>
        <time>2025-12-11T14:09:16Z</time>
      </trkpt>
      <trkpt lat="45.74496" lon="4.64451">
        <ele>560.2</ele>
        <time>2025-12-11T14:09:17Z</time>
      </trkpt>
      <trkpt lat="45.74496" lon="4.64449">
        <ele>560.2</ele>
        <time>2025-12-11T14:09:18Z</time>
      </trkpt>
      <trkpt lat="45.74496" lon="4.64447">
        <ele>560.4</ele>
        <time>2025-12-11T14:09:19Z</time>
      </trkpt>
      <trkpt lat="45.74495" lon="4.64446">
        <ele>560.6</ele>
        <time>2025-12-11T14:09:20Z</time>
      </trkpt>
      <trkpt lat="45.74495" lon="4.64444">
        <ele>560.8</ele>
        <time>2025-12-11T14:09:21Z</time>
      </trkpt>
      <trkpt lat="45.74494" lon="4.64442">
        <ele>561</ele>
        <time>2025-12-11T14:09:22Z</time>
      </trkpt>
      <trkpt lat="45.74494" lon="4.6444">
        <ele>561</ele>
        <time>2025-12-11T14:09:23Z</time>
      </trkpt>
      <trkpt lat="45.74495" lon="4.64438">
        <ele>561.2</ele>
        <time>2025-12-11T14:09:24Z</time>
      </trkpt>
      <trkpt lat="45.74495" lon="4.64437">
        <ele>561.4</ele>
        <time>2025-12-11T14:09:25Z</time>
      </trkpt>
      <trkpt lat="45.74496" lon="4.64436">
        <ele>561.6</ele>
        <time>2025-12-11T14:09:26Z</time>
      </trkpt>
      <trkpt lat="45.74496" lon="4.64434">
        <ele>561.8</ele>
        <time>2025-12-11T14:09:27Z</time>
      </trkpt>
      <trkpt lat="45.74496" lon="4.64432">
        <ele>561.8</ele>
        <time>2025-12-11T14:09:28Z</time>
      </trkpt>
      <trkpt lat="45.74496" lon="4.64431">
        <ele>562</ele>
        <time>2025-12-11T14:09:29Z</time>
      </trkpt>
      <trkpt lat="45.74495" lon="4.64429">
        <ele>562.2</ele>
        <time>2025-12-11T14:09:30Z</time>
      </trkpt>
      <trkpt lat="45.74495" lon="4.64427">
        <ele>562.4</ele>
        <time>2025-12-11T14:09:31Z</time>
      </trkpt>
      <trkpt lat="45.74495" lon="4.64425">
        <ele>562.6</ele>
        <time>2025-12-11T14:09:32Z</time>
      </trkpt>
      <trkpt lat="45.74495" lon="4.64422">
        <ele>563</ele>
        <time>2025-12-11T14:09:33Z</time>
      </trkpt>
      <trkpt lat="45.74495" lon="4.6442">
        <ele>563.4</ele>
        <time>2025-12-11T14:09:34Z</time>
      </trkpt>
      <trkpt lat="45.74495" lon="4.64418">
        <ele>563.8</ele>
        <time>2025-12-11T14:09:35Z</time>
      </trkpt>
      <trkpt lat="45.74494" lon="4.64416">
        <ele>564</ele>
        <time>2025-12-11T14:09:36Z</time>
      </trkpt>
      <trkpt lat="45.74494" lon="4.64414">
        <ele>564</ele>
        <time>2025-12-11T14:09:37Z</time>
      </trkpt>
      <trkpt lat="45.74494" lon="4.64412">
        <ele>564</ele>
        <time>2025-12-11T14:09:38Z</time>
      </trkpt>
      <trkpt lat="45.74493" lon="4.6441">
        <ele>564</ele>
        <time>2025-12-11T14:09:39Z</time>
      </trkpt>
      <trkpt lat="45.74493" lon="4.64408">
        <ele>564</ele>
        <time>2025-12-11T14:09:40Z</time>
      </trkpt>
      <trkpt lat="45.74492" lon="4.64405">
        <ele>564</ele>
        <time>2025-12-11T14:09:41Z</time>
      </trkpt>
      <trkpt lat="45.74492" lon="4.64403">
        <ele>563.8</ele>
        <time>2025-12-11T14:09:42Z</time>
      </trkpt>
      <trkpt lat="45.74492" lon="4.64401">
        <ele>564</ele>
        <time>2025-12-11T14:09:43Z</time>
      </trkpt>
      <trkpt lat="45.74492" lon="4.64399">
        <ele>564</ele>
        <time>2025-12-11T14:09:44Z</time>
      </trkpt>
      <trkpt lat="45.74492" lon="4.64396">
        <ele>564</ele>
        <time>2025-12-11T14:09:45Z</time>
      </trkpt>
      <trkpt lat="45.74492" lon="4.64394">
        <ele>564.2</ele>
        <time>2025-12-11T14:09:46Z</time>
      </trkpt>
      <trkpt lat="45.74493" lon="4.64393">
        <ele>564.4</ele>
        <time>2025-12-11T14:09:47Z</time>
      </trkpt>
      <trkpt lat="45.74493" lon="4.64391">
        <ele>564.6</ele>
        <time>2025-12-11T14:09:48Z</time>
      </trkpt>
      <trkpt lat="45.74494" lon="4.64389">
        <ele>564.8</ele>
        <time>2025-12-11T14:09:49Z</time>
      </trkpt>
      <trkpt lat="45.74494" lon="4.64387">
        <ele>565</ele>
        <time>2025-12-11T14:09:50Z</time>
      </trkpt>
      <trkpt lat="45.74495" lon="4.64385">
        <ele>565.2</ele>
        <time>2025-12-11T14:09:51Z</time>
      </trkpt>
      <trkpt lat="45.74496" lon="4.64384">
        <ele>565.2</ele>
        <time>2025-12-11T14:09:52Z</time>
      </trkpt>
      <trkpt lat="45.74497" lon="4.64384">
        <ele>565.4</ele>
        <time>2025-12-11T14:09:53Z</time>
      </trkpt>
      <trkpt lat="45.74498" lon="4.64384">
        <ele>565.6</ele>
        <time>2025-12-11T14:09:54Z</time>
      </trkpt>
      <trkpt lat="45.745" lon="4.64384">
        <ele>565.8</ele>
        <time>2025-12-11T14:09:55Z</time>
      </trkpt>
      <trkpt lat="45.74501" lon="4.64384">
        <ele>566</ele>
        <time>2025-12-11T14:09:56Z</time>
      </trkpt>
      <trkpt lat="45.74502" lon="4.64385">
        <ele>566.2</ele>
        <time>2025-12-11T14:09:57Z</time>
      </trkpt>
      <trkpt lat="45.74503" lon="4.64386">
        <ele>566.2</ele>
        <time>2025-12-11T14:09:58Z</time>
      </trkpt>
      <trkpt lat="45.74503" lon="4.64388">
        <ele>566.4</ele>
        <time>2025-12-11T14:09:59Z</time>
      </trkpt>
      <trkpt lat="45.74504" lon="4.64389">
        <ele>566.6</ele>
        <time>2025-12-11T14:10:00Z</time>
      </trkpt>
      <trkpt lat="45.74505" lon="4.6439">
        <ele>566.8</ele>
        <time>2025-12-11T14:10:01Z</time>
      </trkpt>
      <trkpt lat="45.74505" lon="4.64391">
        <ele>566.8</ele>
        <time>2025-12-11T14:10:02Z</time>
      </trkpt>
      <trkpt lat="45.74506" lon="4.64392">
        <ele>567</ele>
        <time>2025-12-11T14:10:03Z</time>
      </trkpt>
      <trkpt lat="45.74507" lon="4.64394">
        <ele>567.2</ele>
        <time>2025-12-11T14:10:04Z</time>
      </trkpt>
      <trkpt lat="45.74508" lon="4.64395">
        <ele>567.4</ele>
        <time>2025-12-11T14:10:05Z</time>
      </trkpt>
      <trkpt lat="45.74509" lon="4.64397">
        <ele>567.6</ele>
        <time>2025-12-11T14:10:06Z</time>
      </trkpt>
      <trkpt lat="45.74511" lon="4.64398">
        <ele>567.6</ele>
        <time>2025-12-11T14:10:07Z</time>
      </trkpt>
      <trkpt lat="45.74512" lon="4.64399">
        <ele>567.8</ele>
        <time>2025-12-11T14:10:08Z</time>
      </trkpt>
      <trkpt lat="45.74513" lon="4.64401">
        <ele>568</ele>
        <time>2025-12-11T14:10:09Z</time>
      </trkpt>
      <trkpt lat="45.74514" lon="4.64402">
        <ele>568</ele>
        <time>2025-12-11T14:10:10Z</time>
      </trkpt>
      <trkpt lat="45.74515" lon="4.64404">
        <ele>568.2</ele>
        <time>2025-12-11T14:10:11Z</time>
      </trkpt>
      <trkpt lat="45.74517" lon="4.64405">
        <ele>568.2</ele>
        <time>2025-12-11T14:10:12Z</time>
      </trkpt>
      <trkpt lat="45.74518" lon="4.64406">
        <ele>568.4</ele>
        <time>2025-12-11T14:10:13Z</time>
      </trkpt>
      <trkpt lat="45.74519" lon="4.64407">
        <ele>568.6</ele>
        <time>2025-12-11T14:10:14Z</time>
      </trkpt>
      <trkpt lat="45.7452" lon="4.64409">
        <ele>568.6</ele>
        <time>2025-12-11T14:10:15Z</time>
      </trkpt>
      <trkpt lat="45.74521" lon="4.64411">
        <ele>568.8</ele>
        <time>2025-12-11T14:10:16Z</time>
      </trkpt>
      <trkpt lat="45.74522" lon="4.64412">
        <ele>568.8</ele>
        <time>2025-12-11T14:10:17Z</time>
      </trkpt>
      <trkpt lat="45.74523" lon="4.64414">
        <ele>569</ele>
        <time>2025-12-11T14:10:18Z</time>
      </trkpt>
      <trkpt lat="45.74523" lon="4.64416">
        <ele>569.2</ele>
        <time>2025-12-11T14:10:19Z</time>
      </trkpt>
      <trkpt lat="45.74524" lon="4.64418">
        <ele>569.2</ele>
        <time>2025-12-11T14:10:20Z</time>
      </trkpt>
      <trkpt lat="45.74525" lon="4.6442">
        <ele>569.4</ele>
        <time>2025-12-11T14:10:21Z</time>
      </trkpt>
      <trkpt lat="45.74526" lon="4.64421">
        <ele>569.6</ele>
        <time>2025-12-11T14:10:22Z</time>
      </trkpt>
      <trkpt lat="45.74526" lon="4.64423">
        <ele>569.6</ele>
        <time>2025-12-11T14:10:23Z</time>
      </trkpt>
      <trkpt lat="45.74528" lon="4.64424">
        <ele>569.8</ele>
        <time>2025-12-11T14:10:24Z</time>
      </trkpt>
      <trkpt lat="45.74529" lon="4.64425">
        <ele>570</ele>
        <time>2025-12-11T14:10:25Z</time>
      </trkpt>
      <trkpt lat="45.7453" lon="4.64427">
        <ele>570.2</ele>
        <time>2025-12-11T14:10:26Z</time>
      </trkpt>
      <trkpt lat="45.7453" lon="4.64429">
        <ele>570.2</ele>
        <time>2025-12-11T14:10:27Z</time>
      </trkpt>
      <trkpt lat="45.74531" lon="4.64431">
        <ele>570.4</ele>
        <time>2025-12-11T14:10:28Z</time>
      </trkpt>
      <trkpt lat="45.74531" lon="4.64432">
        <ele>570.6</ele>
        <time>2025-12-11T14:10:29Z</time>
      </trkpt>
      <trkpt lat="45.74532" lon="4.64434">
        <ele>570.8</ele>
        <time>2025-12-11T14:10:30Z</time>
      </trkpt>
      <trkpt lat="45.74532" lon="4.64436">
        <ele>571</ele>
        <time>2025-12-11T14:10:31Z</time>
      </trkpt>
      <trkpt lat="45.74532" lon="4.64438">
        <ele>571.2</ele>
        <time>2025-12-11T14:10:32Z</time>
      </trkpt>
      <trkpt lat="45.74533" lon="4.6444">
        <ele>571.2</ele>
        <time>2025-12-11T14:10:33Z</time>
      </trkpt>
      <trkpt lat="45.74534" lon="4.64441">
        <ele>571.4</ele>
        <time>2025-12-11T14:10:34Z</time>
      </trkpt>
      <trkpt lat="45.74534" lon="4.64442">
        <ele>571.6</ele>
        <time>2025-12-11T14:10:35Z</time>
      </trkpt>
      <trkpt lat="45.74534" lon="4.64444">
        <ele>571.8</ele>
        <time>2025-12-11T14:10:36Z</time>
      </trkpt>
      <trkpt lat="45.74535" lon="4.64445">
        <ele>572</ele>
        <time>2025-12-11T14:10:37Z</time>
      </trkpt>
      <trkpt lat="45.74535" lon="4.64446">
        <ele>572.2</ele>
        <time>2025-12-11T14:10:38Z</time>
      </trkpt>
      <trkpt lat="45.74536" lon="4.64446">
        <ele>572.2</ele>
        <time>2025-12-11T14:10:39Z</time>
      </trkpt>
      <trkpt lat="45.74537" lon="4.64447">
        <ele>572.4</ele>
        <time>2025-12-11T14:10:40Z</time>
      </trkpt>
      <trkpt lat="45.74538" lon="4.64449">
        <ele>572.6</ele>
        <time>2025-12-11T14:10:41Z</time>
      </trkpt>
      <trkpt lat="45.74539" lon="4.6445">
        <ele>572.8</ele>
        <time>2025-12-11T14:10:42Z</time>
      </trkpt>
      <trkpt lat="45.7454" lon="4.64452">
        <ele>573</ele>
        <time>2025-12-11T14:10:43Z</time>
      </trkpt>
      <trkpt lat="45.74541" lon="4.64454">
        <ele>573.2</ele>
        <time>2025-12-11T14:10:44Z</time>
      </trkpt>
      <trkpt lat="45.74542" lon="4.64455">
        <ele>573.2</ele>
        <time>2025-12-11T14:10:45Z</time>
      </trkpt>
      <trkpt lat="45.74543" lon="4.64457">
        <ele>573.2</ele>
        <time>2025-12-11T14:10:46Z</time>
      </trkpt>
      <trkpt lat="45.74545" lon="4.64458">
        <ele>573.4</ele>
        <time>2025-12-11T14:10:47Z</time>
      </trkpt>
      <trkpt lat="45.74546" lon="4.64459">
        <ele>573.4</ele>
        <time>2025-12-11T14:10:48Z</time>
      </trkpt>
      <trkpt lat="45.74547" lon="4.64461">
        <ele>573.6</ele>
        <time>2025-12-11T14:10:49Z</time>
      </trkpt>
      <trkpt lat="45.74549" lon="4.64462">
        <ele>573.6</ele>
        <time>2025-12-11T14:10:50Z</time>
      </trkpt>
      <trkpt lat="45.7455" lon="4.64463">
        <ele>573.8</ele>
        <time>2025-12-11T14:10:51Z</time>
      </trkpt>
      <trkpt lat="45.74551" lon="4.64465">
        <ele>573.8</ele>
        <time>2025-12-11T14:10:52Z</time>
      </trkpt>
      <trkpt lat="45.74552" lon="4.64466">
        <ele>574</ele>
        <time>2025-12-11T14:10:53Z</time>
      </trkpt>
      <trkpt lat="45.74554" lon="4.64467">
        <ele>574</ele>
        <time>2025-12-11T14:10:54Z</time>
      </trkpt>
      <trkpt lat="45.74555" lon="4.64468">
        <ele>574.2</ele>
        <time>2025-12-11T14:10:55Z</time>
      </trkpt>
      <trkpt lat="45.74556" lon="4.6447">
        <ele>574.2</ele>
        <time>2025-12-11T14:10:56Z</time>
      </trkpt>
      <trkpt lat="45.74557" lon="4.64471">
        <ele>574.4</ele>
        <time>2025-12-11T14:10:57Z</time>
      </trkpt>
      <trkpt lat="45.74559" lon="4.64472">
        <ele>574.6</ele>
        <time>2025-12-11T14:10:58Z</time>
      </trkpt>
      <trkpt lat="45.7456" lon="4.64473">
        <ele>574.6</ele>
        <time>2025-12-11T14:10:59Z</time>
      </trkpt>
      <trkpt lat="45.74561" lon="4.64474">
        <ele>574.8</ele>
        <time>2025-12-11T14:11:00Z</time>
      </trkpt>
      <trkpt lat="45.74563" lon="4.64475">
        <ele>575</ele>
        <time>2025-12-11T14:11:01Z</time>
      </trkpt>
      <trkpt lat="45.74564" lon="4.64476">
        <ele>575</ele>
        <time>2025-12-11T14:11:02Z</time>
      </trkpt>
      <trkpt lat="45.74565" lon="4.64477">
        <ele>575.2</ele>
        <time>2025-12-11T14:11:03Z</time>
      </trkpt>
      <trkpt lat="45.74567" lon="4.64478">
        <ele>575.2</ele>
        <time>2025-12-11T14:11:04Z</time>
      </trkpt>
      <trkpt lat="45.74568" lon="4.64479">
        <ele>575.4</ele>
        <time>2025-12-11T14:11:05Z</time>
      </trkpt>
      <trkpt lat="45.7457" lon="4.6448">
        <ele>575.4</ele>
        <time>2025-12-11T14:11:06Z</time>
      </trkpt>
      <trkpt lat="45.74571" lon="4.64481">
        <ele>575.6</ele>
        <time>2025-12-11T14:11:07Z</time>
      </trkpt>
      <trkpt lat="45.74573" lon="4.64481">
        <ele>575.6</ele>
        <time>2025-12-11T14:11:08Z</time>
      </trkpt>
      <trkpt lat="45.74574" lon="4.64482">
        <ele>575.8</ele>
        <time>2025-12-11T14:11:09Z</time>
      </trkpt>
      <trkpt lat="45.74575" lon="4.64482">
        <ele>576</ele>
        <time>2025-12-11T14:11:10Z</time>
      </trkpt>
      <trkpt lat="45.74576" lon="4.64483">
        <ele>576.2</ele>
        <time>2025-12-11T14:11:11Z</time>
      </trkpt>
      <trkpt lat="45.74577" lon="4.64484">
        <ele>576.2</ele>
        <time>2025-12-11T14:11:12Z</time>
      </trkpt>
      <trkpt lat="45.74579" lon="4.64485">
        <ele>576.4</ele>
        <time>2025-12-11T14:11:13Z</time>
      </trkpt>
      <trkpt lat="45.7458" lon="4.64485">
        <ele>576.6</ele>
        <time>2025-12-11T14:11:14Z</time>
      </trkpt>
      <trkpt lat="45.74581" lon="4.64485">
        <ele>576.8</ele>
        <time>2025-12-11T14:11:15Z</time>
      </trkpt>
      <trkpt lat="45.74582" lon="4.64486">
        <ele>577</ele>
        <time>2025-12-11T14:11:16Z</time>
      </trkpt>
      <trkpt lat="45.74583" lon="4.64486">
        <ele>577.2</ele>
        <time>2025-12-11T14:11:17Z</time>
      </trkpt>
      <trkpt lat="45.74584" lon="4.64487">
        <ele>577.4</ele>
        <time>2025-12-11T14:11:18Z</time>
      </trkpt>
      <trkpt lat="45.74585" lon="4.64488">
        <ele>577.6</ele>
        <time>2025-12-11T14:11:19Z</time>
      </trkpt>
      <trkpt lat="45.74586" lon="4.64488">
        <ele>577.8</ele>
        <time>2025-12-11T14:11:20Z</time>
      </trkpt>
      <trkpt lat="45.74587" lon="4.64489">
        <ele>578</ele>
        <time>2025-12-11T14:11:21Z</time>
      </trkpt>
      <trkpt lat="45.74588" lon="4.64489">
        <ele>578.2</ele>
        <time>2025-12-11T14:11:22Z</time>
      </trkpt>
      <trkpt lat="45.7459" lon="4.6449">
        <ele>578.4</ele>
        <time>2025-12-11T14:11:23Z</time>
      </trkpt>
      <trkpt lat="45.74591" lon="4.64491">
        <ele>578.6</ele>
        <time>2025-12-11T14:11:24Z</time>
      </trkpt>
      <trkpt lat="45.74593" lon="4.64491">
        <ele>578.8</ele>
        <time>2025-12-11T14:11:25Z</time>
      </trkpt>
      <trkpt lat="45.74594" lon="4.64492">
        <ele>579</ele>
        <time>2025-12-11T14:11:26Z</time>
      </trkpt>
      <trkpt lat="45.74596" lon="4.64492">
        <ele>579.2</ele>
        <time>2025-12-11T14:11:27Z</time>
      </trkpt>
      <trkpt lat="45.74597" lon="4.64493">
        <ele>579.2</ele>
        <time>2025-12-11T14:11:28Z</time>
      </trkpt>
      <trkpt lat="45.74598" lon="4.64493">
        <ele>579.4</ele>
        <time>2025-12-11T14:11:29Z</time>
      </trkpt>
      <trkpt lat="45.746" lon="4.64493">
        <ele>579.6</ele>
        <time>2025-12-11T14:11:30Z</time>
      </trkpt>
      <trkpt lat="45.74601" lon="4.64493">
        <ele>579.6</ele>
        <time>2025-12-11T14:11:31Z</time>
      </trkpt>
      <trkpt lat="45.74603" lon="4.64493">
        <ele>579.6</ele>
        <time>2025-12-11T14:11:32Z</time>
      </trkpt>
      <trkpt lat="45.74605" lon="4.64493">
        <ele>579.8</ele>
        <time>2025-12-11T14:11:33Z</time>
      </trkpt>
      <trkpt lat="45.74606" lon="4.64492">
        <ele>579.8</ele>
        <time>2025-12-11T14:11:34Z</time>
      </trkpt>
      <trkpt lat="45.74608" lon="4.64492">
        <ele>579.8</ele>
        <time>2025-12-11T14:11:35Z</time>
      </trkpt>
      <trkpt lat="45.74609" lon="4.64491">
        <ele>579.8</ele>
        <time>2025-12-11T14:11:36Z</time>
      </trkpt>
      <trkpt lat="45.74611" lon="4.6449">
        <ele>580</ele>
        <time>2025-12-11T14:11:37Z</time>
      </trkpt>
      <trkpt lat="45.74613" lon="4.6449">
        <ele>580</ele>
        <time>2025-12-11T14:11:38Z</time>
      </trkpt>
      <trkpt lat="45.74614" lon="4.64489">
        <ele>580.2</ele>
        <time>2025-12-11T14:11:39Z</time>
      </trkpt>
      <trkpt lat="45.74616" lon="4.64489">
        <ele>580.2</ele>
        <time>2025-12-11T14:11:40Z</time>
      </trkpt>
      <trkpt lat="45.74618" lon="4.64489">
        <ele>580.4</ele>
        <time>2025-12-11T14:11:41Z</time>
      </trkpt>
      <trkpt lat="45.74619" lon="4.64489">
        <ele>580.4</ele>
        <time>2025-12-11T14:11:42Z</time>
      </trkpt>
      <trkpt lat="45.74621" lon="4.64489">
        <ele>580.6</ele>
        <time>2025-12-11T14:11:43Z</time>
      </trkpt>
      <trkpt lat="45.74622" lon="4.64489">
        <ele>580.6</ele>
        <time>2025-12-11T14:11:44Z</time>
      </trkpt>
      <trkpt lat="45.74623" lon="4.64489">
        <ele>580.8</ele>
        <time>2025-12-11T14:11:45Z</time>
      </trkpt>
      <trkpt lat="45.74625" lon="4.64488">
        <ele>580.8</ele>
        <time>2025-12-11T14:11:46Z</time>
      </trkpt>
      <trkpt lat="45.74626" lon="4.64488">
        <ele>581</ele>
        <time>2025-12-11T14:11:47Z</time>
      </trkpt>
      <trkpt lat="45.74627" lon="4.64488">
        <ele>581.2</ele>
        <time>2025-12-11T14:11:48Z</time>
      </trkpt>
      <trkpt lat="45.74629" lon="4.64488">
        <ele>581.2</ele>
        <time>2025-12-11T14:11:49Z</time>
      </trkpt>
      <trkpt lat="45.7463" lon="4.64488">
        <ele>581.4</ele>
        <time>2025-12-11T14:11:50Z</time>
      </trkpt>
      <trkpt lat="45.74632" lon="4.64487">
        <ele>581.6</ele>
        <time>2025-12-11T14:11:51Z</time>
      </trkpt>
      <trkpt lat="45.74633" lon="4.64487">
        <ele>581.8</ele>
        <time>2025-12-11T14:11:52Z</time>
      </trkpt>
      <trkpt lat="45.74635" lon="4.64486">
        <ele>581.8</ele>
        <time>2025-12-11T14:11:53Z</time>
      </trkpt>
      <trkpt lat="45.74636" lon="4.64486">
        <ele>582</ele>
        <time>2025-12-11T14:11:54Z</time>
      </trkpt>
      <trkpt lat="45.74638" lon="4.64486">
        <ele>582.2</ele>
        <time>2025-12-11T14:11:55Z</time>
      </trkpt>
      <trkpt lat="45.74639" lon="4.64485">
        <ele>582.4</ele>
        <time>2025-12-11T14:11:56Z</time>
      </trkpt>
      <trkpt lat="45.7464" lon="4.64485">
        <ele>582.6</ele>
        <time>2025-12-11T14:11:57Z</time>
      </trkpt>
      <trkpt lat="45.74642" lon="4.64484">
        <ele>582.8</ele>
        <time>2025-12-11T14:11:58Z</time>
      </trkpt>
      <trkpt lat="45.74643" lon="4.64485">
        <ele>583</ele>
        <time>2025-12-11T14:11:59Z</time>
      </trkpt>
      <trkpt lat="45.74644" lon="4.64485">
        <ele>583.2</ele>
        <time>2025-12-11T14:12:00Z</time>
      </trkpt>
      <trkpt lat="45.74645" lon="4.64485">
        <ele>583.2</ele>
        <time>2025-12-11T14:12:01Z</time>
      </trkpt>
      <trkpt lat="45.74646" lon="4.64485">
        <ele>583.4</ele>
        <time>2025-12-11T14:12:02Z</time>
      </trkpt>
      <trkpt lat="45.74648" lon="4.64485">
        <ele>583.6</ele>
        <time>2025-12-11T14:12:03Z</time>
      </trkpt>
      <trkpt lat="45.74649" lon="4.64484">
        <ele>583.8</ele>
        <time>2025-12-11T14:12:04Z</time>
      </trkpt>
      <trkpt lat="45.7465" lon="4.64484">
        <ele>584</ele>
        <time>2025-12-11T14:12:05Z</time>
      </trkpt>
      <trkpt lat="45.74651" lon="4.64484">
        <ele>584.2</ele>
        <time>2025-12-11T14:12:06Z</time>
      </trkpt>
      <trkpt lat="45.74653" lon="4.64484">
        <ele>584.4</ele>
        <time>2025-12-11T14:12:07Z</time>
      </trkpt>
      <trkpt lat="45.74654" lon="4.64484">
        <ele>584.6</ele>
        <time>2025-12-11T14:12:08Z</time>
      </trkpt>
      <trkpt lat="45.74655" lon="4.64483">
        <ele>584.8</ele>
        <time>2025-12-11T14:12:09Z</time>
      </trkpt>
      <trkpt lat="45.74657" lon="4.64483">
        <ele>585</ele>
        <time>2025-12-11T14:12:10Z</time>
      </trkpt>
      <trkpt lat="45.74658" lon="4.64483">
        <ele>585</ele>
        <time>2025-12-11T14:12:11Z</time>
      </trkpt>
      <trkpt lat="45.74659" lon="4.64482">
        <ele>585.2</ele>
        <time>2025-12-11T14:12:12Z</time>
      </trkpt>
      <trkpt lat="45.7466" lon="4.64481">
        <ele>585.2</ele>
        <time>2025-12-11T14:12:13Z</time>
      </trkpt>
      <trkpt lat="45.74662" lon="4.6448">
        <ele>585.4</ele>
        <time>2025-12-11T14:12:14Z</time>
      </trkpt>
      <trkpt lat="45.74663" lon="4.64479">
        <ele>585.6</ele>
        <time>2025-12-11T14:12:15Z</time>
      </trkpt>
      <trkpt lat="45.74664" lon="4.64478">
        <ele>585.6</ele>
        <time>2025-12-11T14:12:16Z</time>
      </trkpt>
      <trkpt lat="45.74666" lon="4.64478">
        <ele>585.8</ele>
        <time>2025-12-11T14:12:17Z</time>
      </trkpt>
      <trkpt lat="45.74667" lon="4.64477">
        <ele>586</ele>
        <time>2025-12-11T14:12:18Z</time>
      </trkpt>
      <trkpt lat="45.74668" lon="4.64477">
        <ele>586.2</ele>
        <time>2025-12-11T14:12:19Z</time>
      </trkpt>
      <trkpt lat="45.74669" lon="4.64476">
        <ele>586.2</ele>
        <time>2025-12-11T14:12:20Z</time>
      </trkpt>
      <trkpt lat="45.74671" lon="4.64475">
        <ele>586.4</ele>
        <time>2025-12-11T14:12:21Z</time>
      </trkpt>
      <trkpt lat="45.74672" lon="4.64473">
        <ele>586.6</ele>
        <time>2025-12-11T14:12:22Z</time>
      </trkpt>
      <trkpt lat="45.74673" lon="4.64472">
        <ele>586.8</ele>
        <time>2025-12-11T14:12:23Z</time>
      </trkpt>
      <trkpt lat="45.74674" lon="4.64471">
        <ele>586.8</ele>
        <time>2025-12-11T14:12:24Z</time>
      </trkpt>
      <trkpt lat="45.74676" lon="4.6447">
        <ele>587</ele>
        <time>2025-12-11T14:12:25Z</time>
      </trkpt>
      <trkpt lat="45.74677" lon="4.64469">
        <ele>587.2</ele>
        <time>2025-12-11T14:12:26Z</time>
      </trkpt>
      <trkpt lat="45.74678" lon="4.64467">
        <ele>587.2</ele>
        <time>2025-12-11T14:12:27Z</time>
      </trkpt>
      <trkpt lat="45.74679" lon="4.64466">
        <ele>587.4</ele>
        <time>2025-12-11T14:12:28Z</time>
      </trkpt>
      <trkpt lat="45.7468" lon="4.64465">
        <ele>587.6</ele>
        <time>2025-12-11T14:12:29Z</time>
      </trkpt>
      <trkpt lat="45.74681" lon="4.64463">
        <ele>587.6</ele>
        <time>2025-12-11T14:12:30Z</time>
      </trkpt>
      <trkpt lat="45.74682" lon="4.64462">
        <ele>587.8</ele>
        <time>2025-12-11T14:12:31Z</time>
      </trkpt>
      <trkpt lat="45.74683" lon="4.64461">
        <ele>588</ele>
        <time>2025-12-11T14:12:32Z</time>
      </trkpt>
      <trkpt lat="45.74684" lon="4.6446">
        <ele>588.2</ele>
        <time>2025-12-11T14:12:33Z</time>
      </trkpt>
      <trkpt lat="45.74685" lon="4.64459">
        <ele>588.4</ele>
        <time>2025-12-11T14:12:34Z</time>
      </trkpt>
      <trkpt lat="45.74686" lon="4.64458">
        <ele>588.6</ele>
        <time>2025-12-11T14:12:35Z</time>
      </trkpt>
      <trkpt lat="45.74687" lon="4.64457">
        <ele>588.8</ele>
        <time>2025-12-11T14:12:36Z</time>
      </trkpt>
      <trkpt lat="45.74688" lon="4.64456">
        <ele>588.8</ele>
        <time>2025-12-11T14:12:37Z</time>
      </trkpt>
      <trkpt lat="45.74689" lon="4.64455">
        <ele>589</ele>
        <time>2025-12-11T14:12:38Z</time>
      </trkpt>
      <trkpt lat="45.7469" lon="4.64453">
        <ele>589.2</ele>
        <time>2025-12-11T14:12:39Z</time>
      </trkpt>
      <trkpt lat="45.74691" lon="4.64452">
        <ele>589.4</ele>
        <time>2025-12-11T14:12:40Z</time>
      </trkpt>
      <trkpt lat="45.74693" lon="4.64451">
        <ele>589.6</ele>
        <time>2025-12-11T14:12:41Z</time>
      </trkpt>
      <trkpt lat="45.74694" lon="4.64449">
        <ele>589.8</ele>
        <time>2025-12-11T14:12:42Z</time>
      </trkpt>
      <trkpt lat="45.74695" lon="4.64448">
        <ele>590</ele>
        <time>2025-12-11T14:12:43Z</time>
      </trkpt>
      <trkpt lat="45.74696" lon="4.64447">
        <ele>590.2</ele>
        <time>2025-12-11T14:12:44Z</time>
      </trkpt>
      <trkpt lat="45.74697" lon="4.64446">
        <ele>590.4</ele>
        <time>2025-12-11T14:12:45Z</time>
      </trkpt>
      <trkpt lat="45.74697" lon="4.64445">
        <ele>590.6</ele>
        <time>2025-12-11T14:12:46Z</time>
      </trkpt>
      <trkpt lat="45.74698" lon="4.64443">
        <ele>590.8</ele>
        <time>2025-12-11T14:12:47Z</time>
      </trkpt>
      <trkpt lat="45.74698" lon="4.64442">
        <ele>591</ele>
        <time>2025-12-11T14:12:48Z</time>
      </trkpt>
      <trkpt lat="45.74699" lon="4.6444">
        <ele>591.4</ele>
        <time>2025-12-11T14:12:49Z</time>
      </trkpt>
      <trkpt lat="45.74699" lon="4.64439">
        <ele>591.6</ele>
        <time>2025-12-11T14:12:50Z</time>
      </trkpt>
      <trkpt lat="45.747" lon="4.64438">
        <ele>591.6</ele>
        <time>2025-12-11T14:12:51Z</time>
      </trkpt>
      <trkpt lat="45.747" lon="4.64437">
        <ele>591.8</ele>
        <time>2025-12-11T14:12:52Z</time>
      </trkpt>
      <trkpt lat="45.74701" lon="4.64436">
        <ele>592</ele>
        <time>2025-12-11T14:12:53Z</time>
      </trkpt>
      <trkpt lat="45.74702" lon="4.64434">
        <ele>592.2</ele>
        <time>2025-12-11T14:12:54Z</time>
      </trkpt>
      <trkpt lat="45.74702" lon="4.64433">
        <ele>592.4</ele>
        <time>2025-12-11T14:12:55Z</time>
      </trkpt>
      <trkpt lat="45.74703" lon="4.64432">
        <ele>592.4</ele>
        <time>2025-12-11T14:12:56Z</time>
      </trkpt>
      <trkpt lat="45.74704" lon="4.64431">
        <ele>592.6</ele>
        <time>2025-12-11T14:12:57Z</time>
      </trkpt>
      <trkpt lat="45.74705" lon="4.6443">
        <ele>592.8</ele>
        <time>2025-12-11T14:12:58Z</time>
      </trkpt>
      <trkpt lat="45.74705" lon="4.64429">
        <ele>592.8</ele>
        <time>2025-12-11T14:12:59Z</time>
      </trkpt>
      <trkpt lat="45.74706" lon="4.64428">
        <ele>593</ele>
        <time>2025-12-11T14:13:00Z</time>
      </trkpt>
      <trkpt lat="45.74707" lon="4.64426">
        <ele>593.2</ele>
        <time>2025-12-11T14:13:01Z</time>
      </trkpt>
      <trkpt lat="45.74708" lon="4.64424">
        <ele>593.4</ele>
        <time>2025-12-11T14:13:02Z</time>
      </trkpt>
      <trkpt lat="45.74708" lon="4.64423">
        <ele>593.6</ele>
        <time>2025-12-11T14:13:03Z</time>
      </trkpt>
      <trkpt lat="45.74709" lon="4.64421">
        <ele>593.8</ele>
        <time>2025-12-11T14:13:04Z</time>
      </trkpt>
      <trkpt lat="45.7471" lon="4.6442">
        <ele>594</ele>
        <time>2025-12-11T14:13:05Z</time>
      </trkpt>
      <trkpt lat="45.7471" lon="4.64419">
        <ele>594</ele>
        <time>2025-12-11T14:13:06Z</time>
      </trkpt>
      <trkpt lat="45.74711" lon="4.64418">
        <ele>594.2</ele>
        <time>2025-12-11T14:13:07Z</time>
      </trkpt>
      <trkpt lat="45.74712" lon="4.64417">
        <ele>594.4</ele>
        <time>2025-12-11T14:13:08Z</time>
      </trkpt>
      <trkpt lat="45.74712" lon="4.64415">
        <ele>594.4</ele>
        <time>2025-12-11T14:13:09Z</time>
      </trkpt>
      <trkpt lat="45.74713" lon="4.64414">
        <ele>594.6</ele>
        <time>2025-12-11T14:13:10Z</time>
      </trkpt>
      <trkpt lat="45.74714" lon="4.64413">
        <ele>594.8</ele>
        <time>2025-12-11T14:13:11Z</time>
      </trkpt>
      <trkpt lat="45.74715" lon="4.64412">
        <ele>594.8</ele>
        <time>2025-12-11T14:13:12Z</time>
      </trkpt>
      <trkpt lat="45.74716" lon="4.6441">
        <ele>595</ele>
        <time>2025-12-11T14:13:13Z</time>
      </trkpt>
      <trkpt lat="45.74717" lon="4.64409">
        <ele>595.2</ele>
        <time>2025-12-11T14:13:14Z</time>
      </trkpt>
      <trkpt lat="45.74718" lon="4.64408">
        <ele>595.2</ele>
        <time>2025-12-11T14:13:15Z</time>
      </trkpt>
      <trkpt lat="45.74719" lon="4.64407">
        <ele>595.4</ele>
        <time>2025-12-11T14:13:16Z</time>
      </trkpt>
      <trkpt lat="45.74719" lon="4.64406">
        <ele>595.4</ele>
        <time>2025-12-11T14:13:17Z</time>
      </trkpt>
      <trkpt lat="45.7472" lon="4.64405">
        <ele>595.6</ele>
        <time>2025-12-11T14:13:18Z</time>
      </trkpt>
      <trkpt lat="45.74722" lon="4.64403">
        <ele>595.6</ele>
        <time>2025-12-11T14:13:19Z</time>
      </trkpt>
      <trkpt lat="45.74723" lon="4.64402">
        <ele>595.8</ele>
        <time>2025-12-11T14:13:20Z</time>
      </trkpt>
      <trkpt lat="45.74724" lon="4.644">
        <ele>595.8</ele>
        <time>2025-12-11T14:13:21Z</time>
      </trkpt>
      <trkpt lat="45.74724" lon="4.64399">
        <ele>596</ele>
        <time>2025-12-11T14:13:22Z</time>
      </trkpt>
      <trkpt lat="45.74725" lon="4.64397">
        <ele>596</ele>
        <time>2025-12-11T14:13:23Z</time>
      </trkpt>
      <trkpt lat="45.74726" lon="4.64396">
        <ele>596.2</ele>
        <time>2025-12-11T14:13:24Z</time>
      </trkpt>
      <trkpt lat="45.74728" lon="4.64394">
        <ele>596.2</ele>
        <time>2025-12-11T14:13:25Z</time>
      </trkpt>
      <trkpt lat="45.74729" lon="4.64393">
        <ele>596.4</ele>
        <time>2025-12-11T14:13:26Z</time>
      </trkpt>
      <trkpt lat="45.7473" lon="4.64392">
        <ele>596.4</ele>
        <time>2025-12-11T14:13:27Z</time>
      </trkpt>
      <trkpt lat="45.74731" lon="4.6439">
        <ele>596.4</ele>
        <time>2025-12-11T14:13:28Z</time>
      </trkpt>
      <trkpt lat="45.74732" lon="4.64388">
        <ele>596.6</ele>
        <time>2025-12-11T14:13:29Z</time>
      </trkpt>
      <trkpt lat="45.74733" lon="4.64387">
        <ele>596.6</ele>
        <time>2025-12-11T14:13:30Z</time>
      </trkpt>
      <trkpt lat="45.74734" lon="4.64385">
        <ele>596.8</ele>
        <time>2025-12-11T14:13:31Z</time>
      </trkpt>
      <trkpt lat="45.74736" lon="4.64383">
        <ele>596.8</ele>
        <time>2025-12-11T14:13:32Z</time>
      </trkpt>
      <trkpt lat="45.74737" lon="4.64382">
        <ele>597</ele>
        <time>2025-12-11T14:13:33Z</time>
      </trkpt>
      <trkpt lat="45.74738" lon="4.6438">
        <ele>597</ele>
        <time>2025-12-11T14:13:34Z</time>
      </trkpt>
      <trkpt lat="45.74739" lon="4.64379">
        <ele>597.2</ele>
        <time>2025-12-11T14:13:35Z</time>
      </trkpt>
      <trkpt lat="45.7474" lon="4.64377">
        <ele>597.2</ele>
        <time>2025-12-11T14:13:36Z</time>
      </trkpt>
      <trkpt lat="45.74741" lon="4.64376">
        <ele>597.2</ele>
        <time>2025-12-11T14:13:37Z</time>
      </trkpt>
      <trkpt lat="45.74743" lon="4.64374">
        <ele>597.4</ele>
        <time>2025-12-11T14:13:38Z</time>
      </trkpt>
      <trkpt lat="45.74744" lon="4.64373">
        <ele>597.4</ele>
        <time>2025-12-11T14:13:39Z</time>
      </trkpt>
      <trkpt lat="45.74745" lon="4.64371">
        <ele>597.6</ele>
        <time>2025-12-11T14:13:40Z</time>
      </trkpt>
      <trkpt lat="45.74746" lon="4.6437">
        <ele>597.6</ele>
        <time>2025-12-11T14:13:41Z</time>
      </trkpt>
      <trkpt lat="45.74747" lon="4.64368">
        <ele>597.8</ele>
        <time>2025-12-11T14:13:42Z</time>
      </trkpt>
      <trkpt lat="45.74748" lon="4.64367">
        <ele>597.8</ele>
        <time>2025-12-11T14:13:43Z</time>
      </trkpt>
      <trkpt lat="45.74749" lon="4.64366">
        <ele>597.8</ele>
        <time>2025-12-11T14:13:44Z</time>
      </trkpt>
      <trkpt lat="45.7475" lon="4.64364">
        <ele>598</ele>
        <time>2025-12-11T14:13:45Z</time>
      </trkpt>
      <trkpt lat="45.74751" lon="4.64362">
        <ele>598</ele>
        <time>2025-12-11T14:13:46Z</time>
      </trkpt>
      <trkpt lat="45.74752" lon="4.64361">
        <ele>598.2</ele>
        <time>2025-12-11T14:13:47Z</time>
      </trkpt>
      <trkpt lat="45.74753" lon="4.64359">
        <ele>598.4</ele>
        <time>2025-12-11T14:13:48Z</time>
      </trkpt>
      <trkpt lat="45.74754" lon="4.64358">
        <ele>598.4</ele>
        <time>2025-12-11T14:13:49Z</time>
      </trkpt>
      <trkpt lat="45.74755" lon="4.64357">
        <ele>598.6</ele>
        <time>2025-12-11T14:13:50Z</time>
      </trkpt>
      <trkpt lat="45.74756" lon="4.64356">
        <ele>598.6</ele>
        <time>2025-12-11T14:13:51Z</time>
      </trkpt>
      <trkpt lat="45.74757" lon="4.64355">
        <ele>598.8</ele>
        <time>2025-12-11T14:13:52Z</time>
      </trkpt>
      <trkpt lat="45.74758" lon="4.64353">
        <ele>599</ele>
        <time>2025-12-11T14:13:53Z</time>
      </trkpt>
      <trkpt lat="45.74759" lon="4.64352">
        <ele>599</ele>
        <time>2025-12-11T14:13:54Z</time>
      </trkpt>
      <trkpt lat="45.7476" lon="4.6435">
        <ele>599.2</ele>
        <time>2025-12-11T14:13:55Z</time>
      </trkpt>
      <trkpt lat="45.74761" lon="4.64349">
        <ele>599.4</ele>
        <time>2025-12-11T14:13:56Z</time>
      </trkpt>
      <trkpt lat="45.74762" lon="4.64347">
        <ele>599.6</ele>
        <time>2025-12-11T14:13:57Z</time>
      </trkpt>
      <trkpt lat="45.74764" lon="4.64346">
        <ele>599.6</ele>
        <time>2025-12-11T14:13:58Z</time>
      </trkpt>
      <trkpt lat="45.74765" lon="4.64345">
        <ele>599.8</ele>
        <time>2025-12-11T14:13:59Z</time>
      </trkpt>
      <trkpt lat="45.74767" lon="4.64344">
        <ele>599.8</ele>
        <time>2025-12-11T14:14:00Z</time>
      </trkpt>
      <trkpt lat="45.74768" lon="4.64343">
        <ele>600</ele>
        <time>2025-12-11T14:14:01Z</time>
      </trkpt>
      <trkpt lat="45.74769" lon="4.64342">
        <ele>600.2</ele>
        <time>2025-12-11T14:14:02Z</time>
      </trkpt>
      <trkpt lat="45.7477" lon="4.6434">
        <ele>600.2</ele>
        <time>2025-12-11T14:14:03Z</time>
      </trkpt>
      <trkpt lat="45.74771" lon="4.64339">
        <ele>600.4</ele>
        <time>2025-12-11T14:14:04Z</time>
      </trkpt>
      <trkpt lat="45.74772" lon="4.64337">
        <ele>600.4</ele>
        <time>2025-12-11T14:14:05Z</time>
      </trkpt>
      <trkpt lat="45.74774" lon="4.64336">
        <ele>600.6</ele>
        <time>2025-12-11T14:14:06Z</time>
      </trkpt>
      <trkpt lat="45.74775" lon="4.64335">
        <ele>600.6</ele>
        <time>2025-12-11T14:14:07Z</time>
      </trkpt>
      <trkpt lat="45.74776" lon="4.64334">
        <ele>600.6</ele>
        <time>2025-12-11T14:14:08Z</time>
      </trkpt>
      <trkpt lat="45.74777" lon="4.64332">
        <ele>600.8</ele>
        <time>2025-12-11T14:14:09Z</time>
      </trkpt>
      <trkpt lat="45.74779" lon="4.64331">
        <ele>600.8</ele>
        <time>2025-12-11T14:14:10Z</time>
      </trkpt>
      <trkpt lat="45.7478" lon="4.64329">
        <ele>601</ele>
        <time>2025-12-11T14:14:11Z</time>
      </trkpt>
      <trkpt lat="45.74781" lon="4.64328">
        <ele>601.2</ele>
        <time>2025-12-11T14:14:12Z</time>
      </trkpt>
      <trkpt lat="45.74781" lon="4.64327">
        <ele>601.2</ele>
        <time>2025-12-11T14:14:13Z</time>
      </trkpt>
      <trkpt lat="45.74783" lon="4.64325">
        <ele>601.4</ele>
        <time>2025-12-11T14:14:14Z</time>
      </trkpt>
      <trkpt lat="45.74784" lon="4.64324">
        <ele>601.6</ele>
        <time>2025-12-11T14:14:15Z</time>
      </trkpt>
      <trkpt lat="45.74784" lon="4.64323">
        <ele>601.6</ele>
        <time>2025-12-11T14:14:16Z</time>
      </trkpt>
      <trkpt lat="45.74785" lon="4.64323">
        <ele>601.8</ele>
        <time>2025-12-11T14:14:17Z</time>
      </trkpt>
      <trkpt lat="45.74786" lon="4.64321">
        <ele>602</ele>
        <time>2025-12-11T14:14:18Z</time>
      </trkpt>
      <trkpt lat="45.74786" lon="4.6432">
        <ele>602.2</ele>
        <time>2025-12-11T14:14:19Z</time>
      </trkpt>
      <trkpt lat="45.74787" lon="4.64318">
        <ele>602.4</ele>
        <time>2025-12-11T14:14:20Z</time>
      </trkpt>
      <trkpt lat="45.74787" lon="4.64317">
        <ele>602.4</ele>
        <time>2025-12-11T14:14:21Z</time>
      </trkpt>
      <trkpt lat="45.74788" lon="4.64316">
        <ele>602.6</ele>
        <time>2025-12-11T14:14:22Z</time>
      </trkpt>
      <trkpt lat="45.74789" lon="4.64314">
        <ele>602.8</ele>
        <time>2025-12-11T14:14:23Z</time>
      </trkpt>
      <trkpt lat="45.7479" lon="4.64313">
        <ele>603</ele>
        <time>2025-12-11T14:14:24Z</time>
      </trkpt>
      <trkpt lat="45.7479" lon="4.64312">
        <ele>603</ele>
        <time>2025-12-11T14:14:25Z</time>
      </trkpt>
      <trkpt lat="45.74791" lon="4.6431">
        <ele>603.2</ele>
        <time>2025-12-11T14:14:26Z</time>
      </trkpt>
      <trkpt lat="45.74792" lon="4.64309">
        <ele>603.2</ele>
        <time>2025-12-11T14:14:27Z</time>
      </trkpt>
      <trkpt lat="45.74793" lon="4.64307">
        <ele>603.4</ele>
        <time>2025-12-11T14:14:28Z</time>
      </trkpt>
      <trkpt lat="45.74793" lon="4.64305">
        <ele>603.6</ele>
        <time>2025-12-11T14:14:29Z</time>
      </trkpt>
      <trkpt lat="45.74794" lon="4.64303">
        <ele>603.8</ele>
        <time>2025-12-11T14:14:30Z</time>
      </trkpt>
      <trkpt lat="45.74794" lon="4.64302">
        <ele>604</ele>
        <time>2025-12-11T14:14:31Z</time>
      </trkpt>
      <trkpt lat="45.74795" lon="4.643">
        <ele>604</ele>
        <time>2025-12-11T14:14:32Z</time>
      </trkpt>
      <trkpt lat="45.74796" lon="4.64299">
        <ele>604.2</ele>
        <time>2025-12-11T14:14:33Z</time>
      </trkpt>
      <trkpt lat="45.74797" lon="4.64298">
        <ele>604.4</ele>
        <time>2025-12-11T14:14:34Z</time>
      </trkpt>
      <trkpt lat="45.74798" lon="4.64297">
        <ele>604.6</ele>
        <time>2025-12-11T14:14:35Z</time>
      </trkpt>
      <trkpt lat="45.74799" lon="4.64296">
        <ele>604.6</ele>
        <time>2025-12-11T14:14:36Z</time>
      </trkpt>
      <trkpt lat="45.748" lon="4.64295">
        <ele>604.8</ele>
        <time>2025-12-11T14:14:37Z</time>
      </trkpt>
      <trkpt lat="45.74802" lon="4.64294">
        <ele>604.8</ele>
        <time>2025-12-11T14:14:38Z</time>
      </trkpt>
      <trkpt lat="45.74803" lon="4.64294">
        <ele>605</ele>
        <time>2025-12-11T14:14:39Z</time>
      </trkpt>
      <trkpt lat="45.74804" lon="4.64292">
        <ele>605</ele>
        <time>2025-12-11T14:14:40Z</time>
      </trkpt>
      <trkpt lat="45.74805" lon="4.6429">
        <ele>605.2</ele>
        <time>2025-12-11T14:14:41Z</time>
      </trkpt>
      <trkpt lat="45.74805" lon="4.64288">
        <ele>605.4</ele>
        <time>2025-12-11T14:14:42Z</time>
      </trkpt>
      <trkpt lat="45.74806" lon="4.64287">
        <ele>605.4</ele>
        <time>2025-12-11T14:14:43Z</time>
      </trkpt>
      <trkpt lat="45.74807" lon="4.64286">
        <ele>605.6</ele>
        <time>2025-12-11T14:14:44Z</time>
      </trkpt>
      <trkpt lat="45.74808" lon="4.64284">
        <ele>605.8</ele>
        <time>2025-12-11T14:14:45Z</time>
      </trkpt>
      <trkpt lat="45.74809" lon="4.64283">
        <ele>605.8</ele>
        <time>2025-12-11T14:14:46Z</time>
      </trkpt>
      <trkpt lat="45.7481" lon="4.64281">
        <ele>606</ele>
        <time>2025-12-11T14:14:47Z</time>
      </trkpt>
      <trkpt lat="45.74811" lon="4.6428">
        <ele>606</ele>
        <time>2025-12-11T14:14:48Z</time>
      </trkpt>
      <trkpt lat="45.74812" lon="4.64279">
        <ele>606.2</ele>
        <time>2025-12-11T14:14:49Z</time>
      </trkpt>
      <trkpt lat="45.74813" lon="4.64277">
        <ele>606.2</ele>
        <time>2025-12-11T14:14:50Z</time>
      </trkpt>
      <trkpt lat="45.74814" lon="4.64276">
        <ele>606.2</ele>
        <time>2025-12-11T14:14:51Z</time>
      </trkpt>
      <trkpt lat="45.74815" lon="4.64275">
        <ele>606.4</ele>
        <time>2025-12-11T14:14:52Z</time>
      </trkpt>
      <trkpt lat="45.74816" lon="4.64273">
        <ele>606.6</ele>
        <time>2025-12-11T14:14:53Z</time>
      </trkpt>
      <trkpt lat="45.74817" lon="4.64272">
        <ele>606.6</ele>
        <time>2025-12-11T14:14:54Z</time>
      </trkpt>
      <trkpt lat="45.74818" lon="4.6427">
        <ele>606.8</ele>
        <time>2025-12-11T14:14:55Z</time>
      </trkpt>
      <trkpt lat="45.74819" lon="4.6427">
        <ele>607</ele>
        <time>2025-12-11T14:14:56Z</time>
      </trkpt>
      <trkpt lat="45.7482" lon="4.64269">
        <ele>607</ele>
        <time>2025-12-11T14:14:57Z</time>
      </trkpt>
      <trkpt lat="45.74821" lon="4.64267">
        <ele>607.2</ele>
        <time>2025-12-11T14:14:58Z</time>
      </trkpt>
      <trkpt lat="45.74822" lon="4.64266">
        <ele>607.2</ele>
        <time>2025-12-11T14:14:59Z</time>
      </trkpt>
      <trkpt lat="45.74823" lon="4.64265">
        <ele>607.4</ele>
        <time>2025-12-11T14:15:00Z</time>
      </trkpt>
      <trkpt lat="45.74824" lon="4.64264">
        <ele>607.6</ele>
        <time>2025-12-11T14:15:01Z</time>
      </trkpt>
      <trkpt lat="45.74825" lon="4.64263">
        <ele>607.6</ele>
        <time>2025-12-11T14:15:02Z</time>
      </trkpt>
      <trkpt lat="45.74826" lon="4.64262">
        <ele>607.8</ele>
        <time>2025-12-11T14:15:03Z</time>
      </trkpt>
      <trkpt lat="45.74827" lon="4.64261">
        <ele>608</ele>
        <time>2025-12-11T14:15:04Z</time>
      </trkpt>
      <trkpt lat="45.74828" lon="4.6426">
        <ele>608</ele>
        <time>2025-12-11T14:15:05Z</time>
      </trkpt>
      <trkpt lat="45.74829" lon="4.6426">
        <ele>608.2</ele>
        <time>2025-12-11T14:15:06Z</time>
      </trkpt>
      <trkpt lat="45.7483" lon="4.64258">
        <ele>608.2</ele>
        <time>2025-12-11T14:15:07Z</time>
      </trkpt>
      <trkpt lat="45.74831" lon="4.64257">
        <ele>608.4</ele>
        <time>2025-12-11T14:15:08Z</time>
      </trkpt>
      <trkpt lat="45.74833" lon="4.64256">
        <ele>608.4</ele>
        <time>2025-12-11T14:15:09Z</time>
      </trkpt>
      <trkpt lat="45.74834" lon="4.64254">
        <ele>608.6</ele>
        <time>2025-12-11T14:15:10Z</time>
      </trkpt>
      <trkpt lat="45.74835" lon="4.64253">
        <ele>608.6</ele>
        <time>2025-12-11T14:15:11Z</time>
      </trkpt>
      <trkpt lat="45.74836" lon="4.64251">
        <ele>608.8</ele>
        <time>2025-12-11T14:15:12Z</time>
      </trkpt>
      <trkpt lat="45.74837" lon="4.6425">
        <ele>608.8</ele>
        <time>2025-12-11T14:15:13Z</time>
      </trkpt>
      <trkpt lat="45.74838" lon="4.64248">
        <ele>608.8</ele>
        <time>2025-12-11T14:15:14Z</time>
      </trkpt>
      <trkpt lat="45.74839" lon="4.64247">
        <ele>609</ele>
        <time>2025-12-11T14:15:15Z</time>
      </trkpt>
      <trkpt lat="45.7484" lon="4.64245">
        <ele>609</ele>
        <time>2025-12-11T14:15:16Z</time>
      </trkpt>
      <trkpt lat="45.7484" lon="4.64243">
        <ele>609.2</ele>
        <time>2025-12-11T14:15:17Z</time>
      </trkpt>
      <trkpt lat="45.74841" lon="4.64242">
        <ele>609.2</ele>
        <time>2025-12-11T14:15:18Z</time>
      </trkpt>
      <trkpt lat="45.74843" lon="4.64241">
        <ele>609.4</ele>
        <time>2025-12-11T14:15:19Z</time>
      </trkpt>
      <trkpt lat="45.74844" lon="4.6424">
        <ele>609.4</ele>
        <time>2025-12-11T14:15:20Z</time>
      </trkpt>
      <trkpt lat="45.74846" lon="4.64239">
        <ele>609.4</ele>
        <time>2025-12-11T14:15:21Z</time>
      </trkpt>
      <trkpt lat="45.74847" lon="4.64237">
        <ele>609.6</ele>
        <time>2025-12-11T14:15:22Z</time>
      </trkpt>
      <trkpt lat="45.74848" lon="4.64235">
        <ele>609.6</ele>
        <time>2025-12-11T14:15:23Z</time>
      </trkpt>
      <trkpt lat="45.7485" lon="4.64233">
        <ele>609.8</ele>
        <time>2025-12-11T14:15:24Z</time>
      </trkpt>
      <trkpt lat="45.74851" lon="4.64231">
        <ele>609.8</ele>
        <time>2025-12-11T14:15:25Z</time>
      </trkpt>
      <trkpt lat="45.74851" lon="4.64229">
        <ele>610</ele>
        <time>2025-12-11T14:15:26Z</time>
      </trkpt>
      <trkpt lat="45.74852" lon="4.64228">
        <ele>610.2</ele>
        <time>2025-12-11T14:15:27Z</time>
      </trkpt>
      <trkpt lat="45.74853" lon="4.64226">
        <ele>610.2</ele>
        <time>2025-12-11T14:15:28Z</time>
      </trkpt>
      <trkpt lat="45.74854" lon="4.64225">
        <ele>610.4</ele>
        <time>2025-12-11T14:15:29Z</time>
      </trkpt>
      <trkpt lat="45.74855" lon="4.64224">
        <ele>610.6</ele>
        <time>2025-12-11T14:15:30Z</time>
      </trkpt>
      <trkpt lat="45.74856" lon="4.64222">
        <ele>610.6</ele>
        <time>2025-12-11T14:15:31Z</time>
      </trkpt>
      <trkpt lat="45.74857" lon="4.6422">
        <ele>610.8</ele>
        <time>2025-12-11T14:15:32Z</time>
      </trkpt>
      <trkpt lat="45.74858" lon="4.64218">
        <ele>611</ele>
        <time>2025-12-11T14:15:33Z</time>
      </trkpt>
      <trkpt lat="45.74859" lon="4.64216">
        <ele>611</ele>
        <time>2025-12-11T14:15:34Z</time>
      </trkpt>
      <trkpt lat="45.7486" lon="4.64214">
        <ele>611.2</ele>
        <time>2025-12-11T14:15:35Z</time>
      </trkpt>
      <trkpt lat="45.74861" lon="4.64212">
        <ele>611.2</ele>
        <time>2025-12-11T14:15:36Z</time>
      </trkpt>
      <trkpt lat="45.74861" lon="4.64211">
        <ele>611.4</ele>
        <time>2025-12-11T14:15:37Z</time>
      </trkpt>
      <trkpt lat="45.74862" lon="4.64209">
        <ele>611.4</ele>
        <time>2025-12-11T14:15:38Z</time>
      </trkpt>
      <trkpt lat="45.74863" lon="4.64207">
        <ele>611.6</ele>
        <time>2025-12-11T14:15:39Z</time>
      </trkpt>
      <trkpt lat="45.74864" lon="4.64206">
        <ele>611.8</ele>
        <time>2025-12-11T14:15:40Z</time>
      </trkpt>
      <trkpt lat="45.74864" lon="4.64204">
        <ele>611.8</ele>
        <time>2025-12-11T14:15:41Z</time>
      </trkpt>
      <trkpt lat="45.74865" lon="4.64202">
        <ele>612</ele>
        <time>2025-12-11T14:15:42Z</time>
      </trkpt>
      <trkpt lat="45.74867" lon="4.64201">
        <ele>612</ele>
        <time>2025-12-11T14:15:43Z</time>
      </trkpt>
      <trkpt lat="45.74868" lon="4.64199">
        <ele>612.2</ele>
        <time>2025-12-11T14:15:44Z</time>
      </trkpt>
      <trkpt lat="45.74869" lon="4.64198">
        <ele>612.2</ele>
        <time>2025-12-11T14:15:45Z</time>
      </trkpt>
      <trkpt lat="45.7487" lon="4.64196">
        <ele>612.4</ele>
        <time>2025-12-11T14:15:46Z</time>
      </trkpt>
      <trkpt lat="45.74871" lon="4.64195">
        <ele>612.6</ele>
        <time>2025-12-11T14:15:47Z</time>
      </trkpt>
      <trkpt lat="45.74872" lon="4.64194">
        <ele>612.8</ele>
        <time>2025-12-11T14:15:48Z</time>
      </trkpt>
      <trkpt lat="45.74873" lon="4.64192">
        <ele>613</ele>
        <time>2025-12-11T14:15:49Z</time>
      </trkpt>
      <trkpt lat="45.74874" lon="4.6419">
        <ele>613</ele>
        <time>2025-12-11T14:15:50Z</time>
      </trkpt>
      <trkpt lat="45.74875" lon="4.64188">
        <ele>613.2</ele>
        <time>2025-12-11T14:15:51Z</time>
      </trkpt>
      <trkpt lat="45.74876" lon="4.64186">
        <ele>613.4</ele>
        <time>2025-12-11T14:15:52Z</time>
      </trkpt>
      <trkpt lat="45.74877" lon="4.64185">
        <ele>613.4</ele>
        <time>2025-12-11T14:15:53Z</time>
      </trkpt>
      <trkpt lat="45.74878" lon="4.64184">
        <ele>613.6</ele>
        <time>2025-12-11T14:15:54Z</time>
      </trkpt>
      <trkpt lat="45.74879" lon="4.64182">
        <ele>613.8</ele>
        <time>2025-12-11T14:15:55Z</time>
      </trkpt>
      <trkpt lat="45.7488" lon="4.6418">
        <ele>613.8</ele>
        <time>2025-12-11T14:15:56Z</time>
      </trkpt>
      <trkpt lat="45.74881" lon="4.64178">
        <ele>614</ele>
        <time>2025-12-11T14:15:57Z</time>
      </trkpt>
      <trkpt lat="45.74882" lon="4.64176">
        <ele>614</ele>
        <time>2025-12-11T14:15:58Z</time>
      </trkpt>
      <trkpt lat="45.74883" lon="4.64175">
        <ele>614.2</ele>
        <time>2025-12-11T14:15:59Z</time>
      </trkpt>
      <trkpt lat="45.74884" lon="4.64173">
        <ele>614.2</ele>
        <time>2025-12-11T14:16:00Z</time>
      </trkpt>
      <trkpt lat="45.74885" lon="4.64172">
        <ele>614.4</ele>
        <time>2025-12-11T14:16:01Z</time>
      </trkpt>
      <trkpt lat="45.74886" lon="4.6417">
        <ele>614.6</ele>
        <time>2025-12-11T14:16:02Z</time>
      </trkpt>
      <trkpt lat="45.74887" lon="4.64169">
        <ele>614.6</ele>
        <time>2025-12-11T14:16:03Z</time>
      </trkpt>
      <trkpt lat="45.74888" lon="4.64168">
        <ele>614.8</ele>
        <time>2025-12-11T14:16:04Z</time>
      </trkpt>
      <trkpt lat="45.74889" lon="4.64166">
        <ele>614.8</ele>
        <time>2025-12-11T14:16:05Z</time>
      </trkpt>
      <trkpt lat="45.74889" lon="4.64165">
        <ele>615</ele>
        <time>2025-12-11T14:16:06Z</time>
      </trkpt>
      <trkpt lat="45.7489" lon="4.64163">
        <ele>615</ele>
        <time>2025-12-11T14:16:07Z</time>
      </trkpt>
      <trkpt lat="45.74891" lon="4.64161">
        <ele>615.2</ele>
        <time>2025-12-11T14:16:08Z</time>
      </trkpt>
      <trkpt lat="45.74892" lon="4.64159">
        <ele>615.2</ele>
        <time>2025-12-11T14:16:09Z</time>
      </trkpt>
      <trkpt lat="45.74893" lon="4.64157">
        <ele>615.4</ele>
        <time>2025-12-11T14:16:10Z</time>
      </trkpt>
      <trkpt lat="45.74894" lon="4.64155">
        <ele>615.4</ele>
        <time>2025-12-11T14:16:11Z</time>
      </trkpt>
      <trkpt lat="45.74895" lon="4.64153">
        <ele>615.6</ele>
        <time>2025-12-11T14:16:12Z</time>
      </trkpt>
      <trkpt lat="45.74896" lon="4.64151">
        <ele>615.6</ele>
        <time>2025-12-11T14:16:13Z</time>
      </trkpt>
      <trkpt lat="45.74897" lon="4.64149">
        <ele>615.8</ele>
        <time>2025-12-11T14:16:14Z</time>
      </trkpt>
      <trkpt lat="45.74898" lon="4.64148">
        <ele>615.8</ele>
        <time>2025-12-11T14:16:15Z</time>
      </trkpt>
      <trkpt lat="45.74899" lon="4.64146">
        <ele>616</ele>
        <time>2025-12-11T14:16:16Z</time>
      </trkpt>
      <trkpt lat="45.749" lon="4.64144">
        <ele>616.2</ele>
        <time>2025-12-11T14:16:17Z</time>
      </trkpt>
      <trkpt lat="45.74901" lon="4.64142">
        <ele>616.4</ele>
        <time>2025-12-11T14:16:18Z</time>
      </trkpt>
      <trkpt lat="45.74902" lon="4.6414">
        <ele>616.4</ele>
        <time>2025-12-11T14:16:19Z</time>
      </trkpt>
      <trkpt lat="45.74903" lon="4.64139">
        <ele>616.6</ele>
        <time>2025-12-11T14:16:20Z</time>
      </trkpt>
      <trkpt lat="45.74904" lon="4.64137">
        <ele>616.8</ele>
        <time>2025-12-11T14:16:21Z</time>
      </trkpt>
      <trkpt lat="45.74905" lon="4.64136">
        <ele>616.8</ele>
        <time>2025-12-11T14:16:22Z</time>
      </trkpt>
      <trkpt lat="45.74906" lon="4.64134">
        <ele>617</ele>
        <time>2025-12-11T14:16:23Z</time>
      </trkpt>
      <trkpt lat="45.74907" lon="4.64132">
        <ele>617.2</ele>
        <time>2025-12-11T14:16:24Z</time>
      </trkpt>
      <trkpt lat="45.74908" lon="4.64131">
        <ele>617.2</ele>
        <time>2025-12-11T14:16:25Z</time>
      </trkpt>
      <trkpt lat="45.74909" lon="4.64129">
        <ele>617.4</ele>
        <time>2025-12-11T14:16:26Z</time>
      </trkpt>
      <trkpt lat="45.7491" lon="4.64127">
        <ele>617.4</ele>
        <time>2025-12-11T14:16:27Z</time>
      </trkpt>
      <trkpt lat="45.74911" lon="4.64125">
        <ele>617.6</ele>
        <time>2025-12-11T14:16:28Z</time>
      </trkpt>
      <trkpt lat="45.74912" lon="4.64123">
        <ele>617.6</ele>
        <time>2025-12-11T14:16:29Z</time>
      </trkpt>
      <trkpt lat="45.74913" lon="4.64122">
        <ele>617.8</ele>
        <time>2025-12-11T14:16:30Z</time>
      </trkpt>
      <trkpt lat="45.74914" lon="4.6412">
        <ele>617.8</ele>
        <time>2025-12-11T14:16:31Z</time>
      </trkpt>
      <trkpt lat="45.74915" lon="4.64118">
        <ele>617.8</ele>
        <time>2025-12-11T14:16:32Z</time>
      </trkpt>
      <trkpt lat="45.74916" lon="4.64116">
        <ele>618</ele>
        <time>2025-12-11T14:16:33Z</time>
      </trkpt>
      <trkpt lat="45.74917" lon="4.64114">
        <ele>618.2</ele>
        <time>2025-12-11T14:16:34Z</time>
      </trkpt>
      <trkpt lat="45.74918" lon="4.64112">
        <ele>618.2</ele>
        <time>2025-12-11T14:16:35Z</time>
      </trkpt>
      <trkpt lat="45.74919" lon="4.6411">
        <ele>618.2</ele>
        <time>2025-12-11T14:16:36Z</time>
      </trkpt>
      <trkpt lat="45.7492" lon="4.64108">
        <ele>618.4</ele>
        <time>2025-12-11T14:16:37Z</time>
      </trkpt>
      <trkpt lat="45.74921" lon="4.64106">
        <ele>618.6</ele>
        <time>2025-12-11T14:16:38Z</time>
      </trkpt>
      <trkpt lat="45.74922" lon="4.64105">
        <ele>618.6</ele>
        <time>2025-12-11T14:16:39Z</time>
      </trkpt>
      <trkpt lat="45.74923" lon="4.64104">
        <ele>618.8</ele>
        <time>2025-12-11T14:16:40Z</time>
      </trkpt>
      <trkpt lat="45.74924" lon="4.64102">
        <ele>619</ele>
        <time>2025-12-11T14:16:41Z</time>
      </trkpt>
      <trkpt lat="45.74925" lon="4.641">
        <ele>619</ele>
        <time>2025-12-11T14:16:42Z</time>
      </trkpt>
      <trkpt lat="45.74926" lon="4.64098">
        <ele>619</ele>
        <time>2025-12-11T14:16:43Z</time>
      </trkpt>
      <trkpt lat="45.74927" lon="4.64096">
        <ele>619.2</ele>
        <time>2025-12-11T14:16:44Z</time>
      </trkpt>
      <trkpt lat="45.74928" lon="4.64095">
        <ele>619.4</ele>
        <time>2025-12-11T14:16:45Z</time>
      </trkpt>
      <trkpt lat="45.74929" lon="4.64093">
        <ele>619.4</ele>
        <time>2025-12-11T14:16:46Z</time>
      </trkpt>
      <trkpt lat="45.7493" lon="4.64091">
        <ele>619.6</ele>
        <time>2025-12-11T14:16:47Z</time>
      </trkpt>
      <trkpt lat="45.74931" lon="4.6409">
        <ele>619.8</ele>
        <time>2025-12-11T14:16:48Z</time>
      </trkpt>
      <trkpt lat="45.74932" lon="4.64089">
        <ele>619.8</ele>
        <time>2025-12-11T14:16:49Z</time>
      </trkpt>
      <trkpt lat="45.74933" lon="4.64087">
        <ele>620</ele>
        <time>2025-12-11T14:16:50Z</time>
      </trkpt>
      <trkpt lat="45.74934" lon="4.64085">
        <ele>620</ele>
        <time>2025-12-11T14:16:51Z</time>
      </trkpt>
      <trkpt lat="45.74935" lon="4.64083">
        <ele>620.2</ele>
        <time>2025-12-11T14:16:52Z</time>
      </trkpt>
      <trkpt lat="45.74936" lon="4.64081">
        <ele>620.2</ele>
        <time>2025-12-11T14:16:53Z</time>
      </trkpt>
      <trkpt lat="45.74937" lon="4.64078">
        <ele>620.4</ele>
        <time>2025-12-11T14:16:54Z</time>
      </trkpt>
      <trkpt lat="45.74939" lon="4.64077">
        <ele>620.4</ele>
        <time>2025-12-11T14:16:55Z</time>
      </trkpt>
      <trkpt lat="45.7494" lon="4.64075">
        <ele>620.6</ele>
        <time>2025-12-11T14:16:56Z</time>
      </trkpt>
      <trkpt lat="45.74941" lon="4.64074">
        <ele>620.8</ele>
        <time>2025-12-11T14:16:57Z</time>
      </trkpt>
      <trkpt lat="45.74942" lon="4.64073">
        <ele>620.8</ele>
        <time>2025-12-11T14:16:58Z</time>
      </trkpt>
      <trkpt lat="45.74943" lon="4.64072">
        <ele>621</ele>
        <time>2025-12-11T14:16:59Z</time>
      </trkpt>
      <trkpt lat="45.74944" lon="4.6407">
        <ele>621</ele>
        <time>2025-12-11T14:17:00Z</time>
      </trkpt>
      <trkpt lat="45.74945" lon="4.64068">
        <ele>621.2</ele>
        <time>2025-12-11T14:17:01Z</time>
      </trkpt>
      <trkpt lat="45.74945" lon="4.64066">
        <ele>621.2</ele>
        <time>2025-12-11T14:17:02Z</time>
      </trkpt>
      <trkpt lat="45.74946" lon="4.64064">
        <ele>621.4</ele>
        <time>2025-12-11T14:17:03Z</time>
      </trkpt>
      <trkpt lat="45.74947" lon="4.64062">
        <ele>621.4</ele>
        <time>2025-12-11T14:17:04Z</time>
      </trkpt>
      <trkpt lat="45.74948" lon="4.6406">
        <ele>621.6</ele>
        <time>2025-12-11T14:17:05Z</time>
      </trkpt>
      <trkpt lat="45.74949" lon="4.64059">
        <ele>621.8</ele>
        <time>2025-12-11T14:17:06Z</time>
      </trkpt>
      <trkpt lat="45.74949" lon="4.64057">
        <ele>621.8</ele>
        <time>2025-12-11T14:17:07Z</time>
      </trkpt>
      <trkpt lat="45.7495" lon="4.64054">
        <ele>622</ele>
        <time>2025-12-11T14:17:08Z</time>
      </trkpt>
      <trkpt lat="45.74951" lon="4.64053">
        <ele>622.2</ele>
        <time>2025-12-11T14:17:09Z</time>
      </trkpt>
      <trkpt lat="45.74952" lon="4.64051">
        <ele>622.2</ele>
        <time>2025-12-11T14:17:10Z</time>
      </trkpt>
      <trkpt lat="45.74953" lon="4.64049">
        <ele>622.4</ele>
        <time>2025-12-11T14:17:11Z</time>
      </trkpt>
      <trkpt lat="45.74954" lon="4.64047">
        <ele>622.4</ele>
        <time>2025-12-11T14:17:12Z</time>
      </trkpt>
      <trkpt lat="45.74955" lon="4.64046">
        <ele>622.6</ele>
        <time>2025-12-11T14:17:13Z</time>
      </trkpt>
      <trkpt lat="45.74956" lon="4.64044">
        <ele>622.8</ele>
        <time>2025-12-11T14:17:14Z</time>
      </trkpt>
      <trkpt lat="45.74957" lon="4.64043">
        <ele>622.8</ele>
        <time>2025-12-11T14:17:15Z</time>
      </trkpt>
      <trkpt lat="45.74958" lon="4.64041">
        <ele>623</ele>
        <time>2025-12-11T14:17:16Z</time>
      </trkpt>
      <trkpt lat="45.74959" lon="4.64039">
        <ele>623</ele>
        <time>2025-12-11T14:17:17Z</time>
      </trkpt>
      <trkpt lat="45.7496" lon="4.64037">
        <ele>623.2</ele>
        <time>2025-12-11T14:17:18Z</time>
      </trkpt>
      <trkpt lat="45.74961" lon="4.64036">
        <ele>623.4</ele>
        <time>2025-12-11T14:17:19Z</time>
      </trkpt>
      <trkpt lat="45.74962" lon="4.64035">
        <ele>623.4</ele>
        <time>2025-12-11T14:17:20Z</time>
      </trkpt>
      <trkpt lat="45.74963" lon="4.64033">
        <ele>623.6</ele>
        <time>2025-12-11T14:17:21Z</time>
      </trkpt>
      <trkpt lat="45.74963" lon="4.64032">
        <ele>623.6</ele>
        <time>2025-12-11T14:17:22Z</time>
      </trkpt>
      <trkpt lat="45.74964" lon="4.6403">
        <ele>623.8</ele>
        <time>2025-12-11T14:17:23Z</time>
      </trkpt>
      <trkpt lat="45.74964" lon="4.64029">
        <ele>624</ele>
        <time>2025-12-11T14:17:24Z</time>
      </trkpt>
      <trkpt lat="45.74965" lon="4.64028">
        <ele>624</ele>
        <time>2025-12-11T14:17:25Z</time>
      </trkpt>
      <trkpt lat="45.74966" lon="4.64027">
        <ele>624.2</ele>
        <time>2025-12-11T14:17:26Z</time>
      </trkpt>
      <trkpt lat="45.74967" lon="4.64025">
        <ele>624.4</ele>
        <time>2025-12-11T14:17:27Z</time>
      </trkpt>
      <trkpt lat="45.74968" lon="4.64024">
        <ele>624.4</ele>
        <time>2025-12-11T14:17:28Z</time>
      </trkpt>
      <trkpt lat="45.74968" lon="4.64023">
        <ele>624.6</ele>
        <time>2025-12-11T14:17:29Z</time>
      </trkpt>
      <trkpt lat="45.74969" lon="4.64021">
        <ele>624.8</ele>
        <time>2025-12-11T14:17:30Z</time>
      </trkpt>
      <trkpt lat="45.7497" lon="4.6402">
        <ele>624.8</ele>
        <time>2025-12-11T14:17:31Z</time>
      </trkpt>
      <trkpt lat="45.7497" lon="4.64019">
        <ele>625</ele>
        <time>2025-12-11T14:17:32Z</time>
      </trkpt>
      <trkpt lat="45.74971" lon="4.64018">
        <ele>625.2</ele>
        <time>2025-12-11T14:17:33Z</time>
      </trkpt>
      <trkpt lat="45.74972" lon="4.64017">
        <ele>625.2</ele>
        <time>2025-12-11T14:17:34Z</time>
      </trkpt>
      <trkpt lat="45.74973" lon="4.64017">
        <ele>625.4</ele>
        <time>2025-12-11T14:17:35Z</time>
      </trkpt>
      <trkpt lat="45.74974" lon="4.64016">
        <ele>625.6</ele>
        <time>2025-12-11T14:17:36Z</time>
      </trkpt>
      <trkpt lat="45.74975" lon="4.64014">
        <ele>625.6</ele>
        <time>2025-12-11T14:17:37Z</time>
      </trkpt>
      <trkpt lat="45.74975" lon="4.64013">
        <ele>625.8</ele>
        <time>2025-12-11T14:17:38Z</time>
      </trkpt>
      <trkpt lat="45.74976" lon="4.64012">
        <ele>626</ele>
        <time>2025-12-11T14:17:39Z</time>
      </trkpt>
      <trkpt lat="45.74977" lon="4.64011">
        <ele>626</ele>
        <time>2025-12-11T14:17:40Z</time>
      </trkpt>
      <trkpt lat="45.74978" lon="4.6401">
        <ele>626.2</ele>
        <time>2025-12-11T14:17:41Z</time>
      </trkpt>
      <trkpt lat="45.74978" lon="4.64008">
        <ele>626.4</ele>
        <time>2025-12-11T14:17:42Z</time>
      </trkpt>
      <trkpt lat="45.74979" lon="4.64006">
        <ele>626.4</ele>
        <time>2025-12-11T14:17:43Z</time>
      </trkpt>
      <trkpt lat="45.7498" lon="4.64005">
        <ele>626.6</ele>
        <time>2025-12-11T14:17:44Z</time>
      </trkpt>
      <trkpt lat="45.7498" lon="4.64003">
        <ele>626.8</ele>
        <time>2025-12-11T14:17:45Z</time>
      </trkpt>
      <trkpt lat="45.74981" lon="4.64002">
        <ele>626.8</ele>
        <time>2025-12-11T14:17:46Z</time>
      </trkpt>
      <trkpt lat="45.74982" lon="4.64">
        <ele>627</ele>
        <time>2025-12-11T14:17:47Z</time>
      </trkpt>
      <trkpt lat="45.74982" lon="4.63998">
        <ele>627.2</ele>
        <time>2025-12-11T14:17:48Z</time>
      </trkpt>
      <trkpt lat="45.74983" lon="4.63997">
        <ele>627.4</ele>
        <time>2025-12-11T14:17:49Z</time>
      </trkpt>
      <trkpt lat="45.74984" lon="4.63996">
        <ele>627.6</ele>
        <time>2025-12-11T14:17:50Z</time>
      </trkpt>
      <trkpt lat="45.74985" lon="4.63995">
        <ele>627.6</ele>
        <time>2025-12-11T14:17:51Z</time>
      </trkpt>
      <trkpt lat="45.74986" lon="4.63994">
        <ele>627.8</ele>
        <time>2025-12-11T14:17:52Z</time>
      </trkpt>
      <trkpt lat="45.74987" lon="4.63993">
        <ele>628</ele>
        <time>2025-12-11T14:17:53Z</time>
      </trkpt>
      <trkpt lat="45.74988" lon="4.63991">
        <ele>628.2</ele>
        <time>2025-12-11T14:17:54Z</time>
      </trkpt>
      <trkpt lat="45.74988" lon="4.6399">
        <ele>628.4</ele>
        <time>2025-12-11T14:17:55Z</time>
      </trkpt>
      <trkpt lat="45.74989" lon="4.6399">
        <ele>628.4</ele>
        <time>2025-12-11T14:17:56Z</time>
      </trkpt>
      <trkpt lat="45.7499" lon="4.63989">
        <ele>628.6</ele>
        <time>2025-12-11T14:17:57Z</time>
      </trkpt>
      <trkpt lat="45.74991" lon="4.63988">
        <ele>628.8</ele>
        <time>2025-12-11T14:17:58Z</time>
      </trkpt>
      <trkpt lat="45.74992" lon="4.63986">
        <ele>628.8</ele>
        <time>2025-12-11T14:17:59Z</time>
      </trkpt>
      <trkpt lat="45.74994" lon="4.63986">
        <ele>629</ele>
        <time>2025-12-11T14:18:00Z</time>
      </trkpt>
      <trkpt lat="45.74995" lon="4.63985">
        <ele>629.2</ele>
        <time>2025-12-11T14:18:01Z</time>
      </trkpt>
      <trkpt lat="45.74996" lon="4.63985">
        <ele>629.2</ele>
        <time>2025-12-11T14:18:02Z</time>
      </trkpt>
      <trkpt lat="45.74997" lon="4.63984">
        <ele>629.4</ele>
        <time>2025-12-11T14:18:03Z</time>
      </trkpt>
      <trkpt lat="45.74998" lon="4.63983">
        <ele>629.6</ele>
        <time>2025-12-11T14:18:04Z</time>
      </trkpt>
      <trkpt lat="45.74998" lon="4.63981">
        <ele>629.8</ele>
        <time>2025-12-11T14:18:05Z</time>
      </trkpt>
      <trkpt lat="45.74999" lon="4.6398">
        <ele>630</ele>
        <time>2025-12-11T14:18:06Z</time>
      </trkpt>
      <trkpt lat="45.75" lon="4.63979">
        <ele>630.2</ele>
        <time>2025-12-11T14:18:07Z</time>
      </trkpt>
      <trkpt lat="45.75001" lon="4.63978">
        <ele>630.4</ele>
        <time>2025-12-11T14:18:08Z</time>
      </trkpt>
      <trkpt lat="45.75002" lon="4.63977">
        <ele>630.6</ele>
        <time>2025-12-11T14:18:09Z</time>
      </trkpt>
      <trkpt lat="45.75003" lon="4.63976">
        <ele>630.6</ele>
        <time>2025-12-11T14:18:10Z</time>
      </trkpt>
      <trkpt lat="45.75003" lon="4.63975">
        <ele>630.8</ele>
        <time>2025-12-11T14:18:11Z</time>
      </trkpt>
      <trkpt lat="45.75004" lon="4.63975">
        <ele>631</ele>
        <time>2025-12-11T14:18:12Z</time>
      </trkpt>
      <trkpt lat="45.75005" lon="4.63974">
        <ele>631.2</ele>
        <time>2025-12-11T14:18:13Z</time>
      </trkpt>
      <trkpt lat="45.75005" lon="4.63972">
        <ele>631.2</ele>
        <time>2025-12-11T14:18:14Z</time>
      </trkpt>
      <trkpt lat="45.75006" lon="4.63971">
        <ele>631.4</ele>
        <time>2025-12-11T14:18:15Z</time>
      </trkpt>
      <trkpt lat="45.75006" lon="4.6397">
        <ele>631.6</ele>
        <time>2025-12-11T14:18:16Z</time>
      </trkpt>
      <trkpt lat="45.75007" lon="4.63969">
        <ele>631.8</ele>
        <time>2025-12-11T14:18:17Z</time>
      </trkpt>
      <trkpt lat="45.75008" lon="4.63967">
        <ele>632</ele>
        <time>2025-12-11T14:18:18Z</time>
      </trkpt>
      <trkpt lat="45.75008" lon="4.63966">
        <ele>632.2</ele>
        <time>2025-12-11T14:18:19Z</time>
      </trkpt>
      <trkpt lat="45.75009" lon="4.63964">
        <ele>632.4</ele>
        <time>2025-12-11T14:18:20Z</time>
      </trkpt>
      <trkpt lat="45.7501" lon="4.63963">
        <ele>632.6</ele>
        <time>2025-12-11T14:18:21Z</time>
      </trkpt>
      <trkpt lat="45.7501" lon="4.63962">
        <ele>632.8</ele>
        <time>2025-12-11T14:18:22Z</time>
      </trkpt>
      <trkpt lat="45.75011" lon="4.63961">
        <ele>633</ele>
        <time>2025-12-11T14:18:23Z</time>
      </trkpt>
      <trkpt lat="45.75011" lon="4.63961">
        <ele>633.2</ele>
        <time>2025-12-11T14:18:24Z</time>
      </trkpt>
      <trkpt lat="45.75011" lon="4.63961">
        <ele>633.2</ele>
        <time>2025-12-11T14:18:25Z</time>
      </trkpt>
      <trkpt lat="45.75011" lon="4.63961">
        <ele>633.4</ele>
        <time>2025-12-11T14:18:26Z</time>
      </trkpt>
      <trkpt lat="45.75011" lon="4.63961">
        <ele>633.4</ele>
        <time>2025-12-11T14:18:27Z</time>
      </trkpt>
      <trkpt lat="45.75011" lon="4.63961">
        <ele>633.4</ele>
        <time>2025-12-11T14:18:28Z</time>
      </trkpt>
      <trkpt lat="45.75011" lon="4.63961">
        <ele>633.4</ele>
        <time>2025-12-11T14:18:29Z</time>
      </trkpt>
      <trkpt lat="45.75011" lon="4.63961">
        <ele>633.4</ele>
        <time>2025-12-11T14:18:30Z</time>
      </trkpt>
      <trkpt lat="45.75011" lon="4.63961">
        <ele>633.4</ele>
        <time>2025-12-11T14:18:31Z</time>
      </trkpt>
      <trkpt lat="45.75011" lon="4.63961">
        <ele>633.4</ele>
        <time>2025-12-11T14:18:32Z</time>
      </trkpt>
      <trkpt lat="45.75011" lon="4.63961">
        <ele>633.4</ele>
        <time>2025-12-11T14:18:33Z</time>
      </trkpt>
      <trkpt lat="45.75011" lon="4.63961">
        <ele>633.6</ele>
        <time>2025-12-11T14:18:34Z</time>
      </trkpt>
      <trkpt lat="45.75011" lon="4.63961">
        <ele>633.6</ele>
        <time>2025-12-11T14:18:35Z</time>
      </trkpt>
      <trkpt lat="45.75011" lon="4.63961">
        <ele>633.4</ele>
        <time>2025-12-11T14:18:36Z</time>
      </trkpt>
      <trkpt lat="45.75011" lon="4.63961">
        <ele>633.4</ele>
        <time>2025-12-11T14:18:37Z</time>
      </trkpt>
      <trkpt lat="45.75011" lon="4.63961">
        <ele>633.4</ele>
        <time>2025-12-11T14:18:38Z</time>
      </trkpt>
      <trkpt lat="45.75011" lon="4.63961">
        <ele>633.4</ele>
        <time>2025-12-11T14:18:39Z</time>
      </trkpt>
      <trkpt lat="45.75011" lon="4.63961">
        <ele>633.6</ele>
        <time>2025-12-11T14:18:40Z</time>
      </trkpt>
      <trkpt lat="45.75011" lon="4.63961">
        <ele>633.6</ele>
        <time>2025-12-11T14:18:41Z</time>
      </trkpt>
      <trkpt lat="45.75011" lon="4.63961">
        <ele>633.6</ele>
        <time>2025-12-11T14:18:42Z</time>
      </trkpt>
      <trkpt lat="45.75011" lon="4.63961">
        <ele>633.6</ele>
        <time>2025-12-11T14:18:43Z</time>
      </trkpt>
      <trkpt lat="45.75011" lon="4.63961">
        <ele>633.6</ele>
        <time>2025-12-11T14:18:44Z</time>
      </trkpt>
      <trkpt lat="45.75011" lon="4.63961">
        <ele>633.6</ele>
        <time>2025-12-11T14:18:45Z</time>
      </trkpt>
      <trkpt lat="45.75011" lon="4.63961">
        <ele>633.6</ele>
        <time>2025-12-11T14:18:46Z</time>
      </trkpt>
      <trkpt lat="45.75011" lon="4.63961">
        <ele>633.6</ele>
        <time>2025-12-11T14:18:47Z</time>
      </trkpt>
      <trkpt lat="45.75011" lon="4.63961">
        <ele>633.6</ele>
        <time>2025-12-11T14:18:48Z</time>
      </trkpt>
      <trkpt lat="45.75011" lon="4.63961">
        <ele>633.6</ele>
        <time>2025-12-11T14:18:49Z</time>
      </trkpt>
      <trkpt lat="45.75011" lon="4.63961">
        <ele>633.6</ele>
        <time>2025-12-11T14:18:50Z</time>
      </trkpt>
      <trkpt lat="45.75011" lon="4.63961">
        <ele>633.6</ele>
        <time>2025-12-11T14:18:51Z</time>
      </trkpt>
      <trkpt lat="45.75011" lon="4.63959">
        <ele>633.6</ele>
        <time>2025-12-11T14:18:52Z</time>
      </trkpt>
      <trkpt lat="45.75011" lon="4.63958">
        <ele>633.6</ele>
        <time>2025-12-11T14:18:53Z</time>
      </trkpt>
      <trkpt lat="45.75012" lon="4.63957">
        <ele>633.8</ele>
        <time>2025-12-11T14:18:54Z</time>
      </trkpt>
      <trkpt lat="45.75013" lon="4.63956">
        <ele>633.8</ele>
        <time>2025-12-11T14:18:55Z</time>
      </trkpt>
      <trkpt lat="45.75014" lon="4.63955">
        <ele>634</ele>
        <time>2025-12-11T14:18:56Z</time>
      </trkpt>
      <trkpt lat="45.75015" lon="4.63954">
        <ele>634.2</ele>
        <time>2025-12-11T14:18:57Z</time>
      </trkpt>
      <trkpt lat="45.75016" lon="4.63953">
        <ele>634.4</ele>
        <time>2025-12-11T14:18:58Z</time>
      </trkpt>
      <trkpt lat="45.75017" lon="4.63952">
        <ele>634.6</ele>
        <time>2025-12-11T14:18:59Z</time>
      </trkpt>
      <trkpt lat="45.75018" lon="4.63951">
        <ele>634.6</ele>
        <time>2025-12-11T14:19:00Z</time>
      </trkpt>
      <trkpt lat="45.7502" lon="4.6395">
        <ele>635</ele>
        <time>2025-12-11T14:19:01Z</time>
      </trkpt>
      <trkpt lat="45.75021" lon="4.63949">
        <ele>635</ele>
        <time>2025-12-11T14:19:02Z</time>
      </trkpt>
      <trkpt lat="45.75023" lon="4.63947">
        <ele>635.2</ele>
        <time>2025-12-11T14:19:03Z</time>
      </trkpt>
      <trkpt lat="45.75024" lon="4.63946">
        <ele>635.4</ele>
        <time>2025-12-11T14:19:04Z</time>
      </trkpt>
      <trkpt lat="45.75025" lon="4.63944">
        <ele>635.6</ele>
        <time>2025-12-11T14:19:05Z</time>
      </trkpt>
      <trkpt lat="45.75027" lon="4.63943">
        <ele>635.8</ele>
        <time>2025-12-11T14:19:06Z</time>
      </trkpt>
      <trkpt lat="45.75028" lon="4.63942">
        <ele>636.2</ele>
        <time>2025-12-11T14:19:07Z</time>
      </trkpt>
      <trkpt lat="45.75029" lon="4.6394">
        <ele>636.4</ele>
        <time>2025-12-11T14:19:08Z</time>
      </trkpt>
      <trkpt lat="45.7503" lon="4.63939">
        <ele>636.6</ele>
        <time>2025-12-11T14:19:09Z</time>
      </trkpt>
      <trkpt lat="45.75032" lon="4.63938">
        <ele>636.8</ele>
        <time>2025-12-11T14:19:10Z</time>
      </trkpt>
      <trkpt lat="45.75033" lon="4.63936">
        <ele>637</ele>
        <time>2025-12-11T14:19:11Z</time>
      </trkpt>
      <trkpt lat="45.75034" lon="4.63935">
        <ele>637.2</ele>
        <time>2025-12-11T14:19:12Z</time>
      </trkpt>
      <trkpt lat="45.75035" lon="4.63933">
        <ele>637.4</ele>
        <time>2025-12-11T14:19:13Z</time>
      </trkpt>
      <trkpt lat="45.75036" lon="4.63932">
        <ele>637.6</ele>
        <time>2025-12-11T14:19:14Z</time>
      </trkpt>
      <trkpt lat="45.75037" lon="4.63931">
        <ele>637.8</ele>
        <time>2025-12-11T14:19:15Z</time>
      </trkpt>
      <trkpt lat="45.75038" lon="4.63929">
        <ele>638</ele>
        <time>2025-12-11T14:19:16Z</time>
      </trkpt>
      <trkpt lat="45.75039" lon="4.63927">
        <ele>638.2</ele>
        <time>2025-12-11T14:19:17Z</time>
      </trkpt>
      <trkpt lat="45.7504" lon="4.63926">
        <ele>638.4</ele>
        <time>2025-12-11T14:19:18Z</time>
      </trkpt>
      <trkpt lat="45.75041" lon="4.63925">
        <ele>638.6</ele>
        <time>2025-12-11T14:19:19Z</time>
      </trkpt>
      <trkpt lat="45.75042" lon="4.63924">
        <ele>638.8</ele>
        <time>2025-12-11T14:19:20Z</time>
      </trkpt>
      <trkpt lat="45.75043" lon="4.63922">
        <ele>639</ele>
        <time>2025-12-11T14:19:21Z</time>
      </trkpt>
      <trkpt lat="45.75044" lon="4.63921">
        <ele>639.2</ele>
        <time>2025-12-11T14:19:22Z</time>
      </trkpt>
      <trkpt lat="45.75045" lon="4.6392">
        <ele>639.4</ele>
        <time>2025-12-11T14:19:23Z</time>
      </trkpt>
      <trkpt lat="45.75046" lon="4.63919">
        <ele>639.6</ele>
        <time>2025-12-11T14:19:24Z</time>
      </trkpt>
      <trkpt lat="45.75047" lon="4.63918">
        <ele>639.8</ele>
        <time>2025-12-11T14:19:25Z</time>
      </trkpt>
      <trkpt lat="45.75048" lon="4.63916">
        <ele>640</ele>
        <time>2025-12-11T14:19:26Z</time>
      </trkpt>
      <trkpt lat="45.75049" lon="4.63915">
        <ele>640.2</ele>
        <time>2025-12-11T14:19:27Z</time>
      </trkpt>
      <trkpt lat="45.7505" lon="4.63914">
        <ele>640.4</ele>
        <time>2025-12-11T14:19:28Z</time>
      </trkpt>
      <trkpt lat="45.75051" lon="4.63914">
        <ele>640.4</ele>
        <time>2025-12-11T14:19:29Z</time>
      </trkpt>
      <trkpt lat="45.75053" lon="4.63914">
        <ele>640.6</ele>
        <time>2025-12-11T14:19:30Z</time>
      </trkpt>
      <trkpt lat="45.75053" lon="4.63913">
        <ele>640.8</ele>
        <time>2025-12-11T14:19:31Z</time>
      </trkpt>
      <trkpt lat="45.75055" lon="4.63912">
        <ele>640.8</ele>
        <time>2025-12-11T14:19:32Z</time>
      </trkpt>
      <trkpt lat="45.75056" lon="4.63912">
        <ele>641</ele>
        <time>2025-12-11T14:19:33Z</time>
      </trkpt>
      <trkpt lat="45.75057" lon="4.63911">
        <ele>641.2</ele>
        <time>2025-12-11T14:19:34Z</time>
      </trkpt>
      <trkpt lat="45.75059" lon="4.63911">
        <ele>641.2</ele>
        <time>2025-12-11T14:19:35Z</time>
      </trkpt>
      <trkpt lat="45.7506" lon="4.6391">
        <ele>641.4</ele>
        <time>2025-12-11T14:19:36Z</time>
      </trkpt>
      <trkpt lat="45.75061" lon="4.63909">
        <ele>641.6</ele>
        <time>2025-12-11T14:19:37Z</time>
      </trkpt>
      <trkpt lat="45.75062" lon="4.63909">
        <ele>641.8</ele>
        <time>2025-12-11T14:19:38Z</time>
      </trkpt>
      <trkpt lat="45.75063" lon="4.63908">
        <ele>641.8</ele>
        <time>2025-12-11T14:19:39Z</time>
      </trkpt>
      <trkpt lat="45.75064" lon="4.63907">
        <ele>642</ele>
        <time>2025-12-11T14:19:40Z</time>
      </trkpt>
      <trkpt lat="45.75065" lon="4.63906">
        <ele>642.2</ele>
        <time>2025-12-11T14:19:41Z</time>
      </trkpt>
      <trkpt lat="45.75067" lon="4.63905">
        <ele>642.4</ele>
        <time>2025-12-11T14:19:42Z</time>
      </trkpt>
      <trkpt lat="45.75068" lon="4.63904">
        <ele>642.6</ele>
        <time>2025-12-11T14:19:43Z</time>
      </trkpt>
      <trkpt lat="45.75069" lon="4.63903">
        <ele>642.6</ele>
        <time>2025-12-11T14:19:44Z</time>
      </trkpt>
      <trkpt lat="45.7507" lon="4.63902">
        <ele>642.8</ele>
        <time>2025-12-11T14:19:45Z</time>
      </trkpt>
      <trkpt lat="45.75071" lon="4.63902">
        <ele>643</ele>
        <time>2025-12-11T14:19:46Z</time>
      </trkpt>
      <trkpt lat="45.75072" lon="4.63901">
        <ele>643.2</ele>
        <time>2025-12-11T14:19:47Z</time>
      </trkpt>
      <trkpt lat="45.75073" lon="4.639">
        <ele>643.4</ele>
        <time>2025-12-11T14:19:48Z</time>
      </trkpt>
      <trkpt lat="45.75074" lon="4.63898">
        <ele>643.6</ele>
        <time>2025-12-11T14:19:49Z</time>
      </trkpt>
      <trkpt lat="45.75075" lon="4.63897">
        <ele>643.6</ele>
        <time>2025-12-11T14:19:50Z</time>
      </trkpt>
      <trkpt lat="45.75075" lon="4.63896">
        <ele>643.8</ele>
        <time>2025-12-11T14:19:51Z</time>
      </trkpt>
      <trkpt lat="45.75076" lon="4.63895">
        <ele>644</ele>
        <time>2025-12-11T14:19:52Z</time>
      </trkpt>
      <trkpt lat="45.75078" lon="4.63895">
        <ele>644.2</ele>
        <time>2025-12-11T14:19:53Z</time>
      </trkpt>
      <trkpt lat="45.75079" lon="4.63895">
        <ele>644.2</ele>
        <time>2025-12-11T14:19:54Z</time>
      </trkpt>
      <trkpt lat="45.7508" lon="4.63894">
        <ele>644.4</ele>
        <time>2025-12-11T14:19:55Z</time>
      </trkpt>
      <trkpt lat="45.75081" lon="4.63894">
        <ele>644.6</ele>
        <time>2025-12-11T14:19:56Z</time>
      </trkpt>
      <trkpt lat="45.75082" lon="4.63894">
        <ele>644.8</ele>
        <time>2025-12-11T14:19:57Z</time>
      </trkpt>
      <trkpt lat="45.75083" lon="4.63893">
        <ele>644.8</ele>
        <time>2025-12-11T14:19:58Z</time>
      </trkpt>
      <trkpt lat="45.75084" lon="4.63892">
        <ele>645</ele>
        <time>2025-12-11T14:19:59Z</time>
      </trkpt>
      <trkpt lat="45.75085" lon="4.63892">
        <ele>645</ele>
        <time>2025-12-11T14:20:00Z</time>
      </trkpt>
      <trkpt lat="45.75086" lon="4.63891">
        <ele>645.2</ele>
        <time>2025-12-11T14:20:01Z</time>
      </trkpt>
      <trkpt lat="45.75086" lon="4.6389">
        <ele>645.4</ele>
        <time>2025-12-11T14:20:02Z</time>
      </trkpt>
      <trkpt lat="45.75087" lon="4.63889">
        <ele>645.4</ele>
        <time>2025-12-11T14:20:03Z</time>
      </trkpt>
      <trkpt lat="45.75088" lon="4.63888">
        <ele>645.6</ele>
        <time>2025-12-11T14:20:04Z</time>
      </trkpt>
      <trkpt lat="45.7509" lon="4.63887">
        <ele>645.8</ele>
        <time>2025-12-11T14:20:05Z</time>
      </trkpt>
      <trkpt lat="45.75091" lon="4.63886">
        <ele>645.8</ele>
        <time>2025-12-11T14:20:06Z</time>
      </trkpt>
      <trkpt lat="45.75091" lon="4.63885">
        <ele>646</ele>
        <time>2025-12-11T14:20:07Z</time>
      </trkpt>
      <trkpt lat="45.75092" lon="4.63885">
        <ele>646.2</ele>
        <time>2025-12-11T14:20:08Z</time>
      </trkpt>
      <trkpt lat="45.75093" lon="4.63884">
        <ele>646.4</ele>
        <time>2025-12-11T14:20:09Z</time>
      </trkpt>
      <trkpt lat="45.75094" lon="4.63883">
        <ele>646.6</ele>
        <time>2025-12-11T14:20:10Z</time>
      </trkpt>
      <trkpt lat="45.75095" lon="4.63882">
        <ele>647</ele>
        <time>2025-12-11T14:20:11Z</time>
      </trkpt>
      <trkpt lat="45.75096" lon="4.63881">
        <ele>647</ele>
        <time>2025-12-11T14:20:12Z</time>
      </trkpt>
      <trkpt lat="45.75096" lon="4.63881">
        <ele>647.2</ele>
        <time>2025-12-11T14:20:13Z</time>
      </trkpt>
      <trkpt lat="45.75097" lon="4.6388">
        <ele>647.4</ele>
        <time>2025-12-11T14:20:14Z</time>
      </trkpt>
      <trkpt lat="45.75098" lon="4.63879">
        <ele>647.6</ele>
        <time>2025-12-11T14:20:15Z</time>
      </trkpt>
      <trkpt lat="45.75099" lon="4.63878">
        <ele>647.6</ele>
        <time>2025-12-11T14:20:16Z</time>
      </trkpt>
      <trkpt lat="45.751" lon="4.63877">
        <ele>647.8</ele>
        <time>2025-12-11T14:20:17Z</time>
      </trkpt>
      <trkpt lat="45.75101" lon="4.63877">
        <ele>648</ele>
        <time>2025-12-11T14:20:18Z</time>
      </trkpt>
      <trkpt lat="45.75102" lon="4.63876">
        <ele>648.2</ele>
        <time>2025-12-11T14:20:19Z</time>
      </trkpt>
      <trkpt lat="45.75103" lon="4.63875">
        <ele>648.4</ele>
        <time>2025-12-11T14:20:20Z</time>
      </trkpt>
      <trkpt lat="45.75104" lon="4.63875">
        <ele>648.6</ele>
        <time>2025-12-11T14:20:21Z</time>
      </trkpt>
      <trkpt lat="45.75105" lon="4.63874">
        <ele>648.8</ele>
        <time>2025-12-11T14:20:22Z</time>
      </trkpt>
      <trkpt lat="45.75106" lon="4.63874">
        <ele>649</ele>
        <time>2025-12-11T14:20:23Z</time>
      </trkpt>
      <trkpt lat="45.75107" lon="4.63873">
        <ele>649</ele>
        <time>2025-12-11T14:20:24Z</time>
      </trkpt>
      <trkpt lat="45.75107" lon="4.63872">
        <ele>649.2</ele>
        <time>2025-12-11T14:20:25Z</time>
      </trkpt>
      <trkpt lat="45.75108" lon="4.63871">
        <ele>649.4</ele>
        <time>2025-12-11T14:20:26Z</time>
      </trkpt>
      <trkpt lat="45.7511" lon="4.6387">
        <ele>649.4</ele>
        <time>2025-12-11T14:20:27Z</time>
      </trkpt>
      <trkpt lat="45.75111" lon="4.63869">
        <ele>649.6</ele>
        <time>2025-12-11T14:20:28Z</time>
      </trkpt>
      <trkpt lat="45.75112" lon="4.63869">
        <ele>649.8</ele>
        <time>2025-12-11T14:20:29Z</time>
      </trkpt>
      <trkpt lat="45.75114" lon="4.63868">
        <ele>649.8</ele>
        <time>2025-12-11T14:20:30Z</time>
      </trkpt>
      <trkpt lat="45.75115" lon="4.63867">
        <ele>650</ele>
        <time>2025-12-11T14:20:31Z</time>
      </trkpt>
      <trkpt lat="45.75116" lon="4.63866">
        <ele>650.2</ele>
        <time>2025-12-11T14:20:32Z</time>
      </trkpt>
      <trkpt lat="45.75117" lon="4.63865">
        <ele>650.2</ele>
        <time>2025-12-11T14:20:33Z</time>
      </trkpt>
      <trkpt lat="45.75118" lon="4.63864">
        <ele>650.4</ele>
        <time>2025-12-11T14:20:34Z</time>
      </trkpt>
      <trkpt lat="45.75119" lon="4.63863">
        <ele>650.4</ele>
        <time>2025-12-11T14:20:35Z</time>
      </trkpt>
      <trkpt lat="45.75121" lon="4.63862">
        <ele>650.6</ele>
        <time>2025-12-11T14:20:36Z</time>
      </trkpt>
      <trkpt lat="45.75122" lon="4.63861">
        <ele>650.6</ele>
        <time>2025-12-11T14:20:37Z</time>
      </trkpt>
      <trkpt lat="45.75123" lon="4.6386">
        <ele>650.8</ele>
        <time>2025-12-11T14:20:38Z</time>
      </trkpt>
      <trkpt lat="45.75125" lon="4.63859">
        <ele>651</ele>
        <time>2025-12-11T14:20:39Z</time>
      </trkpt>
      <trkpt lat="45.75126" lon="4.63858">
        <ele>651</ele>
        <time>2025-12-11T14:20:40Z</time>
      </trkpt>
      <trkpt lat="45.75127" lon="4.63857">
        <ele>651.2</ele>
        <time>2025-12-11T14:20:41Z</time>
      </trkpt>
      <trkpt lat="45.75129" lon="4.63856">
        <ele>651.4</ele>
        <time>2025-12-11T14:20:42Z</time>
      </trkpt>
      <trkpt lat="45.7513" lon="4.63855">
        <ele>651.4</ele>
        <time>2025-12-11T14:20:43Z</time>
      </trkpt>
      <trkpt lat="45.75131" lon="4.63854">
        <ele>651.4</ele>
        <time>2025-12-11T14:20:44Z</time>
      </trkpt>
      <trkpt lat="45.75132" lon="4.63854">
        <ele>651.4</ele>
        <time>2025-12-11T14:20:45Z</time>
      </trkpt>
      <trkpt lat="45.75134" lon="4.63853">
        <ele>651.4</ele>
        <time>2025-12-11T14:20:46Z</time>
      </trkpt>
      <trkpt lat="45.75136" lon="4.63852">
        <ele>651.4</ele>
        <time>2025-12-11T14:20:47Z</time>
      </trkpt>
      <trkpt lat="45.75138" lon="4.63851">
        <ele>651.4</ele>
        <time>2025-12-11T14:20:48Z</time>
      </trkpt>
      <trkpt lat="45.75141" lon="4.6385">
        <ele>651.2</ele>
        <time>2025-12-11T14:20:49Z</time>
      </trkpt>
      <trkpt lat="45.75143" lon="4.63849">
        <ele>651</ele>
        <time>2025-12-11T14:20:50Z</time>
      </trkpt>
      <trkpt lat="45.75146" lon="4.63848">
        <ele>651</ele>
        <time>2025-12-11T14:20:51Z</time>
      </trkpt>
      <trkpt lat="45.75149" lon="4.63848">
        <ele>650.8</ele>
        <time>2025-12-11T14:20:52Z</time>
      </trkpt>
      <trkpt lat="45.75152" lon="4.63849">
        <ele>650.6</ele>
        <time>2025-12-11T14:20:53Z</time>
      </trkpt>
      <trkpt lat="45.75154" lon="4.63848">
        <ele>650.6</ele>
        <time>2025-12-11T14:20:54Z</time>
      </trkpt>
      <trkpt lat="45.75157" lon="4.63848">
        <ele>650.6</ele>
        <time>2025-12-11T14:20:55Z</time>
      </trkpt>
      <trkpt lat="45.75159" lon="4.63848">
        <ele>650.6</ele>
        <time>2025-12-11T14:20:56Z</time>
      </trkpt>
      <trkpt lat="45.75161" lon="4.63848">
        <ele>650.6</ele>
        <time>2025-12-11T14:20:57Z</time>
      </trkpt>
      <trkpt lat="45.75163" lon="4.63848">
        <ele>650.6</ele>
        <time>2025-12-11T14:20:58Z</time>
      </trkpt>
      <trkpt lat="45.75165" lon="4.63847">
        <ele>650.6</ele>
        <time>2025-12-11T14:20:59Z</time>
      </trkpt>
      <trkpt lat="45.75168" lon="4.63847">
        <ele>650.6</ele>
        <time>2025-12-11T14:21:00Z</time>
      </trkpt>
      <trkpt lat="45.75171" lon="4.63846">
        <ele>650.4</ele>
        <time>2025-12-11T14:21:01Z</time>
      </trkpt>
      <trkpt lat="45.75173" lon="4.63845">
        <ele>650.4</ele>
        <time>2025-12-11T14:21:02Z</time>
      </trkpt>
      <trkpt lat="45.75175" lon="4.63843">
        <ele>650.4</ele>
        <time>2025-12-11T14:21:03Z</time>
      </trkpt>
      <trkpt lat="45.75178" lon="4.63842">
        <ele>650.6</ele>
        <time>2025-12-11T14:21:04Z</time>
      </trkpt>
      <trkpt lat="45.75181" lon="4.63841">
        <ele>650.6</ele>
        <time>2025-12-11T14:21:05Z</time>
      </trkpt>
      <trkpt lat="45.75184" lon="4.63839">
        <ele>650.6</ele>
        <time>2025-12-11T14:21:06Z</time>
      </trkpt>
      <trkpt lat="45.75186" lon="4.63838">
        <ele>650.6</ele>
        <time>2025-12-11T14:21:07Z</time>
      </trkpt>
      <trkpt lat="45.75189" lon="4.63836">
        <ele>650.6</ele>
        <time>2025-12-11T14:21:08Z</time>
      </trkpt>
      <trkpt lat="45.75191" lon="4.63835">
        <ele>650.6</ele>
        <time>2025-12-11T14:21:09Z</time>
      </trkpt>
      <trkpt lat="45.75194" lon="4.63833">
        <ele>650.6</ele>
        <time>2025-12-11T14:21:10Z</time>
      </trkpt>
      <trkpt lat="45.75196" lon="4.63831">
        <ele>650.6</ele>
        <time>2025-12-11T14:21:11Z</time>
      </trkpt>
      <trkpt lat="45.75199" lon="4.63829">
        <ele>650.8</ele>
        <time>2025-12-11T14:21:12Z</time>
      </trkpt>
      <trkpt lat="45.75201" lon="4.63828">
        <ele>650.8</ele>
        <time>2025-12-11T14:21:13Z</time>
      </trkpt>
      <trkpt lat="45.75203" lon="4.63826">
        <ele>650.8</ele>
        <time>2025-12-11T14:21:14Z</time>
      </trkpt>
      <trkpt lat="45.75205" lon="4.63824">
        <ele>650.8</ele>
        <time>2025-12-11T14:21:15Z</time>
      </trkpt>
      <trkpt lat="45.75208" lon="4.63822">
        <ele>651</ele>
        <time>2025-12-11T14:21:16Z</time>
      </trkpt>
      <trkpt lat="45.7521" lon="4.6382">
        <ele>651</ele>
        <time>2025-12-11T14:21:17Z</time>
      </trkpt>
      <trkpt lat="45.75212" lon="4.63818">
        <ele>651.2</ele>
        <time>2025-12-11T14:21:18Z</time>
      </trkpt>
      <trkpt lat="45.75214" lon="4.63816">
        <ele>651.2</ele>
        <time>2025-12-11T14:21:19Z</time>
      </trkpt>
      <trkpt lat="45.75216" lon="4.63814">
        <ele>651.4</ele>
        <time>2025-12-11T14:21:20Z</time>
      </trkpt>
      <trkpt lat="45.75218" lon="4.63812">
        <ele>651.6</ele>
        <time>2025-12-11T14:21:21Z</time>
      </trkpt>
      <trkpt lat="45.7522" lon="4.6381">
        <ele>651.8</ele>
        <time>2025-12-11T14:21:22Z</time>
      </trkpt>
      <trkpt lat="45.75221" lon="4.63807">
        <ele>651.8</ele>
        <time>2025-12-11T14:21:23Z</time>
      </trkpt>
      <trkpt lat="45.75223" lon="4.63805">
        <ele>652</ele>
        <time>2025-12-11T14:21:24Z</time>
      </trkpt>
      <trkpt lat="45.75224" lon="4.63802">
        <ele>652.2</ele>
        <time>2025-12-11T14:21:25Z</time>
      </trkpt>
      <trkpt lat="45.75226" lon="4.638">
        <ele>652.4</ele>
        <time>2025-12-11T14:21:26Z</time>
      </trkpt>
      <trkpt lat="45.75227" lon="4.63797">
        <ele>652.4</ele>
        <time>2025-12-11T14:21:27Z</time>
      </trkpt>
      <trkpt lat="45.75228" lon="4.63795">
        <ele>652.6</ele>
        <time>2025-12-11T14:21:28Z</time>
      </trkpt>
      <trkpt lat="45.75229" lon="4.63793">
        <ele>652.8</ele>
        <time>2025-12-11T14:21:29Z</time>
      </trkpt>
      <trkpt lat="45.7523" lon="4.63791">
        <ele>653</ele>
        <time>2025-12-11T14:21:30Z</time>
      </trkpt>
      <trkpt lat="45.75231" lon="4.63789">
        <ele>653.2</ele>
        <time>2025-12-11T14:21:31Z</time>
      </trkpt>
      <trkpt lat="45.75233" lon="4.63787">
        <ele>653.2</ele>
        <time>2025-12-11T14:21:32Z</time>
      </trkpt>
      <trkpt lat="45.75234" lon="4.63784">
        <ele>653.4</ele>
        <time>2025-12-11T14:21:33Z</time>
      </trkpt>
      <trkpt lat="45.75236" lon="4.63781">
        <ele>653.4</ele>
        <time>2025-12-11T14:21:34Z</time>
      </trkpt>
      <trkpt lat="45.75237" lon="4.63779">
        <ele>653.6</ele>
        <time>2025-12-11T14:21:35Z</time>
      </trkpt>
      <trkpt lat="45.75238" lon="4.63776">
        <ele>653.6</ele>
        <time>2025-12-11T14:21:36Z</time>
      </trkpt>
      <trkpt lat="45.7524" lon="4.63773">
        <ele>653.6</ele>
        <time>2025-12-11T14:21:37Z</time>
      </trkpt>
      <trkpt lat="45.75241" lon="4.6377">
        <ele>653.6</ele>
        <time>2025-12-11T14:21:38Z</time>
      </trkpt>
      <trkpt lat="45.75243" lon="4.63767">
        <ele>653.6</ele>
        <time>2025-12-11T14:21:39Z</time>
      </trkpt>
      <trkpt lat="45.75245" lon="4.63764">
        <ele>653.6</ele>
        <time>2025-12-11T14:21:40Z</time>
      </trkpt>
      <trkpt lat="45.75246" lon="4.63762">
        <ele>653.6</ele>
        <time>2025-12-11T14:21:41Z</time>
      </trkpt>
      <trkpt lat="45.75248" lon="4.63759">
        <ele>653.6</ele>
        <time>2025-12-11T14:21:42Z</time>
      </trkpt>
      <trkpt lat="45.7525" lon="4.63756">
        <ele>653.6</ele>
        <time>2025-12-11T14:21:43Z</time>
      </trkpt>
      <trkpt lat="45.75251" lon="4.63753">
        <ele>653.6</ele>
        <time>2025-12-11T14:21:44Z</time>
      </trkpt>
      <trkpt lat="45.75253" lon="4.63749">
        <ele>653.6</ele>
        <time>2025-12-11T14:21:45Z</time>
      </trkpt>
      <trkpt lat="45.75255" lon="4.63746">
        <ele>653.6</ele>
        <time>2025-12-11T14:21:46Z</time>
      </trkpt>
      <trkpt lat="45.75256" lon="4.63743">
        <ele>653.8</ele>
        <time>2025-12-11T14:21:47Z</time>
      </trkpt>
      <trkpt lat="45.75258" lon="4.6374">
        <ele>653.8</ele>
        <time>2025-12-11T14:21:48Z</time>
      </trkpt>
      <trkpt lat="45.7526" lon="4.63736">
        <ele>654</ele>
        <time>2025-12-11T14:21:49Z</time>
      </trkpt>
      <trkpt lat="45.75262" lon="4.63733">
        <ele>654</ele>
        <time>2025-12-11T14:21:50Z</time>
      </trkpt>
      <trkpt lat="45.75263" lon="4.63729">
        <ele>654</ele>
        <time>2025-12-11T14:21:51Z</time>
      </trkpt>
      <trkpt lat="45.75265" lon="4.63726">
        <ele>654.2</ele>
        <time>2025-12-11T14:21:52Z</time>
      </trkpt>
      <trkpt lat="45.75267" lon="4.63723">
        <ele>654.2</ele>
        <time>2025-12-11T14:21:53Z</time>
      </trkpt>
      <trkpt lat="45.75267" lon="4.6372">
        <ele>654.4</ele>
        <time>2025-12-11T14:21:54Z</time>
      </trkpt>
      <trkpt lat="45.75268" lon="4.63716">
        <ele>654.4</ele>
        <time>2025-12-11T14:21:55Z</time>
      </trkpt>
      <trkpt lat="45.75269" lon="4.63713">
        <ele>654.6</ele>
        <time>2025-12-11T14:21:56Z</time>
      </trkpt>
      <trkpt lat="45.7527" lon="4.6371">
        <ele>654.8</ele>
        <time>2025-12-11T14:21:57Z</time>
      </trkpt>
      <trkpt lat="45.7527" lon="4.63707">
        <ele>655</ele>
        <time>2025-12-11T14:21:58Z</time>
      </trkpt>
      <trkpt lat="45.7527" lon="4.63704">
        <ele>655</ele>
        <time>2025-12-11T14:21:59Z</time>
      </trkpt>
      <trkpt lat="45.75271" lon="4.63701">
        <ele>655.2</ele>
        <time>2025-12-11T14:22:00Z</time>
      </trkpt>
      <trkpt lat="45.75271" lon="4.63698">
        <ele>655.4</ele>
        <time>2025-12-11T14:22:01Z</time>
      </trkpt>
      <trkpt lat="45.75271" lon="4.63696">
        <ele>655.6</ele>
        <time>2025-12-11T14:22:02Z</time>
      </trkpt>
      <trkpt lat="45.75271" lon="4.63693">
        <ele>655.8</ele>
        <time>2025-12-11T14:22:03Z</time>
      </trkpt>
      <trkpt lat="45.75271" lon="4.63691">
        <ele>656</ele>
        <time>2025-12-11T14:22:04Z</time>
      </trkpt>
      <trkpt lat="45.75272" lon="4.63689">
        <ele>656.2</ele>
        <time>2025-12-11T14:22:05Z</time>
      </trkpt>
      <trkpt lat="45.75272" lon="4.63687">
        <ele>656.4</ele>
        <time>2025-12-11T14:22:06Z</time>
      </trkpt>
      <trkpt lat="45.75271" lon="4.63685">
        <ele>656.4</ele>
        <time>2025-12-11T14:22:07Z</time>
      </trkpt>
      <trkpt lat="45.75271" lon="4.63683">
        <ele>656.6</ele>
        <time>2025-12-11T14:22:08Z</time>
      </trkpt>
      <trkpt lat="45.75271" lon="4.63681">
        <ele>656.8</ele>
        <time>2025-12-11T14:22:09Z</time>
      </trkpt>
      <trkpt lat="45.75271" lon="4.63679">
        <ele>657</ele>
        <time>2025-12-11T14:22:10Z</time>
      </trkpt>
      <trkpt lat="45.75272" lon="4.63677">
        <ele>657.2</ele>
        <time>2025-12-11T14:22:11Z</time>
      </trkpt>
      <trkpt lat="45.75272" lon="4.63675">
        <ele>657.4</ele>
        <time>2025-12-11T14:22:12Z</time>
      </trkpt>
      <trkpt lat="45.75272" lon="4.63673">
        <ele>657.6</ele>
        <time>2025-12-11T14:22:13Z</time>
      </trkpt>
      <trkpt lat="45.75272" lon="4.63671">
        <ele>657.6</ele>
        <time>2025-12-11T14:22:14Z</time>
      </trkpt>
      <trkpt lat="45.75272" lon="4.6367">
        <ele>657.8</ele>
        <time>2025-12-11T14:22:15Z</time>
      </trkpt>
      <trkpt lat="45.75271" lon="4.63669">
        <ele>658</ele>
        <time>2025-12-11T14:22:16Z</time>
      </trkpt>
      <trkpt lat="45.75271" lon="4.63667">
        <ele>658</ele>
        <time>2025-12-11T14:22:17Z</time>
      </trkpt>
      <trkpt lat="45.7527" lon="4.63665">
        <ele>658.2</ele>
        <time>2025-12-11T14:22:18Z</time>
      </trkpt>
      <trkpt lat="45.75269" lon="4.63663">
        <ele>658.4</ele>
        <time>2025-12-11T14:22:19Z</time>
      </trkpt>
      <trkpt lat="45.75268" lon="4.63661">
        <ele>658.6</ele>
        <time>2025-12-11T14:22:20Z</time>
      </trkpt>
      <trkpt lat="45.75268" lon="4.6366">
        <ele>658.8</ele>
        <time>2025-12-11T14:22:21Z</time>
      </trkpt>
      <trkpt lat="45.75267" lon="4.63658">
        <ele>659</ele>
        <time>2025-12-11T14:22:22Z</time>
      </trkpt>
      <trkpt lat="45.75267" lon="4.63657">
        <ele>659.4</ele>
        <time>2025-12-11T14:22:23Z</time>
      </trkpt>
      <trkpt lat="45.75267" lon="4.63655">
        <ele>659.6</ele>
        <time>2025-12-11T14:22:24Z</time>
      </trkpt>
      <trkpt lat="45.75267" lon="4.63653">
        <ele>659.8</ele>
        <time>2025-12-11T14:22:25Z</time>
      </trkpt>
      <trkpt lat="45.75266" lon="4.63652">
        <ele>660</ele>
        <time>2025-12-11T14:22:26Z</time>
      </trkpt>
      <trkpt lat="45.75266" lon="4.63651">
        <ele>660</ele>
        <time>2025-12-11T14:22:27Z</time>
      </trkpt>
      <trkpt lat="45.75266" lon="4.63649">
        <ele>660.2</ele>
        <time>2025-12-11T14:22:28Z</time>
      </trkpt>
      <trkpt lat="45.75266" lon="4.63647">
        <ele>660.4</ele>
        <time>2025-12-11T14:22:29Z</time>
      </trkpt>
      <trkpt lat="45.75266" lon="4.63646">
        <ele>660.6</ele>
        <time>2025-12-11T14:22:30Z</time>
      </trkpt>
      <trkpt lat="45.75265" lon="4.63644">
        <ele>660.8</ele>
        <time>2025-12-11T14:22:31Z</time>
      </trkpt>
      <trkpt lat="45.75265" lon="4.63642">
        <ele>660.8</ele>
        <time>2025-12-11T14:22:32Z</time>
      </trkpt>
      <trkpt lat="45.75264" lon="4.63641">
        <ele>661</ele>
        <time>2025-12-11T14:22:33Z</time>
      </trkpt>
      <trkpt lat="45.75264" lon="4.63639">
        <ele>661.2</ele>
        <time>2025-12-11T14:22:34Z</time>
      </trkpt>
      <trkpt lat="45.75263" lon="4.63637">
        <ele>661.4</ele>
        <time>2025-12-11T14:22:35Z</time>
      </trkpt>
      <trkpt lat="45.75263" lon="4.63636">
        <ele>661.6</ele>
        <time>2025-12-11T14:22:36Z</time>
      </trkpt>
      <trkpt lat="45.75262" lon="4.63634">
        <ele>661.6</ele>
        <time>2025-12-11T14:22:37Z</time>
      </trkpt>
      <trkpt lat="45.75262" lon="4.63632">
        <ele>661.8</ele>
        <time>2025-12-11T14:22:38Z</time>
      </trkpt>
      <trkpt lat="45.75261" lon="4.63631">
        <ele>662</ele>
        <time>2025-12-11T14:22:39Z</time>
      </trkpt>
      <trkpt lat="45.75261" lon="4.6363">
        <ele>662</ele>
        <time>2025-12-11T14:22:40Z</time>
      </trkpt>
      <trkpt lat="45.75261" lon="4.63628">
        <ele>662.2</ele>
        <time>2025-12-11T14:22:41Z</time>
      </trkpt>
      <trkpt lat="45.75261" lon="4.63626">
        <ele>662.4</ele>
        <time>2025-12-11T14:22:42Z</time>
      </trkpt>
      <trkpt lat="45.7526" lon="4.63624">
        <ele>662.4</ele>
        <time>2025-12-11T14:22:43Z</time>
      </trkpt>
      <trkpt lat="45.7526" lon="4.63623">
        <ele>662.4</ele>
        <time>2025-12-11T14:22:44Z</time>
      </trkpt>
      <trkpt lat="45.7526" lon="4.63621">
        <ele>662.6</ele>
        <time>2025-12-11T14:22:45Z</time>
      </trkpt>
      <trkpt lat="45.75259" lon="4.6362">
        <ele>662.8</ele>
        <time>2025-12-11T14:22:46Z</time>
      </trkpt>
      <trkpt lat="45.75259" lon="4.63618">
        <ele>662.8</ele>
        <time>2025-12-11T14:22:47Z</time>
      </trkpt>
      <trkpt lat="45.75259" lon="4.63615">
        <ele>663</ele>
        <time>2025-12-11T14:22:48Z</time>
      </trkpt>
      <trkpt lat="45.75259" lon="4.63613">
        <ele>663</ele>
        <time>2025-12-11T14:22:49Z</time>
      </trkpt>
      <trkpt lat="45.75259" lon="4.63611">
        <ele>663.2</ele>
        <time>2025-12-11T14:22:50Z</time>
      </trkpt>
      <trkpt lat="45.75259" lon="4.63608">
        <ele>663.2</ele>
        <time>2025-12-11T14:22:51Z</time>
      </trkpt>
      <trkpt lat="45.75259" lon="4.63606">
        <ele>663.4</ele>
        <time>2025-12-11T14:22:52Z</time>
      </trkpt>
      <trkpt lat="45.75259" lon="4.63604">
        <ele>663.6</ele>
        <time>2025-12-11T14:22:53Z</time>
      </trkpt>
      <trkpt lat="45.75259" lon="4.63602">
        <ele>663.6</ele>
        <time>2025-12-11T14:22:54Z</time>
      </trkpt>
      <trkpt lat="45.75258" lon="4.63601">
        <ele>663.8</ele>
        <time>2025-12-11T14:22:55Z</time>
      </trkpt>
      <trkpt lat="45.75258" lon="4.63599">
        <ele>664</ele>
        <time>2025-12-11T14:22:56Z</time>
      </trkpt>
      <trkpt lat="45.75258" lon="4.63597">
        <ele>664</ele>
        <time>2025-12-11T14:22:57Z</time>
      </trkpt>
      <trkpt lat="45.75258" lon="4.63595">
        <ele>664.2</ele>
        <time>2025-12-11T14:22:58Z</time>
      </trkpt>
      <trkpt lat="45.75258" lon="4.63593">
        <ele>664.4</ele>
        <time>2025-12-11T14:22:59Z</time>
      </trkpt>
      <trkpt lat="45.75257" lon="4.6359">
        <ele>664.4</ele>
        <time>2025-12-11T14:23:00Z</time>
      </trkpt>
      <trkpt lat="45.75257" lon="4.63588">
        <ele>664.6</ele>
        <time>2025-12-11T14:23:01Z</time>
      </trkpt>
      <trkpt lat="45.75257" lon="4.63587">
        <ele>664.6</ele>
        <time>2025-12-11T14:23:02Z</time>
      </trkpt>
      <trkpt lat="45.75257" lon="4.63585">
        <ele>664.8</ele>
        <time>2025-12-11T14:23:03Z</time>
      </trkpt>
      <trkpt lat="45.75257" lon="4.63583">
        <ele>665</ele>
        <time>2025-12-11T14:23:04Z</time>
      </trkpt>
      <trkpt lat="45.75257" lon="4.63582">
        <ele>665.2</ele>
        <time>2025-12-11T14:23:05Z</time>
      </trkpt>
      <trkpt lat="45.75256" lon="4.63581">
        <ele>665.2</ele>
        <time>2025-12-11T14:23:06Z</time>
      </trkpt>
      <trkpt lat="45.75256" lon="4.6358">
        <ele>665.4</ele>
        <time>2025-12-11T14:23:07Z</time>
      </trkpt>
      <trkpt lat="45.75256" lon="4.63579">
        <ele>665.6</ele>
        <time>2025-12-11T14:23:08Z</time>
      </trkpt>
      <trkpt lat="45.75256" lon="4.63577">
        <ele>665.6</ele>
        <time>2025-12-11T14:23:09Z</time>
      </trkpt>
      <trkpt lat="45.75256" lon="4.63576">
        <ele>665.8</ele>
        <time>2025-12-11T14:23:10Z</time>
      </trkpt>
      <trkpt lat="45.75255" lon="4.63575">
        <ele>666</ele>
        <time>2025-12-11T14:23:11Z</time>
      </trkpt>
      <trkpt lat="45.75255" lon="4.63574">
        <ele>666</ele>
        <time>2025-12-11T14:23:12Z</time>
      </trkpt>
      <trkpt lat="45.75254" lon="4.63573">
        <ele>666.2</ele>
        <time>2025-12-11T14:23:13Z</time>
      </trkpt>
      <trkpt lat="45.75254" lon="4.63571">
        <ele>666.4</ele>
        <time>2025-12-11T14:23:14Z</time>
      </trkpt>
      <trkpt lat="45.75254" lon="4.6357">
        <ele>666.6</ele>
        <time>2025-12-11T14:23:15Z</time>
      </trkpt>
      <trkpt lat="45.75254" lon="4.63568">
        <ele>666.6</ele>
        <time>2025-12-11T14:23:16Z</time>
      </trkpt>
      <trkpt lat="45.75253" lon="4.63568">
        <ele>666.8</ele>
        <time>2025-12-11T14:23:17Z</time>
      </trkpt>
      <trkpt lat="45.75253" lon="4.63567">
        <ele>667</ele>
        <time>2025-12-11T14:23:18Z</time>
      </trkpt>
      <trkpt lat="45.75253" lon="4.63566">
        <ele>667</ele>
        <time>2025-12-11T14:23:19Z</time>
      </trkpt>
      <trkpt lat="45.75253" lon="4.63564">
        <ele>667.2</ele>
        <time>2025-12-11T14:23:20Z</time>
      </trkpt>
      <trkpt lat="45.75253" lon="4.63562">
        <ele>667.2</ele>
        <time>2025-12-11T14:23:21Z</time>
      </trkpt>
      <trkpt lat="45.75253" lon="4.6356">
        <ele>667.4</ele>
        <time>2025-12-11T14:23:22Z</time>
      </trkpt>
      <trkpt lat="45.75253" lon="4.63559">
        <ele>667.6</ele>
        <time>2025-12-11T14:23:23Z</time>
      </trkpt>
      <trkpt lat="45.75252" lon="4.63557">
        <ele>667.8</ele>
        <time>2025-12-11T14:23:24Z</time>
      </trkpt>
      <trkpt lat="45.75252" lon="4.63556">
        <ele>667.8</ele>
        <time>2025-12-11T14:23:25Z</time>
      </trkpt>
      <trkpt lat="45.75252" lon="4.63554">
        <ele>668</ele>
        <time>2025-12-11T14:23:26Z</time>
      </trkpt>
      <trkpt lat="45.75252" lon="4.63552">
        <ele>668.2</ele>
        <time>2025-12-11T14:23:27Z</time>
      </trkpt>
      <trkpt lat="45.75252" lon="4.63551">
        <ele>668.4</ele>
        <time>2025-12-11T14:23:28Z</time>
      </trkpt>
      <trkpt lat="45.75251" lon="4.63549">
        <ele>668.6</ele>
        <time>2025-12-11T14:23:29Z</time>
      </trkpt>
      <trkpt lat="45.75251" lon="4.63548">
        <ele>668.8</ele>
        <time>2025-12-11T14:23:30Z</time>
      </trkpt>
      <trkpt lat="45.7525" lon="4.63547">
        <ele>669</ele>
        <time>2025-12-11T14:23:31Z</time>
      </trkpt>
      <trkpt lat="45.7525" lon="4.63545">
        <ele>669.2</ele>
        <time>2025-12-11T14:23:32Z</time>
      </trkpt>
      <trkpt lat="45.7525" lon="4.63543">
        <ele>669.4</ele>
        <time>2025-12-11T14:23:33Z</time>
      </trkpt>
      <trkpt lat="45.7525" lon="4.63542">
        <ele>669.6</ele>
        <time>2025-12-11T14:23:34Z</time>
      </trkpt>
      <trkpt lat="45.7525" lon="4.6354">
        <ele>669.6</ele>
        <time>2025-12-11T14:23:35Z</time>
      </trkpt>
      <trkpt lat="45.7525" lon="4.63538">
        <ele>669.8</ele>
        <time>2025-12-11T14:23:36Z</time>
      </trkpt>
      <trkpt lat="45.75249" lon="4.63537">
        <ele>670</ele>
        <time>2025-12-11T14:23:37Z</time>
      </trkpt>
      <trkpt lat="45.75249" lon="4.63535">
        <ele>670.2</ele>
        <time>2025-12-11T14:23:38Z</time>
      </trkpt>
      <trkpt lat="45.75249" lon="4.63534">
        <ele>670.4</ele>
        <time>2025-12-11T14:23:39Z</time>
      </trkpt>
      <trkpt lat="45.75249" lon="4.63533">
        <ele>670.4</ele>
        <time>2025-12-11T14:23:40Z</time>
      </trkpt>
      <trkpt lat="45.75249" lon="4.63532">
        <ele>670.6</ele>
        <time>2025-12-11T14:23:41Z</time>
      </trkpt>
      <trkpt lat="45.7525" lon="4.63531">
        <ele>670.8</ele>
        <time>2025-12-11T14:23:42Z</time>
      </trkpt>
      <trkpt lat="45.7525" lon="4.63531">
        <ele>671</ele>
        <time>2025-12-11T14:23:43Z</time>
      </trkpt>
      <trkpt lat="45.7525" lon="4.63531">
        <ele>671</ele>
        <time>2025-12-11T14:23:44Z</time>
      </trkpt>
      <trkpt lat="45.7525" lon="4.63531">
        <ele>671.2</ele>
        <time>2025-12-11T14:23:45Z</time>
      </trkpt>
      <trkpt lat="45.7525" lon="4.63531">
        <ele>671.2</ele>
        <time>2025-12-11T14:23:46Z</time>
      </trkpt>
      <trkpt lat="45.7525" lon="4.63531">
        <ele>671.2</ele>
        <time>2025-12-11T14:23:47Z</time>
      </trkpt>
      <trkpt lat="45.7525" lon="4.63531">
        <ele>671.2</ele>
        <time>2025-12-11T14:23:48Z</time>
      </trkpt>
      <trkpt lat="45.7525" lon="4.63531">
        <ele>671.2</ele>
        <time>2025-12-11T14:23:49Z</time>
      </trkpt>
      <trkpt lat="45.75249" lon="4.63531">
        <ele>671.2</ele>
        <time>2025-12-11T14:23:50Z</time>
      </trkpt>
      <trkpt lat="45.75249" lon="4.63529">
        <ele>671.2</ele>
        <time>2025-12-11T14:23:51Z</time>
      </trkpt>
      <trkpt lat="45.75249" lon="4.63528">
        <ele>671.2</ele>
        <time>2025-12-11T14:23:52Z</time>
      </trkpt>
      <trkpt lat="45.75248" lon="4.63526">
        <ele>671.2</ele>
        <time>2025-12-11T14:23:53Z</time>
      </trkpt>
      <trkpt lat="45.75248" lon="4.63524">
        <ele>671.4</ele>
        <time>2025-12-11T14:23:54Z</time>
      </trkpt>
      <trkpt lat="45.75248" lon="4.63522">
        <ele>671.6</ele>
        <time>2025-12-11T14:23:55Z</time>
      </trkpt>
      <trkpt lat="45.75248" lon="4.63519">
        <ele>671.8</ele>
        <time>2025-12-11T14:23:56Z</time>
      </trkpt>
      <trkpt lat="45.75247" lon="4.63517">
        <ele>672</ele>
        <time>2025-12-11T14:23:57Z</time>
      </trkpt>
      <trkpt lat="45.75247" lon="4.63515">
        <ele>672</ele>
        <time>2025-12-11T14:23:58Z</time>
      </trkpt>
      <trkpt lat="45.75247" lon="4.63513">
        <ele>672.2</ele>
        <time>2025-12-11T14:23:59Z</time>
      </trkpt>
      <trkpt lat="45.75247" lon="4.63511">
        <ele>672.4</ele>
        <time>2025-12-11T14:24:00Z</time>
      </trkpt>
      <trkpt lat="45.75247" lon="4.63509">
        <ele>672.6</ele>
        <time>2025-12-11T14:24:01Z</time>
      </trkpt>
      <trkpt lat="45.75246" lon="4.63507">
        <ele>672.6</ele>
        <time>2025-12-11T14:24:02Z</time>
      </trkpt>
      <trkpt lat="45.75246" lon="4.63506">
        <ele>672.8</ele>
        <time>2025-12-11T14:24:03Z</time>
      </trkpt>
      <trkpt lat="45.75246" lon="4.63504">
        <ele>673</ele>
        <time>2025-12-11T14:24:04Z</time>
      </trkpt>
      <trkpt lat="45.75247" lon="4.63503">
        <ele>673.2</ele>
        <time>2025-12-11T14:24:05Z</time>
      </trkpt>
      <trkpt lat="45.75246" lon="4.63501">
        <ele>673.4</ele>
        <time>2025-12-11T14:24:06Z</time>
      </trkpt>
      <trkpt lat="45.75246" lon="4.63499">
        <ele>673.6</ele>
        <time>2025-12-11T14:24:07Z</time>
      </trkpt>
      <trkpt lat="45.75246" lon="4.63498">
        <ele>673.6</ele>
        <time>2025-12-11T14:24:08Z</time>
      </trkpt>
      <trkpt lat="45.75246" lon="4.63496">
        <ele>673.8</ele>
        <time>2025-12-11T14:24:09Z</time>
      </trkpt>
      <trkpt lat="45.75245" lon="4.63494">
        <ele>674</ele>
        <time>2025-12-11T14:24:10Z</time>
      </trkpt>
      <trkpt lat="45.75245" lon="4.63492">
        <ele>674.2</ele>
        <time>2025-12-11T14:24:11Z</time>
      </trkpt>
      <trkpt lat="45.75245" lon="4.63491">
        <ele>674.4</ele>
        <time>2025-12-11T14:24:12Z</time>
      </trkpt>
      <trkpt lat="45.75245" lon="4.63489">
        <ele>674.6</ele>
        <time>2025-12-11T14:24:13Z</time>
      </trkpt>
      <trkpt lat="45.75245" lon="4.63488">
        <ele>674.8</ele>
        <time>2025-12-11T14:24:14Z</time>
      </trkpt>
      <trkpt lat="45.75245" lon="4.63486">
        <ele>674.8</ele>
        <time>2025-12-11T14:24:15Z</time>
      </trkpt>
      <trkpt lat="45.75245" lon="4.63485">
        <ele>675</ele>
        <time>2025-12-11T14:24:16Z</time>
      </trkpt>
      <trkpt lat="45.75245" lon="4.63483">
        <ele>675.2</ele>
        <time>2025-12-11T14:24:17Z</time>
      </trkpt>
      <trkpt lat="45.75245" lon="4.63482">
        <ele>675.2</ele>
        <time>2025-12-11T14:24:18Z</time>
      </trkpt>
      <trkpt lat="45.75245" lon="4.63481">
        <ele>675.4</ele>
        <time>2025-12-11T14:24:19Z</time>
      </trkpt>
      <trkpt lat="45.75245" lon="4.63479">
        <ele>675.6</ele>
        <time>2025-12-11T14:24:20Z</time>
      </trkpt>
      <trkpt lat="45.75244" lon="4.63477">
        <ele>675.6</ele>
        <time>2025-12-11T14:24:21Z</time>
      </trkpt>
      <trkpt lat="45.75244" lon="4.63476">
        <ele>675.8</ele>
        <time>2025-12-11T14:24:22Z</time>
      </trkpt>
      <trkpt lat="45.75244" lon="4.63474">
        <ele>676</ele>
        <time>2025-12-11T14:24:23Z</time>
      </trkpt>
      <trkpt lat="45.75244" lon="4.63473">
        <ele>676</ele>
        <time>2025-12-11T14:24:24Z</time>
      </trkpt>
      <trkpt lat="45.75244" lon="4.63471">
        <ele>676.2</ele>
        <time>2025-12-11T14:24:25Z</time>
      </trkpt>
      <trkpt lat="45.75244" lon="4.63469">
        <ele>676.4</ele>
        <time>2025-12-11T14:24:26Z</time>
      </trkpt>
      <trkpt lat="45.75244" lon="4.63467">
        <ele>676.6</ele>
        <time>2025-12-11T14:24:27Z</time>
      </trkpt>
      <trkpt lat="45.75244" lon="4.63466">
        <ele>676.8</ele>
        <time>2025-12-11T14:24:28Z</time>
      </trkpt>
      <trkpt lat="45.75244" lon="4.63464">
        <ele>676.8</ele>
        <time>2025-12-11T14:24:29Z</time>
      </trkpt>
      <trkpt lat="45.75243" lon="4.63462">
        <ele>677</ele>
        <time>2025-12-11T14:24:30Z</time>
      </trkpt>
      <trkpt lat="45.75243" lon="4.6346">
        <ele>677.2</ele>
        <time>2025-12-11T14:24:31Z</time>
      </trkpt>
      <trkpt lat="45.75243" lon="4.63458">
        <ele>677.4</ele>
        <time>2025-12-11T14:24:32Z</time>
      </trkpt>
      <trkpt lat="45.75244" lon="4.63456">
        <ele>677.6</ele>
        <time>2025-12-11T14:24:33Z</time>
      </trkpt>
      <trkpt lat="45.75244" lon="4.63454">
        <ele>677.6</ele>
        <time>2025-12-11T14:24:34Z</time>
      </trkpt>
      <trkpt lat="45.75244" lon="4.63452">
        <ele>677.8</ele>
        <time>2025-12-11T14:24:35Z</time>
      </trkpt>
      <trkpt lat="45.75244" lon="4.6345">
        <ele>678</ele>
        <time>2025-12-11T14:24:36Z</time>
      </trkpt>
      <trkpt lat="45.75245" lon="4.63449">
        <ele>678</ele>
        <time>2025-12-11T14:24:37Z</time>
      </trkpt>
      <trkpt lat="45.75245" lon="4.63447">
        <ele>678.2</ele>
        <time>2025-12-11T14:24:38Z</time>
      </trkpt>
      <trkpt lat="45.75245" lon="4.63446">
        <ele>678.4</ele>
        <time>2025-12-11T14:24:39Z</time>
      </trkpt>
      <trkpt lat="45.75244" lon="4.63444">
        <ele>678.6</ele>
        <time>2025-12-11T14:24:40Z</time>
      </trkpt>
      <trkpt lat="45.75245" lon="4.63442">
        <ele>678.8</ele>
        <time>2025-12-11T14:24:41Z</time>
      </trkpt>
      <trkpt lat="45.75245" lon="4.6344">
        <ele>679</ele>
        <time>2025-12-11T14:24:42Z</time>
      </trkpt>
      <trkpt lat="45.75245" lon="4.63439">
        <ele>679</ele>
        <time>2025-12-11T14:24:43Z</time>
      </trkpt>
      <trkpt lat="45.75246" lon="4.63437">
        <ele>679.2</ele>
        <time>2025-12-11T14:24:44Z</time>
      </trkpt>
      <trkpt lat="45.75245" lon="4.63435">
        <ele>679.4</ele>
        <time>2025-12-11T14:24:45Z</time>
      </trkpt>
      <trkpt lat="45.75245" lon="4.63433">
        <ele>679.6</ele>
        <time>2025-12-11T14:24:46Z</time>
      </trkpt>
      <trkpt lat="45.75246" lon="4.63431">
        <ele>679.6</ele>
        <time>2025-12-11T14:24:47Z</time>
      </trkpt>
      <trkpt lat="45.75246" lon="4.63429">
        <ele>679.8</ele>
        <time>2025-12-11T14:24:48Z</time>
      </trkpt>
      <trkpt lat="45.75246" lon="4.63428">
        <ele>680</ele>
        <time>2025-12-11T14:24:49Z</time>
      </trkpt>
      <trkpt lat="45.75246" lon="4.63426">
        <ele>680.2</ele>
        <time>2025-12-11T14:24:50Z</time>
      </trkpt>
      <trkpt lat="45.75246" lon="4.63424">
        <ele>680.2</ele>
        <time>2025-12-11T14:24:51Z</time>
      </trkpt>
      <trkpt lat="45.75246" lon="4.63421">
        <ele>680.4</ele>
        <time>2025-12-11T14:24:52Z</time>
      </trkpt>
      <trkpt lat="45.75246" lon="4.63419">
        <ele>680.4</ele>
        <time>2025-12-11T14:24:53Z</time>
      </trkpt>
      <trkpt lat="45.75247" lon="4.63418">
        <ele>680.6</ele>
        <time>2025-12-11T14:24:54Z</time>
      </trkpt>
      <trkpt lat="45.75247" lon="4.63415">
        <ele>680.6</ele>
        <time>2025-12-11T14:24:55Z</time>
      </trkpt>
      <trkpt lat="45.75247" lon="4.63413">
        <ele>680.8</ele>
        <time>2025-12-11T14:24:56Z</time>
      </trkpt>
      <trkpt lat="45.75248" lon="4.63412">
        <ele>680.8</ele>
        <time>2025-12-11T14:24:57Z</time>
      </trkpt>
      <trkpt lat="45.75249" lon="4.6341">
        <ele>681</ele>
        <time>2025-12-11T14:24:58Z</time>
      </trkpt>
      <trkpt lat="45.7525" lon="4.63409">
        <ele>681.2</ele>
        <time>2025-12-11T14:24:59Z</time>
      </trkpt>
      <trkpt lat="45.75251" lon="4.63407">
        <ele>681.2</ele>
        <time>2025-12-11T14:25:00Z</time>
      </trkpt>
      <trkpt lat="45.75252" lon="4.63406">
        <ele>681.4</ele>
        <time>2025-12-11T14:25:01Z</time>
      </trkpt>
      <trkpt lat="45.75253" lon="4.63404">
        <ele>681.6</ele>
        <time>2025-12-11T14:25:02Z</time>
      </trkpt>
      <trkpt lat="45.75253" lon="4.63403">
        <ele>681.6</ele>
        <time>2025-12-11T14:25:03Z</time>
      </trkpt>
      <trkpt lat="45.75254" lon="4.63401">
        <ele>681.8</ele>
        <time>2025-12-11T14:25:04Z</time>
      </trkpt>
      <trkpt lat="45.75255" lon="4.63399">
        <ele>681.8</ele>
        <time>2025-12-11T14:25:05Z</time>
      </trkpt>
      <trkpt lat="45.75256" lon="4.63398">
        <ele>682</ele>
        <time>2025-12-11T14:25:06Z</time>
      </trkpt>
      <trkpt lat="45.75257" lon="4.63396">
        <ele>682.2</ele>
        <time>2025-12-11T14:25:07Z</time>
      </trkpt>
      <trkpt lat="45.75258" lon="4.63394">
        <ele>682.2</ele>
        <time>2025-12-11T14:25:08Z</time>
      </trkpt>
      <trkpt lat="45.75259" lon="4.63392">
        <ele>682.4</ele>
        <time>2025-12-11T14:25:09Z</time>
      </trkpt>
      <trkpt lat="45.7526" lon="4.6339">
        <ele>682.4</ele>
        <time>2025-12-11T14:25:10Z</time>
      </trkpt>
      <trkpt lat="45.7526" lon="4.63388">
        <ele>682.4</ele>
        <time>2025-12-11T14:25:11Z</time>
      </trkpt>
      <trkpt lat="45.75261" lon="4.63386">
        <ele>682.6</ele>
        <time>2025-12-11T14:25:12Z</time>
      </trkpt>
      <trkpt lat="45.75263" lon="4.63384">
        <ele>682.6</ele>
        <time>2025-12-11T14:25:13Z</time>
      </trkpt>
      <trkpt lat="45.75264" lon="4.63382">
        <ele>682.8</ele>
        <time>2025-12-11T14:25:14Z</time>
      </trkpt>
      <trkpt lat="45.75265" lon="4.6338">
        <ele>682.8</ele>
        <time>2025-12-11T14:25:15Z</time>
      </trkpt>
      <trkpt lat="45.75266" lon="4.63379">
        <ele>682.8</ele>
        <time>2025-12-11T14:25:16Z</time>
      </trkpt>
      <trkpt lat="45.75267" lon="4.63377">
        <ele>683</ele>
        <time>2025-12-11T14:25:17Z</time>
      </trkpt>
      <trkpt lat="45.75268" lon="4.63375">
        <ele>683</ele>
        <time>2025-12-11T14:25:18Z</time>
      </trkpt>
      <trkpt lat="45.75269" lon="4.63374">
        <ele>683.2</ele>
        <time>2025-12-11T14:25:19Z</time>
      </trkpt>
      <trkpt lat="45.75269" lon="4.63371">
        <ele>683.2</ele>
        <time>2025-12-11T14:25:20Z</time>
      </trkpt>
      <trkpt lat="45.7527" lon="4.63369">
        <ele>683.4</ele>
        <time>2025-12-11T14:25:21Z</time>
      </trkpt>
      <trkpt lat="45.75271" lon="4.63367">
        <ele>683.4</ele>
        <time>2025-12-11T14:25:22Z</time>
      </trkpt>
      <trkpt lat="45.75272" lon="4.63365">
        <ele>683.6</ele>
        <time>2025-12-11T14:25:23Z</time>
      </trkpt>
      <trkpt lat="45.75273" lon="4.63363">
        <ele>683.8</ele>
        <time>2025-12-11T14:25:24Z</time>
      </trkpt>
      <trkpt lat="45.75274" lon="4.63361">
        <ele>684</ele>
        <time>2025-12-11T14:25:25Z</time>
      </trkpt>
      <trkpt lat="45.75275" lon="4.63359">
        <ele>684.2</ele>
        <time>2025-12-11T14:25:26Z</time>
      </trkpt>
      <trkpt lat="45.75276" lon="4.63358">
        <ele>684.2</ele>
        <time>2025-12-11T14:25:27Z</time>
      </trkpt>
      <trkpt lat="45.75277" lon="4.63356">
        <ele>684.4</ele>
        <time>2025-12-11T14:25:28Z</time>
      </trkpt>
      <trkpt lat="45.75277" lon="4.63354">
        <ele>684.6</ele>
        <time>2025-12-11T14:25:29Z</time>
      </trkpt>
      <trkpt lat="45.75278" lon="4.63353">
        <ele>684.6</ele>
        <time>2025-12-11T14:25:30Z</time>
      </trkpt>
      <trkpt lat="45.75279" lon="4.63351">
        <ele>684.8</ele>
        <time>2025-12-11T14:25:31Z</time>
      </trkpt>
      <trkpt lat="45.7528" lon="4.63349">
        <ele>685</ele>
        <time>2025-12-11T14:25:32Z</time>
      </trkpt>
      <trkpt lat="45.75281" lon="4.63347">
        <ele>685</ele>
        <time>2025-12-11T14:25:33Z</time>
      </trkpt>
      <trkpt lat="45.75282" lon="4.63345">
        <ele>685.2</ele>
        <time>2025-12-11T14:25:34Z</time>
      </trkpt>
      <trkpt lat="45.75283" lon="4.63344">
        <ele>685.4</ele>
        <time>2025-12-11T14:25:35Z</time>
      </trkpt>
      <trkpt lat="45.75284" lon="4.63342">
        <ele>685.4</ele>
        <time>2025-12-11T14:25:36Z</time>
      </trkpt>
      <trkpt lat="45.75285" lon="4.6334">
        <ele>685.6</ele>
        <time>2025-12-11T14:25:37Z</time>
      </trkpt>
      <trkpt lat="45.75286" lon="4.63338">
        <ele>685.6</ele>
        <time>2025-12-11T14:25:38Z</time>
      </trkpt>
      <trkpt lat="45.75287" lon="4.63335">
        <ele>685.8</ele>
        <time>2025-12-11T14:25:39Z</time>
      </trkpt>
      <trkpt lat="45.75287" lon="4.63333">
        <ele>685.8</ele>
        <time>2025-12-11T14:25:40Z</time>
      </trkpt>
      <trkpt lat="45.75288" lon="4.63331">
        <ele>686</ele>
        <time>2025-12-11T14:25:41Z</time>
      </trkpt>
      <trkpt lat="45.75289" lon="4.63328">
        <ele>686</ele>
        <time>2025-12-11T14:25:42Z</time>
      </trkpt>
      <trkpt lat="45.7529" lon="4.63326">
        <ele>686</ele>
        <time>2025-12-11T14:25:43Z</time>
      </trkpt>
      <trkpt lat="45.75291" lon="4.63323">
        <ele>686</ele>
        <time>2025-12-11T14:25:44Z</time>
      </trkpt>
      <trkpt lat="45.75292" lon="4.63321">
        <ele>686.2</ele>
        <time>2025-12-11T14:25:45Z</time>
      </trkpt>
      <trkpt lat="45.75293" lon="4.63319">
        <ele>686.2</ele>
        <time>2025-12-11T14:25:46Z</time>
      </trkpt>
      <trkpt lat="45.75294" lon="4.63317">
        <ele>686.4</ele>
        <time>2025-12-11T14:25:47Z</time>
      </trkpt>
      <trkpt lat="45.75295" lon="4.63315">
        <ele>686.4</ele>
        <time>2025-12-11T14:25:48Z</time>
      </trkpt>
      <trkpt lat="45.75295" lon="4.63312">
        <ele>686.6</ele>
        <time>2025-12-11T14:25:49Z</time>
      </trkpt>
      <trkpt lat="45.75296" lon="4.6331">
        <ele>686.6</ele>
        <time>2025-12-11T14:25:50Z</time>
      </trkpt>
      <trkpt lat="45.75297" lon="4.63308">
        <ele>686.6</ele>
        <time>2025-12-11T14:25:51Z</time>
      </trkpt>
      <trkpt lat="45.75298" lon="4.63306">
        <ele>686.8</ele>
        <time>2025-12-11T14:25:52Z</time>
      </trkpt>
      <trkpt lat="45.753" lon="4.63303">
        <ele>686.8</ele>
        <time>2025-12-11T14:25:53Z</time>
      </trkpt>
      <trkpt lat="45.75301" lon="4.63301">
        <ele>686.8</ele>
        <time>2025-12-11T14:25:54Z</time>
      </trkpt>
      <trkpt lat="45.75302" lon="4.63299">
        <ele>686.8</ele>
        <time>2025-12-11T14:25:55Z</time>
      </trkpt>
      <trkpt lat="45.75303" lon="4.63297">
        <ele>687</ele>
        <time>2025-12-11T14:25:56Z</time>
      </trkpt>
      <trkpt lat="45.75304" lon="4.63295">
        <ele>687</ele>
        <time>2025-12-11T14:25:57Z</time>
      </trkpt>
      <trkpt lat="45.75306" lon="4.63292">
        <ele>687</ele>
        <time>2025-12-11T14:25:58Z</time>
      </trkpt>
      <trkpt lat="45.75307" lon="4.6329">
        <ele>687.2</ele>
        <time>2025-12-11T14:25:59Z</time>
      </trkpt>
      <trkpt lat="45.75308" lon="4.63289">
        <ele>687.4</ele>
        <time>2025-12-11T14:26:00Z</time>
      </trkpt>
      <trkpt lat="45.75309" lon="4.63286">
        <ele>687.4</ele>
        <time>2025-12-11T14:26:01Z</time>
      </trkpt>
      <trkpt lat="45.7531" lon="4.63284">
        <ele>687.6</ele>
        <time>2025-12-11T14:26:02Z</time>
      </trkpt>
      <trkpt lat="45.75311" lon="4.63282">
        <ele>687.6</ele>
        <time>2025-12-11T14:26:03Z</time>
      </trkpt>
      <trkpt lat="45.75312" lon="4.6328">
        <ele>687.8</ele>
        <time>2025-12-11T14:26:04Z</time>
      </trkpt>
      <trkpt lat="45.75313" lon="4.63278">
        <ele>687.8</ele>
        <time>2025-12-11T14:26:05Z</time>
      </trkpt>
      <trkpt lat="45.75314" lon="4.63276">
        <ele>688</ele>
        <time>2025-12-11T14:26:06Z</time>
      </trkpt>
      <trkpt lat="45.75316" lon="4.63274">
        <ele>688</ele>
        <time>2025-12-11T14:26:07Z</time>
      </trkpt>
      <trkpt lat="45.75317" lon="4.63272">
        <ele>688.2</ele>
        <time>2025-12-11T14:26:08Z</time>
      </trkpt>
      <trkpt lat="45.75318" lon="4.6327">
        <ele>688.2</ele>
        <time>2025-12-11T14:26:09Z</time>
      </trkpt>
      <trkpt lat="45.75319" lon="4.63267">
        <ele>688.4</ele>
        <time>2025-12-11T14:26:10Z</time>
      </trkpt>
      <trkpt lat="45.75321" lon="4.63265">
        <ele>688.6</ele>
        <time>2025-12-11T14:26:11Z</time>
      </trkpt>
      <trkpt lat="45.75321" lon="4.63264">
        <ele>688.8</ele>
        <time>2025-12-11T14:26:12Z</time>
      </trkpt>
      <trkpt lat="45.75322" lon="4.63262">
        <ele>689</ele>
        <time>2025-12-11T14:26:13Z</time>
      </trkpt>
      <trkpt lat="45.75323" lon="4.6326">
        <ele>689.2</ele>
        <time>2025-12-11T14:26:14Z</time>
      </trkpt>
      <trkpt lat="45.75324" lon="4.63258">
        <ele>689.4</ele>
        <time>2025-12-11T14:26:15Z</time>
      </trkpt>
      <trkpt lat="45.75325" lon="4.63256">
        <ele>689.4</ele>
        <time>2025-12-11T14:26:16Z</time>
      </trkpt>
      <trkpt lat="45.75326" lon="4.63254">
        <ele>689.6</ele>
        <time>2025-12-11T14:26:17Z</time>
      </trkpt>
      <trkpt lat="45.75327" lon="4.63251">
        <ele>689.8</ele>
        <time>2025-12-11T14:26:18Z</time>
      </trkpt>
      <trkpt lat="45.75328" lon="4.63249">
        <ele>689.8</ele>
        <time>2025-12-11T14:26:19Z</time>
      </trkpt>
      <trkpt lat="45.7533" lon="4.63247">
        <ele>690</ele>
        <time>2025-12-11T14:26:20Z</time>
      </trkpt>
      <trkpt lat="45.75331" lon="4.63246">
        <ele>690</ele>
        <time>2025-12-11T14:26:21Z</time>
      </trkpt>
      <trkpt lat="45.75331" lon="4.63244">
        <ele>690.2</ele>
        <time>2025-12-11T14:26:22Z</time>
      </trkpt>
      <trkpt lat="45.75332" lon="4.63243">
        <ele>690.4</ele>
        <time>2025-12-11T14:26:23Z</time>
      </trkpt>
      <trkpt lat="45.75332" lon="4.63242">
        <ele>690.6</ele>
        <time>2025-12-11T14:26:24Z</time>
      </trkpt>
      <trkpt lat="45.75333" lon="4.6324">
        <ele>690.6</ele>
        <time>2025-12-11T14:26:25Z</time>
      </trkpt>
      <trkpt lat="45.75334" lon="4.63239">
        <ele>690.8</ele>
        <time>2025-12-11T14:26:26Z</time>
      </trkpt>
      <trkpt lat="45.75335" lon="4.63236">
        <ele>691</ele>
        <time>2025-12-11T14:26:27Z</time>
      </trkpt>
      <trkpt lat="45.75336" lon="4.63235">
        <ele>691</ele>
        <time>2025-12-11T14:26:28Z</time>
      </trkpt>
      <trkpt lat="45.75337" lon="4.63233">
        <ele>691.2</ele>
        <time>2025-12-11T14:26:29Z</time>
      </trkpt>
      <trkpt lat="45.75338" lon="4.63231">
        <ele>691.2</ele>
        <time>2025-12-11T14:26:30Z</time>
      </trkpt>
      <trkpt lat="45.75338" lon="4.63229">
        <ele>691.4</ele>
        <time>2025-12-11T14:26:31Z</time>
      </trkpt>
      <trkpt lat="45.75339" lon="4.63227">
        <ele>691.4</ele>
        <time>2025-12-11T14:26:32Z</time>
      </trkpt>
      <trkpt lat="45.75339" lon="4.63225">
        <ele>691.6</ele>
        <time>2025-12-11T14:26:33Z</time>
      </trkpt>
      <trkpt lat="45.7534" lon="4.63223">
        <ele>691.8</ele>
        <time>2025-12-11T14:26:34Z</time>
      </trkpt>
      <trkpt lat="45.75341" lon="4.63221">
        <ele>691.8</ele>
        <time>2025-12-11T14:26:35Z</time>
      </trkpt>
      <trkpt lat="45.75342" lon="4.63219">
        <ele>692</ele>
        <time>2025-12-11T14:26:36Z</time>
      </trkpt>
      <trkpt lat="45.75343" lon="4.63218">
        <ele>692.2</ele>
        <time>2025-12-11T14:26:37Z</time>
      </trkpt>
      <trkpt lat="45.75345" lon="4.63217">
        <ele>692.4</ele>
        <time>2025-12-11T14:26:38Z</time>
      </trkpt>
      <trkpt lat="45.75346" lon="4.63215">
        <ele>692.4</ele>
        <time>2025-12-11T14:26:39Z</time>
      </trkpt>
      <trkpt lat="45.75347" lon="4.63214">
        <ele>692.6</ele>
        <time>2025-12-11T14:26:40Z</time>
      </trkpt>
      <trkpt lat="45.75348" lon="4.63212">
        <ele>692.8</ele>
        <time>2025-12-11T14:26:41Z</time>
      </trkpt>
      <trkpt lat="45.75349" lon="4.63211">
        <ele>693</ele>
        <time>2025-12-11T14:26:42Z</time>
      </trkpt>
      <trkpt lat="45.7535" lon="4.63209">
        <ele>693.2</ele>
        <time>2025-12-11T14:26:43Z</time>
      </trkpt>
      <trkpt lat="45.75351" lon="4.63207">
        <ele>693.4</ele>
        <time>2025-12-11T14:26:44Z</time>
      </trkpt>
      <trkpt lat="45.75352" lon="4.63205">
        <ele>693.4</ele>
        <time>2025-12-11T14:26:45Z</time>
      </trkpt>
      <trkpt lat="45.75353" lon="4.63203">
        <ele>693.6</ele>
        <time>2025-12-11T14:26:46Z</time>
      </trkpt>
      <trkpt lat="45.75354" lon="4.63201">
        <ele>693.6</ele>
        <time>2025-12-11T14:26:47Z</time>
      </trkpt>
      <trkpt lat="45.75356" lon="4.63199">
        <ele>693.8</ele>
        <time>2025-12-11T14:26:48Z</time>
      </trkpt>
      <trkpt lat="45.75357" lon="4.63197">
        <ele>693.8</ele>
        <time>2025-12-11T14:26:49Z</time>
      </trkpt>
      <trkpt lat="45.75358" lon="4.63195">
        <ele>693.8</ele>
        <time>2025-12-11T14:26:50Z</time>
      </trkpt>
      <trkpt lat="45.75359" lon="4.63193">
        <ele>694</ele>
        <time>2025-12-11T14:26:51Z</time>
      </trkpt>
      <trkpt lat="45.75361" lon="4.63191">
        <ele>694</ele>
        <time>2025-12-11T14:26:52Z</time>
      </trkpt>
      <trkpt lat="45.75362" lon="4.63189">
        <ele>694</ele>
        <time>2025-12-11T14:26:53Z</time>
      </trkpt>
      <trkpt lat="45.75364" lon="4.63187">
        <ele>694</ele>
        <time>2025-12-11T14:26:54Z</time>
      </trkpt>
      <trkpt lat="45.75365" lon="4.63184">
        <ele>694</ele>
        <time>2025-12-11T14:26:55Z</time>
      </trkpt>
      <trkpt lat="45.75367" lon="4.63181">
        <ele>694</ele>
        <time>2025-12-11T14:26:56Z</time>
      </trkpt>
      <trkpt lat="45.75368" lon="4.63178">
        <ele>694</ele>
        <time>2025-12-11T14:26:57Z</time>
      </trkpt>
      <trkpt lat="45.7537" lon="4.63174">
        <ele>693.8</ele>
        <time>2025-12-11T14:26:58Z</time>
      </trkpt>
      <trkpt lat="45.75371" lon="4.63171">
        <ele>693.8</ele>
        <time>2025-12-11T14:26:59Z</time>
      </trkpt>
      <trkpt lat="45.75373" lon="4.63168">
        <ele>693.8</ele>
        <time>2025-12-11T14:27:00Z</time>
      </trkpt>
      <trkpt lat="45.75374" lon="4.63166">
        <ele>693.8</ele>
        <time>2025-12-11T14:27:01Z</time>
      </trkpt>
      <trkpt lat="45.75376" lon="4.63164">
        <ele>693.6</ele>
        <time>2025-12-11T14:27:02Z</time>
      </trkpt>
      <trkpt lat="45.75377" lon="4.63161">
        <ele>693.6</ele>
        <time>2025-12-11T14:27:03Z</time>
      </trkpt>
      <trkpt lat="45.75379" lon="4.63159">
        <ele>693.6</ele>
        <time>2025-12-11T14:27:04Z</time>
      </trkpt>
      <trkpt lat="45.75381" lon="4.63157">
        <ele>693.6</ele>
        <time>2025-12-11T14:27:05Z</time>
      </trkpt>
      <trkpt lat="45.75382" lon="4.63154">
        <ele>693.6</ele>
        <time>2025-12-11T14:27:06Z</time>
      </trkpt>
      <trkpt lat="45.75384" lon="4.63152">
        <ele>693.6</ele>
        <time>2025-12-11T14:27:07Z</time>
      </trkpt>
      <trkpt lat="45.75386" lon="4.63149">
        <ele>693.6</ele>
        <time>2025-12-11T14:27:08Z</time>
      </trkpt>
      <trkpt lat="45.75388" lon="4.63146">
        <ele>693.4</ele>
        <time>2025-12-11T14:27:09Z</time>
      </trkpt>
      <trkpt lat="45.7539" lon="4.63143">
        <ele>693.4</ele>
        <time>2025-12-11T14:27:10Z</time>
      </trkpt>
      <trkpt lat="45.75392" lon="4.63139">
        <ele>693.4</ele>
        <time>2025-12-11T14:27:11Z</time>
      </trkpt>
      <trkpt lat="45.75394" lon="4.63135">
        <ele>693.4</ele>
        <time>2025-12-11T14:27:12Z</time>
      </trkpt>
      <trkpt lat="45.75396" lon="4.63131">
        <ele>693.4</ele>
        <time>2025-12-11T14:27:13Z</time>
      </trkpt>
      <trkpt lat="45.75397" lon="4.63127">
        <ele>693.4</ele>
        <time>2025-12-11T14:27:14Z</time>
      </trkpt>
      <trkpt lat="45.75399" lon="4.63123">
        <ele>693.4</ele>
        <time>2025-12-11T14:27:15Z</time>
      </trkpt>
      <trkpt lat="45.75401" lon="4.6312">
        <ele>693.4</ele>
        <time>2025-12-11T14:27:16Z</time>
      </trkpt>
      <trkpt lat="45.75402" lon="4.63116">
        <ele>693.4</ele>
        <time>2025-12-11T14:27:17Z</time>
      </trkpt>
      <trkpt lat="45.75404" lon="4.63111">
        <ele>693.4</ele>
        <time>2025-12-11T14:27:18Z</time>
      </trkpt>
      <trkpt lat="45.75406" lon="4.63107">
        <ele>693.4</ele>
        <time>2025-12-11T14:27:19Z</time>
      </trkpt>
      <trkpt lat="45.75408" lon="4.63103">
        <ele>693.4</ele>
        <time>2025-12-11T14:27:20Z</time>
      </trkpt>
      <trkpt lat="45.7541" lon="4.63099">
        <ele>693.6</ele>
        <time>2025-12-11T14:27:21Z</time>
      </trkpt>
      <trkpt lat="45.75411" lon="4.63095">
        <ele>693.6</ele>
        <time>2025-12-11T14:27:22Z</time>
      </trkpt>
      <trkpt lat="45.75413" lon="4.63091">
        <ele>693.6</ele>
        <time>2025-12-11T14:27:23Z</time>
      </trkpt>
      <trkpt lat="45.75414" lon="4.63087">
        <ele>693.6</ele>
        <time>2025-12-11T14:27:24Z</time>
      </trkpt>
      <trkpt lat="45.75416" lon="4.63083">
        <ele>693.8</ele>
        <time>2025-12-11T14:27:25Z</time>
      </trkpt>
      <trkpt lat="45.75418" lon="4.63079">
        <ele>693.8</ele>
        <time>2025-12-11T14:27:26Z</time>
      </trkpt>
      <trkpt lat="45.7542" lon="4.63076">
        <ele>694</ele>
        <time>2025-12-11T14:27:27Z</time>
      </trkpt>
      <trkpt lat="45.75422" lon="4.63072">
        <ele>694</ele>
        <time>2025-12-11T14:27:28Z</time>
      </trkpt>
      <trkpt lat="45.75423" lon="4.63067">
        <ele>694</ele>
        <time>2025-12-11T14:27:29Z</time>
      </trkpt>
      <trkpt lat="45.75425" lon="4.63063">
        <ele>694</ele>
        <time>2025-12-11T14:27:30Z</time>
      </trkpt>
      <trkpt lat="45.75426" lon="4.63058">
        <ele>694</ele>
        <time>2025-12-11T14:27:31Z</time>
      </trkpt>
      <trkpt lat="45.75428" lon="4.63054">
        <ele>694</ele>
        <time>2025-12-11T14:27:32Z</time>
      </trkpt>
      <trkpt lat="45.7543" lon="4.63049">
        <ele>694</ele>
        <time>2025-12-11T14:27:33Z</time>
      </trkpt>
      <trkpt lat="45.75431" lon="4.63045">
        <ele>694</ele>
        <time>2025-12-11T14:27:34Z</time>
      </trkpt>
      <trkpt lat="45.75432" lon="4.63041">
        <ele>694</ele>
        <time>2025-12-11T14:27:35Z</time>
      </trkpt>
      <trkpt lat="45.75434" lon="4.63037">
        <ele>694.2</ele>
        <time>2025-12-11T14:27:36Z</time>
      </trkpt>
      <trkpt lat="45.75436" lon="4.63032">
        <ele>694.2</ele>
        <time>2025-12-11T14:27:37Z</time>
      </trkpt>
      <trkpt lat="45.75437" lon="4.63028">
        <ele>694.2</ele>
        <time>2025-12-11T14:27:38Z</time>
      </trkpt>
      <trkpt lat="45.75438" lon="4.63024">
        <ele>694.2</ele>
        <time>2025-12-11T14:27:39Z</time>
      </trkpt>
      <trkpt lat="45.75439" lon="4.63019">
        <ele>694.2</ele>
        <time>2025-12-11T14:27:40Z</time>
      </trkpt>
      <trkpt lat="45.75441" lon="4.63015">
        <ele>694.2</ele>
        <time>2025-12-11T14:27:41Z</time>
      </trkpt>
      <trkpt lat="45.75442" lon="4.6301">
        <ele>694.4</ele>
        <time>2025-12-11T14:27:42Z</time>
      </trkpt>
      <trkpt lat="45.75443" lon="4.63006">
        <ele>694.4</ele>
        <time>2025-12-11T14:27:43Z</time>
      </trkpt>
      <trkpt lat="45.75444" lon="4.63001">
        <ele>694.4</ele>
        <time>2025-12-11T14:27:44Z</time>
      </trkpt>
      <trkpt lat="45.75446" lon="4.62997">
        <ele>694.4</ele>
        <time>2025-12-11T14:27:45Z</time>
      </trkpt>
      <trkpt lat="45.75447" lon="4.62992">
        <ele>694.4</ele>
        <time>2025-12-11T14:27:46Z</time>
      </trkpt>
      <trkpt lat="45.75449" lon="4.62987">
        <ele>694.4</ele>
        <time>2025-12-11T14:27:47Z</time>
      </trkpt>
      <trkpt lat="45.7545" lon="4.62983">
        <ele>694.4</ele>
        <time>2025-12-11T14:27:48Z</time>
      </trkpt>
      <trkpt lat="45.75452" lon="4.62978">
        <ele>694.6</ele>
        <time>2025-12-11T14:27:49Z</time>
      </trkpt>
      <trkpt lat="45.75453" lon="4.62974">
        <ele>694.6</ele>
        <time>2025-12-11T14:27:50Z</time>
      </trkpt>
      <trkpt lat="45.75455" lon="4.62969">
        <ele>694.6</ele>
        <time>2025-12-11T14:27:51Z</time>
      </trkpt>
      <trkpt lat="45.75456" lon="4.62964">
        <ele>694.8</ele>
        <time>2025-12-11T14:27:52Z</time>
      </trkpt>
      <trkpt lat="45.75458" lon="4.6296">
        <ele>694.8</ele>
        <time>2025-12-11T14:27:53Z</time>
      </trkpt>
      <trkpt lat="45.75459" lon="4.62956">
        <ele>695</ele>
        <time>2025-12-11T14:27:54Z</time>
      </trkpt>
      <trkpt lat="45.75461" lon="4.62951">
        <ele>695</ele>
        <time>2025-12-11T14:27:55Z</time>
      </trkpt>
      <trkpt lat="45.75462" lon="4.62947">
        <ele>695.2</ele>
        <time>2025-12-11T14:27:56Z</time>
      </trkpt>
      <trkpt lat="45.75463" lon="4.62943">
        <ele>695.2</ele>
        <time>2025-12-11T14:27:57Z</time>
      </trkpt>
      <trkpt lat="45.75464" lon="4.62938">
        <ele>695.4</ele>
        <time>2025-12-11T14:27:58Z</time>
      </trkpt>
      <trkpt lat="45.75466" lon="4.62935">
        <ele>695.6</ele>
        <time>2025-12-11T14:27:59Z</time>
      </trkpt>
      <trkpt lat="45.75467" lon="4.62931">
        <ele>695.6</ele>
        <time>2025-12-11T14:28:00Z</time>
      </trkpt>
      <trkpt lat="45.75469" lon="4.62927">
        <ele>695.8</ele>
        <time>2025-12-11T14:28:01Z</time>
      </trkpt>
      <trkpt lat="45.7547" lon="4.62923">
        <ele>695.8</ele>
        <time>2025-12-11T14:28:02Z</time>
      </trkpt>
      <trkpt lat="45.75471" lon="4.62918">
        <ele>695.8</ele>
        <time>2025-12-11T14:28:03Z</time>
      </trkpt>
      <trkpt lat="45.75473" lon="4.62913">
        <ele>695.8</ele>
        <time>2025-12-11T14:28:04Z</time>
      </trkpt>
      <trkpt lat="45.75474" lon="4.62909">
        <ele>695.8</ele>
        <time>2025-12-11T14:28:05Z</time>
      </trkpt>
      <trkpt lat="45.75476" lon="4.62904">
        <ele>695.6</ele>
        <time>2025-12-11T14:28:06Z</time>
      </trkpt>
      <trkpt lat="45.75478" lon="4.62899">
        <ele>695.6</ele>
        <time>2025-12-11T14:28:07Z</time>
      </trkpt>
      <trkpt lat="45.7548" lon="4.62895">
        <ele>695.6</ele>
        <time>2025-12-11T14:28:08Z</time>
      </trkpt>
      <trkpt lat="45.75482" lon="4.62891">
        <ele>695.6</ele>
        <time>2025-12-11T14:28:09Z</time>
      </trkpt>
      <trkpt lat="45.75483" lon="4.62886">
        <ele>695.6</ele>
        <time>2025-12-11T14:28:10Z</time>
      </trkpt>
      <trkpt lat="45.75485" lon="4.62881">
        <ele>695.6</ele>
        <time>2025-12-11T14:28:11Z</time>
      </trkpt>
      <trkpt lat="45.75486" lon="4.62877">
        <ele>695.6</ele>
        <time>2025-12-11T14:28:12Z</time>
      </trkpt>
      <trkpt lat="45.75488" lon="4.62872">
        <ele>695.6</ele>
        <time>2025-12-11T14:28:13Z</time>
      </trkpt>
      <trkpt lat="45.7549" lon="4.62868">
        <ele>695.6</ele>
        <time>2025-12-11T14:28:14Z</time>
      </trkpt>
      <trkpt lat="45.75491" lon="4.62863">
        <ele>695.6</ele>
        <time>2025-12-11T14:28:15Z</time>
      </trkpt>
      <trkpt lat="45.75493" lon="4.62858">
        <ele>695.6</ele>
        <time>2025-12-11T14:28:16Z</time>
      </trkpt>
      <trkpt lat="45.75496" lon="4.62854">
        <ele>695.6</ele>
        <time>2025-12-11T14:28:17Z</time>
      </trkpt>
      <trkpt lat="45.75497" lon="4.6285">
        <ele>695.8</ele>
        <time>2025-12-11T14:28:18Z</time>
      </trkpt>
      <trkpt lat="45.75499" lon="4.62846">
        <ele>695.8</ele>
        <time>2025-12-11T14:28:19Z</time>
      </trkpt>
      <trkpt lat="45.75501" lon="4.62842">
        <ele>696</ele>
        <time>2025-12-11T14:28:20Z</time>
      </trkpt>
      <trkpt lat="45.75502" lon="4.62838">
        <ele>696</ele>
        <time>2025-12-11T14:28:21Z</time>
      </trkpt>
      <trkpt lat="45.75503" lon="4.62834">
        <ele>696</ele>
        <time>2025-12-11T14:28:22Z</time>
      </trkpt>
      <trkpt lat="45.75504" lon="4.62829">
        <ele>696.2</ele>
        <time>2025-12-11T14:28:23Z</time>
      </trkpt>
      <trkpt lat="45.75505" lon="4.62825">
        <ele>696.2</ele>
        <time>2025-12-11T14:28:24Z</time>
      </trkpt>
      <trkpt lat="45.75506" lon="4.62821">
        <ele>696.2</ele>
        <time>2025-12-11T14:28:25Z</time>
      </trkpt>
      <trkpt lat="45.75507" lon="4.62816">
        <ele>696.2</ele>
        <time>2025-12-11T14:28:26Z</time>
      </trkpt>
      <trkpt lat="45.75508" lon="4.62812">
        <ele>696.4</ele>
        <time>2025-12-11T14:28:27Z</time>
      </trkpt>
      <trkpt lat="45.75509" lon="4.62808">
        <ele>696.4</ele>
        <time>2025-12-11T14:28:28Z</time>
      </trkpt>
      <trkpt lat="45.7551" lon="4.62803">
        <ele>696.4</ele>
        <time>2025-12-11T14:28:29Z</time>
      </trkpt>
      <trkpt lat="45.75511" lon="4.62799">
        <ele>696.4</ele>
        <time>2025-12-11T14:28:30Z</time>
      </trkpt>
      <trkpt lat="45.75513" lon="4.62795">
        <ele>696.6</ele>
        <time>2025-12-11T14:28:31Z</time>
      </trkpt>
      <trkpt lat="45.75514" lon="4.6279">
        <ele>696.6</ele>
        <time>2025-12-11T14:28:32Z</time>
      </trkpt>
      <trkpt lat="45.75516" lon="4.62786">
        <ele>696.6</ele>
        <time>2025-12-11T14:28:33Z</time>
      </trkpt>
      <trkpt lat="45.75517" lon="4.62781">
        <ele>696.8</ele>
        <time>2025-12-11T14:28:34Z</time>
      </trkpt>
      <trkpt lat="45.75518" lon="4.62777">
        <ele>696.8</ele>
        <time>2025-12-11T14:28:35Z</time>
      </trkpt>
      <trkpt lat="45.7552" lon="4.62773">
        <ele>697</ele>
        <time>2025-12-11T14:28:36Z</time>
      </trkpt>
      <trkpt lat="45.75521" lon="4.62768">
        <ele>697</ele>
        <time>2025-12-11T14:28:37Z</time>
      </trkpt>
      <trkpt lat="45.75523" lon="4.62763">
        <ele>697.2</ele>
        <time>2025-12-11T14:28:38Z</time>
      </trkpt>
      <trkpt lat="45.75524" lon="4.62759">
        <ele>697.2</ele>
        <time>2025-12-11T14:28:39Z</time>
      </trkpt>
      <trkpt lat="45.75526" lon="4.62754">
        <ele>697.2</ele>
        <time>2025-12-11T14:28:40Z</time>
      </trkpt>
      <trkpt lat="45.75527" lon="4.62749">
        <ele>697.4</ele>
        <time>2025-12-11T14:28:41Z</time>
      </trkpt>
      <trkpt lat="45.75528" lon="4.62745">
        <ele>697.4</ele>
        <time>2025-12-11T14:28:42Z</time>
      </trkpt>
      <trkpt lat="45.75529" lon="4.6274">
        <ele>697.6</ele>
        <time>2025-12-11T14:28:43Z</time>
      </trkpt>
      <trkpt lat="45.75531" lon="4.62736">
        <ele>697.6</ele>
        <time>2025-12-11T14:28:44Z</time>
      </trkpt>
      <trkpt lat="45.75532" lon="4.62732">
        <ele>697.8</ele>
        <time>2025-12-11T14:28:45Z</time>
      </trkpt>
      <trkpt lat="45.75534" lon="4.62728">
        <ele>697.8</ele>
        <time>2025-12-11T14:28:46Z</time>
      </trkpt>
      <trkpt lat="45.75535" lon="4.62724">
        <ele>698</ele>
        <time>2025-12-11T14:28:47Z</time>
      </trkpt>
      <trkpt lat="45.75537" lon="4.6272">
        <ele>698.2</ele>
        <time>2025-12-11T14:28:48Z</time>
      </trkpt>
      <trkpt lat="45.75538" lon="4.62716">
        <ele>698.2</ele>
        <time>2025-12-11T14:28:49Z</time>
      </trkpt>
      <trkpt lat="45.75539" lon="4.62713">
        <ele>698.4</ele>
        <time>2025-12-11T14:28:50Z</time>
      </trkpt>
      <trkpt lat="45.7554" lon="4.6271">
        <ele>698.6</ele>
        <time>2025-12-11T14:28:51Z</time>
      </trkpt>
      <trkpt lat="45.75541" lon="4.62707">
        <ele>698.8</ele>
        <time>2025-12-11T14:28:52Z</time>
      </trkpt>
      <trkpt lat="45.75542" lon="4.62704">
        <ele>699</ele>
        <time>2025-12-11T14:28:53Z</time>
      </trkpt>
      <trkpt lat="45.75543" lon="4.62702">
        <ele>699.2</ele>
        <time>2025-12-11T14:28:54Z</time>
      </trkpt>
      <trkpt lat="45.75544" lon="4.627">
        <ele>699.4</ele>
        <time>2025-12-11T14:28:55Z</time>
      </trkpt>
      <trkpt lat="45.75545" lon="4.62699">
        <ele>699.4</ele>
        <time>2025-12-11T14:28:56Z</time>
      </trkpt>
      <trkpt lat="45.75545" lon="4.62697">
        <ele>699.6</ele>
        <time>2025-12-11T14:28:57Z</time>
      </trkpt>
      <trkpt lat="45.75546" lon="4.62695">
        <ele>699.8</ele>
        <time>2025-12-11T14:28:58Z</time>
      </trkpt>
      <trkpt lat="45.75547" lon="4.62693">
        <ele>699.8</ele>
        <time>2025-12-11T14:28:59Z</time>
      </trkpt>
      <trkpt lat="45.75548" lon="4.62691">
        <ele>700</ele>
        <time>2025-12-11T14:29:00Z</time>
      </trkpt>
      <trkpt lat="45.75549" lon="4.62689">
        <ele>700.2</ele>
        <time>2025-12-11T14:29:01Z</time>
      </trkpt>
      <trkpt lat="45.7555" lon="4.62688">
        <ele>700.2</ele>
        <time>2025-12-11T14:29:02Z</time>
      </trkpt>
      <trkpt lat="45.7555" lon="4.62685">
        <ele>700.4</ele>
        <time>2025-12-11T14:29:03Z</time>
      </trkpt>
      <trkpt lat="45.7555" lon="4.62684">
        <ele>700.6</ele>
        <time>2025-12-11T14:29:04Z</time>
      </trkpt>
      <trkpt lat="45.75551" lon="4.62682">
        <ele>700.6</ele>
        <time>2025-12-11T14:29:05Z</time>
      </trkpt>
      <trkpt lat="45.75552" lon="4.6268">
        <ele>700.8</ele>
        <time>2025-12-11T14:29:06Z</time>
      </trkpt>
      <trkpt lat="45.75553" lon="4.62678">
        <ele>701</ele>
        <time>2025-12-11T14:29:07Z</time>
      </trkpt>
      <trkpt lat="45.75554" lon="4.62677">
        <ele>701</ele>
        <time>2025-12-11T14:29:08Z</time>
      </trkpt>
      <trkpt lat="45.75554" lon="4.62675">
        <ele>701.2</ele>
        <time>2025-12-11T14:29:09Z</time>
      </trkpt>
      <trkpt lat="45.75555" lon="4.62673">
        <ele>701.2</ele>
        <time>2025-12-11T14:29:10Z</time>
      </trkpt>
      <trkpt lat="45.75556" lon="4.62671">
        <ele>701.4</ele>
        <time>2025-12-11T14:29:11Z</time>
      </trkpt>
      <trkpt lat="45.75557" lon="4.62669">
        <ele>701.6</ele>
        <time>2025-12-11T14:29:12Z</time>
      </trkpt>
      <trkpt lat="45.75557" lon="4.62667">
        <ele>701.6</ele>
        <time>2025-12-11T14:29:13Z</time>
      </trkpt>
      <trkpt lat="45.75558" lon="4.62665">
        <ele>701.8</ele>
        <time>2025-12-11T14:29:14Z</time>
      </trkpt>
      <trkpt lat="45.75558" lon="4.62663">
        <ele>702</ele>
        <time>2025-12-11T14:29:15Z</time>
      </trkpt>
      <trkpt lat="45.75559" lon="4.62661">
        <ele>702</ele>
        <time>2025-12-11T14:29:16Z</time>
      </trkpt>
      <trkpt lat="45.75559" lon="4.6266">
        <ele>702.2</ele>
        <time>2025-12-11T14:29:17Z</time>
      </trkpt>
      <trkpt lat="45.7556" lon="4.62658">
        <ele>702.4</ele>
        <time>2025-12-11T14:29:18Z</time>
      </trkpt>
      <trkpt lat="45.7556" lon="4.62656">
        <ele>702.6</ele>
        <time>2025-12-11T14:29:19Z</time>
      </trkpt>
      <trkpt lat="45.75561" lon="4.62655">
        <ele>702.6</ele>
        <time>2025-12-11T14:29:20Z</time>
      </trkpt>
      <trkpt lat="45.75562" lon="4.62653">
        <ele>702.8</ele>
        <time>2025-12-11T14:29:21Z</time>
      </trkpt>
      <trkpt lat="45.75563" lon="4.62651">
        <ele>703</ele>
        <time>2025-12-11T14:29:22Z</time>
      </trkpt>
      <trkpt lat="45.75565" lon="4.6265">
        <ele>703</ele>
        <time>2025-12-11T14:29:23Z</time>
      </trkpt>
      <trkpt lat="45.75566" lon="4.62648">
        <ele>703.2</ele>
        <time>2025-12-11T14:29:24Z</time>
      </trkpt>
      <trkpt lat="45.75567" lon="4.62647">
        <ele>703.2</ele>
        <time>2025-12-11T14:29:25Z</time>
      </trkpt>
      <trkpt lat="45.75568" lon="4.62646">
        <ele>703.4</ele>
        <time>2025-12-11T14:29:26Z</time>
      </trkpt>
      <trkpt lat="45.75569" lon="4.62644">
        <ele>703.6</ele>
        <time>2025-12-11T14:29:27Z</time>
      </trkpt>
      <trkpt lat="45.7557" lon="4.62641">
        <ele>703.6</ele>
        <time>2025-12-11T14:29:28Z</time>
      </trkpt>
      <trkpt lat="45.75571" lon="4.62639">
        <ele>703.8</ele>
        <time>2025-12-11T14:29:29Z</time>
      </trkpt>
      <trkpt lat="45.75571" lon="4.62638">
        <ele>704</ele>
        <time>2025-12-11T14:29:30Z</time>
      </trkpt>
      <trkpt lat="45.75572" lon="4.62636">
        <ele>704.2</ele>
        <time>2025-12-11T14:29:31Z</time>
      </trkpt>
      <trkpt lat="45.75573" lon="4.62635">
        <ele>704.4</ele>
        <time>2025-12-11T14:29:32Z</time>
      </trkpt>
      <trkpt lat="45.75574" lon="4.62634">
        <ele>704.6</ele>
        <time>2025-12-11T14:29:33Z</time>
      </trkpt>
      <trkpt lat="45.75574" lon="4.62632">
        <ele>704.6</ele>
        <time>2025-12-11T14:29:34Z</time>
      </trkpt>
      <trkpt lat="45.75574" lon="4.6263">
        <ele>704.8</ele>
        <time>2025-12-11T14:29:35Z</time>
      </trkpt>
      <trkpt lat="45.75575" lon="4.62628">
        <ele>705</ele>
        <time>2025-12-11T14:29:36Z</time>
      </trkpt>
      <trkpt lat="45.75575" lon="4.62626">
        <ele>705.2</ele>
        <time>2025-12-11T14:29:37Z</time>
      </trkpt>
      <trkpt lat="45.75576" lon="4.62625">
        <ele>705.4</ele>
        <time>2025-12-11T14:29:38Z</time>
      </trkpt>
      <trkpt lat="45.75578" lon="4.62623">
        <ele>705.4</ele>
        <time>2025-12-11T14:29:39Z</time>
      </trkpt>
      <trkpt lat="45.75578" lon="4.62622">
        <ele>705.6</ele>
        <time>2025-12-11T14:29:40Z</time>
      </trkpt>
      <trkpt lat="45.75579" lon="4.6262">
        <ele>705.8</ele>
        <time>2025-12-11T14:29:41Z</time>
      </trkpt>
      <trkpt lat="45.7558" lon="4.62619">
        <ele>706</ele>
        <time>2025-12-11T14:29:42Z</time>
      </trkpt>
      <trkpt lat="45.75581" lon="4.62617">
        <ele>706.2</ele>
        <time>2025-12-11T14:29:43Z</time>
      </trkpt>
      <trkpt lat="45.75582" lon="4.62616">
        <ele>706.2</ele>
        <time>2025-12-11T14:29:44Z</time>
      </trkpt>
      <trkpt lat="45.75582" lon="4.62614">
        <ele>706.4</ele>
        <time>2025-12-11T14:29:45Z</time>
      </trkpt>
      <trkpt lat="45.75582" lon="4.62612">
        <ele>706.6</ele>
        <time>2025-12-11T14:29:46Z</time>
      </trkpt>
      <trkpt lat="45.75583" lon="4.6261">
        <ele>706.8</ele>
        <time>2025-12-11T14:29:47Z</time>
      </trkpt>
      <trkpt lat="45.75584" lon="4.62609">
        <ele>707</ele>
        <time>2025-12-11T14:29:48Z</time>
      </trkpt>
      <trkpt lat="45.75585" lon="4.62607">
        <ele>707.2</ele>
        <time>2025-12-11T14:29:49Z</time>
      </trkpt>
      <trkpt lat="45.75586" lon="4.62605">
        <ele>707.4</ele>
        <time>2025-12-11T14:29:50Z</time>
      </trkpt>
      <trkpt lat="45.75586" lon="4.62603">
        <ele>707.6</ele>
        <time>2025-12-11T14:29:51Z</time>
      </trkpt>
      <trkpt lat="45.75587" lon="4.62602">
        <ele>707.8</ele>
        <time>2025-12-11T14:29:52Z</time>
      </trkpt>
      <trkpt lat="45.75588" lon="4.626">
        <ele>708</ele>
        <time>2025-12-11T14:29:53Z</time>
      </trkpt>
      <trkpt lat="45.75589" lon="4.62599">
        <ele>708.2</ele>
        <time>2025-12-11T14:29:54Z</time>
      </trkpt>
      <trkpt lat="45.75589" lon="4.62598">
        <ele>708.4</ele>
        <time>2025-12-11T14:29:55Z</time>
      </trkpt>
      <trkpt lat="45.75589" lon="4.62598">
        <ele>708.4</ele>
        <time>2025-12-11T14:29:56Z</time>
      </trkpt>
      <trkpt lat="45.75589" lon="4.62598">
        <ele>708.6</ele>
        <time>2025-12-11T14:29:57Z</time>
      </trkpt>
      <trkpt lat="45.75589" lon="4.62598">
        <ele>708.6</ele>
        <time>2025-12-11T14:29:58Z</time>
      </trkpt>
      <trkpt lat="45.75589" lon="4.62598">
        <ele>708.8</ele>
        <time>2025-12-11T14:29:59Z</time>
      </trkpt>
      <trkpt lat="45.75589" lon="4.62598">
        <ele>708.8</ele>
        <time>2025-12-11T14:30:00Z</time>
      </trkpt>
      <trkpt lat="45.75589" lon="4.62598">
        <ele>708.8</ele>
        <time>2025-12-11T14:30:01Z</time>
      </trkpt>
      <trkpt lat="45.75589" lon="4.62598">
        <ele>708.8</ele>
        <time>2025-12-11T14:30:02Z</time>
      </trkpt>
      <trkpt lat="45.75589" lon="4.62598">
        <ele>708.8</ele>
        <time>2025-12-11T14:30:03Z</time>
      </trkpt>
      <trkpt lat="45.75589" lon="4.62598">
        <ele>709</ele>
        <time>2025-12-11T14:30:04Z</time>
      </trkpt>
      <trkpt lat="45.75589" lon="4.62598">
        <ele>709</ele>
        <time>2025-12-11T14:30:05Z</time>
      </trkpt>
      <trkpt lat="45.75589" lon="4.62598">
        <ele>709</ele>
        <time>2025-12-11T14:30:06Z</time>
      </trkpt>
      <trkpt lat="45.75589" lon="4.62598">
        <ele>709</ele>
        <time>2025-12-11T14:30:07Z</time>
      </trkpt>
      <trkpt lat="45.75589" lon="4.62598">
        <ele>709</ele>
        <time>2025-12-11T14:30:08Z</time>
      </trkpt>
      <trkpt lat="45.75589" lon="4.62598">
        <ele>709</ele>
        <time>2025-12-11T14:30:09Z</time>
      </trkpt>
      <trkpt lat="45.75589" lon="4.62598">
        <ele>708.8</ele>
        <time>2025-12-11T14:30:10Z</time>
      </trkpt>
      <trkpt lat="45.75589" lon="4.62598">
        <ele>708.8</ele>
        <time>2025-12-11T14:30:11Z</time>
      </trkpt>
      <trkpt lat="45.75589" lon="4.62598">
        <ele>708.8</ele>
        <time>2025-12-11T14:30:12Z</time>
      </trkpt>
      <trkpt lat="45.75589" lon="4.62598">
        <ele>708.8</ele>
        <time>2025-12-11T14:30:13Z</time>
      </trkpt>
      <trkpt lat="45.75589" lon="4.62598">
        <ele>708.8</ele>
        <time>2025-12-11T14:30:14Z</time>
      </trkpt>
      <trkpt lat="45.75589" lon="4.62598">
        <ele>708.8</ele>
        <time>2025-12-11T14:30:15Z</time>
      </trkpt>
      <trkpt lat="45.75589" lon="4.62598">
        <ele>708.8</ele>
        <time>2025-12-11T14:30:16Z</time>
      </trkpt>
      <trkpt lat="45.75589" lon="4.62598">
        <ele>708.8</ele>
        <time>2025-12-11T14:30:17Z</time>
      </trkpt>
      <trkpt lat="45.75589" lon="4.62598">
        <ele>709</ele>
        <time>2025-12-11T14:30:18Z</time>
      </trkpt>
      <trkpt lat="45.75589" lon="4.62598">
        <ele>709</ele>
        <time>2025-12-11T14:30:19Z</time>
      </trkpt>
      <trkpt lat="45.75589" lon="4.62598">
        <ele>708.8</ele>
        <time>2025-12-11T14:30:20Z</time>
      </trkpt>
      <trkpt lat="45.75589" lon="4.62598">
        <ele>708.8</ele>
        <time>2025-12-11T14:30:21Z</time>
      </trkpt>
      <trkpt lat="45.75589" lon="4.62598">
        <ele>708.8</ele>
        <time>2025-12-11T14:30:22Z</time>
      </trkpt>
      <trkpt lat="45.75589" lon="4.62598">
        <ele>708.8</ele>
        <time>2025-12-11T14:30:23Z</time>
      </trkpt>
      <trkpt lat="45.75589" lon="4.62598">
        <ele>708.8</ele>
        <time>2025-12-11T14:30:24Z</time>
      </trkpt>
      <trkpt lat="45.75589" lon="4.62598">
        <ele>708.8</ele>
        <time>2025-12-11T14:30:25Z</time>
      </trkpt>
      <trkpt lat="45.75589" lon="4.62598">
        <ele>708.8</ele>
        <time>2025-12-11T14:30:26Z</time>
      </trkpt>
      <trkpt lat="45.75589" lon="4.62598">
        <ele>708.8</ele>
        <time>2025-12-11T14:30:27Z</time>
      </trkpt>
      <trkpt lat="45.75589" lon="4.62598">
        <ele>709</ele>
        <time>2025-12-11T14:30:28Z</time>
      </trkpt>
      <trkpt lat="45.75589" lon="4.62598">
        <ele>709</ele>
        <time>2025-12-11T14:30:29Z</time>
      </trkpt>
      <trkpt lat="45.75589" lon="4.62598">
        <ele>709</ele>
        <time>2025-12-11T14:30:30Z</time>
      </trkpt>
      <trkpt lat="45.75589" lon="4.62596">
        <ele>709</ele>
        <time>2025-12-11T14:30:31Z</time>
      </trkpt>
      <trkpt lat="45.75589" lon="4.62595">
        <ele>709</ele>
        <time>2025-12-11T14:30:32Z</time>
      </trkpt>
      <trkpt lat="45.7559" lon="4.62594">
        <ele>709.2</ele>
        <time>2025-12-11T14:30:33Z</time>
      </trkpt>
      <trkpt lat="45.7559" lon="4.62593">
        <ele>709.2</ele>
        <time>2025-12-11T14:30:34Z</time>
      </trkpt>
      <trkpt lat="45.75591" lon="4.62591">
        <ele>709.4</ele>
        <time>2025-12-11T14:30:35Z</time>
      </trkpt>
      <trkpt lat="45.75592" lon="4.62588">
        <ele>709.6</ele>
        <time>2025-12-11T14:30:36Z</time>
      </trkpt>
      <trkpt lat="45.75592" lon="4.62586">
        <ele>709.8</ele>
        <time>2025-12-11T14:30:37Z</time>
      </trkpt>
      <trkpt lat="45.75593" lon="4.62584">
        <ele>710</ele>
        <time>2025-12-11T14:30:38Z</time>
      </trkpt>
      <trkpt lat="45.75593" lon="4.62582">
        <ele>710.2</ele>
        <time>2025-12-11T14:30:39Z</time>
      </trkpt>
      <trkpt lat="45.75594" lon="4.62579">
        <ele>710.4</ele>
        <time>2025-12-11T14:30:40Z</time>
      </trkpt>
      <trkpt lat="45.75594" lon="4.62577">
        <ele>710.6</ele>
        <time>2025-12-11T14:30:41Z</time>
      </trkpt>
      <trkpt lat="45.75595" lon="4.62574">
        <ele>710.8</ele>
        <time>2025-12-11T14:30:42Z</time>
      </trkpt>
      <trkpt lat="45.75595" lon="4.62572">
        <ele>711</ele>
        <time>2025-12-11T14:30:43Z</time>
      </trkpt>
      <trkpt lat="45.75596" lon="4.6257">
        <ele>711.4</ele>
        <time>2025-12-11T14:30:44Z</time>
      </trkpt>
      <trkpt lat="45.75596" lon="4.62568">
        <ele>711.6</ele>
        <time>2025-12-11T14:30:45Z</time>
      </trkpt>
      <trkpt lat="45.75597" lon="4.62567">
        <ele>711.8</ele>
        <time>2025-12-11T14:30:46Z</time>
      </trkpt>
      <trkpt lat="45.75597" lon="4.62566">
        <ele>712</ele>
        <time>2025-12-11T14:30:47Z</time>
      </trkpt>
      <trkpt lat="45.75597" lon="4.62564">
        <ele>712.2</ele>
        <time>2025-12-11T14:30:48Z</time>
      </trkpt>
      <trkpt lat="45.75598" lon="4.62562">
        <ele>712.2</ele>
        <time>2025-12-11T14:30:49Z</time>
      </trkpt>
      <trkpt lat="45.75599" lon="4.6256">
        <ele>712.4</ele>
        <time>2025-12-11T14:30:50Z</time>
      </trkpt>
      <trkpt lat="45.75601" lon="4.62558">
        <ele>712.6</ele>
        <time>2025-12-11T14:30:51Z</time>
      </trkpt>
      <trkpt lat="45.75602" lon="4.62556">
        <ele>712.8</ele>
        <time>2025-12-11T14:30:52Z</time>
      </trkpt>
      <trkpt lat="45.75602" lon="4.62553">
        <ele>712.8</ele>
        <time>2025-12-11T14:30:53Z</time>
      </trkpt>
      <trkpt lat="45.75602" lon="4.62549">
        <ele>713</ele>
        <time>2025-12-11T14:30:54Z</time>
      </trkpt>
      <trkpt lat="45.75602" lon="4.62547">
        <ele>713.2</ele>
        <time>2025-12-11T14:30:55Z</time>
      </trkpt>
      <trkpt lat="45.75603" lon="4.62546">
        <ele>713.4</ele>
        <time>2025-12-11T14:30:56Z</time>
      </trkpt>
      <trkpt lat="45.75603" lon="4.62544">
        <ele>713.6</ele>
        <time>2025-12-11T14:30:57Z</time>
      </trkpt>
      <trkpt lat="45.75603" lon="4.62542">
        <ele>713.8</ele>
        <time>2025-12-11T14:30:58Z</time>
      </trkpt>
      <trkpt lat="45.75604" lon="4.6254">
        <ele>714</ele>
        <time>2025-12-11T14:30:59Z</time>
      </trkpt>
      <trkpt lat="45.75605" lon="4.62537">
        <ele>714.2</ele>
        <time>2025-12-11T14:31:00Z</time>
      </trkpt>
      <trkpt lat="45.75605" lon="4.62535">
        <ele>714.4</ele>
        <time>2025-12-11T14:31:01Z</time>
      </trkpt>
      <trkpt lat="45.75605" lon="4.62533">
        <ele>714.6</ele>
        <time>2025-12-11T14:31:02Z</time>
      </trkpt>
      <trkpt lat="45.75605" lon="4.62531">
        <ele>714.6</ele>
        <time>2025-12-11T14:31:03Z</time>
      </trkpt>
      <trkpt lat="45.75604" lon="4.62529">
        <ele>714.8</ele>
        <time>2025-12-11T14:31:04Z</time>
      </trkpt>
      <trkpt lat="45.75604" lon="4.62526">
        <ele>715</ele>
        <time>2025-12-11T14:31:05Z</time>
      </trkpt>
      <trkpt lat="45.75604" lon="4.62524">
        <ele>715.2</ele>
        <time>2025-12-11T14:31:06Z</time>
      </trkpt>
      <trkpt lat="45.75604" lon="4.62522">
        <ele>715.4</ele>
        <time>2025-12-11T14:31:07Z</time>
      </trkpt>
      <trkpt lat="45.75603" lon="4.6252">
        <ele>715.6</ele>
        <time>2025-12-11T14:31:08Z</time>
      </trkpt>
      <trkpt lat="45.75604" lon="4.62517">
        <ele>715.8</ele>
        <time>2025-12-11T14:31:09Z</time>
      </trkpt>
      <trkpt lat="45.75604" lon="4.62514">
        <ele>716</ele>
        <time>2025-12-11T14:31:10Z</time>
      </trkpt>
      <trkpt lat="45.75605" lon="4.6251">
        <ele>716.2</ele>
        <time>2025-12-11T14:31:11Z</time>
      </trkpt>
      <trkpt lat="45.75605" lon="4.62508">
        <ele>716.4</ele>
        <time>2025-12-11T14:31:12Z</time>
      </trkpt>
      <trkpt lat="45.75605" lon="4.62504">
        <ele>716.6</ele>
        <time>2025-12-11T14:31:13Z</time>
      </trkpt>
      <trkpt lat="45.75604" lon="4.62503">
        <ele>716.8</ele>
        <time>2025-12-11T14:31:14Z</time>
      </trkpt>
      <trkpt lat="45.75605" lon="4.62501">
        <ele>716.8</ele>
        <time>2025-12-11T14:31:15Z</time>
      </trkpt>
      <trkpt lat="45.75605" lon="4.62499">
        <ele>717</ele>
        <time>2025-12-11T14:31:16Z</time>
      </trkpt>
      <trkpt lat="45.75605" lon="4.62497">
        <ele>717.2</ele>
        <time>2025-12-11T14:31:17Z</time>
      </trkpt>
      <trkpt lat="45.75605" lon="4.62495">
        <ele>717.4</ele>
        <time>2025-12-11T14:31:18Z</time>
      </trkpt>
      <trkpt lat="45.75606" lon="4.62494">
        <ele>717.6</ele>
        <time>2025-12-11T14:31:19Z</time>
      </trkpt>
      <trkpt lat="45.75606" lon="4.62493">
        <ele>717.8</ele>
        <time>2025-12-11T14:31:20Z</time>
      </trkpt>
      <trkpt lat="45.75607" lon="4.62491">
        <ele>718</ele>
        <time>2025-12-11T14:31:21Z</time>
      </trkpt>
      <trkpt lat="45.75607" lon="4.6249">
        <ele>718.2</ele>
        <time>2025-12-11T14:31:22Z</time>
      </trkpt>
      <trkpt lat="45.75606" lon="4.62488">
        <ele>718.4</ele>
        <time>2025-12-11T14:31:23Z</time>
      </trkpt>
      <trkpt lat="45.75607" lon="4.62486">
        <ele>718.6</ele>
        <time>2025-12-11T14:31:24Z</time>
      </trkpt>
      <trkpt lat="45.75607" lon="4.62484">
        <ele>718.6</ele>
        <time>2025-12-11T14:31:25Z</time>
      </trkpt>
      <trkpt lat="45.75607" lon="4.62482">
        <ele>718.8</ele>
        <time>2025-12-11T14:31:26Z</time>
      </trkpt>
      <trkpt lat="45.75608" lon="4.6248">
        <ele>719</ele>
        <time>2025-12-11T14:31:27Z</time>
      </trkpt>
      <trkpt lat="45.75609" lon="4.62479">
        <ele>719.2</ele>
        <time>2025-12-11T14:31:28Z</time>
      </trkpt>
      <trkpt lat="45.75609" lon="4.62477">
        <ele>719.2</ele>
        <time>2025-12-11T14:31:29Z</time>
      </trkpt>
      <trkpt lat="45.75609" lon="4.62475">
        <ele>719.4</ele>
        <time>2025-12-11T14:31:30Z</time>
      </trkpt>
      <trkpt lat="45.75609" lon="4.62474">
        <ele>719.6</ele>
        <time>2025-12-11T14:31:31Z</time>
      </trkpt>
      <trkpt lat="45.75609" lon="4.62472">
        <ele>719.8</ele>
        <time>2025-12-11T14:31:32Z</time>
      </trkpt>
      <trkpt lat="45.75609" lon="4.62471">
        <ele>720</ele>
        <time>2025-12-11T14:31:33Z</time>
      </trkpt>
      <trkpt lat="45.75609" lon="4.62469">
        <ele>720.2</ele>
        <time>2025-12-11T14:31:34Z</time>
      </trkpt>
      <trkpt lat="45.75609" lon="4.62467">
        <ele>720.4</ele>
        <time>2025-12-11T14:31:35Z</time>
      </trkpt>
      <trkpt lat="45.75609" lon="4.62465">
        <ele>720.6</ele>
        <time>2025-12-11T14:31:36Z</time>
      </trkpt>
      <trkpt lat="45.75609" lon="4.62463">
        <ele>720.6</ele>
        <time>2025-12-11T14:31:37Z</time>
      </trkpt>
      <trkpt lat="45.75609" lon="4.62461">
        <ele>720.8</ele>
        <time>2025-12-11T14:31:38Z</time>
      </trkpt>
      <trkpt lat="45.75609" lon="4.6246">
        <ele>721</ele>
        <time>2025-12-11T14:31:39Z</time>
      </trkpt>
      <trkpt lat="45.7561" lon="4.62458">
        <ele>721.2</ele>
        <time>2025-12-11T14:31:40Z</time>
      </trkpt>
      <trkpt lat="45.75609" lon="4.62456">
        <ele>721.4</ele>
        <time>2025-12-11T14:31:41Z</time>
      </trkpt>
      <trkpt lat="45.75609" lon="4.62454">
        <ele>721.4</ele>
        <time>2025-12-11T14:31:42Z</time>
      </trkpt>
      <trkpt lat="45.75609" lon="4.62452">
        <ele>721.6</ele>
        <time>2025-12-11T14:31:43Z</time>
      </trkpt>
      <trkpt lat="45.7561" lon="4.62451">
        <ele>721.8</ele>
        <time>2025-12-11T14:31:44Z</time>
      </trkpt>
      <trkpt lat="45.7561" lon="4.62449">
        <ele>721.8</ele>
        <time>2025-12-11T14:31:45Z</time>
      </trkpt>
      <trkpt lat="45.7561" lon="4.62447">
        <ele>722</ele>
        <time>2025-12-11T14:31:46Z</time>
      </trkpt>
      <trkpt lat="45.75611" lon="4.62445">
        <ele>722.2</ele>
        <time>2025-12-11T14:31:47Z</time>
      </trkpt>
      <trkpt lat="45.75611" lon="4.62443">
        <ele>722.4</ele>
        <time>2025-12-11T14:31:48Z</time>
      </trkpt>
      <trkpt lat="45.75611" lon="4.62442">
        <ele>722.4</ele>
        <time>2025-12-11T14:31:49Z</time>
      </trkpt>
      <trkpt lat="45.75611" lon="4.6244">
        <ele>722.6</ele>
        <time>2025-12-11T14:31:50Z</time>
      </trkpt>
      <trkpt lat="45.75611" lon="4.62438">
        <ele>722.8</ele>
        <time>2025-12-11T14:31:51Z</time>
      </trkpt>
      <trkpt lat="45.75611" lon="4.62436">
        <ele>722.8</ele>
        <time>2025-12-11T14:31:52Z</time>
      </trkpt>
      <trkpt lat="45.75612" lon="4.62434">
        <ele>723</ele>
        <time>2025-12-11T14:31:53Z</time>
      </trkpt>
      <trkpt lat="45.75612" lon="4.62432">
        <ele>723.2</ele>
        <time>2025-12-11T14:31:54Z</time>
      </trkpt>
      <trkpt lat="45.75613" lon="4.6243">
        <ele>723.4</ele>
        <time>2025-12-11T14:31:55Z</time>
      </trkpt>
      <trkpt lat="45.75613" lon="4.62428">
        <ele>723.4</ele>
        <time>2025-12-11T14:31:56Z</time>
      </trkpt>
      <trkpt lat="45.75613" lon="4.62425">
        <ele>723.6</ele>
        <time>2025-12-11T14:31:57Z</time>
      </trkpt>
      <trkpt lat="45.75613" lon="4.62423">
        <ele>723.8</ele>
        <time>2025-12-11T14:31:58Z</time>
      </trkpt>
      <trkpt lat="45.75613" lon="4.6242">
        <ele>723.8</ele>
        <time>2025-12-11T14:31:59Z</time>
      </trkpt>
      <trkpt lat="45.75612" lon="4.62417">
        <ele>724</ele>
        <time>2025-12-11T14:32:00Z</time>
      </trkpt>
      <trkpt lat="45.75612" lon="4.62414">
        <ele>724.2</ele>
        <time>2025-12-11T14:32:01Z</time>
      </trkpt>
      <trkpt lat="45.75612" lon="4.62412">
        <ele>724.2</ele>
        <time>2025-12-11T14:32:02Z</time>
      </trkpt>
      <trkpt lat="45.75612" lon="4.62409">
        <ele>724.2</ele>
        <time>2025-12-11T14:32:03Z</time>
      </trkpt>
      <trkpt lat="45.75611" lon="4.62407">
        <ele>724.4</ele>
        <time>2025-12-11T14:32:04Z</time>
      </trkpt>
      <trkpt lat="45.7561" lon="4.62405">
        <ele>724.4</ele>
        <time>2025-12-11T14:32:05Z</time>
      </trkpt>
      <trkpt lat="45.75611" lon="4.62402">
        <ele>724.6</ele>
        <time>2025-12-11T14:32:06Z</time>
      </trkpt>
      <trkpt lat="45.75611" lon="4.62398">
        <ele>724.6</ele>
        <time>2025-12-11T14:32:07Z</time>
      </trkpt>
      <trkpt lat="45.7561" lon="4.62395">
        <ele>724.8</ele>
        <time>2025-12-11T14:32:08Z</time>
      </trkpt>
      <trkpt lat="45.75611" lon="4.62393">
        <ele>724.8</ele>
        <time>2025-12-11T14:32:09Z</time>
      </trkpt>
      <trkpt lat="45.7561" lon="4.62391">
        <ele>724.8</ele>
        <time>2025-12-11T14:32:10Z</time>
      </trkpt>
      <trkpt lat="45.7561" lon="4.62388">
        <ele>725</ele>
        <time>2025-12-11T14:32:11Z</time>
      </trkpt>
      <trkpt lat="45.7561" lon="4.62386">
        <ele>725</ele>
        <time>2025-12-11T14:32:12Z</time>
      </trkpt>
      <trkpt lat="45.7561" lon="4.62385">
        <ele>725.2</ele>
        <time>2025-12-11T14:32:13Z</time>
      </trkpt>
      <trkpt lat="45.75611" lon="4.62383">
        <ele>725.4</ele>
        <time>2025-12-11T14:32:14Z</time>
      </trkpt>
      <trkpt lat="45.7561" lon="4.6238">
        <ele>725.6</ele>
        <time>2025-12-11T14:32:15Z</time>
      </trkpt>
      <trkpt lat="45.75611" lon="4.62377">
        <ele>725.6</ele>
        <time>2025-12-11T14:32:16Z</time>
      </trkpt>
      <trkpt lat="45.75611" lon="4.62374">
        <ele>725.6</ele>
        <time>2025-12-11T14:32:17Z</time>
      </trkpt>
      <trkpt lat="45.75612" lon="4.6237">
        <ele>725.8</ele>
        <time>2025-12-11T14:32:18Z</time>
      </trkpt>
      <trkpt lat="45.75612" lon="4.62367">
        <ele>725.8</ele>
        <time>2025-12-11T14:32:19Z</time>
      </trkpt>
      <trkpt lat="45.75612" lon="4.62364">
        <ele>725.8</ele>
        <time>2025-12-11T14:32:20Z</time>
      </trkpt>
      <trkpt lat="45.75612" lon="4.6236">
        <ele>726</ele>
        <time>2025-12-11T14:32:21Z</time>
      </trkpt>
      <trkpt lat="45.75612" lon="4.62357">
        <ele>726</ele>
        <time>2025-12-11T14:32:22Z</time>
      </trkpt>
      <trkpt lat="45.75611" lon="4.62354">
        <ele>726.2</ele>
        <time>2025-12-11T14:32:23Z</time>
      </trkpt>
      <trkpt lat="45.75611" lon="4.62351">
        <ele>726.2</ele>
        <time>2025-12-11T14:32:24Z</time>
      </trkpt>
      <trkpt lat="45.7561" lon="4.62347">
        <ele>726.2</ele>
        <time>2025-12-11T14:32:25Z</time>
      </trkpt>
      <trkpt lat="45.7561" lon="4.62344">
        <ele>726.4</ele>
        <time>2025-12-11T14:32:26Z</time>
      </trkpt>
      <trkpt lat="45.75609" lon="4.62341">
        <ele>726.4</ele>
        <time>2025-12-11T14:32:27Z</time>
      </trkpt>
      <trkpt lat="45.75608" lon="4.62339">
        <ele>726.6</ele>
        <time>2025-12-11T14:32:28Z</time>
      </trkpt>
      <trkpt lat="45.75607" lon="4.62335">
        <ele>726.6</ele>
        <time>2025-12-11T14:32:29Z</time>
      </trkpt>
      <trkpt lat="45.75607" lon="4.62331">
        <ele>726.8</ele>
        <time>2025-12-11T14:32:30Z</time>
      </trkpt>
      <trkpt lat="45.75606" lon="4.62327">
        <ele>726.8</ele>
        <time>2025-12-11T14:32:31Z</time>
      </trkpt>
      <trkpt lat="45.75605" lon="4.62323">
        <ele>727</ele>
        <time>2025-12-11T14:32:32Z</time>
      </trkpt>
      <trkpt lat="45.75605" lon="4.6232">
        <ele>727</ele>
        <time>2025-12-11T14:32:33Z</time>
      </trkpt>
      <trkpt lat="45.75605" lon="4.62316">
        <ele>727.2</ele>
        <time>2025-12-11T14:32:34Z</time>
      </trkpt>
      <trkpt lat="45.75605" lon="4.62313">
        <ele>727.4</ele>
        <time>2025-12-11T14:32:35Z</time>
      </trkpt>
      <trkpt lat="45.75604" lon="4.62311">
        <ele>727.4</ele>
        <time>2025-12-11T14:32:36Z</time>
      </trkpt>
      <trkpt lat="45.75604" lon="4.62309">
        <ele>727.6</ele>
        <time>2025-12-11T14:32:37Z</time>
      </trkpt>
      <trkpt lat="45.75604" lon="4.62306">
        <ele>727.8</ele>
        <time>2025-12-11T14:32:38Z</time>
      </trkpt>
      <trkpt lat="45.75603" lon="4.62302">
        <ele>727.8</ele>
        <time>2025-12-11T14:32:39Z</time>
      </trkpt>
      <trkpt lat="45.75601" lon="4.62299">
        <ele>728</ele>
        <time>2025-12-11T14:32:40Z</time>
      </trkpt>
      <trkpt lat="45.756" lon="4.62295">
        <ele>728.2</ele>
        <time>2025-12-11T14:32:41Z</time>
      </trkpt>
      <trkpt lat="45.75599" lon="4.62292">
        <ele>728.2</ele>
        <time>2025-12-11T14:32:42Z</time>
      </trkpt>
      <trkpt lat="45.75599" lon="4.62289">
        <ele>728.4</ele>
        <time>2025-12-11T14:32:43Z</time>
      </trkpt>
      <trkpt lat="45.756" lon="4.62286">
        <ele>728.6</ele>
        <time>2025-12-11T14:32:44Z</time>
      </trkpt>
      <trkpt lat="45.75599" lon="4.62283">
        <ele>728.8</ele>
        <time>2025-12-11T14:32:45Z</time>
      </trkpt>
      <trkpt lat="45.75599" lon="4.62281">
        <ele>729</ele>
        <time>2025-12-11T14:32:46Z</time>
      </trkpt>
      <trkpt lat="45.75598" lon="4.62279">
        <ele>729.2</ele>
        <time>2025-12-11T14:32:47Z</time>
      </trkpt>
      <trkpt lat="45.75597" lon="4.62278">
        <ele>729.4</ele>
        <time>2025-12-11T14:32:48Z</time>
      </trkpt>
      <trkpt lat="45.75596" lon="4.62276">
        <ele>729.4</ele>
        <time>2025-12-11T14:32:49Z</time>
      </trkpt>
      <trkpt lat="45.75596" lon="4.62274">
        <ele>729.6</ele>
        <time>2025-12-11T14:32:50Z</time>
      </trkpt>
      <trkpt lat="45.75596" lon="4.62273">
        <ele>729.8</ele>
        <time>2025-12-11T14:32:51Z</time>
      </trkpt>
      <trkpt lat="45.75595" lon="4.62271">
        <ele>730</ele>
        <time>2025-12-11T14:32:52Z</time>
      </trkpt>
      <trkpt lat="45.75595" lon="4.62269">
        <ele>730.2</ele>
        <time>2025-12-11T14:32:53Z</time>
      </trkpt>
      <trkpt lat="45.75595" lon="4.62267">
        <ele>730.2</ele>
        <time>2025-12-11T14:32:54Z</time>
      </trkpt>
      <trkpt lat="45.75595" lon="4.62264">
        <ele>730.4</ele>
        <time>2025-12-11T14:32:55Z</time>
      </trkpt>
      <trkpt lat="45.75595" lon="4.62261">
        <ele>730.4</ele>
        <time>2025-12-11T14:32:56Z</time>
      </trkpt>
      <trkpt lat="45.75595" lon="4.62259">
        <ele>730.6</ele>
        <time>2025-12-11T14:32:57Z</time>
      </trkpt>
      <trkpt lat="45.75595" lon="4.62256">
        <ele>730.8</ele>
        <time>2025-12-11T14:32:58Z</time>
      </trkpt>
      <trkpt lat="45.75595" lon="4.62255">
        <ele>731</ele>
        <time>2025-12-11T14:32:59Z</time>
      </trkpt>
      <trkpt lat="45.75596" lon="4.62253">
        <ele>731.2</ele>
        <time>2025-12-11T14:33:00Z</time>
      </trkpt>
      <trkpt lat="45.75596" lon="4.62251">
        <ele>731.4</ele>
        <time>2025-12-11T14:33:01Z</time>
      </trkpt>
      <trkpt lat="45.75596" lon="4.62249">
        <ele>731.6</ele>
        <time>2025-12-11T14:33:02Z</time>
      </trkpt>
      <trkpt lat="45.75596" lon="4.62246">
        <ele>731.6</ele>
        <time>2025-12-11T14:33:03Z</time>
      </trkpt>
      <trkpt lat="45.75596" lon="4.62244">
        <ele>731.8</ele>
        <time>2025-12-11T14:33:04Z</time>
      </trkpt>
      <trkpt lat="45.75596" lon="4.62242">
        <ele>732</ele>
        <time>2025-12-11T14:33:05Z</time>
      </trkpt>
      <trkpt lat="45.75595" lon="4.62239">
        <ele>732.2</ele>
        <time>2025-12-11T14:33:06Z</time>
      </trkpt>
      <trkpt lat="45.75595" lon="4.62236">
        <ele>732.2</ele>
        <time>2025-12-11T14:33:07Z</time>
      </trkpt>
      <trkpt lat="45.75595" lon="4.62234">
        <ele>732.4</ele>
        <time>2025-12-11T14:33:08Z</time>
      </trkpt>
      <trkpt lat="45.75596" lon="4.62232">
        <ele>732.6</ele>
        <time>2025-12-11T14:33:09Z</time>
      </trkpt>
      <trkpt lat="45.75596" lon="4.62229">
        <ele>732.8</ele>
        <time>2025-12-11T14:33:10Z</time>
      </trkpt>
      <trkpt lat="45.75596" lon="4.62226">
        <ele>733</ele>
        <time>2025-12-11T14:33:11Z</time>
      </trkpt>
      <trkpt lat="45.75596" lon="4.62223">
        <ele>733.2</ele>
        <time>2025-12-11T14:33:12Z</time>
      </trkpt>
      <trkpt lat="45.75596" lon="4.6222">
        <ele>733.2</ele>
        <time>2025-12-11T14:33:13Z</time>
      </trkpt>
      <trkpt lat="45.75596" lon="4.62218">
        <ele>733.4</ele>
        <time>2025-12-11T14:33:14Z</time>
      </trkpt>
      <trkpt lat="45.75596" lon="4.62215">
        <ele>733.6</ele>
        <time>2025-12-11T14:33:15Z</time>
      </trkpt>
      <trkpt lat="45.75596" lon="4.62212">
        <ele>733.6</ele>
        <time>2025-12-11T14:33:16Z</time>
      </trkpt>
      <trkpt lat="45.75596" lon="4.6221">
        <ele>733.8</ele>
        <time>2025-12-11T14:33:17Z</time>
      </trkpt>
      <trkpt lat="45.75595" lon="4.62207">
        <ele>734</ele>
        <time>2025-12-11T14:33:18Z</time>
      </trkpt>
      <trkpt lat="45.75595" lon="4.62205">
        <ele>734.2</ele>
        <time>2025-12-11T14:33:19Z</time>
      </trkpt>
      <trkpt lat="45.75595" lon="4.62202">
        <ele>734.4</ele>
        <time>2025-12-11T14:33:20Z</time>
      </trkpt>
      <trkpt lat="45.75595" lon="4.622">
        <ele>734.6</ele>
        <time>2025-12-11T14:33:21Z</time>
      </trkpt>
      <trkpt lat="45.75595" lon="4.62198">
        <ele>734.8</ele>
        <time>2025-12-11T14:33:22Z</time>
      </trkpt>
      <trkpt lat="45.75595" lon="4.62196">
        <ele>735</ele>
        <time>2025-12-11T14:33:23Z</time>
      </trkpt>
      <trkpt lat="45.75595" lon="4.62194">
        <ele>735</ele>
        <time>2025-12-11T14:33:24Z</time>
      </trkpt>
      <trkpt lat="45.75595" lon="4.62192">
        <ele>735.2</ele>
        <time>2025-12-11T14:33:25Z</time>
      </trkpt>
      <trkpt lat="45.75594" lon="4.6219">
        <ele>735.4</ele>
        <time>2025-12-11T14:33:26Z</time>
      </trkpt>
      <trkpt lat="45.75595" lon="4.62188">
        <ele>735.6</ele>
        <time>2025-12-11T14:33:27Z</time>
      </trkpt>
      <trkpt lat="45.75594" lon="4.62186">
        <ele>735.6</ele>
        <time>2025-12-11T14:33:28Z</time>
      </trkpt>
      <trkpt lat="45.75594" lon="4.62184">
        <ele>735.8</ele>
        <time>2025-12-11T14:33:29Z</time>
      </trkpt>
      <trkpt lat="45.75594" lon="4.62182">
        <ele>736</ele>
        <time>2025-12-11T14:33:30Z</time>
      </trkpt>
      <trkpt lat="45.75594" lon="4.6218">
        <ele>736.2</ele>
        <time>2025-12-11T14:33:31Z</time>
      </trkpt>
      <trkpt lat="45.75594" lon="4.62179">
        <ele>736.4</ele>
        <time>2025-12-11T14:33:32Z</time>
      </trkpt>
      <trkpt lat="45.75594" lon="4.62177">
        <ele>736.4</ele>
        <time>2025-12-11T14:33:33Z</time>
      </trkpt>
      <trkpt lat="45.75595" lon="4.62176">
        <ele>736.6</ele>
        <time>2025-12-11T14:33:34Z</time>
      </trkpt>
      <trkpt lat="45.75595" lon="4.62173">
        <ele>736.6</ele>
        <time>2025-12-11T14:33:35Z</time>
      </trkpt>
      <trkpt lat="45.75595" lon="4.62171">
        <ele>736.8</ele>
        <time>2025-12-11T14:33:36Z</time>
      </trkpt>
      <trkpt lat="45.75595" lon="4.6217">
        <ele>737</ele>
        <time>2025-12-11T14:33:37Z</time>
      </trkpt>
      <trkpt lat="45.75595" lon="4.62167">
        <ele>737</ele>
        <time>2025-12-11T14:33:38Z</time>
      </trkpt>
      <trkpt lat="45.75595" lon="4.62166">
        <ele>737.2</ele>
        <time>2025-12-11T14:33:39Z</time>
      </trkpt>
      <trkpt lat="45.75595" lon="4.62164">
        <ele>737.4</ele>
        <time>2025-12-11T14:33:40Z</time>
      </trkpt>
      <trkpt lat="45.75595" lon="4.62162">
        <ele>737.6</ele>
        <time>2025-12-11T14:33:41Z</time>
      </trkpt>
      <trkpt lat="45.75595" lon="4.6216">
        <ele>737.6</ele>
        <time>2025-12-11T14:33:42Z</time>
      </trkpt>
      <trkpt lat="45.75595" lon="4.62157">
        <ele>737.8</ele>
        <time>2025-12-11T14:33:43Z</time>
      </trkpt>
      <trkpt lat="45.75595" lon="4.62155">
        <ele>738</ele>
        <time>2025-12-11T14:33:44Z</time>
      </trkpt>
      <trkpt lat="45.75595" lon="4.62153">
        <ele>738.2</ele>
        <time>2025-12-11T14:33:45Z</time>
      </trkpt>
      <trkpt lat="45.75595" lon="4.62151">
        <ele>738.4</ele>
        <time>2025-12-11T14:33:46Z</time>
      </trkpt>
      <trkpt lat="45.75595" lon="4.6215">
        <ele>738.6</ele>
        <time>2025-12-11T14:33:47Z</time>
      </trkpt>
      <trkpt lat="45.75595" lon="4.62148">
        <ele>738.6</ele>
        <time>2025-12-11T14:33:48Z</time>
      </trkpt>
      <trkpt lat="45.75595" lon="4.62146">
        <ele>738.8</ele>
        <time>2025-12-11T14:33:49Z</time>
      </trkpt>
      <trkpt lat="45.75595" lon="4.62144">
        <ele>739</ele>
        <time>2025-12-11T14:33:50Z</time>
      </trkpt>
      <trkpt lat="45.75595" lon="4.62142">
        <ele>739.2</ele>
        <time>2025-12-11T14:33:51Z</time>
      </trkpt>
      <trkpt lat="45.75595" lon="4.62139">
        <ele>739.4</ele>
        <time>2025-12-11T14:33:52Z</time>
      </trkpt>
      <trkpt lat="45.75595" lon="4.62137">
        <ele>739.4</ele>
        <time>2025-12-11T14:33:53Z</time>
      </trkpt>
      <trkpt lat="45.75595" lon="4.62135">
        <ele>739.6</ele>
        <time>2025-12-11T14:33:54Z</time>
      </trkpt>
      <trkpt lat="45.75596" lon="4.62133">
        <ele>739.8</ele>
        <time>2025-12-11T14:33:55Z</time>
      </trkpt>
      <trkpt lat="45.75596" lon="4.62131">
        <ele>740</ele>
        <time>2025-12-11T14:33:56Z</time>
      </trkpt>
      <trkpt lat="45.75596" lon="4.6213">
        <ele>740.2</ele>
        <time>2025-12-11T14:33:57Z</time>
      </trkpt>
      <trkpt lat="45.75596" lon="4.62128">
        <ele>740.2</ele>
        <time>2025-12-11T14:33:58Z</time>
      </trkpt>
      <trkpt lat="45.75596" lon="4.62126">
        <ele>740.4</ele>
        <time>2025-12-11T14:33:59Z</time>
      </trkpt>
      <trkpt lat="45.75596" lon="4.62124">
        <ele>740.6</ele>
        <time>2025-12-11T14:34:00Z</time>
      </trkpt>
      <trkpt lat="45.75597" lon="4.62122">
        <ele>740.8</ele>
        <time>2025-12-11T14:34:01Z</time>
      </trkpt>
      <trkpt lat="45.75597" lon="4.6212">
        <ele>741</ele>
        <time>2025-12-11T14:34:02Z</time>
      </trkpt>
      <trkpt lat="45.75597" lon="4.62118">
        <ele>741.2</ele>
        <time>2025-12-11T14:34:03Z</time>
      </trkpt>
      <trkpt lat="45.75598" lon="4.62116">
        <ele>741.4</ele>
        <time>2025-12-11T14:34:04Z</time>
      </trkpt>
      <trkpt lat="45.75598" lon="4.62115">
        <ele>741.4</ele>
        <time>2025-12-11T14:34:05Z</time>
      </trkpt>
      <trkpt lat="45.75598" lon="4.62113">
        <ele>741.6</ele>
        <time>2025-12-11T14:34:06Z</time>
      </trkpt>
      <trkpt lat="45.75598" lon="4.62111">
        <ele>741.8</ele>
        <time>2025-12-11T14:34:07Z</time>
      </trkpt>
      <trkpt lat="45.75598" lon="4.62109">
        <ele>742</ele>
        <time>2025-12-11T14:34:08Z</time>
      </trkpt>
      <trkpt lat="45.75597" lon="4.62107">
        <ele>742</ele>
        <time>2025-12-11T14:34:09Z</time>
      </trkpt>
      <trkpt lat="45.75598" lon="4.62105">
        <ele>742.2</ele>
        <time>2025-12-11T14:34:10Z</time>
      </trkpt>
      <trkpt lat="45.75598" lon="4.62104">
        <ele>742.4</ele>
        <time>2025-12-11T14:34:11Z</time>
      </trkpt>
      <trkpt lat="45.75599" lon="4.62102">
        <ele>742.4</ele>
        <time>2025-12-11T14:34:12Z</time>
      </trkpt>
      <trkpt lat="45.75599" lon="4.621">
        <ele>742.6</ele>
        <time>2025-12-11T14:34:13Z</time>
      </trkpt>
      <trkpt lat="45.75599" lon="4.62098">
        <ele>742.8</ele>
        <time>2025-12-11T14:34:14Z</time>
      </trkpt>
      <trkpt lat="45.75599" lon="4.62096">
        <ele>742.8</ele>
        <time>2025-12-11T14:34:15Z</time>
      </trkpt>
      <trkpt lat="45.75599" lon="4.62094">
        <ele>743</ele>
        <time>2025-12-11T14:34:16Z</time>
      </trkpt>
      <trkpt lat="45.75598" lon="4.62092">
        <ele>743.2</ele>
        <time>2025-12-11T14:34:17Z</time>
      </trkpt>
      <trkpt lat="45.75598" lon="4.6209">
        <ele>743.2</ele>
        <time>2025-12-11T14:34:18Z</time>
      </trkpt>
      <trkpt lat="45.75599" lon="4.62088">
        <ele>743.4</ele>
        <time>2025-12-11T14:34:19Z</time>
      </trkpt>
      <trkpt lat="45.75599" lon="4.62087">
        <ele>743.6</ele>
        <time>2025-12-11T14:34:20Z</time>
      </trkpt>
      <trkpt lat="45.75599" lon="4.62085">
        <ele>743.8</ele>
        <time>2025-12-11T14:34:21Z</time>
      </trkpt>
      <trkpt lat="45.75599" lon="4.62083">
        <ele>744</ele>
        <time>2025-12-11T14:34:22Z</time>
      </trkpt>
      <trkpt lat="45.75599" lon="4.62081">
        <ele>744</ele>
        <time>2025-12-11T14:34:23Z</time>
      </trkpt>
      <trkpt lat="45.756" lon="4.62079">
        <ele>744.2</ele>
        <time>2025-12-11T14:34:24Z</time>
      </trkpt>
      <trkpt lat="45.75599" lon="4.62077">
        <ele>744.4</ele>
        <time>2025-12-11T14:34:25Z</time>
      </trkpt>
      <trkpt lat="45.756" lon="4.62075">
        <ele>744.6</ele>
        <time>2025-12-11T14:34:26Z</time>
      </trkpt>
      <trkpt lat="45.756" lon="4.62073">
        <ele>744.6</ele>
        <time>2025-12-11T14:34:27Z</time>
      </trkpt>
      <trkpt lat="45.756" lon="4.62071">
        <ele>744.8</ele>
        <time>2025-12-11T14:34:28Z</time>
      </trkpt>
      <trkpt lat="45.756" lon="4.62069">
        <ele>744.8</ele>
        <time>2025-12-11T14:34:29Z</time>
      </trkpt>
      <trkpt lat="45.756" lon="4.62066">
        <ele>745</ele>
        <time>2025-12-11T14:34:30Z</time>
      </trkpt>
      <trkpt lat="45.756" lon="4.62064">
        <ele>745</ele>
        <time>2025-12-11T14:34:31Z</time>
      </trkpt>
      <trkpt lat="45.756" lon="4.62061">
        <ele>745.2</ele>
        <time>2025-12-11T14:34:32Z</time>
      </trkpt>
      <trkpt lat="45.756" lon="4.62059">
        <ele>745.2</ele>
        <time>2025-12-11T14:34:33Z</time>
      </trkpt>
      <trkpt lat="45.756" lon="4.62056">
        <ele>745.4</ele>
        <time>2025-12-11T14:34:34Z</time>
      </trkpt>
      <trkpt lat="45.756" lon="4.62053">
        <ele>745.4</ele>
        <time>2025-12-11T14:34:35Z</time>
      </trkpt>
      <trkpt lat="45.756" lon="4.62051">
        <ele>745.6</ele>
        <time>2025-12-11T14:34:36Z</time>
      </trkpt>
      <trkpt lat="45.756" lon="4.62049">
        <ele>745.6</ele>
        <time>2025-12-11T14:34:37Z</time>
      </trkpt>
      <trkpt lat="45.756" lon="4.62046">
        <ele>745.8</ele>
        <time>2025-12-11T14:34:38Z</time>
      </trkpt>
      <trkpt lat="45.756" lon="4.62044">
        <ele>745.8</ele>
        <time>2025-12-11T14:34:39Z</time>
      </trkpt>
      <trkpt lat="45.756" lon="4.62042">
        <ele>746</ele>
        <time>2025-12-11T14:34:40Z</time>
      </trkpt>
      <trkpt lat="45.756" lon="4.62039">
        <ele>746.2</ele>
        <time>2025-12-11T14:34:41Z</time>
      </trkpt>
      <trkpt lat="45.756" lon="4.62037">
        <ele>746.2</ele>
        <time>2025-12-11T14:34:42Z</time>
      </trkpt>
      <trkpt lat="45.756" lon="4.62035">
        <ele>746.4</ele>
        <time>2025-12-11T14:34:43Z</time>
      </trkpt>
      <trkpt lat="45.756" lon="4.62032">
        <ele>746.4</ele>
        <time>2025-12-11T14:34:44Z</time>
      </trkpt>
      <trkpt lat="45.756" lon="4.62029">
        <ele>746.4</ele>
        <time>2025-12-11T14:34:45Z</time>
      </trkpt>
      <trkpt lat="45.756" lon="4.62027">
        <ele>746.6</ele>
        <time>2025-12-11T14:34:46Z</time>
      </trkpt>
      <trkpt lat="45.756" lon="4.62024">
        <ele>746.6</ele>
        <time>2025-12-11T14:34:47Z</time>
      </trkpt>
      <trkpt lat="45.756" lon="4.62021">
        <ele>746.8</ele>
        <time>2025-12-11T14:34:48Z</time>
      </trkpt>
      <trkpt lat="45.756" lon="4.62018">
        <ele>746.8</ele>
        <time>2025-12-11T14:34:49Z</time>
      </trkpt>
      <trkpt lat="45.756" lon="4.62016">
        <ele>746.8</ele>
        <time>2025-12-11T14:34:50Z</time>
      </trkpt>
      <trkpt lat="45.756" lon="4.62013">
        <ele>747</ele>
        <time>2025-12-11T14:34:51Z</time>
      </trkpt>
      <trkpt lat="45.75599" lon="4.6201">
        <ele>747</ele>
        <time>2025-12-11T14:34:52Z</time>
      </trkpt>
      <trkpt lat="45.75599" lon="4.62008">
        <ele>747.2</ele>
        <time>2025-12-11T14:34:53Z</time>
      </trkpt>
      <trkpt lat="45.756" lon="4.62005">
        <ele>747.2</ele>
        <time>2025-12-11T14:34:54Z</time>
      </trkpt>
      <trkpt lat="45.75599" lon="4.62002">
        <ele>747.4</ele>
        <time>2025-12-11T14:34:55Z</time>
      </trkpt>
      <trkpt lat="45.75599" lon="4.61999">
        <ele>747.4</ele>
        <time>2025-12-11T14:34:56Z</time>
      </trkpt>
      <trkpt lat="45.75599" lon="4.61996">
        <ele>747.6</ele>
        <time>2025-12-11T14:34:57Z</time>
      </trkpt>
      <trkpt lat="45.75599" lon="4.61993">
        <ele>747.6</ele>
        <time>2025-12-11T14:34:58Z</time>
      </trkpt>
      <trkpt lat="45.75599" lon="4.61991">
        <ele>747.6</ele>
        <time>2025-12-11T14:34:59Z</time>
      </trkpt>
      <trkpt lat="45.75599" lon="4.61988">
        <ele>747.8</ele>
        <time>2025-12-11T14:35:00Z</time>
      </trkpt>
      <trkpt lat="45.75599" lon="4.61986">
        <ele>748</ele>
        <time>2025-12-11T14:35:01Z</time>
      </trkpt>
      <trkpt lat="45.75599" lon="4.61983">
        <ele>748</ele>
        <time>2025-12-11T14:35:02Z</time>
      </trkpt>
      <trkpt lat="45.75599" lon="4.6198">
        <ele>748.2</ele>
        <time>2025-12-11T14:35:03Z</time>
      </trkpt>
      <trkpt lat="45.75599" lon="4.61977">
        <ele>748.2</ele>
        <time>2025-12-11T14:35:04Z</time>
      </trkpt>
      <trkpt lat="45.75599" lon="4.61974">
        <ele>748.4</ele>
        <time>2025-12-11T14:35:05Z</time>
      </trkpt>
      <trkpt lat="45.75599" lon="4.61971">
        <ele>748.4</ele>
        <time>2025-12-11T14:35:06Z</time>
      </trkpt>
      <trkpt lat="45.75599" lon="4.61968">
        <ele>748.6</ele>
        <time>2025-12-11T14:35:07Z</time>
      </trkpt>
      <trkpt lat="45.75599" lon="4.61965">
        <ele>748.6</ele>
        <time>2025-12-11T14:35:08Z</time>
      </trkpt>
      <trkpt lat="45.75599" lon="4.61962">
        <ele>748.8</ele>
        <time>2025-12-11T14:35:09Z</time>
      </trkpt>
      <trkpt lat="45.75599" lon="4.61959">
        <ele>748.8</ele>
        <time>2025-12-11T14:35:10Z</time>
      </trkpt>
      <trkpt lat="45.75599" lon="4.61956">
        <ele>749</ele>
        <time>2025-12-11T14:35:11Z</time>
      </trkpt>
      <trkpt lat="45.75599" lon="4.61953">
        <ele>749</ele>
        <time>2025-12-11T14:35:12Z</time>
      </trkpt>
      <trkpt lat="45.75598" lon="4.6195">
        <ele>749.2</ele>
        <time>2025-12-11T14:35:13Z</time>
      </trkpt>
      <trkpt lat="45.75598" lon="4.61947">
        <ele>749.4</ele>
        <time>2025-12-11T14:35:14Z</time>
      </trkpt>
      <trkpt lat="45.75598" lon="4.61945">
        <ele>749.4</ele>
        <time>2025-12-11T14:35:15Z</time>
      </trkpt>
      <trkpt lat="45.75598" lon="4.61942">
        <ele>749.6</ele>
        <time>2025-12-11T14:35:16Z</time>
      </trkpt>
      <trkpt lat="45.75598" lon="4.61939">
        <ele>749.8</ele>
        <time>2025-12-11T14:35:17Z</time>
      </trkpt>
      <trkpt lat="45.75597" lon="4.61936">
        <ele>749.8</ele>
        <time>2025-12-11T14:35:18Z</time>
      </trkpt>
      <trkpt lat="45.75597" lon="4.61933">
        <ele>750</ele>
        <time>2025-12-11T14:35:19Z</time>
      </trkpt>
      <trkpt lat="45.75597" lon="4.6193">
        <ele>750.2</ele>
        <time>2025-12-11T14:35:20Z</time>
      </trkpt>
      <trkpt lat="45.75598" lon="4.61927">
        <ele>750.4</ele>
        <time>2025-12-11T14:35:21Z</time>
      </trkpt>
      <trkpt lat="45.75598" lon="4.61925">
        <ele>750.4</ele>
        <time>2025-12-11T14:35:22Z</time>
      </trkpt>
      <trkpt lat="45.75598" lon="4.61922">
        <ele>750.6</ele>
        <time>2025-12-11T14:35:23Z</time>
      </trkpt>
      <trkpt lat="45.75598" lon="4.61919">
        <ele>750.6</ele>
        <time>2025-12-11T14:35:24Z</time>
      </trkpt>
      <trkpt lat="45.75598" lon="4.61916">
        <ele>750.8</ele>
        <time>2025-12-11T14:35:25Z</time>
      </trkpt>
      <trkpt lat="45.75597" lon="4.61913">
        <ele>751</ele>
        <time>2025-12-11T14:35:26Z</time>
      </trkpt>
      <trkpt lat="45.75597" lon="4.61909">
        <ele>751</ele>
        <time>2025-12-11T14:35:27Z</time>
      </trkpt>
      <trkpt lat="45.75597" lon="4.61906">
        <ele>751</ele>
        <time>2025-12-11T14:35:28Z</time>
      </trkpt>
      <trkpt lat="45.75597" lon="4.61903">
        <ele>751.2</ele>
        <time>2025-12-11T14:35:29Z</time>
      </trkpt>
      <trkpt lat="45.75597" lon="4.619">
        <ele>751.2</ele>
        <time>2025-12-11T14:35:30Z</time>
      </trkpt>
      <trkpt lat="45.75597" lon="4.61897">
        <ele>751.2</ele>
        <time>2025-12-11T14:35:31Z</time>
      </trkpt>
      <trkpt lat="45.75597" lon="4.61895">
        <ele>751.4</ele>
        <time>2025-12-11T14:35:32Z</time>
      </trkpt>
      <trkpt lat="45.75597" lon="4.61892">
        <ele>751.4</ele>
        <time>2025-12-11T14:35:33Z</time>
      </trkpt>
      <trkpt lat="45.75597" lon="4.61889">
        <ele>751.6</ele>
        <time>2025-12-11T14:35:34Z</time>
      </trkpt>
      <trkpt lat="45.75597" lon="4.61886">
        <ele>751.8</ele>
        <time>2025-12-11T14:35:35Z</time>
      </trkpt>
      <trkpt lat="45.75597" lon="4.61883">
        <ele>751.8</ele>
        <time>2025-12-11T14:35:36Z</time>
      </trkpt>
      <trkpt lat="45.75597" lon="4.6188">
        <ele>752</ele>
        <time>2025-12-11T14:35:37Z</time>
      </trkpt>
      <trkpt lat="45.75596" lon="4.61877">
        <ele>752</ele>
        <time>2025-12-11T14:35:38Z</time>
      </trkpt>
      <trkpt lat="45.75596" lon="4.61874">
        <ele>752.2</ele>
        <time>2025-12-11T14:35:39Z</time>
      </trkpt>
      <trkpt lat="45.75596" lon="4.61872">
        <ele>752.4</ele>
        <time>2025-12-11T14:35:40Z</time>
      </trkpt>
      <trkpt lat="45.75596" lon="4.61869">
        <ele>752.4</ele>
        <time>2025-12-11T14:35:41Z</time>
      </trkpt>
      <trkpt lat="45.75596" lon="4.61866">
        <ele>752.6</ele>
        <time>2025-12-11T14:35:42Z</time>
      </trkpt>
      <trkpt lat="45.75596" lon="4.61864">
        <ele>752.6</ele>
        <time>2025-12-11T14:35:43Z</time>
      </trkpt>
      <trkpt lat="45.75596" lon="4.61861">
        <ele>752.8</ele>
        <time>2025-12-11T14:35:44Z</time>
      </trkpt>
      <trkpt lat="45.75595" lon="4.61859">
        <ele>753</ele>
        <time>2025-12-11T14:35:45Z</time>
      </trkpt>
      <trkpt lat="45.75595" lon="4.61856">
        <ele>753</ele>
        <time>2025-12-11T14:35:46Z</time>
      </trkpt>
      <trkpt lat="45.75594" lon="4.61854">
        <ele>753.2</ele>
        <time>2025-12-11T14:35:47Z</time>
      </trkpt>
      <trkpt lat="45.75594" lon="4.61851">
        <ele>753.4</ele>
        <time>2025-12-11T14:35:48Z</time>
      </trkpt>
      <trkpt lat="45.75594" lon="4.61848">
        <ele>753.4</ele>
        <time>2025-12-11T14:35:49Z</time>
      </trkpt>
      <trkpt lat="45.75594" lon="4.61845">
        <ele>753.6</ele>
        <time>2025-12-11T14:35:50Z</time>
      </trkpt>
      <trkpt lat="45.75594" lon="4.61843">
        <ele>753.8</ele>
        <time>2025-12-11T14:35:51Z</time>
      </trkpt>
      <trkpt lat="45.75595" lon="4.6184">
        <ele>753.8</ele>
        <time>2025-12-11T14:35:52Z</time>
      </trkpt>
      <trkpt lat="45.75595" lon="4.61838">
        <ele>754</ele>
        <time>2025-12-11T14:35:53Z</time>
      </trkpt>
      <trkpt lat="45.75596" lon="4.61836">
        <ele>754.2</ele>
        <time>2025-12-11T14:35:54Z</time>
      </trkpt>
      <trkpt lat="45.75596" lon="4.61833">
        <ele>754.4</ele>
        <time>2025-12-11T14:35:55Z</time>
      </trkpt>
      <trkpt lat="45.75596" lon="4.61831">
        <ele>754.4</ele>
        <time>2025-12-11T14:35:56Z</time>
      </trkpt>
      <trkpt lat="45.75597" lon="4.61829">
        <ele>754.6</ele>
        <time>2025-12-11T14:35:57Z</time>
      </trkpt>
      <trkpt lat="45.75597" lon="4.61826">
        <ele>754.8</ele>
        <time>2025-12-11T14:35:58Z</time>
      </trkpt>
      <trkpt lat="45.75598" lon="4.61823">
        <ele>755</ele>
        <time>2025-12-11T14:35:59Z</time>
      </trkpt>
      <trkpt lat="45.75598" lon="4.61821">
        <ele>755.2</ele>
        <time>2025-12-11T14:36:00Z</time>
      </trkpt>
      <trkpt lat="45.75599" lon="4.6182">
        <ele>755.2</ele>
        <time>2025-12-11T14:36:01Z</time>
      </trkpt>
      <trkpt lat="45.756" lon="4.61817">
        <ele>755.4</ele>
        <time>2025-12-11T14:36:02Z</time>
      </trkpt>
      <trkpt lat="45.75601" lon="4.61815">
        <ele>755.4</ele>
        <time>2025-12-11T14:36:03Z</time>
      </trkpt>
      <trkpt lat="45.75602" lon="4.61813">
        <ele>755.6</ele>
        <time>2025-12-11T14:36:04Z</time>
      </trkpt>
      <trkpt lat="45.75603" lon="4.61811">
        <ele>755.6</ele>
        <time>2025-12-11T14:36:05Z</time>
      </trkpt>
      <trkpt lat="45.75603" lon="4.61809">
        <ele>755.8</ele>
        <time>2025-12-11T14:36:06Z</time>
      </trkpt>
      <trkpt lat="45.75604" lon="4.61807">
        <ele>755.8</ele>
        <time>2025-12-11T14:36:07Z</time>
      </trkpt>
      <trkpt lat="45.75605" lon="4.61805">
        <ele>756</ele>
        <time>2025-12-11T14:36:08Z</time>
      </trkpt>
      <trkpt lat="45.75606" lon="4.61803">
        <ele>756</ele>
        <time>2025-12-11T14:36:09Z</time>
      </trkpt>
      <trkpt lat="45.75607" lon="4.61801">
        <ele>756.2</ele>
        <time>2025-12-11T14:36:10Z</time>
      </trkpt>
      <trkpt lat="45.75608" lon="4.61799">
        <ele>756.2</ele>
        <time>2025-12-11T14:36:11Z</time>
      </trkpt>
      <trkpt lat="45.75608" lon="4.61797">
        <ele>756.4</ele>
        <time>2025-12-11T14:36:12Z</time>
      </trkpt>
      <trkpt lat="45.75609" lon="4.61795">
        <ele>756.6</ele>
        <time>2025-12-11T14:36:13Z</time>
      </trkpt>
      <trkpt lat="45.7561" lon="4.61792">
        <ele>756.6</ele>
        <time>2025-12-11T14:36:14Z</time>
      </trkpt>
      <trkpt lat="45.75612" lon="4.6179">
        <ele>756.8</ele>
        <time>2025-12-11T14:36:15Z</time>
      </trkpt>
      <trkpt lat="45.75613" lon="4.61788">
        <ele>756.8</ele>
        <time>2025-12-11T14:36:16Z</time>
      </trkpt>
      <trkpt lat="45.75615" lon="4.61786">
        <ele>756.8</ele>
        <time>2025-12-11T14:36:17Z</time>
      </trkpt>
      <trkpt lat="45.75616" lon="4.61784">
        <ele>757</ele>
        <time>2025-12-11T14:36:18Z</time>
      </trkpt>
      <trkpt lat="45.75617" lon="4.61782">
        <ele>757</ele>
        <time>2025-12-11T14:36:19Z</time>
      </trkpt>
      <trkpt lat="45.75618" lon="4.6178">
        <ele>757.2</ele>
        <time>2025-12-11T14:36:20Z</time>
      </trkpt>
      <trkpt lat="45.75619" lon="4.61778">
        <ele>757.2</ele>
        <time>2025-12-11T14:36:21Z</time>
      </trkpt>
      <trkpt lat="45.7562" lon="4.61777">
        <ele>757.2</ele>
        <time>2025-12-11T14:36:22Z</time>
      </trkpt>
      <trkpt lat="45.75622" lon="4.61776">
        <ele>757.2</ele>
        <time>2025-12-11T14:36:23Z</time>
      </trkpt>
      <trkpt lat="45.75624" lon="4.61776">
        <ele>757.4</ele>
        <time>2025-12-11T14:36:24Z</time>
      </trkpt>
      <trkpt lat="45.75625" lon="4.61776">
        <ele>757.4</ele>
        <time>2025-12-11T14:36:25Z</time>
      </trkpt>
      <trkpt lat="45.75626" lon="4.61776">
        <ele>757.4</ele>
        <time>2025-12-11T14:36:26Z</time>
      </trkpt>
      <trkpt lat="45.75626" lon="4.61777">
        <ele>757.6</ele>
        <time>2025-12-11T14:36:27Z</time>
      </trkpt>
      <trkpt lat="45.75627" lon="4.61779">
        <ele>757.6</ele>
        <time>2025-12-11T14:36:28Z</time>
      </trkpt>
      <trkpt lat="45.75627" lon="4.6178">
        <ele>757.6</ele>
        <time>2025-12-11T14:36:29Z</time>
      </trkpt>
      <trkpt lat="45.75628" lon="4.6178">
        <ele>757.6</ele>
        <time>2025-12-11T14:36:30Z</time>
      </trkpt>
      <trkpt lat="45.75628" lon="4.6178">
        <ele>757.6</ele>
        <time>2025-12-11T14:36:31Z</time>
      </trkpt>
      <trkpt lat="45.75628" lon="4.6178">
        <ele>757.6</ele>
        <time>2025-12-11T14:36:32Z</time>
      </trkpt>
      <trkpt lat="45.75628" lon="4.6178">
        <ele>757.6</ele>
        <time>2025-12-11T14:36:33Z</time>
      </trkpt>
      <trkpt lat="45.75628" lon="4.6178">
        <ele>757.6</ele>
        <time>2025-12-11T14:36:34Z</time>
      </trkpt>
      <trkpt lat="45.75628" lon="4.6178">
        <ele>757.6</ele>
        <time>2025-12-11T14:36:35Z</time>
      </trkpt>
      <trkpt lat="45.75628" lon="4.6178">
        <ele>757.6</ele>
        <time>2025-12-11T14:36:36Z</time>
      </trkpt>
      <trkpt lat="45.75628" lon="4.6178">
        <ele>757.6</ele>
        <time>2025-12-11T14:36:37Z</time>
      </trkpt>
      <trkpt lat="45.75628" lon="4.6178">
        <ele>757.6</ele>
        <time>2025-12-11T14:36:38Z</time>
      </trkpt>
      <trkpt lat="45.75628" lon="4.6178">
        <ele>757.6</ele>
        <time>2025-12-11T14:36:39Z</time>
      </trkpt>
      <trkpt lat="45.75628" lon="4.6178">
        <ele>757.6</ele>
        <time>2025-12-11T14:36:40Z</time>
      </trkpt>
      <trkpt lat="45.75628" lon="4.6178">
        <ele>757.6</ele>
        <time>2025-12-11T14:36:41Z</time>
      </trkpt>
      <trkpt lat="45.75628" lon="4.6178">
        <ele>757.6</ele>
        <time>2025-12-11T14:36:42Z</time>
      </trkpt>
      <trkpt lat="45.75628" lon="4.6178">
        <ele>757.6</ele>
        <time>2025-12-11T14:36:43Z</time>
      </trkpt>
      <trkpt lat="45.75628" lon="4.6178">
        <ele>757.6</ele>
        <time>2025-12-11T14:36:44Z</time>
      </trkpt>
      <trkpt lat="45.75628" lon="4.6178">
        <ele>757.6</ele>
        <time>2025-12-11T14:36:45Z</time>
      </trkpt>
      <trkpt lat="45.75628" lon="4.6178">
        <ele>757.6</ele>
        <time>2025-12-11T14:36:46Z</time>
      </trkpt>
      <trkpt lat="45.75628" lon="4.6178">
        <ele>757.6</ele>
        <time>2025-12-11T14:36:47Z</time>
      </trkpt>
      <trkpt lat="45.75628" lon="4.6178">
        <ele>757.6</ele>
        <time>2025-12-11T14:36:48Z</time>
      </trkpt>
      <trkpt lat="45.75628" lon="4.6178">
        <ele>757.6</ele>
        <time>2025-12-11T14:36:49Z</time>
      </trkpt>
      <trkpt lat="45.75628" lon="4.6178">
        <ele>757.6</ele>
        <time>2025-12-11T14:36:50Z</time>
      </trkpt>
      <trkpt lat="45.75628" lon="4.6178">
        <ele>757.6</ele>
        <time>2025-12-11T14:36:51Z</time>
      </trkpt>
      <trkpt lat="45.75628" lon="4.6178">
        <ele>757.6</ele>
        <time>2025-12-11T14:36:52Z</time>
      </trkpt>
      <trkpt lat="45.75628" lon="4.6178">
        <ele>757.4</ele>
        <time>2025-12-11T14:36:53Z</time>
      </trkpt>
      <trkpt lat="45.75628" lon="4.6178">
        <ele>757.4</ele>
        <time>2025-12-11T14:36:54Z</time>
      </trkpt>
      <trkpt lat="45.75628" lon="4.6178">
        <ele>757.4</ele>
        <time>2025-12-11T14:36:55Z</time>
      </trkpt>
      <trkpt lat="45.75628" lon="4.6178">
        <ele>757.4</ele>
        <time>2025-12-11T14:36:56Z</time>
      </trkpt>
      <trkpt lat="45.75628" lon="4.6178">
        <ele>757.4</ele>
        <time>2025-12-11T14:36:57Z</time>
      </trkpt>
      <trkpt lat="45.75628" lon="4.6178">
        <ele>757.4</ele>
        <time>2025-12-11T14:36:58Z</time>
      </trkpt>
      <trkpt lat="45.75628" lon="4.6178">
        <ele>757.4</ele>
        <time>2025-12-11T14:36:59Z</time>
      </trkpt>
      <trkpt lat="45.75628" lon="4.6178">
        <ele>757.4</ele>
        <time>2025-12-11T14:37:00Z</time>
      </trkpt>
      <trkpt lat="45.75628" lon="4.6178">
        <ele>757.4</ele>
        <time>2025-12-11T14:37:01Z</time>
      </trkpt>
      <trkpt lat="45.75628" lon="4.6178">
        <ele>757.4</ele>
        <time>2025-12-11T14:37:02Z</time>
      </trkpt>
      <trkpt lat="45.75628" lon="4.6178">
        <ele>757.4</ele>
        <time>2025-12-11T14:37:03Z</time>
      </trkpt>
      <trkpt lat="45.75628" lon="4.6178">
        <ele>757.4</ele>
        <time>2025-12-11T14:37:04Z</time>
      </trkpt>
      <trkpt lat="45.75628" lon="4.6178">
        <ele>757.4</ele>
        <time>2025-12-11T14:37:05Z</time>
      </trkpt>
      <trkpt lat="45.75628" lon="4.6178">
        <ele>757.4</ele>
        <time>2025-12-11T14:37:06Z</time>
      </trkpt>
      <trkpt lat="45.75628" lon="4.6178">
        <ele>757.4</ele>
        <time>2025-12-11T14:37:07Z</time>
      </trkpt>
      <trkpt lat="45.75628" lon="4.6178">
        <ele>757.4</ele>
        <time>2025-12-11T14:37:08Z</time>
      </trkpt>
      <trkpt lat="45.75628" lon="4.6178">
        <ele>757.4</ele>
        <time>2025-12-11T14:37:09Z</time>
      </trkpt>
      <trkpt lat="45.75628" lon="4.6178">
        <ele>757.4</ele>
        <time>2025-12-11T14:37:10Z</time>
      </trkpt>
      <trkpt lat="45.75628" lon="4.6178">
        <ele>757.4</ele>
        <time>2025-12-11T14:37:11Z</time>
      </trkpt>
      <trkpt lat="45.75628" lon="4.6178">
        <ele>757.4</ele>
        <time>2025-12-11T14:37:12Z</time>
      </trkpt>
      <trkpt lat="45.75628" lon="4.6178">
        <ele>757.4</ele>
        <time>2025-12-11T14:37:13Z</time>
      </trkpt>
      <trkpt lat="45.75628" lon="4.6178">
        <ele>757.4</ele>
        <time>2025-12-11T14:37:14Z</time>
      </trkpt>
      <trkpt lat="45.75628" lon="4.6178">
        <ele>757.4</ele>
        <time>2025-12-11T14:37:15Z</time>
      </trkpt>
      <trkpt lat="45.75628" lon="4.6178">
        <ele>757.2</ele>
        <time>2025-12-11T14:37:16Z</time>
      </trkpt>
      <trkpt lat="45.75628" lon="4.6178">
        <ele>757.2</ele>
        <time>2025-12-11T14:37:17Z</time>
      </trkpt>
      <trkpt lat="45.75628" lon="4.6178">
        <ele>757.2</ele>
        <time>2025-12-11T14:37:18Z</time>
      </trkpt>
      <trkpt lat="45.75628" lon="4.6178">
        <ele>757.2</ele>
        <time>2025-12-11T14:37:19Z</time>
      </trkpt>
      <trkpt lat="45.75628" lon="4.6178">
        <ele>757.2</ele>
        <time>2025-12-11T14:37:20Z</time>
      </trkpt>
      <trkpt lat="45.75628" lon="4.6178">
        <ele>757.2</ele>
        <time>2025-12-11T14:37:21Z</time>
      </trkpt>
      <trkpt lat="45.75628" lon="4.6178">
        <ele>757.2</ele>
        <time>2025-12-11T14:37:22Z</time>
      </trkpt>
      <trkpt lat="45.75628" lon="4.6178">
        <ele>757.2</ele>
        <time>2025-12-11T14:37:23Z</time>
      </trkpt>
      <trkpt lat="45.75628" lon="4.6178">
        <ele>757.2</ele>
        <time>2025-12-11T14:37:24Z</time>
      </trkpt>
      <trkpt lat="45.75628" lon="4.6178">
        <ele>757.2</ele>
        <time>2025-12-11T14:37:25Z</time>
      </trkpt>
      <trkpt lat="45.75628" lon="4.6178">
        <ele>757.2</ele>
        <time>2025-12-11T14:37:26Z</time>
      </trkpt>
      <trkpt lat="45.75628" lon="4.6178">
        <ele>757.2</ele>
        <time>2025-12-11T14:37:27Z</time>
      </trkpt>
      <trkpt lat="45.75628" lon="4.6178">
        <ele>757.2</ele>
        <time>2025-12-11T14:37:28Z</time>
      </trkpt>
      <trkpt lat="45.75628" lon="4.6178">
        <ele>757.2</ele>
        <time>2025-12-11T14:37:29Z</time>
      </trkpt>
      <trkpt lat="45.75628" lon="4.6178">
        <ele>757.2</ele>
        <time>2025-12-11T14:37:30Z</time>
      </trkpt>
      <trkpt lat="45.75628" lon="4.6178">
        <ele>757.2</ele>
        <time>2025-12-11T14:37:31Z</time>
      </trkpt>
      <trkpt lat="45.75628" lon="4.6178">
        <ele>757.2</ele>
        <time>2025-12-11T14:37:32Z</time>
      </trkpt>
      <trkpt lat="45.75628" lon="4.6178">
        <ele>757.2</ele>
        <time>2025-12-11T14:37:33Z</time>
      </trkpt>
      <trkpt lat="45.75628" lon="4.6178">
        <ele>757.2</ele>
        <time>2025-12-11T14:37:34Z</time>
      </trkpt>
      <trkpt lat="45.75628" lon="4.6178">
        <ele>757.2</ele>
        <time>2025-12-11T14:37:35Z</time>
      </trkpt>
      <trkpt lat="45.75628" lon="4.6178">
        <ele>757.2</ele>
        <time>2025-12-11T14:37:36Z</time>
      </trkpt>
      <trkpt lat="45.75628" lon="4.6178">
        <ele>757.2</ele>
        <time>2025-12-11T14:37:37Z</time>
      </trkpt>
      <trkpt lat="45.75628" lon="4.6178">
        <ele>757</ele>
        <time>2025-12-11T14:37:38Z</time>
      </trkpt>
      <trkpt lat="45.75628" lon="4.6178">
        <ele>757</ele>
        <time>2025-12-11T14:37:39Z</time>
      </trkpt>
      <trkpt lat="45.75628" lon="4.6178">
        <ele>757</ele>
        <time>2025-12-11T14:37:40Z</time>
      </trkpt>
      <trkpt lat="45.75628" lon="4.6178">
        <ele>757</ele>
        <time>2025-12-11T14:37:41Z</time>
      </trkpt>
      <trkpt lat="45.75628" lon="4.6178">
        <ele>757</ele>
        <time>2025-12-11T14:37:42Z</time>
      </trkpt>
      <trkpt lat="45.75628" lon="4.6178">
        <ele>757</ele>
        <time>2025-12-11T14:37:43Z</time>
      </trkpt>
      <trkpt lat="45.75628" lon="4.6178">
        <ele>757</ele>
        <time>2025-12-11T14:37:44Z</time>
      </trkpt>
      <trkpt lat="45.75628" lon="4.6178">
        <ele>756.8</ele>
        <time>2025-12-11T14:37:45Z</time>
      </trkpt>
      <trkpt lat="45.75628" lon="4.6178">
        <ele>756.8</ele>
        <time>2025-12-11T14:37:46Z</time>
      </trkpt>
      <trkpt lat="45.75628" lon="4.6178">
        <ele>756.8</ele>
        <time>2025-12-11T14:37:47Z</time>
      </trkpt>
      <trkpt lat="45.75628" lon="4.6178">
        <ele>756.8</ele>
        <time>2025-12-11T14:37:48Z</time>
      </trkpt>
      <trkpt lat="45.75628" lon="4.6178">
        <ele>756.8</ele>
        <time>2025-12-11T14:37:49Z</time>
      </trkpt>
      <trkpt lat="45.75628" lon="4.6178">
        <ele>757</ele>
        <time>2025-12-11T14:37:50Z</time>
      </trkpt>
      <trkpt lat="45.75628" lon="4.6178">
        <ele>756.8</ele>
        <time>2025-12-11T14:37:51Z</time>
      </trkpt>
      <trkpt lat="45.75628" lon="4.6178">
        <ele>756.8</ele>
        <time>2025-12-11T14:37:52Z</time>
      </trkpt>
      <trkpt lat="45.75628" lon="4.6178">
        <ele>756.8</ele>
        <time>2025-12-11T14:37:53Z</time>
      </trkpt>
      <trkpt lat="45.75628" lon="4.6178">
        <ele>756.8</ele>
        <time>2025-12-11T14:37:54Z</time>
      </trkpt>
      <trkpt lat="45.75628" lon="4.6178">
        <ele>757</ele>
        <time>2025-12-11T14:37:55Z</time>
      </trkpt>
      <trkpt lat="45.75628" lon="4.6178">
        <ele>757.2</ele>
        <time>2025-12-11T14:37:56Z</time>
      </trkpt>
      <trkpt lat="45.75628" lon="4.6178">
        <ele>757.2</ele>
        <time>2025-12-11T14:37:57Z</time>
      </trkpt>
      <trkpt lat="45.75628" lon="4.6178">
        <ele>757.2</ele>
        <time>2025-12-11T14:37:58Z</time>
      </trkpt>
      <trkpt lat="45.75628" lon="4.6178">
        <ele>757.2</ele>
        <time>2025-12-11T14:37:59Z</time>
      </trkpt>
      <trkpt lat="45.75628" lon="4.6178">
        <ele>757.2</ele>
        <time>2025-12-11T14:38:00Z</time>
      </trkpt>
      <trkpt lat="45.75628" lon="4.6178">
        <ele>757</ele>
        <time>2025-12-11T14:38:01Z</time>
      </trkpt>
      <trkpt lat="45.75628" lon="4.6178">
        <ele>757</ele>
        <time>2025-12-11T14:38:02Z</time>
      </trkpt>
      <trkpt lat="45.75628" lon="4.6178">
        <ele>756.8</ele>
        <time>2025-12-11T14:38:03Z</time>
      </trkpt>
      <trkpt lat="45.75628" lon="4.6178">
        <ele>756.6</ele>
        <time>2025-12-11T14:38:04Z</time>
      </trkpt>
      <trkpt lat="45.75628" lon="4.6178">
        <ele>756.6</ele>
        <time>2025-12-11T14:38:05Z</time>
      </trkpt>
      <trkpt lat="45.75628" lon="4.6178">
        <ele>756.8</ele>
        <time>2025-12-11T14:38:06Z</time>
      </trkpt>
      <trkpt lat="45.75628" lon="4.6178">
        <ele>756.8</ele>
        <time>2025-12-11T14:38:07Z</time>
      </trkpt>
      <trkpt lat="45.75628" lon="4.6178">
        <ele>757</ele>
        <time>2025-12-11T14:38:08Z</time>
      </trkpt>
      <trkpt lat="45.75628" lon="4.6178">
        <ele>757</ele>
        <time>2025-12-11T14:38:09Z</time>
      </trkpt>
      <trkpt lat="45.75628" lon="4.6178">
        <ele>757</ele>
        <time>2025-12-11T14:38:10Z</time>
      </trkpt>
      <trkpt lat="45.75628" lon="4.6178">
        <ele>756.8</ele>
        <time>2025-12-11T14:38:11Z</time>
      </trkpt>
      <trkpt lat="45.75628" lon="4.6178">
        <ele>756.6</ele>
        <time>2025-12-11T14:38:12Z</time>
      </trkpt>
      <trkpt lat="45.75628" lon="4.6178">
        <ele>756.6</ele>
        <time>2025-12-11T14:38:13Z</time>
      </trkpt>
      <trkpt lat="45.75628" lon="4.6178">
        <ele>756.4</ele>
        <time>2025-12-11T14:38:14Z</time>
      </trkpt>
      <trkpt lat="45.75628" lon="4.6178">
        <ele>756.6</ele>
        <time>2025-12-11T14:38:15Z</time>
      </trkpt>
      <trkpt lat="45.75628" lon="4.6178">
        <ele>756.6</ele>
        <time>2025-12-11T14:38:16Z</time>
      </trkpt>
      <trkpt lat="45.75628" lon="4.6178">
        <ele>756.8</ele>
        <time>2025-12-11T14:38:17Z</time>
      </trkpt>
      <trkpt lat="45.75628" lon="4.6178">
        <ele>757</ele>
        <time>2025-12-11T14:38:18Z</time>
      </trkpt>
      <trkpt lat="45.75628" lon="4.6178">
        <ele>757.2</ele>
        <time>2025-12-11T14:38:19Z</time>
      </trkpt>
      <trkpt lat="45.75628" lon="4.6178">
        <ele>757.2</ele>
        <time>2025-12-11T14:38:20Z</time>
      </trkpt>
      <trkpt lat="45.75628" lon="4.6178">
        <ele>757.2</ele>
        <time>2025-12-11T14:38:21Z</time>
      </trkpt>
      <trkpt lat="45.75628" lon="4.6178">
        <ele>757.2</ele>
        <time>2025-12-11T14:38:22Z</time>
      </trkpt>
      <trkpt lat="45.75628" lon="4.6178">
        <ele>757</ele>
        <time>2025-12-11T14:38:23Z</time>
      </trkpt>
      <trkpt lat="45.75628" lon="4.6178">
        <ele>757</ele>
        <time>2025-12-11T14:38:24Z</time>
      </trkpt>
      <trkpt lat="45.75628" lon="4.6178">
        <ele>756.8</ele>
        <time>2025-12-11T14:38:25Z</time>
      </trkpt>
      <trkpt lat="45.75628" lon="4.6178">
        <ele>756.8</ele>
        <time>2025-12-11T14:38:26Z</time>
      </trkpt>
      <trkpt lat="45.75628" lon="4.6178">
        <ele>756.8</ele>
        <time>2025-12-11T14:38:27Z</time>
      </trkpt>
      <trkpt lat="45.75628" lon="4.6178">
        <ele>756.8</ele>
        <time>2025-12-11T14:38:28Z</time>
      </trkpt>
      <trkpt lat="45.75628" lon="4.6178">
        <ele>756.8</ele>
        <time>2025-12-11T14:38:29Z</time>
      </trkpt>
      <trkpt lat="45.75628" lon="4.6178">
        <ele>756.8</ele>
        <time>2025-12-11T14:38:30Z</time>
      </trkpt>
      <trkpt lat="45.75628" lon="4.6178">
        <ele>756.8</ele>
        <time>2025-12-11T14:38:31Z</time>
      </trkpt>
      <trkpt lat="45.75628" lon="4.6178">
        <ele>756.8</ele>
        <time>2025-12-11T14:38:32Z</time>
      </trkpt>
      <trkpt lat="45.75628" lon="4.6178">
        <ele>756.8</ele>
        <time>2025-12-11T14:38:33Z</time>
      </trkpt>
      <trkpt lat="45.75628" lon="4.6178">
        <ele>756.8</ele>
        <time>2025-12-11T14:38:34Z</time>
      </trkpt>
      <trkpt lat="45.75628" lon="4.6178">
        <ele>756.8</ele>
        <time>2025-12-11T14:38:35Z</time>
      </trkpt>
      <trkpt lat="45.75628" lon="4.6178">
        <ele>756.8</ele>
        <time>2025-12-11T14:38:36Z</time>
      </trkpt>
      <trkpt lat="45.75628" lon="4.6178">
        <ele>756.8</ele>
        <time>2025-12-11T14:38:37Z</time>
      </trkpt>
      <trkpt lat="45.75628" lon="4.6178">
        <ele>756.8</ele>
        <time>2025-12-11T14:38:38Z</time>
      </trkpt>
      <trkpt lat="45.75628" lon="4.6178">
        <ele>756.8</ele>
        <time>2025-12-11T14:38:39Z</time>
      </trkpt>
      <trkpt lat="45.75628" lon="4.6178">
        <ele>756.8</ele>
        <time>2025-12-11T14:38:40Z</time>
      </trkpt>
      <trkpt lat="45.75628" lon="4.6178">
        <ele>756.8</ele>
        <time>2025-12-11T14:38:41Z</time>
      </trkpt>
      <trkpt lat="45.75628" lon="4.6178">
        <ele>756.8</ele>
        <time>2025-12-11T14:38:42Z</time>
      </trkpt>
      <trkpt lat="45.75628" lon="4.6178">
        <ele>756.8</ele>
        <time>2025-12-11T14:38:43Z</time>
      </trkpt>
      <trkpt lat="45.75628" lon="4.6178">
        <ele>756.8</ele>
        <time>2025-12-11T14:38:44Z</time>
      </trkpt>
      <trkpt lat="45.75628" lon="4.6178">
        <ele>756.8</ele>
        <time>2025-12-11T14:38:45Z</time>
      </trkpt>
      <trkpt lat="45.75628" lon="4.6178">
        <ele>756.8</ele>
        <time>2025-12-11T14:38:46Z</time>
      </trkpt>
      <trkpt lat="45.75628" lon="4.6178">
        <ele>756.8</ele>
        <time>2025-12-11T14:38:47Z</time>
      </trkpt>
      <trkpt lat="45.75628" lon="4.6178">
        <ele>756.8</ele>
        <time>2025-12-11T14:38:48Z</time>
      </trkpt>
      <trkpt lat="45.75628" lon="4.6178">
        <ele>756.8</ele>
        <time>2025-12-11T14:38:49Z</time>
      </trkpt>
      <trkpt lat="45.75628" lon="4.6178">
        <ele>756.8</ele>
        <time>2025-12-11T14:38:50Z</time>
      </trkpt>
      <trkpt lat="45.75628" lon="4.6178">
        <ele>756.8</ele>
        <time>2025-12-11T14:38:51Z</time>
      </trkpt>
      <trkpt lat="45.75628" lon="4.6178">
        <ele>756.8</ele>
        <time>2025-12-11T14:38:52Z</time>
      </trkpt>
      <trkpt lat="45.75628" lon="4.6178">
        <ele>756.8</ele>
        <time>2025-12-11T14:38:53Z</time>
      </trkpt>
      <trkpt lat="45.75628" lon="4.6178">
        <ele>756.8</ele>
        <time>2025-12-11T14:38:54Z</time>
      </trkpt>
      <trkpt lat="45.75628" lon="4.6178">
        <ele>756.8</ele>
        <time>2025-12-11T14:38:55Z</time>
      </trkpt>
      <trkpt lat="45.75628" lon="4.6178">
        <ele>756.8</ele>
        <time>2025-12-11T14:38:56Z</time>
      </trkpt>
      <trkpt lat="45.75628" lon="4.6178">
        <ele>756.8</ele>
        <time>2025-12-11T14:38:57Z</time>
      </trkpt>
      <trkpt lat="45.75628" lon="4.6178">
        <ele>756.8</ele>
        <time>2025-12-11T14:38:58Z</time>
      </trkpt>
      <trkpt lat="45.75628" lon="4.6178">
        <ele>756.8</ele>
        <time>2025-12-11T14:38:59Z</time>
      </trkpt>
      <trkpt lat="45.75628" lon="4.6178">
        <ele>756.8</ele>
        <time>2025-12-11T14:39:00Z</time>
      </trkpt>
      <trkpt lat="45.75628" lon="4.6178">
        <ele>756.8</ele>
        <time>2025-12-11T14:39:01Z</time>
      </trkpt>
      <trkpt lat="45.75628" lon="4.6178">
        <ele>756.8</ele>
        <time>2025-12-11T14:39:02Z</time>
      </trkpt>
      <trkpt lat="45.75628" lon="4.6178">
        <ele>756.8</ele>
        <time>2025-12-11T14:39:03Z</time>
      </trkpt>
      <trkpt lat="45.75628" lon="4.6178">
        <ele>756.8</ele>
        <time>2025-12-11T14:39:04Z</time>
      </trkpt>
      <trkpt lat="45.75628" lon="4.6178">
        <ele>756.8</ele>
        <time>2025-12-11T14:39:05Z</time>
      </trkpt>
      <trkpt lat="45.75628" lon="4.6178">
        <ele>756.8</ele>
        <time>2025-12-11T14:39:06Z</time>
      </trkpt>
      <trkpt lat="45.75628" lon="4.6178">
        <ele>756.8</ele>
        <time>2025-12-11T14:39:07Z</time>
      </trkpt>
      <trkpt lat="45.75628" lon="4.6178">
        <ele>756.8</ele>
        <time>2025-12-11T14:39:08Z</time>
      </trkpt>
      <trkpt lat="45.75628" lon="4.6178">
        <ele>756.8</ele>
        <time>2025-12-11T14:39:09Z</time>
      </trkpt>
      <trkpt lat="45.75628" lon="4.6178">
        <ele>756.8</ele>
        <time>2025-12-11T14:39:10Z</time>
      </trkpt>
      <trkpt lat="45.75628" lon="4.6178">
        <ele>756.8</ele>
        <time>2025-12-11T14:39:11Z</time>
      </trkpt>
      <trkpt lat="45.75628" lon="4.6178">
        <ele>756.8</ele>
        <time>2025-12-11T14:39:12Z</time>
      </trkpt>
      <trkpt lat="45.75628" lon="4.6178">
        <ele>756.8</ele>
        <time>2025-12-11T14:39:13Z</time>
      </trkpt>
      <trkpt lat="45.75628" lon="4.6178">
        <ele>756.8</ele>
        <time>2025-12-11T14:39:14Z</time>
      </trkpt>
      <trkpt lat="45.75628" lon="4.6178">
        <ele>756.8</ele>
        <time>2025-12-11T14:39:15Z</time>
      </trkpt>
      <trkpt lat="45.75628" lon="4.6178">
        <ele>756.8</ele>
        <time>2025-12-11T14:39:16Z</time>
      </trkpt>
      <trkpt lat="45.75628" lon="4.6178">
        <ele>756.8</ele>
        <time>2025-12-11T14:39:17Z</time>
      </trkpt>
      <trkpt lat="45.75628" lon="4.6178">
        <ele>756.8</ele>
        <time>2025-12-11T14:39:18Z</time>
      </trkpt>
      <trkpt lat="45.75628" lon="4.6178">
        <ele>756.8</ele>
        <time>2025-12-11T14:39:19Z</time>
      </trkpt>
      <trkpt lat="45.75628" lon="4.6178">
        <ele>756.8</ele>
        <time>2025-12-11T14:39:20Z</time>
      </trkpt>
      <trkpt lat="45.75628" lon="4.6178">
        <ele>756.8</ele>
        <time>2025-12-11T14:39:21Z</time>
      </trkpt>
      <trkpt lat="45.75628" lon="4.6178">
        <ele>756.8</ele>
        <time>2025-12-11T14:39:22Z</time>
      </trkpt>
      <trkpt lat="45.75628" lon="4.6178">
        <ele>756.8</ele>
        <time>2025-12-11T14:39:23Z</time>
      </trkpt>
      <trkpt lat="45.75628" lon="4.6178">
        <ele>756.8</ele>
        <time>2025-12-11T14:39:24Z</time>
      </trkpt>
      <trkpt lat="45.75628" lon="4.6178">
        <ele>756.8</ele>
        <time>2025-12-11T14:39:25Z</time>
      </trkpt>
      <trkpt lat="45.75628" lon="4.6178">
        <ele>756.8</ele>
        <time>2025-12-11T14:39:26Z</time>
      </trkpt>
      <trkpt lat="45.75628" lon="4.6178">
        <ele>756.8</ele>
        <time>2025-12-11T14:39:27Z</time>
      </trkpt>
      <trkpt lat="45.75628" lon="4.6178">
        <ele>756.8</ele>
        <time>2025-12-11T14:39:28Z</time>
      </trkpt>
      <trkpt lat="45.75628" lon="4.6178">
        <ele>756.8</ele>
        <time>2025-12-11T14:39:29Z</time>
      </trkpt>
      <trkpt lat="45.75628" lon="4.6178">
        <ele>756.8</ele>
        <time>2025-12-11T14:39:30Z</time>
      </trkpt>
      <trkpt lat="45.75628" lon="4.6178">
        <ele>756.8</ele>
        <time>2025-12-11T14:39:31Z</time>
      </trkpt>
      <trkpt lat="45.75628" lon="4.6178">
        <ele>756.8</ele>
        <time>2025-12-11T14:39:32Z</time>
      </trkpt>
      <trkpt lat="45.75628" lon="4.6178">
        <ele>756.8</ele>
        <time>2025-12-11T14:39:33Z</time>
      </trkpt>
      <trkpt lat="45.75628" lon="4.6178">
        <ele>756.8</ele>
        <time>2025-12-11T14:39:34Z</time>
      </trkpt>
      <trkpt lat="45.75628" lon="4.6178">
        <ele>756.8</ele>
        <time>2025-12-11T14:39:35Z</time>
      </trkpt>
      <trkpt lat="45.75628" lon="4.6178">
        <ele>756.8</ele>
        <time>2025-12-11T14:39:36Z</time>
      </trkpt>
      <trkpt lat="45.75628" lon="4.6178">
        <ele>756.8</ele>
        <time>2025-12-11T14:39:37Z</time>
      </trkpt>
      <trkpt lat="45.75628" lon="4.6178">
        <ele>756.8</ele>
        <time>2025-12-11T14:39:38Z</time>
      </trkpt>
      <trkpt lat="45.75628" lon="4.6178">
        <ele>756.8</ele>
        <time>2025-12-11T14:39:39Z</time>
      </trkpt>
      <trkpt lat="45.75628" lon="4.6178">
        <ele>756.8</ele>
        <time>2025-12-11T14:39:40Z</time>
      </trkpt>
      <trkpt lat="45.75628" lon="4.6178">
        <ele>756.8</ele>
        <time>2025-12-11T14:39:41Z</time>
      </trkpt>
      <trkpt lat="45.75628" lon="4.6178">
        <ele>756.8</ele>
        <time>2025-12-11T14:39:42Z</time>
      </trkpt>
      <trkpt lat="45.75628" lon="4.6178">
        <ele>756.8</ele>
        <time>2025-12-11T14:39:43Z</time>
      </trkpt>
      <trkpt lat="45.75628" lon="4.6178">
        <ele>756.8</ele>
        <time>2025-12-11T14:39:44Z</time>
      </trkpt>
      <trkpt lat="45.75628" lon="4.6178">
        <ele>756.8</ele>
        <time>2025-12-11T14:39:45Z</time>
      </trkpt>
      <trkpt lat="45.75628" lon="4.6178">
        <ele>756.8</ele>
        <time>2025-12-11T14:39:46Z</time>
      </trkpt>
      <trkpt lat="45.75628" lon="4.6178">
        <ele>756.8</ele>
        <time>2025-12-11T14:39:47Z</time>
      </trkpt>
      <trkpt lat="45.75628" lon="4.6178">
        <ele>756.8</ele>
        <time>2025-12-11T14:39:48Z</time>
      </trkpt>
      <trkpt lat="45.75628" lon="4.6178">
        <ele>756.8</ele>
        <time>2025-12-11T14:39:49Z</time>
      </trkpt>
      <trkpt lat="45.75628" lon="4.6178">
        <ele>756.8</ele>
        <time>2025-12-11T14:39:50Z</time>
      </trkpt>
      <trkpt lat="45.75628" lon="4.6178">
        <ele>756.8</ele>
        <time>2025-12-11T14:39:51Z</time>
      </trkpt>
      <trkpt lat="45.75628" lon="4.6178">
        <ele>756.8</ele>
        <time>2025-12-11T14:39:52Z</time>
      </trkpt>
      <trkpt lat="45.75628" lon="4.6178">
        <ele>756.8</ele>
        <time>2025-12-11T14:39:53Z</time>
      </trkpt>
      <trkpt lat="45.75628" lon="4.6178">
        <ele>756.8</ele>
        <time>2025-12-11T14:39:54Z</time>
      </trkpt>
      <trkpt lat="45.75628" lon="4.6178">
        <ele>756.8</ele>
        <time>2025-12-11T14:39:55Z</time>
      </trkpt>
      <trkpt lat="45.75628" lon="4.6178">
        <ele>756.8</ele>
        <time>2025-12-11T14:39:56Z</time>
      </trkpt>
      <trkpt lat="45.75628" lon="4.6178">
        <ele>756.8</ele>
        <time>2025-12-11T14:39:57Z</time>
      </trkpt>
      <trkpt lat="45.75628" lon="4.6178">
        <ele>756.8</ele>
        <time>2025-12-11T14:39:58Z</time>
      </trkpt>
      <trkpt lat="45.75628" lon="4.6178">
        <ele>756.8</ele>
        <time>2025-12-11T14:39:59Z</time>
      </trkpt>
      <trkpt lat="45.75628" lon="4.6178">
        <ele>756.8</ele>
        <time>2025-12-11T14:40:00Z</time>
      </trkpt>
      <trkpt lat="45.75628" lon="4.6178">
        <ele>756.8</ele>
        <time>2025-12-11T14:40:01Z</time>
      </trkpt>
      <trkpt lat="45.75628" lon="4.6178">
        <ele>756.8</ele>
        <time>2025-12-11T14:40:02Z</time>
      </trkpt>
      <trkpt lat="45.75628" lon="4.6178">
        <ele>756.8</ele>
        <time>2025-12-11T14:40:03Z</time>
      </trkpt>
      <trkpt lat="45.75628" lon="4.6178">
        <ele>756.8</ele>
        <time>2025-12-11T14:40:04Z</time>
      </trkpt>
      <trkpt lat="45.75628" lon="4.6178">
        <ele>756.8</ele>
        <time>2025-12-11T14:40:05Z</time>
      </trkpt>
      <trkpt lat="45.75628" lon="4.6178">
        <ele>756.8</ele>
        <time>2025-12-11T14:40:06Z</time>
      </trkpt>
      <trkpt lat="45.75628" lon="4.6178">
        <ele>756.8</ele>
        <time>2025-12-11T14:40:07Z</time>
      </trkpt>
      <trkpt lat="45.75628" lon="4.6178">
        <ele>756.8</ele>
        <time>2025-12-11T14:40:08Z</time>
      </trkpt>
      <trkpt lat="45.75628" lon="4.6178">
        <ele>756.8</ele>
        <time>2025-12-11T14:40:09Z</time>
      </trkpt>
      <trkpt lat="45.75628" lon="4.6178">
        <ele>756.8</ele>
        <time>2025-12-11T14:40:10Z</time>
      </trkpt>
      <trkpt lat="45.75628" lon="4.6178">
        <ele>756.8</ele>
        <time>2025-12-11T14:40:11Z</time>
      </trkpt>
      <trkpt lat="45.75628" lon="4.6178">
        <ele>756.8</ele>
        <time>2025-12-11T14:40:12Z</time>
      </trkpt>
      <trkpt lat="45.75628" lon="4.6178">
        <ele>756.8</ele>
        <time>2025-12-11T14:40:13Z</time>
      </trkpt>
      <trkpt lat="45.75628" lon="4.6178">
        <ele>756.8</ele>
        <time>2025-12-11T14:40:14Z</time>
      </trkpt>
      <trkpt lat="45.75628" lon="4.6178">
        <ele>756.8</ele>
        <time>2025-12-11T14:40:15Z</time>
      </trkpt>
      <trkpt lat="45.75628" lon="4.6178">
        <ele>756.8</ele>
        <time>2025-12-11T14:40:16Z</time>
      </trkpt>
      <trkpt lat="45.75628" lon="4.6178">
        <ele>756.8</ele>
        <time>2025-12-11T14:40:17Z</time>
      </trkpt>
      <trkpt lat="45.75628" lon="4.6178">
        <ele>756.8</ele>
        <time>2025-12-11T14:40:18Z</time>
      </trkpt>
      <trkpt lat="45.75628" lon="4.6178">
        <ele>756.8</ele>
        <time>2025-12-11T14:40:19Z</time>
      </trkpt>
      <trkpt lat="45.75628" lon="4.6178">
        <ele>756.8</ele>
        <time>2025-12-11T14:40:20Z</time>
      </trkpt>
      <trkpt lat="45.75628" lon="4.6178">
        <ele>756.8</ele>
        <time>2025-12-11T14:40:21Z</time>
      </trkpt>
      <trkpt lat="45.75628" lon="4.6178">
        <ele>756.8</ele>
        <time>2025-12-11T14:40:22Z</time>
      </trkpt>
      <trkpt lat="45.75628" lon="4.6178">
        <ele>756.8</ele>
        <time>2025-12-11T14:40:23Z</time>
      </trkpt>
      <trkpt lat="45.75628" lon="4.6178">
        <ele>756.8</ele>
        <time>2025-12-11T14:40:24Z</time>
      </trkpt>
      <trkpt lat="45.75628" lon="4.6178">
        <ele>756.8</ele>
        <time>2025-12-11T14:40:25Z</time>
      </trkpt>
      <trkpt lat="45.75628" lon="4.6178">
        <ele>756.8</ele>
        <time>2025-12-11T14:40:26Z</time>
      </trkpt>
      <trkpt lat="45.75628" lon="4.6178">
        <ele>756.8</ele>
        <time>2025-12-11T14:40:27Z</time>
      </trkpt>
      <trkpt lat="45.75628" lon="4.6178">
        <ele>756.8</ele>
        <time>2025-12-11T14:40:28Z</time>
      </trkpt>
      <trkpt lat="45.75628" lon="4.6178">
        <ele>756.8</ele>
        <time>2025-12-11T14:40:29Z</time>
      </trkpt>
      <trkpt lat="45.75628" lon="4.6178">
        <ele>756.8</ele>
        <time>2025-12-11T14:40:30Z</time>
      </trkpt>
      <trkpt lat="45.75628" lon="4.6178">
        <ele>756.8</ele>
        <time>2025-12-11T14:40:31Z</time>
      </trkpt>
      <trkpt lat="45.75628" lon="4.6178">
        <ele>756.8</ele>
        <time>2025-12-11T14:40:32Z</time>
      </trkpt>
      <trkpt lat="45.75628" lon="4.6178">
        <ele>756.8</ele>
        <time>2025-12-11T14:40:33Z</time>
      </trkpt>
      <trkpt lat="45.75628" lon="4.6178">
        <ele>756.8</ele>
        <time>2025-12-11T14:40:34Z</time>
      </trkpt>
      <trkpt lat="45.75628" lon="4.6178">
        <ele>756.8</ele>
        <time>2025-12-11T14:40:35Z</time>
      </trkpt>
      <trkpt lat="45.75628" lon="4.6178">
        <ele>756.8</ele>
        <time>2025-12-11T14:40:36Z</time>
      </trkpt>
      <trkpt lat="45.75628" lon="4.6178">
        <ele>756.8</ele>
        <time>2025-12-11T14:40:37Z</time>
      </trkpt>
      <trkpt lat="45.75628" lon="4.6178">
        <ele>756.8</ele>
        <time>2025-12-11T14:40:38Z</time>
      </trkpt>
      <trkpt lat="45.75628" lon="4.6178">
        <ele>756.8</ele>
        <time>2025-12-11T14:40:39Z</time>
      </trkpt>
      <trkpt lat="45.75628" lon="4.6178">
        <ele>756.8</ele>
        <time>2025-12-11T14:40:40Z</time>
      </trkpt>
      <trkpt lat="45.75628" lon="4.6178">
        <ele>756.8</ele>
        <time>2025-12-11T14:40:41Z</time>
      </trkpt>
      <trkpt lat="45.75628" lon="4.6178">
        <ele>756.8</ele>
        <time>2025-12-11T14:40:42Z</time>
      </trkpt>
      <trkpt lat="45.75628" lon="4.6178">
        <ele>756.8</ele>
        <time>2025-12-11T14:40:43Z</time>
      </trkpt>
      <trkpt lat="45.75628" lon="4.6178">
        <ele>756.8</ele>
        <time>2025-12-11T14:40:44Z</time>
      </trkpt>
      <trkpt lat="45.75628" lon="4.6178">
        <ele>756.8</ele>
        <time>2025-12-11T14:40:45Z</time>
      </trkpt>
      <trkpt lat="45.75628" lon="4.6178">
        <ele>756.8</ele>
        <time>2025-12-11T14:40:46Z</time>
      </trkpt>
      <trkpt lat="45.75628" lon="4.6178">
        <ele>756.8</ele>
        <time>2025-12-11T14:40:47Z</time>
      </trkpt>
      <trkpt lat="45.75628" lon="4.6178">
        <ele>756.8</ele>
        <time>2025-12-11T14:40:48Z</time>
      </trkpt>
      <trkpt lat="45.75628" lon="4.6178">
        <ele>756.8</ele>
        <time>2025-12-11T14:40:49Z</time>
      </trkpt>
      <trkpt lat="45.75628" lon="4.6178">
        <ele>756.8</ele>
        <time>2025-12-11T14:40:50Z</time>
      </trkpt>
      <trkpt lat="45.75628" lon="4.6178">
        <ele>756.8</ele>
        <time>2025-12-11T14:40:51Z</time>
      </trkpt>
      <trkpt lat="45.75628" lon="4.6178">
        <ele>756.8</ele>
        <time>2025-12-11T14:40:52Z</time>
      </trkpt>
      <trkpt lat="45.75628" lon="4.6178">
        <ele>756.8</ele>
        <time>2025-12-11T14:40:53Z</time>
      </trkpt>
      <trkpt lat="45.75628" lon="4.6178">
        <ele>756.8</ele>
        <time>2025-12-11T14:40:54Z</time>
      </trkpt>
      <trkpt lat="45.75628" lon="4.6178">
        <ele>756.8</ele>
        <time>2025-12-11T14:40:55Z</time>
      </trkpt>
      <trkpt lat="45.75628" lon="4.6178">
        <ele>756.8</ele>
        <time>2025-12-11T14:40:56Z</time>
      </trkpt>
      <trkpt lat="45.75628" lon="4.6178">
        <ele>756.8</ele>
        <time>2025-12-11T14:40:57Z</time>
      </trkpt>
      <trkpt lat="45.75628" lon="4.6178">
        <ele>756.8</ele>
        <time>2025-12-11T14:40:58Z</time>
      </trkpt>
      <trkpt lat="45.75628" lon="4.6178">
        <ele>756.8</ele>
        <time>2025-12-11T14:40:59Z</time>
      </trkpt>
      <trkpt lat="45.75628" lon="4.6178">
        <ele>756.8</ele>
        <time>2025-12-11T14:41:00Z</time>
      </trkpt>
      <trkpt lat="45.75628" lon="4.6178">
        <ele>756.8</ele>
        <time>2025-12-11T14:41:01Z</time>
      </trkpt>
      <trkpt lat="45.75628" lon="4.6178">
        <ele>756.8</ele>
        <time>2025-12-11T14:41:02Z</time>
      </trkpt>
      <trkpt lat="45.75628" lon="4.6178">
        <ele>756.8</ele>
        <time>2025-12-11T14:41:03Z</time>
      </trkpt>
      <trkpt lat="45.75628" lon="4.6178">
        <ele>756.8</ele>
        <time>2025-12-11T14:41:04Z</time>
      </trkpt>
      <trkpt lat="45.75628" lon="4.6178">
        <ele>756.8</ele>
        <time>2025-12-11T14:41:05Z</time>
      </trkpt>
      <trkpt lat="45.75628" lon="4.6178">
        <ele>756.8</ele>
        <time>2025-12-11T14:41:06Z</time>
      </trkpt>
      <trkpt lat="45.75628" lon="4.6178">
        <ele>756.8</ele>
        <time>2025-12-11T14:41:07Z</time>
      </trkpt>
      <trkpt lat="45.75628" lon="4.6178">
        <ele>756.8</ele>
        <time>2025-12-11T14:41:08Z</time>
      </trkpt>
      <trkpt lat="45.75628" lon="4.6178">
        <ele>756.8</ele>
        <time>2025-12-11T14:41:09Z</time>
      </trkpt>
      <trkpt lat="45.75628" lon="4.6178">
        <ele>756.8</ele>
        <time>2025-12-11T14:41:10Z</time>
      </trkpt>
      <trkpt lat="45.75628" lon="4.6178">
        <ele>756.8</ele>
        <time>2025-12-11T14:41:11Z</time>
      </trkpt>
      <trkpt lat="45.75628" lon="4.6178">
        <ele>756.8</ele>
        <time>2025-12-11T14:41:12Z</time>
      </trkpt>
      <trkpt lat="45.75628" lon="4.6178">
        <ele>756.8</ele>
        <time>2025-12-11T14:41:13Z</time>
      </trkpt>
      <trkpt lat="45.75628" lon="4.6178">
        <ele>756.8</ele>
        <time>2025-12-11T14:41:14Z</time>
      </trkpt>
      <trkpt lat="45.75628" lon="4.6178">
        <ele>756.8</ele>
        <time>2025-12-11T14:41:15Z</time>
      </trkpt>
      <trkpt lat="45.75628" lon="4.6178">
        <ele>756.8</ele>
        <time>2025-12-11T14:41:16Z</time>
      </trkpt>
      <trkpt lat="45.75628" lon="4.6178">
        <ele>756.8</ele>
        <time>2025-12-11T14:41:17Z</time>
      </trkpt>
      <trkpt lat="45.75628" lon="4.6178">
        <ele>756.8</ele>
        <time>2025-12-11T14:41:18Z</time>
      </trkpt>
      <trkpt lat="45.75628" lon="4.6178">
        <ele>756.8</ele>
        <time>2025-12-11T14:41:19Z</time>
      </trkpt>
      <trkpt lat="45.75628" lon="4.6178">
        <ele>756.8</ele>
        <time>2025-12-11T14:41:20Z</time>
      </trkpt>
      <trkpt lat="45.75628" lon="4.6178">
        <ele>756.8</ele>
        <time>2025-12-11T14:41:21Z</time>
      </trkpt>
      <trkpt lat="45.75628" lon="4.6178">
        <ele>756.8</ele>
        <time>2025-12-11T14:41:22Z</time>
      </trkpt>
      <trkpt lat="45.75628" lon="4.6178">
        <ele>756.8</ele>
        <time>2025-12-11T14:41:23Z</time>
      </trkpt>
      <trkpt lat="45.75628" lon="4.6178">
        <ele>756.8</ele>
        <time>2025-12-11T14:41:24Z</time>
      </trkpt>
      <trkpt lat="45.75628" lon="4.6178">
        <ele>756.8</ele>
        <time>2025-12-11T14:41:25Z</time>
      </trkpt>
      <trkpt lat="45.75628" lon="4.6178">
        <ele>756.8</ele>
        <time>2025-12-11T14:41:26Z</time>
      </trkpt>
      <trkpt lat="45.75628" lon="4.6178">
        <ele>756.8</ele>
        <time>2025-12-11T14:41:27Z</time>
      </trkpt>
      <trkpt lat="45.75628" lon="4.6178">
        <ele>756.8</ele>
        <time>2025-12-11T14:41:28Z</time>
      </trkpt>
      <trkpt lat="45.75628" lon="4.6178">
        <ele>756.8</ele>
        <time>2025-12-11T14:41:29Z</time>
      </trkpt>
      <trkpt lat="45.75628" lon="4.6178">
        <ele>756.8</ele>
        <time>2025-12-11T14:41:30Z</time>
      </trkpt>
      <trkpt lat="45.75628" lon="4.6178">
        <ele>756.8</ele>
        <time>2025-12-11T14:41:31Z</time>
      </trkpt>
      <trkpt lat="45.75628" lon="4.6178">
        <ele>756.8</ele>
        <time>2025-12-11T14:41:32Z</time>
      </trkpt>
      <trkpt lat="45.75628" lon="4.6178">
        <ele>756.8</ele>
        <time>2025-12-11T14:41:33Z</time>
      </trkpt>
      <trkpt lat="45.75628" lon="4.6178">
        <ele>756.8</ele>
        <time>2025-12-11T14:41:34Z</time>
      </trkpt>
      <trkpt lat="45.75628" lon="4.6178">
        <ele>756.8</ele>
        <time>2025-12-11T14:41:35Z</time>
      </trkpt>
      <trkpt lat="45.75628" lon="4.6178">
        <ele>756.8</ele>
        <time>2025-12-11T14:41:36Z</time>
      </trkpt>
      <trkpt lat="45.75628" lon="4.6178">
        <ele>756.8</ele>
        <time>2025-12-11T14:41:37Z</time>
      </trkpt>
      <trkpt lat="45.75628" lon="4.6178">
        <ele>756.8</ele>
        <time>2025-12-11T14:41:38Z</time>
      </trkpt>
      <trkpt lat="45.75628" lon="4.6178">
        <ele>756.8</ele>
        <time>2025-12-11T14:41:39Z</time>
      </trkpt>
      <trkpt lat="45.75628" lon="4.6178">
        <ele>756.8</ele>
        <time>2025-12-11T14:41:40Z</time>
      </trkpt>
      <trkpt lat="45.75628" lon="4.6178">
        <ele>756.8</ele>
        <time>2025-12-11T14:41:41Z</time>
      </trkpt>
      <trkpt lat="45.75628" lon="4.6178">
        <ele>756.8</ele>
        <time>2025-12-11T14:41:42Z</time>
      </trkpt>
      <trkpt lat="45.75628" lon="4.6178">
        <ele>756.8</ele>
        <time>2025-12-11T14:41:43Z</time>
      </trkpt>
      <trkpt lat="45.75628" lon="4.6178">
        <ele>756.8</ele>
        <time>2025-12-11T14:41:44Z</time>
      </trkpt>
      <trkpt lat="45.75628" lon="4.6178">
        <ele>756.8</ele>
        <time>2025-12-11T14:41:45Z</time>
      </trkpt>
      <trkpt lat="45.75628" lon="4.6178">
        <ele>756.8</ele>
        <time>2025-12-11T14:41:46Z</time>
      </trkpt>
      <trkpt lat="45.75628" lon="4.6178">
        <ele>756.8</ele>
        <time>2025-12-11T14:41:47Z</time>
      </trkpt>
      <trkpt lat="45.75628" lon="4.6178">
        <ele>756.8</ele>
        <time>2025-12-11T14:41:48Z</time>
      </trkpt>
      <trkpt lat="45.75628" lon="4.6178">
        <ele>756.8</ele>
        <time>2025-12-11T14:41:49Z</time>
      </trkpt>
      <trkpt lat="45.75628" lon="4.6178">
        <ele>756.8</ele>
        <time>2025-12-11T14:41:50Z</time>
      </trkpt>
      <trkpt lat="45.75628" lon="4.6178">
        <ele>756.8</ele>
        <time>2025-12-11T14:41:51Z</time>
      </trkpt>
      <trkpt lat="45.75628" lon="4.6178">
        <ele>756.8</ele>
        <time>2025-12-11T14:41:52Z</time>
      </trkpt>
      <trkpt lat="45.75628" lon="4.6178">
        <ele>756.8</ele>
        <time>2025-12-11T14:41:53Z</time>
      </trkpt>
      <trkpt lat="45.75628" lon="4.6178">
        <ele>756.8</ele>
        <time>2025-12-11T14:41:54Z</time>
      </trkpt>
      <trkpt lat="45.75628" lon="4.6178">
        <ele>756.8</ele>
        <time>2025-12-11T14:41:55Z</time>
      </trkpt>
      <trkpt lat="45.75628" lon="4.6178">
        <ele>756.8</ele>
        <time>2025-12-11T14:41:56Z</time>
      </trkpt>
      <trkpt lat="45.75628" lon="4.6178">
        <ele>756.8</ele>
        <time>2025-12-11T14:41:57Z</time>
      </trkpt>
      <trkpt lat="45.75628" lon="4.6178">
        <ele>756.8</ele>
        <time>2025-12-11T14:41:58Z</time>
      </trkpt>
      <trkpt lat="45.75628" lon="4.6178">
        <ele>756.8</ele>
        <time>2025-12-11T14:41:59Z</time>
      </trkpt>
      <trkpt lat="45.75628" lon="4.6178">
        <ele>756.8</ele>
        <time>2025-12-11T14:42:00Z</time>
      </trkpt>
      <trkpt lat="45.75628" lon="4.6178">
        <ele>756.8</ele>
        <time>2025-12-11T14:42:01Z</time>
      </trkpt>
      <trkpt lat="45.75628" lon="4.61781">
        <ele>756.8</ele>
        <time>2025-12-11T14:42:02Z</time>
      </trkpt>
      <trkpt lat="45.75627" lon="4.61781">
        <ele>756.8</ele>
        <time>2025-12-11T14:42:03Z</time>
      </trkpt>
      <trkpt lat="45.75627" lon="4.61781">
        <ele>756.8</ele>
        <time>2025-12-11T14:42:04Z</time>
      </trkpt>
      <trkpt lat="45.75627" lon="4.61781">
        <ele>756.8</ele>
        <time>2025-12-11T14:42:05Z</time>
      </trkpt>
      <trkpt lat="45.75627" lon="4.61781">
        <ele>756.8</ele>
        <time>2025-12-11T14:42:06Z</time>
      </trkpt>
      <trkpt lat="45.75627" lon="4.61781">
        <ele>756.8</ele>
        <time>2025-12-11T14:42:07Z</time>
      </trkpt>
      <trkpt lat="45.75627" lon="4.61781">
        <ele>756.8</ele>
        <time>2025-12-11T14:42:08Z</time>
      </trkpt>
      <trkpt lat="45.75627" lon="4.61781">
        <ele>756.8</ele>
        <time>2025-12-11T14:42:09Z</time>
      </trkpt>
      <trkpt lat="45.75627" lon="4.61781">
        <ele>756.8</ele>
        <time>2025-12-11T14:42:10Z</time>
      </trkpt>
      <trkpt lat="45.75627" lon="4.61781">
        <ele>756.8</ele>
        <time>2025-12-11T14:42:11Z</time>
      </trkpt>
      <trkpt lat="45.75627" lon="4.61781">
        <ele>756.8</ele>
        <time>2025-12-11T14:42:12Z</time>
      </trkpt>
      <trkpt lat="45.75627" lon="4.61781">
        <ele>756.8</ele>
        <time>2025-12-11T14:42:13Z</time>
      </trkpt>
      <trkpt lat="45.75627" lon="4.61781">
        <ele>756.8</ele>
        <time>2025-12-11T14:42:14Z</time>
      </trkpt>
      <trkpt lat="45.75627" lon="4.61781">
        <ele>756.8</ele>
        <time>2025-12-11T14:42:15Z</time>
      </trkpt>
      <trkpt lat="45.75627" lon="4.61781">
        <ele>756.8</ele>
        <time>2025-12-11T14:42:16Z</time>
      </trkpt>
      <trkpt lat="45.75627" lon="4.61781">
        <ele>756.8</ele>
        <time>2025-12-11T14:42:17Z</time>
      </trkpt>
      <trkpt lat="45.75627" lon="4.61781">
        <ele>756.8</ele>
        <time>2025-12-11T14:42:18Z</time>
      </trkpt>
      <trkpt lat="45.75627" lon="4.61781">
        <ele>756.8</ele>
        <time>2025-12-11T14:42:19Z</time>
      </trkpt>
      <trkpt lat="45.75627" lon="4.61781">
        <ele>756.8</ele>
        <time>2025-12-11T14:42:20Z</time>
      </trkpt>
      <trkpt lat="45.75627" lon="4.61781">
        <ele>756.8</ele>
        <time>2025-12-11T14:42:21Z</time>
      </trkpt>
      <trkpt lat="45.75627" lon="4.61781">
        <ele>756.8</ele>
        <time>2025-12-11T14:42:22Z</time>
      </trkpt>
      <trkpt lat="45.75627" lon="4.61781">
        <ele>756.8</ele>
        <time>2025-12-11T14:42:23Z</time>
      </trkpt>
      <trkpt lat="45.75627" lon="4.61781">
        <ele>756.8</ele>
        <time>2025-12-11T14:42:24Z</time>
      </trkpt>
      <trkpt lat="45.75627" lon="4.61781">
        <ele>756.8</ele>
        <time>2025-12-11T14:42:25Z</time>
      </trkpt>
      <trkpt lat="45.75627" lon="4.61781">
        <ele>756.8</ele>
        <time>2025-12-11T14:42:26Z</time>
      </trkpt>
      <trkpt lat="45.75627" lon="4.61781">
        <ele>756.8</ele>
        <time>2025-12-11T14:42:27Z</time>
      </trkpt>
      <trkpt lat="45.75627" lon="4.61781">
        <ele>756.8</ele>
        <time>2025-12-11T14:42:28Z</time>
      </trkpt>
      <trkpt lat="45.75627" lon="4.61781">
        <ele>756.8</ele>
        <time>2025-12-11T14:42:29Z</time>
      </trkpt>
      <trkpt lat="45.75627" lon="4.61782">
        <ele>756.8</ele>
        <time>2025-12-11T14:42:30Z</time>
      </trkpt>
      <trkpt lat="45.75628" lon="4.61783">
        <ele>756.8</ele>
        <time>2025-12-11T14:42:31Z</time>
      </trkpt>
      <trkpt lat="45.75629" lon="4.61785">
        <ele>756.8</ele>
        <time>2025-12-11T14:42:32Z</time>
      </trkpt>
      <trkpt lat="45.75631" lon="4.61788">
        <ele>756.8</ele>
        <time>2025-12-11T14:42:33Z</time>
      </trkpt>
      <trkpt lat="45.75632" lon="4.61791">
        <ele>756.8</ele>
        <time>2025-12-11T14:42:34Z</time>
      </trkpt>
      <trkpt lat="45.75634" lon="4.61795">
        <ele>756.8</ele>
        <time>2025-12-11T14:42:35Z</time>
      </trkpt>
      <trkpt lat="45.75635" lon="4.61798">
        <ele>756.8</ele>
        <time>2025-12-11T14:42:36Z</time>
      </trkpt>
      <trkpt lat="45.75637" lon="4.61802">
        <ele>756.6</ele>
        <time>2025-12-11T14:42:37Z</time>
      </trkpt>
      <trkpt lat="45.75638" lon="4.61806">
        <ele>756.6</ele>
        <time>2025-12-11T14:42:38Z</time>
      </trkpt>
      <trkpt lat="45.75639" lon="4.6181">
        <ele>756.6</ele>
        <time>2025-12-11T14:42:39Z</time>
      </trkpt>
      <trkpt lat="45.75641" lon="4.61814">
        <ele>756.6</ele>
        <time>2025-12-11T14:42:40Z</time>
      </trkpt>
      <trkpt lat="45.75643" lon="4.61818">
        <ele>756.6</ele>
        <time>2025-12-11T14:42:41Z</time>
      </trkpt>
      <trkpt lat="45.75644" lon="4.61822">
        <ele>756.6</ele>
        <time>2025-12-11T14:42:42Z</time>
      </trkpt>
      <trkpt lat="45.75646" lon="4.61826">
        <ele>756.6</ele>
        <time>2025-12-11T14:42:43Z</time>
      </trkpt>
      <trkpt lat="45.75648" lon="4.6183">
        <ele>756.6</ele>
        <time>2025-12-11T14:42:44Z</time>
      </trkpt>
      <trkpt lat="45.7565" lon="4.61834">
        <ele>756.6</ele>
        <time>2025-12-11T14:42:45Z</time>
      </trkpt>
      <trkpt lat="45.75652" lon="4.61839">
        <ele>756.6</ele>
        <time>2025-12-11T14:42:46Z</time>
      </trkpt>
      <trkpt lat="45.75654" lon="4.61843">
        <ele>756.6</ele>
        <time>2025-12-11T14:42:47Z</time>
      </trkpt>
      <trkpt lat="45.75656" lon="4.61847">
        <ele>756.6</ele>
        <time>2025-12-11T14:42:48Z</time>
      </trkpt>
      <trkpt lat="45.75658" lon="4.61851">
        <ele>756.6</ele>
        <time>2025-12-11T14:42:49Z</time>
      </trkpt>
      <trkpt lat="45.75661" lon="4.61856">
        <ele>756.6</ele>
        <time>2025-12-11T14:42:50Z</time>
      </trkpt>
      <trkpt lat="45.75663" lon="4.6186">
        <ele>756.6</ele>
        <time>2025-12-11T14:42:51Z</time>
      </trkpt>
      <trkpt lat="45.75665" lon="4.61864">
        <ele>756.6</ele>
        <time>2025-12-11T14:42:52Z</time>
      </trkpt>
      <trkpt lat="45.75668" lon="4.61869">
        <ele>756.6</ele>
        <time>2025-12-11T14:42:53Z</time>
      </trkpt>
      <trkpt lat="45.7567" lon="4.61873">
        <ele>756.6</ele>
        <time>2025-12-11T14:42:54Z</time>
      </trkpt>
      <trkpt lat="45.75672" lon="4.61877">
        <ele>756.6</ele>
        <time>2025-12-11T14:42:55Z</time>
      </trkpt>
      <trkpt lat="45.75673" lon="4.61882">
        <ele>756.4</ele>
        <time>2025-12-11T14:42:56Z</time>
      </trkpt>
      <trkpt lat="45.75675" lon="4.61886">
        <ele>756.6</ele>
        <time>2025-12-11T14:42:57Z</time>
      </trkpt>
      <trkpt lat="45.75677" lon="4.6189">
        <ele>756.6</ele>
        <time>2025-12-11T14:42:58Z</time>
      </trkpt>
      <trkpt lat="45.7568" lon="4.61894">
        <ele>756.6</ele>
        <time>2025-12-11T14:42:59Z</time>
      </trkpt>
      <trkpt lat="45.75682" lon="4.61898">
        <ele>756.6</ele>
        <time>2025-12-11T14:43:00Z</time>
      </trkpt>
      <trkpt lat="45.75684" lon="4.61903">
        <ele>756.6</ele>
        <time>2025-12-11T14:43:01Z</time>
      </trkpt>
      <trkpt lat="45.75686" lon="4.61907">
        <ele>756.6</ele>
        <time>2025-12-11T14:43:02Z</time>
      </trkpt>
      <trkpt lat="45.75688" lon="4.61912">
        <ele>756.8</ele>
        <time>2025-12-11T14:43:03Z</time>
      </trkpt>
      <trkpt lat="45.7569" lon="4.61916">
        <ele>756.8</ele>
        <time>2025-12-11T14:43:04Z</time>
      </trkpt>
      <trkpt lat="45.75693" lon="4.61921">
        <ele>756.8</ele>
        <time>2025-12-11T14:43:05Z</time>
      </trkpt>
      <trkpt lat="45.75695" lon="4.61925">
        <ele>756.8</ele>
        <time>2025-12-11T14:43:06Z</time>
      </trkpt>
      <trkpt lat="45.75697" lon="4.6193">
        <ele>756.8</ele>
        <time>2025-12-11T14:43:07Z</time>
      </trkpt>
      <trkpt lat="45.75699" lon="4.61934">
        <ele>756.8</ele>
        <time>2025-12-11T14:43:08Z</time>
      </trkpt>
      <trkpt lat="45.75702" lon="4.61939">
        <ele>756.8</ele>
        <time>2025-12-11T14:43:09Z</time>
      </trkpt>
      <trkpt lat="45.75704" lon="4.61944">
        <ele>757</ele>
        <time>2025-12-11T14:43:10Z</time>
      </trkpt>
      <trkpt lat="45.75706" lon="4.61948">
        <ele>757</ele>
        <time>2025-12-11T14:43:11Z</time>
      </trkpt>
      <trkpt lat="45.75709" lon="4.61953">
        <ele>757</ele>
        <time>2025-12-11T14:43:12Z</time>
      </trkpt>
      <trkpt lat="45.75711" lon="4.61957">
        <ele>757.2</ele>
        <time>2025-12-11T14:43:13Z</time>
      </trkpt>
      <trkpt lat="45.75714" lon="4.61962">
        <ele>757.2</ele>
        <time>2025-12-11T14:43:14Z</time>
      </trkpt>
      <trkpt lat="45.75716" lon="4.61967">
        <ele>757.2</ele>
        <time>2025-12-11T14:43:15Z</time>
      </trkpt>
      <trkpt lat="45.75718" lon="4.61971">
        <ele>757.2</ele>
        <time>2025-12-11T14:43:16Z</time>
      </trkpt>
      <trkpt lat="45.7572" lon="4.61976">
        <ele>757.2</ele>
        <time>2025-12-11T14:43:17Z</time>
      </trkpt>
      <trkpt lat="45.75723" lon="4.6198">
        <ele>757.4</ele>
        <time>2025-12-11T14:43:18Z</time>
      </trkpt>
      <trkpt lat="45.75725" lon="4.61985">
        <ele>757.4</ele>
        <time>2025-12-11T14:43:19Z</time>
      </trkpt>
      <trkpt lat="45.75728" lon="4.6199">
        <ele>757.4</ele>
        <time>2025-12-11T14:43:20Z</time>
      </trkpt>
      <trkpt lat="45.7573" lon="4.61994">
        <ele>757.4</ele>
        <time>2025-12-11T14:43:21Z</time>
      </trkpt>
      <trkpt lat="45.75732" lon="4.61999">
        <ele>757.4</ele>
        <time>2025-12-11T14:43:22Z</time>
      </trkpt>
      <trkpt lat="45.75735" lon="4.62003">
        <ele>757.4</ele>
        <time>2025-12-11T14:43:23Z</time>
      </trkpt>
      <trkpt lat="45.75737" lon="4.62008">
        <ele>757.4</ele>
        <time>2025-12-11T14:43:24Z</time>
      </trkpt>
      <trkpt lat="45.75739" lon="4.62013">
        <ele>757.4</ele>
        <time>2025-12-11T14:43:25Z</time>
      </trkpt>
      <trkpt lat="45.75741" lon="4.62018">
        <ele>757.4</ele>
        <time>2025-12-11T14:43:26Z</time>
      </trkpt>
      <trkpt lat="45.75743" lon="4.62022">
        <ele>757.2</ele>
        <time>2025-12-11T14:43:27Z</time>
      </trkpt>
      <trkpt lat="45.75746" lon="4.62027">
        <ele>757.2</ele>
        <time>2025-12-11T14:43:28Z</time>
      </trkpt>
      <trkpt lat="45.75748" lon="4.62031">
        <ele>757.4</ele>
        <time>2025-12-11T14:43:29Z</time>
      </trkpt>
      <trkpt lat="45.75751" lon="4.62036">
        <ele>757.4</ele>
        <time>2025-12-11T14:43:30Z</time>
      </trkpt>
      <trkpt lat="45.75753" lon="4.62041">
        <ele>757.4</ele>
        <time>2025-12-11T14:43:31Z</time>
      </trkpt>
      <trkpt lat="45.75755" lon="4.62046">
        <ele>757.4</ele>
        <time>2025-12-11T14:43:32Z</time>
      </trkpt>
      <trkpt lat="45.75757" lon="4.62051">
        <ele>757.4</ele>
        <time>2025-12-11T14:43:33Z</time>
      </trkpt>
      <trkpt lat="45.7576" lon="4.62056">
        <ele>757.4</ele>
        <time>2025-12-11T14:43:34Z</time>
      </trkpt>
      <trkpt lat="45.75762" lon="4.62061">
        <ele>757.2</ele>
        <time>2025-12-11T14:43:35Z</time>
      </trkpt>
      <trkpt lat="45.75764" lon="4.62065">
        <ele>757.2</ele>
        <time>2025-12-11T14:43:36Z</time>
      </trkpt>
      <trkpt lat="45.75766" lon="4.6207">
        <ele>757.2</ele>
        <time>2025-12-11T14:43:37Z</time>
      </trkpt>
      <trkpt lat="45.75769" lon="4.62075">
        <ele>757.2</ele>
        <time>2025-12-11T14:43:38Z</time>
      </trkpt>
      <trkpt lat="45.75771" lon="4.6208">
        <ele>757.2</ele>
        <time>2025-12-11T14:43:39Z</time>
      </trkpt>
      <trkpt lat="45.75774" lon="4.62084">
        <ele>757.2</ele>
        <time>2025-12-11T14:43:40Z</time>
      </trkpt>
      <trkpt lat="45.75776" lon="4.62089">
        <ele>757.2</ele>
        <time>2025-12-11T14:43:41Z</time>
      </trkpt>
      <trkpt lat="45.75779" lon="4.62094">
        <ele>757.2</ele>
        <time>2025-12-11T14:43:42Z</time>
      </trkpt>
      <trkpt lat="45.75781" lon="4.62098">
        <ele>757.2</ele>
        <time>2025-12-11T14:43:43Z</time>
      </trkpt>
      <trkpt lat="45.75784" lon="4.62103">
        <ele>757.2</ele>
        <time>2025-12-11T14:43:44Z</time>
      </trkpt>
      <trkpt lat="45.75787" lon="4.62108">
        <ele>757.2</ele>
        <time>2025-12-11T14:43:45Z</time>
      </trkpt>
      <trkpt lat="45.75789" lon="4.62112">
        <ele>757.4</ele>
        <time>2025-12-11T14:43:46Z</time>
      </trkpt>
      <trkpt lat="45.75792" lon="4.62116">
        <ele>757.4</ele>
        <time>2025-12-11T14:43:47Z</time>
      </trkpt>
      <trkpt lat="45.75794" lon="4.62121">
        <ele>757.4</ele>
        <time>2025-12-11T14:43:48Z</time>
      </trkpt>
      <trkpt lat="45.75797" lon="4.62126">
        <ele>757.4</ele>
        <time>2025-12-11T14:43:49Z</time>
      </trkpt>
      <trkpt lat="45.75799" lon="4.6213">
        <ele>757.6</ele>
        <time>2025-12-11T14:43:50Z</time>
      </trkpt>
      <trkpt lat="45.75801" lon="4.62135">
        <ele>757.6</ele>
        <time>2025-12-11T14:43:51Z</time>
      </trkpt>
      <trkpt lat="45.75804" lon="4.62139">
        <ele>757.8</ele>
        <time>2025-12-11T14:43:52Z</time>
      </trkpt>
      <trkpt lat="45.75807" lon="4.62144">
        <ele>757.8</ele>
        <time>2025-12-11T14:43:53Z</time>
      </trkpt>
      <trkpt lat="45.7581" lon="4.62148">
        <ele>757.8</ele>
        <time>2025-12-11T14:43:54Z</time>
      </trkpt>
      <trkpt lat="45.75813" lon="4.62152">
        <ele>758</ele>
        <time>2025-12-11T14:43:55Z</time>
      </trkpt>
      <trkpt lat="45.75816" lon="4.62157">
        <ele>757.8</ele>
        <time>2025-12-11T14:43:56Z</time>
      </trkpt>
      <trkpt lat="45.75819" lon="4.62161">
        <ele>757.8</ele>
        <time>2025-12-11T14:43:57Z</time>
      </trkpt>
      <trkpt lat="45.75822" lon="4.62165">
        <ele>757.6</ele>
        <time>2025-12-11T14:43:58Z</time>
      </trkpt>
      <trkpt lat="45.75825" lon="4.62169">
        <ele>757.6</ele>
        <time>2025-12-11T14:43:59Z</time>
      </trkpt>
      <trkpt lat="45.75829" lon="4.62173">
        <ele>757.6</ele>
        <time>2025-12-11T14:44:00Z</time>
      </trkpt>
      <trkpt lat="45.75832" lon="4.62177">
        <ele>757.6</ele>
        <time>2025-12-11T14:44:01Z</time>
      </trkpt>
      <trkpt lat="45.75835" lon="4.62181">
        <ele>757.6</ele>
        <time>2025-12-11T14:44:02Z</time>
      </trkpt>
      <trkpt lat="45.75839" lon="4.62185">
        <ele>757.6</ele>
        <time>2025-12-11T14:44:03Z</time>
      </trkpt>
      <trkpt lat="45.75842" lon="4.62189">
        <ele>757.8</ele>
        <time>2025-12-11T14:44:04Z</time>
      </trkpt>
      <trkpt lat="45.75846" lon="4.62192">
        <ele>757.8</ele>
        <time>2025-12-11T14:44:05Z</time>
      </trkpt>
      <trkpt lat="45.75849" lon="4.62196">
        <ele>757.8</ele>
        <time>2025-12-11T14:44:06Z</time>
      </trkpt>
      <trkpt lat="45.75853" lon="4.62199">
        <ele>757.8</ele>
        <time>2025-12-11T14:44:07Z</time>
      </trkpt>
      <trkpt lat="45.75856" lon="4.62202">
        <ele>757.8</ele>
        <time>2025-12-11T14:44:08Z</time>
      </trkpt>
      <trkpt lat="45.75859" lon="4.62206">
        <ele>757.8</ele>
        <time>2025-12-11T14:44:09Z</time>
      </trkpt>
      <trkpt lat="45.75861" lon="4.6221">
        <ele>757.8</ele>
        <time>2025-12-11T14:44:10Z</time>
      </trkpt>
      <trkpt lat="45.75864" lon="4.62214">
        <ele>757.6</ele>
        <time>2025-12-11T14:44:11Z</time>
      </trkpt>
      <trkpt lat="45.75866" lon="4.62218">
        <ele>757.6</ele>
        <time>2025-12-11T14:44:12Z</time>
      </trkpt>
      <trkpt lat="45.75867" lon="4.62222">
        <ele>757.8</ele>
        <time>2025-12-11T14:44:13Z</time>
      </trkpt>
      <trkpt lat="45.75869" lon="4.62224">
        <ele>757.8</ele>
        <time>2025-12-11T14:44:14Z</time>
      </trkpt>
      <trkpt lat="45.7587" lon="4.62226">
        <ele>758</ele>
        <time>2025-12-11T14:44:15Z</time>
      </trkpt>
      <trkpt lat="45.75871" lon="4.62228">
        <ele>758.2</ele>
        <time>2025-12-11T14:44:16Z</time>
      </trkpt>
      <trkpt lat="45.75872" lon="4.6223">
        <ele>758.6</ele>
        <time>2025-12-11T14:44:17Z</time>
      </trkpt>
      <trkpt lat="45.75874" lon="4.62232">
        <ele>758.6</ele>
        <time>2025-12-11T14:44:18Z</time>
      </trkpt>
      <trkpt lat="45.75876" lon="4.62234">
        <ele>758.8</ele>
        <time>2025-12-11T14:44:19Z</time>
      </trkpt>
      <trkpt lat="45.75879" lon="4.62236">
        <ele>758.8</ele>
        <time>2025-12-11T14:44:20Z</time>
      </trkpt>
      <trkpt lat="45.75881" lon="4.62238">
        <ele>758.8</ele>
        <time>2025-12-11T14:44:21Z</time>
      </trkpt>
      <trkpt lat="45.75883" lon="4.62241">
        <ele>759</ele>
        <time>2025-12-11T14:44:22Z</time>
      </trkpt>
      <trkpt lat="45.75885" lon="4.62243">
        <ele>759</ele>
        <time>2025-12-11T14:44:23Z</time>
      </trkpt>
      <trkpt lat="45.75888" lon="4.62246">
        <ele>759</ele>
        <time>2025-12-11T14:44:24Z</time>
      </trkpt>
      <trkpt lat="45.7589" lon="4.62248">
        <ele>759</ele>
        <time>2025-12-11T14:44:25Z</time>
      </trkpt>
      <trkpt lat="45.75892" lon="4.62251">
        <ele>759</ele>
        <time>2025-12-11T14:44:26Z</time>
      </trkpt>
      <trkpt lat="45.75895" lon="4.62254">
        <ele>759</ele>
        <time>2025-12-11T14:44:27Z</time>
      </trkpt>
      <trkpt lat="45.75897" lon="4.62256">
        <ele>759</ele>
        <time>2025-12-11T14:44:28Z</time>
      </trkpt>
      <trkpt lat="45.75899" lon="4.62259">
        <ele>759.2</ele>
        <time>2025-12-11T14:44:29Z</time>
      </trkpt>
      <trkpt lat="45.75901" lon="4.62262">
        <ele>759.2</ele>
        <time>2025-12-11T14:44:30Z</time>
      </trkpt>
      <trkpt lat="45.75903" lon="4.62264">
        <ele>759.2</ele>
        <time>2025-12-11T14:44:31Z</time>
      </trkpt>
      <trkpt lat="45.75905" lon="4.62266">
        <ele>759.4</ele>
        <time>2025-12-11T14:44:32Z</time>
      </trkpt>
      <trkpt lat="45.75907" lon="4.62269">
        <ele>759.4</ele>
        <time>2025-12-11T14:44:33Z</time>
      </trkpt>
      <trkpt lat="45.75909" lon="4.62271">
        <ele>759.4</ele>
        <time>2025-12-11T14:44:34Z</time>
      </trkpt>
      <trkpt lat="45.75911" lon="4.62273">
        <ele>759.4</ele>
        <time>2025-12-11T14:44:35Z</time>
      </trkpt>
      <trkpt lat="45.75913" lon="4.62276">
        <ele>759.4</ele>
        <time>2025-12-11T14:44:36Z</time>
      </trkpt>
      <trkpt lat="45.75915" lon="4.62278">
        <ele>759.4</ele>
        <time>2025-12-11T14:44:37Z</time>
      </trkpt>
      <trkpt lat="45.75916" lon="4.6228">
        <ele>759.4</ele>
        <time>2025-12-11T14:44:38Z</time>
      </trkpt>
      <trkpt lat="45.75918" lon="4.62282">
        <ele>759.6</ele>
        <time>2025-12-11T14:44:39Z</time>
      </trkpt>
      <trkpt lat="45.7592" lon="4.62285">
        <ele>759.6</ele>
        <time>2025-12-11T14:44:40Z</time>
      </trkpt>
      <trkpt lat="45.75921" lon="4.62287">
        <ele>759.6</ele>
        <time>2025-12-11T14:44:41Z</time>
      </trkpt>
      <trkpt lat="45.75922" lon="4.62289">
        <ele>759.6</ele>
        <time>2025-12-11T14:44:42Z</time>
      </trkpt>
      <trkpt lat="45.75924" lon="4.62291">
        <ele>759.6</ele>
        <time>2025-12-11T14:44:43Z</time>
      </trkpt>
      <trkpt lat="45.75925" lon="4.62293">
        <ele>759.6</ele>
        <time>2025-12-11T14:44:44Z</time>
      </trkpt>
      <trkpt lat="45.75927" lon="4.62296">
        <ele>759.6</ele>
        <time>2025-12-11T14:44:45Z</time>
      </trkpt>
      <trkpt lat="45.75929" lon="4.62298">
        <ele>759.6</ele>
        <time>2025-12-11T14:44:46Z</time>
      </trkpt>
      <trkpt lat="45.7593" lon="4.62301">
        <ele>759.6</ele>
        <time>2025-12-11T14:44:47Z</time>
      </trkpt>
      <trkpt lat="45.75931" lon="4.62304">
        <ele>759.6</ele>
        <time>2025-12-11T14:44:48Z</time>
      </trkpt>
      <trkpt lat="45.75933" lon="4.62307">
        <ele>759.6</ele>
        <time>2025-12-11T14:44:49Z</time>
      </trkpt>
      <trkpt lat="45.75934" lon="4.6231">
        <ele>759.8</ele>
        <time>2025-12-11T14:44:50Z</time>
      </trkpt>
      <trkpt lat="45.75935" lon="4.62313">
        <ele>759.8</ele>
        <time>2025-12-11T14:44:51Z</time>
      </trkpt>
      <trkpt lat="45.75936" lon="4.62316">
        <ele>759.8</ele>
        <time>2025-12-11T14:44:52Z</time>
      </trkpt>
      <trkpt lat="45.75937" lon="4.62319">
        <ele>759.8</ele>
        <time>2025-12-11T14:44:53Z</time>
      </trkpt>
      <trkpt lat="45.75938" lon="4.62322">
        <ele>759.8</ele>
        <time>2025-12-11T14:44:54Z</time>
      </trkpt>
      <trkpt lat="45.75939" lon="4.62325">
        <ele>760</ele>
        <time>2025-12-11T14:44:55Z</time>
      </trkpt>
      <trkpt lat="45.7594" lon="4.62328">
        <ele>760</ele>
        <time>2025-12-11T14:44:56Z</time>
      </trkpt>
      <trkpt lat="45.75941" lon="4.62332">
        <ele>760</ele>
        <time>2025-12-11T14:44:57Z</time>
      </trkpt>
      <trkpt lat="45.75941" lon="4.62334">
        <ele>760.2</ele>
        <time>2025-12-11T14:44:58Z</time>
      </trkpt>
      <trkpt lat="45.75942" lon="4.62337">
        <ele>760.2</ele>
        <time>2025-12-11T14:44:59Z</time>
      </trkpt>
      <trkpt lat="45.75943" lon="4.62339">
        <ele>760.4</ele>
        <time>2025-12-11T14:45:00Z</time>
      </trkpt>
      <trkpt lat="45.75944" lon="4.62342">
        <ele>760.4</ele>
        <time>2025-12-11T14:45:01Z</time>
      </trkpt>
      <trkpt lat="45.75945" lon="4.62344">
        <ele>760.6</ele>
        <time>2025-12-11T14:45:02Z</time>
      </trkpt>
      <trkpt lat="45.75946" lon="4.62346">
        <ele>760.6</ele>
        <time>2025-12-11T14:45:03Z</time>
      </trkpt>
      <trkpt lat="45.75946" lon="4.62349">
        <ele>760.8</ele>
        <time>2025-12-11T14:45:04Z</time>
      </trkpt>
      <trkpt lat="45.75946" lon="4.62351">
        <ele>760.8</ele>
        <time>2025-12-11T14:45:05Z</time>
      </trkpt>
      <trkpt lat="45.75947" lon="4.62354">
        <ele>760.8</ele>
        <time>2025-12-11T14:45:06Z</time>
      </trkpt>
      <trkpt lat="45.75948" lon="4.62356">
        <ele>760.8</ele>
        <time>2025-12-11T14:45:07Z</time>
      </trkpt>
      <trkpt lat="45.75949" lon="4.62359">
        <ele>760.8</ele>
        <time>2025-12-11T14:45:08Z</time>
      </trkpt>
      <trkpt lat="45.75949" lon="4.62362">
        <ele>760.8</ele>
        <time>2025-12-11T14:45:09Z</time>
      </trkpt>
      <trkpt lat="45.7595" lon="4.62365">
        <ele>760.8</ele>
        <time>2025-12-11T14:45:10Z</time>
      </trkpt>
      <trkpt lat="45.75951" lon="4.62368">
        <ele>760.8</ele>
        <time>2025-12-11T14:45:11Z</time>
      </trkpt>
      <trkpt lat="45.75951" lon="4.62371">
        <ele>760.8</ele>
        <time>2025-12-11T14:45:12Z</time>
      </trkpt>
      <trkpt lat="45.75951" lon="4.62374">
        <ele>760.8</ele>
        <time>2025-12-11T14:45:13Z</time>
      </trkpt>
      <trkpt lat="45.75952" lon="4.62377">
        <ele>760.8</ele>
        <time>2025-12-11T14:45:14Z</time>
      </trkpt>
      <trkpt lat="45.75953" lon="4.6238">
        <ele>760.8</ele>
        <time>2025-12-11T14:45:15Z</time>
      </trkpt>
      <trkpt lat="45.75953" lon="4.62383">
        <ele>760.8</ele>
        <time>2025-12-11T14:45:16Z</time>
      </trkpt>
      <trkpt lat="45.75954" lon="4.62386">
        <ele>760.8</ele>
        <time>2025-12-11T14:45:17Z</time>
      </trkpt>
      <trkpt lat="45.75954" lon="4.62389">
        <ele>760.8</ele>
        <time>2025-12-11T14:45:18Z</time>
      </trkpt>
      <trkpt lat="45.75955" lon="4.62392">
        <ele>760.8</ele>
        <time>2025-12-11T14:45:19Z</time>
      </trkpt>
      <trkpt lat="45.75955" lon="4.62395">
        <ele>761</ele>
        <time>2025-12-11T14:45:20Z</time>
      </trkpt>
      <trkpt lat="45.75956" lon="4.62398">
        <ele>761</ele>
        <time>2025-12-11T14:45:21Z</time>
      </trkpt>
      <trkpt lat="45.75957" lon="4.62401">
        <ele>761</ele>
        <time>2025-12-11T14:45:22Z</time>
      </trkpt>
      <trkpt lat="45.75958" lon="4.62404">
        <ele>761</ele>
        <time>2025-12-11T14:45:23Z</time>
      </trkpt>
      <trkpt lat="45.75959" lon="4.62407">
        <ele>761</ele>
        <time>2025-12-11T14:45:24Z</time>
      </trkpt>
      <trkpt lat="45.7596" lon="4.62411">
        <ele>761</ele>
        <time>2025-12-11T14:45:25Z</time>
      </trkpt>
      <trkpt lat="45.7596" lon="4.62414">
        <ele>761.2</ele>
        <time>2025-12-11T14:45:26Z</time>
      </trkpt>
      <trkpt lat="45.75961" lon="4.62418">
        <ele>761.2</ele>
        <time>2025-12-11T14:45:27Z</time>
      </trkpt>
      <trkpt lat="45.75961" lon="4.62422">
        <ele>761.2</ele>
        <time>2025-12-11T14:45:28Z</time>
      </trkpt>
      <trkpt lat="45.75962" lon="4.62425">
        <ele>761.2</ele>
        <time>2025-12-11T14:45:29Z</time>
      </trkpt>
      <trkpt lat="45.75963" lon="4.62429">
        <ele>761.4</ele>
        <time>2025-12-11T14:45:30Z</time>
      </trkpt>
      <trkpt lat="45.75964" lon="4.62432">
        <ele>761.4</ele>
        <time>2025-12-11T14:45:31Z</time>
      </trkpt>
      <trkpt lat="45.75965" lon="4.62435">
        <ele>761.6</ele>
        <time>2025-12-11T14:45:32Z</time>
      </trkpt>
      <trkpt lat="45.75966" lon="4.62438">
        <ele>761.6</ele>
        <time>2025-12-11T14:45:33Z</time>
      </trkpt>
      <trkpt lat="45.75966" lon="4.62442">
        <ele>761.6</ele>
        <time>2025-12-11T14:45:34Z</time>
      </trkpt>
      <trkpt lat="45.75967" lon="4.62445">
        <ele>761.8</ele>
        <time>2025-12-11T14:45:35Z</time>
      </trkpt>
      <trkpt lat="45.75968" lon="4.62448">
        <ele>761.8</ele>
        <time>2025-12-11T14:45:36Z</time>
      </trkpt>
      <trkpt lat="45.75968" lon="4.62451">
        <ele>761.8</ele>
        <time>2025-12-11T14:45:37Z</time>
      </trkpt>
      <trkpt lat="45.75969" lon="4.62455">
        <ele>761.8</ele>
        <time>2025-12-11T14:45:38Z</time>
      </trkpt>
      <trkpt lat="45.75971" lon="4.62458">
        <ele>761.8</ele>
        <time>2025-12-11T14:45:39Z</time>
      </trkpt>
      <trkpt lat="45.75972" lon="4.62461">
        <ele>761.8</ele>
        <time>2025-12-11T14:45:40Z</time>
      </trkpt>
      <trkpt lat="45.75974" lon="4.62464">
        <ele>761.6</ele>
        <time>2025-12-11T14:45:41Z</time>
      </trkpt>
      <trkpt lat="45.75975" lon="4.62467">
        <ele>761.6</ele>
        <time>2025-12-11T14:45:42Z</time>
      </trkpt>
      <trkpt lat="45.75976" lon="4.6247">
        <ele>761.6</ele>
        <time>2025-12-11T14:45:43Z</time>
      </trkpt>
      <trkpt lat="45.75977" lon="4.62473">
        <ele>761.6</ele>
        <time>2025-12-11T14:45:44Z</time>
      </trkpt>
      <trkpt lat="45.75978" lon="4.62476">
        <ele>761.6</ele>
        <time>2025-12-11T14:45:45Z</time>
      </trkpt>
      <trkpt lat="45.75979" lon="4.62479">
        <ele>761.6</ele>
        <time>2025-12-11T14:45:46Z</time>
      </trkpt>
      <trkpt lat="45.75981" lon="4.62483">
        <ele>761.6</ele>
        <time>2025-12-11T14:45:47Z</time>
      </trkpt>
      <trkpt lat="45.75982" lon="4.62487">
        <ele>761.6</ele>
        <time>2025-12-11T14:45:48Z</time>
      </trkpt>
      <trkpt lat="45.75983" lon="4.62491">
        <ele>761.4</ele>
        <time>2025-12-11T14:45:49Z</time>
      </trkpt>
      <trkpt lat="45.75985" lon="4.62494">
        <ele>761.4</ele>
        <time>2025-12-11T14:45:50Z</time>
      </trkpt>
      <trkpt lat="45.75986" lon="4.62498">
        <ele>761.2</ele>
        <time>2025-12-11T14:45:51Z</time>
      </trkpt>
      <trkpt lat="45.75988" lon="4.62501">
        <ele>761.2</ele>
        <time>2025-12-11T14:45:52Z</time>
      </trkpt>
      <trkpt lat="45.75989" lon="4.62505">
        <ele>761</ele>
        <time>2025-12-11T14:45:53Z</time>
      </trkpt>
      <trkpt lat="45.7599" lon="4.62509">
        <ele>761</ele>
        <time>2025-12-11T14:45:54Z</time>
      </trkpt>
      <trkpt lat="45.75991" lon="4.62512">
        <ele>760.8</ele>
        <time>2025-12-11T14:45:55Z</time>
      </trkpt>
      <trkpt lat="45.75993" lon="4.62516">
        <ele>760.6</ele>
        <time>2025-12-11T14:45:56Z</time>
      </trkpt>
      <trkpt lat="45.75994" lon="4.62521">
        <ele>760.4</ele>
        <time>2025-12-11T14:45:57Z</time>
      </trkpt>
      <trkpt lat="45.75996" lon="4.62525">
        <ele>760.2</ele>
        <time>2025-12-11T14:45:58Z</time>
      </trkpt>
      <trkpt lat="45.75998" lon="4.62529">
        <ele>760</ele>
        <time>2025-12-11T14:45:59Z</time>
      </trkpt>
      <trkpt lat="45.76" lon="4.62533">
        <ele>759.8</ele>
        <time>2025-12-11T14:46:00Z</time>
      </trkpt>
      <trkpt lat="45.76003" lon="4.62538">
        <ele>759.8</ele>
        <time>2025-12-11T14:46:01Z</time>
      </trkpt>
      <trkpt lat="45.76005" lon="4.62542">
        <ele>759.6</ele>
        <time>2025-12-11T14:46:02Z</time>
      </trkpt>
      <trkpt lat="45.76008" lon="4.62546">
        <ele>759.4</ele>
        <time>2025-12-11T14:46:03Z</time>
      </trkpt>
      <trkpt lat="45.76009" lon="4.62551">
        <ele>759.2</ele>
        <time>2025-12-11T14:46:04Z</time>
      </trkpt>
      <trkpt lat="45.76011" lon="4.62555">
        <ele>759</ele>
        <time>2025-12-11T14:46:05Z</time>
      </trkpt>
      <trkpt lat="45.76012" lon="4.62559">
        <ele>758.6</ele>
        <time>2025-12-11T14:46:06Z</time>
      </trkpt>
      <trkpt lat="45.76014" lon="4.62563">
        <ele>758.2</ele>
        <time>2025-12-11T14:46:07Z</time>
      </trkpt>
      <trkpt lat="45.76016" lon="4.62568">
        <ele>758</ele>
        <time>2025-12-11T14:46:08Z</time>
      </trkpt>
      <trkpt lat="45.76017" lon="4.62572">
        <ele>757.8</ele>
        <time>2025-12-11T14:46:09Z</time>
      </trkpt>
      <trkpt lat="45.76019" lon="4.62576">
        <ele>757.6</ele>
        <time>2025-12-11T14:46:10Z</time>
      </trkpt>
      <trkpt lat="45.76021" lon="4.6258">
        <ele>757.4</ele>
        <time>2025-12-11T14:46:11Z</time>
      </trkpt>
      <trkpt lat="45.76023" lon="4.62584">
        <ele>757.2</ele>
        <time>2025-12-11T14:46:12Z</time>
      </trkpt>
      <trkpt lat="45.76026" lon="4.6259">
        <ele>757</ele>
        <time>2025-12-11T14:46:13Z</time>
      </trkpt>
      <trkpt lat="45.7603" lon="4.62594">
        <ele>756.6</ele>
        <time>2025-12-11T14:46:14Z</time>
      </trkpt>
      <trkpt lat="45.76035" lon="4.62598">
        <ele>756.2</ele>
        <time>2025-12-11T14:46:15Z</time>
      </trkpt>
      <trkpt lat="45.76041" lon="4.62602">
        <ele>755.6</ele>
        <time>2025-12-11T14:46:16Z</time>
      </trkpt>
      <trkpt lat="45.76046" lon="4.62607">
        <ele>755</ele>
        <time>2025-12-11T14:46:17Z</time>
      </trkpt>
      <trkpt lat="45.76053" lon="4.62611">
        <ele>754.2</ele>
        <time>2025-12-11T14:46:18Z</time>
      </trkpt>
      <trkpt lat="45.76059" lon="4.62615">
        <ele>753.4</ele>
        <time>2025-12-11T14:46:19Z</time>
      </trkpt>
      <trkpt lat="45.76066" lon="4.62619">
        <ele>753</ele>
        <time>2025-12-11T14:46:20Z</time>
      </trkpt>
      <trkpt lat="45.76071" lon="4.62623">
        <ele>752.2</ele>
        <time>2025-12-11T14:46:21Z</time>
      </trkpt>
      <trkpt lat="45.76076" lon="4.62627">
        <ele>751.6</ele>
        <time>2025-12-11T14:46:22Z</time>
      </trkpt>
      <trkpt lat="45.7608" lon="4.62629">
        <ele>751</ele>
        <time>2025-12-11T14:46:23Z</time>
      </trkpt>
      <trkpt lat="45.76085" lon="4.62629">
        <ele>750.4</ele>
        <time>2025-12-11T14:46:24Z</time>
      </trkpt>
      <trkpt lat="45.76091" lon="4.62629">
        <ele>749.6</ele>
        <time>2025-12-11T14:46:25Z</time>
      </trkpt>
      <trkpt lat="45.76098" lon="4.62631">
        <ele>749</ele>
        <time>2025-12-11T14:46:26Z</time>
      </trkpt>
      <trkpt lat="45.76105" lon="4.62632">
        <ele>748.4</ele>
        <time>2025-12-11T14:46:27Z</time>
      </trkpt>
      <trkpt lat="45.76112" lon="4.62633">
        <ele>747.8</ele>
        <time>2025-12-11T14:46:28Z</time>
      </trkpt>
      <trkpt lat="45.76118" lon="4.62636">
        <ele>747.2</ele>
        <time>2025-12-11T14:46:29Z</time>
      </trkpt>
      <trkpt lat="45.76123" lon="4.6264">
        <ele>746.4</ele>
        <time>2025-12-11T14:46:30Z</time>
      </trkpt>
      <trkpt lat="45.76129" lon="4.62643">
        <ele>745.6</ele>
        <time>2025-12-11T14:46:31Z</time>
      </trkpt>
      <trkpt lat="45.76134" lon="4.62646">
        <ele>745.4</ele>
        <time>2025-12-11T14:46:32Z</time>
      </trkpt>
      <trkpt lat="45.76139" lon="4.6265">
        <ele>744.2</ele>
        <time>2025-12-11T14:46:33Z</time>
      </trkpt>
      <trkpt lat="45.76143" lon="4.62653">
        <ele>743.4</ele>
        <time>2025-12-11T14:46:34Z</time>
      </trkpt>
      <trkpt lat="45.76146" lon="4.62657">
        <ele>742.6</ele>
        <time>2025-12-11T14:46:35Z</time>
      </trkpt>
      <trkpt lat="45.76149" lon="4.62659">
        <ele>742</ele>
        <time>2025-12-11T14:46:36Z</time>
      </trkpt>
      <trkpt lat="45.76152" lon="4.62662">
        <ele>741.4</ele>
        <time>2025-12-11T14:46:37Z</time>
      </trkpt>
      <trkpt lat="45.76156" lon="4.62665">
        <ele>740.8</ele>
        <time>2025-12-11T14:46:38Z</time>
      </trkpt>
      <trkpt lat="45.7616" lon="4.62669">
        <ele>740.4</ele>
        <time>2025-12-11T14:46:39Z</time>
      </trkpt>
      <trkpt lat="45.76164" lon="4.62673">
        <ele>739.8</ele>
        <time>2025-12-11T14:46:40Z</time>
      </trkpt>
      <trkpt lat="45.76169" lon="4.62676">
        <ele>739.2</ele>
        <time>2025-12-11T14:46:41Z</time>
      </trkpt>
      <trkpt lat="45.76174" lon="4.62679">
        <ele>738.6</ele>
        <time>2025-12-11T14:46:42Z</time>
      </trkpt>
      <trkpt lat="45.76179" lon="4.62684">
        <ele>738</ele>
        <time>2025-12-11T14:46:43Z</time>
      </trkpt>
      <trkpt lat="45.76184" lon="4.6269">
        <ele>737.2</ele>
        <time>2025-12-11T14:46:44Z</time>
      </trkpt>
      <trkpt lat="45.76189" lon="4.62695">
        <ele>736.6</ele>
        <time>2025-12-11T14:46:45Z</time>
      </trkpt>
      <trkpt lat="45.76193" lon="4.62701">
        <ele>736</ele>
        <time>2025-12-11T14:46:46Z</time>
      </trkpt>
      <trkpt lat="45.76197" lon="4.62705">
        <ele>735.6</ele>
        <time>2025-12-11T14:46:47Z</time>
      </trkpt>
      <trkpt lat="45.762" lon="4.6271">
        <ele>735.2</ele>
        <time>2025-12-11T14:46:48Z</time>
      </trkpt>
      <trkpt lat="45.76203" lon="4.62716">
        <ele>735</ele>
        <time>2025-12-11T14:46:49Z</time>
      </trkpt>
      <trkpt lat="45.76204" lon="4.62722">
        <ele>734.6</ele>
        <time>2025-12-11T14:46:50Z</time>
      </trkpt>
      <trkpt lat="45.76205" lon="4.62729">
        <ele>734.2</ele>
        <time>2025-12-11T14:46:51Z</time>
      </trkpt>
      <trkpt lat="45.76204" lon="4.62735">
        <ele>733.8</ele>
        <time>2025-12-11T14:46:52Z</time>
      </trkpt>
      <trkpt lat="45.76204" lon="4.62739">
        <ele>733.4</ele>
        <time>2025-12-11T14:46:53Z</time>
      </trkpt>
      <trkpt lat="45.76206" lon="4.62742">
        <ele>733.2</ele>
        <time>2025-12-11T14:46:54Z</time>
      </trkpt>
      <trkpt lat="45.76208" lon="4.62745">
        <ele>733</ele>
        <time>2025-12-11T14:46:55Z</time>
      </trkpt>
      <trkpt lat="45.7621" lon="4.62747">
        <ele>733</ele>
        <time>2025-12-11T14:46:56Z</time>
      </trkpt>
      <trkpt lat="45.76212" lon="4.62749">
        <ele>732.8</ele>
        <time>2025-12-11T14:46:57Z</time>
      </trkpt>
      <trkpt lat="45.76214" lon="4.62752">
        <ele>732.6</ele>
        <time>2025-12-11T14:46:58Z</time>
      </trkpt>
      <trkpt lat="45.76216" lon="4.62756">
        <ele>732.2</ele>
        <time>2025-12-11T14:46:59Z</time>
      </trkpt>
      <trkpt lat="45.76217" lon="4.62759">
        <ele>732</ele>
        <time>2025-12-11T14:47:00Z</time>
      </trkpt>
      <trkpt lat="45.76218" lon="4.62762">
        <ele>731.6</ele>
        <time>2025-12-11T14:47:01Z</time>
      </trkpt>
      <trkpt lat="45.7622" lon="4.62766">
        <ele>731.2</ele>
        <time>2025-12-11T14:47:02Z</time>
      </trkpt>
      <trkpt lat="45.76221" lon="4.6277">
        <ele>730.6</ele>
        <time>2025-12-11T14:47:03Z</time>
      </trkpt>
      <trkpt lat="45.76222" lon="4.62774">
        <ele>730.2</ele>
        <time>2025-12-11T14:47:04Z</time>
      </trkpt>
      <trkpt lat="45.76223" lon="4.62779">
        <ele>729.6</ele>
        <time>2025-12-11T14:47:05Z</time>
      </trkpt>
      <trkpt lat="45.76225" lon="4.62783">
        <ele>729</ele>
        <time>2025-12-11T14:47:06Z</time>
      </trkpt>
      <trkpt lat="45.76227" lon="4.62786">
        <ele>728.4</ele>
        <time>2025-12-11T14:47:07Z</time>
      </trkpt>
      <trkpt lat="45.76228" lon="4.6279">
        <ele>727.8</ele>
        <time>2025-12-11T14:47:08Z</time>
      </trkpt>
      <trkpt lat="45.76229" lon="4.62794">
        <ele>727.2</ele>
        <time>2025-12-11T14:47:09Z</time>
      </trkpt>
      <trkpt lat="45.7623" lon="4.62799">
        <ele>726.4</ele>
        <time>2025-12-11T14:47:10Z</time>
      </trkpt>
      <trkpt lat="45.76231" lon="4.62804">
        <ele>725.8</ele>
        <time>2025-12-11T14:47:11Z</time>
      </trkpt>
      <trkpt lat="45.76231" lon="4.62808">
        <ele>725.2</ele>
        <time>2025-12-11T14:47:12Z</time>
      </trkpt>
      <trkpt lat="45.76232" lon="4.62811">
        <ele>724.6</ele>
        <time>2025-12-11T14:47:13Z</time>
      </trkpt>
      <trkpt lat="45.76236" lon="4.62816">
        <ele>724</ele>
        <time>2025-12-11T14:47:14Z</time>
      </trkpt>
      <trkpt lat="45.76239" lon="4.62821">
        <ele>723.2</ele>
        <time>2025-12-11T14:47:15Z</time>
      </trkpt>
      <trkpt lat="45.76243" lon="4.62827">
        <ele>722.6</ele>
        <time>2025-12-11T14:47:16Z</time>
      </trkpt>
      <trkpt lat="45.76247" lon="4.62831">
        <ele>721.8</ele>
        <time>2025-12-11T14:47:17Z</time>
      </trkpt>
      <trkpt lat="45.76251" lon="4.62837">
        <ele>721</ele>
        <time>2025-12-11T14:47:18Z</time>
      </trkpt>
      <trkpt lat="45.76256" lon="4.62842">
        <ele>720.4</ele>
        <time>2025-12-11T14:47:19Z</time>
      </trkpt>
      <trkpt lat="45.7626" lon="4.62845">
        <ele>719.8</ele>
        <time>2025-12-11T14:47:20Z</time>
      </trkpt>
      <trkpt lat="45.76262" lon="4.62849">
        <ele>719.2</ele>
        <time>2025-12-11T14:47:21Z</time>
      </trkpt>
      <trkpt lat="45.76264" lon="4.62855">
        <ele>718.6</ele>
        <time>2025-12-11T14:47:22Z</time>
      </trkpt>
      <trkpt lat="45.76265" lon="4.62861">
        <ele>718</ele>
        <time>2025-12-11T14:47:23Z</time>
      </trkpt>
      <trkpt lat="45.76268" lon="4.62867">
        <ele>717.4</ele>
        <time>2025-12-11T14:47:24Z</time>
      </trkpt>
      <trkpt lat="45.76271" lon="4.62874">
        <ele>716.8</ele>
        <time>2025-12-11T14:47:25Z</time>
      </trkpt>
      <trkpt lat="45.76274" lon="4.62879">
        <ele>716.4</ele>
        <time>2025-12-11T14:47:26Z</time>
      </trkpt>
      <trkpt lat="45.76277" lon="4.62885">
        <ele>716.2</ele>
        <time>2025-12-11T14:47:27Z</time>
      </trkpt>
      <trkpt lat="45.76278" lon="4.62889">
        <ele>716</ele>
        <time>2025-12-11T14:47:28Z</time>
      </trkpt>
      <trkpt lat="45.7628" lon="4.62894">
        <ele>716</ele>
        <time>2025-12-11T14:47:29Z</time>
      </trkpt>
      <trkpt lat="45.76283" lon="4.62898">
        <ele>715.8</ele>
        <time>2025-12-11T14:47:30Z</time>
      </trkpt>
      <trkpt lat="45.76286" lon="4.62903">
        <ele>715.8</ele>
        <time>2025-12-11T14:47:31Z</time>
      </trkpt>
      <trkpt lat="45.76288" lon="4.62906">
        <ele>715.6</ele>
        <time>2025-12-11T14:47:32Z</time>
      </trkpt>
      <trkpt lat="45.76289" lon="4.6291">
        <ele>715.6</ele>
        <time>2025-12-11T14:47:33Z</time>
      </trkpt>
      <trkpt lat="45.76291" lon="4.62914">
        <ele>715.6</ele>
        <time>2025-12-11T14:47:34Z</time>
      </trkpt>
      <trkpt lat="45.76293" lon="4.62917">
        <ele>715.8</ele>
        <time>2025-12-11T14:47:35Z</time>
      </trkpt>
      <trkpt lat="45.76295" lon="4.62921">
        <ele>716</ele>
        <time>2025-12-11T14:47:36Z</time>
      </trkpt>
      <trkpt lat="45.76296" lon="4.62924">
        <ele>716.2</ele>
        <time>2025-12-11T14:47:37Z</time>
      </trkpt>
      <trkpt lat="45.76298" lon="4.62926">
        <ele>716.4</ele>
        <time>2025-12-11T14:47:38Z</time>
      </trkpt>
      <trkpt lat="45.76299" lon="4.62929">
        <ele>716.6</ele>
        <time>2025-12-11T14:47:39Z</time>
      </trkpt>
      <trkpt lat="45.763" lon="4.62931">
        <ele>716.8</ele>
        <time>2025-12-11T14:47:40Z</time>
      </trkpt>
      <trkpt lat="45.76302" lon="4.62934">
        <ele>717.2</ele>
        <time>2025-12-11T14:47:41Z</time>
      </trkpt>
      <trkpt lat="45.76303" lon="4.62936">
        <ele>717.4</ele>
        <time>2025-12-11T14:47:42Z</time>
      </trkpt>
      <trkpt lat="45.76304" lon="4.62938">
        <ele>717.6</ele>
        <time>2025-12-11T14:47:43Z</time>
      </trkpt>
      <trkpt lat="45.76306" lon="4.62939">
        <ele>717.8</ele>
        <time>2025-12-11T14:47:44Z</time>
      </trkpt>
      <trkpt lat="45.76308" lon="4.6294">
        <ele>718</ele>
        <time>2025-12-11T14:47:45Z</time>
      </trkpt>
      <trkpt lat="45.7631" lon="4.62941">
        <ele>718.4</ele>
        <time>2025-12-11T14:47:46Z</time>
      </trkpt>
      <trkpt lat="45.76312" lon="4.62943">
        <ele>718.6</ele>
        <time>2025-12-11T14:47:47Z</time>
      </trkpt>
      <trkpt lat="45.76314" lon="4.62944">
        <ele>718.8</ele>
        <time>2025-12-11T14:47:48Z</time>
      </trkpt>
      <trkpt lat="45.76315" lon="4.62945">
        <ele>719</ele>
        <time>2025-12-11T14:47:49Z</time>
      </trkpt>
      <trkpt lat="45.76317" lon="4.62947">
        <ele>719.2</ele>
        <time>2025-12-11T14:47:50Z</time>
      </trkpt>
      <trkpt lat="45.76319" lon="4.62949">
        <ele>719.4</ele>
        <time>2025-12-11T14:47:51Z</time>
      </trkpt>
      <trkpt lat="45.76321" lon="4.6295">
        <ele>719.6</ele>
        <time>2025-12-11T14:47:52Z</time>
      </trkpt>
      <trkpt lat="45.76322" lon="4.62952">
        <ele>719.8</ele>
        <time>2025-12-11T14:47:53Z</time>
      </trkpt>
      <trkpt lat="45.76324" lon="4.62954">
        <ele>720.2</ele>
        <time>2025-12-11T14:47:54Z</time>
      </trkpt>
      <trkpt lat="45.76326" lon="4.62956">
        <ele>720.4</ele>
        <time>2025-12-11T14:47:55Z</time>
      </trkpt>
      <trkpt lat="45.76327" lon="4.62957">
        <ele>720.6</ele>
        <time>2025-12-11T14:47:56Z</time>
      </trkpt>
      <trkpt lat="45.76329" lon="4.62958">
        <ele>720.8</ele>
        <time>2025-12-11T14:47:57Z</time>
      </trkpt>
      <trkpt lat="45.76331" lon="4.6296">
        <ele>721.2</ele>
        <time>2025-12-11T14:47:58Z</time>
      </trkpt>
      <trkpt lat="45.76332" lon="4.62961">
        <ele>721.4</ele>
        <time>2025-12-11T14:47:59Z</time>
      </trkpt>
      <trkpt lat="45.76333" lon="4.62961">
        <ele>721.6</ele>
        <time>2025-12-11T14:48:00Z</time>
      </trkpt>
      <trkpt lat="45.76334" lon="4.62961">
        <ele>721.8</ele>
        <time>2025-12-11T14:48:01Z</time>
      </trkpt>
      <trkpt lat="45.76336" lon="4.62962">
        <ele>722</ele>
        <time>2025-12-11T14:48:02Z</time>
      </trkpt>
      <trkpt lat="45.76337" lon="4.62963">
        <ele>722</ele>
        <time>2025-12-11T14:48:03Z</time>
      </trkpt>
      <trkpt lat="45.76339" lon="4.62965">
        <ele>722.2</ele>
        <time>2025-12-11T14:48:04Z</time>
      </trkpt>
      <trkpt lat="45.76341" lon="4.62966">
        <ele>722.4</ele>
        <time>2025-12-11T14:48:05Z</time>
      </trkpt>
      <trkpt lat="45.76342" lon="4.62968">
        <ele>722.6</ele>
        <time>2025-12-11T14:48:06Z</time>
      </trkpt>
      <trkpt lat="45.76344" lon="4.6297">
        <ele>722.6</ele>
        <time>2025-12-11T14:48:07Z</time>
      </trkpt>
      <trkpt lat="45.76345" lon="4.62971">
        <ele>722.8</ele>
        <time>2025-12-11T14:48:08Z</time>
      </trkpt>
      <trkpt lat="45.76347" lon="4.62972">
        <ele>723</ele>
        <time>2025-12-11T14:48:09Z</time>
      </trkpt>
      <trkpt lat="45.76349" lon="4.62974">
        <ele>723</ele>
        <time>2025-12-11T14:48:10Z</time>
      </trkpt>
      <trkpt lat="45.76351" lon="4.62976">
        <ele>723</ele>
        <time>2025-12-11T14:48:11Z</time>
      </trkpt>
      <trkpt lat="45.76352" lon="4.62977">
        <ele>723.2</ele>
        <time>2025-12-11T14:48:12Z</time>
      </trkpt>
      <trkpt lat="45.76354" lon="4.62979">
        <ele>723.2</ele>
        <time>2025-12-11T14:48:13Z</time>
      </trkpt>
      <trkpt lat="45.76356" lon="4.6298">
        <ele>723.4</ele>
        <time>2025-12-11T14:48:14Z</time>
      </trkpt>
      <trkpt lat="45.76358" lon="4.62982">
        <ele>723.4</ele>
        <time>2025-12-11T14:48:15Z</time>
      </trkpt>
      <trkpt lat="45.76359" lon="4.62984">
        <ele>723.4</ele>
        <time>2025-12-11T14:48:16Z</time>
      </trkpt>
      <trkpt lat="45.76361" lon="4.62986">
        <ele>723.6</ele>
        <time>2025-12-11T14:48:17Z</time>
      </trkpt>
      <trkpt lat="45.76363" lon="4.62987">
        <ele>723.6</ele>
        <time>2025-12-11T14:48:18Z</time>
      </trkpt>
      <trkpt lat="45.76365" lon="4.62988">
        <ele>723.6</ele>
        <time>2025-12-11T14:48:19Z</time>
      </trkpt>
      <trkpt lat="45.76367" lon="4.62989">
        <ele>723.6</ele>
        <time>2025-12-11T14:48:20Z</time>
      </trkpt>
      <trkpt lat="45.76369" lon="4.62991">
        <ele>723.8</ele>
        <time>2025-12-11T14:48:21Z</time>
      </trkpt>
      <trkpt lat="45.76371" lon="4.62992">
        <ele>723.8</ele>
        <time>2025-12-11T14:48:22Z</time>
      </trkpt>
      <trkpt lat="45.76373" lon="4.62994">
        <ele>724</ele>
        <time>2025-12-11T14:48:23Z</time>
      </trkpt>
      <trkpt lat="45.76374" lon="4.62996">
        <ele>724.2</ele>
        <time>2025-12-11T14:48:24Z</time>
      </trkpt>
      <trkpt lat="45.76376" lon="4.62998">
        <ele>724.4</ele>
        <time>2025-12-11T14:48:25Z</time>
      </trkpt>
      <trkpt lat="45.76377" lon="4.63">
        <ele>724.6</ele>
        <time>2025-12-11T14:48:26Z</time>
      </trkpt>
      <trkpt lat="45.76379" lon="4.63002">
        <ele>724.6</ele>
        <time>2025-12-11T14:48:27Z</time>
      </trkpt>
      <trkpt lat="45.7638" lon="4.63003">
        <ele>724.8</ele>
        <time>2025-12-11T14:48:28Z</time>
      </trkpt>
      <trkpt lat="45.76382" lon="4.63005">
        <ele>725</ele>
        <time>2025-12-11T14:48:29Z</time>
      </trkpt>
      <trkpt lat="45.76383" lon="4.63007">
        <ele>725.2</ele>
        <time>2025-12-11T14:48:30Z</time>
      </trkpt>
      <trkpt lat="45.76384" lon="4.63008">
        <ele>725.4</ele>
        <time>2025-12-11T14:48:31Z</time>
      </trkpt>
      <trkpt lat="45.76386" lon="4.63008">
        <ele>725.6</ele>
        <time>2025-12-11T14:48:32Z</time>
      </trkpt>
      <trkpt lat="45.76387" lon="4.63009">
        <ele>725.8</ele>
        <time>2025-12-11T14:48:33Z</time>
      </trkpt>
      <trkpt lat="45.76388" lon="4.63011">
        <ele>725.8</ele>
        <time>2025-12-11T14:48:34Z</time>
      </trkpt>
      <trkpt lat="45.7639" lon="4.63012">
        <ele>726</ele>
        <time>2025-12-11T14:48:35Z</time>
      </trkpt>
      <trkpt lat="45.76391" lon="4.63014">
        <ele>726.2</ele>
        <time>2025-12-11T14:48:36Z</time>
      </trkpt>
      <trkpt lat="45.76393" lon="4.63015">
        <ele>726.4</ele>
        <time>2025-12-11T14:48:37Z</time>
      </trkpt>
      <trkpt lat="45.76394" lon="4.63017">
        <ele>726.6</ele>
        <time>2025-12-11T14:48:38Z</time>
      </trkpt>
      <trkpt lat="45.76396" lon="4.63018">
        <ele>726.8</ele>
        <time>2025-12-11T14:48:39Z</time>
      </trkpt>
      <trkpt lat="45.76397" lon="4.6302">
        <ele>726.8</ele>
        <time>2025-12-11T14:48:40Z</time>
      </trkpt>
      <trkpt lat="45.76398" lon="4.63022">
        <ele>727</ele>
        <time>2025-12-11T14:48:41Z</time>
      </trkpt>
      <trkpt lat="45.764" lon="4.63023">
        <ele>727.2</ele>
        <time>2025-12-11T14:48:42Z</time>
      </trkpt>
      <trkpt lat="45.76401" lon="4.63024">
        <ele>727.2</ele>
        <time>2025-12-11T14:48:43Z</time>
      </trkpt>
      <trkpt lat="45.76402" lon="4.63025">
        <ele>727.4</ele>
        <time>2025-12-11T14:48:44Z</time>
      </trkpt>
      <trkpt lat="45.76404" lon="4.63027">
        <ele>727.6</ele>
        <time>2025-12-11T14:48:45Z</time>
      </trkpt>
      <trkpt lat="45.76406" lon="4.63029">
        <ele>727.6</ele>
        <time>2025-12-11T14:48:46Z</time>
      </trkpt>
      <trkpt lat="45.76408" lon="4.63031">
        <ele>727.6</ele>
        <time>2025-12-11T14:48:47Z</time>
      </trkpt>
      <trkpt lat="45.76409" lon="4.63033">
        <ele>727.6</ele>
        <time>2025-12-11T14:48:48Z</time>
      </trkpt>
      <trkpt lat="45.76411" lon="4.63034">
        <ele>727.6</ele>
        <time>2025-12-11T14:48:49Z</time>
      </trkpt>
      <trkpt lat="45.76413" lon="4.63035">
        <ele>727.6</ele>
        <time>2025-12-11T14:48:50Z</time>
      </trkpt>
      <trkpt lat="45.76415" lon="4.63037">
        <ele>727.8</ele>
        <time>2025-12-11T14:48:51Z</time>
      </trkpt>
      <trkpt lat="45.76417" lon="4.63039">
        <ele>727.8</ele>
        <time>2025-12-11T14:48:52Z</time>
      </trkpt>
      <trkpt lat="45.7642" lon="4.63041">
        <ele>727.6</ele>
        <time>2025-12-11T14:48:53Z</time>
      </trkpt>
      <trkpt lat="45.76422" lon="4.63043">
        <ele>727.6</ele>
        <time>2025-12-11T14:48:54Z</time>
      </trkpt>
      <trkpt lat="45.76425" lon="4.63045">
        <ele>727.6</ele>
        <time>2025-12-11T14:48:55Z</time>
      </trkpt>
      <trkpt lat="45.76427" lon="4.63047">
        <ele>727.6</ele>
        <time>2025-12-11T14:48:56Z</time>
      </trkpt>
      <trkpt lat="45.7643" lon="4.63048">
        <ele>727.6</ele>
        <time>2025-12-11T14:48:57Z</time>
      </trkpt>
      <trkpt lat="45.76433" lon="4.6305">
        <ele>727.4</ele>
        <time>2025-12-11T14:48:58Z</time>
      </trkpt>
      <trkpt lat="45.76435" lon="4.63052">
        <ele>727.4</ele>
        <time>2025-12-11T14:48:59Z</time>
      </trkpt>
      <trkpt lat="45.76438" lon="4.63054">
        <ele>727.4</ele>
        <time>2025-12-11T14:49:00Z</time>
      </trkpt>
      <trkpt lat="45.76439" lon="4.63056">
        <ele>727.4</ele>
        <time>2025-12-11T14:49:01Z</time>
      </trkpt>
      <trkpt lat="45.76441" lon="4.63059">
        <ele>727.4</ele>
        <time>2025-12-11T14:49:02Z</time>
      </trkpt>
      <trkpt lat="45.76444" lon="4.63061">
        <ele>727.4</ele>
        <time>2025-12-11T14:49:03Z</time>
      </trkpt>
      <trkpt lat="45.76447" lon="4.63063">
        <ele>727.4</ele>
        <time>2025-12-11T14:49:04Z</time>
      </trkpt>
      <trkpt lat="45.7645" lon="4.63064">
        <ele>727.4</ele>
        <time>2025-12-11T14:49:05Z</time>
      </trkpt>
      <trkpt lat="45.76453" lon="4.63065">
        <ele>727.2</ele>
        <time>2025-12-11T14:49:06Z</time>
      </trkpt>
      <trkpt lat="45.76456" lon="4.63065">
        <ele>727</ele>
        <time>2025-12-11T14:49:07Z</time>
      </trkpt>
      <trkpt lat="45.76459" lon="4.63065">
        <ele>727</ele>
        <time>2025-12-11T14:49:08Z</time>
      </trkpt>
      <trkpt lat="45.76463" lon="4.63066">
        <ele>726.8</ele>
        <time>2025-12-11T14:49:09Z</time>
      </trkpt>
      <trkpt lat="45.76467" lon="4.63068">
        <ele>726.4</ele>
        <time>2025-12-11T14:49:10Z</time>
      </trkpt>
      <trkpt lat="45.76471" lon="4.63068">
        <ele>726</ele>
        <time>2025-12-11T14:49:11Z</time>
      </trkpt>
      <trkpt lat="45.76475" lon="4.6307">
        <ele>725.6</ele>
        <time>2025-12-11T14:49:12Z</time>
      </trkpt>
      <trkpt lat="45.76479" lon="4.63071">
        <ele>725.4</ele>
        <time>2025-12-11T14:49:13Z</time>
      </trkpt>
      <trkpt lat="45.76484" lon="4.63071">
        <ele>725</ele>
        <time>2025-12-11T14:49:14Z</time>
      </trkpt>
      <trkpt lat="45.76489" lon="4.63071">
        <ele>724.6</ele>
        <time>2025-12-11T14:49:15Z</time>
      </trkpt>
      <trkpt lat="45.76494" lon="4.63071">
        <ele>724.4</ele>
        <time>2025-12-11T14:49:16Z</time>
      </trkpt>
      <trkpt lat="45.76499" lon="4.63071">
        <ele>724.2</ele>
        <time>2025-12-11T14:49:17Z</time>
      </trkpt>
      <trkpt lat="45.76505" lon="4.63071">
        <ele>724.2</ele>
        <time>2025-12-11T14:49:18Z</time>
      </trkpt>
      <trkpt lat="45.7651" lon="4.63071">
        <ele>724.2</ele>
        <time>2025-12-11T14:49:19Z</time>
      </trkpt>
      <trkpt lat="45.76515" lon="4.6307">
        <ele>724.2</ele>
        <time>2025-12-11T14:49:20Z</time>
      </trkpt>
      <trkpt lat="45.76521" lon="4.6307">
        <ele>724</ele>
        <time>2025-12-11T14:49:21Z</time>
      </trkpt>
      <trkpt lat="45.76526" lon="4.6307">
        <ele>724</ele>
        <time>2025-12-11T14:49:22Z</time>
      </trkpt>
      <trkpt lat="45.76532" lon="4.6307">
        <ele>724</ele>
        <time>2025-12-11T14:49:23Z</time>
      </trkpt>
      <trkpt lat="45.76537" lon="4.6307">
        <ele>724.2</ele>
        <time>2025-12-11T14:49:24Z</time>
      </trkpt>
      <trkpt lat="45.76543" lon="4.63069">
        <ele>724.2</ele>
        <time>2025-12-11T14:49:25Z</time>
      </trkpt>
      <trkpt lat="45.76548" lon="4.63069">
        <ele>724.2</ele>
        <time>2025-12-11T14:49:26Z</time>
      </trkpt>
      <trkpt lat="45.76553" lon="4.63069">
        <ele>724.4</ele>
        <time>2025-12-11T14:49:27Z</time>
      </trkpt>
      <trkpt lat="45.76558" lon="4.63067">
        <ele>724.2</ele>
        <time>2025-12-11T14:49:28Z</time>
      </trkpt>
      <trkpt lat="45.76562" lon="4.63066">
        <ele>724.4</ele>
        <time>2025-12-11T14:49:29Z</time>
      </trkpt>
      <trkpt lat="45.76566" lon="4.63065">
        <ele>724.6</ele>
        <time>2025-12-11T14:49:30Z</time>
      </trkpt>
      <trkpt lat="45.76569" lon="4.63064">
        <ele>725</ele>
        <time>2025-12-11T14:49:31Z</time>
      </trkpt>
      <trkpt lat="45.76573" lon="4.63063">
        <ele>725.2</ele>
        <time>2025-12-11T14:49:32Z</time>
      </trkpt>
      <trkpt lat="45.76576" lon="4.63062">
        <ele>725.6</ele>
        <time>2025-12-11T14:49:33Z</time>
      </trkpt>
      <trkpt lat="45.76578" lon="4.63062">
        <ele>725.8</ele>
        <time>2025-12-11T14:49:34Z</time>
      </trkpt>
      <trkpt lat="45.76581" lon="4.63062">
        <ele>726</ele>
        <time>2025-12-11T14:49:35Z</time>
      </trkpt>
      <trkpt lat="45.76582" lon="4.63062">
        <ele>726.4</ele>
        <time>2025-12-11T14:49:36Z</time>
      </trkpt>
      <trkpt lat="45.76584" lon="4.63062">
        <ele>726.6</ele>
        <time>2025-12-11T14:49:37Z</time>
      </trkpt>
      <trkpt lat="45.76586" lon="4.63062">
        <ele>726.6</ele>
        <time>2025-12-11T14:49:38Z</time>
      </trkpt>
      <trkpt lat="45.76588" lon="4.63063">
        <ele>726.6</ele>
        <time>2025-12-11T14:49:39Z</time>
      </trkpt>
      <trkpt lat="45.76589" lon="4.63064">
        <ele>726.6</ele>
        <time>2025-12-11T14:49:40Z</time>
      </trkpt>
      <trkpt lat="45.76591" lon="4.63064">
        <ele>726.4</ele>
        <time>2025-12-11T14:49:41Z</time>
      </trkpt>
      <trkpt lat="45.76594" lon="4.63065">
        <ele>726</ele>
        <time>2025-12-11T14:49:42Z</time>
      </trkpt>
      <trkpt lat="45.76596" lon="4.63066">
        <ele>725.8</ele>
        <time>2025-12-11T14:49:43Z</time>
      </trkpt>
      <trkpt lat="45.766" lon="4.63068">
        <ele>725.4</ele>
        <time>2025-12-11T14:49:44Z</time>
      </trkpt>
      <trkpt lat="45.76605" lon="4.63069">
        <ele>724.8</ele>
        <time>2025-12-11T14:49:45Z</time>
      </trkpt>
      <trkpt lat="45.76609" lon="4.63071">
        <ele>724.4</ele>
        <time>2025-12-11T14:49:46Z</time>
      </trkpt>
      <trkpt lat="45.76613" lon="4.63074">
        <ele>724</ele>
        <time>2025-12-11T14:49:47Z</time>
      </trkpt>
      <trkpt lat="45.76618" lon="4.63076">
        <ele>723.6</ele>
        <time>2025-12-11T14:49:48Z</time>
      </trkpt>
      <trkpt lat="45.76624" lon="4.63078">
        <ele>723.4</ele>
        <time>2025-12-11T14:49:49Z</time>
      </trkpt>
      <trkpt lat="45.7663" lon="4.6308">
        <ele>723.2</ele>
        <time>2025-12-11T14:49:50Z</time>
      </trkpt>
      <trkpt lat="45.76636" lon="4.63083">
        <ele>722.8</ele>
        <time>2025-12-11T14:49:51Z</time>
      </trkpt>
      <trkpt lat="45.76641" lon="4.63087">
        <ele>722.4</ele>
        <time>2025-12-11T14:49:52Z</time>
      </trkpt>
      <trkpt lat="45.76647" lon="4.63089">
        <ele>722.2</ele>
        <time>2025-12-11T14:49:53Z</time>
      </trkpt>
      <trkpt lat="45.76653" lon="4.63092">
        <ele>721.8</ele>
        <time>2025-12-11T14:49:54Z</time>
      </trkpt>
      <trkpt lat="45.76658" lon="4.63094">
        <ele>721.6</ele>
        <time>2025-12-11T14:49:55Z</time>
      </trkpt>
      <trkpt lat="45.76663" lon="4.63097">
        <ele>721.6</ele>
        <time>2025-12-11T14:49:56Z</time>
      </trkpt>
      <trkpt lat="45.76667" lon="4.631">
        <ele>721.6</ele>
        <time>2025-12-11T14:49:57Z</time>
      </trkpt>
      <trkpt lat="45.76671" lon="4.63103">
        <ele>721.6</ele>
        <time>2025-12-11T14:49:58Z</time>
      </trkpt>
      <trkpt lat="45.76674" lon="4.63106">
        <ele>721.6</ele>
        <time>2025-12-11T14:49:59Z</time>
      </trkpt>
      <trkpt lat="45.76678" lon="4.63109">
        <ele>721.6</ele>
        <time>2025-12-11T14:50:00Z</time>
      </trkpt>
      <trkpt lat="45.76681" lon="4.63112">
        <ele>721.8</ele>
        <time>2025-12-11T14:50:01Z</time>
      </trkpt>
      <trkpt lat="45.76684" lon="4.63115">
        <ele>721.8</ele>
        <time>2025-12-11T14:50:02Z</time>
      </trkpt>
      <trkpt lat="45.76686" lon="4.63118">
        <ele>722</ele>
        <time>2025-12-11T14:50:03Z</time>
      </trkpt>
      <trkpt lat="45.7669" lon="4.63121">
        <ele>722.2</ele>
        <time>2025-12-11T14:50:04Z</time>
      </trkpt>
      <trkpt lat="45.76693" lon="4.63123">
        <ele>722.4</ele>
        <time>2025-12-11T14:50:05Z</time>
      </trkpt>
      <trkpt lat="45.76695" lon="4.63126">
        <ele>722.6</ele>
        <time>2025-12-11T14:50:06Z</time>
      </trkpt>
      <trkpt lat="45.76698" lon="4.63129">
        <ele>722.8</ele>
        <time>2025-12-11T14:50:07Z</time>
      </trkpt>
      <trkpt lat="45.76701" lon="4.63133">
        <ele>723</ele>
        <time>2025-12-11T14:50:08Z</time>
      </trkpt>
      <trkpt lat="45.76704" lon="4.63136">
        <ele>723.4</ele>
        <time>2025-12-11T14:50:09Z</time>
      </trkpt>
      <trkpt lat="45.76707" lon="4.6314">
        <ele>723.6</ele>
        <time>2025-12-11T14:50:10Z</time>
      </trkpt>
      <trkpt lat="45.76709" lon="4.63143">
        <ele>723.8</ele>
        <time>2025-12-11T14:50:11Z</time>
      </trkpt>
      <trkpt lat="45.76712" lon="4.63147">
        <ele>723.8</ele>
        <time>2025-12-11T14:50:12Z</time>
      </trkpt>
      <trkpt lat="45.76714" lon="4.6315">
        <ele>724</ele>
        <time>2025-12-11T14:50:13Z</time>
      </trkpt>
      <trkpt lat="45.76717" lon="4.63154">
        <ele>724</ele>
        <time>2025-12-11T14:50:14Z</time>
      </trkpt>
      <trkpt lat="45.7672" lon="4.63158">
        <ele>724.2</ele>
        <time>2025-12-11T14:50:15Z</time>
      </trkpt>
      <trkpt lat="45.76722" lon="4.63162">
        <ele>724.4</ele>
        <time>2025-12-11T14:50:16Z</time>
      </trkpt>
      <trkpt lat="45.76725" lon="4.63165">
        <ele>724.6</ele>
        <time>2025-12-11T14:50:17Z</time>
      </trkpt>
      <trkpt lat="45.76727" lon="4.63168">
        <ele>724.8</ele>
        <time>2025-12-11T14:50:18Z</time>
      </trkpt>
      <trkpt lat="45.76729" lon="4.63173">
        <ele>725</ele>
        <time>2025-12-11T14:50:19Z</time>
      </trkpt>
      <trkpt lat="45.76731" lon="4.63177">
        <ele>725</ele>
        <time>2025-12-11T14:50:20Z</time>
      </trkpt>
      <trkpt lat="45.76733" lon="4.63181">
        <ele>725.2</ele>
        <time>2025-12-11T14:50:21Z</time>
      </trkpt>
      <trkpt lat="45.76736" lon="4.63185">
        <ele>725.2</ele>
        <time>2025-12-11T14:50:22Z</time>
      </trkpt>
      <trkpt lat="45.76738" lon="4.63189">
        <ele>725.2</ele>
        <time>2025-12-11T14:50:23Z</time>
      </trkpt>
      <trkpt lat="45.7674" lon="4.63192">
        <ele>725.2</ele>
        <time>2025-12-11T14:50:24Z</time>
      </trkpt>
      <trkpt lat="45.76741" lon="4.63195">
        <ele>725.4</ele>
        <time>2025-12-11T14:50:25Z</time>
      </trkpt>
      <trkpt lat="45.76743" lon="4.632">
        <ele>725.4</ele>
        <time>2025-12-11T14:50:26Z</time>
      </trkpt>
      <trkpt lat="45.76746" lon="4.63203">
        <ele>725.4</ele>
        <time>2025-12-11T14:50:27Z</time>
      </trkpt>
      <trkpt lat="45.76748" lon="4.63207">
        <ele>725.4</ele>
        <time>2025-12-11T14:50:28Z</time>
      </trkpt>
      <trkpt lat="45.7675" lon="4.6321">
        <ele>725.4</ele>
        <time>2025-12-11T14:50:29Z</time>
      </trkpt>
      <trkpt lat="45.76752" lon="4.63214">
        <ele>725.4</ele>
        <time>2025-12-11T14:50:30Z</time>
      </trkpt>
      <trkpt lat="45.76754" lon="4.63217">
        <ele>725.4</ele>
        <time>2025-12-11T14:50:31Z</time>
      </trkpt>
      <trkpt lat="45.76756" lon="4.6322">
        <ele>725.2</ele>
        <time>2025-12-11T14:50:32Z</time>
      </trkpt>
      <trkpt lat="45.76757" lon="4.63224">
        <ele>725.2</ele>
        <time>2025-12-11T14:50:33Z</time>
      </trkpt>
      <trkpt lat="45.76758" lon="4.63227">
        <ele>725</ele>
        <time>2025-12-11T14:50:34Z</time>
      </trkpt>
      <trkpt lat="45.76761" lon="4.6323">
        <ele>724.8</ele>
        <time>2025-12-11T14:50:35Z</time>
      </trkpt>
      <trkpt lat="45.76764" lon="4.63233">
        <ele>724.4</ele>
        <time>2025-12-11T14:50:36Z</time>
      </trkpt>
      <trkpt lat="45.76767" lon="4.63237">
        <ele>724</ele>
        <time>2025-12-11T14:50:37Z</time>
      </trkpt>
      <trkpt lat="45.7677" lon="4.63242">
        <ele>723.6</ele>
        <time>2025-12-11T14:50:38Z</time>
      </trkpt>
      <trkpt lat="45.76773" lon="4.63248">
        <ele>723</ele>
        <time>2025-12-11T14:50:39Z</time>
      </trkpt>
      <trkpt lat="45.76776" lon="4.63255">
        <ele>722.4</ele>
        <time>2025-12-11T14:50:40Z</time>
      </trkpt>
      <trkpt lat="45.7678" lon="4.63262">
        <ele>721.8</ele>
        <time>2025-12-11T14:50:41Z</time>
      </trkpt>
      <trkpt lat="45.76783" lon="4.63269">
        <ele>721.4</ele>
        <time>2025-12-11T14:50:42Z</time>
      </trkpt>
      <trkpt lat="45.76787" lon="4.63275">
        <ele>721</ele>
        <time>2025-12-11T14:50:43Z</time>
      </trkpt>
      <trkpt lat="45.76791" lon="4.63282">
        <ele>720.6</ele>
        <time>2025-12-11T14:50:44Z</time>
      </trkpt>
      <trkpt lat="45.76795" lon="4.63289">
        <ele>720.2</ele>
        <time>2025-12-11T14:50:45Z</time>
      </trkpt>
      <trkpt lat="45.768" lon="4.63295">
        <ele>720</ele>
        <time>2025-12-11T14:50:46Z</time>
      </trkpt>
      <trkpt lat="45.76803" lon="4.63301">
        <ele>719.8</ele>
        <time>2025-12-11T14:50:47Z</time>
      </trkpt>
      <trkpt lat="45.76807" lon="4.63307">
        <ele>719.6</ele>
        <time>2025-12-11T14:50:48Z</time>
      </trkpt>
      <trkpt lat="45.7681" lon="4.63313">
        <ele>719.6</ele>
        <time>2025-12-11T14:50:49Z</time>
      </trkpt>
      <trkpt lat="45.76813" lon="4.63317">
        <ele>719.8</ele>
        <time>2025-12-11T14:50:50Z</time>
      </trkpt>
      <trkpt lat="45.76817" lon="4.63321">
        <ele>719.8</ele>
        <time>2025-12-11T14:50:51Z</time>
      </trkpt>
      <trkpt lat="45.7682" lon="4.63326">
        <ele>720</ele>
        <time>2025-12-11T14:50:52Z</time>
      </trkpt>
      <trkpt lat="45.76823" lon="4.6333">
        <ele>720.2</ele>
        <time>2025-12-11T14:50:53Z</time>
      </trkpt>
      <trkpt lat="45.76825" lon="4.63334">
        <ele>720.4</ele>
        <time>2025-12-11T14:50:54Z</time>
      </trkpt>
      <trkpt lat="45.76827" lon="4.63339">
        <ele>720.2</ele>
        <time>2025-12-11T14:50:55Z</time>
      </trkpt>
      <trkpt lat="45.76829" lon="4.63345">
        <ele>720</ele>
        <time>2025-12-11T14:50:56Z</time>
      </trkpt>
      <trkpt lat="45.76832" lon="4.63352">
        <ele>719.6</ele>
        <time>2025-12-11T14:50:57Z</time>
      </trkpt>
      <trkpt lat="45.76835" lon="4.63358">
        <ele>719</ele>
        <time>2025-12-11T14:50:58Z</time>
      </trkpt>
      <trkpt lat="45.76838" lon="4.63365">
        <ele>718.4</ele>
        <time>2025-12-11T14:50:59Z</time>
      </trkpt>
      <trkpt lat="45.7684" lon="4.63371">
        <ele>718</ele>
        <time>2025-12-11T14:51:00Z</time>
      </trkpt>
      <trkpt lat="45.76843" lon="4.63378">
        <ele>717.6</ele>
        <time>2025-12-11T14:51:01Z</time>
      </trkpt>
      <trkpt lat="45.76845" lon="4.63385">
        <ele>717.2</ele>
        <time>2025-12-11T14:51:02Z</time>
      </trkpt>
      <trkpt lat="45.76848" lon="4.63392">
        <ele>716.6</ele>
        <time>2025-12-11T14:51:03Z</time>
      </trkpt>
      <trkpt lat="45.7685" lon="4.634">
        <ele>716.2</ele>
        <time>2025-12-11T14:51:04Z</time>
      </trkpt>
      <trkpt lat="45.76852" lon="4.63409">
        <ele>716</ele>
        <time>2025-12-11T14:51:05Z</time>
      </trkpt>
      <trkpt lat="45.76854" lon="4.63417">
        <ele>715.4</ele>
        <time>2025-12-11T14:51:06Z</time>
      </trkpt>
      <trkpt lat="45.76857" lon="4.63425">
        <ele>714.8</ele>
        <time>2025-12-11T14:51:07Z</time>
      </trkpt>
      <trkpt lat="45.76859" lon="4.63434">
        <ele>714.4</ele>
        <time>2025-12-11T14:51:08Z</time>
      </trkpt>
      <trkpt lat="45.76861" lon="4.63442">
        <ele>714</ele>
        <time>2025-12-11T14:51:09Z</time>
      </trkpt>
      <trkpt lat="45.76864" lon="4.6345">
        <ele>713.8</ele>
        <time>2025-12-11T14:51:10Z</time>
      </trkpt>
      <trkpt lat="45.76867" lon="4.63459">
        <ele>713.2</ele>
        <time>2025-12-11T14:51:11Z</time>
      </trkpt>
      <trkpt lat="45.7687" lon="4.63467">
        <ele>712.8</ele>
        <time>2025-12-11T14:51:12Z</time>
      </trkpt>
      <trkpt lat="45.76873" lon="4.63475">
        <ele>712.6</ele>
        <time>2025-12-11T14:51:13Z</time>
      </trkpt>
      <trkpt lat="45.76876" lon="4.63483">
        <ele>712.2</ele>
        <time>2025-12-11T14:51:14Z</time>
      </trkpt>
      <trkpt lat="45.76878" lon="4.63491">
        <ele>711.8</ele>
        <time>2025-12-11T14:51:15Z</time>
      </trkpt>
      <trkpt lat="45.76881" lon="4.635">
        <ele>711.4</ele>
        <time>2025-12-11T14:51:16Z</time>
      </trkpt>
      <trkpt lat="45.76884" lon="4.63509">
        <ele>711.2</ele>
        <time>2025-12-11T14:51:17Z</time>
      </trkpt>
      <trkpt lat="45.76888" lon="4.63517">
        <ele>710.8</ele>
        <time>2025-12-11T14:51:18Z</time>
      </trkpt>
      <trkpt lat="45.7689" lon="4.63526">
        <ele>710.6</ele>
        <time>2025-12-11T14:51:19Z</time>
      </trkpt>
      <trkpt lat="45.76893" lon="4.63535">
        <ele>710.2</ele>
        <time>2025-12-11T14:51:20Z</time>
      </trkpt>
      <trkpt lat="45.76896" lon="4.63544">
        <ele>710</ele>
        <time>2025-12-11T14:51:21Z</time>
      </trkpt>
      <trkpt lat="45.76899" lon="4.63553">
        <ele>709.6</ele>
        <time>2025-12-11T14:51:22Z</time>
      </trkpt>
      <trkpt lat="45.76901" lon="4.6356">
        <ele>709.4</ele>
        <time>2025-12-11T14:51:23Z</time>
      </trkpt>
      <trkpt lat="45.76903" lon="4.63565">
        <ele>709.4</ele>
        <time>2025-12-11T14:51:24Z</time>
      </trkpt>
      <trkpt lat="45.76905" lon="4.63569">
        <ele>709.4</ele>
        <time>2025-12-11T14:51:25Z</time>
      </trkpt>
      <trkpt lat="45.76907" lon="4.63572">
        <ele>709.6</ele>
        <time>2025-12-11T14:51:26Z</time>
      </trkpt>
      <trkpt lat="45.76908" lon="4.63574">
        <ele>709.8</ele>
        <time>2025-12-11T14:51:27Z</time>
      </trkpt>
      <trkpt lat="45.7691" lon="4.63578">
        <ele>709.8</ele>
        <time>2025-12-11T14:51:28Z</time>
      </trkpt>
      <trkpt lat="45.76912" lon="4.63581">
        <ele>709.8</ele>
        <time>2025-12-11T14:51:29Z</time>
      </trkpt>
      <trkpt lat="45.76914" lon="4.63584">
        <ele>709.8</ele>
        <time>2025-12-11T14:51:30Z</time>
      </trkpt>
      <trkpt lat="45.76916" lon="4.63587">
        <ele>709.8</ele>
        <time>2025-12-11T14:51:31Z</time>
      </trkpt>
      <trkpt lat="45.76919" lon="4.63589">
        <ele>709.8</ele>
        <time>2025-12-11T14:51:32Z</time>
      </trkpt>
      <trkpt lat="45.76921" lon="4.63592">
        <ele>709.8</ele>
        <time>2025-12-11T14:51:33Z</time>
      </trkpt>
      <trkpt lat="45.76924" lon="4.63594">
        <ele>709.6</ele>
        <time>2025-12-11T14:51:34Z</time>
      </trkpt>
      <trkpt lat="45.76926" lon="4.63598">
        <ele>709.6</ele>
        <time>2025-12-11T14:51:35Z</time>
      </trkpt>
      <trkpt lat="45.76928" lon="4.63602">
        <ele>709.8</ele>
        <time>2025-12-11T14:51:36Z</time>
      </trkpt>
      <trkpt lat="45.76931" lon="4.63605">
        <ele>709.8</ele>
        <time>2025-12-11T14:51:37Z</time>
      </trkpt>
      <trkpt lat="45.76933" lon="4.63609">
        <ele>710</ele>
        <time>2025-12-11T14:51:38Z</time>
      </trkpt>
      <trkpt lat="45.76936" lon="4.63612">
        <ele>710</ele>
        <time>2025-12-11T14:51:39Z</time>
      </trkpt>
      <trkpt lat="45.76938" lon="4.63616">
        <ele>710</ele>
        <time>2025-12-11T14:51:40Z</time>
      </trkpt>
      <trkpt lat="45.7694" lon="4.63619">
        <ele>710</ele>
        <time>2025-12-11T14:51:41Z</time>
      </trkpt>
      <trkpt lat="45.76942" lon="4.63624">
        <ele>710</ele>
        <time>2025-12-11T14:51:42Z</time>
      </trkpt>
      <trkpt lat="45.76944" lon="4.63628">
        <ele>709.8</ele>
        <time>2025-12-11T14:51:43Z</time>
      </trkpt>
      <trkpt lat="45.76946" lon="4.63631">
        <ele>709.8</ele>
        <time>2025-12-11T14:51:44Z</time>
      </trkpt>
      <trkpt lat="45.76948" lon="4.63636">
        <ele>709.6</ele>
        <time>2025-12-11T14:51:45Z</time>
      </trkpt>
      <trkpt lat="45.76951" lon="4.63639">
        <ele>709.4</ele>
        <time>2025-12-11T14:51:46Z</time>
      </trkpt>
      <trkpt lat="45.76954" lon="4.63644">
        <ele>709</ele>
        <time>2025-12-11T14:51:47Z</time>
      </trkpt>
      <trkpt lat="45.76958" lon="4.63649">
        <ele>708.6</ele>
        <time>2025-12-11T14:51:48Z</time>
      </trkpt>
      <trkpt lat="45.76962" lon="4.63653">
        <ele>708.4</ele>
        <time>2025-12-11T14:51:49Z</time>
      </trkpt>
      <trkpt lat="45.76966" lon="4.63657">
        <ele>708</ele>
        <time>2025-12-11T14:51:50Z</time>
      </trkpt>
      <trkpt lat="45.76971" lon="4.63661">
        <ele>707.6</ele>
        <time>2025-12-11T14:51:51Z</time>
      </trkpt>
      <trkpt lat="45.76975" lon="4.63665">
        <ele>707.2</ele>
        <time>2025-12-11T14:51:52Z</time>
      </trkpt>
      <trkpt lat="45.76979" lon="4.63669">
        <ele>707</ele>
        <time>2025-12-11T14:51:53Z</time>
      </trkpt>
      <trkpt lat="45.76983" lon="4.63672">
        <ele>706.6</ele>
        <time>2025-12-11T14:51:54Z</time>
      </trkpt>
      <trkpt lat="45.76986" lon="4.63674">
        <ele>706.2</ele>
        <time>2025-12-11T14:51:55Z</time>
      </trkpt>
      <trkpt lat="45.7699" lon="4.63676">
        <ele>705.8</ele>
        <time>2025-12-11T14:51:56Z</time>
      </trkpt>
      <trkpt lat="45.76994" lon="4.63678">
        <ele>705.2</ele>
        <time>2025-12-11T14:51:57Z</time>
      </trkpt>
      <trkpt lat="45.76998" lon="4.63681">
        <ele>704.8</ele>
        <time>2025-12-11T14:51:58Z</time>
      </trkpt>
      <trkpt lat="45.77002" lon="4.63683">
        <ele>704.4</ele>
        <time>2025-12-11T14:51:59Z</time>
      </trkpt>
      <trkpt lat="45.77005" lon="4.63685">
        <ele>703.8</ele>
        <time>2025-12-11T14:52:00Z</time>
      </trkpt>
      <trkpt lat="45.77008" lon="4.63686">
        <ele>703.4</ele>
        <time>2025-12-11T14:52:01Z</time>
      </trkpt>
      <trkpt lat="45.77008" lon="4.63686">
        <ele>703</ele>
        <time>2025-12-11T14:52:02Z</time>
      </trkpt>
      <trkpt lat="45.77008" lon="4.63686">
        <ele>702.8</ele>
        <time>2025-12-11T14:52:03Z</time>
      </trkpt>
      <trkpt lat="45.77008" lon="4.63686">
        <ele>702.6</ele>
        <time>2025-12-11T14:52:04Z</time>
      </trkpt>
      <trkpt lat="45.77008" lon="4.63686">
        <ele>702.6</ele>
        <time>2025-12-11T14:52:05Z</time>
      </trkpt>
      <trkpt lat="45.77008" lon="4.63686">
        <ele>702.4</ele>
        <time>2025-12-11T14:52:06Z</time>
      </trkpt>
      <trkpt lat="45.77008" lon="4.63686">
        <ele>702.4</ele>
        <time>2025-12-11T14:52:07Z</time>
      </trkpt>
      <trkpt lat="45.77008" lon="4.63686">
        <ele>702.2</ele>
        <time>2025-12-11T14:52:08Z</time>
      </trkpt>
      <trkpt lat="45.77008" lon="4.63686">
        <ele>702.2</ele>
        <time>2025-12-11T14:52:09Z</time>
      </trkpt>
      <trkpt lat="45.77008" lon="4.63686">
        <ele>702.2</ele>
        <time>2025-12-11T14:52:10Z</time>
      </trkpt>
      <trkpt lat="45.77008" lon="4.63686">
        <ele>702.2</ele>
        <time>2025-12-11T14:52:11Z</time>
      </trkpt>
      <trkpt lat="45.77008" lon="4.63686">
        <ele>702.2</ele>
        <time>2025-12-11T14:52:12Z</time>
      </trkpt>
      <trkpt lat="45.77008" lon="4.63686">
        <ele>702.2</ele>
        <time>2025-12-11T14:52:13Z</time>
      </trkpt>
      <trkpt lat="45.77008" lon="4.63686">
        <ele>702.2</ele>
        <time>2025-12-11T14:52:14Z</time>
      </trkpt>
      <trkpt lat="45.77008" lon="4.63686">
        <ele>702.2</ele>
        <time>2025-12-11T14:52:15Z</time>
      </trkpt>
      <trkpt lat="45.77008" lon="4.63686">
        <ele>702.2</ele>
        <time>2025-12-11T14:52:16Z</time>
      </trkpt>
      <trkpt lat="45.77008" lon="4.63686">
        <ele>702.2</ele>
        <time>2025-12-11T14:52:17Z</time>
      </trkpt>
      <trkpt lat="45.77008" lon="4.63686">
        <ele>702.2</ele>
        <time>2025-12-11T14:52:18Z</time>
      </trkpt>
      <trkpt lat="45.77008" lon="4.63686">
        <ele>702.2</ele>
        <time>2025-12-11T14:52:19Z</time>
      </trkpt>
      <trkpt lat="45.77008" lon="4.63686">
        <ele>702.4</ele>
        <time>2025-12-11T14:52:20Z</time>
      </trkpt>
      <trkpt lat="45.77008" lon="4.63686">
        <ele>702.4</ele>
        <time>2025-12-11T14:52:21Z</time>
      </trkpt>
      <trkpt lat="45.77008" lon="4.63686">
        <ele>702.4</ele>
        <time>2025-12-11T14:52:22Z</time>
      </trkpt>
      <trkpt lat="45.77008" lon="4.63686">
        <ele>702.4</ele>
        <time>2025-12-11T14:52:23Z</time>
      </trkpt>
      <trkpt lat="45.77008" lon="4.63686">
        <ele>702.4</ele>
        <time>2025-12-11T14:52:24Z</time>
      </trkpt>
      <trkpt lat="45.77008" lon="4.63686">
        <ele>702.4</ele>
        <time>2025-12-11T14:52:25Z</time>
      </trkpt>
      <trkpt lat="45.77008" lon="4.63686">
        <ele>702.4</ele>
        <time>2025-12-11T14:52:26Z</time>
      </trkpt>
      <trkpt lat="45.77008" lon="4.63686">
        <ele>702.4</ele>
        <time>2025-12-11T14:52:27Z</time>
      </trkpt>
      <trkpt lat="45.77008" lon="4.63686">
        <ele>702.4</ele>
        <time>2025-12-11T14:52:28Z</time>
      </trkpt>
      <trkpt lat="45.77008" lon="4.63686">
        <ele>702.4</ele>
        <time>2025-12-11T14:52:29Z</time>
      </trkpt>
      <trkpt lat="45.77008" lon="4.63686">
        <ele>702.4</ele>
        <time>2025-12-11T14:52:30Z</time>
      </trkpt>
      <trkpt lat="45.77008" lon="4.63686">
        <ele>702.4</ele>
        <time>2025-12-11T14:52:31Z</time>
      </trkpt>
      <trkpt lat="45.77008" lon="4.63686">
        <ele>702.4</ele>
        <time>2025-12-11T14:52:32Z</time>
      </trkpt>
      <trkpt lat="45.77008" lon="4.63686">
        <ele>702.4</ele>
        <time>2025-12-11T14:52:33Z</time>
      </trkpt>
      <trkpt lat="45.77008" lon="4.63686">
        <ele>702.4</ele>
        <time>2025-12-11T14:52:34Z</time>
      </trkpt>
      <trkpt lat="45.77008" lon="4.63686">
        <ele>702.4</ele>
        <time>2025-12-11T14:52:35Z</time>
      </trkpt>
      <trkpt lat="45.77008" lon="4.63686">
        <ele>702.4</ele>
        <time>2025-12-11T14:52:36Z</time>
      </trkpt>
      <trkpt lat="45.77008" lon="4.63686">
        <ele>702.4</ele>
        <time>2025-12-11T14:52:37Z</time>
      </trkpt>
      <trkpt lat="45.77008" lon="4.63686">
        <ele>702.4</ele>
        <time>2025-12-11T14:52:38Z</time>
      </trkpt>
      <trkpt lat="45.77008" lon="4.63686">
        <ele>702.4</ele>
        <time>2025-12-11T14:52:39Z</time>
      </trkpt>
      <trkpt lat="45.77008" lon="4.63686">
        <ele>702.4</ele>
        <time>2025-12-11T14:52:40Z</time>
      </trkpt>
      <trkpt lat="45.77008" lon="4.63686">
        <ele>702.4</ele>
        <time>2025-12-11T14:52:41Z</time>
      </trkpt>
      <trkpt lat="45.77008" lon="4.63686">
        <ele>702.4</ele>
        <time>2025-12-11T14:52:42Z</time>
      </trkpt>
      <trkpt lat="45.77008" lon="4.63686">
        <ele>702.4</ele>
        <time>2025-12-11T14:52:43Z</time>
      </trkpt>
      <trkpt lat="45.77008" lon="4.63686">
        <ele>702.4</ele>
        <time>2025-12-11T14:52:44Z</time>
      </trkpt>
      <trkpt lat="45.77008" lon="4.63686">
        <ele>702.4</ele>
        <time>2025-12-11T14:52:45Z</time>
      </trkpt>
      <trkpt lat="45.77008" lon="4.63686">
        <ele>702.4</ele>
        <time>2025-12-11T14:52:46Z</time>
      </trkpt>
      <trkpt lat="45.77008" lon="4.63686">
        <ele>702.4</ele>
        <time>2025-12-11T14:52:47Z</time>
      </trkpt>
      <trkpt lat="45.77008" lon="4.63686">
        <ele>702.4</ele>
        <time>2025-12-11T14:52:48Z</time>
      </trkpt>
      <trkpt lat="45.77008" lon="4.63686">
        <ele>702.4</ele>
        <time>2025-12-11T14:52:49Z</time>
      </trkpt>
      <trkpt lat="45.77008" lon="4.63686">
        <ele>702.4</ele>
        <time>2025-12-11T14:52:50Z</time>
      </trkpt>
      <trkpt lat="45.77008" lon="4.63686">
        <ele>702.6</ele>
        <time>2025-12-11T14:52:51Z</time>
      </trkpt>
      <trkpt lat="45.77008" lon="4.63686">
        <ele>702.6</ele>
        <time>2025-12-11T14:52:52Z</time>
      </trkpt>
      <trkpt lat="45.77008" lon="4.63686">
        <ele>702.6</ele>
        <time>2025-12-11T14:52:53Z</time>
      </trkpt>
      <trkpt lat="45.77008" lon="4.63686">
        <ele>702.6</ele>
        <time>2025-12-11T14:52:54Z</time>
      </trkpt>
      <trkpt lat="45.77008" lon="4.63686">
        <ele>702.6</ele>
        <time>2025-12-11T14:52:55Z</time>
      </trkpt>
      <trkpt lat="45.77008" lon="4.63686">
        <ele>702.6</ele>
        <time>2025-12-11T14:52:56Z</time>
      </trkpt>
      <trkpt lat="45.77008" lon="4.63686">
        <ele>702.6</ele>
        <time>2025-12-11T14:52:57Z</time>
      </trkpt>
      <trkpt lat="45.77008" lon="4.63686">
        <ele>702.6</ele>
        <time>2025-12-11T14:52:58Z</time>
      </trkpt>
      <trkpt lat="45.77008" lon="4.63686">
        <ele>702.6</ele>
        <time>2025-12-11T14:52:59Z</time>
      </trkpt>
      <trkpt lat="45.77008" lon="4.63686">
        <ele>702.6</ele>
        <time>2025-12-11T14:53:00Z</time>
      </trkpt>
      <trkpt lat="45.77008" lon="4.63686">
        <ele>702.6</ele>
        <time>2025-12-11T14:53:01Z</time>
      </trkpt>
      <trkpt lat="45.77008" lon="4.63686">
        <ele>702.6</ele>
        <time>2025-12-11T14:53:02Z</time>
      </trkpt>
      <trkpt lat="45.77008" lon="4.63686">
        <ele>702.6</ele>
        <time>2025-12-11T14:53:03Z</time>
      </trkpt>
      <trkpt lat="45.77008" lon="4.63686">
        <ele>702.6</ele>
        <time>2025-12-11T14:53:04Z</time>
      </trkpt>
      <trkpt lat="45.77008" lon="4.63686">
        <ele>702.6</ele>
        <time>2025-12-11T14:53:05Z</time>
      </trkpt>
      <trkpt lat="45.77008" lon="4.63686">
        <ele>702.6</ele>
        <time>2025-12-11T14:53:06Z</time>
      </trkpt>
      <trkpt lat="45.77008" lon="4.63686">
        <ele>702.6</ele>
        <time>2025-12-11T14:53:07Z</time>
      </trkpt>
      <trkpt lat="45.77008" lon="4.63686">
        <ele>702.6</ele>
        <time>2025-12-11T14:53:08Z</time>
      </trkpt>
      <trkpt lat="45.77008" lon="4.63686">
        <ele>702.6</ele>
        <time>2025-12-11T14:53:09Z</time>
      </trkpt>
      <trkpt lat="45.77008" lon="4.63686">
        <ele>702.6</ele>
        <time>2025-12-11T14:53:10Z</time>
      </trkpt>
      <trkpt lat="45.77008" lon="4.63686">
        <ele>702.6</ele>
        <time>2025-12-11T14:53:11Z</time>
      </trkpt>
      <trkpt lat="45.77008" lon="4.63686">
        <ele>702.6</ele>
        <time>2025-12-11T14:53:12Z</time>
      </trkpt>
      <trkpt lat="45.77008" lon="4.63686">
        <ele>702.6</ele>
        <time>2025-12-11T14:53:13Z</time>
      </trkpt>
      <trkpt lat="45.77008" lon="4.63686">
        <ele>702.6</ele>
        <time>2025-12-11T14:53:14Z</time>
      </trkpt>
      <trkpt lat="45.77008" lon="4.63686">
        <ele>702.6</ele>
        <time>2025-12-11T14:53:15Z</time>
      </trkpt>
      <trkpt lat="45.77008" lon="4.63686">
        <ele>702.6</ele>
        <time>2025-12-11T14:53:16Z</time>
      </trkpt>
      <trkpt lat="45.77008" lon="4.63686">
        <ele>702.6</ele>
        <time>2025-12-11T14:53:17Z</time>
      </trkpt>
      <trkpt lat="45.77008" lon="4.63686">
        <ele>702.6</ele>
        <time>2025-12-11T14:53:18Z</time>
      </trkpt>
      <trkpt lat="45.77008" lon="4.63686">
        <ele>702.6</ele>
        <time>2025-12-11T14:53:19Z</time>
      </trkpt>
      <trkpt lat="45.77008" lon="4.63686">
        <ele>702.6</ele>
        <time>2025-12-11T14:53:20Z</time>
      </trkpt>
      <trkpt lat="45.77008" lon="4.63686">
        <ele>702.6</ele>
        <time>2025-12-11T14:53:21Z</time>
      </trkpt>
      <trkpt lat="45.77009" lon="4.63686">
        <ele>702.6</ele>
        <time>2025-12-11T14:53:22Z</time>
      </trkpt>
      <trkpt lat="45.7701" lon="4.63687">
        <ele>702.6</ele>
        <time>2025-12-11T14:53:23Z</time>
      </trkpt>
      <trkpt lat="45.77011" lon="4.63687">
        <ele>702.6</ele>
        <time>2025-12-11T14:53:24Z</time>
      </trkpt>
      <trkpt lat="45.77013" lon="4.63688">
        <ele>703</ele>
        <time>2025-12-11T14:53:25Z</time>
      </trkpt>
      <trkpt lat="45.77015" lon="4.63688">
        <ele>702.8</ele>
        <time>2025-12-11T14:53:26Z</time>
      </trkpt>
      <trkpt lat="45.77017" lon="4.63688">
        <ele>702.6</ele>
        <time>2025-12-11T14:53:27Z</time>
      </trkpt>
      <trkpt lat="45.77018" lon="4.63689">
        <ele>702.4</ele>
        <time>2025-12-11T14:53:28Z</time>
      </trkpt>
      <trkpt lat="45.77019" lon="4.63689">
        <ele>702.2</ele>
        <time>2025-12-11T14:53:29Z</time>
      </trkpt>
      <trkpt lat="45.77021" lon="4.63689">
        <ele>702</ele>
        <time>2025-12-11T14:53:30Z</time>
      </trkpt>
      <trkpt lat="45.77023" lon="4.63689">
        <ele>701.8</ele>
        <time>2025-12-11T14:53:31Z</time>
      </trkpt>
      <trkpt lat="45.77025" lon="4.63688">
        <ele>701.6</ele>
        <time>2025-12-11T14:53:32Z</time>
      </trkpt>
      <trkpt lat="45.77029" lon="4.63688">
        <ele>701.2</ele>
        <time>2025-12-11T14:53:33Z</time>
      </trkpt>
      <trkpt lat="45.77033" lon="4.63688">
        <ele>700.8</ele>
        <time>2025-12-11T14:53:34Z</time>
      </trkpt>
      <trkpt lat="45.77038" lon="4.63687">
        <ele>700.2</ele>
        <time>2025-12-11T14:53:35Z</time>
      </trkpt>
      <trkpt lat="45.77044" lon="4.63687">
        <ele>699.6</ele>
        <time>2025-12-11T14:53:36Z</time>
      </trkpt>
      <trkpt lat="45.7705" lon="4.63686">
        <ele>698.8</ele>
        <time>2025-12-11T14:53:37Z</time>
      </trkpt>
      <trkpt lat="45.77056" lon="4.63686">
        <ele>698.2</ele>
        <time>2025-12-11T14:53:38Z</time>
      </trkpt>
      <trkpt lat="45.77063" lon="4.63685">
        <ele>697.4</ele>
        <time>2025-12-11T14:53:39Z</time>
      </trkpt>
      <trkpt lat="45.77069" lon="4.63686">
        <ele>696.8</ele>
        <time>2025-12-11T14:53:40Z</time>
      </trkpt>
      <trkpt lat="45.77074" lon="4.63687">
        <ele>696.2</ele>
        <time>2025-12-11T14:53:41Z</time>
      </trkpt>
      <trkpt lat="45.7708" lon="4.63689">
        <ele>695.4</ele>
        <time>2025-12-11T14:53:42Z</time>
      </trkpt>
      <trkpt lat="45.77085" lon="4.6369">
        <ele>694.6</ele>
        <time>2025-12-11T14:53:43Z</time>
      </trkpt>
      <trkpt lat="45.77091" lon="4.63692">
        <ele>694</ele>
        <time>2025-12-11T14:53:44Z</time>
      </trkpt>
      <trkpt lat="45.77097" lon="4.63695">
        <ele>693</ele>
        <time>2025-12-11T14:53:45Z</time>
      </trkpt>
      <trkpt lat="45.77101" lon="4.63697">
        <ele>692.4</ele>
        <time>2025-12-11T14:53:46Z</time>
      </trkpt>
      <trkpt lat="45.77106" lon="4.63699">
        <ele>691.8</ele>
        <time>2025-12-11T14:53:47Z</time>
      </trkpt>
      <trkpt lat="45.7711" lon="4.637">
        <ele>691.4</ele>
        <time>2025-12-11T14:53:48Z</time>
      </trkpt>
      <trkpt lat="45.77115" lon="4.63702">
        <ele>690.8</ele>
        <time>2025-12-11T14:53:49Z</time>
      </trkpt>
      <trkpt lat="45.7712" lon="4.63702">
        <ele>690.2</ele>
        <time>2025-12-11T14:53:50Z</time>
      </trkpt>
      <trkpt lat="45.77124" lon="4.63703">
        <ele>689.6</ele>
        <time>2025-12-11T14:53:51Z</time>
      </trkpt>
      <trkpt lat="45.77128" lon="4.63703">
        <ele>689</ele>
        <time>2025-12-11T14:53:52Z</time>
      </trkpt>
      <trkpt lat="45.77131" lon="4.63704">
        <ele>688.6</ele>
        <time>2025-12-11T14:53:53Z</time>
      </trkpt>
      <trkpt lat="45.77135" lon="4.63704">
        <ele>688</ele>
        <time>2025-12-11T14:53:54Z</time>
      </trkpt>
      <trkpt lat="45.77137" lon="4.63704">
        <ele>687.4</ele>
        <time>2025-12-11T14:53:55Z</time>
      </trkpt>
      <trkpt lat="45.7714" lon="4.63703">
        <ele>687</ele>
        <time>2025-12-11T14:53:56Z</time>
      </trkpt>
      <trkpt lat="45.77142" lon="4.63703">
        <ele>686.6</ele>
        <time>2025-12-11T14:53:57Z</time>
      </trkpt>
      <trkpt lat="45.77143" lon="4.63703">
        <ele>686.2</ele>
        <time>2025-12-11T14:53:58Z</time>
      </trkpt>
      <trkpt lat="45.77143" lon="4.63703">
        <ele>686</ele>
        <time>2025-12-11T14:53:59Z</time>
      </trkpt>
      <trkpt lat="45.77143" lon="4.63703">
        <ele>686</ele>
        <time>2025-12-11T14:54:00Z</time>
      </trkpt>
      <trkpt lat="45.77143" lon="4.63703">
        <ele>685.8</ele>
        <time>2025-12-11T14:54:01Z</time>
      </trkpt>
      <trkpt lat="45.77143" lon="4.63703">
        <ele>685.8</ele>
        <time>2025-12-11T14:54:02Z</time>
      </trkpt>
      <trkpt lat="45.77143" lon="4.63703">
        <ele>685.8</ele>
        <time>2025-12-11T14:54:03Z</time>
      </trkpt>
      <trkpt lat="45.77143" lon="4.63703">
        <ele>685.8</ele>
        <time>2025-12-11T14:54:04Z</time>
      </trkpt>
      <trkpt lat="45.77144" lon="4.63703">
        <ele>685.8</ele>
        <time>2025-12-11T14:54:05Z</time>
      </trkpt>
      <trkpt lat="45.77147" lon="4.63703">
        <ele>685.6</ele>
        <time>2025-12-11T14:54:06Z</time>
      </trkpt>
      <trkpt lat="45.77149" lon="4.63703">
        <ele>685.4</ele>
        <time>2025-12-11T14:54:07Z</time>
      </trkpt>
      <trkpt lat="45.77152" lon="4.63704">
        <ele>684.8</ele>
        <time>2025-12-11T14:54:08Z</time>
      </trkpt>
      <trkpt lat="45.77157" lon="4.63705">
        <ele>684.2</ele>
        <time>2025-12-11T14:54:09Z</time>
      </trkpt>
      <trkpt lat="45.77162" lon="4.63706">
        <ele>683.4</ele>
        <time>2025-12-11T14:54:10Z</time>
      </trkpt>
      <trkpt lat="45.77165" lon="4.63708">
        <ele>682.6</ele>
        <time>2025-12-11T14:54:11Z</time>
      </trkpt>
      <trkpt lat="45.77169" lon="4.6371">
        <ele>681.6</ele>
        <time>2025-12-11T14:54:12Z</time>
      </trkpt>
      <trkpt lat="45.77173" lon="4.63712">
        <ele>680.8</ele>
        <time>2025-12-11T14:54:13Z</time>
      </trkpt>
      <trkpt lat="45.77178" lon="4.63715">
        <ele>680</ele>
        <time>2025-12-11T14:54:14Z</time>
      </trkpt>
      <trkpt lat="45.77182" lon="4.63717">
        <ele>679.2</ele>
        <time>2025-12-11T14:54:15Z</time>
      </trkpt>
      <trkpt lat="45.77185" lon="4.63719">
        <ele>678.4</ele>
        <time>2025-12-11T14:54:16Z</time>
      </trkpt>
      <trkpt lat="45.77188" lon="4.63722">
        <ele>677.6</ele>
        <time>2025-12-11T14:54:17Z</time>
      </trkpt>
      <trkpt lat="45.77191" lon="4.63723">
        <ele>677</ele>
        <time>2025-12-11T14:54:18Z</time>
      </trkpt>
      <trkpt lat="45.77195" lon="4.63723">
        <ele>676.2</ele>
        <time>2025-12-11T14:54:19Z</time>
      </trkpt>
      <trkpt lat="45.77198" lon="4.63724">
        <ele>675.6</ele>
        <time>2025-12-11T14:54:20Z</time>
      </trkpt>
      <trkpt lat="45.77202" lon="4.63725">
        <ele>675</ele>
        <time>2025-12-11T14:54:21Z</time>
      </trkpt>
      <trkpt lat="45.77205" lon="4.63725">
        <ele>674.4</ele>
        <time>2025-12-11T14:54:22Z</time>
      </trkpt>
      <trkpt lat="45.77209" lon="4.63725">
        <ele>673.8</ele>
        <time>2025-12-11T14:54:23Z</time>
      </trkpt>
      <trkpt lat="45.77213" lon="4.63726">
        <ele>673</ele>
        <time>2025-12-11T14:54:24Z</time>
      </trkpt>
      <trkpt lat="45.77218" lon="4.63728">
        <ele>672.4</ele>
        <time>2025-12-11T14:54:25Z</time>
      </trkpt>
      <trkpt lat="45.77221" lon="4.63732">
        <ele>671.6</ele>
        <time>2025-12-11T14:54:26Z</time>
      </trkpt>
      <trkpt lat="45.77224" lon="4.63738">
        <ele>670.6</ele>
        <time>2025-12-11T14:54:27Z</time>
      </trkpt>
      <trkpt lat="45.77228" lon="4.63746">
        <ele>669.6</ele>
        <time>2025-12-11T14:54:28Z</time>
      </trkpt>
      <trkpt lat="45.77231" lon="4.63755">
        <ele>668.4</ele>
        <time>2025-12-11T14:54:29Z</time>
      </trkpt>
      <trkpt lat="45.77235" lon="4.63764">
        <ele>667.2</ele>
        <time>2025-12-11T14:54:30Z</time>
      </trkpt>
      <trkpt lat="45.77238" lon="4.63772">
        <ele>666.2</ele>
        <time>2025-12-11T14:54:31Z</time>
      </trkpt>
      <trkpt lat="45.77241" lon="4.63779">
        <ele>665.4</ele>
        <time>2025-12-11T14:54:32Z</time>
      </trkpt>
      <trkpt lat="45.77244" lon="4.63785">
        <ele>664.8</ele>
        <time>2025-12-11T14:54:33Z</time>
      </trkpt>
      <trkpt lat="45.77247" lon="4.63791">
        <ele>664.2</ele>
        <time>2025-12-11T14:54:34Z</time>
      </trkpt>
      <trkpt lat="45.77252" lon="4.63797">
        <ele>663.6</ele>
        <time>2025-12-11T14:54:35Z</time>
      </trkpt>
      <trkpt lat="45.77257" lon="4.63802">
        <ele>663.2</ele>
        <time>2025-12-11T14:54:36Z</time>
      </trkpt>
      <trkpt lat="45.77262" lon="4.63806">
        <ele>662.6</ele>
        <time>2025-12-11T14:54:37Z</time>
      </trkpt>
      <trkpt lat="45.77267" lon="4.63809">
        <ele>662.2</ele>
        <time>2025-12-11T14:54:38Z</time>
      </trkpt>
      <trkpt lat="45.77273" lon="4.6381">
        <ele>661.8</ele>
        <time>2025-12-11T14:54:39Z</time>
      </trkpt>
      <trkpt lat="45.77279" lon="4.63813">
        <ele>661.2</ele>
        <time>2025-12-11T14:54:40Z</time>
      </trkpt>
      <trkpt lat="45.77285" lon="4.63816">
        <ele>660.6</ele>
        <time>2025-12-11T14:54:41Z</time>
      </trkpt>
      <trkpt lat="45.77291" lon="4.6382">
        <ele>660</ele>
        <time>2025-12-11T14:54:42Z</time>
      </trkpt>
      <trkpt lat="45.77298" lon="4.63825">
        <ele>659.4</ele>
        <time>2025-12-11T14:54:43Z</time>
      </trkpt>
      <trkpt lat="45.77303" lon="4.63829">
        <ele>658.6</ele>
        <time>2025-12-11T14:54:44Z</time>
      </trkpt>
      <trkpt lat="45.77308" lon="4.63833">
        <ele>658</ele>
        <time>2025-12-11T14:54:45Z</time>
      </trkpt>
      <trkpt lat="45.77313" lon="4.63836">
        <ele>657.4</ele>
        <time>2025-12-11T14:54:46Z</time>
      </trkpt>
      <trkpt lat="45.77318" lon="4.63839">
        <ele>656.8</ele>
        <time>2025-12-11T14:54:47Z</time>
      </trkpt>
      <trkpt lat="45.77324" lon="4.63841">
        <ele>656.2</ele>
        <time>2025-12-11T14:54:48Z</time>
      </trkpt>
      <trkpt lat="45.77329" lon="4.63842">
        <ele>655.4</ele>
        <time>2025-12-11T14:54:49Z</time>
      </trkpt>
      <trkpt lat="45.77336" lon="4.63841">
        <ele>654.8</ele>
        <time>2025-12-11T14:54:50Z</time>
      </trkpt>
      <trkpt lat="45.77341" lon="4.63839">
        <ele>654.2</ele>
        <time>2025-12-11T14:54:51Z</time>
      </trkpt>
      <trkpt lat="45.77346" lon="4.63838">
        <ele>653.6</ele>
        <time>2025-12-11T14:54:52Z</time>
      </trkpt>
      <trkpt lat="45.7735" lon="4.63837">
        <ele>653</ele>
        <time>2025-12-11T14:54:53Z</time>
      </trkpt>
      <trkpt lat="45.77355" lon="4.63834">
        <ele>652.4</ele>
        <time>2025-12-11T14:54:54Z</time>
      </trkpt>
      <trkpt lat="45.77359" lon="4.63832">
        <ele>651.8</ele>
        <time>2025-12-11T14:54:55Z</time>
      </trkpt>
      <trkpt lat="45.77361" lon="4.63831">
        <ele>651.4</ele>
        <time>2025-12-11T14:54:56Z</time>
      </trkpt>
      <trkpt lat="45.77361" lon="4.6383">
        <ele>651.2</ele>
        <time>2025-12-11T14:54:57Z</time>
      </trkpt>
      <trkpt lat="45.77361" lon="4.6383">
        <ele>651</ele>
        <time>2025-12-11T14:54:58Z</time>
      </trkpt>
      <trkpt lat="45.77361" lon="4.6383">
        <ele>651</ele>
        <time>2025-12-11T14:54:59Z</time>
      </trkpt>
      <trkpt lat="45.77361" lon="4.6383">
        <ele>651</ele>
        <time>2025-12-11T14:55:00Z</time>
      </trkpt>
      <trkpt lat="45.77361" lon="4.6383">
        <ele>651</ele>
        <time>2025-12-11T14:55:01Z</time>
      </trkpt>
      <trkpt lat="45.77361" lon="4.6383">
        <ele>651</ele>
        <time>2025-12-11T14:55:02Z</time>
      </trkpt>
      <trkpt lat="45.77361" lon="4.6383">
        <ele>651</ele>
        <time>2025-12-11T14:55:03Z</time>
      </trkpt>
      <trkpt lat="45.77361" lon="4.6383">
        <ele>651</ele>
        <time>2025-12-11T14:55:04Z</time>
      </trkpt>
      <trkpt lat="45.77361" lon="4.6383">
        <ele>651</ele>
        <time>2025-12-11T14:55:05Z</time>
      </trkpt>
      <trkpt lat="45.77361" lon="4.6383">
        <ele>651</ele>
        <time>2025-12-11T14:55:06Z</time>
      </trkpt>
      <trkpt lat="45.77361" lon="4.6383">
        <ele>651</ele>
        <time>2025-12-11T14:55:07Z</time>
      </trkpt>
      <trkpt lat="45.77361" lon="4.6383">
        <ele>651</ele>
        <time>2025-12-11T14:55:08Z</time>
      </trkpt>
      <trkpt lat="45.77361" lon="4.6383">
        <ele>651</ele>
        <time>2025-12-11T14:55:09Z</time>
      </trkpt>
      <trkpt lat="45.77361" lon="4.6383">
        <ele>651</ele>
        <time>2025-12-11T14:55:10Z</time>
      </trkpt>
      <trkpt lat="45.77361" lon="4.6383">
        <ele>651</ele>
        <time>2025-12-11T14:55:11Z</time>
      </trkpt>
      <trkpt lat="45.77361" lon="4.6383">
        <ele>650.8</ele>
        <time>2025-12-11T14:55:12Z</time>
      </trkpt>
      <trkpt lat="45.77361" lon="4.6383">
        <ele>651</ele>
        <time>2025-12-11T14:55:13Z</time>
      </trkpt>
      <trkpt lat="45.77361" lon="4.6383">
        <ele>651</ele>
        <time>2025-12-11T14:55:14Z</time>
      </trkpt>
      <trkpt lat="45.77361" lon="4.6383">
        <ele>651</ele>
        <time>2025-12-11T14:55:15Z</time>
      </trkpt>
      <trkpt lat="45.77361" lon="4.6383">
        <ele>651</ele>
        <time>2025-12-11T14:55:16Z</time>
      </trkpt>
      <trkpt lat="45.77361" lon="4.6383">
        <ele>651.2</ele>
        <time>2025-12-11T14:55:17Z</time>
      </trkpt>
      <trkpt lat="45.77361" lon="4.6383">
        <ele>651</ele>
        <time>2025-12-11T14:55:18Z</time>
      </trkpt>
      <trkpt lat="45.77361" lon="4.6383">
        <ele>651</ele>
        <time>2025-12-11T14:55:19Z</time>
      </trkpt>
      <trkpt lat="45.77361" lon="4.6383">
        <ele>651</ele>
        <time>2025-12-11T14:55:20Z</time>
      </trkpt>
      <trkpt lat="45.77361" lon="4.6383">
        <ele>651</ele>
        <time>2025-12-11T14:55:21Z</time>
      </trkpt>
      <trkpt lat="45.77361" lon="4.6383">
        <ele>651</ele>
        <time>2025-12-11T14:55:22Z</time>
      </trkpt>
      <trkpt lat="45.77361" lon="4.6383">
        <ele>651</ele>
        <time>2025-12-11T14:55:23Z</time>
      </trkpt>
      <trkpt lat="45.77361" lon="4.6383">
        <ele>651</ele>
        <time>2025-12-11T14:55:24Z</time>
      </trkpt>
      <trkpt lat="45.77361" lon="4.6383">
        <ele>651</ele>
        <time>2025-12-11T14:55:25Z</time>
      </trkpt>
      <trkpt lat="45.77361" lon="4.6383">
        <ele>651</ele>
        <time>2025-12-11T14:55:26Z</time>
      </trkpt>
      <trkpt lat="45.77361" lon="4.6383">
        <ele>651</ele>
        <time>2025-12-11T14:55:27Z</time>
      </trkpt>
      <trkpt lat="45.77361" lon="4.6383">
        <ele>651</ele>
        <time>2025-12-11T14:55:28Z</time>
      </trkpt>
      <trkpt lat="45.77361" lon="4.6383">
        <ele>651</ele>
        <time>2025-12-11T14:55:29Z</time>
      </trkpt>
      <trkpt lat="45.77362" lon="4.63829">
        <ele>651</ele>
        <time>2025-12-11T14:55:30Z</time>
      </trkpt>
      <trkpt lat="45.77363" lon="4.63828">
        <ele>651</ele>
        <time>2025-12-11T14:55:31Z</time>
      </trkpt>
      <trkpt lat="45.77365" lon="4.63826">
        <ele>650.8</ele>
        <time>2025-12-11T14:55:32Z</time>
      </trkpt>
      <trkpt lat="45.77367" lon="4.63825">
        <ele>650.8</ele>
        <time>2025-12-11T14:55:33Z</time>
      </trkpt>
      <trkpt lat="45.7737" lon="4.63823">
        <ele>650.6</ele>
        <time>2025-12-11T14:55:34Z</time>
      </trkpt>
      <trkpt lat="45.77373" lon="4.6382">
        <ele>650.4</ele>
        <time>2025-12-11T14:55:35Z</time>
      </trkpt>
      <trkpt lat="45.77376" lon="4.63817">
        <ele>650</ele>
        <time>2025-12-11T14:55:36Z</time>
      </trkpt>
      <trkpt lat="45.77379" lon="4.63813">
        <ele>649.6</ele>
        <time>2025-12-11T14:55:37Z</time>
      </trkpt>
      <trkpt lat="45.77384" lon="4.63809">
        <ele>649</ele>
        <time>2025-12-11T14:55:38Z</time>
      </trkpt>
      <trkpt lat="45.77388" lon="4.63805">
        <ele>648.6</ele>
        <time>2025-12-11T14:55:39Z</time>
      </trkpt>
      <trkpt lat="45.77392" lon="4.63801">
        <ele>648.2</ele>
        <time>2025-12-11T14:55:40Z</time>
      </trkpt>
      <trkpt lat="45.77395" lon="4.63798">
        <ele>647.8</ele>
        <time>2025-12-11T14:55:41Z</time>
      </trkpt>
      <trkpt lat="45.77399" lon="4.63795">
        <ele>647.2</ele>
        <time>2025-12-11T14:55:42Z</time>
      </trkpt>
      <trkpt lat="45.77404" lon="4.63792">
        <ele>646.6</ele>
        <time>2025-12-11T14:55:43Z</time>
      </trkpt>
      <trkpt lat="45.77408" lon="4.6379">
        <ele>645.8</ele>
        <time>2025-12-11T14:55:44Z</time>
      </trkpt>
      <trkpt lat="45.77412" lon="4.63787">
        <ele>645.2</ele>
        <time>2025-12-11T14:55:45Z</time>
      </trkpt>
      <trkpt lat="45.77417" lon="4.63785">
        <ele>644.4</ele>
        <time>2025-12-11T14:55:46Z</time>
      </trkpt>
      <trkpt lat="45.77421" lon="4.63783">
        <ele>643.8</ele>
        <time>2025-12-11T14:55:47Z</time>
      </trkpt>
      <trkpt lat="45.77426" lon="4.63781">
        <ele>643.2</ele>
        <time>2025-12-11T14:55:48Z</time>
      </trkpt>
      <trkpt lat="45.7743" lon="4.63779">
        <ele>642.6</ele>
        <time>2025-12-11T14:55:49Z</time>
      </trkpt>
      <trkpt lat="45.77433" lon="4.63775">
        <ele>641.8</ele>
        <time>2025-12-11T14:55:50Z</time>
      </trkpt>
      <trkpt lat="45.77437" lon="4.63771">
        <ele>641.4</ele>
        <time>2025-12-11T14:55:51Z</time>
      </trkpt>
      <trkpt lat="45.7744" lon="4.63766">
        <ele>640.8</ele>
        <time>2025-12-11T14:55:52Z</time>
      </trkpt>
      <trkpt lat="45.77444" lon="4.63761">
        <ele>639.8</ele>
        <time>2025-12-11T14:55:53Z</time>
      </trkpt>
      <trkpt lat="45.77448" lon="4.63757">
        <ele>639</ele>
        <time>2025-12-11T14:55:54Z</time>
      </trkpt>
      <trkpt lat="45.77454" lon="4.63752">
        <ele>637.8</ele>
        <time>2025-12-11T14:55:55Z</time>
      </trkpt>
      <trkpt lat="45.77462" lon="4.63749">
        <ele>636.8</ele>
        <time>2025-12-11T14:55:56Z</time>
      </trkpt>
      <trkpt lat="45.77468" lon="4.63746">
        <ele>636</ele>
        <time>2025-12-11T14:55:57Z</time>
      </trkpt>
      <trkpt lat="45.77473" lon="4.63744">
        <ele>635.2</ele>
        <time>2025-12-11T14:55:58Z</time>
      </trkpt>
      <trkpt lat="45.77479" lon="4.63744">
        <ele>634.4</ele>
        <time>2025-12-11T14:55:59Z</time>
      </trkpt>
      <trkpt lat="45.77484" lon="4.63747">
        <ele>633.6</ele>
        <time>2025-12-11T14:56:00Z</time>
      </trkpt>
      <trkpt lat="45.7749" lon="4.63751">
        <ele>632.6</ele>
        <time>2025-12-11T14:56:01Z</time>
      </trkpt>
      <trkpt lat="45.77495" lon="4.63755">
        <ele>631.8</ele>
        <time>2025-12-11T14:56:02Z</time>
      </trkpt>
      <trkpt lat="45.775" lon="4.63759">
        <ele>630.4</ele>
        <time>2025-12-11T14:56:03Z</time>
      </trkpt>
      <trkpt lat="45.77505" lon="4.63764">
        <ele>629.4</ele>
        <time>2025-12-11T14:56:04Z</time>
      </trkpt>
      <trkpt lat="45.7751" lon="4.6377">
        <ele>628.2</ele>
        <time>2025-12-11T14:56:05Z</time>
      </trkpt>
      <trkpt lat="45.77516" lon="4.63776">
        <ele>626.8</ele>
        <time>2025-12-11T14:56:06Z</time>
      </trkpt>
      <trkpt lat="45.77522" lon="4.63781">
        <ele>625.8</ele>
        <time>2025-12-11T14:56:07Z</time>
      </trkpt>
      <trkpt lat="45.77528" lon="4.63786">
        <ele>624.4</ele>
        <time>2025-12-11T14:56:08Z</time>
      </trkpt>
      <trkpt lat="45.77534" lon="4.63792">
        <ele>622.8</ele>
        <time>2025-12-11T14:56:09Z</time>
      </trkpt>
      <trkpt lat="45.77539" lon="4.63797">
        <ele>621.2</ele>
        <time>2025-12-11T14:56:10Z</time>
      </trkpt>
      <trkpt lat="45.77545" lon="4.63803">
        <ele>619.8</ele>
        <time>2025-12-11T14:56:11Z</time>
      </trkpt>
      <trkpt lat="45.77551" lon="4.63809">
        <ele>618.2</ele>
        <time>2025-12-11T14:56:12Z</time>
      </trkpt>
      <trkpt lat="45.77556" lon="4.63815">
        <ele>616.6</ele>
        <time>2025-12-11T14:56:13Z</time>
      </trkpt>
      <trkpt lat="45.77561" lon="4.63823">
        <ele>615.2</ele>
        <time>2025-12-11T14:56:14Z</time>
      </trkpt>
      <trkpt lat="45.77566" lon="4.6383">
        <ele>613.8</ele>
        <time>2025-12-11T14:56:15Z</time>
      </trkpt>
      <trkpt lat="45.77571" lon="4.63838">
        <ele>612.4</ele>
        <time>2025-12-11T14:56:16Z</time>
      </trkpt>
      <trkpt lat="45.77576" lon="4.63843">
        <ele>611.4</ele>
        <time>2025-12-11T14:56:17Z</time>
      </trkpt>
      <trkpt lat="45.77581" lon="4.63847">
        <ele>610.4</ele>
        <time>2025-12-11T14:56:18Z</time>
      </trkpt>
      <trkpt lat="45.77585" lon="4.63849">
        <ele>609.6</ele>
        <time>2025-12-11T14:56:19Z</time>
      </trkpt>
      <trkpt lat="45.77588" lon="4.63851">
        <ele>609</ele>
        <time>2025-12-11T14:56:20Z</time>
      </trkpt>
      <trkpt lat="45.7759" lon="4.63853">
        <ele>608.8</ele>
        <time>2025-12-11T14:56:21Z</time>
      </trkpt>
      <trkpt lat="45.7759" lon="4.63854">
        <ele>608.4</ele>
        <time>2025-12-11T14:56:22Z</time>
      </trkpt>
      <trkpt lat="45.7759" lon="4.63854">
        <ele>608.4</ele>
        <time>2025-12-11T14:56:23Z</time>
      </trkpt>
      <trkpt lat="45.7759" lon="4.63854">
        <ele>608.2</ele>
        <time>2025-12-11T14:56:24Z</time>
      </trkpt>
      <trkpt lat="45.7759" lon="4.63854">
        <ele>608.2</ele>
        <time>2025-12-11T14:56:25Z</time>
      </trkpt>
      <trkpt lat="45.7759" lon="4.63854">
        <ele>608</ele>
        <time>2025-12-11T14:56:26Z</time>
      </trkpt>
      <trkpt lat="45.7759" lon="4.63854">
        <ele>608</ele>
        <time>2025-12-11T14:56:27Z</time>
      </trkpt>
      <trkpt lat="45.7759" lon="4.63854">
        <ele>608</ele>
        <time>2025-12-11T14:56:28Z</time>
      </trkpt>
      <trkpt lat="45.7759" lon="4.63854">
        <ele>608</ele>
        <time>2025-12-11T14:56:29Z</time>
      </trkpt>
      <trkpt lat="45.7759" lon="4.63854">
        <ele>608</ele>
        <time>2025-12-11T14:56:30Z</time>
      </trkpt>
      <trkpt lat="45.7759" lon="4.63854">
        <ele>608</ele>
        <time>2025-12-11T14:56:31Z</time>
      </trkpt>
      <trkpt lat="45.7759" lon="4.63854">
        <ele>608</ele>
        <time>2025-12-11T14:56:32Z</time>
      </trkpt>
      <trkpt lat="45.7759" lon="4.63854">
        <ele>608</ele>
        <time>2025-12-11T14:56:33Z</time>
      </trkpt>
      <trkpt lat="45.7759" lon="4.63854">
        <ele>608</ele>
        <time>2025-12-11T14:56:34Z</time>
      </trkpt>
      <trkpt lat="45.7759" lon="4.63854">
        <ele>607.8</ele>
        <time>2025-12-11T14:56:35Z</time>
      </trkpt>
      <trkpt lat="45.7759" lon="4.63854">
        <ele>607.8</ele>
        <time>2025-12-11T14:56:36Z</time>
      </trkpt>
      <trkpt lat="45.7759" lon="4.63854">
        <ele>607.8</ele>
        <time>2025-12-11T14:56:37Z</time>
      </trkpt>
      <trkpt lat="45.7759" lon="4.63854">
        <ele>607.8</ele>
        <time>2025-12-11T14:56:38Z</time>
      </trkpt>
      <trkpt lat="45.7759" lon="4.63854">
        <ele>607.8</ele>
        <time>2025-12-11T14:56:39Z</time>
      </trkpt>
      <trkpt lat="45.7759" lon="4.63854">
        <ele>607.8</ele>
        <time>2025-12-11T14:56:40Z</time>
      </trkpt>
      <trkpt lat="45.7759" lon="4.63854">
        <ele>607.8</ele>
        <time>2025-12-11T14:56:41Z</time>
      </trkpt>
      <trkpt lat="45.7759" lon="4.63856">
        <ele>607.6</ele>
        <time>2025-12-11T14:56:42Z</time>
      </trkpt>
      <trkpt lat="45.7759" lon="4.63858">
        <ele>607.6</ele>
        <time>2025-12-11T14:56:43Z</time>
      </trkpt>
      <trkpt lat="45.77589" lon="4.6386">
        <ele>607.4</ele>
        <time>2025-12-11T14:56:44Z</time>
      </trkpt>
      <trkpt lat="45.77587" lon="4.63863">
        <ele>607</ele>
        <time>2025-12-11T14:56:45Z</time>
      </trkpt>
      <trkpt lat="45.77585" lon="4.63867">
        <ele>606.8</ele>
        <time>2025-12-11T14:56:46Z</time>
      </trkpt>
      <trkpt lat="45.77584" lon="4.63871">
        <ele>606.6</ele>
        <time>2025-12-11T14:56:47Z</time>
      </trkpt>
      <trkpt lat="45.77583" lon="4.63876">
        <ele>606.4</ele>
        <time>2025-12-11T14:56:48Z</time>
      </trkpt>
      <trkpt lat="45.77581" lon="4.63879">
        <ele>606.2</ele>
        <time>2025-12-11T14:56:49Z</time>
      </trkpt>
      <trkpt lat="45.7758" lon="4.63882">
        <ele>606</ele>
        <time>2025-12-11T14:56:50Z</time>
      </trkpt>
      <trkpt lat="45.77578" lon="4.63885">
        <ele>605.8</ele>
        <time>2025-12-11T14:56:51Z</time>
      </trkpt>
      <trkpt lat="45.77576" lon="4.63887">
        <ele>605.6</ele>
        <time>2025-12-11T14:56:52Z</time>
      </trkpt>
      <trkpt lat="45.77576" lon="4.63889">
        <ele>605.4</ele>
        <time>2025-12-11T14:56:53Z</time>
      </trkpt>
      <trkpt lat="45.77574" lon="4.63891">
        <ele>605.4</ele>
        <time>2025-12-11T14:56:54Z</time>
      </trkpt>
      <trkpt lat="45.77573" lon="4.63894">
        <ele>605.2</ele>
        <time>2025-12-11T14:56:55Z</time>
      </trkpt>
      <trkpt lat="45.77571" lon="4.63897">
        <ele>605</ele>
        <time>2025-12-11T14:56:56Z</time>
      </trkpt>
      <trkpt lat="45.77568" lon="4.639">
        <ele>604.8</ele>
        <time>2025-12-11T14:56:57Z</time>
      </trkpt>
      <trkpt lat="45.77566" lon="4.63902">
        <ele>604.6</ele>
        <time>2025-12-11T14:56:58Z</time>
      </trkpt>
      <trkpt lat="45.77564" lon="4.63905">
        <ele>604.4</ele>
        <time>2025-12-11T14:56:59Z</time>
      </trkpt>
      <trkpt lat="45.77562" lon="4.63907">
        <ele>604.2</ele>
        <time>2025-12-11T14:57:00Z</time>
      </trkpt>
      <trkpt lat="45.7756" lon="4.6391">
        <ele>604</ele>
        <time>2025-12-11T14:57:01Z</time>
      </trkpt>
      <trkpt lat="45.77557" lon="4.63914">
        <ele>603.8</ele>
        <time>2025-12-11T14:57:02Z</time>
      </trkpt>
      <trkpt lat="45.77552" lon="4.63918">
        <ele>603.4</ele>
        <time>2025-12-11T14:57:03Z</time>
      </trkpt>
      <trkpt lat="45.77548" lon="4.63922">
        <ele>603.2</ele>
        <time>2025-12-11T14:57:04Z</time>
      </trkpt>
      <trkpt lat="45.77545" lon="4.63925">
        <ele>602.8</ele>
        <time>2025-12-11T14:57:05Z</time>
      </trkpt>
      <trkpt lat="45.77542" lon="4.63929">
        <ele>602.4</ele>
        <time>2025-12-11T14:57:06Z</time>
      </trkpt>
      <trkpt lat="45.77539" lon="4.63933">
        <ele>602</ele>
        <time>2025-12-11T14:57:07Z</time>
      </trkpt>
      <trkpt lat="45.77535" lon="4.63937">
        <ele>601.6</ele>
        <time>2025-12-11T14:57:08Z</time>
      </trkpt>
      <trkpt lat="45.7753" lon="4.63941">
        <ele>601.4</ele>
        <time>2025-12-11T14:57:09Z</time>
      </trkpt>
      <trkpt lat="45.77525" lon="4.63944">
        <ele>601.2</ele>
        <time>2025-12-11T14:57:10Z</time>
      </trkpt>
      <trkpt lat="45.7752" lon="4.63948">
        <ele>600.8</ele>
        <time>2025-12-11T14:57:11Z</time>
      </trkpt>
      <trkpt lat="45.77515" lon="4.63951">
        <ele>600.4</ele>
        <time>2025-12-11T14:57:12Z</time>
      </trkpt>
      <trkpt lat="45.77511" lon="4.63954">
        <ele>600.2</ele>
        <time>2025-12-11T14:57:13Z</time>
      </trkpt>
      <trkpt lat="45.77507" lon="4.63958">
        <ele>600</ele>
        <time>2025-12-11T14:57:14Z</time>
      </trkpt>
      <trkpt lat="45.77504" lon="4.6396">
        <ele>599.8</ele>
        <time>2025-12-11T14:57:15Z</time>
      </trkpt>
      <trkpt lat="45.77501" lon="4.63961">
        <ele>599.8</ele>
        <time>2025-12-11T14:57:16Z</time>
      </trkpt>
      <trkpt lat="45.77498" lon="4.63962">
        <ele>599.8</ele>
        <time>2025-12-11T14:57:17Z</time>
      </trkpt>
      <trkpt lat="45.77498" lon="4.63962">
        <ele>600</ele>
        <time>2025-12-11T14:57:18Z</time>
      </trkpt>
      <trkpt lat="45.77494" lon="4.63965">
        <ele>600</ele>
        <time>2025-12-11T14:57:19Z</time>
      </trkpt>
      <trkpt lat="45.7749" lon="4.63965">
        <ele>600.2</ele>
        <time>2025-12-11T14:57:20Z</time>
      </trkpt>
      <trkpt lat="45.77485" lon="4.63967">
        <ele>600.2</ele>
        <time>2025-12-11T14:57:21Z</time>
      </trkpt>
      <trkpt lat="45.77482" lon="4.63968">
        <ele>600.4</ele>
        <time>2025-12-11T14:57:22Z</time>
      </trkpt>
      <trkpt lat="45.77479" lon="4.6397">
        <ele>600.4</ele>
        <time>2025-12-11T14:57:23Z</time>
      </trkpt>
      <trkpt lat="45.77476" lon="4.63971">
        <ele>600.6</ele>
        <time>2025-12-11T14:57:24Z</time>
      </trkpt>
      <trkpt lat="45.77473" lon="4.63971">
        <ele>600.6</ele>
        <time>2025-12-11T14:57:25Z</time>
      </trkpt>
      <trkpt lat="45.7747" lon="4.63973">
        <ele>600.8</ele>
        <time>2025-12-11T14:57:26Z</time>
      </trkpt>
      <trkpt lat="45.77467" lon="4.63974">
        <ele>600.8</ele>
        <time>2025-12-11T14:57:27Z</time>
      </trkpt>
      <trkpt lat="45.77462" lon="4.63976">
        <ele>601</ele>
        <time>2025-12-11T14:57:28Z</time>
      </trkpt>
      <trkpt lat="45.77459" lon="4.63975">
        <ele>601</ele>
        <time>2025-12-11T14:57:29Z</time>
      </trkpt>
      <trkpt lat="45.77455" lon="4.63977">
        <ele>601.2</ele>
        <time>2025-12-11T14:57:30Z</time>
      </trkpt>
      <trkpt lat="45.7745" lon="4.63979">
        <ele>601.2</ele>
        <time>2025-12-11T14:57:31Z</time>
      </trkpt>
      <trkpt lat="45.77446" lon="4.63982">
        <ele>601.2</ele>
        <time>2025-12-11T14:57:32Z</time>
      </trkpt>
      <trkpt lat="45.77442" lon="4.63986">
        <ele>601.4</ele>
        <time>2025-12-11T14:57:33Z</time>
      </trkpt>
      <trkpt lat="45.77438" lon="4.63991">
        <ele>601.4</ele>
        <time>2025-12-11T14:57:34Z</time>
      </trkpt>
      <trkpt lat="45.77436" lon="4.63993">
        <ele>601.6</ele>
        <time>2025-12-11T14:57:35Z</time>
      </trkpt>
      <trkpt lat="45.77435" lon="4.63995">
        <ele>601.8</ele>
        <time>2025-12-11T14:57:36Z</time>
      </trkpt>
      <trkpt lat="45.77433" lon="4.63998">
        <ele>602</ele>
        <time>2025-12-11T14:57:37Z</time>
      </trkpt>
      <trkpt lat="45.7743" lon="4.64001">
        <ele>602.4</ele>
        <time>2025-12-11T14:57:38Z</time>
      </trkpt>
      <trkpt lat="45.77428" lon="4.64005">
        <ele>602.6</ele>
        <time>2025-12-11T14:57:39Z</time>
      </trkpt>
      <trkpt lat="45.77426" lon="4.64008">
        <ele>603</ele>
        <time>2025-12-11T14:57:40Z</time>
      </trkpt>
      <trkpt lat="45.77423" lon="4.64012">
        <ele>603.2</ele>
        <time>2025-12-11T14:57:41Z</time>
      </trkpt>
      <trkpt lat="45.77423" lon="4.64014">
        <ele>603.4</ele>
        <time>2025-12-11T14:57:42Z</time>
      </trkpt>
      <trkpt lat="45.77422" lon="4.64018">
        <ele>603.6</ele>
        <time>2025-12-11T14:57:43Z</time>
      </trkpt>
      <trkpt lat="45.7742" lon="4.64021">
        <ele>603.8</ele>
        <time>2025-12-11T14:57:44Z</time>
      </trkpt>
      <trkpt lat="45.77418" lon="4.64026">
        <ele>603.8</ele>
        <time>2025-12-11T14:57:45Z</time>
      </trkpt>
      <trkpt lat="45.77419" lon="4.64028">
        <ele>603.8</ele>
        <time>2025-12-11T14:57:46Z</time>
      </trkpt>
      <trkpt lat="45.77417" lon="4.6403">
        <ele>603.8</ele>
        <time>2025-12-11T14:57:47Z</time>
      </trkpt>
      <trkpt lat="45.77415" lon="4.64033">
        <ele>603.8</ele>
        <time>2025-12-11T14:57:48Z</time>
      </trkpt>
      <trkpt lat="45.77412" lon="4.64035">
        <ele>603.8</ele>
        <time>2025-12-11T14:57:49Z</time>
      </trkpt>
      <trkpt lat="45.7741" lon="4.64039">
        <ele>603.8</ele>
        <time>2025-12-11T14:57:50Z</time>
      </trkpt>
      <trkpt lat="45.77408" lon="4.64044">
        <ele>604</ele>
        <time>2025-12-11T14:57:51Z</time>
      </trkpt>
      <trkpt lat="45.77407" lon="4.64048">
        <ele>604</ele>
        <time>2025-12-11T14:57:52Z</time>
      </trkpt>
      <trkpt lat="45.77404" lon="4.64052">
        <ele>604.2</ele>
        <time>2025-12-11T14:57:53Z</time>
      </trkpt>
      <trkpt lat="45.77402" lon="4.64055">
        <ele>604.4</ele>
        <time>2025-12-11T14:57:54Z</time>
      </trkpt>
      <trkpt lat="45.774" lon="4.64059">
        <ele>604.6</ele>
        <time>2025-12-11T14:57:55Z</time>
      </trkpt>
      <trkpt lat="45.77397" lon="4.64063">
        <ele>604.8</ele>
        <time>2025-12-11T14:57:56Z</time>
      </trkpt>
      <trkpt lat="45.77395" lon="4.64067">
        <ele>605</ele>
        <time>2025-12-11T14:57:57Z</time>
      </trkpt>
      <trkpt lat="45.77393" lon="4.64072">
        <ele>605.2</ele>
        <time>2025-12-11T14:57:58Z</time>
      </trkpt>
      <trkpt lat="45.77391" lon="4.64075">
        <ele>605.2</ele>
        <time>2025-12-11T14:57:59Z</time>
      </trkpt>
      <trkpt lat="45.77393" lon="4.64078">
        <ele>605.2</ele>
        <time>2025-12-11T14:58:00Z</time>
      </trkpt>
      <trkpt lat="45.7739" lon="4.64083">
        <ele>605.2</ele>
        <time>2025-12-11T14:58:01Z</time>
      </trkpt>
      <trkpt lat="45.77387" lon="4.64088">
        <ele>605.2</ele>
        <time>2025-12-11T14:58:02Z</time>
      </trkpt>
      <trkpt lat="45.77385" lon="4.64093">
        <ele>605</ele>
        <time>2025-12-11T14:58:03Z</time>
      </trkpt>
      <trkpt lat="45.77383" lon="4.64099">
        <ele>604.8</ele>
        <time>2025-12-11T14:58:04Z</time>
      </trkpt>
      <trkpt lat="45.77381" lon="4.64103">
        <ele>604.6</ele>
        <time>2025-12-11T14:58:05Z</time>
      </trkpt>
      <trkpt lat="45.77377" lon="4.64107">
        <ele>604.6</ele>
        <time>2025-12-11T14:58:06Z</time>
      </trkpt>
      <trkpt lat="45.77375" lon="4.64113">
        <ele>604.6</ele>
        <time>2025-12-11T14:58:07Z</time>
      </trkpt>
      <trkpt lat="45.77373" lon="4.64117">
        <ele>604.6</ele>
        <time>2025-12-11T14:58:08Z</time>
      </trkpt>
      <trkpt lat="45.77371" lon="4.6412">
        <ele>604.6</ele>
        <time>2025-12-11T14:58:09Z</time>
      </trkpt>
      <trkpt lat="45.7737" lon="4.64123">
        <ele>604.6</ele>
        <time>2025-12-11T14:58:10Z</time>
      </trkpt>
      <trkpt lat="45.77368" lon="4.64126">
        <ele>604.8</ele>
        <time>2025-12-11T14:58:11Z</time>
      </trkpt>
      <trkpt lat="45.77366" lon="4.6413">
        <ele>604.8</ele>
        <time>2025-12-11T14:58:12Z</time>
      </trkpt>
      <trkpt lat="45.77364" lon="4.64134">
        <ele>604.8</ele>
        <time>2025-12-11T14:58:13Z</time>
      </trkpt>
      <trkpt lat="45.77362" lon="4.64138">
        <ele>604.8</ele>
        <time>2025-12-11T14:58:14Z</time>
      </trkpt>
      <trkpt lat="45.7736" lon="4.64143">
        <ele>604.6</ele>
        <time>2025-12-11T14:58:15Z</time>
      </trkpt>
      <trkpt lat="45.77356" lon="4.64148">
        <ele>604.4</ele>
        <time>2025-12-11T14:58:16Z</time>
      </trkpt>
      <trkpt lat="45.77353" lon="4.64152">
        <ele>604.4</ele>
        <time>2025-12-11T14:58:17Z</time>
      </trkpt>
      <trkpt lat="45.77349" lon="4.64156">
        <ele>604.2</ele>
        <time>2025-12-11T14:58:18Z</time>
      </trkpt>
      <trkpt lat="45.77346" lon="4.64159">
        <ele>604.2</ele>
        <time>2025-12-11T14:58:19Z</time>
      </trkpt>
      <trkpt lat="45.77343" lon="4.64165">
        <ele>604</ele>
        <time>2025-12-11T14:58:20Z</time>
      </trkpt>
      <trkpt lat="45.7734" lon="4.6417">
        <ele>603.8</ele>
        <time>2025-12-11T14:58:21Z</time>
      </trkpt>
      <trkpt lat="45.77336" lon="4.64175">
        <ele>603.8</ele>
        <time>2025-12-11T14:58:22Z</time>
      </trkpt>
      <trkpt lat="45.77333" lon="4.64179">
        <ele>603.8</ele>
        <time>2025-12-11T14:58:23Z</time>
      </trkpt>
      <trkpt lat="45.77329" lon="4.64182">
        <ele>603.8</ele>
        <time>2025-12-11T14:58:24Z</time>
      </trkpt>
      <trkpt lat="45.77327" lon="4.64185">
        <ele>603.8</ele>
        <time>2025-12-11T14:58:25Z</time>
      </trkpt>
      <trkpt lat="45.77323" lon="4.64188">
        <ele>604</ele>
        <time>2025-12-11T14:58:26Z</time>
      </trkpt>
      <trkpt lat="45.7732" lon="4.64191">
        <ele>604.2</ele>
        <time>2025-12-11T14:58:27Z</time>
      </trkpt>
      <trkpt lat="45.77317" lon="4.64193">
        <ele>604.4</ele>
        <time>2025-12-11T14:58:28Z</time>
      </trkpt>
      <trkpt lat="45.77315" lon="4.64195">
        <ele>604.6</ele>
        <time>2025-12-11T14:58:29Z</time>
      </trkpt>
      <trkpt lat="45.77311" lon="4.64198">
        <ele>604.8</ele>
        <time>2025-12-11T14:58:30Z</time>
      </trkpt>
      <trkpt lat="45.77309" lon="4.64199">
        <ele>604.8</ele>
        <time>2025-12-11T14:58:31Z</time>
      </trkpt>
      <trkpt lat="45.77305" lon="4.642">
        <ele>605</ele>
        <time>2025-12-11T14:58:32Z</time>
      </trkpt>
      <trkpt lat="45.77302" lon="4.64202">
        <ele>605</ele>
        <time>2025-12-11T14:58:33Z</time>
      </trkpt>
      <trkpt lat="45.773" lon="4.64202">
        <ele>605</ele>
        <time>2025-12-11T14:58:34Z</time>
      </trkpt>
      <trkpt lat="45.77298" lon="4.64202">
        <ele>605</ele>
        <time>2025-12-11T14:58:35Z</time>
      </trkpt>
      <trkpt lat="45.77294" lon="4.64203">
        <ele>605</ele>
        <time>2025-12-11T14:58:36Z</time>
      </trkpt>
      <trkpt lat="45.77291" lon="4.64204">
        <ele>605</ele>
        <time>2025-12-11T14:58:37Z</time>
      </trkpt>
      <trkpt lat="45.77285" lon="4.64205">
        <ele>605</ele>
        <time>2025-12-11T14:58:38Z</time>
      </trkpt>
      <trkpt lat="45.77282" lon="4.64204">
        <ele>605</ele>
        <time>2025-12-11T14:58:39Z</time>
      </trkpt>
      <trkpt lat="45.77279" lon="4.64204">
        <ele>605</ele>
        <time>2025-12-11T14:58:40Z</time>
      </trkpt>
      <trkpt lat="45.77277" lon="4.64202">
        <ele>605.2</ele>
        <time>2025-12-11T14:58:41Z</time>
      </trkpt>
      <trkpt lat="45.77274" lon="4.642">
        <ele>605.2</ele>
        <time>2025-12-11T14:58:42Z</time>
      </trkpt>
      <trkpt lat="45.7727" lon="4.64199">
        <ele>605.2</ele>
        <time>2025-12-11T14:58:43Z</time>
      </trkpt>
      <trkpt lat="45.77267" lon="4.64197">
        <ele>605.2</ele>
        <time>2025-12-11T14:58:44Z</time>
      </trkpt>
      <trkpt lat="45.77264" lon="4.64194">
        <ele>605.2</ele>
        <time>2025-12-11T14:58:45Z</time>
      </trkpt>
      <trkpt lat="45.77262" lon="4.64192">
        <ele>605.2</ele>
        <time>2025-12-11T14:58:46Z</time>
      </trkpt>
      <trkpt lat="45.77259" lon="4.64191">
        <ele>605.2</ele>
        <time>2025-12-11T14:58:47Z</time>
      </trkpt>
      <trkpt lat="45.77256" lon="4.6419">
        <ele>605.4</ele>
        <time>2025-12-11T14:58:48Z</time>
      </trkpt>
      <trkpt lat="45.77253" lon="4.64189">
        <ele>605.4</ele>
        <time>2025-12-11T14:58:49Z</time>
      </trkpt>
      <trkpt lat="45.7725" lon="4.64188">
        <ele>605.4</ele>
        <time>2025-12-11T14:58:50Z</time>
      </trkpt>
      <trkpt lat="45.77247" lon="4.64187">
        <ele>605.4</ele>
        <time>2025-12-11T14:58:51Z</time>
      </trkpt>
      <trkpt lat="45.77244" lon="4.64187">
        <ele>605.6</ele>
        <time>2025-12-11T14:58:52Z</time>
      </trkpt>
      <trkpt lat="45.77241" lon="4.64186">
        <ele>605.6</ele>
        <time>2025-12-11T14:58:53Z</time>
      </trkpt>
      <trkpt lat="45.77238" lon="4.64186">
        <ele>605.8</ele>
        <time>2025-12-11T14:58:54Z</time>
      </trkpt>
      <trkpt lat="45.77235" lon="4.64185">
        <ele>605.8</ele>
        <time>2025-12-11T14:58:55Z</time>
      </trkpt>
      <trkpt lat="45.77232" lon="4.64185">
        <ele>605.8</ele>
        <time>2025-12-11T14:58:56Z</time>
      </trkpt>
      <trkpt lat="45.77229" lon="4.64184">
        <ele>605.8</ele>
        <time>2025-12-11T14:58:57Z</time>
      </trkpt>
      <trkpt lat="45.77225" lon="4.64183">
        <ele>605.6</ele>
        <time>2025-12-11T14:58:58Z</time>
      </trkpt>
      <trkpt lat="45.77221" lon="4.64183">
        <ele>605.6</ele>
        <time>2025-12-11T14:58:59Z</time>
      </trkpt>
      <trkpt lat="45.77216" lon="4.64183">
        <ele>605.4</ele>
        <time>2025-12-11T14:59:00Z</time>
      </trkpt>
      <trkpt lat="45.77212" lon="4.64182">
        <ele>605</ele>
        <time>2025-12-11T14:59:01Z</time>
      </trkpt>
      <trkpt lat="45.77208" lon="4.64181">
        <ele>604.6</ele>
        <time>2025-12-11T14:59:02Z</time>
      </trkpt>
      <trkpt lat="45.77202" lon="4.64182">
        <ele>604.2</ele>
        <time>2025-12-11T14:59:03Z</time>
      </trkpt>
      <trkpt lat="45.77197" lon="4.64181">
        <ele>604</ele>
        <time>2025-12-11T14:59:04Z</time>
      </trkpt>
      <trkpt lat="45.77191" lon="4.6418">
        <ele>603.6</ele>
        <time>2025-12-11T14:59:05Z</time>
      </trkpt>
      <trkpt lat="45.77186" lon="4.64178">
        <ele>603.2</ele>
        <time>2025-12-11T14:59:06Z</time>
      </trkpt>
      <trkpt lat="45.7718" lon="4.64176">
        <ele>602.8</ele>
        <time>2025-12-11T14:59:07Z</time>
      </trkpt>
      <trkpt lat="45.77174" lon="4.64175">
        <ele>602.4</ele>
        <time>2025-12-11T14:59:08Z</time>
      </trkpt>
      <trkpt lat="45.7717" lon="4.64173">
        <ele>601.8</ele>
        <time>2025-12-11T14:59:09Z</time>
      </trkpt>
      <trkpt lat="45.77166" lon="4.64172">
        <ele>601.2</ele>
        <time>2025-12-11T14:59:10Z</time>
      </trkpt>
      <trkpt lat="45.77161" lon="4.6417">
        <ele>600.6</ele>
        <time>2025-12-11T14:59:11Z</time>
      </trkpt>
      <trkpt lat="45.77156" lon="4.64168">
        <ele>600.2</ele>
        <time>2025-12-11T14:59:12Z</time>
      </trkpt>
      <trkpt lat="45.77151" lon="4.64166">
        <ele>599.8</ele>
        <time>2025-12-11T14:59:13Z</time>
      </trkpt>
      <trkpt lat="45.77147" lon="4.64164">
        <ele>599.2</ele>
        <time>2025-12-11T14:59:14Z</time>
      </trkpt>
      <trkpt lat="45.77144" lon="4.64162">
        <ele>598.8</ele>
        <time>2025-12-11T14:59:15Z</time>
      </trkpt>
      <trkpt lat="45.7714" lon="4.6416">
        <ele>598.4</ele>
        <time>2025-12-11T14:59:16Z</time>
      </trkpt>
      <trkpt lat="45.77137" lon="4.64158">
        <ele>598.2</ele>
        <time>2025-12-11T14:59:17Z</time>
      </trkpt>
      <trkpt lat="45.77133" lon="4.64157">
        <ele>597.8</ele>
        <time>2025-12-11T14:59:18Z</time>
      </trkpt>
      <trkpt lat="45.77129" lon="4.64156">
        <ele>597.2</ele>
        <time>2025-12-11T14:59:19Z</time>
      </trkpt>
      <trkpt lat="45.77125" lon="4.64156">
        <ele>596.8</ele>
        <time>2025-12-11T14:59:20Z</time>
      </trkpt>
      <trkpt lat="45.77122" lon="4.64157">
        <ele>596.4</ele>
        <time>2025-12-11T14:59:21Z</time>
      </trkpt>
      <trkpt lat="45.7712" lon="4.64159">
        <ele>595.8</ele>
        <time>2025-12-11T14:59:22Z</time>
      </trkpt>
      <trkpt lat="45.77118" lon="4.64162">
        <ele>595.6</ele>
        <time>2025-12-11T14:59:23Z</time>
      </trkpt>
      <trkpt lat="45.77116" lon="4.64166">
        <ele>595.4</ele>
        <time>2025-12-11T14:59:24Z</time>
      </trkpt>
      <trkpt lat="45.77114" lon="4.64171">
        <ele>595.2</ele>
        <time>2025-12-11T14:59:25Z</time>
      </trkpt>
      <trkpt lat="45.77111" lon="4.64176">
        <ele>595</ele>
        <time>2025-12-11T14:59:26Z</time>
      </trkpt>
      <trkpt lat="45.77109" lon="4.64181">
        <ele>594.8</ele>
        <time>2025-12-11T14:59:27Z</time>
      </trkpt>
      <trkpt lat="45.77108" lon="4.64186">
        <ele>594.8</ele>
        <time>2025-12-11T14:59:28Z</time>
      </trkpt>
      <trkpt lat="45.77107" lon="4.6419">
        <ele>594.6</ele>
        <time>2025-12-11T14:59:29Z</time>
      </trkpt>
      <trkpt lat="45.77106" lon="4.64193">
        <ele>594.6</ele>
        <time>2025-12-11T14:59:30Z</time>
      </trkpt>
      <trkpt lat="45.77105" lon="4.64197">
        <ele>594.6</ele>
        <time>2025-12-11T14:59:31Z</time>
      </trkpt>
      <trkpt lat="45.77102" lon="4.64203">
        <ele>594.4</ele>
        <time>2025-12-11T14:59:32Z</time>
      </trkpt>
      <trkpt lat="45.771" lon="4.6421">
        <ele>594</ele>
        <time>2025-12-11T14:59:33Z</time>
      </trkpt>
      <trkpt lat="45.77098" lon="4.64219">
        <ele>593.8</ele>
        <time>2025-12-11T14:59:34Z</time>
      </trkpt>
      <trkpt lat="45.77097" lon="4.64228">
        <ele>593.2</ele>
        <time>2025-12-11T14:59:35Z</time>
      </trkpt>
      <trkpt lat="45.77097" lon="4.64237">
        <ele>592.6</ele>
        <time>2025-12-11T14:59:36Z</time>
      </trkpt>
      <trkpt lat="45.77096" lon="4.64246">
        <ele>591.8</ele>
        <time>2025-12-11T14:59:37Z</time>
      </trkpt>
      <trkpt lat="45.77095" lon="4.64257">
        <ele>591</ele>
        <time>2025-12-11T14:59:38Z</time>
      </trkpt>
      <trkpt lat="45.77094" lon="4.64268">
        <ele>589.8</ele>
        <time>2025-12-11T14:59:39Z</time>
      </trkpt>
      <trkpt lat="45.77092" lon="4.64281">
        <ele>588.6</ele>
        <time>2025-12-11T14:59:40Z</time>
      </trkpt>
      <trkpt lat="45.77091" lon="4.64293">
        <ele>587.4</ele>
        <time>2025-12-11T14:59:41Z</time>
      </trkpt>
      <trkpt lat="45.77089" lon="4.64306">
        <ele>586.2</ele>
        <time>2025-12-11T14:59:42Z</time>
      </trkpt>
      <trkpt lat="45.77091" lon="4.6432">
        <ele>584.6</ele>
        <time>2025-12-11T14:59:43Z</time>
      </trkpt>
      <trkpt lat="45.77093" lon="4.64334">
        <ele>583.2</ele>
        <time>2025-12-11T14:59:44Z</time>
      </trkpt>
      <trkpt lat="45.77095" lon="4.6435">
        <ele>581.8</ele>
        <time>2025-12-11T14:59:45Z</time>
      </trkpt>
      <trkpt lat="45.77097" lon="4.64366">
        <ele>580.8</ele>
        <time>2025-12-11T14:59:46Z</time>
      </trkpt>
      <trkpt lat="45.77098" lon="4.6438">
        <ele>579.8</ele>
        <time>2025-12-11T14:59:47Z</time>
      </trkpt>
      <trkpt lat="45.77099" lon="4.64391">
        <ele>579.4</ele>
        <time>2025-12-11T14:59:48Z</time>
      </trkpt>
      <trkpt lat="45.771" lon="4.64403">
        <ele>578.8</ele>
        <time>2025-12-11T14:59:49Z</time>
      </trkpt>
      <trkpt lat="45.77099" lon="4.64412">
        <ele>578.6</ele>
        <time>2025-12-11T14:59:50Z</time>
      </trkpt>
      <trkpt lat="45.77098" lon="4.64421">
        <ele>578.4</ele>
        <time>2025-12-11T14:59:51Z</time>
      </trkpt>
      <trkpt lat="45.77097" lon="4.64432">
        <ele>578</ele>
        <time>2025-12-11T14:59:52Z</time>
      </trkpt>
      <trkpt lat="45.77096" lon="4.64443">
        <ele>577.4</ele>
        <time>2025-12-11T14:59:53Z</time>
      </trkpt>
      <trkpt lat="45.77095" lon="4.64456">
        <ele>576.8</ele>
        <time>2025-12-11T14:59:54Z</time>
      </trkpt>
      <trkpt lat="45.77095" lon="4.64467">
        <ele>576.4</ele>
        <time>2025-12-11T14:59:55Z</time>
      </trkpt>
      <trkpt lat="45.77094" lon="4.64475">
        <ele>575.6</ele>
        <time>2025-12-11T14:59:56Z</time>
      </trkpt>
      <trkpt lat="45.77093" lon="4.64482">
        <ele>575</ele>
        <time>2025-12-11T14:59:57Z</time>
      </trkpt>
      <trkpt lat="45.7709" lon="4.64489">
        <ele>574.4</ele>
        <time>2025-12-11T14:59:58Z</time>
      </trkpt>
      <trkpt lat="45.77086" lon="4.64497">
        <ele>573.6</ele>
        <time>2025-12-11T14:59:59Z</time>
      </trkpt>
      <trkpt lat="45.77081" lon="4.64505">
        <ele>572.8</ele>
        <time>2025-12-11T15:00:00Z</time>
      </trkpt>
      <trkpt lat="45.77076" lon="4.64511">
        <ele>571.8</ele>
        <time>2025-12-11T15:00:01Z</time>
      </trkpt>
      <trkpt lat="45.77071" lon="4.64516">
        <ele>570.8</ele>
        <time>2025-12-11T15:00:02Z</time>
      </trkpt>
      <trkpt lat="45.77066" lon="4.64522">
        <ele>569.6</ele>
        <time>2025-12-11T15:00:03Z</time>
      </trkpt>
      <trkpt lat="45.77061" lon="4.64527">
        <ele>568.6</ele>
        <time>2025-12-11T15:00:04Z</time>
      </trkpt>
      <trkpt lat="45.77057" lon="4.64534">
        <ele>567.6</ele>
        <time>2025-12-11T15:00:05Z</time>
      </trkpt>
      <trkpt lat="45.77053" lon="4.6454">
        <ele>566.4</ele>
        <time>2025-12-11T15:00:06Z</time>
      </trkpt>
      <trkpt lat="45.7705" lon="4.64546">
        <ele>565.6</ele>
        <time>2025-12-11T15:00:07Z</time>
      </trkpt>
      <trkpt lat="45.77047" lon="4.64552">
        <ele>564.6</ele>
        <time>2025-12-11T15:00:08Z</time>
      </trkpt>
      <trkpt lat="45.77044" lon="4.64558">
        <ele>563.4</ele>
        <time>2025-12-11T15:00:09Z</time>
      </trkpt>
      <trkpt lat="45.7704" lon="4.64564">
        <ele>562.4</ele>
        <time>2025-12-11T15:00:10Z</time>
      </trkpt>
      <trkpt lat="45.77038" lon="4.6457">
        <ele>561.6</ele>
        <time>2025-12-11T15:00:11Z</time>
      </trkpt>
      <trkpt lat="45.77035" lon="4.64575">
        <ele>560.8</ele>
        <time>2025-12-11T15:00:12Z</time>
      </trkpt>
      <trkpt lat="45.77032" lon="4.64579">
        <ele>560.2</ele>
        <time>2025-12-11T15:00:13Z</time>
      </trkpt>
      <trkpt lat="45.7703" lon="4.64585">
        <ele>559.2</ele>
        <time>2025-12-11T15:00:14Z</time>
      </trkpt>
      <trkpt lat="45.77026" lon="4.64591">
        <ele>558.4</ele>
        <time>2025-12-11T15:00:15Z</time>
      </trkpt>
      <trkpt lat="45.77023" lon="4.64597">
        <ele>557.2</ele>
        <time>2025-12-11T15:00:16Z</time>
      </trkpt>
      <trkpt lat="45.7702" lon="4.64603">
        <ele>556.2</ele>
        <time>2025-12-11T15:00:17Z</time>
      </trkpt>
      <trkpt lat="45.77018" lon="4.64608">
        <ele>555.4</ele>
        <time>2025-12-11T15:00:18Z</time>
      </trkpt>
      <trkpt lat="45.77014" lon="4.64614">
        <ele>554.4</ele>
        <time>2025-12-11T15:00:19Z</time>
      </trkpt>
      <trkpt lat="45.77009" lon="4.6462">
        <ele>553.2</ele>
        <time>2025-12-11T15:00:20Z</time>
      </trkpt>
      <trkpt lat="45.77004" lon="4.64627">
        <ele>552.2</ele>
        <time>2025-12-11T15:00:21Z</time>
      </trkpt>
      <trkpt lat="45.77" lon="4.64634">
        <ele>551.2</ele>
        <time>2025-12-11T15:00:22Z</time>
      </trkpt>
      <trkpt lat="45.76997" lon="4.6464">
        <ele>550.4</ele>
        <time>2025-12-11T15:00:23Z</time>
      </trkpt>
      <trkpt lat="45.76995" lon="4.64643">
        <ele>549.8</ele>
        <time>2025-12-11T15:00:24Z</time>
      </trkpt>
      <trkpt lat="45.76994" lon="4.64646">
        <ele>549.4</ele>
        <time>2025-12-11T15:00:25Z</time>
      </trkpt>
      <trkpt lat="45.76993" lon="4.64648">
        <ele>549</ele>
        <time>2025-12-11T15:00:26Z</time>
      </trkpt>
      <trkpt lat="45.76992" lon="4.6465">
        <ele>548.8</ele>
        <time>2025-12-11T15:00:27Z</time>
      </trkpt>
      <trkpt lat="45.76992" lon="4.64651">
        <ele>548.6</ele>
        <time>2025-12-11T15:00:28Z</time>
      </trkpt>
      <trkpt lat="45.76991" lon="4.64652">
        <ele>548.2</ele>
        <time>2025-12-11T15:00:29Z</time>
      </trkpt>
      <trkpt lat="45.76991" lon="4.64653">
        <ele>548</ele>
        <time>2025-12-11T15:00:30Z</time>
      </trkpt>
      <trkpt lat="45.76991" lon="4.64653">
        <ele>547.8</ele>
        <time>2025-12-11T15:00:31Z</time>
      </trkpt>
      <trkpt lat="45.76991" lon="4.64653">
        <ele>547.8</ele>
        <time>2025-12-11T15:00:32Z</time>
      </trkpt>
      <trkpt lat="45.76991" lon="4.64653">
        <ele>547.6</ele>
        <time>2025-12-11T15:00:33Z</time>
      </trkpt>
      <trkpt lat="45.76991" lon="4.64653">
        <ele>547.6</ele>
        <time>2025-12-11T15:00:34Z</time>
      </trkpt>
      <trkpt lat="45.76991" lon="4.64653">
        <ele>547.6</ele>
        <time>2025-12-11T15:00:35Z</time>
      </trkpt>
      <trkpt lat="45.76991" lon="4.64653">
        <ele>547.6</ele>
        <time>2025-12-11T15:00:36Z</time>
      </trkpt>
      <trkpt lat="45.76991" lon="4.64655">
        <ele>547.4</ele>
        <time>2025-12-11T15:00:37Z</time>
      </trkpt>
      <trkpt lat="45.7699" lon="4.64659">
        <ele>547.2</ele>
        <time>2025-12-11T15:00:38Z</time>
      </trkpt>
      <trkpt lat="45.76989" lon="4.64662">
        <ele>546.8</ele>
        <time>2025-12-11T15:00:39Z</time>
      </trkpt>
      <trkpt lat="45.76988" lon="4.64663">
        <ele>546.6</ele>
        <time>2025-12-11T15:00:40Z</time>
      </trkpt>
      <trkpt lat="45.76988" lon="4.64663">
        <ele>545.8</ele>
        <time>2025-12-11T15:00:41Z</time>
      </trkpt>
      <trkpt lat="45.76988" lon="4.64663">
        <ele>545.4</ele>
        <time>2025-12-11T15:00:42Z</time>
      </trkpt>
      <trkpt lat="45.76988" lon="4.64663">
        <ele>545.4</ele>
        <time>2025-12-11T15:00:43Z</time>
      </trkpt>
      <trkpt lat="45.76988" lon="4.64663">
        <ele>545.2</ele>
        <time>2025-12-11T15:00:44Z</time>
      </trkpt>
      <trkpt lat="45.76988" lon="4.64663">
        <ele>545.4</ele>
        <time>2025-12-11T15:00:45Z</time>
      </trkpt>
      <trkpt lat="45.76988" lon="4.64663">
        <ele>545.4</ele>
        <time>2025-12-11T15:00:46Z</time>
      </trkpt>
      <trkpt lat="45.76988" lon="4.64663">
        <ele>545.4</ele>
        <time>2025-12-11T15:00:47Z</time>
      </trkpt>
      <trkpt lat="45.76989" lon="4.64664">
        <ele>545.4</ele>
        <time>2025-12-11T15:00:48Z</time>
      </trkpt>
      <trkpt lat="45.76989" lon="4.64664">
        <ele>545.4</ele>
        <time>2025-12-11T15:00:49Z</time>
      </trkpt>
      <trkpt lat="45.76989" lon="4.64664">
        <ele>545.4</ele>
        <time>2025-12-11T15:00:50Z</time>
      </trkpt>
      <trkpt lat="45.76988" lon="4.64664">
        <ele>545.4</ele>
        <time>2025-12-11T15:00:51Z</time>
      </trkpt>
      <trkpt lat="45.76988" lon="4.64666">
        <ele>545.6</ele>
        <time>2025-12-11T15:00:52Z</time>
      </trkpt>
      <trkpt lat="45.76987" lon="4.64669">
        <ele>545.6</ele>
        <time>2025-12-11T15:00:53Z</time>
      </trkpt>
      <trkpt lat="45.76986" lon="4.64671">
        <ele>545.6</ele>
        <time>2025-12-11T15:00:54Z</time>
      </trkpt>
      <trkpt lat="45.76986" lon="4.64673">
        <ele>545.4</ele>
        <time>2025-12-11T15:00:55Z</time>
      </trkpt>
      <trkpt lat="45.76985" lon="4.64675">
        <ele>545.2</ele>
        <time>2025-12-11T15:00:56Z</time>
      </trkpt>
      <trkpt lat="45.76984" lon="4.64678">
        <ele>545</ele>
        <time>2025-12-11T15:00:57Z</time>
      </trkpt>
      <trkpt lat="45.76983" lon="4.64681">
        <ele>544.6</ele>
        <time>2025-12-11T15:00:58Z</time>
      </trkpt>
      <trkpt lat="45.76981" lon="4.64685">
        <ele>544.2</ele>
        <time>2025-12-11T15:00:59Z</time>
      </trkpt>
      <trkpt lat="45.76979" lon="4.64691">
        <ele>543.8</ele>
        <time>2025-12-11T15:01:00Z</time>
      </trkpt>
      <trkpt lat="45.76977" lon="4.64697">
        <ele>543.4</ele>
        <time>2025-12-11T15:01:01Z</time>
      </trkpt>
      <trkpt lat="45.76975" lon="4.64703">
        <ele>543</ele>
        <time>2025-12-11T15:01:02Z</time>
      </trkpt>
      <trkpt lat="45.76973" lon="4.64708">
        <ele>542.4</ele>
        <time>2025-12-11T15:01:03Z</time>
      </trkpt>
      <trkpt lat="45.76971" lon="4.64714">
        <ele>542.2</ele>
        <time>2025-12-11T15:01:04Z</time>
      </trkpt>
      <trkpt lat="45.76968" lon="4.64719">
        <ele>541.8</ele>
        <time>2025-12-11T15:01:05Z</time>
      </trkpt>
      <trkpt lat="45.76965" lon="4.64725">
        <ele>541.4</ele>
        <time>2025-12-11T15:01:06Z</time>
      </trkpt>
      <trkpt lat="45.76962" lon="4.64732">
        <ele>540.8</ele>
        <time>2025-12-11T15:01:07Z</time>
      </trkpt>
      <trkpt lat="45.76959" lon="4.64737">
        <ele>540.4</ele>
        <time>2025-12-11T15:01:08Z</time>
      </trkpt>
      <trkpt lat="45.76956" lon="4.64743">
        <ele>539.6</ele>
        <time>2025-12-11T15:01:09Z</time>
      </trkpt>
      <trkpt lat="45.76953" lon="4.64748">
        <ele>539</ele>
        <time>2025-12-11T15:01:10Z</time>
      </trkpt>
      <trkpt lat="45.76952" lon="4.64752">
        <ele>538.4</ele>
        <time>2025-12-11T15:01:11Z</time>
      </trkpt>
      <trkpt lat="45.76951" lon="4.64757">
        <ele>538</ele>
        <time>2025-12-11T15:01:12Z</time>
      </trkpt>
      <trkpt lat="45.76951" lon="4.64762">
        <ele>537.4</ele>
        <time>2025-12-11T15:01:13Z</time>
      </trkpt>
      <trkpt lat="45.76951" lon="4.64769">
        <ele>537</ele>
        <time>2025-12-11T15:01:14Z</time>
      </trkpt>
      <trkpt lat="45.76952" lon="4.64776">
        <ele>536.2</ele>
        <time>2025-12-11T15:01:15Z</time>
      </trkpt>
      <trkpt lat="45.76954" lon="4.64785">
        <ele>535.4</ele>
        <time>2025-12-11T15:01:16Z</time>
      </trkpt>
      <trkpt lat="45.76956" lon="4.64794">
        <ele>534.6</ele>
        <time>2025-12-11T15:01:17Z</time>
      </trkpt>
      <trkpt lat="45.76958" lon="4.64803">
        <ele>533.6</ele>
        <time>2025-12-11T15:01:18Z</time>
      </trkpt>
      <trkpt lat="45.76961" lon="4.64811">
        <ele>532.4</ele>
        <time>2025-12-11T15:01:19Z</time>
      </trkpt>
      <trkpt lat="45.76963" lon="4.64821">
        <ele>531.4</ele>
        <time>2025-12-11T15:01:20Z</time>
      </trkpt>
      <trkpt lat="45.76965" lon="4.6483">
        <ele>530.2</ele>
        <time>2025-12-11T15:01:21Z</time>
      </trkpt>
      <trkpt lat="45.76967" lon="4.64839">
        <ele>528.8</ele>
        <time>2025-12-11T15:01:22Z</time>
      </trkpt>
      <trkpt lat="45.76969" lon="4.64848">
        <ele>527.6</ele>
        <time>2025-12-11T15:01:23Z</time>
      </trkpt>
      <trkpt lat="45.7697" lon="4.64857">
        <ele>526.2</ele>
        <time>2025-12-11T15:01:24Z</time>
      </trkpt>
      <trkpt lat="45.76971" lon="4.64865">
        <ele>525.2</ele>
        <time>2025-12-11T15:01:25Z</time>
      </trkpt>
      <trkpt lat="45.76972" lon="4.64872">
        <ele>524</ele>
        <time>2025-12-11T15:01:26Z</time>
      </trkpt>
      <trkpt lat="45.76972" lon="4.64878">
        <ele>523.2</ele>
        <time>2025-12-11T15:01:27Z</time>
      </trkpt>
      <trkpt lat="45.76973" lon="4.64883">
        <ele>522.4</ele>
        <time>2025-12-11T15:01:28Z</time>
      </trkpt>
      <trkpt lat="45.76973" lon="4.64887">
        <ele>522</ele>
        <time>2025-12-11T15:01:29Z</time>
      </trkpt>
      <trkpt lat="45.76973" lon="4.64891">
        <ele>521.4</ele>
        <time>2025-12-11T15:01:30Z</time>
      </trkpt>
      <trkpt lat="45.76973" lon="4.64893">
        <ele>521.2</ele>
        <time>2025-12-11T15:01:31Z</time>
      </trkpt>
      <trkpt lat="45.76974" lon="4.64895">
        <ele>520.8</ele>
        <time>2025-12-11T15:01:32Z</time>
      </trkpt>
      <trkpt lat="45.76974" lon="4.64896">
        <ele>520.6</ele>
        <time>2025-12-11T15:01:33Z</time>
      </trkpt>
      <trkpt lat="45.76974" lon="4.64896">
        <ele>520.4</ele>
        <time>2025-12-11T15:01:34Z</time>
      </trkpt>
      <trkpt lat="45.76974" lon="4.64896">
        <ele>520.2</ele>
        <time>2025-12-11T15:01:35Z</time>
      </trkpt>
      <trkpt lat="45.76974" lon="4.64896">
        <ele>520.2</ele>
        <time>2025-12-11T15:01:36Z</time>
      </trkpt>
      <trkpt lat="45.76975" lon="4.64897">
        <ele>520</ele>
        <time>2025-12-11T15:01:37Z</time>
      </trkpt>
      <trkpt lat="45.76976" lon="4.64899">
        <ele>520</ele>
        <time>2025-12-11T15:01:38Z</time>
      </trkpt>
      <trkpt lat="45.76978" lon="4.64903">
        <ele>519.6</ele>
        <time>2025-12-11T15:01:39Z</time>
      </trkpt>
      <trkpt lat="45.7698" lon="4.64908">
        <ele>519.2</ele>
        <time>2025-12-11T15:01:40Z</time>
      </trkpt>
      <trkpt lat="45.76982" lon="4.64916">
        <ele>518.6</ele>
        <time>2025-12-11T15:01:41Z</time>
      </trkpt>
      <trkpt lat="45.76983" lon="4.64925">
        <ele>517.8</ele>
        <time>2025-12-11T15:01:42Z</time>
      </trkpt>
      <trkpt lat="45.76985" lon="4.64935">
        <ele>516.6</ele>
        <time>2025-12-11T15:01:43Z</time>
      </trkpt>
      <trkpt lat="45.76987" lon="4.64944">
        <ele>515.6</ele>
        <time>2025-12-11T15:01:44Z</time>
      </trkpt>
      <trkpt lat="45.7699" lon="4.64953">
        <ele>514.8</ele>
        <time>2025-12-11T15:01:45Z</time>
      </trkpt>
      <trkpt lat="45.76993" lon="4.6496">
        <ele>513.8</ele>
        <time>2025-12-11T15:01:46Z</time>
      </trkpt>
      <trkpt lat="45.76996" lon="4.64968">
        <ele>513</ele>
        <time>2025-12-11T15:01:47Z</time>
      </trkpt>
      <trkpt lat="45.76999" lon="4.64974">
        <ele>512.4</ele>
        <time>2025-12-11T15:01:48Z</time>
      </trkpt>
      <trkpt lat="45.77002" lon="4.6498">
        <ele>512</ele>
        <time>2025-12-11T15:01:49Z</time>
      </trkpt>
      <trkpt lat="45.77004" lon="4.64984">
        <ele>511.4</ele>
        <time>2025-12-11T15:01:50Z</time>
      </trkpt>
      <trkpt lat="45.77005" lon="4.64988">
        <ele>511</ele>
        <time>2025-12-11T15:01:51Z</time>
      </trkpt>
      <trkpt lat="45.77004" lon="4.64991">
        <ele>510.4</ele>
        <time>2025-12-11T15:01:52Z</time>
      </trkpt>
      <trkpt lat="45.77002" lon="4.64994">
        <ele>509.8</ele>
        <time>2025-12-11T15:01:53Z</time>
      </trkpt>
      <trkpt lat="45.76998" lon="4.64996">
        <ele>509.2</ele>
        <time>2025-12-11T15:01:54Z</time>
      </trkpt>
      <trkpt lat="45.76994" lon="4.64998">
        <ele>508.8</ele>
        <time>2025-12-11T15:01:55Z</time>
      </trkpt>
      <trkpt lat="45.7699" lon="4.64999">
        <ele>508.2</ele>
        <time>2025-12-11T15:01:56Z</time>
      </trkpt>
      <trkpt lat="45.76986" lon="4.65">
        <ele>507.8</ele>
        <time>2025-12-11T15:01:57Z</time>
      </trkpt>
      <trkpt lat="45.76982" lon="4.65001">
        <ele>507.2</ele>
        <time>2025-12-11T15:01:58Z</time>
      </trkpt>
      <trkpt lat="45.76977" lon="4.65001">
        <ele>506.8</ele>
        <time>2025-12-11T15:01:59Z</time>
      </trkpt>
      <trkpt lat="45.76972" lon="4.65">
        <ele>506.2</ele>
        <time>2025-12-11T15:02:00Z</time>
      </trkpt>
      <trkpt lat="45.76966" lon="4.64998">
        <ele>505.6</ele>
        <time>2025-12-11T15:02:01Z</time>
      </trkpt>
      <trkpt lat="45.7696" lon="4.64996">
        <ele>505</ele>
        <time>2025-12-11T15:02:02Z</time>
      </trkpt>
      <trkpt lat="45.76955" lon="4.64992">
        <ele>504.4</ele>
        <time>2025-12-11T15:02:03Z</time>
      </trkpt>
      <trkpt lat="45.7695" lon="4.64988">
        <ele>503.8</ele>
        <time>2025-12-11T15:02:04Z</time>
      </trkpt>
      <trkpt lat="45.76947" lon="4.64984">
        <ele>503.4</ele>
        <time>2025-12-11T15:02:05Z</time>
      </trkpt>
      <trkpt lat="45.76943" lon="4.64981">
        <ele>503</ele>
        <time>2025-12-11T15:02:06Z</time>
      </trkpt>
      <trkpt lat="45.76939" lon="4.64979">
        <ele>502.6</ele>
        <time>2025-12-11T15:02:07Z</time>
      </trkpt>
      <trkpt lat="45.76935" lon="4.64977">
        <ele>501.8</ele>
        <time>2025-12-11T15:02:08Z</time>
      </trkpt>
      <trkpt lat="45.7693" lon="4.64975">
        <ele>501</ele>
        <time>2025-12-11T15:02:09Z</time>
      </trkpt>
      <trkpt lat="45.76924" lon="4.64972">
        <ele>499.8</ele>
        <time>2025-12-11T15:02:10Z</time>
      </trkpt>
      <trkpt lat="45.76919" lon="4.64969">
        <ele>498.6</ele>
        <time>2025-12-11T15:02:11Z</time>
      </trkpt>
      <trkpt lat="45.76913" lon="4.64968">
        <ele>497.2</ele>
        <time>2025-12-11T15:02:12Z</time>
      </trkpt>
      <trkpt lat="45.76907" lon="4.64968">
        <ele>496</ele>
        <time>2025-12-11T15:02:13Z</time>
      </trkpt>
      <trkpt lat="45.76901" lon="4.6497">
        <ele>494.6</ele>
        <time>2025-12-11T15:02:14Z</time>
      </trkpt>
      <trkpt lat="45.76895" lon="4.64971">
        <ele>493.4</ele>
        <time>2025-12-11T15:02:15Z</time>
      </trkpt>
      <trkpt lat="45.7689" lon="4.64972">
        <ele>492.4</ele>
        <time>2025-12-11T15:02:16Z</time>
      </trkpt>
      <trkpt lat="45.76885" lon="4.64975">
        <ele>491.2</ele>
        <time>2025-12-11T15:02:17Z</time>
      </trkpt>
      <trkpt lat="45.76881" lon="4.64979">
        <ele>490.2</ele>
        <time>2025-12-11T15:02:18Z</time>
      </trkpt>
      <trkpt lat="45.76877" lon="4.64985">
        <ele>489.4</ele>
        <time>2025-12-11T15:02:19Z</time>
      </trkpt>
      <trkpt lat="45.76872" lon="4.64992">
        <ele>488</ele>
        <time>2025-12-11T15:02:20Z</time>
      </trkpt>
      <trkpt lat="45.76865" lon="4.65">
        <ele>486.8</ele>
        <time>2025-12-11T15:02:21Z</time>
      </trkpt>
      <trkpt lat="45.76859" lon="4.65009">
        <ele>485.4</ele>
        <time>2025-12-11T15:02:22Z</time>
      </trkpt>
      <trkpt lat="45.76852" lon="4.65016">
        <ele>484.6</ele>
        <time>2025-12-11T15:02:23Z</time>
      </trkpt>
      <trkpt lat="45.76844" lon="4.65023">
        <ele>483.4</ele>
        <time>2025-12-11T15:02:24Z</time>
      </trkpt>
      <trkpt lat="45.76837" lon="4.65029">
        <ele>482.6</ele>
        <time>2025-12-11T15:02:25Z</time>
      </trkpt>
      <trkpt lat="45.7683" lon="4.65038">
        <ele>482.2</ele>
        <time>2025-12-11T15:02:26Z</time>
      </trkpt>
      <trkpt lat="45.76821" lon="4.65044">
        <ele>481.8</ele>
        <time>2025-12-11T15:02:27Z</time>
      </trkpt>
      <trkpt lat="45.76814" lon="4.65047">
        <ele>481.4</ele>
        <time>2025-12-11T15:02:28Z</time>
      </trkpt>
      <trkpt lat="45.76807" lon="4.65051">
        <ele>481.2</ele>
        <time>2025-12-11T15:02:29Z</time>
      </trkpt>
      <trkpt lat="45.76799" lon="4.65052">
        <ele>480.8</ele>
        <time>2025-12-11T15:02:30Z</time>
      </trkpt>
      <trkpt lat="45.76792" lon="4.65052">
        <ele>480.6</ele>
        <time>2025-12-11T15:02:31Z</time>
      </trkpt>
      <trkpt lat="45.76785" lon="4.65051">
        <ele>480.4</ele>
        <time>2025-12-11T15:02:32Z</time>
      </trkpt>
      <trkpt lat="45.76778" lon="4.6505">
        <ele>480.2</ele>
        <time>2025-12-11T15:02:33Z</time>
      </trkpt>
      <trkpt lat="45.76771" lon="4.65048">
        <ele>479.8</ele>
        <time>2025-12-11T15:02:34Z</time>
      </trkpt>
      <trkpt lat="45.76764" lon="4.65047">
        <ele>479.4</ele>
        <time>2025-12-11T15:02:35Z</time>
      </trkpt>
      <trkpt lat="45.76758" lon="4.65046">
        <ele>479.4</ele>
        <time>2025-12-11T15:02:36Z</time>
      </trkpt>
      <trkpt lat="45.76752" lon="4.65046">
        <ele>479.4</ele>
        <time>2025-12-11T15:02:37Z</time>
      </trkpt>
      <trkpt lat="45.76745" lon="4.65046">
        <ele>479.4</ele>
        <time>2025-12-11T15:02:38Z</time>
      </trkpt>
      <trkpt lat="45.76739" lon="4.65044">
        <ele>479.6</ele>
        <time>2025-12-11T15:02:39Z</time>
      </trkpt>
      <trkpt lat="45.76733" lon="4.65042">
        <ele>479.4</ele>
        <time>2025-12-11T15:02:40Z</time>
      </trkpt>
      <trkpt lat="45.76727" lon="4.6504">
        <ele>479.2</ele>
        <time>2025-12-11T15:02:41Z</time>
      </trkpt>
      <trkpt lat="45.76722" lon="4.65041">
        <ele>479</ele>
        <time>2025-12-11T15:02:42Z</time>
      </trkpt>
      <trkpt lat="45.76717" lon="4.65043">
        <ele>479</ele>
        <time>2025-12-11T15:02:43Z</time>
      </trkpt>
      <trkpt lat="45.76714" lon="4.65047">
        <ele>478.8</ele>
        <time>2025-12-11T15:02:44Z</time>
      </trkpt>
      <trkpt lat="45.76712" lon="4.65051">
        <ele>479</ele>
        <time>2025-12-11T15:02:45Z</time>
      </trkpt>
      <trkpt lat="45.7671" lon="4.65056">
        <ele>479.2</ele>
        <time>2025-12-11T15:02:46Z</time>
      </trkpt>
      <trkpt lat="45.7671" lon="4.6506">
        <ele>479.6</ele>
        <time>2025-12-11T15:02:47Z</time>
      </trkpt>
      <trkpt lat="45.76709" lon="4.65063">
        <ele>480</ele>
        <time>2025-12-11T15:02:48Z</time>
      </trkpt>
      <trkpt lat="45.76709" lon="4.65065">
        <ele>480.4</ele>
        <time>2025-12-11T15:02:49Z</time>
      </trkpt>
      <trkpt lat="45.76709" lon="4.65067">
        <ele>480.8</ele>
        <time>2025-12-11T15:02:50Z</time>
      </trkpt>
      <trkpt lat="45.76709" lon="4.6507">
        <ele>481.2</ele>
        <time>2025-12-11T15:02:51Z</time>
      </trkpt>
      <trkpt lat="45.76709" lon="4.65071">
        <ele>481.4</ele>
        <time>2025-12-11T15:02:52Z</time>
      </trkpt>
      <trkpt lat="45.76709" lon="4.65074">
        <ele>481.6</ele>
        <time>2025-12-11T15:02:53Z</time>
      </trkpt>
      <trkpt lat="45.76709" lon="4.65077">
        <ele>481.6</ele>
        <time>2025-12-11T15:02:54Z</time>
      </trkpt>
      <trkpt lat="45.76708" lon="4.6508">
        <ele>481.8</ele>
        <time>2025-12-11T15:02:55Z</time>
      </trkpt>
      <trkpt lat="45.76708" lon="4.65083">
        <ele>482</ele>
        <time>2025-12-11T15:02:56Z</time>
      </trkpt>
      <trkpt lat="45.76707" lon="4.65086">
        <ele>482.2</ele>
        <time>2025-12-11T15:02:57Z</time>
      </trkpt>
      <trkpt lat="45.76706" lon="4.65089">
        <ele>482.6</ele>
        <time>2025-12-11T15:02:58Z</time>
      </trkpt>
      <trkpt lat="45.76704" lon="4.65093">
        <ele>482.8</ele>
        <time>2025-12-11T15:02:59Z</time>
      </trkpt>
      <trkpt lat="45.76703" lon="4.65096">
        <ele>483.2</ele>
        <time>2025-12-11T15:03:00Z</time>
      </trkpt>
      <trkpt lat="45.76702" lon="4.65099">
        <ele>483.6</ele>
        <time>2025-12-11T15:03:01Z</time>
      </trkpt>
      <trkpt lat="45.76701" lon="4.65103">
        <ele>483.8</ele>
        <time>2025-12-11T15:03:02Z</time>
      </trkpt>
      <trkpt lat="45.767" lon="4.65107">
        <ele>484.2</ele>
        <time>2025-12-11T15:03:03Z</time>
      </trkpt>
      <trkpt lat="45.76698" lon="4.65111">
        <ele>484.4</ele>
        <time>2025-12-11T15:03:04Z</time>
      </trkpt>
      <trkpt lat="45.76697" lon="4.65116">
        <ele>484.4</ele>
        <time>2025-12-11T15:03:05Z</time>
      </trkpt>
      <trkpt lat="45.76695" lon="4.65119">
        <ele>484.4</ele>
        <time>2025-12-11T15:03:06Z</time>
      </trkpt>
      <trkpt lat="45.76693" lon="4.65124">
        <ele>484.4</ele>
        <time>2025-12-11T15:03:07Z</time>
      </trkpt>
      <trkpt lat="45.76691" lon="4.65129">
        <ele>484.2</ele>
        <time>2025-12-11T15:03:08Z</time>
      </trkpt>
      <trkpt lat="45.76689" lon="4.65133">
        <ele>484</ele>
        <time>2025-12-11T15:03:09Z</time>
      </trkpt>
      <trkpt lat="45.76687" lon="4.65138">
        <ele>483.8</ele>
        <time>2025-12-11T15:03:10Z</time>
      </trkpt>
      <trkpt lat="45.76685" lon="4.65144">
        <ele>483.6</ele>
        <time>2025-12-11T15:03:11Z</time>
      </trkpt>
      <trkpt lat="45.76682" lon="4.6515">
        <ele>483.2</ele>
        <time>2025-12-11T15:03:12Z</time>
      </trkpt>
      <trkpt lat="45.7668" lon="4.65156">
        <ele>483</ele>
        <time>2025-12-11T15:03:13Z</time>
      </trkpt>
      <trkpt lat="45.76676" lon="4.6516">
        <ele>482.6</ele>
        <time>2025-12-11T15:03:14Z</time>
      </trkpt>
      <trkpt lat="45.76673" lon="4.65162">
        <ele>482.4</ele>
        <time>2025-12-11T15:03:15Z</time>
      </trkpt>
      <trkpt lat="45.7667" lon="4.65161">
        <ele>482.2</ele>
        <time>2025-12-11T15:03:16Z</time>
      </trkpt>
      <trkpt lat="45.76669" lon="4.65158">
        <ele>482.2</ele>
        <time>2025-12-11T15:03:17Z</time>
      </trkpt>
      <trkpt lat="45.76668" lon="4.65154">
        <ele>482.2</ele>
        <time>2025-12-11T15:03:18Z</time>
      </trkpt>
      <trkpt lat="45.76667" lon="4.65149">
        <ele>482.4</ele>
        <time>2025-12-11T15:03:19Z</time>
      </trkpt>
      <trkpt lat="45.76667" lon="4.65144">
        <ele>482.4</ele>
        <time>2025-12-11T15:03:20Z</time>
      </trkpt>
      <trkpt lat="45.76666" lon="4.6514">
        <ele>482.6</ele>
        <time>2025-12-11T15:03:21Z</time>
      </trkpt>
      <trkpt lat="45.76666" lon="4.65135">
        <ele>482.8</ele>
        <time>2025-12-11T15:03:22Z</time>
      </trkpt>
      <trkpt lat="45.76665" lon="4.6513">
        <ele>482.8</ele>
        <time>2025-12-11T15:03:23Z</time>
      </trkpt>
      <trkpt lat="45.76665" lon="4.65126">
        <ele>483.2</ele>
        <time>2025-12-11T15:03:24Z</time>
      </trkpt>
      <trkpt lat="45.76664" lon="4.65121">
        <ele>483.4</ele>
        <time>2025-12-11T15:03:25Z</time>
      </trkpt>
      <trkpt lat="45.76664" lon="4.65117">
        <ele>483.6</ele>
        <time>2025-12-11T15:03:26Z</time>
      </trkpt>
      <trkpt lat="45.76662" lon="4.65114">
        <ele>483.8</ele>
        <time>2025-12-11T15:03:27Z</time>
      </trkpt>
      <trkpt lat="45.76661" lon="4.65112">
        <ele>484</ele>
        <time>2025-12-11T15:03:28Z</time>
      </trkpt>
      <trkpt lat="45.76659" lon="4.65111">
        <ele>484</ele>
        <time>2025-12-11T15:03:29Z</time>
      </trkpt>
      <trkpt lat="45.76657" lon="4.6511">
        <ele>484.2</ele>
        <time>2025-12-11T15:03:30Z</time>
      </trkpt>
      <trkpt lat="45.76654" lon="4.6511">
        <ele>484.2</ele>
        <time>2025-12-11T15:03:31Z</time>
      </trkpt>
      <trkpt lat="45.76651" lon="4.65111">
        <ele>484</ele>
        <time>2025-12-11T15:03:32Z</time>
      </trkpt>
      <trkpt lat="45.76647" lon="4.65112">
        <ele>483.8</ele>
        <time>2025-12-11T15:03:33Z</time>
      </trkpt>
      <trkpt lat="45.76643" lon="4.65112">
        <ele>483.4</ele>
        <time>2025-12-11T15:03:34Z</time>
      </trkpt>
      <trkpt lat="45.76639" lon="4.65113">
        <ele>482.8</ele>
        <time>2025-12-11T15:03:35Z</time>
      </trkpt>
      <trkpt lat="45.76634" lon="4.65114">
        <ele>482</ele>
        <time>2025-12-11T15:03:36Z</time>
      </trkpt>
      <trkpt lat="45.76628" lon="4.65115">
        <ele>481.2</ele>
        <time>2025-12-11T15:03:37Z</time>
      </trkpt>
      <trkpt lat="45.76623" lon="4.65115">
        <ele>480.2</ele>
        <time>2025-12-11T15:03:38Z</time>
      </trkpt>
      <trkpt lat="45.76617" lon="4.65115">
        <ele>479.2</ele>
        <time>2025-12-11T15:03:39Z</time>
      </trkpt>
      <trkpt lat="45.7661" lon="4.65115">
        <ele>478</ele>
        <time>2025-12-11T15:03:40Z</time>
      </trkpt>
      <trkpt lat="45.76604" lon="4.65115">
        <ele>477</ele>
        <time>2025-12-11T15:03:41Z</time>
      </trkpt>
      <trkpt lat="45.76597" lon="4.65116">
        <ele>475.8</ele>
        <time>2025-12-11T15:03:42Z</time>
      </trkpt>
      <trkpt lat="45.7659" lon="4.65118">
        <ele>474.4</ele>
        <time>2025-12-11T15:03:43Z</time>
      </trkpt>
      <trkpt lat="45.76581" lon="4.65121">
        <ele>472.6</ele>
        <time>2025-12-11T15:03:44Z</time>
      </trkpt>
      <trkpt lat="45.76571" lon="4.65125">
        <ele>470.4</ele>
        <time>2025-12-11T15:03:45Z</time>
      </trkpt>
      <trkpt lat="45.76561" lon="4.65131">
        <ele>468</ele>
        <time>2025-12-11T15:03:46Z</time>
      </trkpt>
      <trkpt lat="45.7655" lon="4.65137">
        <ele>465.2</ele>
        <time>2025-12-11T15:03:47Z</time>
      </trkpt>
      <trkpt lat="45.76538" lon="4.65143">
        <ele>462.6</ele>
        <time>2025-12-11T15:03:48Z</time>
      </trkpt>
      <trkpt lat="45.76526" lon="4.65149">
        <ele>460</ele>
        <time>2025-12-11T15:03:49Z</time>
      </trkpt>
      <trkpt lat="45.76513" lon="4.65155">
        <ele>457.2</ele>
        <time>2025-12-11T15:03:50Z</time>
      </trkpt>
      <trkpt lat="45.765" lon="4.6516">
        <ele>454.6</ele>
        <time>2025-12-11T15:03:51Z</time>
      </trkpt>
      <trkpt lat="45.76486" lon="4.65167">
        <ele>451.8</ele>
        <time>2025-12-11T15:03:52Z</time>
      </trkpt>
      <trkpt lat="45.76472" lon="4.65173">
        <ele>448.8</ele>
        <time>2025-12-11T15:03:53Z</time>
      </trkpt>
      <trkpt lat="45.76458" lon="4.6518">
        <ele>446</ele>
        <time>2025-12-11T15:03:54Z</time>
      </trkpt>
      <trkpt lat="45.76444" lon="4.65187">
        <ele>443.6</ele>
        <time>2025-12-11T15:03:55Z</time>
      </trkpt>
      <trkpt lat="45.76432" lon="4.65193">
        <ele>441.6</ele>
        <time>2025-12-11T15:03:56Z</time>
      </trkpt>
      <trkpt lat="45.76422" lon="4.65198">
        <ele>440</ele>
        <time>2025-12-11T15:03:57Z</time>
      </trkpt>
      <trkpt lat="45.76412" lon="4.65202">
        <ele>439</ele>
        <time>2025-12-11T15:03:58Z</time>
      </trkpt>
      <trkpt lat="45.76404" lon="4.65206">
        <ele>438.2</ele>
        <time>2025-12-11T15:03:59Z</time>
      </trkpt>
      <trkpt lat="45.76395" lon="4.6521">
        <ele>437</ele>
        <time>2025-12-11T15:04:00Z</time>
      </trkpt>
      <trkpt lat="45.76386" lon="4.65215">
        <ele>435.8</ele>
        <time>2025-12-11T15:04:01Z</time>
      </trkpt>
      <trkpt lat="45.76376" lon="4.6522">
        <ele>434.4</ele>
        <time>2025-12-11T15:04:02Z</time>
      </trkpt>
      <trkpt lat="45.76367" lon="4.65228">
        <ele>432.6</ele>
        <time>2025-12-11T15:04:03Z</time>
      </trkpt>
      <trkpt lat="45.76358" lon="4.65236">
        <ele>431.4</ele>
        <time>2025-12-11T15:04:04Z</time>
      </trkpt>
      <trkpt lat="45.7635" lon="4.65246">
        <ele>430</ele>
        <time>2025-12-11T15:04:05Z</time>
      </trkpt>
      <trkpt lat="45.76341" lon="4.65256">
        <ele>428.8</ele>
        <time>2025-12-11T15:04:06Z</time>
      </trkpt>
      <trkpt lat="45.76334" lon="4.65267">
        <ele>427.6</ele>
        <time>2025-12-11T15:04:07Z</time>
      </trkpt>
      <trkpt lat="45.76327" lon="4.65279">
        <ele>426.8</ele>
        <time>2025-12-11T15:04:08Z</time>
      </trkpt>
      <trkpt lat="45.76321" lon="4.65291">
        <ele>426.2</ele>
        <time>2025-12-11T15:04:09Z</time>
      </trkpt>
      <trkpt lat="45.76315" lon="4.65303">
        <ele>425.6</ele>
        <time>2025-12-11T15:04:10Z</time>
      </trkpt>
      <trkpt lat="45.7631" lon="4.65315">
        <ele>425.4</ele>
        <time>2025-12-11T15:04:11Z</time>
      </trkpt>
      <trkpt lat="45.76304" lon="4.65326">
        <ele>425.2</ele>
        <time>2025-12-11T15:04:12Z</time>
      </trkpt>
      <trkpt lat="45.76298" lon="4.65336">
        <ele>425.2</ele>
        <time>2025-12-11T15:04:13Z</time>
      </trkpt>
      <trkpt lat="45.76292" lon="4.65345">
        <ele>425.4</ele>
        <time>2025-12-11T15:04:14Z</time>
      </trkpt>
      <trkpt lat="45.76287" lon="4.65353">
        <ele>425.6</ele>
        <time>2025-12-11T15:04:15Z</time>
      </trkpt>
      <trkpt lat="45.76282" lon="4.65361">
        <ele>426</ele>
        <time>2025-12-11T15:04:16Z</time>
      </trkpt>
      <trkpt lat="45.76277" lon="4.65368">
        <ele>426.4</ele>
        <time>2025-12-11T15:04:17Z</time>
      </trkpt>
      <trkpt lat="45.76272" lon="4.65375">
        <ele>426.8</ele>
        <time>2025-12-11T15:04:18Z</time>
      </trkpt>
      <trkpt lat="45.76268" lon="4.65383">
        <ele>427.4</ele>
        <time>2025-12-11T15:04:19Z</time>
      </trkpt>
      <trkpt lat="45.76265" lon="4.6539">
        <ele>427.8</ele>
        <time>2025-12-11T15:04:20Z</time>
      </trkpt>
      <trkpt lat="45.76262" lon="4.65397">
        <ele>428.4</ele>
        <time>2025-12-11T15:04:21Z</time>
      </trkpt>
      <trkpt lat="45.76259" lon="4.65404">
        <ele>429</ele>
        <time>2025-12-11T15:04:22Z</time>
      </trkpt>
      <trkpt lat="45.76257" lon="4.6541">
        <ele>429.4</ele>
        <time>2025-12-11T15:04:23Z</time>
      </trkpt>
      <trkpt lat="45.76254" lon="4.65415">
        <ele>430</ele>
        <time>2025-12-11T15:04:24Z</time>
      </trkpt>
      <trkpt lat="45.76252" lon="4.65419">
        <ele>430.4</ele>
        <time>2025-12-11T15:04:25Z</time>
      </trkpt>
      <trkpt lat="45.76249" lon="4.65422">
        <ele>430.8</ele>
        <time>2025-12-11T15:04:26Z</time>
      </trkpt>
      <trkpt lat="45.76247" lon="4.65423">
        <ele>431</ele>
        <time>2025-12-11T15:04:27Z</time>
      </trkpt>
      <trkpt lat="45.76244" lon="4.65424">
        <ele>431.2</ele>
        <time>2025-12-11T15:04:28Z</time>
      </trkpt>
      <trkpt lat="45.76241" lon="4.65425">
        <ele>431.2</ele>
        <time>2025-12-11T15:04:29Z</time>
      </trkpt>
      <trkpt lat="45.76237" lon="4.65426">
        <ele>431</ele>
        <time>2025-12-11T15:04:30Z</time>
      </trkpt>
      <trkpt lat="45.76233" lon="4.65427">
        <ele>430.6</ele>
        <time>2025-12-11T15:04:31Z</time>
      </trkpt>
      <trkpt lat="45.76227" lon="4.65428">
        <ele>430</ele>
        <time>2025-12-11T15:04:32Z</time>
      </trkpt>
      <trkpt lat="45.76221" lon="4.6543">
        <ele>429.4</ele>
        <time>2025-12-11T15:04:33Z</time>
      </trkpt>
      <trkpt lat="45.76215" lon="4.65432">
        <ele>428.6</ele>
        <time>2025-12-11T15:04:34Z</time>
      </trkpt>
      <trkpt lat="45.76208" lon="4.65436">
        <ele>427.8</ele>
        <time>2025-12-11T15:04:35Z</time>
      </trkpt>
      <trkpt lat="45.76201" lon="4.6544">
        <ele>426.8</ele>
        <time>2025-12-11T15:04:36Z</time>
      </trkpt>
      <trkpt lat="45.76194" lon="4.65444">
        <ele>426</ele>
        <time>2025-12-11T15:04:37Z</time>
      </trkpt>
      <trkpt lat="45.76186" lon="4.6545">
        <ele>425.2</ele>
        <time>2025-12-11T15:04:38Z</time>
      </trkpt>
      <trkpt lat="45.76179" lon="4.65456">
        <ele>424.4</ele>
        <time>2025-12-11T15:04:39Z</time>
      </trkpt>
      <trkpt lat="45.76173" lon="4.65463">
        <ele>424</ele>
        <time>2025-12-11T15:04:40Z</time>
      </trkpt>
      <trkpt lat="45.76167" lon="4.65472">
        <ele>423.6</ele>
        <time>2025-12-11T15:04:41Z</time>
      </trkpt>
      <trkpt lat="45.76162" lon="4.65481">
        <ele>423.2</ele>
        <time>2025-12-11T15:04:42Z</time>
      </trkpt>
      <trkpt lat="45.76159" lon="4.6549">
        <ele>423</ele>
        <time>2025-12-11T15:04:43Z</time>
      </trkpt>
      <trkpt lat="45.76155" lon="4.65498">
        <ele>423</ele>
        <time>2025-12-11T15:04:44Z</time>
      </trkpt>
      <trkpt lat="45.76151" lon="4.65503">
        <ele>423</ele>
        <time>2025-12-11T15:04:45Z</time>
      </trkpt>
      <trkpt lat="45.76146" lon="4.65503">
        <ele>422.8</ele>
        <time>2025-12-11T15:04:46Z</time>
      </trkpt>
      <trkpt lat="45.76142" lon="4.655">
        <ele>422.4</ele>
        <time>2025-12-11T15:04:47Z</time>
      </trkpt>
      <trkpt lat="45.76137" lon="4.65496">
        <ele>422</ele>
        <time>2025-12-11T15:04:48Z</time>
      </trkpt>
      <trkpt lat="45.76132" lon="4.65491">
        <ele>421.2</ele>
        <time>2025-12-11T15:04:49Z</time>
      </trkpt>
      <trkpt lat="45.76128" lon="4.65486">
        <ele>420.8</ele>
        <time>2025-12-11T15:04:50Z</time>
      </trkpt>
      <trkpt lat="45.76124" lon="4.65482">
        <ele>419.8</ele>
        <time>2025-12-11T15:04:51Z</time>
      </trkpt>
      <trkpt lat="45.76119" lon="4.65477">
        <ele>419</ele>
        <time>2025-12-11T15:04:52Z</time>
      </trkpt>
      <trkpt lat="45.76114" lon="4.65472">
        <ele>418</ele>
        <time>2025-12-11T15:04:53Z</time>
      </trkpt>
      <trkpt lat="45.76109" lon="4.65467">
        <ele>417</ele>
        <time>2025-12-11T15:04:54Z</time>
      </trkpt>
      <trkpt lat="45.76103" lon="4.65461">
        <ele>416.4</ele>
        <time>2025-12-11T15:04:55Z</time>
      </trkpt>
      <trkpt lat="45.76097" lon="4.65455">
        <ele>415.2</ele>
        <time>2025-12-11T15:04:56Z</time>
      </trkpt>
      <trkpt lat="45.76091" lon="4.65448">
        <ele>414</ele>
        <time>2025-12-11T15:04:57Z</time>
      </trkpt>
      <trkpt lat="45.76084" lon="4.65442">
        <ele>412.8</ele>
        <time>2025-12-11T15:04:58Z</time>
      </trkpt>
      <trkpt lat="45.76078" lon="4.65436">
        <ele>411.6</ele>
        <time>2025-12-11T15:04:59Z</time>
      </trkpt>
      <trkpt lat="45.76072" lon="4.6543">
        <ele>410.4</ele>
        <time>2025-12-11T15:05:00Z</time>
      </trkpt>
      <trkpt lat="45.76067" lon="4.65426">
        <ele>409.6</ele>
        <time>2025-12-11T15:05:01Z</time>
      </trkpt>
      <trkpt lat="45.76062" lon="4.65424">
        <ele>409</ele>
        <time>2025-12-11T15:05:02Z</time>
      </trkpt>
      <trkpt lat="45.76057" lon="4.65425">
        <ele>408.8</ele>
        <time>2025-12-11T15:05:03Z</time>
      </trkpt>
      <trkpt lat="45.76052" lon="4.65427">
        <ele>408.6</ele>
        <time>2025-12-11T15:05:04Z</time>
      </trkpt>
      <trkpt lat="45.76049" lon="4.65431">
        <ele>408.8</ele>
        <time>2025-12-11T15:05:05Z</time>
      </trkpt>
      <trkpt lat="45.76047" lon="4.65435">
        <ele>408.8</ele>
        <time>2025-12-11T15:05:06Z</time>
      </trkpt>
      <trkpt lat="45.76045" lon="4.65439">
        <ele>409</ele>
        <time>2025-12-11T15:05:07Z</time>
      </trkpt>
      <trkpt lat="45.76044" lon="4.65443">
        <ele>409.2</ele>
        <time>2025-12-11T15:05:08Z</time>
      </trkpt>
      <trkpt lat="45.76043" lon="4.65447">
        <ele>409.4</ele>
        <time>2025-12-11T15:05:09Z</time>
      </trkpt>
      <trkpt lat="45.76042" lon="4.65451">
        <ele>409.6</ele>
        <time>2025-12-11T15:05:10Z</time>
      </trkpt>
      <trkpt lat="45.76041" lon="4.65456">
        <ele>409.8</ele>
        <time>2025-12-11T15:05:11Z</time>
      </trkpt>
      <trkpt lat="45.76041" lon="4.6546">
        <ele>410.2</ele>
        <time>2025-12-11T15:05:12Z</time>
      </trkpt>
      <trkpt lat="45.76042" lon="4.65463">
        <ele>410.4</ele>
        <time>2025-12-11T15:05:13Z</time>
      </trkpt>
      <trkpt lat="45.76041" lon="4.65467">
        <ele>410.6</ele>
        <time>2025-12-11T15:05:14Z</time>
      </trkpt>
      <trkpt lat="45.7604" lon="4.65471">
        <ele>410.8</ele>
        <time>2025-12-11T15:05:15Z</time>
      </trkpt>
      <trkpt lat="45.7604" lon="4.65475">
        <ele>411</ele>
        <time>2025-12-11T15:05:16Z</time>
      </trkpt>
      <trkpt lat="45.7604" lon="4.6548">
        <ele>411.2</ele>
        <time>2025-12-11T15:05:17Z</time>
      </trkpt>
      <trkpt lat="45.7604" lon="4.65484">
        <ele>411.2</ele>
        <time>2025-12-11T15:05:18Z</time>
      </trkpt>
      <trkpt lat="45.7604" lon="4.65489">
        <ele>411.2</ele>
        <time>2025-12-11T15:05:19Z</time>
      </trkpt>
      <trkpt lat="45.76039" lon="4.65494">
        <ele>411.4</ele>
        <time>2025-12-11T15:05:20Z</time>
      </trkpt>
      <trkpt lat="45.76039" lon="4.65498">
        <ele>411.4</ele>
        <time>2025-12-11T15:05:21Z</time>
      </trkpt>
      <trkpt lat="45.76039" lon="4.65503">
        <ele>411.4</ele>
        <time>2025-12-11T15:05:22Z</time>
      </trkpt>
      <trkpt lat="45.76038" lon="4.65508">
        <ele>411.6</ele>
        <time>2025-12-11T15:05:23Z</time>
      </trkpt>
      <trkpt lat="45.76038" lon="4.65512">
        <ele>411.6</ele>
        <time>2025-12-11T15:05:24Z</time>
      </trkpt>
      <trkpt lat="45.76037" lon="4.65516">
        <ele>411.6</ele>
        <time>2025-12-11T15:05:25Z</time>
      </trkpt>
      <trkpt lat="45.76037" lon="4.6552">
        <ele>411.6</ele>
        <time>2025-12-11T15:05:26Z</time>
      </trkpt>
      <trkpt lat="45.76036" lon="4.65524">
        <ele>411.6</ele>
        <time>2025-12-11T15:05:27Z</time>
      </trkpt>
      <trkpt lat="45.76035" lon="4.65528">
        <ele>411.6</ele>
        <time>2025-12-11T15:05:28Z</time>
      </trkpt>
      <trkpt lat="45.76035" lon="4.65533">
        <ele>411.8</ele>
        <time>2025-12-11T15:05:29Z</time>
      </trkpt>
      <trkpt lat="45.76034" lon="4.65538">
        <ele>411.8</ele>
        <time>2025-12-11T15:05:30Z</time>
      </trkpt>
      <trkpt lat="45.76034" lon="4.65542">
        <ele>412</ele>
        <time>2025-12-11T15:05:31Z</time>
      </trkpt>
      <trkpt lat="45.76033" lon="4.65547">
        <ele>412</ele>
        <time>2025-12-11T15:05:32Z</time>
      </trkpt>
      <trkpt lat="45.76032" lon="4.65552">
        <ele>412.2</ele>
        <time>2025-12-11T15:05:33Z</time>
      </trkpt>
      <trkpt lat="45.76031" lon="4.65557">
        <ele>412.2</ele>
        <time>2025-12-11T15:05:34Z</time>
      </trkpt>
      <trkpt lat="45.7603" lon="4.65562">
        <ele>412.2</ele>
        <time>2025-12-11T15:05:35Z</time>
      </trkpt>
      <trkpt lat="45.76029" lon="4.65567">
        <ele>412.4</ele>
        <time>2025-12-11T15:05:36Z</time>
      </trkpt>
      <trkpt lat="45.76028" lon="4.65572">
        <ele>412.4</ele>
        <time>2025-12-11T15:05:37Z</time>
      </trkpt>
      <trkpt lat="45.76027" lon="4.65576">
        <ele>412.6</ele>
        <time>2025-12-11T15:05:38Z</time>
      </trkpt>
      <trkpt lat="45.76026" lon="4.6558">
        <ele>412.6</ele>
        <time>2025-12-11T15:05:39Z</time>
      </trkpt>
      <trkpt lat="45.76024" lon="4.65584">
        <ele>412.6</ele>
        <time>2025-12-11T15:05:40Z</time>
      </trkpt>
      <trkpt lat="45.76023" lon="4.65588">
        <ele>412.8</ele>
        <time>2025-12-11T15:05:41Z</time>
      </trkpt>
      <trkpt lat="45.76022" lon="4.65592">
        <ele>412.8</ele>
        <time>2025-12-11T15:05:42Z</time>
      </trkpt>
      <trkpt lat="45.76022" lon="4.65595">
        <ele>412.8</ele>
        <time>2025-12-11T15:05:43Z</time>
      </trkpt>
      <trkpt lat="45.76021" lon="4.65599">
        <ele>413</ele>
        <time>2025-12-11T15:05:44Z</time>
      </trkpt>
      <trkpt lat="45.7602" lon="4.65603">
        <ele>413</ele>
        <time>2025-12-11T15:05:45Z</time>
      </trkpt>
      <trkpt lat="45.7602" lon="4.65606">
        <ele>413</ele>
        <time>2025-12-11T15:05:46Z</time>
      </trkpt>
      <trkpt lat="45.76019" lon="4.6561">
        <ele>413</ele>
        <time>2025-12-11T15:05:47Z</time>
      </trkpt>
      <trkpt lat="45.76018" lon="4.65614">
        <ele>413</ele>
        <time>2025-12-11T15:05:48Z</time>
      </trkpt>
      <trkpt lat="45.76016" lon="4.65619">
        <ele>413</ele>
        <time>2025-12-11T15:05:49Z</time>
      </trkpt>
      <trkpt lat="45.76014" lon="4.65623">
        <ele>413</ele>
        <time>2025-12-11T15:05:50Z</time>
      </trkpt>
      <trkpt lat="45.76013" lon="4.65628">
        <ele>413</ele>
        <time>2025-12-11T15:05:51Z</time>
      </trkpt>
      <trkpt lat="45.76012" lon="4.65632">
        <ele>413</ele>
        <time>2025-12-11T15:05:52Z</time>
      </trkpt>
      <trkpt lat="45.76011" lon="4.65636">
        <ele>413</ele>
        <time>2025-12-11T15:05:53Z</time>
      </trkpt>
      <trkpt lat="45.7601" lon="4.65641">
        <ele>413</ele>
        <time>2025-12-11T15:05:54Z</time>
      </trkpt>
      <trkpt lat="45.76009" lon="4.65645">
        <ele>413</ele>
        <time>2025-12-11T15:05:55Z</time>
      </trkpt>
      <trkpt lat="45.76007" lon="4.65649">
        <ele>413.2</ele>
        <time>2025-12-11T15:05:56Z</time>
      </trkpt>
      <trkpt lat="45.76006" lon="4.65653">
        <ele>413</ele>
        <time>2025-12-11T15:05:57Z</time>
      </trkpt>
      <trkpt lat="45.76004" lon="4.65657">
        <ele>413</ele>
        <time>2025-12-11T15:05:58Z</time>
      </trkpt>
      <trkpt lat="45.76002" lon="4.65661">
        <ele>413</ele>
        <time>2025-12-11T15:05:59Z</time>
      </trkpt>
      <trkpt lat="45.76" lon="4.65665">
        <ele>413</ele>
        <time>2025-12-11T15:06:00Z</time>
      </trkpt>
      <trkpt lat="45.75998" lon="4.65669">
        <ele>413</ele>
        <time>2025-12-11T15:06:01Z</time>
      </trkpt>
      <trkpt lat="45.75996" lon="4.65672">
        <ele>413</ele>
        <time>2025-12-11T15:06:02Z</time>
      </trkpt>
      <trkpt lat="45.75994" lon="4.65676">
        <ele>413</ele>
        <time>2025-12-11T15:06:03Z</time>
      </trkpt>
      <trkpt lat="45.75991" lon="4.6568">
        <ele>413</ele>
        <time>2025-12-11T15:06:04Z</time>
      </trkpt>
      <trkpt lat="45.75989" lon="4.65684">
        <ele>413</ele>
        <time>2025-12-11T15:06:05Z</time>
      </trkpt>
      <trkpt lat="45.75987" lon="4.65688">
        <ele>413</ele>
        <time>2025-12-11T15:06:06Z</time>
      </trkpt>
      <trkpt lat="45.75984" lon="4.65692">
        <ele>413</ele>
        <time>2025-12-11T15:06:07Z</time>
      </trkpt>
      <trkpt lat="45.75981" lon="4.65695">
        <ele>413</ele>
        <time>2025-12-11T15:06:08Z</time>
      </trkpt>
      <trkpt lat="45.75978" lon="4.65699">
        <ele>413</ele>
        <time>2025-12-11T15:06:09Z</time>
      </trkpt>
      <trkpt lat="45.75975" lon="4.65702">
        <ele>413</ele>
        <time>2025-12-11T15:06:10Z</time>
      </trkpt>
      <trkpt lat="45.75972" lon="4.65706">
        <ele>413</ele>
        <time>2025-12-11T15:06:11Z</time>
      </trkpt>
      <trkpt lat="45.75969" lon="4.6571">
        <ele>413</ele>
        <time>2025-12-11T15:06:12Z</time>
      </trkpt>
      <trkpt lat="45.75966" lon="4.65713">
        <ele>413</ele>
        <time>2025-12-11T15:06:13Z</time>
      </trkpt>
      <trkpt lat="45.75963" lon="4.65717">
        <ele>413</ele>
        <time>2025-12-11T15:06:14Z</time>
      </trkpt>
      <trkpt lat="45.75959" lon="4.65721">
        <ele>413</ele>
        <time>2025-12-11T15:06:15Z</time>
      </trkpt>
      <trkpt lat="45.75955" lon="4.65724">
        <ele>412.8</ele>
        <time>2025-12-11T15:06:16Z</time>
      </trkpt>
      <trkpt lat="45.75952" lon="4.65728">
        <ele>412.6</ele>
        <time>2025-12-11T15:06:17Z</time>
      </trkpt>
      <trkpt lat="45.75948" lon="4.65731">
        <ele>412.6</ele>
        <time>2025-12-11T15:06:18Z</time>
      </trkpt>
      <trkpt lat="45.75944" lon="4.65733">
        <ele>412.4</ele>
        <time>2025-12-11T15:06:19Z</time>
      </trkpt>
      <trkpt lat="45.75941" lon="4.65736">
        <ele>412.4</ele>
        <time>2025-12-11T15:06:20Z</time>
      </trkpt>
      <trkpt lat="45.75938" lon="4.65737">
        <ele>412.2</ele>
        <time>2025-12-11T15:06:21Z</time>
      </trkpt>
      <trkpt lat="45.75934" lon="4.65739">
        <ele>412.2</ele>
        <time>2025-12-11T15:06:22Z</time>
      </trkpt>
      <trkpt lat="45.7593" lon="4.65741">
        <ele>412</ele>
        <time>2025-12-11T15:06:23Z</time>
      </trkpt>
      <trkpt lat="45.75926" lon="4.65743">
        <ele>412</ele>
        <time>2025-12-11T15:06:24Z</time>
      </trkpt>
      <trkpt lat="45.75922" lon="4.65744">
        <ele>411.8</ele>
        <time>2025-12-11T15:06:25Z</time>
      </trkpt>
      <trkpt lat="45.75918" lon="4.65745">
        <ele>411.8</ele>
        <time>2025-12-11T15:06:26Z</time>
      </trkpt>
      <trkpt lat="45.75914" lon="4.65746">
        <ele>411.8</ele>
        <time>2025-12-11T15:06:27Z</time>
      </trkpt>
      <trkpt lat="45.7591" lon="4.65747">
        <ele>411.6</ele>
        <time>2025-12-11T15:06:28Z</time>
      </trkpt>
      <trkpt lat="45.75906" lon="4.65748">
        <ele>411.4</ele>
        <time>2025-12-11T15:06:29Z</time>
      </trkpt>
      <trkpt lat="45.75901" lon="4.65749">
        <ele>411.2</ele>
        <time>2025-12-11T15:06:30Z</time>
      </trkpt>
      <trkpt lat="45.75897" lon="4.65749">
        <ele>410.8</ele>
        <time>2025-12-11T15:06:31Z</time>
      </trkpt>
      <trkpt lat="45.75892" lon="4.6575">
        <ele>410.4</ele>
        <time>2025-12-11T15:06:32Z</time>
      </trkpt>
      <trkpt lat="45.75887" lon="4.65751">
        <ele>410.2</ele>
        <time>2025-12-11T15:06:33Z</time>
      </trkpt>
      <trkpt lat="45.75884" lon="4.65751">
        <ele>410</ele>
        <time>2025-12-11T15:06:34Z</time>
      </trkpt>
      <trkpt lat="45.75881" lon="4.65751">
        <ele>409.8</ele>
        <time>2025-12-11T15:06:35Z</time>
      </trkpt>
      <trkpt lat="45.75879" lon="4.65751">
        <ele>409.8</ele>
        <time>2025-12-11T15:06:36Z</time>
      </trkpt>
      <trkpt lat="45.75877" lon="4.6575">
        <ele>409.8</ele>
        <time>2025-12-11T15:06:37Z</time>
      </trkpt>
      <trkpt lat="45.75876" lon="4.6575">
        <ele>409.8</ele>
        <time>2025-12-11T15:06:38Z</time>
      </trkpt>
      <trkpt lat="45.75874" lon="4.6575">
        <ele>409.8</ele>
        <time>2025-12-11T15:06:39Z</time>
      </trkpt>
      <trkpt lat="45.75872" lon="4.6575">
        <ele>409.8</ele>
        <time>2025-12-11T15:06:40Z</time>
      </trkpt>
      <trkpt lat="45.7587" lon="4.6575">
        <ele>409.8</ele>
        <time>2025-12-11T15:06:41Z</time>
      </trkpt>
      <trkpt lat="45.75867" lon="4.6575">
        <ele>409.6</ele>
        <time>2025-12-11T15:06:42Z</time>
      </trkpt>
      <trkpt lat="45.75864" lon="4.6575">
        <ele>409.6</ele>
        <time>2025-12-11T15:06:43Z</time>
      </trkpt>
      <trkpt lat="45.75861" lon="4.6575">
        <ele>409.4</ele>
        <time>2025-12-11T15:06:44Z</time>
      </trkpt>
      <trkpt lat="45.75858" lon="4.65749">
        <ele>409.2</ele>
        <time>2025-12-11T15:06:45Z</time>
      </trkpt>
      <trkpt lat="45.75854" lon="4.65749">
        <ele>409</ele>
        <time>2025-12-11T15:06:46Z</time>
      </trkpt>
      <trkpt lat="45.75851" lon="4.65748">
        <ele>408.8</ele>
        <time>2025-12-11T15:06:47Z</time>
      </trkpt>
      <trkpt lat="45.75847" lon="4.65747">
        <ele>408.6</ele>
        <time>2025-12-11T15:06:48Z</time>
      </trkpt>
      <trkpt lat="45.75844" lon="4.65747">
        <ele>408.6</ele>
        <time>2025-12-11T15:06:49Z</time>
      </trkpt>
      <trkpt lat="45.7584" lon="4.65747">
        <ele>408.4</ele>
        <time>2025-12-11T15:06:50Z</time>
      </trkpt>
      <trkpt lat="45.75836" lon="4.65747">
        <ele>408.2</ele>
        <time>2025-12-11T15:06:51Z</time>
      </trkpt>
      <trkpt lat="45.75832" lon="4.65748">
        <ele>408.2</ele>
        <time>2025-12-11T15:06:52Z</time>
      </trkpt>
      <trkpt lat="45.75828" lon="4.65749">
        <ele>408.2</ele>
        <time>2025-12-11T15:06:53Z</time>
      </trkpt>
      <trkpt lat="45.75825" lon="4.6575">
        <ele>408</ele>
        <time>2025-12-11T15:06:54Z</time>
      </trkpt>
      <trkpt lat="45.75822" lon="4.6575">
        <ele>408.2</ele>
        <time>2025-12-11T15:06:55Z</time>
      </trkpt>
      <trkpt lat="45.75819" lon="4.65751">
        <ele>408.2</ele>
        <time>2025-12-11T15:06:56Z</time>
      </trkpt>
      <trkpt lat="45.75816" lon="4.65752">
        <ele>408.2</ele>
        <time>2025-12-11T15:06:57Z</time>
      </trkpt>
      <trkpt lat="45.75813" lon="4.65753">
        <ele>408.2</ele>
        <time>2025-12-11T15:06:58Z</time>
      </trkpt>
      <trkpt lat="45.7581" lon="4.65754">
        <ele>408.2</ele>
        <time>2025-12-11T15:06:59Z</time>
      </trkpt>
      <trkpt lat="45.75807" lon="4.65755">
        <ele>408.2</ele>
        <time>2025-12-11T15:07:00Z</time>
      </trkpt>
      <trkpt lat="45.75804" lon="4.65756">
        <ele>408.4</ele>
        <time>2025-12-11T15:07:01Z</time>
      </trkpt>
      <trkpt lat="45.758" lon="4.65758">
        <ele>408.4</ele>
        <time>2025-12-11T15:07:02Z</time>
      </trkpt>
      <trkpt lat="45.75797" lon="4.65759">
        <ele>408.4</ele>
        <time>2025-12-11T15:07:03Z</time>
      </trkpt>
      <trkpt lat="45.75794" lon="4.65761">
        <ele>408.4</ele>
        <time>2025-12-11T15:07:04Z</time>
      </trkpt>
      <trkpt lat="45.7579" lon="4.65763">
        <ele>408.4</ele>
        <time>2025-12-11T15:07:05Z</time>
      </trkpt>
      <trkpt lat="45.75787" lon="4.65764">
        <ele>408.4</ele>
        <time>2025-12-11T15:07:06Z</time>
      </trkpt>
      <trkpt lat="45.75784" lon="4.65765">
        <ele>408.4</ele>
        <time>2025-12-11T15:07:07Z</time>
      </trkpt>
      <trkpt lat="45.75781" lon="4.65766">
        <ele>408.4</ele>
        <time>2025-12-11T15:07:08Z</time>
      </trkpt>
      <trkpt lat="45.75778" lon="4.65768">
        <ele>408.4</ele>
        <time>2025-12-11T15:07:09Z</time>
      </trkpt>
      <trkpt lat="45.75774" lon="4.6577">
        <ele>408.6</ele>
        <time>2025-12-11T15:07:10Z</time>
      </trkpt>
      <trkpt lat="45.75771" lon="4.65771">
        <ele>408.6</ele>
        <time>2025-12-11T15:07:11Z</time>
      </trkpt>
      <trkpt lat="45.75767" lon="4.65772">
        <ele>408.6</ele>
        <time>2025-12-11T15:07:12Z</time>
      </trkpt>
      <trkpt lat="45.75763" lon="4.65773">
        <ele>408.6</ele>
        <time>2025-12-11T15:07:13Z</time>
      </trkpt>
      <trkpt lat="45.7576" lon="4.65775">
        <ele>408.6</ele>
        <time>2025-12-11T15:07:14Z</time>
      </trkpt>
      <trkpt lat="45.75757" lon="4.65777">
        <ele>408.6</ele>
        <time>2025-12-11T15:07:15Z</time>
      </trkpt>
      <trkpt lat="45.75754" lon="4.65779">
        <ele>408.6</ele>
        <time>2025-12-11T15:07:16Z</time>
      </trkpt>
      <trkpt lat="45.75751" lon="4.6578">
        <ele>408.4</ele>
        <time>2025-12-11T15:07:17Z</time>
      </trkpt>
      <trkpt lat="45.75747" lon="4.65781">
        <ele>408.2</ele>
        <time>2025-12-11T15:07:18Z</time>
      </trkpt>
      <trkpt lat="45.75744" lon="4.65783">
        <ele>408.2</ele>
        <time>2025-12-11T15:07:19Z</time>
      </trkpt>
      <trkpt lat="45.75741" lon="4.65784">
        <ele>408</ele>
        <time>2025-12-11T15:07:20Z</time>
      </trkpt>
      <trkpt lat="45.75738" lon="4.65784">
        <ele>408</ele>
        <time>2025-12-11T15:07:21Z</time>
      </trkpt>
      <trkpt lat="45.75735" lon="4.65783">
        <ele>407.8</ele>
        <time>2025-12-11T15:07:22Z</time>
      </trkpt>
      <trkpt lat="45.75732" lon="4.65781">
        <ele>407.8</ele>
        <time>2025-12-11T15:07:23Z</time>
      </trkpt>
      <trkpt lat="45.75729" lon="4.65779">
        <ele>407.8</ele>
        <time>2025-12-11T15:07:24Z</time>
      </trkpt>
      <trkpt lat="45.75727" lon="4.65777">
        <ele>407.8</ele>
        <time>2025-12-11T15:07:25Z</time>
      </trkpt>
      <trkpt lat="45.75724" lon="4.65774">
        <ele>408</ele>
        <time>2025-12-11T15:07:26Z</time>
      </trkpt>
      <trkpt lat="45.75721" lon="4.65772">
        <ele>408</ele>
        <time>2025-12-11T15:07:27Z</time>
      </trkpt>
      <trkpt lat="45.75718" lon="4.6577">
        <ele>408</ele>
        <time>2025-12-11T15:07:28Z</time>
      </trkpt>
      <trkpt lat="45.75715" lon="4.65767">
        <ele>408.2</ele>
        <time>2025-12-11T15:07:29Z</time>
      </trkpt>
      <trkpt lat="45.75711" lon="4.65765">
        <ele>408.2</ele>
        <time>2025-12-11T15:07:30Z</time>
      </trkpt>
      <trkpt lat="45.75708" lon="4.65762">
        <ele>408.2</ele>
        <time>2025-12-11T15:07:31Z</time>
      </trkpt>
      <trkpt lat="45.75705" lon="4.6576">
        <ele>408.4</ele>
        <time>2025-12-11T15:07:32Z</time>
      </trkpt>
      <trkpt lat="45.75702" lon="4.65758">
        <ele>408.4</ele>
        <time>2025-12-11T15:07:33Z</time>
      </trkpt>
      <trkpt lat="45.75699" lon="4.65755">
        <ele>408.4</ele>
        <time>2025-12-11T15:07:34Z</time>
      </trkpt>
      <trkpt lat="45.75696" lon="4.65752">
        <ele>408.6</ele>
        <time>2025-12-11T15:07:35Z</time>
      </trkpt>
      <trkpt lat="45.75692" lon="4.65749">
        <ele>408.6</ele>
        <time>2025-12-11T15:07:36Z</time>
      </trkpt>
      <trkpt lat="45.75688" lon="4.65747">
        <ele>408.6</ele>
        <time>2025-12-11T15:07:37Z</time>
      </trkpt>
      <trkpt lat="45.75685" lon="4.65744">
        <ele>408.6</ele>
        <time>2025-12-11T15:07:38Z</time>
      </trkpt>
      <trkpt lat="45.75681" lon="4.65741">
        <ele>408.8</ele>
        <time>2025-12-11T15:07:39Z</time>
      </trkpt>
      <trkpt lat="45.75678" lon="4.65739">
        <ele>408.8</ele>
        <time>2025-12-11T15:07:40Z</time>
      </trkpt>
      <trkpt lat="45.75674" lon="4.65736">
        <ele>408.8</ele>
        <time>2025-12-11T15:07:41Z</time>
      </trkpt>
      <trkpt lat="45.75671" lon="4.65732">
        <ele>408.8</ele>
        <time>2025-12-11T15:07:42Z</time>
      </trkpt>
      <trkpt lat="45.75667" lon="4.65729">
        <ele>409</ele>
        <time>2025-12-11T15:07:43Z</time>
      </trkpt>
      <trkpt lat="45.75664" lon="4.65726">
        <ele>409</ele>
        <time>2025-12-11T15:07:44Z</time>
      </trkpt>
      <trkpt lat="45.7566" lon="4.65723">
        <ele>409</ele>
        <time>2025-12-11T15:07:45Z</time>
      </trkpt>
      <trkpt lat="45.75656" lon="4.65719">
        <ele>409</ele>
        <time>2025-12-11T15:07:46Z</time>
      </trkpt>
      <trkpt lat="45.75653" lon="4.65715">
        <ele>409</ele>
        <time>2025-12-11T15:07:47Z</time>
      </trkpt>
      <trkpt lat="45.75649" lon="4.65711">
        <ele>409</ele>
        <time>2025-12-11T15:07:48Z</time>
      </trkpt>
      <trkpt lat="45.75646" lon="4.65706">
        <ele>409</ele>
        <time>2025-12-11T15:07:49Z</time>
      </trkpt>
      <trkpt lat="45.75643" lon="4.65701">
        <ele>409</ele>
        <time>2025-12-11T15:07:50Z</time>
      </trkpt>
      <trkpt lat="45.7564" lon="4.65696">
        <ele>409</ele>
        <time>2025-12-11T15:07:51Z</time>
      </trkpt>
      <trkpt lat="45.75636" lon="4.6569">
        <ele>409</ele>
        <time>2025-12-11T15:07:52Z</time>
      </trkpt>
      <trkpt lat="45.75633" lon="4.65684">
        <ele>409</ele>
        <time>2025-12-11T15:07:53Z</time>
      </trkpt>
      <trkpt lat="45.75631" lon="4.65678">
        <ele>408.8</ele>
        <time>2025-12-11T15:07:54Z</time>
      </trkpt>
      <trkpt lat="45.75628" lon="4.65672">
        <ele>408.8</ele>
        <time>2025-12-11T15:07:55Z</time>
      </trkpt>
      <trkpt lat="45.75626" lon="4.65665">
        <ele>408.8</ele>
        <time>2025-12-11T15:07:56Z</time>
      </trkpt>
      <trkpt lat="45.75624" lon="4.65659">
        <ele>408.8</ele>
        <time>2025-12-11T15:07:57Z</time>
      </trkpt>
      <trkpt lat="45.75622" lon="4.65652">
        <ele>408.8</ele>
        <time>2025-12-11T15:07:58Z</time>
      </trkpt>
      <trkpt lat="45.7562" lon="4.65646">
        <ele>408.8</ele>
        <time>2025-12-11T15:07:59Z</time>
      </trkpt>
      <trkpt lat="45.75618" lon="4.6564">
        <ele>408.8</ele>
        <time>2025-12-11T15:08:00Z</time>
      </trkpt>
      <trkpt lat="45.75615" lon="4.65633">
        <ele>408.8</ele>
        <time>2025-12-11T15:08:01Z</time>
      </trkpt>
      <trkpt lat="45.75613" lon="4.65627">
        <ele>408.6</ele>
        <time>2025-12-11T15:08:02Z</time>
      </trkpt>
      <trkpt lat="45.7561" lon="4.6562">
        <ele>408.4</ele>
        <time>2025-12-11T15:08:03Z</time>
      </trkpt>
      <trkpt lat="45.75607" lon="4.65614">
        <ele>408</ele>
        <time>2025-12-11T15:08:04Z</time>
      </trkpt>
      <trkpt lat="45.75602" lon="4.65609">
        <ele>407.8</ele>
        <time>2025-12-11T15:08:05Z</time>
      </trkpt>
      <trkpt lat="45.75597" lon="4.65606">
        <ele>407.6</ele>
        <time>2025-12-11T15:08:06Z</time>
      </trkpt>
      <trkpt lat="45.75592" lon="4.65604">
        <ele>407.6</ele>
        <time>2025-12-11T15:08:07Z</time>
      </trkpt>
      <trkpt lat="45.75587" lon="4.65603">
        <ele>407.6</ele>
        <time>2025-12-11T15:08:08Z</time>
      </trkpt>
      <trkpt lat="45.75582" lon="4.65602">
        <ele>407.6</ele>
        <time>2025-12-11T15:08:09Z</time>
      </trkpt>
      <trkpt lat="45.75578" lon="4.65603">
        <ele>407.8</ele>
        <time>2025-12-11T15:08:10Z</time>
      </trkpt>
      <trkpt lat="45.75573" lon="4.65603">
        <ele>408</ele>
        <time>2025-12-11T15:08:11Z</time>
      </trkpt>
      <trkpt lat="45.75569" lon="4.65602">
        <ele>408.2</ele>
        <time>2025-12-11T15:08:12Z</time>
      </trkpt>
      <trkpt lat="45.75564" lon="4.65602">
        <ele>408.4</ele>
        <time>2025-12-11T15:08:13Z</time>
      </trkpt>
      <trkpt lat="45.7556" lon="4.65601">
        <ele>408.8</ele>
        <time>2025-12-11T15:08:14Z</time>
      </trkpt>
      <trkpt lat="45.75556" lon="4.65601">
        <ele>409</ele>
        <time>2025-12-11T15:08:15Z</time>
      </trkpt>
      <trkpt lat="45.75553" lon="4.656">
        <ele>409.4</ele>
        <time>2025-12-11T15:08:16Z</time>
      </trkpt>
      <trkpt lat="45.75549" lon="4.65598">
        <ele>409.8</ele>
        <time>2025-12-11T15:08:17Z</time>
      </trkpt>
      <trkpt lat="45.75547" lon="4.65597">
        <ele>410.2</ele>
        <time>2025-12-11T15:08:18Z</time>
      </trkpt>
      <trkpt lat="45.75544" lon="4.65596">
        <ele>410.6</ele>
        <time>2025-12-11T15:08:19Z</time>
      </trkpt>
      <trkpt lat="45.75542" lon="4.65595">
        <ele>411</ele>
        <time>2025-12-11T15:08:20Z</time>
      </trkpt>
      <trkpt lat="45.75539" lon="4.65594">
        <ele>411.4</ele>
        <time>2025-12-11T15:08:21Z</time>
      </trkpt>
      <trkpt lat="45.75537" lon="4.65593">
        <ele>411.6</ele>
        <time>2025-12-11T15:08:22Z</time>
      </trkpt>
      <trkpt lat="45.75534" lon="4.65592">
        <ele>411.8</ele>
        <time>2025-12-11T15:08:23Z</time>
      </trkpt>
      <trkpt lat="45.75532" lon="4.65591">
        <ele>412</ele>
        <time>2025-12-11T15:08:24Z</time>
      </trkpt>
      <trkpt lat="45.75529" lon="4.65589">
        <ele>412.4</ele>
        <time>2025-12-11T15:08:25Z</time>
      </trkpt>
      <trkpt lat="45.75527" lon="4.65588">
        <ele>412.6</ele>
        <time>2025-12-11T15:08:26Z</time>
      </trkpt>
      <trkpt lat="45.75524" lon="4.65586">
        <ele>412.8</ele>
        <time>2025-12-11T15:08:27Z</time>
      </trkpt>
      <trkpt lat="45.75522" lon="4.65585">
        <ele>413</ele>
        <time>2025-12-11T15:08:28Z</time>
      </trkpt>
      <trkpt lat="45.75519" lon="4.65583">
        <ele>413.2</ele>
        <time>2025-12-11T15:08:29Z</time>
      </trkpt>
      <trkpt lat="45.75517" lon="4.65582">
        <ele>413.4</ele>
        <time>2025-12-11T15:08:30Z</time>
      </trkpt>
      <trkpt lat="45.75514" lon="4.6558">
        <ele>413.4</ele>
        <time>2025-12-11T15:08:31Z</time>
      </trkpt>
      <trkpt lat="45.75512" lon="4.65578">
        <ele>413.6</ele>
        <time>2025-12-11T15:08:32Z</time>
      </trkpt>
      <trkpt lat="45.7551" lon="4.65577">
        <ele>413.8</ele>
        <time>2025-12-11T15:08:33Z</time>
      </trkpt>
      <trkpt lat="45.75507" lon="4.65575">
        <ele>414</ele>
        <time>2025-12-11T15:08:34Z</time>
      </trkpt>
      <trkpt lat="45.75505" lon="4.65573">
        <ele>414.2</ele>
        <time>2025-12-11T15:08:35Z</time>
      </trkpt>
      <trkpt lat="45.75503" lon="4.65571">
        <ele>414.4</ele>
        <time>2025-12-11T15:08:36Z</time>
      </trkpt>
      <trkpt lat="45.75501" lon="4.65569">
        <ele>414.6</ele>
        <time>2025-12-11T15:08:37Z</time>
      </trkpt>
      <trkpt lat="45.75499" lon="4.65567">
        <ele>414.8</ele>
        <time>2025-12-11T15:08:38Z</time>
      </trkpt>
      <trkpt lat="45.75497" lon="4.65566">
        <ele>415</ele>
        <time>2025-12-11T15:08:39Z</time>
      </trkpt>
      <trkpt lat="45.75494" lon="4.65564">
        <ele>415.2</ele>
        <time>2025-12-11T15:08:40Z</time>
      </trkpt>
      <trkpt lat="45.75492" lon="4.65562">
        <ele>415.2</ele>
        <time>2025-12-11T15:08:41Z</time>
      </trkpt>
      <trkpt lat="45.7549" lon="4.6556">
        <ele>415.4</ele>
        <time>2025-12-11T15:08:42Z</time>
      </trkpt>
      <trkpt lat="45.75488" lon="4.65558">
        <ele>415.6</ele>
        <time>2025-12-11T15:08:43Z</time>
      </trkpt>
      <trkpt lat="45.75486" lon="4.65556">
        <ele>415.8</ele>
        <time>2025-12-11T15:08:44Z</time>
      </trkpt>
      <trkpt lat="45.75484" lon="4.65554">
        <ele>415.8</ele>
        <time>2025-12-11T15:08:45Z</time>
      </trkpt>
      <trkpt lat="45.75481" lon="4.65552">
        <ele>416</ele>
        <time>2025-12-11T15:08:46Z</time>
      </trkpt>
      <trkpt lat="45.75479" lon="4.65549">
        <ele>416</ele>
        <time>2025-12-11T15:08:47Z</time>
      </trkpt>
      <trkpt lat="45.75476" lon="4.65547">
        <ele>416.2</ele>
        <time>2025-12-11T15:08:48Z</time>
      </trkpt>
      <trkpt lat="45.75474" lon="4.65545">
        <ele>416.2</ele>
        <time>2025-12-11T15:08:49Z</time>
      </trkpt>
      <trkpt lat="45.75471" lon="4.65542">
        <ele>416.4</ele>
        <time>2025-12-11T15:08:50Z</time>
      </trkpt>
      <trkpt lat="45.75469" lon="4.65539">
        <ele>416.4</ele>
        <time>2025-12-11T15:08:51Z</time>
      </trkpt>
      <trkpt lat="45.75466" lon="4.65537">
        <ele>416.4</ele>
        <time>2025-12-11T15:08:52Z</time>
      </trkpt>
      <trkpt lat="45.75464" lon="4.65534">
        <ele>416.4</ele>
        <time>2025-12-11T15:08:53Z</time>
      </trkpt>
      <trkpt lat="45.75461" lon="4.65531">
        <ele>416.6</ele>
        <time>2025-12-11T15:08:54Z</time>
      </trkpt>
      <trkpt lat="45.75459" lon="4.65527">
        <ele>416.6</ele>
        <time>2025-12-11T15:08:55Z</time>
      </trkpt>
      <trkpt lat="45.75457" lon="4.65524">
        <ele>416.6</ele>
        <time>2025-12-11T15:08:56Z</time>
      </trkpt>
      <trkpt lat="45.75455" lon="4.6552">
        <ele>416.8</ele>
        <time>2025-12-11T15:08:57Z</time>
      </trkpt>
      <trkpt lat="45.75453" lon="4.65517">
        <ele>416.8</ele>
        <time>2025-12-11T15:08:58Z</time>
      </trkpt>
      <trkpt lat="45.75451" lon="4.65513">
        <ele>416.8</ele>
        <time>2025-12-11T15:08:59Z</time>
      </trkpt>
      <trkpt lat="45.75449" lon="4.6551">
        <ele>416.8</ele>
        <time>2025-12-11T15:09:00Z</time>
      </trkpt>
      <trkpt lat="45.75447" lon="4.65507">
        <ele>416.8</ele>
        <time>2025-12-11T15:09:01Z</time>
      </trkpt>
      <trkpt lat="45.75444" lon="4.65504">
        <ele>416.6</ele>
        <time>2025-12-11T15:09:02Z</time>
      </trkpt>
      <trkpt lat="45.75441" lon="4.65502">
        <ele>416.6</ele>
        <time>2025-12-11T15:09:03Z</time>
      </trkpt>
      <trkpt lat="45.75437" lon="4.65501">
        <ele>416.2</ele>
        <time>2025-12-11T15:09:04Z</time>
      </trkpt>
      <trkpt lat="45.75433" lon="4.655">
        <ele>416</ele>
        <time>2025-12-11T15:09:05Z</time>
      </trkpt>
      <trkpt lat="45.75428" lon="4.65499">
        <ele>415.6</ele>
        <time>2025-12-11T15:09:06Z</time>
      </trkpt>
      <trkpt lat="45.75423" lon="4.65497">
        <ele>415.4</ele>
        <time>2025-12-11T15:09:07Z</time>
      </trkpt>
      <trkpt lat="45.7542" lon="4.65493">
        <ele>415.2</ele>
        <time>2025-12-11T15:09:08Z</time>
      </trkpt>
      <trkpt lat="45.75419" lon="4.65486">
        <ele>415.2</ele>
        <time>2025-12-11T15:09:09Z</time>
      </trkpt>
      <trkpt lat="45.75418" lon="4.6548">
        <ele>415.2</ele>
        <time>2025-12-11T15:09:10Z</time>
      </trkpt>
      <trkpt lat="45.75417" lon="4.65475">
        <ele>415.2</ele>
        <time>2025-12-11T15:09:11Z</time>
      </trkpt>
      <trkpt lat="45.75417" lon="4.65469">
        <ele>415.2</ele>
        <time>2025-12-11T15:09:12Z</time>
      </trkpt>
      <trkpt lat="45.75417" lon="4.65464">
        <ele>415.4</ele>
        <time>2025-12-11T15:09:13Z</time>
      </trkpt>
      <trkpt lat="45.75417" lon="4.65459">
        <ele>415.4</ele>
        <time>2025-12-11T15:09:14Z</time>
      </trkpt>
      <trkpt lat="45.75416" lon="4.65454">
        <ele>415.4</ele>
        <time>2025-12-11T15:09:15Z</time>
      </trkpt>
      <trkpt lat="45.75416" lon="4.65448">
        <ele>415.6</ele>
        <time>2025-12-11T15:09:16Z</time>
      </trkpt>
      <trkpt lat="45.75415" lon="4.65442">
        <ele>415.6</ele>
        <time>2025-12-11T15:09:17Z</time>
      </trkpt>
      <trkpt lat="45.75415" lon="4.65437">
        <ele>415.6</ele>
        <time>2025-12-11T15:09:18Z</time>
      </trkpt>
      <trkpt lat="45.75415" lon="4.65431">
        <ele>415.4</ele>
        <time>2025-12-11T15:09:19Z</time>
      </trkpt>
      <trkpt lat="45.75415" lon="4.65424">
        <ele>415.4</ele>
        <time>2025-12-11T15:09:20Z</time>
      </trkpt>
      <trkpt lat="45.75415" lon="4.65417">
        <ele>415.2</ele>
        <time>2025-12-11T15:09:21Z</time>
      </trkpt>
      <trkpt lat="45.75414" lon="4.6541">
        <ele>415.2</ele>
        <time>2025-12-11T15:09:22Z</time>
      </trkpt>
      <trkpt lat="45.75414" lon="4.65403">
        <ele>415</ele>
        <time>2025-12-11T15:09:23Z</time>
      </trkpt>
      <trkpt lat="45.75414" lon="4.65396">
        <ele>414.8</ele>
        <time>2025-12-11T15:09:24Z</time>
      </trkpt>
      <trkpt lat="45.75413" lon="4.65388">
        <ele>414.8</ele>
        <time>2025-12-11T15:09:25Z</time>
      </trkpt>
      <trkpt lat="45.75413" lon="4.65381">
        <ele>414.6</ele>
        <time>2025-12-11T15:09:26Z</time>
      </trkpt>
      <trkpt lat="45.75413" lon="4.65374">
        <ele>414.6</ele>
        <time>2025-12-11T15:09:27Z</time>
      </trkpt>
      <trkpt lat="45.75413" lon="4.65366">
        <ele>414.6</ele>
        <time>2025-12-11T15:09:28Z</time>
      </trkpt>
      <trkpt lat="45.75413" lon="4.65359">
        <ele>414.4</ele>
        <time>2025-12-11T15:09:29Z</time>
      </trkpt>
      <trkpt lat="45.75413" lon="4.65351">
        <ele>414.6</ele>
        <time>2025-12-11T15:09:30Z</time>
      </trkpt>
      <trkpt lat="45.75413" lon="4.65344">
        <ele>414.6</ele>
        <time>2025-12-11T15:09:31Z</time>
      </trkpt>
      <trkpt lat="45.75414" lon="4.65337">
        <ele>414.6</ele>
        <time>2025-12-11T15:09:32Z</time>
      </trkpt>
      <trkpt lat="45.75414" lon="4.65329">
        <ele>414.8</ele>
        <time>2025-12-11T15:09:33Z</time>
      </trkpt>
      <trkpt lat="45.75415" lon="4.65322">
        <ele>415</ele>
        <time>2025-12-11T15:09:34Z</time>
      </trkpt>
      <trkpt lat="45.75415" lon="4.65315">
        <ele>415</ele>
        <time>2025-12-11T15:09:35Z</time>
      </trkpt>
      <trkpt lat="45.75416" lon="4.65309">
        <ele>415.2</ele>
        <time>2025-12-11T15:09:36Z</time>
      </trkpt>
      <trkpt lat="45.75416" lon="4.65302">
        <ele>415.4</ele>
        <time>2025-12-11T15:09:37Z</time>
      </trkpt>
      <trkpt lat="45.75416" lon="4.65296">
        <ele>415.6</ele>
        <time>2025-12-11T15:09:38Z</time>
      </trkpt>
      <trkpt lat="45.75417" lon="4.6529">
        <ele>415.8</ele>
        <time>2025-12-11T15:09:39Z</time>
      </trkpt>
      <trkpt lat="45.75417" lon="4.65284">
        <ele>416</ele>
        <time>2025-12-11T15:09:40Z</time>
      </trkpt>
      <trkpt lat="45.75416" lon="4.65278">
        <ele>416.2</ele>
        <time>2025-12-11T15:09:41Z</time>
      </trkpt>
      <trkpt lat="45.75416" lon="4.65272">
        <ele>416.4</ele>
        <time>2025-12-11T15:09:42Z</time>
      </trkpt>
      <trkpt lat="45.75414" lon="4.65267">
        <ele>416.6</ele>
        <time>2025-12-11T15:09:43Z</time>
      </trkpt>
      <trkpt lat="45.75412" lon="4.65263">
        <ele>416.8</ele>
        <time>2025-12-11T15:09:44Z</time>
      </trkpt>
      <trkpt lat="45.75409" lon="4.65259">
        <ele>417</ele>
        <time>2025-12-11T15:09:45Z</time>
      </trkpt>
      <trkpt lat="45.75406" lon="4.65256">
        <ele>417.2</ele>
        <time>2025-12-11T15:09:46Z</time>
      </trkpt>
      <trkpt lat="45.75404" lon="4.65253">
        <ele>417.6</ele>
        <time>2025-12-11T15:09:47Z</time>
      </trkpt>
      <trkpt lat="45.75401" lon="4.65251">
        <ele>417.8</ele>
        <time>2025-12-11T15:09:48Z</time>
      </trkpt>
      <trkpt lat="45.75398" lon="4.6525">
        <ele>418.2</ele>
        <time>2025-12-11T15:09:49Z</time>
      </trkpt>
      <trkpt lat="45.75396" lon="4.65249">
        <ele>418.4</ele>
        <time>2025-12-11T15:09:50Z</time>
      </trkpt>
      <trkpt lat="45.75395" lon="4.65247">
        <ele>418.8</ele>
        <time>2025-12-11T15:09:51Z</time>
      </trkpt>
      <trkpt lat="45.75393" lon="4.65246">
        <ele>419</ele>
        <time>2025-12-11T15:09:52Z</time>
      </trkpt>
      <trkpt lat="45.75391" lon="4.65244">
        <ele>419.4</ele>
        <time>2025-12-11T15:09:53Z</time>
      </trkpt>
      <trkpt lat="45.7539" lon="4.65243">
        <ele>419.6</ele>
        <time>2025-12-11T15:09:54Z</time>
      </trkpt>
      <trkpt lat="45.75388" lon="4.65242">
        <ele>419.8</ele>
        <time>2025-12-11T15:09:55Z</time>
      </trkpt>
      <trkpt lat="45.75386" lon="4.65241">
        <ele>420</ele>
        <time>2025-12-11T15:09:56Z</time>
      </trkpt>
      <trkpt lat="45.75384" lon="4.6524">
        <ele>420.2</ele>
        <time>2025-12-11T15:09:57Z</time>
      </trkpt>
      <trkpt lat="45.75383" lon="4.65238">
        <ele>420.4</ele>
        <time>2025-12-11T15:09:58Z</time>
      </trkpt>
      <trkpt lat="45.75382" lon="4.65237">
        <ele>420.6</ele>
        <time>2025-12-11T15:09:59Z</time>
      </trkpt>
      <trkpt lat="45.7538" lon="4.65235">
        <ele>420.8</ele>
        <time>2025-12-11T15:10:00Z</time>
      </trkpt>
      <trkpt lat="45.75378" lon="4.65234">
        <ele>421</ele>
        <time>2025-12-11T15:10:01Z</time>
      </trkpt>
      <trkpt lat="45.75377" lon="4.65233">
        <ele>421.2</ele>
        <time>2025-12-11T15:10:02Z</time>
      </trkpt>
      <trkpt lat="45.75376" lon="4.65232">
        <ele>421.4</ele>
        <time>2025-12-11T15:10:03Z</time>
      </trkpt>
      <trkpt lat="45.75375" lon="4.6523">
        <ele>421.6</ele>
        <time>2025-12-11T15:10:04Z</time>
      </trkpt>
      <trkpt lat="45.75373" lon="4.65229">
        <ele>421.8</ele>
        <time>2025-12-11T15:10:05Z</time>
      </trkpt>
      <trkpt lat="45.75372" lon="4.65227">
        <ele>422</ele>
        <time>2025-12-11T15:10:06Z</time>
      </trkpt>
      <trkpt lat="45.75371" lon="4.65225">
        <ele>422.4</ele>
        <time>2025-12-11T15:10:07Z</time>
      </trkpt>
      <trkpt lat="45.7537" lon="4.65224">
        <ele>422.6</ele>
        <time>2025-12-11T15:10:08Z</time>
      </trkpt>
      <trkpt lat="45.75369" lon="4.65222">
        <ele>422.8</ele>
        <time>2025-12-11T15:10:09Z</time>
      </trkpt>
      <trkpt lat="45.75368" lon="4.65219">
        <ele>423</ele>
        <time>2025-12-11T15:10:10Z</time>
      </trkpt>
      <trkpt lat="45.75367" lon="4.65217">
        <ele>423.2</ele>
        <time>2025-12-11T15:10:11Z</time>
      </trkpt>
      <trkpt lat="45.75365" lon="4.65215">
        <ele>423.4</ele>
        <time>2025-12-11T15:10:12Z</time>
      </trkpt>
      <trkpt lat="45.75364" lon="4.65213">
        <ele>423.6</ele>
        <time>2025-12-11T15:10:13Z</time>
      </trkpt>
      <trkpt lat="45.75364" lon="4.6521">
        <ele>423.8</ele>
        <time>2025-12-11T15:10:14Z</time>
      </trkpt>
      <trkpt lat="45.75362" lon="4.65208">
        <ele>424</ele>
        <time>2025-12-11T15:10:15Z</time>
      </trkpt>
      <trkpt lat="45.75361" lon="4.65206">
        <ele>424.2</ele>
        <time>2025-12-11T15:10:16Z</time>
      </trkpt>
      <trkpt lat="45.75359" lon="4.65203">
        <ele>424.4</ele>
        <time>2025-12-11T15:10:17Z</time>
      </trkpt>
      <trkpt lat="45.75358" lon="4.65201">
        <ele>424.6</ele>
        <time>2025-12-11T15:10:18Z</time>
      </trkpt>
      <trkpt lat="45.75357" lon="4.65199">
        <ele>424.6</ele>
        <time>2025-12-11T15:10:19Z</time>
      </trkpt>
      <trkpt lat="45.75356" lon="4.65197">
        <ele>424.8</ele>
        <time>2025-12-11T15:10:20Z</time>
      </trkpt>
      <trkpt lat="45.75355" lon="4.65195">
        <ele>425</ele>
        <time>2025-12-11T15:10:21Z</time>
      </trkpt>
      <trkpt lat="45.75353" lon="4.65193">
        <ele>425.2</ele>
        <time>2025-12-11T15:10:22Z</time>
      </trkpt>
      <trkpt lat="45.75352" lon="4.65192">
        <ele>425.4</ele>
        <time>2025-12-11T15:10:23Z</time>
      </trkpt>
      <trkpt lat="45.75351" lon="4.6519">
        <ele>425.6</ele>
        <time>2025-12-11T15:10:24Z</time>
      </trkpt>
      <trkpt lat="45.75349" lon="4.65187">
        <ele>425.6</ele>
        <time>2025-12-11T15:10:25Z</time>
      </trkpt>
      <trkpt lat="45.75349" lon="4.65184">
        <ele>425.8</ele>
        <time>2025-12-11T15:10:26Z</time>
      </trkpt>
      <trkpt lat="45.75348" lon="4.65181">
        <ele>426</ele>
        <time>2025-12-11T15:10:27Z</time>
      </trkpt>
      <trkpt lat="45.75347" lon="4.65179">
        <ele>426</ele>
        <time>2025-12-11T15:10:28Z</time>
      </trkpt>
      <trkpt lat="45.75347" lon="4.65176">
        <ele>426.2</ele>
        <time>2025-12-11T15:10:29Z</time>
      </trkpt>
      <trkpt lat="45.75346" lon="4.65174">
        <ele>426.4</ele>
        <time>2025-12-11T15:10:30Z</time>
      </trkpt>
      <trkpt lat="45.75344" lon="4.65171">
        <ele>426.6</ele>
        <time>2025-12-11T15:10:31Z</time>
      </trkpt>
      <trkpt lat="45.75343" lon="4.65169">
        <ele>426.8</ele>
        <time>2025-12-11T15:10:32Z</time>
      </trkpt>
      <trkpt lat="45.75342" lon="4.65166">
        <ele>426.8</ele>
        <time>2025-12-11T15:10:33Z</time>
      </trkpt>
      <trkpt lat="45.75341" lon="4.65163">
        <ele>427</ele>
        <time>2025-12-11T15:10:34Z</time>
      </trkpt>
      <trkpt lat="45.7534" lon="4.6516">
        <ele>427.2</ele>
        <time>2025-12-11T15:10:35Z</time>
      </trkpt>
      <trkpt lat="45.75339" lon="4.65157">
        <ele>427.4</ele>
        <time>2025-12-11T15:10:36Z</time>
      </trkpt>
      <trkpt lat="45.75338" lon="4.65154">
        <ele>427.4</ele>
        <time>2025-12-11T15:10:37Z</time>
      </trkpt>
      <trkpt lat="45.75337" lon="4.65152">
        <ele>427.6</ele>
        <time>2025-12-11T15:10:38Z</time>
      </trkpt>
      <trkpt lat="45.75336" lon="4.65149">
        <ele>427.8</ele>
        <time>2025-12-11T15:10:39Z</time>
      </trkpt>
      <trkpt lat="45.75335" lon="4.65147">
        <ele>428</ele>
        <time>2025-12-11T15:10:40Z</time>
      </trkpt>
      <trkpt lat="45.75334" lon="4.65144">
        <ele>428.2</ele>
        <time>2025-12-11T15:10:41Z</time>
      </trkpt>
      <trkpt lat="45.75333" lon="4.65142">
        <ele>428.4</ele>
        <time>2025-12-11T15:10:42Z</time>
      </trkpt>
      <trkpt lat="45.75332" lon="4.65139">
        <ele>428.6</ele>
        <time>2025-12-11T15:10:43Z</time>
      </trkpt>
      <trkpt lat="45.75331" lon="4.65136">
        <ele>428.8</ele>
        <time>2025-12-11T15:10:44Z</time>
      </trkpt>
      <trkpt lat="45.7533" lon="4.65134">
        <ele>428.8</ele>
        <time>2025-12-11T15:10:45Z</time>
      </trkpt>
      <trkpt lat="45.75329" lon="4.65131">
        <ele>429</ele>
        <time>2025-12-11T15:10:46Z</time>
      </trkpt>
      <trkpt lat="45.75328" lon="4.65129">
        <ele>429.2</ele>
        <time>2025-12-11T15:10:47Z</time>
      </trkpt>
      <trkpt lat="45.75327" lon="4.65126">
        <ele>429.2</ele>
        <time>2025-12-11T15:10:48Z</time>
      </trkpt>
      <trkpt lat="45.75326" lon="4.65123">
        <ele>429.4</ele>
        <time>2025-12-11T15:10:49Z</time>
      </trkpt>
      <trkpt lat="45.75325" lon="4.6512">
        <ele>429.6</ele>
        <time>2025-12-11T15:10:50Z</time>
      </trkpt>
      <trkpt lat="45.75325" lon="4.65118">
        <ele>429.8</ele>
        <time>2025-12-11T15:10:51Z</time>
      </trkpt>
      <trkpt lat="45.75323" lon="4.65116">
        <ele>430</ele>
        <time>2025-12-11T15:10:52Z</time>
      </trkpt>
      <trkpt lat="45.75322" lon="4.65114">
        <ele>430.2</ele>
        <time>2025-12-11T15:10:53Z</time>
      </trkpt>
      <trkpt lat="45.75321" lon="4.65112">
        <ele>430.4</ele>
        <time>2025-12-11T15:10:54Z</time>
      </trkpt>
      <trkpt lat="45.7532" lon="4.6511">
        <ele>430.6</ele>
        <time>2025-12-11T15:10:55Z</time>
      </trkpt>
      <trkpt lat="45.7532" lon="4.65107">
        <ele>430.8</ele>
        <time>2025-12-11T15:10:56Z</time>
      </trkpt>
      <trkpt lat="45.7532" lon="4.65105">
        <ele>431</ele>
        <time>2025-12-11T15:10:57Z</time>
      </trkpt>
      <trkpt lat="45.75319" lon="4.65102">
        <ele>431</ele>
        <time>2025-12-11T15:10:58Z</time>
      </trkpt>
      <trkpt lat="45.75318" lon="4.651">
        <ele>431.2</ele>
        <time>2025-12-11T15:10:59Z</time>
      </trkpt>
      <trkpt lat="45.75317" lon="4.65098">
        <ele>431.4</ele>
        <time>2025-12-11T15:11:00Z</time>
      </trkpt>
      <trkpt lat="45.75316" lon="4.65096">
        <ele>431.4</ele>
        <time>2025-12-11T15:11:01Z</time>
      </trkpt>
      <trkpt lat="45.75315" lon="4.65094">
        <ele>431.6</ele>
        <time>2025-12-11T15:11:02Z</time>
      </trkpt>
      <trkpt lat="45.75315" lon="4.65091">
        <ele>431.8</ele>
        <time>2025-12-11T15:11:03Z</time>
      </trkpt>
      <trkpt lat="45.75315" lon="4.65088">
        <ele>432</ele>
        <time>2025-12-11T15:11:04Z</time>
      </trkpt>
      <trkpt lat="45.75315" lon="4.65086">
        <ele>432.2</ele>
        <time>2025-12-11T15:11:05Z</time>
      </trkpt>
      <trkpt lat="45.75315" lon="4.65083">
        <ele>432.4</ele>
        <time>2025-12-11T15:11:06Z</time>
      </trkpt>
      <trkpt lat="45.75315" lon="4.65081">
        <ele>432.6</ele>
        <time>2025-12-11T15:11:07Z</time>
      </trkpt>
      <trkpt lat="45.75314" lon="4.65078">
        <ele>432.8</ele>
        <time>2025-12-11T15:11:08Z</time>
      </trkpt>
      <trkpt lat="45.75314" lon="4.65076">
        <ele>432.8</ele>
        <time>2025-12-11T15:11:09Z</time>
      </trkpt>
      <trkpt lat="45.75313" lon="4.65074">
        <ele>433</ele>
        <time>2025-12-11T15:11:10Z</time>
      </trkpt>
      <trkpt lat="45.75313" lon="4.65072">
        <ele>433.2</ele>
        <time>2025-12-11T15:11:11Z</time>
      </trkpt>
      <trkpt lat="45.75313" lon="4.65069">
        <ele>433.4</ele>
        <time>2025-12-11T15:11:12Z</time>
      </trkpt>
      <trkpt lat="45.75313" lon="4.65067">
        <ele>433.6</ele>
        <time>2025-12-11T15:11:13Z</time>
      </trkpt>
      <trkpt lat="45.75314" lon="4.65066">
        <ele>433.8</ele>
        <time>2025-12-11T15:11:14Z</time>
      </trkpt>
      <trkpt lat="45.75313" lon="4.65064">
        <ele>434</ele>
        <time>2025-12-11T15:11:15Z</time>
      </trkpt>
      <trkpt lat="45.75313" lon="4.65063">
        <ele>434</ele>
        <time>2025-12-11T15:11:16Z</time>
      </trkpt>
      <trkpt lat="45.75312" lon="4.65061">
        <ele>434.2</ele>
        <time>2025-12-11T15:11:17Z</time>
      </trkpt>
      <trkpt lat="45.75312" lon="4.6506">
        <ele>434.6</ele>
        <time>2025-12-11T15:11:18Z</time>
      </trkpt>
      <trkpt lat="45.75312" lon="4.65059">
        <ele>434.6</ele>
        <time>2025-12-11T15:11:19Z</time>
      </trkpt>
      <trkpt lat="45.75312" lon="4.65058">
        <ele>434.8</ele>
        <time>2025-12-11T15:11:20Z</time>
      </trkpt>
      <trkpt lat="45.75312" lon="4.65057">
        <ele>435</ele>
        <time>2025-12-11T15:11:21Z</time>
      </trkpt>
      <trkpt lat="45.75311" lon="4.65055">
        <ele>435.2</ele>
        <time>2025-12-11T15:11:22Z</time>
      </trkpt>
      <trkpt lat="45.7531" lon="4.65055">
        <ele>435.2</ele>
        <time>2025-12-11T15:11:23Z</time>
      </trkpt>
      <trkpt lat="45.75308" lon="4.65055">
        <ele>435.4</ele>
        <time>2025-12-11T15:11:24Z</time>
      </trkpt>
      <trkpt lat="45.75307" lon="4.65055">
        <ele>435.4</ele>
        <time>2025-12-11T15:11:25Z</time>
      </trkpt>
      <trkpt lat="45.75306" lon="4.65054">
        <ele>435.4</ele>
        <time>2025-12-11T15:11:26Z</time>
      </trkpt>
      <trkpt lat="45.75305" lon="4.65054">
        <ele>435.6</ele>
        <time>2025-12-11T15:11:27Z</time>
      </trkpt>
      <trkpt lat="45.75303" lon="4.65054">
        <ele>435.6</ele>
        <time>2025-12-11T15:11:28Z</time>
      </trkpt>
      <trkpt lat="45.75301" lon="4.65054">
        <ele>435.6</ele>
        <time>2025-12-11T15:11:29Z</time>
      </trkpt>
      <trkpt lat="45.753" lon="4.65054">
        <ele>435.4</ele>
        <time>2025-12-11T15:11:30Z</time>
      </trkpt>
      <trkpt lat="45.75299" lon="4.65053">
        <ele>435.4</ele>
        <time>2025-12-11T15:11:31Z</time>
      </trkpt>
      <trkpt lat="45.75297" lon="4.65053">
        <ele>435.2</ele>
        <time>2025-12-11T15:11:32Z</time>
      </trkpt>
      <trkpt lat="45.75295" lon="4.65053">
        <ele>435</ele>
        <time>2025-12-11T15:11:33Z</time>
      </trkpt>
      <trkpt lat="45.75294" lon="4.65053">
        <ele>435</ele>
        <time>2025-12-11T15:11:34Z</time>
      </trkpt>
      <trkpt lat="45.75292" lon="4.65053">
        <ele>434.8</ele>
        <time>2025-12-11T15:11:35Z</time>
      </trkpt>
      <trkpt lat="45.7529" lon="4.65053">
        <ele>434.6</ele>
        <time>2025-12-11T15:11:36Z</time>
      </trkpt>
      <trkpt lat="45.75289" lon="4.65053">
        <ele>434.6</ele>
        <time>2025-12-11T15:11:37Z</time>
      </trkpt>
      <trkpt lat="45.75287" lon="4.65054">
        <ele>434.4</ele>
        <time>2025-12-11T15:11:38Z</time>
      </trkpt>
      <trkpt lat="45.75285" lon="4.65055">
        <ele>434.4</ele>
        <time>2025-12-11T15:11:39Z</time>
      </trkpt>
      <trkpt lat="45.75283" lon="4.65055">
        <ele>434.2</ele>
        <time>2025-12-11T15:11:40Z</time>
      </trkpt>
      <trkpt lat="45.75281" lon="4.65055">
        <ele>434.2</ele>
        <time>2025-12-11T15:11:41Z</time>
      </trkpt>
      <trkpt lat="45.75279" lon="4.65055">
        <ele>434</ele>
        <time>2025-12-11T15:11:42Z</time>
      </trkpt>
      <trkpt lat="45.75277" lon="4.65055">
        <ele>434</ele>
        <time>2025-12-11T15:11:43Z</time>
      </trkpt>
      <trkpt lat="45.75275" lon="4.65055">
        <ele>434</ele>
        <time>2025-12-11T15:11:44Z</time>
      </trkpt>
      <trkpt lat="45.75272" lon="4.65055">
        <ele>433.8</ele>
        <time>2025-12-11T15:11:45Z</time>
      </trkpt>
      <trkpt lat="45.7527" lon="4.65054">
        <ele>433.8</ele>
        <time>2025-12-11T15:11:46Z</time>
      </trkpt>
      <trkpt lat="45.75269" lon="4.65053">
        <ele>433.8</ele>
        <time>2025-12-11T15:11:47Z</time>
      </trkpt>
      <trkpt lat="45.75267" lon="4.65053">
        <ele>433.8</ele>
        <time>2025-12-11T15:11:48Z</time>
      </trkpt>
      <trkpt lat="45.75265" lon="4.65053">
        <ele>433.8</ele>
        <time>2025-12-11T15:11:49Z</time>
      </trkpt>
      <trkpt lat="45.75263" lon="4.65053">
        <ele>434</ele>
        <time>2025-12-11T15:11:50Z</time>
      </trkpt>
      <trkpt lat="45.75261" lon="4.65052">
        <ele>434</ele>
        <time>2025-12-11T15:11:51Z</time>
      </trkpt>
      <trkpt lat="45.75259" lon="4.65051">
        <ele>434</ele>
        <time>2025-12-11T15:11:52Z</time>
      </trkpt>
      <trkpt lat="45.75258" lon="4.6505">
        <ele>434.2</ele>
        <time>2025-12-11T15:11:53Z</time>
      </trkpt>
      <trkpt lat="45.75256" lon="4.65049">
        <ele>434.2</ele>
        <time>2025-12-11T15:11:54Z</time>
      </trkpt>
      <trkpt lat="45.75254" lon="4.65048">
        <ele>434.2</ele>
        <time>2025-12-11T15:11:55Z</time>
      </trkpt>
      <trkpt lat="45.75252" lon="4.65047">
        <ele>434.4</ele>
        <time>2025-12-11T15:11:56Z</time>
      </trkpt>
      <trkpt lat="45.75251" lon="4.65047">
        <ele>434.4</ele>
        <time>2025-12-11T15:11:57Z</time>
      </trkpt>
      <trkpt lat="45.75249" lon="4.65046">
        <ele>434.4</ele>
        <time>2025-12-11T15:11:58Z</time>
      </trkpt>
      <trkpt lat="45.75247" lon="4.65046">
        <ele>434.6</ele>
        <time>2025-12-11T15:11:59Z</time>
      </trkpt>
      <trkpt lat="45.75245" lon="4.65046">
        <ele>434.6</ele>
        <time>2025-12-11T15:12:00Z</time>
      </trkpt>
      <trkpt lat="45.75243" lon="4.65046">
        <ele>434.6</ele>
        <time>2025-12-11T15:12:01Z</time>
      </trkpt>
      <trkpt lat="45.75242" lon="4.65046">
        <ele>434.8</ele>
        <time>2025-12-11T15:12:02Z</time>
      </trkpt>
      <trkpt lat="45.7524" lon="4.65047">
        <ele>434.8</ele>
        <time>2025-12-11T15:12:03Z</time>
      </trkpt>
      <trkpt lat="45.75238" lon="4.65048">
        <ele>434.8</ele>
        <time>2025-12-11T15:12:04Z</time>
      </trkpt>
      <trkpt lat="45.75237" lon="4.65048">
        <ele>435</ele>
        <time>2025-12-11T15:12:05Z</time>
      </trkpt>
      <trkpt lat="45.75236" lon="4.65048">
        <ele>435</ele>
        <time>2025-12-11T15:12:06Z</time>
      </trkpt>
      <trkpt lat="45.75236" lon="4.65048">
        <ele>435.2</ele>
        <time>2025-12-11T15:12:07Z</time>
      </trkpt>
      <trkpt lat="45.75236" lon="4.65048">
        <ele>435.4</ele>
        <time>2025-12-11T15:12:08Z</time>
      </trkpt>
      <trkpt lat="45.75236" lon="4.65048">
        <ele>435.4</ele>
        <time>2025-12-11T15:12:09Z</time>
      </trkpt>
      <trkpt lat="45.75235" lon="4.65048">
        <ele>435.4</ele>
        <time>2025-12-11T15:12:10Z</time>
      </trkpt>
      <trkpt lat="45.75234" lon="4.65048">
        <ele>435.6</ele>
        <time>2025-12-11T15:12:11Z</time>
      </trkpt>
      <trkpt lat="45.75233" lon="4.65047">
        <ele>435.6</ele>
        <time>2025-12-11T15:12:12Z</time>
      </trkpt>
      <trkpt lat="45.75232" lon="4.65048">
        <ele>435.8</ele>
        <time>2025-12-11T15:12:13Z</time>
      </trkpt>
      <trkpt lat="45.75231" lon="4.65048">
        <ele>435.8</ele>
        <time>2025-12-11T15:12:14Z</time>
      </trkpt>
      <trkpt lat="45.75231" lon="4.65048">
        <ele>436</ele>
        <time>2025-12-11T15:12:15Z</time>
      </trkpt>
      <trkpt lat="45.7523" lon="4.65048">
        <ele>436.2</ele>
        <time>2025-12-11T15:12:16Z</time>
      </trkpt>
      <trkpt lat="45.75229" lon="4.65048">
        <ele>436.4</ele>
        <time>2025-12-11T15:12:17Z</time>
      </trkpt>
      <trkpt lat="45.75228" lon="4.65047">
        <ele>436.4</ele>
        <time>2025-12-11T15:12:18Z</time>
      </trkpt>
      <trkpt lat="45.75226" lon="4.65047">
        <ele>436.6</ele>
        <time>2025-12-11T15:12:19Z</time>
      </trkpt>
      <trkpt lat="45.75225" lon="4.65047">
        <ele>436.8</ele>
        <time>2025-12-11T15:12:20Z</time>
      </trkpt>
      <trkpt lat="45.75224" lon="4.65047">
        <ele>437</ele>
        <time>2025-12-11T15:12:21Z</time>
      </trkpt>
      <trkpt lat="45.75223" lon="4.65047">
        <ele>437</ele>
        <time>2025-12-11T15:12:22Z</time>
      </trkpt>
      <trkpt lat="45.75222" lon="4.65046">
        <ele>437.2</ele>
        <time>2025-12-11T15:12:23Z</time>
      </trkpt>
      <trkpt lat="45.75221" lon="4.65045">
        <ele>437.2</ele>
        <time>2025-12-11T15:12:24Z</time>
      </trkpt>
      <trkpt lat="45.7522" lon="4.65045">
        <ele>437.4</ele>
        <time>2025-12-11T15:12:25Z</time>
      </trkpt>
      <trkpt lat="45.7522" lon="4.65044">
        <ele>437.6</ele>
        <time>2025-12-11T15:12:26Z</time>
      </trkpt>
      <trkpt lat="45.75219" lon="4.65043">
        <ele>437.6</ele>
        <time>2025-12-11T15:12:27Z</time>
      </trkpt>
      <trkpt lat="45.75218" lon="4.65043">
        <ele>437.8</ele>
        <time>2025-12-11T15:12:28Z</time>
      </trkpt>
      <trkpt lat="45.75218" lon="4.65042">
        <ele>437.8</ele>
        <time>2025-12-11T15:12:29Z</time>
      </trkpt>
      <trkpt lat="45.75217" lon="4.65041">
        <ele>438</ele>
        <time>2025-12-11T15:12:30Z</time>
      </trkpt>
      <trkpt lat="45.75217" lon="4.6504">
        <ele>438</ele>
        <time>2025-12-11T15:12:31Z</time>
      </trkpt>
      <trkpt lat="45.75217" lon="4.6504">
        <ele>438.2</ele>
        <time>2025-12-11T15:12:32Z</time>
      </trkpt>
      <trkpt lat="45.75217" lon="4.6504">
        <ele>438.2</ele>
        <time>2025-12-11T15:12:33Z</time>
      </trkpt>
      <trkpt lat="45.75217" lon="4.6504">
        <ele>438.4</ele>
        <time>2025-12-11T15:12:34Z</time>
      </trkpt>
      <trkpt lat="45.75216" lon="4.65039">
        <ele>438.4</ele>
        <time>2025-12-11T15:12:35Z</time>
      </trkpt>
      <trkpt lat="45.75215" lon="4.65038">
        <ele>438.4</ele>
        <time>2025-12-11T15:12:36Z</time>
      </trkpt>
      <trkpt lat="45.75215" lon="4.65037">
        <ele>438.6</ele>
        <time>2025-12-11T15:12:37Z</time>
      </trkpt>
      <trkpt lat="45.75215" lon="4.65036">
        <ele>438.6</ele>
        <time>2025-12-11T15:12:38Z</time>
      </trkpt>
      <trkpt lat="45.75214" lon="4.65035">
        <ele>438.6</ele>
        <time>2025-12-11T15:12:39Z</time>
      </trkpt>
      <trkpt lat="45.75214" lon="4.65034">
        <ele>438.8</ele>
        <time>2025-12-11T15:12:40Z</time>
      </trkpt>
      <trkpt lat="45.75213" lon="4.65034">
        <ele>439</ele>
        <time>2025-12-11T15:12:41Z</time>
      </trkpt>
      <trkpt lat="45.75212" lon="4.65033">
        <ele>439</ele>
        <time>2025-12-11T15:12:42Z</time>
      </trkpt>
      <trkpt lat="45.75212" lon="4.65032">
        <ele>439.2</ele>
        <time>2025-12-11T15:12:43Z</time>
      </trkpt>
      <trkpt lat="45.75211" lon="4.65031">
        <ele>439.4</ele>
        <time>2025-12-11T15:12:44Z</time>
      </trkpt>
      <trkpt lat="45.7521" lon="4.6503">
        <ele>439.6</ele>
        <time>2025-12-11T15:12:45Z</time>
      </trkpt>
      <trkpt lat="45.75209" lon="4.6503">
        <ele>439.6</ele>
        <time>2025-12-11T15:12:46Z</time>
      </trkpt>
      <trkpt lat="45.75208" lon="4.65029">
        <ele>439.8</ele>
        <time>2025-12-11T15:12:47Z</time>
      </trkpt>
      <trkpt lat="45.75208" lon="4.65028">
        <ele>439.8</ele>
        <time>2025-12-11T15:12:48Z</time>
      </trkpt>
      <trkpt lat="45.75207" lon="4.65027">
        <ele>440</ele>
        <time>2025-12-11T15:12:49Z</time>
      </trkpt>
      <trkpt lat="45.75207" lon="4.65026">
        <ele>440.2</ele>
        <time>2025-12-11T15:12:50Z</time>
      </trkpt>
      <trkpt lat="45.75207" lon="4.65025">
        <ele>440.4</ele>
        <time>2025-12-11T15:12:51Z</time>
      </trkpt>
      <trkpt lat="45.75206" lon="4.65025">
        <ele>440.4</ele>
        <time>2025-12-11T15:12:52Z</time>
      </trkpt>
      <trkpt lat="45.75206" lon="4.65025">
        <ele>440.6</ele>
        <time>2025-12-11T15:12:53Z</time>
      </trkpt>
      <trkpt lat="45.75205" lon="4.65024">
        <ele>440.8</ele>
        <time>2025-12-11T15:12:54Z</time>
      </trkpt>
      <trkpt lat="45.75204" lon="4.65024">
        <ele>440.8</ele>
        <time>2025-12-11T15:12:55Z</time>
      </trkpt>
      <trkpt lat="45.75203" lon="4.65023">
        <ele>441</ele>
        <time>2025-12-11T15:12:56Z</time>
      </trkpt>
      <trkpt lat="45.75203" lon="4.65023">
        <ele>441</ele>
        <time>2025-12-11T15:12:57Z</time>
      </trkpt>
      <trkpt lat="45.75203" lon="4.65023">
        <ele>441.2</ele>
        <time>2025-12-11T15:12:58Z</time>
      </trkpt>
      <trkpt lat="45.75203" lon="4.65023">
        <ele>441.4</ele>
        <time>2025-12-11T15:12:59Z</time>
      </trkpt>
      <trkpt lat="45.75203" lon="4.65023">
        <ele>441.4</ele>
        <time>2025-12-11T15:13:00Z</time>
      </trkpt>
      <trkpt lat="45.75203" lon="4.65023">
        <ele>441.6</ele>
        <time>2025-12-11T15:13:01Z</time>
      </trkpt>
      <trkpt lat="45.75203" lon="4.65023">
        <ele>441.6</ele>
        <time>2025-12-11T15:13:02Z</time>
      </trkpt>
      <trkpt lat="45.75203" lon="4.65023">
        <ele>441.6</ele>
        <time>2025-12-11T15:13:03Z</time>
      </trkpt>
      <trkpt lat="45.75203" lon="4.65023">
        <ele>441.6</ele>
        <time>2025-12-11T15:13:04Z</time>
      </trkpt>
      <trkpt lat="45.75203" lon="4.65023">
        <ele>441.6</ele>
        <time>2025-12-11T15:13:05Z</time>
      </trkpt>
      <trkpt lat="45.75203" lon="4.65022">
        <ele>441.8</ele>
        <time>2025-12-11T15:13:06Z</time>
      </trkpt>
      <trkpt lat="45.75203" lon="4.65021">
        <ele>441.8</ele>
        <time>2025-12-11T15:13:07Z</time>
      </trkpt>
      <trkpt lat="45.75202" lon="4.65021">
        <ele>442</ele>
        <time>2025-12-11T15:13:08Z</time>
      </trkpt>
      <trkpt lat="45.75201" lon="4.6502">
        <ele>442.2</ele>
        <time>2025-12-11T15:13:09Z</time>
      </trkpt>
      <trkpt lat="45.75201" lon="4.6502">
        <ele>442.4</ele>
        <time>2025-12-11T15:13:10Z</time>
      </trkpt>
      <trkpt lat="45.75201" lon="4.65019">
        <ele>442.6</ele>
        <time>2025-12-11T15:13:11Z</time>
      </trkpt>
      <trkpt lat="45.752" lon="4.65018">
        <ele>442.8</ele>
        <time>2025-12-11T15:13:12Z</time>
      </trkpt>
      <trkpt lat="45.752" lon="4.65018">
        <ele>442.8</ele>
        <time>2025-12-11T15:13:13Z</time>
      </trkpt>
      <trkpt lat="45.752" lon="4.65018">
        <ele>443</ele>
        <time>2025-12-11T15:13:14Z</time>
      </trkpt>
      <trkpt lat="45.75199" lon="4.65017">
        <ele>443.2</ele>
        <time>2025-12-11T15:13:15Z</time>
      </trkpt>
      <trkpt lat="45.75198" lon="4.65017">
        <ele>443.4</ele>
        <time>2025-12-11T15:13:16Z</time>
      </trkpt>
      <trkpt lat="45.75198" lon="4.65017">
        <ele>443.6</ele>
        <time>2025-12-11T15:13:17Z</time>
      </trkpt>
      <trkpt lat="45.75198" lon="4.65017">
        <ele>443.6</ele>
        <time>2025-12-11T15:13:18Z</time>
      </trkpt>
      <trkpt lat="45.75197" lon="4.65016">
        <ele>443.8</ele>
        <time>2025-12-11T15:13:19Z</time>
      </trkpt>
      <trkpt lat="45.75197" lon="4.65016">
        <ele>444</ele>
        <time>2025-12-11T15:13:20Z</time>
      </trkpt>
      <trkpt lat="45.75196" lon="4.65015">
        <ele>444</ele>
        <time>2025-12-11T15:13:21Z</time>
      </trkpt>
      <trkpt lat="45.75196" lon="4.65015">
        <ele>444.2</ele>
        <time>2025-12-11T15:13:22Z</time>
      </trkpt>
      <trkpt lat="45.75195" lon="4.65015">
        <ele>444.4</ele>
        <time>2025-12-11T15:13:23Z</time>
      </trkpt>
      <trkpt lat="45.75195" lon="4.65015">
        <ele>444.4</ele>
        <time>2025-12-11T15:13:24Z</time>
      </trkpt>
      <trkpt lat="45.75195" lon="4.65015">
        <ele>444.4</ele>
        <time>2025-12-11T15:13:25Z</time>
      </trkpt>
      <trkpt lat="45.75195" lon="4.65015">
        <ele>444.6</ele>
        <time>2025-12-11T15:13:26Z</time>
      </trkpt>
      <trkpt lat="45.75195" lon="4.65015">
        <ele>444.6</ele>
        <time>2025-12-11T15:13:27Z</time>
      </trkpt>
      <trkpt lat="45.75195" lon="4.65015">
        <ele>444.6</ele>
        <time>2025-12-11T15:13:28Z</time>
      </trkpt>
      <trkpt lat="45.75195" lon="4.65015">
        <ele>444.6</ele>
        <time>2025-12-11T15:13:29Z</time>
      </trkpt>
      <trkpt lat="45.75195" lon="4.65015">
        <ele>444.8</ele>
        <time>2025-12-11T15:13:30Z</time>
      </trkpt>
      <trkpt lat="45.75195" lon="4.65015">
        <ele>444.8</ele>
        <time>2025-12-11T15:13:31Z</time>
      </trkpt>
      <trkpt lat="45.75195" lon="4.65014">
        <ele>444.8</ele>
        <time>2025-12-11T15:13:32Z</time>
      </trkpt>
      <trkpt lat="45.75194" lon="4.65014">
        <ele>444.8</ele>
        <time>2025-12-11T15:13:33Z</time>
      </trkpt>
      <trkpt lat="45.75194" lon="4.65014">
        <ele>444.8</ele>
        <time>2025-12-11T15:13:34Z</time>
      </trkpt>
      <trkpt lat="45.75193" lon="4.65013">
        <ele>444.8</ele>
        <time>2025-12-11T15:13:35Z</time>
      </trkpt>
      <trkpt lat="45.75192" lon="4.65013">
        <ele>444.8</ele>
        <time>2025-12-11T15:13:36Z</time>
      </trkpt>
      <trkpt lat="45.75191" lon="4.65013">
        <ele>444.8</ele>
        <time>2025-12-11T15:13:37Z</time>
      </trkpt>
      <trkpt lat="45.7519" lon="4.65013">
        <ele>445</ele>
        <time>2025-12-11T15:13:38Z</time>
      </trkpt>
      <trkpt lat="45.7519" lon="4.65013">
        <ele>445.2</ele>
        <time>2025-12-11T15:13:39Z</time>
      </trkpt>
      <trkpt lat="45.75189" lon="4.65013">
        <ele>445.2</ele>
        <time>2025-12-11T15:13:40Z</time>
      </trkpt>
      <trkpt lat="45.75189" lon="4.65013">
        <ele>445.4</ele>
        <time>2025-12-11T15:13:41Z</time>
      </trkpt>
      <trkpt lat="45.75189" lon="4.65013">
        <ele>445.6</ele>
        <time>2025-12-11T15:13:42Z</time>
      </trkpt>
      <trkpt lat="45.75188" lon="4.65012">
        <ele>445.6</ele>
        <time>2025-12-11T15:13:43Z</time>
      </trkpt>
      <trkpt lat="45.75188" lon="4.65012">
        <ele>445.8</ele>
        <time>2025-12-11T15:13:44Z</time>
      </trkpt>
      <trkpt lat="45.75188" lon="4.65012">
        <ele>445.8</ele>
        <time>2025-12-11T15:13:45Z</time>
      </trkpt>
      <trkpt lat="45.75188" lon="4.65012">
        <ele>446</ele>
        <time>2025-12-11T15:13:46Z</time>
      </trkpt>
      <trkpt lat="45.75188" lon="4.65012">
        <ele>446.2</ele>
        <time>2025-12-11T15:13:47Z</time>
      </trkpt>
      <trkpt lat="45.75188" lon="4.65012">
        <ele>446.2</ele>
        <time>2025-12-11T15:13:48Z</time>
      </trkpt>
      <trkpt lat="45.75188" lon="4.65012">
        <ele>446.4</ele>
        <time>2025-12-11T15:13:49Z</time>
      </trkpt>
      <trkpt lat="45.75188" lon="4.65012">
        <ele>446.4</ele>
        <time>2025-12-11T15:13:50Z</time>
      </trkpt>
      <trkpt lat="45.75187" lon="4.65012">
        <ele>446.6</ele>
        <time>2025-12-11T15:13:51Z</time>
      </trkpt>
      <trkpt lat="45.75187" lon="4.65012">
        <ele>446.6</ele>
        <time>2025-12-11T15:13:52Z</time>
      </trkpt>
      <trkpt lat="45.75187" lon="4.65012">
        <ele>446.8</ele>
        <time>2025-12-11T15:13:53Z</time>
      </trkpt>
      <trkpt lat="45.75187" lon="4.65012">
        <ele>447</ele>
        <time>2025-12-11T15:13:54Z</time>
      </trkpt>
      <trkpt lat="45.75186" lon="4.65012">
        <ele>447.2</ele>
        <time>2025-12-11T15:13:55Z</time>
      </trkpt>
      <trkpt lat="45.75185" lon="4.65012">
        <ele>447.2</ele>
        <time>2025-12-11T15:13:56Z</time>
      </trkpt>
      <trkpt lat="45.75184" lon="4.65012">
        <ele>447.4</ele>
        <time>2025-12-11T15:13:57Z</time>
      </trkpt>
      <trkpt lat="45.75183" lon="4.65012">
        <ele>447.4</ele>
        <time>2025-12-11T15:13:58Z</time>
      </trkpt>
      <trkpt lat="45.75183" lon="4.65012">
        <ele>447.6</ele>
        <time>2025-12-11T15:13:59Z</time>
      </trkpt>
      <trkpt lat="45.75183" lon="4.65012">
        <ele>447.6</ele>
        <time>2025-12-11T15:14:00Z</time>
      </trkpt>
      <trkpt lat="45.75182" lon="4.65012">
        <ele>447.8</ele>
        <time>2025-12-11T15:14:01Z</time>
      </trkpt>
      <trkpt lat="45.75181" lon="4.65012">
        <ele>447.8</ele>
        <time>2025-12-11T15:14:02Z</time>
      </trkpt>
      <trkpt lat="45.7518" lon="4.65013">
        <ele>448</ele>
        <time>2025-12-11T15:14:03Z</time>
      </trkpt>
      <trkpt lat="45.7518" lon="4.65013">
        <ele>448</ele>
        <time>2025-12-11T15:14:04Z</time>
      </trkpt>
      <trkpt lat="45.7518" lon="4.65013">
        <ele>448.2</ele>
        <time>2025-12-11T15:14:05Z</time>
      </trkpt>
      <trkpt lat="45.7518" lon="4.65013">
        <ele>448.4</ele>
        <time>2025-12-11T15:14:06Z</time>
      </trkpt>
      <trkpt lat="45.75179" lon="4.65013">
        <ele>448.6</ele>
        <time>2025-12-11T15:14:07Z</time>
      </trkpt>
      <trkpt lat="45.75178" lon="4.65013">
        <ele>448.8</ele>
        <time>2025-12-11T15:14:08Z</time>
      </trkpt>
      <trkpt lat="45.75177" lon="4.65013">
        <ele>448.8</ele>
        <time>2025-12-11T15:14:09Z</time>
      </trkpt>
      <trkpt lat="45.75176" lon="4.65013">
        <ele>449</ele>
        <time>2025-12-11T15:14:10Z</time>
      </trkpt>
      <trkpt lat="45.75176" lon="4.65013">
        <ele>449</ele>
        <time>2025-12-11T15:14:11Z</time>
      </trkpt>
      <trkpt lat="45.75175" lon="4.65013">
        <ele>449.2</ele>
        <time>2025-12-11T15:14:12Z</time>
      </trkpt>
      <trkpt lat="45.75174" lon="4.65013">
        <ele>449.2</ele>
        <time>2025-12-11T15:14:13Z</time>
      </trkpt>
      <trkpt lat="45.75173" lon="4.65013">
        <ele>449.4</ele>
        <time>2025-12-11T15:14:14Z</time>
      </trkpt>
      <trkpt lat="45.75172" lon="4.65013">
        <ele>449.6</ele>
        <time>2025-12-11T15:14:15Z</time>
      </trkpt>
      <trkpt lat="45.75172" lon="4.65013">
        <ele>449.6</ele>
        <time>2025-12-11T15:14:16Z</time>
      </trkpt>
      <trkpt lat="45.75171" lon="4.65013">
        <ele>449.8</ele>
        <time>2025-12-11T15:14:17Z</time>
      </trkpt>
      <trkpt lat="45.75171" lon="4.65013">
        <ele>449.8</ele>
        <time>2025-12-11T15:14:18Z</time>
      </trkpt>
      <trkpt lat="45.75171" lon="4.65013">
        <ele>450</ele>
        <time>2025-12-11T15:14:19Z</time>
      </trkpt>
      <trkpt lat="45.75171" lon="4.65013">
        <ele>450</ele>
        <time>2025-12-11T15:14:20Z</time>
      </trkpt>
      <trkpt lat="45.75171" lon="4.65013">
        <ele>450</ele>
        <time>2025-12-11T15:14:21Z</time>
      </trkpt>
      <trkpt lat="45.75171" lon="4.65013">
        <ele>450</ele>
        <time>2025-12-11T15:14:22Z</time>
      </trkpt>
      <trkpt lat="45.75171" lon="4.65013">
        <ele>450.2</ele>
        <time>2025-12-11T15:14:23Z</time>
      </trkpt>
      <trkpt lat="45.75171" lon="4.65013">
        <ele>450</ele>
        <time>2025-12-11T15:14:24Z</time>
      </trkpt>
      <trkpt lat="45.75171" lon="4.65013">
        <ele>450.2</ele>
        <time>2025-12-11T15:14:25Z</time>
      </trkpt>
      <trkpt lat="45.75171" lon="4.65013">
        <ele>450.2</ele>
        <time>2025-12-11T15:14:26Z</time>
      </trkpt>
      <trkpt lat="45.7517" lon="4.65013">
        <ele>450.2</ele>
        <time>2025-12-11T15:14:27Z</time>
      </trkpt>
      <trkpt lat="45.7517" lon="4.65013">
        <ele>450.2</ele>
        <time>2025-12-11T15:14:28Z</time>
      </trkpt>
      <trkpt lat="45.75169" lon="4.65013">
        <ele>450.2</ele>
        <time>2025-12-11T15:14:29Z</time>
      </trkpt>
      <trkpt lat="45.75169" lon="4.65013">
        <ele>450.4</ele>
        <time>2025-12-11T15:14:30Z</time>
      </trkpt>
      <trkpt lat="45.75169" lon="4.65013">
        <ele>450.4</ele>
        <time>2025-12-11T15:14:31Z</time>
      </trkpt>
      <trkpt lat="45.75169" lon="4.65013">
        <ele>450.6</ele>
        <time>2025-12-11T15:14:32Z</time>
      </trkpt>
      <trkpt lat="45.75168" lon="4.65012">
        <ele>450.6</ele>
        <time>2025-12-11T15:14:33Z</time>
      </trkpt>
      <trkpt lat="45.75167" lon="4.65012">
        <ele>450.8</ele>
        <time>2025-12-11T15:14:34Z</time>
      </trkpt>
      <trkpt lat="45.75166" lon="4.65012">
        <ele>451</ele>
        <time>2025-12-11T15:14:35Z</time>
      </trkpt>
      <trkpt lat="45.75165" lon="4.65012">
        <ele>451.2</ele>
        <time>2025-12-11T15:14:36Z</time>
      </trkpt>
      <trkpt lat="45.75164" lon="4.65012">
        <ele>451.4</ele>
        <time>2025-12-11T15:14:37Z</time>
      </trkpt>
      <trkpt lat="45.75163" lon="4.65012">
        <ele>451.6</ele>
        <time>2025-12-11T15:14:38Z</time>
      </trkpt>
      <trkpt lat="45.75163" lon="4.65012">
        <ele>451.8</ele>
        <time>2025-12-11T15:14:39Z</time>
      </trkpt>
      <trkpt lat="45.75162" lon="4.65012">
        <ele>451.8</ele>
        <time>2025-12-11T15:14:40Z</time>
      </trkpt>
      <trkpt lat="45.75161" lon="4.65012">
        <ele>452</ele>
        <time>2025-12-11T15:14:41Z</time>
      </trkpt>
      <trkpt lat="45.75161" lon="4.65012">
        <ele>452.2</ele>
        <time>2025-12-11T15:14:42Z</time>
      </trkpt>
      <trkpt lat="45.75161" lon="4.65012">
        <ele>452.2</ele>
        <time>2025-12-11T15:14:43Z</time>
      </trkpt>
      <trkpt lat="45.75161" lon="4.65012">
        <ele>452.4</ele>
        <time>2025-12-11T15:14:44Z</time>
      </trkpt>
      <trkpt lat="45.75161" lon="4.65012">
        <ele>452.4</ele>
        <time>2025-12-11T15:14:45Z</time>
      </trkpt>
      <trkpt lat="45.7516" lon="4.65012">
        <ele>452.4</ele>
        <time>2025-12-11T15:14:46Z</time>
      </trkpt>
      <trkpt lat="45.75158" lon="4.65012">
        <ele>452.6</ele>
        <time>2025-12-11T15:14:47Z</time>
      </trkpt>
      <trkpt lat="45.75157" lon="4.65012">
        <ele>452.6</ele>
        <time>2025-12-11T15:14:48Z</time>
      </trkpt>
      <trkpt lat="45.75156" lon="4.65012">
        <ele>452.6</ele>
        <time>2025-12-11T15:14:49Z</time>
      </trkpt>
      <trkpt lat="45.75155" lon="4.65012">
        <ele>452.8</ele>
        <time>2025-12-11T15:14:50Z</time>
      </trkpt>
      <trkpt lat="45.75153" lon="4.65012">
        <ele>452.8</ele>
        <time>2025-12-11T15:14:51Z</time>
      </trkpt>
      <trkpt lat="45.75152" lon="4.65012">
        <ele>453</ele>
        <time>2025-12-11T15:14:52Z</time>
      </trkpt>
      <trkpt lat="45.7515" lon="4.65012">
        <ele>453</ele>
        <time>2025-12-11T15:14:53Z</time>
      </trkpt>
      <trkpt lat="45.75149" lon="4.65012">
        <ele>453.2</ele>
        <time>2025-12-11T15:14:54Z</time>
      </trkpt>
      <trkpt lat="45.75148" lon="4.65013">
        <ele>453.2</ele>
        <time>2025-12-11T15:14:55Z</time>
      </trkpt>
      <trkpt lat="45.75147" lon="4.65013">
        <ele>453.4</ele>
        <time>2025-12-11T15:14:56Z</time>
      </trkpt>
      <trkpt lat="45.75147" lon="4.65013">
        <ele>453.4</ele>
        <time>2025-12-11T15:14:57Z</time>
      </trkpt>
      <trkpt lat="45.75146" lon="4.65013">
        <ele>453.6</ele>
        <time>2025-12-11T15:14:58Z</time>
      </trkpt>
      <trkpt lat="45.75145" lon="4.65013">
        <ele>453.6</ele>
        <time>2025-12-11T15:14:59Z</time>
      </trkpt>
      <trkpt lat="45.75144" lon="4.65013">
        <ele>453.6</ele>
        <time>2025-12-11T15:15:00Z</time>
      </trkpt>
      <trkpt lat="45.75143" lon="4.65013">
        <ele>453.6</ele>
        <time>2025-12-11T15:15:01Z</time>
      </trkpt>
      <trkpt lat="45.75143" lon="4.65013">
        <ele>453.8</ele>
        <time>2025-12-11T15:15:02Z</time>
      </trkpt>
      <trkpt lat="45.75142" lon="4.65013">
        <ele>453.8</ele>
        <time>2025-12-11T15:15:03Z</time>
      </trkpt>
      <trkpt lat="45.75141" lon="4.65013">
        <ele>453.8</ele>
        <time>2025-12-11T15:15:04Z</time>
      </trkpt>
      <trkpt lat="45.7514" lon="4.65013">
        <ele>453.8</ele>
        <time>2025-12-11T15:15:05Z</time>
      </trkpt>
      <trkpt lat="45.75139" lon="4.65013">
        <ele>454</ele>
        <time>2025-12-11T15:15:06Z</time>
      </trkpt>
      <trkpt lat="45.75137" lon="4.65013">
        <ele>454</ele>
        <time>2025-12-11T15:15:07Z</time>
      </trkpt>
      <trkpt lat="45.75136" lon="4.65014">
        <ele>454</ele>
        <time>2025-12-11T15:15:08Z</time>
      </trkpt>
      <trkpt lat="45.75136" lon="4.65014">
        <ele>454.2</ele>
        <time>2025-12-11T15:15:09Z</time>
      </trkpt>
      <trkpt lat="45.75135" lon="4.65014">
        <ele>454.2</ele>
        <time>2025-12-11T15:15:10Z</time>
      </trkpt>
      <trkpt lat="45.75134" lon="4.65014">
        <ele>454.4</ele>
        <time>2025-12-11T15:15:11Z</time>
      </trkpt>
      <trkpt lat="45.75134" lon="4.65014">
        <ele>454.6</ele>
        <time>2025-12-11T15:15:12Z</time>
      </trkpt>
      <trkpt lat="45.75133" lon="4.65014">
        <ele>454.8</ele>
        <time>2025-12-11T15:15:13Z</time>
      </trkpt>
      <trkpt lat="45.75133" lon="4.65014">
        <ele>454.8</ele>
        <time>2025-12-11T15:15:14Z</time>
      </trkpt>
      <trkpt lat="45.75133" lon="4.65014">
        <ele>455</ele>
        <time>2025-12-11T15:15:15Z</time>
      </trkpt>
      <trkpt lat="45.75133" lon="4.65014">
        <ele>455</ele>
        <time>2025-12-11T15:15:16Z</time>
      </trkpt>
      <trkpt lat="45.75133" lon="4.65014">
        <ele>455.2</ele>
        <time>2025-12-11T15:15:17Z</time>
      </trkpt>
      <trkpt lat="45.75133" lon="4.65014">
        <ele>455.2</ele>
        <time>2025-12-11T15:15:18Z</time>
      </trkpt>
      <trkpt lat="45.75133" lon="4.65014">
        <ele>455.2</ele>
        <time>2025-12-11T15:15:19Z</time>
      </trkpt>
      <trkpt lat="45.75133" lon="4.65014">
        <ele>455.2</ele>
        <time>2025-12-11T15:15:20Z</time>
      </trkpt>
      <trkpt lat="45.75132" lon="4.65014">
        <ele>455.2</ele>
        <time>2025-12-11T15:15:21Z</time>
      </trkpt>
      <trkpt lat="45.75132" lon="4.65014">
        <ele>455.2</ele>
        <time>2025-12-11T15:15:22Z</time>
      </trkpt>
      <trkpt lat="45.75132" lon="4.65014">
        <ele>455.2</ele>
        <time>2025-12-11T15:15:23Z</time>
      </trkpt>
      <trkpt lat="45.75132" lon="4.65014">
        <ele>455.2</ele>
        <time>2025-12-11T15:15:24Z</time>
      </trkpt>
      <trkpt lat="45.75132" lon="4.65014">
        <ele>455.4</ele>
        <time>2025-12-11T15:15:25Z</time>
      </trkpt>
      <trkpt lat="45.75132" lon="4.65014">
        <ele>455.4</ele>
        <time>2025-12-11T15:15:26Z</time>
      </trkpt>
      <trkpt lat="45.75132" lon="4.65014">
        <ele>455.4</ele>
        <time>2025-12-11T15:15:27Z</time>
      </trkpt>
      <trkpt lat="45.75132" lon="4.65014">
        <ele>455.4</ele>
        <time>2025-12-11T15:15:28Z</time>
      </trkpt>
      <trkpt lat="45.75132" lon="4.65014">
        <ele>455.4</ele>
        <time>2025-12-11T15:15:29Z</time>
      </trkpt>
      <trkpt lat="45.75132" lon="4.65014">
        <ele>455.4</ele>
        <time>2025-12-11T15:15:30Z</time>
      </trkpt>
      <trkpt lat="45.75132" lon="4.65014">
        <ele>455.4</ele>
        <time>2025-12-11T15:15:31Z</time>
      </trkpt>
      <trkpt lat="45.75132" lon="4.65014">
        <ele>455.4</ele>
        <time>2025-12-11T15:15:32Z</time>
      </trkpt>
      <trkpt lat="45.75132" lon="4.65014">
        <ele>455.4</ele>
        <time>2025-12-11T15:15:33Z</time>
      </trkpt>
      <trkpt lat="45.75132" lon="4.65014">
        <ele>455.2</ele>
        <time>2025-12-11T15:15:34Z</time>
      </trkpt>
      <trkpt lat="45.75132" lon="4.65014">
        <ele>455.2</ele>
        <time>2025-12-11T15:15:35Z</time>
      </trkpt>
      <trkpt lat="45.75132" lon="4.65014">
        <ele>455.2</ele>
        <time>2025-12-11T15:15:36Z</time>
      </trkpt>
      <trkpt lat="45.75132" lon="4.65014">
        <ele>455.2</ele>
        <time>2025-12-11T15:15:37Z</time>
      </trkpt>
      <trkpt lat="45.75132" lon="4.65014">
        <ele>455.2</ele>
        <time>2025-12-11T15:15:38Z</time>
      </trkpt>
      <trkpt lat="45.75132" lon="4.65014">
        <ele>455.2</ele>
        <time>2025-12-11T15:15:39Z</time>
      </trkpt>
      <trkpt lat="45.75132" lon="4.65014">
        <ele>455.2</ele>
        <time>2025-12-11T15:15:40Z</time>
      </trkpt>
      <trkpt lat="45.75132" lon="4.65014">
        <ele>455.2</ele>
        <time>2025-12-11T15:15:41Z</time>
      </trkpt>
      <trkpt lat="45.75132" lon="4.65014">
        <ele>455.2</ele>
        <time>2025-12-11T15:15:42Z</time>
      </trkpt>
      <trkpt lat="45.75132" lon="4.65014">
        <ele>455.2</ele>
        <time>2025-12-11T15:15:43Z</time>
      </trkpt>
      <trkpt lat="45.75132" lon="4.65014">
        <ele>455.2</ele>
        <time>2025-12-11T15:15:44Z</time>
      </trkpt>
      <trkpt lat="45.75132" lon="4.65014">
        <ele>455.2</ele>
        <time>2025-12-11T15:15:45Z</time>
      </trkpt>
      <trkpt lat="45.75132" lon="4.65014">
        <ele>455.2</ele>
        <time>2025-12-11T15:15:46Z</time>
      </trkpt>
      <trkpt lat="45.75132" lon="4.65014">
        <ele>455.2</ele>
        <time>2025-12-11T15:15:47Z</time>
      </trkpt>
      <trkpt lat="45.75132" lon="4.65014">
        <ele>455.2</ele>
        <time>2025-12-11T15:15:48Z</time>
      </trkpt>
      <trkpt lat="45.75132" lon="4.65014">
        <ele>455.2</ele>
        <time>2025-12-11T15:15:49Z</time>
      </trkpt>
      <trkpt lat="45.75131" lon="4.65013">
        <ele>455.2</ele>
        <time>2025-12-11T15:15:50Z</time>
      </trkpt>
      <trkpt lat="45.75131" lon="4.65013">
        <ele>455.2</ele>
        <time>2025-12-11T15:15:51Z</time>
      </trkpt>
      <trkpt lat="45.75131" lon="4.65012">
        <ele>455.2</ele>
        <time>2025-12-11T15:15:52Z</time>
      </trkpt>
      <trkpt lat="45.75131" lon="4.65011">
        <ele>455.4</ele>
        <time>2025-12-11T15:15:53Z</time>
      </trkpt>
      <trkpt lat="45.75131" lon="4.6501">
        <ele>455.4</ele>
        <time>2025-12-11T15:15:54Z</time>
      </trkpt>
      <trkpt lat="45.75131" lon="4.6501">
        <ele>455.4</ele>
        <time>2025-12-11T15:15:55Z</time>
      </trkpt>
      <trkpt lat="45.75131" lon="4.6501">
        <ele>455.4</ele>
        <time>2025-12-11T15:15:56Z</time>
      </trkpt>
      <trkpt lat="45.75131" lon="4.6501">
        <ele>455.6</ele>
        <time>2025-12-11T15:15:57Z</time>
      </trkpt>
      <trkpt lat="45.75131" lon="4.6501">
        <ele>455.6</ele>
        <time>2025-12-11T15:15:58Z</time>
      </trkpt>
      <trkpt lat="45.7513" lon="4.65009">
        <ele>455.6</ele>
        <time>2025-12-11T15:15:59Z</time>
      </trkpt>
      <trkpt lat="45.7513" lon="4.65007">
        <ele>455.6</ele>
        <time>2025-12-11T15:16:00Z</time>
      </trkpt>
      <trkpt lat="45.7513" lon="4.65005">
        <ele>455.6</ele>
        <time>2025-12-11T15:16:01Z</time>
      </trkpt>
      <trkpt lat="45.7513" lon="4.65003">
        <ele>455.6</ele>
        <time>2025-12-11T15:16:02Z</time>
      </trkpt>
      <trkpt lat="45.75129" lon="4.65">
        <ele>455.6</ele>
        <time>2025-12-11T15:16:03Z</time>
      </trkpt>
      <trkpt lat="45.7513" lon="4.64998">
        <ele>455.8</ele>
        <time>2025-12-11T15:16:04Z</time>
      </trkpt>
      <trkpt lat="45.75129" lon="4.64995">
        <ele>455.8</ele>
        <time>2025-12-11T15:16:05Z</time>
      </trkpt>
      <trkpt lat="45.75128" lon="4.64993">
        <ele>456</ele>
        <time>2025-12-11T15:16:06Z</time>
      </trkpt>
      <trkpt lat="45.75127" lon="4.6499">
        <ele>456</ele>
        <time>2025-12-11T15:16:07Z</time>
      </trkpt>
      <trkpt lat="45.75126" lon="4.64988">
        <ele>456.2</ele>
        <time>2025-12-11T15:16:08Z</time>
      </trkpt>
      <trkpt lat="45.75125" lon="4.64985">
        <ele>456.4</ele>
        <time>2025-12-11T15:16:09Z</time>
      </trkpt>
      <trkpt lat="45.75124" lon="4.64983">
        <ele>456.4</ele>
        <time>2025-12-11T15:16:10Z</time>
      </trkpt>
      <trkpt lat="45.75123" lon="4.6498">
        <ele>456.6</ele>
        <time>2025-12-11T15:16:11Z</time>
      </trkpt>
      <trkpt lat="45.75123" lon="4.64978">
        <ele>456.8</ele>
        <time>2025-12-11T15:16:12Z</time>
      </trkpt>
      <trkpt lat="45.75123" lon="4.64975">
        <ele>457</ele>
        <time>2025-12-11T15:16:13Z</time>
      </trkpt>
      <trkpt lat="45.75122" lon="4.64972">
        <ele>457.2</ele>
        <time>2025-12-11T15:16:14Z</time>
      </trkpt>
      <trkpt lat="45.75122" lon="4.64969">
        <ele>457.2</ele>
        <time>2025-12-11T15:16:15Z</time>
      </trkpt>
      <trkpt lat="45.75122" lon="4.64966">
        <ele>457.4</ele>
        <time>2025-12-11T15:16:16Z</time>
      </trkpt>
      <trkpt lat="45.75122" lon="4.64964">
        <ele>457.6</ele>
        <time>2025-12-11T15:16:17Z</time>
      </trkpt>
      <trkpt lat="45.75121" lon="4.64961">
        <ele>457.8</ele>
        <time>2025-12-11T15:16:18Z</time>
      </trkpt>
      <trkpt lat="45.75121" lon="4.64959">
        <ele>458</ele>
        <time>2025-12-11T15:16:19Z</time>
      </trkpt>
      <trkpt lat="45.75121" lon="4.64956">
        <ele>458.2</ele>
        <time>2025-12-11T15:16:20Z</time>
      </trkpt>
      <trkpt lat="45.75121" lon="4.64953">
        <ele>458.4</ele>
        <time>2025-12-11T15:16:21Z</time>
      </trkpt>
      <trkpt lat="45.7512" lon="4.64951">
        <ele>458.6</ele>
        <time>2025-12-11T15:16:22Z</time>
      </trkpt>
      <trkpt lat="45.7512" lon="4.64949">
        <ele>458.8</ele>
        <time>2025-12-11T15:16:23Z</time>
      </trkpt>
      <trkpt lat="45.7512" lon="4.64946">
        <ele>459</ele>
        <time>2025-12-11T15:16:24Z</time>
      </trkpt>
      <trkpt lat="45.75119" lon="4.64944">
        <ele>459.2</ele>
        <time>2025-12-11T15:16:25Z</time>
      </trkpt>
      <trkpt lat="45.7512" lon="4.64942">
        <ele>459.4</ele>
        <time>2025-12-11T15:16:26Z</time>
      </trkpt>
      <trkpt lat="45.75119" lon="4.6494">
        <ele>459.6</ele>
        <time>2025-12-11T15:16:27Z</time>
      </trkpt>
      <trkpt lat="45.75119" lon="4.64937">
        <ele>460</ele>
        <time>2025-12-11T15:16:28Z</time>
      </trkpt>
      <trkpt lat="45.75119" lon="4.64935">
        <ele>460.2</ele>
        <time>2025-12-11T15:16:29Z</time>
      </trkpt>
      <trkpt lat="45.75119" lon="4.64933">
        <ele>460.4</ele>
        <time>2025-12-11T15:16:30Z</time>
      </trkpt>
      <trkpt lat="45.75119" lon="4.64931">
        <ele>460.6</ele>
        <time>2025-12-11T15:16:31Z</time>
      </trkpt>
      <trkpt lat="45.75118" lon="4.64929">
        <ele>460.8</ele>
        <time>2025-12-11T15:16:32Z</time>
      </trkpt>
      <trkpt lat="45.75118" lon="4.64928">
        <ele>461</ele>
        <time>2025-12-11T15:16:33Z</time>
      </trkpt>
      <trkpt lat="45.75118" lon="4.64926">
        <ele>461.2</ele>
        <time>2025-12-11T15:16:34Z</time>
      </trkpt>
      <trkpt lat="45.75118" lon="4.64924">
        <ele>461.4</ele>
        <time>2025-12-11T15:16:35Z</time>
      </trkpt>
      <trkpt lat="45.75117" lon="4.64922">
        <ele>461.6</ele>
        <time>2025-12-11T15:16:36Z</time>
      </trkpt>
      <trkpt lat="45.75117" lon="4.6492">
        <ele>461.8</ele>
        <time>2025-12-11T15:16:37Z</time>
      </trkpt>
      <trkpt lat="45.75116" lon="4.64918">
        <ele>462</ele>
        <time>2025-12-11T15:16:38Z</time>
      </trkpt>
      <trkpt lat="45.75116" lon="4.64916">
        <ele>462.2</ele>
        <time>2025-12-11T15:16:39Z</time>
      </trkpt>
      <trkpt lat="45.75116" lon="4.64914">
        <ele>462.4</ele>
        <time>2025-12-11T15:16:40Z</time>
      </trkpt>
      <trkpt lat="45.75116" lon="4.64912">
        <ele>462.6</ele>
        <time>2025-12-11T15:16:41Z</time>
      </trkpt>
      <trkpt lat="45.75116" lon="4.64911">
        <ele>462.8</ele>
        <time>2025-12-11T15:16:42Z</time>
      </trkpt>
      <trkpt lat="45.75116" lon="4.64909">
        <ele>463</ele>
        <time>2025-12-11T15:16:43Z</time>
      </trkpt>
      <trkpt lat="45.75116" lon="4.64907">
        <ele>463.2</ele>
        <time>2025-12-11T15:16:44Z</time>
      </trkpt>
      <trkpt lat="45.75116" lon="4.64905">
        <ele>463.4</ele>
        <time>2025-12-11T15:16:45Z</time>
      </trkpt>
      <trkpt lat="45.75116" lon="4.64903">
        <ele>463.6</ele>
        <time>2025-12-11T15:16:46Z</time>
      </trkpt>
      <trkpt lat="45.75116" lon="4.64901">
        <ele>463.8</ele>
        <time>2025-12-11T15:16:47Z</time>
      </trkpt>
      <trkpt lat="45.75115" lon="4.64899">
        <ele>464</ele>
        <time>2025-12-11T15:16:48Z</time>
      </trkpt>
      <trkpt lat="45.75116" lon="4.64897">
        <ele>464.2</ele>
        <time>2025-12-11T15:16:49Z</time>
      </trkpt>
      <trkpt lat="45.75115" lon="4.64895">
        <ele>464.4</ele>
        <time>2025-12-11T15:16:50Z</time>
      </trkpt>
      <trkpt lat="45.75115" lon="4.64894">
        <ele>464.6</ele>
        <time>2025-12-11T15:16:51Z</time>
      </trkpt>
      <trkpt lat="45.75115" lon="4.64892">
        <ele>464.8</ele>
        <time>2025-12-11T15:16:52Z</time>
      </trkpt>
      <trkpt lat="45.75114" lon="4.6489">
        <ele>465</ele>
        <time>2025-12-11T15:16:53Z</time>
      </trkpt>
      <trkpt lat="45.75113" lon="4.64889">
        <ele>465.2</ele>
        <time>2025-12-11T15:16:54Z</time>
      </trkpt>
      <trkpt lat="45.75113" lon="4.64887">
        <ele>465.4</ele>
        <time>2025-12-11T15:16:55Z</time>
      </trkpt>
      <trkpt lat="45.75113" lon="4.64885">
        <ele>465.4</ele>
        <time>2025-12-11T15:16:56Z</time>
      </trkpt>
      <trkpt lat="45.75113" lon="4.64884">
        <ele>465.8</ele>
        <time>2025-12-11T15:16:57Z</time>
      </trkpt>
      <trkpt lat="45.75113" lon="4.64882">
        <ele>466</ele>
        <time>2025-12-11T15:16:58Z</time>
      </trkpt>
      <trkpt lat="45.75113" lon="4.6488">
        <ele>466.2</ele>
        <time>2025-12-11T15:16:59Z</time>
      </trkpt>
      <trkpt lat="45.75113" lon="4.64878">
        <ele>466.4</ele>
        <time>2025-12-11T15:17:00Z</time>
      </trkpt>
      <trkpt lat="45.75113" lon="4.64877">
        <ele>466.6</ele>
        <time>2025-12-11T15:17:01Z</time>
      </trkpt>
      <trkpt lat="45.75112" lon="4.64875">
        <ele>466.8</ele>
        <time>2025-12-11T15:17:02Z</time>
      </trkpt>
      <trkpt lat="45.75112" lon="4.64874">
        <ele>467</ele>
        <time>2025-12-11T15:17:03Z</time>
      </trkpt>
      <trkpt lat="45.75112" lon="4.64872">
        <ele>467.2</ele>
        <time>2025-12-11T15:17:04Z</time>
      </trkpt>
      <trkpt lat="45.75111" lon="4.64871">
        <ele>467.4</ele>
        <time>2025-12-11T15:17:05Z</time>
      </trkpt>
      <trkpt lat="45.75111" lon="4.6487">
        <ele>467.8</ele>
        <time>2025-12-11T15:17:06Z</time>
      </trkpt>
      <trkpt lat="45.75111" lon="4.64868">
        <ele>468</ele>
        <time>2025-12-11T15:17:07Z</time>
      </trkpt>
      <trkpt lat="45.75112" lon="4.64866">
        <ele>468.2</ele>
        <time>2025-12-11T15:17:08Z</time>
      </trkpt>
      <trkpt lat="45.75111" lon="4.64864">
        <ele>468.4</ele>
        <time>2025-12-11T15:17:09Z</time>
      </trkpt>
      <trkpt lat="45.75111" lon="4.64862">
        <ele>468.6</ele>
        <time>2025-12-11T15:17:10Z</time>
      </trkpt>
      <trkpt lat="45.75111" lon="4.6486">
        <ele>468.8</ele>
        <time>2025-12-11T15:17:11Z</time>
      </trkpt>
      <trkpt lat="45.75111" lon="4.64858">
        <ele>469</ele>
        <time>2025-12-11T15:17:12Z</time>
      </trkpt>
      <trkpt lat="45.75111" lon="4.64857">
        <ele>469.2</ele>
        <time>2025-12-11T15:17:13Z</time>
      </trkpt>
      <trkpt lat="45.75111" lon="4.64855">
        <ele>469.6</ele>
        <time>2025-12-11T15:17:14Z</time>
      </trkpt>
      <trkpt lat="45.75111" lon="4.64855">
        <ele>469.8</ele>
        <time>2025-12-11T15:17:15Z</time>
      </trkpt>
      <trkpt lat="45.75111" lon="4.64855">
        <ele>470</ele>
        <time>2025-12-11T15:17:16Z</time>
      </trkpt>
      <trkpt lat="45.75111" lon="4.64855">
        <ele>470.2</ele>
        <time>2025-12-11T15:17:17Z</time>
      </trkpt>
      <trkpt lat="45.75111" lon="4.64855">
        <ele>470.4</ele>
        <time>2025-12-11T15:17:18Z</time>
      </trkpt>
      <trkpt lat="45.75111" lon="4.64855">
        <ele>470.4</ele>
        <time>2025-12-11T15:17:19Z</time>
      </trkpt>
      <trkpt lat="45.75111" lon="4.64854">
        <ele>470.4</ele>
        <time>2025-12-11T15:17:20Z</time>
      </trkpt>
      <trkpt lat="45.75112" lon="4.64854">
        <ele>470.4</ele>
        <time>2025-12-11T15:17:21Z</time>
      </trkpt>
      <trkpt lat="45.75113" lon="4.64853">
        <ele>470.4</ele>
        <time>2025-12-11T15:17:22Z</time>
      </trkpt>
      <trkpt lat="45.75113" lon="4.64851">
        <ele>470.4</ele>
        <time>2025-12-11T15:17:23Z</time>
      </trkpt>
      <trkpt lat="45.75112" lon="4.64849">
        <ele>470.4</ele>
        <time>2025-12-11T15:17:24Z</time>
      </trkpt>
      <trkpt lat="45.75111" lon="4.64848">
        <ele>470.4</ele>
        <time>2025-12-11T15:17:25Z</time>
      </trkpt>
      <trkpt lat="45.7511" lon="4.64848">
        <ele>470.4</ele>
        <time>2025-12-11T15:17:26Z</time>
      </trkpt>
      <trkpt lat="45.75109" lon="4.64849">
        <ele>470.6</ele>
        <time>2025-12-11T15:17:27Z</time>
      </trkpt>
      <trkpt lat="45.75108" lon="4.64851">
        <ele>470.6</ele>
        <time>2025-12-11T15:17:28Z</time>
      </trkpt>
      <trkpt lat="45.75107" lon="4.64853">
        <ele>470.8</ele>
        <time>2025-12-11T15:17:29Z</time>
      </trkpt>
      <trkpt lat="45.75107" lon="4.64855">
        <ele>471</ele>
        <time>2025-12-11T15:17:30Z</time>
      </trkpt>
      <trkpt lat="45.75106" lon="4.64857">
        <ele>471</ele>
        <time>2025-12-11T15:17:31Z</time>
      </trkpt>
      <trkpt lat="45.75105" lon="4.64859">
        <ele>471.2</ele>
        <time>2025-12-11T15:17:32Z</time>
      </trkpt>
      <trkpt lat="45.75104" lon="4.6486">
        <ele>471.2</ele>
        <time>2025-12-11T15:17:33Z</time>
      </trkpt>
      <trkpt lat="45.75103" lon="4.64861">
        <ele>471.4</ele>
        <time>2025-12-11T15:17:34Z</time>
      </trkpt>
      <trkpt lat="45.75101" lon="4.64862">
        <ele>471.4</ele>
        <time>2025-12-11T15:17:35Z</time>
      </trkpt>
      <trkpt lat="45.751" lon="4.64864">
        <ele>471.6</ele>
        <time>2025-12-11T15:17:36Z</time>
      </trkpt>
      <trkpt lat="45.75099" lon="4.64865">
        <ele>471.8</ele>
        <time>2025-12-11T15:17:37Z</time>
      </trkpt>
      <trkpt lat="45.75097" lon="4.64866">
        <ele>472</ele>
        <time>2025-12-11T15:17:38Z</time>
      </trkpt>
      <trkpt lat="45.75096" lon="4.64867">
        <ele>472.2</ele>
        <time>2025-12-11T15:17:39Z</time>
      </trkpt>
      <trkpt lat="45.75095" lon="4.64868">
        <ele>472.4</ele>
        <time>2025-12-11T15:17:40Z</time>
      </trkpt>
      <trkpt lat="45.75093" lon="4.64869">
        <ele>472.4</ele>
        <time>2025-12-11T15:17:41Z</time>
      </trkpt>
      <trkpt lat="45.75092" lon="4.6487">
        <ele>472.6</ele>
        <time>2025-12-11T15:17:42Z</time>
      </trkpt>
      <trkpt lat="45.7509" lon="4.64871">
        <ele>472.8</ele>
        <time>2025-12-11T15:17:43Z</time>
      </trkpt>
      <trkpt lat="45.75089" lon="4.64871">
        <ele>473</ele>
        <time>2025-12-11T15:17:44Z</time>
      </trkpt>
      <trkpt lat="45.75087" lon="4.64872">
        <ele>473.2</ele>
        <time>2025-12-11T15:17:45Z</time>
      </trkpt>
      <trkpt lat="45.75086" lon="4.64872">
        <ele>473.4</ele>
        <time>2025-12-11T15:17:46Z</time>
      </trkpt>
      <trkpt lat="45.75085" lon="4.64874">
        <ele>473.6</ele>
        <time>2025-12-11T15:17:47Z</time>
      </trkpt>
      <trkpt lat="45.75084" lon="4.64875">
        <ele>473.8</ele>
        <time>2025-12-11T15:17:48Z</time>
      </trkpt>
      <trkpt lat="45.75082" lon="4.64875">
        <ele>474</ele>
        <time>2025-12-11T15:17:49Z</time>
      </trkpt>
      <trkpt lat="45.75081" lon="4.64875">
        <ele>474</ele>
        <time>2025-12-11T15:17:50Z</time>
      </trkpt>
      <trkpt lat="45.7508" lon="4.64876">
        <ele>474.2</ele>
        <time>2025-12-11T15:17:51Z</time>
      </trkpt>
      <trkpt lat="45.75078" lon="4.64876">
        <ele>474.4</ele>
        <time>2025-12-11T15:17:52Z</time>
      </trkpt>
      <trkpt lat="45.75077" lon="4.64877">
        <ele>474.6</ele>
        <time>2025-12-11T15:17:53Z</time>
      </trkpt>
      <trkpt lat="45.75076" lon="4.64878">
        <ele>474.8</ele>
        <time>2025-12-11T15:17:54Z</time>
      </trkpt>
      <trkpt lat="45.75075" lon="4.64878">
        <ele>475</ele>
        <time>2025-12-11T15:17:55Z</time>
      </trkpt>
      <trkpt lat="45.75073" lon="4.64878">
        <ele>475.2</ele>
        <time>2025-12-11T15:17:56Z</time>
      </trkpt>
      <trkpt lat="45.75072" lon="4.64878">
        <ele>475.4</ele>
        <time>2025-12-11T15:17:57Z</time>
      </trkpt>
      <trkpt lat="45.7507" lon="4.64877">
        <ele>475.6</ele>
        <time>2025-12-11T15:17:58Z</time>
      </trkpt>
      <trkpt lat="45.75069" lon="4.64877">
        <ele>475.6</ele>
        <time>2025-12-11T15:17:59Z</time>
      </trkpt>
      <trkpt lat="45.75068" lon="4.64877">
        <ele>475.8</ele>
        <time>2025-12-11T15:18:00Z</time>
      </trkpt>
      <trkpt lat="45.75066" lon="4.64877">
        <ele>476</ele>
        <time>2025-12-11T15:18:01Z</time>
      </trkpt>
      <trkpt lat="45.75065" lon="4.64876">
        <ele>476.2</ele>
        <time>2025-12-11T15:18:02Z</time>
      </trkpt>
      <trkpt lat="45.75063" lon="4.64876">
        <ele>476.4</ele>
        <time>2025-12-11T15:18:03Z</time>
      </trkpt>
      <trkpt lat="45.75062" lon="4.64875">
        <ele>476.6</ele>
        <time>2025-12-11T15:18:04Z</time>
      </trkpt>
      <trkpt lat="45.75061" lon="4.64874">
        <ele>476.8</ele>
        <time>2025-12-11T15:18:05Z</time>
      </trkpt>
      <trkpt lat="45.75059" lon="4.64874">
        <ele>477</ele>
        <time>2025-12-11T15:18:06Z</time>
      </trkpt>
      <trkpt lat="45.75058" lon="4.64873">
        <ele>477.2</ele>
        <time>2025-12-11T15:18:07Z</time>
      </trkpt>
      <trkpt lat="45.75056" lon="4.64873">
        <ele>477.4</ele>
        <time>2025-12-11T15:18:08Z</time>
      </trkpt>
      <trkpt lat="45.75055" lon="4.64873">
        <ele>477.6</ele>
        <time>2025-12-11T15:18:09Z</time>
      </trkpt>
      <trkpt lat="45.75053" lon="4.64872">
        <ele>477.6</ele>
        <time>2025-12-11T15:18:10Z</time>
      </trkpt>
      <trkpt lat="45.75051" lon="4.64872">
        <ele>477.8</ele>
        <time>2025-12-11T15:18:11Z</time>
      </trkpt>
      <trkpt lat="45.7505" lon="4.64871">
        <ele>477.8</ele>
        <time>2025-12-11T15:18:12Z</time>
      </trkpt>
      <trkpt lat="45.75048" lon="4.6487">
        <ele>478</ele>
        <time>2025-12-11T15:18:13Z</time>
      </trkpt>
      <trkpt lat="45.75046" lon="4.64869">
        <ele>478</ele>
        <time>2025-12-11T15:18:14Z</time>
      </trkpt>
      <trkpt lat="45.75045" lon="4.64868">
        <ele>478.2</ele>
        <time>2025-12-11T15:18:15Z</time>
      </trkpt>
      <trkpt lat="45.75043" lon="4.64867">
        <ele>478.2</ele>
        <time>2025-12-11T15:18:16Z</time>
      </trkpt>
      <trkpt lat="45.75041" lon="4.64866">
        <ele>478.4</ele>
        <time>2025-12-11T15:18:17Z</time>
      </trkpt>
      <trkpt lat="45.75039" lon="4.64866">
        <ele>478.6</ele>
        <time>2025-12-11T15:18:18Z</time>
      </trkpt>
      <trkpt lat="45.75037" lon="4.64865">
        <ele>478.6</ele>
        <time>2025-12-11T15:18:19Z</time>
      </trkpt>
      <trkpt lat="45.75035" lon="4.64864">
        <ele>478.8</ele>
        <time>2025-12-11T15:18:20Z</time>
      </trkpt>
      <trkpt lat="45.75033" lon="4.64863">
        <ele>478.8</ele>
        <time>2025-12-11T15:18:21Z</time>
      </trkpt>
      <trkpt lat="45.75031" lon="4.64862">
        <ele>478.8</ele>
        <time>2025-12-11T15:18:22Z</time>
      </trkpt>
      <trkpt lat="45.75029" lon="4.64862">
        <ele>479</ele>
        <time>2025-12-11T15:18:23Z</time>
      </trkpt>
      <trkpt lat="45.75027" lon="4.64862">
        <ele>479</ele>
        <time>2025-12-11T15:18:24Z</time>
      </trkpt>
      <trkpt lat="45.75025" lon="4.64861">
        <ele>479.2</ele>
        <time>2025-12-11T15:18:25Z</time>
      </trkpt>
      <trkpt lat="45.75023" lon="4.64861">
        <ele>479.2</ele>
        <time>2025-12-11T15:18:26Z</time>
      </trkpt>
      <trkpt lat="45.75022" lon="4.64861">
        <ele>479.2</ele>
        <time>2025-12-11T15:18:27Z</time>
      </trkpt>
      <trkpt lat="45.75019" lon="4.64861">
        <ele>479.2</ele>
        <time>2025-12-11T15:18:28Z</time>
      </trkpt>
      <trkpt lat="45.75017" lon="4.64861">
        <ele>479.4</ele>
        <time>2025-12-11T15:18:29Z</time>
      </trkpt>
      <trkpt lat="45.75015" lon="4.64861">
        <ele>479.4</ele>
        <time>2025-12-11T15:18:30Z</time>
      </trkpt>
      <trkpt lat="45.75012" lon="4.64861">
        <ele>479.4</ele>
        <time>2025-12-11T15:18:31Z</time>
      </trkpt>
      <trkpt lat="45.7501" lon="4.6486">
        <ele>479.4</ele>
        <time>2025-12-11T15:18:32Z</time>
      </trkpt>
      <trkpt lat="45.75007" lon="4.64859">
        <ele>479.4</ele>
        <time>2025-12-11T15:18:33Z</time>
      </trkpt>
      <trkpt lat="45.75004" lon="4.64858">
        <ele>479.4</ele>
        <time>2025-12-11T15:18:34Z</time>
      </trkpt>
      <trkpt lat="45.75002" lon="4.64858">
        <ele>479.2</ele>
        <time>2025-12-11T15:18:35Z</time>
      </trkpt>
      <trkpt lat="45.74999" lon="4.64857">
        <ele>479.2</ele>
        <time>2025-12-11T15:18:36Z</time>
      </trkpt>
      <trkpt lat="45.74996" lon="4.64857">
        <ele>479.2</ele>
        <time>2025-12-11T15:18:37Z</time>
      </trkpt>
      <trkpt lat="45.74993" lon="4.64857">
        <ele>479</ele>
        <time>2025-12-11T15:18:38Z</time>
      </trkpt>
      <trkpt lat="45.7499" lon="4.64857">
        <ele>478.8</ele>
        <time>2025-12-11T15:18:39Z</time>
      </trkpt>
      <trkpt lat="45.74987" lon="4.64856">
        <ele>478.8</ele>
        <time>2025-12-11T15:18:40Z</time>
      </trkpt>
      <trkpt lat="45.74984" lon="4.64856">
        <ele>478.6</ele>
        <time>2025-12-11T15:18:41Z</time>
      </trkpt>
      <trkpt lat="45.7498" lon="4.64855">
        <ele>478.6</ele>
        <time>2025-12-11T15:18:42Z</time>
      </trkpt>
      <trkpt lat="45.74976" lon="4.64854">
        <ele>478.4</ele>
        <time>2025-12-11T15:18:43Z</time>
      </trkpt>
      <trkpt lat="45.74973" lon="4.64853">
        <ele>478.4</ele>
        <time>2025-12-11T15:18:44Z</time>
      </trkpt>
      <trkpt lat="45.74969" lon="4.64853">
        <ele>478.4</ele>
        <time>2025-12-11T15:18:45Z</time>
      </trkpt>
      <trkpt lat="45.74965" lon="4.64852">
        <ele>478.2</ele>
        <time>2025-12-11T15:18:46Z</time>
      </trkpt>
      <trkpt lat="45.74962" lon="4.6485">
        <ele>478.2</ele>
        <time>2025-12-11T15:18:47Z</time>
      </trkpt>
      <trkpt lat="45.74958" lon="4.64848">
        <ele>478</ele>
        <time>2025-12-11T15:18:48Z</time>
      </trkpt>
      <trkpt lat="45.74954" lon="4.64846">
        <ele>478</ele>
        <time>2025-12-11T15:18:49Z</time>
      </trkpt>
      <trkpt lat="45.7495" lon="4.64844">
        <ele>477.8</ele>
        <time>2025-12-11T15:18:50Z</time>
      </trkpt>
      <trkpt lat="45.74946" lon="4.64841">
        <ele>477.8</ele>
        <time>2025-12-11T15:18:51Z</time>
      </trkpt>
      <trkpt lat="45.74942" lon="4.64838">
        <ele>477.6</ele>
        <time>2025-12-11T15:18:52Z</time>
      </trkpt>
      <trkpt lat="45.74939" lon="4.64833">
        <ele>477.6</ele>
        <time>2025-12-11T15:18:53Z</time>
      </trkpt>
      <trkpt lat="45.74936" lon="4.64828">
        <ele>477.6</ele>
        <time>2025-12-11T15:18:54Z</time>
      </trkpt>
      <trkpt lat="45.74934" lon="4.64823">
        <ele>477.4</ele>
        <time>2025-12-11T15:18:55Z</time>
      </trkpt>
      <trkpt lat="45.74931" lon="4.64818">
        <ele>477.4</ele>
        <time>2025-12-11T15:18:56Z</time>
      </trkpt>
      <trkpt lat="45.74928" lon="4.64813">
        <ele>477.4</ele>
        <time>2025-12-11T15:18:57Z</time>
      </trkpt>
      <trkpt lat="45.74925" lon="4.64808">
        <ele>477.4</ele>
        <time>2025-12-11T15:18:58Z</time>
      </trkpt>
      <trkpt lat="45.74922" lon="4.64802">
        <ele>477.4</ele>
        <time>2025-12-11T15:18:59Z</time>
      </trkpt>
      <trkpt lat="45.7492" lon="4.64797">
        <ele>477.2</ele>
        <time>2025-12-11T15:19:00Z</time>
      </trkpt>
      <trkpt lat="45.74917" lon="4.64791">
        <ele>477.2</ele>
        <time>2025-12-11T15:19:01Z</time>
      </trkpt>
      <trkpt lat="45.74916" lon="4.64785">
        <ele>477.2</ele>
        <time>2025-12-11T15:19:02Z</time>
      </trkpt>
      <trkpt lat="45.74914" lon="4.64779">
        <ele>477.2</ele>
        <time>2025-12-11T15:19:03Z</time>
      </trkpt>
      <trkpt lat="45.74913" lon="4.64773">
        <ele>477.2</ele>
        <time>2025-12-11T15:19:04Z</time>
      </trkpt>
      <trkpt lat="45.74912" lon="4.64768">
        <ele>477.4</ele>
        <time>2025-12-11T15:19:05Z</time>
      </trkpt>
      <trkpt lat="45.7491" lon="4.64762">
        <ele>477.4</ele>
        <time>2025-12-11T15:19:06Z</time>
      </trkpt>
      <trkpt lat="45.74908" lon="4.64758">
        <ele>477.6</ele>
        <time>2025-12-11T15:19:07Z</time>
      </trkpt>
      <trkpt lat="45.74906" lon="4.64754">
        <ele>478</ele>
        <time>2025-12-11T15:19:08Z</time>
      </trkpt>
      <trkpt lat="45.74903" lon="4.64752">
        <ele>478.2</ele>
        <time>2025-12-11T15:19:09Z</time>
      </trkpt>
      <trkpt lat="45.749" lon="4.6475">
        <ele>478.6</ele>
        <time>2025-12-11T15:19:10Z</time>
      </trkpt>
      <trkpt lat="45.74897" lon="4.64748">
        <ele>479</ele>
        <time>2025-12-11T15:19:11Z</time>
      </trkpt>
      <trkpt lat="45.74894" lon="4.64746">
        <ele>479.2</ele>
        <time>2025-12-11T15:19:12Z</time>
      </trkpt>
      <trkpt lat="45.74891" lon="4.64745">
        <ele>479.6</ele>
        <time>2025-12-11T15:19:13Z</time>
      </trkpt>
      <trkpt lat="45.74888" lon="4.64745">
        <ele>480</ele>
        <time>2025-12-11T15:19:14Z</time>
      </trkpt>
      <trkpt lat="45.74885" lon="4.64745">
        <ele>480.2</ele>
        <time>2025-12-11T15:19:15Z</time>
      </trkpt>
      <trkpt lat="45.74882" lon="4.64744">
        <ele>480.6</ele>
        <time>2025-12-11T15:19:16Z</time>
      </trkpt>
      <trkpt lat="45.74879" lon="4.64744">
        <ele>480.8</ele>
        <time>2025-12-11T15:19:17Z</time>
      </trkpt>
      <trkpt lat="45.74876" lon="4.64744">
        <ele>481</ele>
        <time>2025-12-11T15:19:18Z</time>
      </trkpt>
      <trkpt lat="45.74874" lon="4.64745">
        <ele>481.4</ele>
        <time>2025-12-11T15:19:19Z</time>
      </trkpt>
      <trkpt lat="45.74871" lon="4.64746">
        <ele>481.6</ele>
        <time>2025-12-11T15:19:20Z</time>
      </trkpt>
      <trkpt lat="45.74869" lon="4.64746">
        <ele>481.8</ele>
        <time>2025-12-11T15:19:21Z</time>
      </trkpt>
      <trkpt lat="45.74868" lon="4.64747">
        <ele>482.2</ele>
        <time>2025-12-11T15:19:22Z</time>
      </trkpt>
      <trkpt lat="45.74867" lon="4.64748">
        <ele>482.4</ele>
        <time>2025-12-11T15:19:23Z</time>
      </trkpt>
      <trkpt lat="45.74867" lon="4.64748">
        <ele>482.8</ele>
        <time>2025-12-11T15:19:24Z</time>
      </trkpt>
      <trkpt lat="45.74865" lon="4.64748">
        <ele>483</ele>
        <time>2025-12-11T15:19:25Z</time>
      </trkpt>
      <trkpt lat="45.74864" lon="4.64749">
        <ele>483.4</ele>
        <time>2025-12-11T15:19:26Z</time>
      </trkpt>
      <trkpt lat="45.74862" lon="4.64751">
        <ele>483.6</ele>
        <time>2025-12-11T15:19:27Z</time>
      </trkpt>
      <trkpt lat="45.7486" lon="4.64753">
        <ele>483.8</ele>
        <time>2025-12-11T15:19:28Z</time>
      </trkpt>
      <trkpt lat="45.74859" lon="4.64754">
        <ele>484</ele>
        <time>2025-12-11T15:19:29Z</time>
      </trkpt>
      <trkpt lat="45.74858" lon="4.64755">
        <ele>484.2</ele>
        <time>2025-12-11T15:19:30Z</time>
      </trkpt>
      <trkpt lat="45.74857" lon="4.64757">
        <ele>484.4</ele>
        <time>2025-12-11T15:19:31Z</time>
      </trkpt>
      <trkpt lat="45.74855" lon="4.64758">
        <ele>484.6</ele>
        <time>2025-12-11T15:19:32Z</time>
      </trkpt>
      <trkpt lat="45.74854" lon="4.64759">
        <ele>484.8</ele>
        <time>2025-12-11T15:19:33Z</time>
      </trkpt>
      <trkpt lat="45.74853" lon="4.6476">
        <ele>485</ele>
        <time>2025-12-11T15:19:34Z</time>
      </trkpt>
      <trkpt lat="45.74852" lon="4.6476">
        <ele>485.2</ele>
        <time>2025-12-11T15:19:35Z</time>
      </trkpt>
      <trkpt lat="45.74851" lon="4.6476">
        <ele>485.4</ele>
        <time>2025-12-11T15:19:36Z</time>
      </trkpt>
      <trkpt lat="45.7485" lon="4.64762">
        <ele>485.4</ele>
        <time>2025-12-11T15:19:37Z</time>
      </trkpt>
      <trkpt lat="45.74847" lon="4.64764">
        <ele>485.6</ele>
        <time>2025-12-11T15:19:38Z</time>
      </trkpt>
      <trkpt lat="45.74845" lon="4.64766">
        <ele>485.8</ele>
        <time>2025-12-11T15:19:39Z</time>
      </trkpt>
      <trkpt lat="45.74844" lon="4.64768">
        <ele>486</ele>
        <time>2025-12-11T15:19:40Z</time>
      </trkpt>
      <trkpt lat="45.74843" lon="4.6477">
        <ele>486.2</ele>
        <time>2025-12-11T15:19:41Z</time>
      </trkpt>
      <trkpt lat="45.74841" lon="4.64771">
        <ele>486.2</ele>
        <time>2025-12-11T15:19:42Z</time>
      </trkpt>
      <trkpt lat="45.74839" lon="4.64773">
        <ele>486.4</ele>
        <time>2025-12-11T15:19:43Z</time>
      </trkpt>
      <trkpt lat="45.74838" lon="4.64773">
        <ele>486.6</ele>
        <time>2025-12-11T15:19:44Z</time>
      </trkpt>
      <trkpt lat="45.74838" lon="4.64773">
        <ele>486.6</ele>
        <time>2025-12-11T15:19:45Z</time>
      </trkpt>
      <trkpt lat="45.74839" lon="4.64775">
        <ele>486.8</ele>
        <time>2025-12-11T15:19:46Z</time>
      </trkpt>
      <trkpt lat="45.74838" lon="4.64777">
        <ele>487</ele>
        <time>2025-12-11T15:19:47Z</time>
      </trkpt>
      <trkpt lat="45.74836" lon="4.64781">
        <ele>487.2</ele>
        <time>2025-12-11T15:19:48Z</time>
      </trkpt>
      <trkpt lat="45.74834" lon="4.64784">
        <ele>487.4</ele>
        <time>2025-12-11T15:19:49Z</time>
      </trkpt>
      <trkpt lat="45.74833" lon="4.64786">
        <ele>487.6</ele>
        <time>2025-12-11T15:19:50Z</time>
      </trkpt>
      <trkpt lat="45.74831" lon="4.64788">
        <ele>487.8</ele>
        <time>2025-12-11T15:19:51Z</time>
      </trkpt>
      <trkpt lat="45.74829" lon="4.6479">
        <ele>488</ele>
        <time>2025-12-11T15:19:52Z</time>
      </trkpt>
      <trkpt lat="45.74827" lon="4.64793">
        <ele>488.2</ele>
        <time>2025-12-11T15:19:53Z</time>
      </trkpt>
      <trkpt lat="45.74824" lon="4.64795">
        <ele>488.4</ele>
        <time>2025-12-11T15:19:54Z</time>
      </trkpt>
      <trkpt lat="45.74823" lon="4.64798">
        <ele>488.6</ele>
        <time>2025-12-11T15:19:55Z</time>
      </trkpt>
      <trkpt lat="45.7482" lon="4.64802">
        <ele>488.6</ele>
        <time>2025-12-11T15:19:56Z</time>
      </trkpt>
      <trkpt lat="45.74818" lon="4.64804">
        <ele>488.8</ele>
        <time>2025-12-11T15:19:57Z</time>
      </trkpt>
      <trkpt lat="45.74816" lon="4.64805">
        <ele>489</ele>
        <time>2025-12-11T15:19:58Z</time>
      </trkpt>
      <trkpt lat="45.74815" lon="4.64805">
        <ele>489.2</ele>
        <time>2025-12-11T15:19:59Z</time>
      </trkpt>
      <trkpt lat="45.74815" lon="4.64806">
        <ele>489.4</ele>
        <time>2025-12-11T15:20:00Z</time>
      </trkpt>
      <trkpt lat="45.74815" lon="4.64807">
        <ele>489.6</ele>
        <time>2025-12-11T15:20:01Z</time>
      </trkpt>
      <trkpt lat="45.74813" lon="4.64809">
        <ele>489.8</ele>
        <time>2025-12-11T15:20:02Z</time>
      </trkpt>
      <trkpt lat="45.74813" lon="4.6481">
        <ele>489.8</ele>
        <time>2025-12-11T15:20:03Z</time>
      </trkpt>
      <trkpt lat="45.74812" lon="4.64813">
        <ele>490</ele>
        <time>2025-12-11T15:20:04Z</time>
      </trkpt>
      <trkpt lat="45.7481" lon="4.64815">
        <ele>490.2</ele>
        <time>2025-12-11T15:20:05Z</time>
      </trkpt>
      <trkpt lat="45.74809" lon="4.64817">
        <ele>490.4</ele>
        <time>2025-12-11T15:20:06Z</time>
      </trkpt>
      <trkpt lat="45.74807" lon="4.64819">
        <ele>490.6</ele>
        <time>2025-12-11T15:20:07Z</time>
      </trkpt>
      <trkpt lat="45.74806" lon="4.64822">
        <ele>490.8</ele>
        <time>2025-12-11T15:20:08Z</time>
      </trkpt>
      <trkpt lat="45.74806" lon="4.64824">
        <ele>491</ele>
        <time>2025-12-11T15:20:09Z</time>
      </trkpt>
      <trkpt lat="45.74804" lon="4.64826">
        <ele>491.2</ele>
        <time>2025-12-11T15:20:10Z</time>
      </trkpt>
      <trkpt lat="45.74802" lon="4.64829">
        <ele>491.4</ele>
        <time>2025-12-11T15:20:11Z</time>
      </trkpt>
      <trkpt lat="45.74801" lon="4.64831">
        <ele>491.6</ele>
        <time>2025-12-11T15:20:12Z</time>
      </trkpt>
      <trkpt lat="45.748" lon="4.64834">
        <ele>492</ele>
        <time>2025-12-11T15:20:13Z</time>
      </trkpt>
      <trkpt lat="45.74799" lon="4.64837">
        <ele>492.2</ele>
        <time>2025-12-11T15:20:14Z</time>
      </trkpt>
      <trkpt lat="45.74799" lon="4.6484">
        <ele>492.4</ele>
        <time>2025-12-11T15:20:15Z</time>
      </trkpt>
      <trkpt lat="45.74798" lon="4.64842">
        <ele>492.6</ele>
        <time>2025-12-11T15:20:16Z</time>
      </trkpt>
      <trkpt lat="45.74796" lon="4.64844">
        <ele>492.8</ele>
        <time>2025-12-11T15:20:17Z</time>
      </trkpt>
      <trkpt lat="45.74795" lon="4.64847">
        <ele>493</ele>
        <time>2025-12-11T15:20:18Z</time>
      </trkpt>
      <trkpt lat="45.74793" lon="4.6485">
        <ele>493.2</ele>
        <time>2025-12-11T15:20:19Z</time>
      </trkpt>
      <trkpt lat="45.74793" lon="4.64853">
        <ele>493.4</ele>
        <time>2025-12-11T15:20:20Z</time>
      </trkpt>
      <trkpt lat="45.74791" lon="4.64854">
        <ele>493.6</ele>
        <time>2025-12-11T15:20:21Z</time>
      </trkpt>
      <trkpt lat="45.7479" lon="4.64855">
        <ele>493.8</ele>
        <time>2025-12-11T15:20:22Z</time>
      </trkpt>
      <trkpt lat="45.74789" lon="4.64857">
        <ele>494</ele>
        <time>2025-12-11T15:20:23Z</time>
      </trkpt>
      <trkpt lat="45.74786" lon="4.64858">
        <ele>494.2</ele>
        <time>2025-12-11T15:20:24Z</time>
      </trkpt>
      <trkpt lat="45.74784" lon="4.64859">
        <ele>494.4</ele>
        <time>2025-12-11T15:20:25Z</time>
      </trkpt>
      <trkpt lat="45.74783" lon="4.64861">
        <ele>494.6</ele>
        <time>2025-12-11T15:20:26Z</time>
      </trkpt>
      <trkpt lat="45.74781" lon="4.64863">
        <ele>494.8</ele>
        <time>2025-12-11T15:20:27Z</time>
      </trkpt>
      <trkpt lat="45.7478" lon="4.64865">
        <ele>494.8</ele>
        <time>2025-12-11T15:20:28Z</time>
      </trkpt>
      <trkpt lat="45.74778" lon="4.64865">
        <ele>495</ele>
        <time>2025-12-11T15:20:29Z</time>
      </trkpt>
      <trkpt lat="45.74776" lon="4.64866">
        <ele>495.2</ele>
        <time>2025-12-11T15:20:30Z</time>
      </trkpt>
      <trkpt lat="45.74775" lon="4.64867">
        <ele>495.4</ele>
        <time>2025-12-11T15:20:31Z</time>
      </trkpt>
      <trkpt lat="45.74773" lon="4.64868">
        <ele>495.6</ele>
        <time>2025-12-11T15:20:32Z</time>
      </trkpt>
      <trkpt lat="45.74772" lon="4.64868">
        <ele>495.8</ele>
        <time>2025-12-11T15:20:33Z</time>
      </trkpt>
      <trkpt lat="45.7477" lon="4.64869">
        <ele>496</ele>
        <time>2025-12-11T15:20:34Z</time>
      </trkpt>
      <trkpt lat="45.74768" lon="4.64869">
        <ele>496.2</ele>
        <time>2025-12-11T15:20:35Z</time>
      </trkpt>
      <trkpt lat="45.74766" lon="4.6487">
        <ele>496.2</ele>
        <time>2025-12-11T15:20:36Z</time>
      </trkpt>
      <trkpt lat="45.74765" lon="4.6487">
        <ele>496.4</ele>
        <time>2025-12-11T15:20:37Z</time>
      </trkpt>
      <trkpt lat="45.74764" lon="4.6487">
        <ele>496.6</ele>
        <time>2025-12-11T15:20:38Z</time>
      </trkpt>
      <trkpt lat="45.74763" lon="4.6487">
        <ele>496.6</ele>
        <time>2025-12-11T15:20:39Z</time>
      </trkpt>
      <trkpt lat="45.74761" lon="4.64871">
        <ele>496.8</ele>
        <time>2025-12-11T15:20:40Z</time>
      </trkpt>
      <trkpt lat="45.7476" lon="4.64872">
        <ele>497</ele>
        <time>2025-12-11T15:20:41Z</time>
      </trkpt>
      <trkpt lat="45.74758" lon="4.64873">
        <ele>497.2</ele>
        <time>2025-12-11T15:20:42Z</time>
      </trkpt>
      <trkpt lat="45.74757" lon="4.64874">
        <ele>497.2</ele>
        <time>2025-12-11T15:20:43Z</time>
      </trkpt>
      <trkpt lat="45.74756" lon="4.64875">
        <ele>497.4</ele>
        <time>2025-12-11T15:20:44Z</time>
      </trkpt>
      <trkpt lat="45.74755" lon="4.64878">
        <ele>497.4</ele>
        <time>2025-12-11T15:20:45Z</time>
      </trkpt>
      <trkpt lat="45.74753" lon="4.6488">
        <ele>497.6</ele>
        <time>2025-12-11T15:20:46Z</time>
      </trkpt>
      <trkpt lat="45.74753" lon="4.64882">
        <ele>497.8</ele>
        <time>2025-12-11T15:20:47Z</time>
      </trkpt>
      <trkpt lat="45.74752" lon="4.64884">
        <ele>498</ele>
        <time>2025-12-11T15:20:48Z</time>
      </trkpt>
      <trkpt lat="45.74752" lon="4.64887">
        <ele>498.2</ele>
        <time>2025-12-11T15:20:49Z</time>
      </trkpt>
      <trkpt lat="45.74752" lon="4.6489">
        <ele>498.4</ele>
        <time>2025-12-11T15:20:50Z</time>
      </trkpt>
      <trkpt lat="45.74752" lon="4.64892">
        <ele>498.4</ele>
        <time>2025-12-11T15:20:51Z</time>
      </trkpt>
      <trkpt lat="45.74752" lon="4.64895">
        <ele>498.6</ele>
        <time>2025-12-11T15:20:52Z</time>
      </trkpt>
      <trkpt lat="45.74753" lon="4.64897">
        <ele>498.8</ele>
        <time>2025-12-11T15:20:53Z</time>
      </trkpt>
      <trkpt lat="45.74753" lon="4.649">
        <ele>499</ele>
        <time>2025-12-11T15:20:54Z</time>
      </trkpt>
      <trkpt lat="45.74753" lon="4.64903">
        <ele>499.2</ele>
        <time>2025-12-11T15:20:55Z</time>
      </trkpt>
      <trkpt lat="45.74753" lon="4.64905">
        <ele>499.4</ele>
        <time>2025-12-11T15:20:56Z</time>
      </trkpt>
      <trkpt lat="45.74754" lon="4.64908">
        <ele>499.4</ele>
        <time>2025-12-11T15:20:57Z</time>
      </trkpt>
      <trkpt lat="45.74754" lon="4.64911">
        <ele>499.6</ele>
        <time>2025-12-11T15:20:58Z</time>
      </trkpt>
      <trkpt lat="45.74754" lon="4.64913">
        <ele>499.8</ele>
        <time>2025-12-11T15:20:59Z</time>
      </trkpt>
      <trkpt lat="45.74754" lon="4.64916">
        <ele>499.8</ele>
        <time>2025-12-11T15:21:00Z</time>
      </trkpt>
      <trkpt lat="45.74755" lon="4.64918">
        <ele>500</ele>
        <time>2025-12-11T15:21:01Z</time>
      </trkpt>
      <trkpt lat="45.74755" lon="4.64921">
        <ele>500.2</ele>
        <time>2025-12-11T15:21:02Z</time>
      </trkpt>
      <trkpt lat="45.74755" lon="4.64924">
        <ele>500.2</ele>
        <time>2025-12-11T15:21:03Z</time>
      </trkpt>
      <trkpt lat="45.74755" lon="4.64926">
        <ele>500.4</ele>
        <time>2025-12-11T15:21:04Z</time>
      </trkpt>
      <trkpt lat="45.74755" lon="4.64928">
        <ele>500.4</ele>
        <time>2025-12-11T15:21:05Z</time>
      </trkpt>
      <trkpt lat="45.74755" lon="4.64931">
        <ele>500.6</ele>
        <time>2025-12-11T15:21:06Z</time>
      </trkpt>
      <trkpt lat="45.74756" lon="4.64933">
        <ele>500.8</ele>
        <time>2025-12-11T15:21:07Z</time>
      </trkpt>
      <trkpt lat="45.74756" lon="4.64935">
        <ele>501</ele>
        <time>2025-12-11T15:21:08Z</time>
      </trkpt>
      <trkpt lat="45.74756" lon="4.64938">
        <ele>501</ele>
        <time>2025-12-11T15:21:09Z</time>
      </trkpt>
      <trkpt lat="45.74756" lon="4.6494">
        <ele>501.2</ele>
        <time>2025-12-11T15:21:10Z</time>
      </trkpt>
      <trkpt lat="45.74755" lon="4.64942">
        <ele>501.2</ele>
        <time>2025-12-11T15:21:11Z</time>
      </trkpt>
      <trkpt lat="45.74755" lon="4.64944">
        <ele>501.4</ele>
        <time>2025-12-11T15:21:12Z</time>
      </trkpt>
      <trkpt lat="45.74755" lon="4.64946">
        <ele>501.4</ele>
        <time>2025-12-11T15:21:13Z</time>
      </trkpt>
      <trkpt lat="45.74755" lon="4.64948">
        <ele>501.4</ele>
        <time>2025-12-11T15:21:14Z</time>
      </trkpt>
      <trkpt lat="45.74754" lon="4.6495">
        <ele>501.4</ele>
        <time>2025-12-11T15:21:15Z</time>
      </trkpt>
      <trkpt lat="45.74753" lon="4.64952">
        <ele>501.4</ele>
        <time>2025-12-11T15:21:16Z</time>
      </trkpt>
      <trkpt lat="45.74752" lon="4.64954">
        <ele>501.4</ele>
        <time>2025-12-11T15:21:17Z</time>
      </trkpt>
      <trkpt lat="45.7475" lon="4.64957">
        <ele>501.2</ele>
        <time>2025-12-11T15:21:18Z</time>
      </trkpt>
      <trkpt lat="45.74749" lon="4.64961">
        <ele>501</ele>
        <time>2025-12-11T15:21:19Z</time>
      </trkpt>
      <trkpt lat="45.74747" lon="4.64965">
        <ele>500.8</ele>
        <time>2025-12-11T15:21:20Z</time>
      </trkpt>
      <trkpt lat="45.74745" lon="4.64969">
        <ele>500.6</ele>
        <time>2025-12-11T15:21:21Z</time>
      </trkpt>
      <trkpt lat="45.74744" lon="4.64972">
        <ele>500.6</ele>
        <time>2025-12-11T15:21:22Z</time>
      </trkpt>
      <trkpt lat="45.74743" lon="4.64975">
        <ele>500.6</ele>
        <time>2025-12-11T15:21:23Z</time>
      </trkpt>
      <trkpt lat="45.74741" lon="4.64977">
        <ele>500.6</ele>
        <time>2025-12-11T15:21:24Z</time>
      </trkpt>
      <trkpt lat="45.7474" lon="4.6498">
        <ele>500.8</ele>
        <time>2025-12-11T15:21:25Z</time>
      </trkpt>
      <trkpt lat="45.74739" lon="4.64984">
        <ele>500.8</ele>
        <time>2025-12-11T15:21:26Z</time>
      </trkpt>
      <trkpt lat="45.74737" lon="4.64988">
        <ele>501</ele>
        <time>2025-12-11T15:21:27Z</time>
      </trkpt>
      <trkpt lat="45.74736" lon="4.64991">
        <ele>501</ele>
        <time>2025-12-11T15:21:28Z</time>
      </trkpt>
      <trkpt lat="45.74734" lon="4.64994">
        <ele>501.2</ele>
        <time>2025-12-11T15:21:29Z</time>
      </trkpt>
      <trkpt lat="45.74733" lon="4.64998">
        <ele>501.2</ele>
        <time>2025-12-11T15:21:30Z</time>
      </trkpt>
      <trkpt lat="45.74731" lon="4.65001">
        <ele>501.2</ele>
        <time>2025-12-11T15:21:31Z</time>
      </trkpt>
      <trkpt lat="45.74729" lon="4.65005">
        <ele>501.4</ele>
        <time>2025-12-11T15:21:32Z</time>
      </trkpt>
      <trkpt lat="45.74727" lon="4.65008">
        <ele>501.4</ele>
        <time>2025-12-11T15:21:33Z</time>
      </trkpt>
      <trkpt lat="45.74725" lon="4.65012">
        <ele>501.4</ele>
        <time>2025-12-11T15:21:34Z</time>
      </trkpt>
      <trkpt lat="45.74723" lon="4.65016">
        <ele>501.4</ele>
        <time>2025-12-11T15:21:35Z</time>
      </trkpt>
      <trkpt lat="45.74721" lon="4.6502">
        <ele>501.4</ele>
        <time>2025-12-11T15:21:36Z</time>
      </trkpt>
      <trkpt lat="45.74719" lon="4.65024">
        <ele>501.6</ele>
        <time>2025-12-11T15:21:37Z</time>
      </trkpt>
      <trkpt lat="45.74717" lon="4.65028">
        <ele>501.6</ele>
        <time>2025-12-11T15:21:38Z</time>
      </trkpt>
      <trkpt lat="45.74715" lon="4.65032">
        <ele>501.6</ele>
        <time>2025-12-11T15:21:39Z</time>
      </trkpt>
      <trkpt lat="45.74713" lon="4.65037">
        <ele>501.6</ele>
        <time>2025-12-11T15:21:40Z</time>
      </trkpt>
      <trkpt lat="45.74711" lon="4.65041">
        <ele>501.6</ele>
        <time>2025-12-11T15:21:41Z</time>
      </trkpt>
      <trkpt lat="45.7471" lon="4.65046">
        <ele>501.8</ele>
        <time>2025-12-11T15:21:42Z</time>
      </trkpt>
      <trkpt lat="45.74708" lon="4.6505">
        <ele>501.8</ele>
        <time>2025-12-11T15:21:43Z</time>
      </trkpt>
      <trkpt lat="45.74706" lon="4.65055">
        <ele>501.8</ele>
        <time>2025-12-11T15:21:44Z</time>
      </trkpt>
      <trkpt lat="45.74704" lon="4.6506">
        <ele>501.8</ele>
        <time>2025-12-11T15:21:45Z</time>
      </trkpt>
      <trkpt lat="45.74702" lon="4.65065">
        <ele>501.8</ele>
        <time>2025-12-11T15:21:46Z</time>
      </trkpt>
      <trkpt lat="45.747" lon="4.6507">
        <ele>501.8</ele>
        <time>2025-12-11T15:21:47Z</time>
      </trkpt>
      <trkpt lat="45.74698" lon="4.65075">
        <ele>501.8</ele>
        <time>2025-12-11T15:21:48Z</time>
      </trkpt>
      <trkpt lat="45.74696" lon="4.6508">
        <ele>501.8</ele>
        <time>2025-12-11T15:21:49Z</time>
      </trkpt>
      <trkpt lat="45.74694" lon="4.65085">
        <ele>501.8</ele>
        <time>2025-12-11T15:21:50Z</time>
      </trkpt>
      <trkpt lat="45.74692" lon="4.6509">
        <ele>501.6</ele>
        <time>2025-12-11T15:21:51Z</time>
      </trkpt>
      <trkpt lat="45.74689" lon="4.65096">
        <ele>501.6</ele>
        <time>2025-12-11T15:21:52Z</time>
      </trkpt>
      <trkpt lat="45.74687" lon="4.65101">
        <ele>501.6</ele>
        <time>2025-12-11T15:21:53Z</time>
      </trkpt>
      <trkpt lat="45.74685" lon="4.65107">
        <ele>501.6</ele>
        <time>2025-12-11T15:21:54Z</time>
      </trkpt>
      <trkpt lat="45.74683" lon="4.65112">
        <ele>501.6</ele>
        <time>2025-12-11T15:21:55Z</time>
      </trkpt>
      <trkpt lat="45.7468" lon="4.65117">
        <ele>501.6</ele>
        <time>2025-12-11T15:21:56Z</time>
      </trkpt>
      <trkpt lat="45.74678" lon="4.65123">
        <ele>501.6</ele>
        <time>2025-12-11T15:21:57Z</time>
      </trkpt>
      <trkpt lat="45.74674" lon="4.65128">
        <ele>501.6</ele>
        <time>2025-12-11T15:21:58Z</time>
      </trkpt>
      <trkpt lat="45.74671" lon="4.65132">
        <ele>501.6</ele>
        <time>2025-12-11T15:21:59Z</time>
      </trkpt>
      <trkpt lat="45.74667" lon="4.65136">
        <ele>501.6</ele>
        <time>2025-12-11T15:22:00Z</time>
      </trkpt>
      <trkpt lat="45.74664" lon="4.65138">
        <ele>501.8</ele>
        <time>2025-12-11T15:22:01Z</time>
      </trkpt>
      <trkpt lat="45.7466" lon="4.65139">
        <ele>501.8</ele>
        <time>2025-12-11T15:22:02Z</time>
      </trkpt>
      <trkpt lat="45.74656" lon="4.6514">
        <ele>502</ele>
        <time>2025-12-11T15:22:03Z</time>
      </trkpt>
      <trkpt lat="45.74652" lon="4.6514">
        <ele>502.2</ele>
        <time>2025-12-11T15:22:04Z</time>
      </trkpt>
      <trkpt lat="45.74649" lon="4.65141">
        <ele>502.4</ele>
        <time>2025-12-11T15:22:05Z</time>
      </trkpt>
      <trkpt lat="45.74645" lon="4.6514">
        <ele>502.6</ele>
        <time>2025-12-11T15:22:06Z</time>
      </trkpt>
      <trkpt lat="45.74642" lon="4.6514">
        <ele>502.6</ele>
        <time>2025-12-11T15:22:07Z</time>
      </trkpt>
      <trkpt lat="45.74639" lon="4.6514">
        <ele>502.8</ele>
        <time>2025-12-11T15:22:08Z</time>
      </trkpt>
      <trkpt lat="45.74635" lon="4.6514">
        <ele>503</ele>
        <time>2025-12-11T15:22:09Z</time>
      </trkpt>
      <trkpt lat="45.74632" lon="4.65139">
        <ele>503.2</ele>
        <time>2025-12-11T15:22:10Z</time>
      </trkpt>
      <trkpt lat="45.74629" lon="4.65139">
        <ele>503.4</ele>
        <time>2025-12-11T15:22:11Z</time>
      </trkpt>
      <trkpt lat="45.74627" lon="4.65139">
        <ele>503.6</ele>
        <time>2025-12-11T15:22:12Z</time>
      </trkpt>
      <trkpt lat="45.74625" lon="4.65139">
        <ele>503.8</ele>
        <time>2025-12-11T15:22:13Z</time>
      </trkpt>
      <trkpt lat="45.74623" lon="4.65139">
        <ele>504</ele>
        <time>2025-12-11T15:22:14Z</time>
      </trkpt>
      <trkpt lat="45.74621" lon="4.65139">
        <ele>504.2</ele>
        <time>2025-12-11T15:22:15Z</time>
      </trkpt>
      <trkpt lat="45.7462" lon="4.6514">
        <ele>504.4</ele>
        <time>2025-12-11T15:22:16Z</time>
      </trkpt>
      <trkpt lat="45.74619" lon="4.65141">
        <ele>504.4</ele>
        <time>2025-12-11T15:22:17Z</time>
      </trkpt>
      <trkpt lat="45.74619" lon="4.65143">
        <ele>504.4</ele>
        <time>2025-12-11T15:22:18Z</time>
      </trkpt>
      <trkpt lat="45.74618" lon="4.65144">
        <ele>504.4</ele>
        <time>2025-12-11T15:22:19Z</time>
      </trkpt>
      <trkpt lat="45.74618" lon="4.65147">
        <ele>504.2</ele>
        <time>2025-12-11T15:22:20Z</time>
      </trkpt>
      <trkpt lat="45.74618" lon="4.65151">
        <ele>504</ele>
        <time>2025-12-11T15:22:21Z</time>
      </trkpt>
      <trkpt lat="45.74617" lon="4.65156">
        <ele>503.8</ele>
        <time>2025-12-11T15:22:22Z</time>
      </trkpt>
      <trkpt lat="45.74617" lon="4.65161">
        <ele>503.4</ele>
        <time>2025-12-11T15:22:23Z</time>
      </trkpt>
      <trkpt lat="45.74617" lon="4.65167">
        <ele>502.8</ele>
        <time>2025-12-11T15:22:24Z</time>
      </trkpt>
      <trkpt lat="45.74617" lon="4.65171">
        <ele>502.4</ele>
        <time>2025-12-11T15:22:25Z</time>
      </trkpt>
      <trkpt lat="45.74617" lon="4.65174">
        <ele>502</ele>
        <time>2025-12-11T15:22:26Z</time>
      </trkpt>
      <trkpt lat="45.74617" lon="4.65175">
        <ele>501.6</ele>
        <time>2025-12-11T15:22:27Z</time>
      </trkpt>
      <trkpt lat="45.74617" lon="4.65175">
        <ele>501.4</ele>
        <time>2025-12-11T15:22:28Z</time>
      </trkpt>
      <trkpt lat="45.74617" lon="4.65175">
        <ele>501.2</ele>
        <time>2025-12-11T15:22:29Z</time>
      </trkpt>
      <trkpt lat="45.74617" lon="4.65175">
        <ele>501</ele>
        <time>2025-12-11T15:22:30Z</time>
      </trkpt>
      <trkpt lat="45.74617" lon="4.65175">
        <ele>500.8</ele>
        <time>2025-12-11T15:22:31Z</time>
      </trkpt>
      <trkpt lat="45.74617" lon="4.65175">
        <ele>500.8</ele>
        <time>2025-12-11T15:22:32Z</time>
      </trkpt>
      <trkpt lat="45.74617" lon="4.65175">
        <ele>500.8</ele>
        <time>2025-12-11T15:22:33Z</time>
      </trkpt>
      <trkpt lat="45.74617" lon="4.65175">
        <ele>501</ele>
        <time>2025-12-11T15:22:34Z</time>
      </trkpt>
      <trkpt lat="45.74617" lon="4.65175">
        <ele>501</ele>
        <time>2025-12-11T15:22:35Z</time>
      </trkpt>
      <trkpt lat="45.74617" lon="4.65175">
        <ele>501</ele>
        <time>2025-12-11T15:22:36Z</time>
      </trkpt>
      <trkpt lat="45.74617" lon="4.65175">
        <ele>501</ele>
        <time>2025-12-11T15:22:37Z</time>
      </trkpt>
      <trkpt lat="45.74617" lon="4.65175">
        <ele>501</ele>
        <time>2025-12-11T15:22:38Z</time>
      </trkpt>
      <trkpt lat="45.74617" lon="4.65175">
        <ele>501</ele>
        <time>2025-12-11T15:22:39Z</time>
      </trkpt>
      <trkpt lat="45.74617" lon="4.65175">
        <ele>501</ele>
        <time>2025-12-11T15:22:40Z</time>
      </trkpt>
      <trkpt lat="45.74617" lon="4.65175">
        <ele>501</ele>
        <time>2025-12-11T15:22:41Z</time>
      </trkpt>
      <trkpt lat="45.74617" lon="4.65175">
        <ele>501</ele>
        <time>2025-12-11T15:22:42Z</time>
      </trkpt>
      <trkpt lat="45.74617" lon="4.65175">
        <ele>501</ele>
        <time>2025-12-11T15:22:43Z</time>
      </trkpt>
      <trkpt lat="45.74617" lon="4.65175">
        <ele>501</ele>
        <time>2025-12-11T15:22:44Z</time>
      </trkpt>
      <trkpt lat="45.74617" lon="4.65175">
        <ele>501.2</ele>
        <time>2025-12-11T15:22:45Z</time>
      </trkpt>
      <trkpt lat="45.74617" lon="4.65175">
        <ele>501.4</ele>
        <time>2025-12-11T15:22:46Z</time>
      </trkpt>
      <trkpt lat="45.74617" lon="4.65175">
        <ele>501.4</ele>
        <time>2025-12-11T15:22:47Z</time>
      </trkpt>
      <trkpt lat="45.74617" lon="4.65175">
        <ele>501.4</ele>
        <time>2025-12-11T15:22:48Z</time>
      </trkpt>
      <trkpt lat="45.74617" lon="4.65175">
        <ele>501.4</ele>
        <time>2025-12-11T15:22:49Z</time>
      </trkpt>
      <trkpt lat="45.74617" lon="4.65175">
        <ele>501.2</ele>
        <time>2025-12-11T15:22:50Z</time>
      </trkpt>
      <trkpt lat="45.74617" lon="4.65175">
        <ele>501</ele>
        <time>2025-12-11T15:22:51Z</time>
      </trkpt>
      <trkpt lat="45.74617" lon="4.65175">
        <ele>501</ele>
        <time>2025-12-11T15:22:52Z</time>
      </trkpt>
      <trkpt lat="45.74617" lon="4.65175">
        <ele>501</ele>
        <time>2025-12-11T15:22:53Z</time>
      </trkpt>
      <trkpt lat="45.74617" lon="4.65175">
        <ele>501</ele>
        <time>2025-12-11T15:22:54Z</time>
      </trkpt>
      <trkpt lat="45.74617" lon="4.65175">
        <ele>501</ele>
        <time>2025-12-11T15:22:55Z</time>
      </trkpt>
      <trkpt lat="45.74617" lon="4.65175">
        <ele>501</ele>
        <time>2025-12-11T15:22:56Z</time>
      </trkpt>
      <trkpt lat="45.74617" lon="4.65175">
        <ele>501</ele>
        <time>2025-12-11T15:22:57Z</time>
      </trkpt>
      <trkpt lat="45.74617" lon="4.65175">
        <ele>501</ele>
        <time>2025-12-11T15:22:58Z</time>
      </trkpt>
      <trkpt lat="45.74617" lon="4.65175">
        <ele>501</ele>
        <time>2025-12-11T15:22:59Z</time>
      </trkpt>
      <trkpt lat="45.74617" lon="4.65175">
        <ele>501</ele>
        <time>2025-12-11T15:23:00Z</time>
      </trkpt>
      <trkpt lat="45.74617" lon="4.65175">
        <ele>501</ele>
        <time>2025-12-11T15:23:01Z</time>
      </trkpt>
      <trkpt lat="45.74617" lon="4.65175">
        <ele>501</ele>
        <time>2025-12-11T15:23:02Z</time>
      </trkpt>
      <trkpt lat="45.74617" lon="4.65175">
        <ele>501</ele>
        <time>2025-12-11T15:23:03Z</time>
      </trkpt>
      <trkpt lat="45.74617" lon="4.65175">
        <ele>501</ele>
        <time>2025-12-11T15:23:04Z</time>
      </trkpt>
      <trkpt lat="45.74617" lon="4.65175">
        <ele>501</ele>
        <time>2025-12-11T15:23:05Z</time>
      </trkpt>
      <trkpt lat="45.74617" lon="4.65175">
        <ele>501</ele>
        <time>2025-12-11T15:23:06Z</time>
      </trkpt>
      <trkpt lat="45.74617" lon="4.65175">
        <ele>501</ele>
        <time>2025-12-11T15:23:07Z</time>
      </trkpt>
      <trkpt lat="45.74617" lon="4.65175">
        <ele>501</ele>
        <time>2025-12-11T15:23:08Z</time>
      </trkpt>
      <trkpt lat="45.74617" lon="4.65175">
        <ele>501</ele>
        <time>2025-12-11T15:23:09Z</time>
      </trkpt>
      <trkpt lat="45.74617" lon="4.65175">
        <ele>501</ele>
        <time>2025-12-11T15:23:10Z</time>
      </trkpt>
      <trkpt lat="45.74617" lon="4.65175">
        <ele>501</ele>
        <time>2025-12-11T15:23:11Z</time>
      </trkpt>
      <trkpt lat="45.74617" lon="4.65175">
        <ele>501</ele>
        <time>2025-12-11T15:23:12Z</time>
      </trkpt>
      <trkpt lat="45.74617" lon="4.65175">
        <ele>501</ele>
        <time>2025-12-11T15:23:13Z</time>
      </trkpt>
      <trkpt lat="45.74617" lon="4.65175">
        <ele>501</ele>
        <time>2025-12-11T15:23:14Z</time>
      </trkpt>
      <trkpt lat="45.74617" lon="4.65175">
        <ele>501</ele>
        <time>2025-12-11T15:23:15Z</time>
      </trkpt>
      <trkpt lat="45.74617" lon="4.65175">
        <ele>501</ele>
        <time>2025-12-11T15:23:16Z</time>
      </trkpt>
      <trkpt lat="45.74617" lon="4.65175">
        <ele>501</ele>
        <time>2025-12-11T15:23:17Z</time>
      </trkpt>
      <trkpt lat="45.74617" lon="4.65175">
        <ele>501</ele>
        <time>2025-12-11T15:23:18Z</time>
      </trkpt>
      <trkpt lat="45.74617" lon="4.65175">
        <ele>500.8</ele>
        <time>2025-12-11T15:23:19Z</time>
      </trkpt>
      <trkpt lat="45.74617" lon="4.65175">
        <ele>500.8</ele>
        <time>2025-12-11T15:23:20Z</time>
      </trkpt>
      <trkpt lat="45.74617" lon="4.65175">
        <ele>501</ele>
        <time>2025-12-11T15:23:21Z</time>
      </trkpt>
      <trkpt lat="45.74617" lon="4.65175">
        <ele>501</ele>
        <time>2025-12-11T15:23:22Z</time>
      </trkpt>
      <trkpt lat="45.74617" lon="4.65175">
        <ele>501</ele>
        <time>2025-12-11T15:23:23Z</time>
      </trkpt>
      <trkpt lat="45.74617" lon="4.65175">
        <ele>501</ele>
        <time>2025-12-11T15:23:24Z</time>
      </trkpt>
      <trkpt lat="45.74617" lon="4.65175">
        <ele>501</ele>
        <time>2025-12-11T15:23:25Z</time>
      </trkpt>
      <trkpt lat="45.74617" lon="4.65175">
        <ele>501</ele>
        <time>2025-12-11T15:23:26Z</time>
      </trkpt>
      <trkpt lat="45.74617" lon="4.65175">
        <ele>501</ele>
        <time>2025-12-11T15:23:27Z</time>
      </trkpt>
      <trkpt lat="45.74617" lon="4.65175">
        <ele>501</ele>
        <time>2025-12-11T15:23:28Z</time>
      </trkpt>
      <trkpt lat="45.74617" lon="4.65175">
        <ele>501</ele>
        <time>2025-12-11T15:23:29Z</time>
      </trkpt>
      <trkpt lat="45.74617" lon="4.65175">
        <ele>501</ele>
        <time>2025-12-11T15:23:30Z</time>
      </trkpt>
      <trkpt lat="45.74617" lon="4.65175">
        <ele>501</ele>
        <time>2025-12-11T15:23:31Z</time>
      </trkpt>
      <trkpt lat="45.74617" lon="4.65175">
        <ele>501</ele>
        <time>2025-12-11T15:23:32Z</time>
      </trkpt>
      <trkpt lat="45.74617" lon="4.65175">
        <ele>501</ele>
        <time>2025-12-11T15:23:33Z</time>
      </trkpt>
      <trkpt lat="45.74617" lon="4.65175">
        <ele>501</ele>
        <time>2025-12-11T15:23:34Z</time>
      </trkpt>
      <trkpt lat="45.74617" lon="4.65175">
        <ele>501</ele>
        <time>2025-12-11T15:23:35Z</time>
      </trkpt>
      <trkpt lat="45.74617" lon="4.65175">
        <ele>501</ele>
        <time>2025-12-11T15:23:36Z</time>
      </trkpt>
      <trkpt lat="45.74617" lon="4.65175">
        <ele>501</ele>
        <time>2025-12-11T15:23:37Z</time>
      </trkpt>
      <trkpt lat="45.74617" lon="4.65175">
        <ele>501</ele>
        <time>2025-12-11T15:23:38Z</time>
      </trkpt>
      <trkpt lat="45.74617" lon="4.65175">
        <ele>501</ele>
        <time>2025-12-11T15:23:39Z</time>
      </trkpt>
      <trkpt lat="45.74617" lon="4.65175">
        <ele>501</ele>
        <time>2025-12-11T15:23:40Z</time>
      </trkpt>
      <trkpt lat="45.74617" lon="4.65175">
        <ele>501</ele>
        <time>2025-12-11T15:23:41Z</time>
      </trkpt>
      <trkpt lat="45.74617" lon="4.65175">
        <ele>501</ele>
        <time>2025-12-11T15:23:42Z</time>
      </trkpt>
      <trkpt lat="45.74617" lon="4.65175">
        <ele>501</ele>
        <time>2025-12-11T15:23:43Z</time>
      </trkpt>
      <trkpt lat="45.74617" lon="4.65175">
        <ele>501</ele>
        <time>2025-12-11T15:23:44Z</time>
      </trkpt>
      <trkpt lat="45.74617" lon="4.65175">
        <ele>501</ele>
        <time>2025-12-11T15:23:45Z</time>
      </trkpt>
      <trkpt lat="45.74617" lon="4.65175">
        <ele>501</ele>
        <time>2025-12-11T15:23:46Z</time>
      </trkpt>
      <trkpt lat="45.74617" lon="4.65175">
        <ele>501</ele>
        <time>2025-12-11T15:23:47Z</time>
      </trkpt>
      <trkpt lat="45.74617" lon="4.65175">
        <ele>501</ele>
        <time>2025-12-11T15:23:48Z</time>
      </trkpt>
      <trkpt lat="45.74617" lon="4.65175">
        <ele>501</ele>
        <time>2025-12-11T15:23:49Z</time>
      </trkpt>
      <trkpt lat="45.74617" lon="4.65175">
        <ele>501</ele>
        <time>2025-12-11T15:23:50Z</time>
      </trkpt>
      <trkpt lat="45.74617" lon="4.65175">
        <ele>501</ele>
        <time>2025-12-11T15:23:51Z</time>
      </trkpt>
      <trkpt lat="45.74617" lon="4.65175">
        <ele>501</ele>
        <time>2025-12-11T15:23:52Z</time>
      </trkpt>
      <trkpt lat="45.74617" lon="4.65175">
        <ele>501</ele>
        <time>2025-12-11T15:23:53Z</time>
      </trkpt>
      <trkpt lat="45.74617" lon="4.65175">
        <ele>501</ele>
        <time>2025-12-11T15:23:54Z</time>
      </trkpt>
      <trkpt lat="45.74617" lon="4.65175">
        <ele>501</ele>
        <time>2025-12-11T15:23:55Z</time>
      </trkpt>
      <trkpt lat="45.74617" lon="4.65175">
        <ele>501</ele>
        <time>2025-12-11T15:23:56Z</time>
      </trkpt>
      <trkpt lat="45.74617" lon="4.65175">
        <ele>501</ele>
        <time>2025-12-11T15:23:57Z</time>
      </trkpt>
      <trkpt lat="45.74617" lon="4.65175">
        <ele>501</ele>
        <time>2025-12-11T15:23:58Z</time>
      </trkpt>
      <trkpt lat="45.74617" lon="4.65175">
        <ele>501</ele>
        <time>2025-12-11T15:23:59Z</time>
      </trkpt>
      <trkpt lat="45.74617" lon="4.65175">
        <ele>501</ele>
        <time>2025-12-11T15:24:00Z</time>
      </trkpt>
      <trkpt lat="45.74617" lon="4.65175">
        <ele>501</ele>
        <time>2025-12-11T15:24:01Z</time>
      </trkpt>
      <trkpt lat="45.74617" lon="4.65175">
        <ele>501</ele>
        <time>2025-12-11T15:24:02Z</time>
      </trkpt>
      <trkpt lat="45.74617" lon="4.65175">
        <ele>501</ele>
        <time>2025-12-11T15:24:03Z</time>
      </trkpt>
      <trkpt lat="45.74617" lon="4.65175">
        <ele>501</ele>
        <time>2025-12-11T15:24:04Z</time>
      </trkpt>
      <trkpt lat="45.74617" lon="4.65175">
        <ele>501</ele>
        <time>2025-12-11T15:24:05Z</time>
      </trkpt>
      <trkpt lat="45.74617" lon="4.65175">
        <ele>501</ele>
        <time>2025-12-11T15:24:06Z</time>
      </trkpt>
      <trkpt lat="45.74617" lon="4.65175">
        <ele>501</ele>
        <time>2025-12-11T15:24:07Z</time>
      </trkpt>
      <trkpt lat="45.74617" lon="4.65175">
        <ele>501</ele>
        <time>2025-12-11T15:24:08Z</time>
      </trkpt>
      <trkpt lat="45.74617" lon="4.65175">
        <ele>501</ele>
        <time>2025-12-11T15:24:09Z</time>
      </trkpt>
      <trkpt lat="45.74617" lon="4.65175">
        <ele>501</ele>
        <time>2025-12-11T15:24:10Z</time>
      </trkpt>
      <trkpt lat="45.74617" lon="4.65175">
        <ele>501</ele>
        <time>2025-12-11T15:24:11Z</time>
      </trkpt>
      <trkpt lat="45.74617" lon="4.65175">
        <ele>501</ele>
        <time>2025-12-11T15:24:12Z</time>
      </trkpt>
      <trkpt lat="45.74617" lon="4.65175">
        <ele>501</ele>
        <time>2025-12-11T15:24:13Z</time>
      </trkpt>
      <trkpt lat="45.74617" lon="4.65175">
        <ele>501</ele>
        <time>2025-12-11T15:24:14Z</time>
      </trkpt>
      <trkpt lat="45.74617" lon="4.65175">
        <ele>501</ele>
        <time>2025-12-11T15:24:15Z</time>
      </trkpt>
      <trkpt lat="45.74617" lon="4.65175">
        <ele>501</ele>
        <time>2025-12-11T15:24:16Z</time>
      </trkpt>
      <trkpt lat="45.74617" lon="4.65175">
        <ele>501</ele>
        <time>2025-12-11T15:24:17Z</time>
      </trkpt>
      <trkpt lat="45.74617" lon="4.65175">
        <ele>501</ele>
        <time>2025-12-11T15:24:18Z</time>
      </trkpt>
      <trkpt lat="45.74617" lon="4.65175">
        <ele>501</ele>
        <time>2025-12-11T15:24:19Z</time>
      </trkpt>
      <trkpt lat="45.74617" lon="4.65175">
        <ele>501</ele>
        <time>2025-12-11T15:24:20Z</time>
      </trkpt>
      <trkpt lat="45.74617" lon="4.65175">
        <ele>501</ele>
        <time>2025-12-11T15:24:21Z</time>
      </trkpt>
      <trkpt lat="45.74617" lon="4.65175">
        <ele>501</ele>
        <time>2025-12-11T15:24:22Z</time>
      </trkpt>
      <trkpt lat="45.74617" lon="4.65175">
        <ele>501</ele>
        <time>2025-12-11T15:24:23Z</time>
      </trkpt>
      <trkpt lat="45.74617" lon="4.65175">
        <ele>501</ele>
        <time>2025-12-11T15:24:24Z</time>
      </trkpt>
      <trkpt lat="45.74617" lon="4.65175">
        <ele>501</ele>
        <time>2025-12-11T15:24:25Z</time>
      </trkpt>
      <trkpt lat="45.74617" lon="4.65175">
        <ele>501</ele>
        <time>2025-12-11T15:24:26Z</time>
      </trkpt>
      <trkpt lat="45.74617" lon="4.65175">
        <ele>501</ele>
        <time>2025-12-11T15:24:27Z</time>
      </trkpt>
      <trkpt lat="45.74617" lon="4.65175">
        <ele>501</ele>
        <time>2025-12-11T15:24:28Z</time>
      </trkpt>
      <trkpt lat="45.74617" lon="4.65175">
        <ele>501</ele>
        <time>2025-12-11T15:24:29Z</time>
      </trkpt>
      <trkpt lat="45.74617" lon="4.65175">
        <ele>501</ele>
        <time>2025-12-11T15:24:30Z</time>
      </trkpt>
      <trkpt lat="45.74617" lon="4.65175">
        <ele>501</ele>
        <time>2025-12-11T15:24:31Z</time>
      </trkpt>
      <trkpt lat="45.74617" lon="4.65175">
        <ele>501</ele>
        <time>2025-12-11T15:24:32Z</time>
      </trkpt>
      <trkpt lat="45.74617" lon="4.65175">
        <ele>501</ele>
        <time>2025-12-11T15:24:33Z</time>
      </trkpt>
      <trkpt lat="45.74617" lon="4.65175">
        <ele>501</ele>
        <time>2025-12-11T15:24:34Z</time>
      </trkpt>
      <trkpt lat="45.74617" lon="4.65175">
        <ele>501</ele>
        <time>2025-12-11T15:24:35Z</time>
      </trkpt>
      <trkpt lat="45.74617" lon="4.65175">
        <ele>501</ele>
        <time>2025-12-11T15:24:36Z</time>
      </trkpt>
      <trkpt lat="45.74617" lon="4.65175">
        <ele>501</ele>
        <time>2025-12-11T15:24:37Z</time>
      </trkpt>
      <trkpt lat="45.74617" lon="4.65175">
        <ele>501</ele>
        <time>2025-12-11T15:24:38Z</time>
      </trkpt>
      <trkpt lat="45.74617" lon="4.65175">
        <ele>501</ele>
        <time>2025-12-11T15:24:39Z</time>
      </trkpt>
      <trkpt lat="45.74617" lon="4.65175">
        <ele>501</ele>
        <time>2025-12-11T15:24:40Z</time>
      </trkpt>
      <trkpt lat="45.74617" lon="4.65175">
        <ele>501</ele>
        <time>2025-12-11T15:24:41Z</time>
      </trkpt>
      <trkpt lat="45.74617" lon="4.65175">
        <ele>501</ele>
        <time>2025-12-11T15:24:42Z</time>
      </trkpt>
      <trkpt lat="45.74617" lon="4.65175">
        <ele>501</ele>
        <time>2025-12-11T15:24:43Z</time>
      </trkpt>
      <trkpt lat="45.74617" lon="4.65175">
        <ele>501</ele>
        <time>2025-12-11T15:24:44Z</time>
      </trkpt>
      <trkpt lat="45.74617" lon="4.65175">
        <ele>501</ele>
        <time>2025-12-11T15:24:45Z</time>
      </trkpt>
      <trkpt lat="45.74617" lon="4.65175">
        <ele>501</ele>
        <time>2025-12-11T15:24:46Z</time>
      </trkpt>
      <trkpt lat="45.74617" lon="4.65175">
        <ele>501</ele>
        <time>2025-12-11T15:24:47Z</time>
      </trkpt>
      <trkpt lat="45.74617" lon="4.65175">
        <ele>501</ele>
        <time>2025-12-11T15:24:48Z</time>
      </trkpt>
      <trkpt lat="45.74617" lon="4.65175">
        <ele>501</ele>
        <time>2025-12-11T15:24:49Z</time>
      </trkpt>
      <trkpt lat="45.74617" lon="4.65175">
        <ele>501</ele>
        <time>2025-12-11T15:24:50Z</time>
      </trkpt>
      <trkpt lat="45.74617" lon="4.65175">
        <ele>501</ele>
        <time>2025-12-11T15:24:51Z</time>
      </trkpt>
      <trkpt lat="45.74617" lon="4.65175">
        <ele>501</ele>
        <time>2025-12-11T15:24:52Z</time>
      </trkpt>
      <trkpt lat="45.74617" lon="4.65175">
        <ele>501</ele>
        <time>2025-12-11T15:24:53Z</time>
      </trkpt>
      <trkpt lat="45.74617" lon="4.65175">
        <ele>501</ele>
        <time>2025-12-11T15:24:54Z</time>
      </trkpt>
      <trkpt lat="45.74617" lon="4.65175">
        <ele>501</ele>
        <time>2025-12-11T15:24:55Z</time>
      </trkpt>
      <trkpt lat="45.74617" lon="4.65175">
        <ele>501</ele>
        <time>2025-12-11T15:24:56Z</time>
      </trkpt>
      <trkpt lat="45.74617" lon="4.65175">
        <ele>501</ele>
        <time>2025-12-11T15:24:57Z</time>
      </trkpt>
      <trkpt lat="45.74617" lon="4.65175">
        <ele>501</ele>
        <time>2025-12-11T15:24:58Z</time>
      </trkpt>
      <trkpt lat="45.74617" lon="4.65175">
        <ele>501</ele>
        <time>2025-12-11T15:24:59Z</time>
      </trkpt>
      <trkpt lat="45.74617" lon="4.65175">
        <ele>501</ele>
        <time>2025-12-11T15:25:00Z</time>
      </trkpt>
      <trkpt lat="45.74617" lon="4.65175">
        <ele>501</ele>
        <time>2025-12-11T15:25:01Z</time>
      </trkpt>
      <trkpt lat="45.74617" lon="4.65175">
        <ele>501</ele>
        <time>2025-12-11T15:25:02Z</time>
      </trkpt>
      <trkpt lat="45.74617" lon="4.65175">
        <ele>501</ele>
        <time>2025-12-11T15:25:03Z</time>
      </trkpt>
      <trkpt lat="45.74617" lon="4.65175">
        <ele>501</ele>
        <time>2025-12-11T15:25:04Z</time>
      </trkpt>
      <trkpt lat="45.74617" lon="4.65175">
        <ele>501</ele>
        <time>2025-12-11T15:25:05Z</time>
      </trkpt>
      <trkpt lat="45.74617" lon="4.65175">
        <ele>501</ele>
        <time>2025-12-11T15:25:06Z</time>
      </trkpt>
      <trkpt lat="45.74617" lon="4.65175">
        <ele>501</ele>
        <time>2025-12-11T15:25:07Z</time>
      </trkpt>
      <trkpt lat="45.74617" lon="4.65175">
        <ele>501</ele>
        <time>2025-12-11T15:25:08Z</time>
      </trkpt>
      <trkpt lat="45.74617" lon="4.65175">
        <ele>501</ele>
        <time>2025-12-11T15:25:09Z</time>
      </trkpt>
      <trkpt lat="45.74617" lon="4.65175">
        <ele>501</ele>
        <time>2025-12-11T15:25:10Z</time>
      </trkpt>
      <trkpt lat="45.74617" lon="4.65175">
        <ele>501</ele>
        <time>2025-12-11T15:25:11Z</time>
      </trkpt>
      <trkpt lat="45.74617" lon="4.65175">
        <ele>501</ele>
        <time>2025-12-11T15:25:12Z</time>
      </trkpt>
      <trkpt lat="45.74617" lon="4.65175">
        <ele>501</ele>
        <time>2025-12-11T15:25:13Z</time>
      </trkpt>
      <trkpt lat="45.74617" lon="4.65175">
        <ele>501</ele>
        <time>2025-12-11T15:25:14Z</time>
      </trkpt>
      <trkpt lat="45.74617" lon="4.65175">
        <ele>501</ele>
        <time>2025-12-11T15:25:15Z</time>
      </trkpt>
      <trkpt lat="45.74617" lon="4.65175">
        <ele>501</ele>
        <time>2025-12-11T15:25:16Z</time>
      </trkpt>
      <trkpt lat="45.74617" lon="4.65175">
        <ele>501</ele>
        <time>2025-12-11T15:25:17Z</time>
      </trkpt>
      <trkpt lat="45.74617" lon="4.65175">
        <ele>501</ele>
        <time>2025-12-11T15:25:18Z</time>
      </trkpt>
      <trkpt lat="45.74617" lon="4.65175">
        <ele>501</ele>
        <time>2025-12-11T15:25:19Z</time>
      </trkpt>
      <trkpt lat="45.74617" lon="4.65175">
        <ele>501</ele>
        <time>2025-12-11T15:25:20Z</time>
      </trkpt>
      <trkpt lat="45.74617" lon="4.65175">
        <ele>501</ele>
        <time>2025-12-11T15:25:21Z</time>
      </trkpt>
      <trkpt lat="45.74617" lon="4.65175">
        <ele>501</ele>
        <time>2025-12-11T15:25:22Z</time>
      </trkpt>
      <trkpt lat="45.74617" lon="4.65175">
        <ele>501</ele>
        <time>2025-12-11T15:25:23Z</time>
      </trkpt>
      <trkpt lat="45.74617" lon="4.65175">
        <ele>501</ele>
        <time>2025-12-11T15:25:24Z</time>
      </trkpt>
      <trkpt lat="45.74617" lon="4.65175">
        <ele>501</ele>
        <time>2025-12-11T15:25:25Z</time>
      </trkpt>
      <trkpt lat="45.74617" lon="4.65175">
        <ele>501</ele>
        <time>2025-12-11T15:25:26Z</time>
      </trkpt>
      <trkpt lat="45.74617" lon="4.65175">
        <ele>501</ele>
        <time>2025-12-11T15:25:27Z</time>
      </trkpt>
      <trkpt lat="45.74617" lon="4.65175">
        <ele>501</ele>
        <time>2025-12-11T15:25:28Z</time>
      </trkpt>
      <trkpt lat="45.74617" lon="4.65175">
        <ele>501</ele>
        <time>2025-12-11T15:25:29Z</time>
      </trkpt>
      <trkpt lat="45.74617" lon="4.65175">
        <ele>501</ele>
        <time>2025-12-11T15:25:30Z</time>
      </trkpt>
      <trkpt lat="45.74617" lon="4.65176">
        <ele>501</ele>
        <time>2025-12-11T15:25:31Z</time>
      </trkpt>
      <trkpt lat="45.74616" lon="4.6518">
        <ele>501</ele>
        <time>2025-12-11T15:25:32Z</time>
      </trkpt>
      <trkpt lat="45.74615" lon="4.65185">
        <ele>501.8</ele>
        <time>2025-12-11T15:25:33Z</time>
      </trkpt>
      <trkpt lat="45.74614" lon="4.65191">
        <ele>501.4</ele>
        <time>2025-12-11T15:25:34Z</time>
      </trkpt>
      <trkpt lat="45.74614" lon="4.65199">
        <ele>500.6</ele>
        <time>2025-12-11T15:25:35Z</time>
      </trkpt>
      <trkpt lat="45.74613" lon="4.65207">
        <ele>499.8</ele>
        <time>2025-12-11T15:25:36Z</time>
      </trkpt>
      <trkpt lat="45.74612" lon="4.65216">
        <ele>499</ele>
        <time>2025-12-11T15:25:37Z</time>
      </trkpt>
      <trkpt lat="45.74611" lon="4.65225">
        <ele>498.4</ele>
        <time>2025-12-11T15:25:38Z</time>
      </trkpt>
      <trkpt lat="45.74611" lon="4.65235">
        <ele>497.6</ele>
        <time>2025-12-11T15:25:39Z</time>
      </trkpt>
      <trkpt lat="45.7461" lon="4.65244">
        <ele>497</ele>
        <time>2025-12-11T15:25:40Z</time>
      </trkpt>
      <trkpt lat="45.74609" lon="4.65253">
        <ele>496.4</ele>
        <time>2025-12-11T15:25:41Z</time>
      </trkpt>
      <trkpt lat="45.74607" lon="4.65262">
        <ele>495.8</ele>
        <time>2025-12-11T15:25:42Z</time>
      </trkpt>
      <trkpt lat="45.74606" lon="4.65272">
        <ele>495.2</ele>
        <time>2025-12-11T15:25:43Z</time>
      </trkpt>
      <trkpt lat="45.74605" lon="4.65281">
        <ele>494.6</ele>
        <time>2025-12-11T15:25:44Z</time>
      </trkpt>
      <trkpt lat="45.74603" lon="4.65291">
        <ele>494</ele>
        <time>2025-12-11T15:25:45Z</time>
      </trkpt>
      <trkpt lat="45.74602" lon="4.65301">
        <ele>493.6</ele>
        <time>2025-12-11T15:25:46Z</time>
      </trkpt>
      <trkpt lat="45.74601" lon="4.65312">
        <ele>493</ele>
        <time>2025-12-11T15:25:47Z</time>
      </trkpt>
      <trkpt lat="45.74599" lon="4.65322">
        <ele>492.6</ele>
        <time>2025-12-11T15:25:48Z</time>
      </trkpt>
      <trkpt lat="45.74596" lon="4.65332">
        <ele>492.2</ele>
        <time>2025-12-11T15:25:49Z</time>
      </trkpt>
      <trkpt lat="45.74592" lon="4.65341">
        <ele>491.8</ele>
        <time>2025-12-11T15:25:50Z</time>
      </trkpt>
      <trkpt lat="45.74587" lon="4.65349">
        <ele>491.4</ele>
        <time>2025-12-11T15:25:51Z</time>
      </trkpt>
      <trkpt lat="45.74582" lon="4.65357">
        <ele>491.2</ele>
        <time>2025-12-11T15:25:52Z</time>
      </trkpt>
      <trkpt lat="45.74578" lon="4.65364">
        <ele>491</ele>
        <time>2025-12-11T15:25:53Z</time>
      </trkpt>
      <trkpt lat="45.74573" lon="4.65371">
        <ele>491</ele>
        <time>2025-12-11T15:25:54Z</time>
      </trkpt>
      <trkpt lat="45.74569" lon="4.65377">
        <ele>491</ele>
        <time>2025-12-11T15:25:55Z</time>
      </trkpt>
      <trkpt lat="45.74565" lon="4.65384">
        <ele>491</ele>
        <time>2025-12-11T15:25:56Z</time>
      </trkpt>
      <trkpt lat="45.74561" lon="4.65391">
        <ele>491</ele>
        <time>2025-12-11T15:25:57Z</time>
      </trkpt>
      <trkpt lat="45.74557" lon="4.65398">
        <ele>491</ele>
        <time>2025-12-11T15:25:58Z</time>
      </trkpt>
      <trkpt lat="45.74553" lon="4.65405">
        <ele>491</ele>
        <time>2025-12-11T15:25:59Z</time>
      </trkpt>
      <trkpt lat="45.74549" lon="4.65412">
        <ele>490.8</ele>
        <time>2025-12-11T15:26:00Z</time>
      </trkpt>
      <trkpt lat="45.74545" lon="4.65419">
        <ele>490.6</ele>
        <time>2025-12-11T15:26:01Z</time>
      </trkpt>
      <trkpt lat="45.74541" lon="4.65426">
        <ele>490.4</ele>
        <time>2025-12-11T15:26:02Z</time>
      </trkpt>
      <trkpt lat="45.74537" lon="4.65434">
        <ele>490</ele>
        <time>2025-12-11T15:26:03Z</time>
      </trkpt>
      <trkpt lat="45.74532" lon="4.65441">
        <ele>489.4</ele>
        <time>2025-12-11T15:26:04Z</time>
      </trkpt>
      <trkpt lat="45.74528" lon="4.65449">
        <ele>488.8</ele>
        <time>2025-12-11T15:26:05Z</time>
      </trkpt>
      <trkpt lat="45.74523" lon="4.65456">
        <ele>488.4</ele>
        <time>2025-12-11T15:26:06Z</time>
      </trkpt>
      <trkpt lat="45.74519" lon="4.65464">
        <ele>488</ele>
        <time>2025-12-11T15:26:07Z</time>
      </trkpt>
      <trkpt lat="45.74515" lon="4.65471">
        <ele>487.6</ele>
        <time>2025-12-11T15:26:08Z</time>
      </trkpt>
      <trkpt lat="45.7451" lon="4.65479">
        <ele>487.2</ele>
        <time>2025-12-11T15:26:09Z</time>
      </trkpt>
      <trkpt lat="45.74506" lon="4.65486">
        <ele>487</ele>
        <time>2025-12-11T15:26:10Z</time>
      </trkpt>
      <trkpt lat="45.74501" lon="4.65494">
        <ele>486.8</ele>
        <time>2025-12-11T15:26:11Z</time>
      </trkpt>
      <trkpt lat="45.74496" lon="4.65502">
        <ele>486.6</ele>
        <time>2025-12-11T15:26:12Z</time>
      </trkpt>
      <trkpt lat="45.74492" lon="4.6551">
        <ele>486.6</ele>
        <time>2025-12-11T15:26:13Z</time>
      </trkpt>
      <trkpt lat="45.74488" lon="4.65519">
        <ele>486.2</ele>
        <time>2025-12-11T15:26:14Z</time>
      </trkpt>
      <trkpt lat="45.74483" lon="4.65527">
        <ele>486</ele>
        <time>2025-12-11T15:26:15Z</time>
      </trkpt>
      <trkpt lat="45.74479" lon="4.65536">
        <ele>485.6</ele>
        <time>2025-12-11T15:26:16Z</time>
      </trkpt>
      <trkpt lat="45.74475" lon="4.65545">
        <ele>485.2</ele>
        <time>2025-12-11T15:26:17Z</time>
      </trkpt>
      <trkpt lat="45.7447" lon="4.65554">
        <ele>485</ele>
        <time>2025-12-11T15:26:18Z</time>
      </trkpt>
      <trkpt lat="45.74465" lon="4.65563">
        <ele>484.6</ele>
        <time>2025-12-11T15:26:19Z</time>
      </trkpt>
      <trkpt lat="45.74461" lon="4.65572">
        <ele>484.4</ele>
        <time>2025-12-11T15:26:20Z</time>
      </trkpt>
      <trkpt lat="45.74456" lon="4.65582">
        <ele>484.2</ele>
        <time>2025-12-11T15:26:21Z</time>
      </trkpt>
      <trkpt lat="45.74452" lon="4.65591">
        <ele>484</ele>
        <time>2025-12-11T15:26:22Z</time>
      </trkpt>
      <trkpt lat="45.74447" lon="4.65599">
        <ele>483.8</ele>
        <time>2025-12-11T15:26:23Z</time>
      </trkpt>
      <trkpt lat="45.74441" lon="4.65608">
        <ele>483.4</ele>
        <time>2025-12-11T15:26:24Z</time>
      </trkpt>
      <trkpt lat="45.74436" lon="4.65616">
        <ele>483.2</ele>
        <time>2025-12-11T15:26:25Z</time>
      </trkpt>
      <trkpt lat="45.74431" lon="4.65624">
        <ele>483</ele>
        <time>2025-12-11T15:26:26Z</time>
      </trkpt>
      <trkpt lat="45.74426" lon="4.65632">
        <ele>483</ele>
        <time>2025-12-11T15:26:27Z</time>
      </trkpt>
      <trkpt lat="45.7442" lon="4.6564">
        <ele>482.8</ele>
        <time>2025-12-11T15:26:28Z</time>
      </trkpt>
      <trkpt lat="45.74415" lon="4.65648">
        <ele>482.4</ele>
        <time>2025-12-11T15:26:29Z</time>
      </trkpt>
      <trkpt lat="45.7441" lon="4.65656">
        <ele>482</ele>
        <time>2025-12-11T15:26:30Z</time>
      </trkpt>
      <trkpt lat="45.74404" lon="4.65664">
        <ele>481.6</ele>
        <time>2025-12-11T15:26:31Z</time>
      </trkpt>
      <trkpt lat="45.74399" lon="4.65672">
        <ele>481.2</ele>
        <time>2025-12-11T15:26:32Z</time>
      </trkpt>
      <trkpt lat="45.74393" lon="4.65679">
        <ele>481</ele>
        <time>2025-12-11T15:26:33Z</time>
      </trkpt>
      <trkpt lat="45.74388" lon="4.65686">
        <ele>480.8</ele>
        <time>2025-12-11T15:26:34Z</time>
      </trkpt>
      <trkpt lat="45.74382" lon="4.65692">
        <ele>480.6</ele>
        <time>2025-12-11T15:26:35Z</time>
      </trkpt>
      <trkpt lat="45.74377" lon="4.65699">
        <ele>480.4</ele>
        <time>2025-12-11T15:26:36Z</time>
      </trkpt>
      <trkpt lat="45.74372" lon="4.65706">
        <ele>480.4</ele>
        <time>2025-12-11T15:26:37Z</time>
      </trkpt>
      <trkpt lat="45.74366" lon="4.65712">
        <ele>480.4</ele>
        <time>2025-12-11T15:26:38Z</time>
      </trkpt>
      <trkpt lat="45.74361" lon="4.65719">
        <ele>480.6</ele>
        <time>2025-12-11T15:26:39Z</time>
      </trkpt>
      <trkpt lat="45.74356" lon="4.65725">
        <ele>480.6</ele>
        <time>2025-12-11T15:26:40Z</time>
      </trkpt>
      <trkpt lat="45.74351" lon="4.65732">
        <ele>480.8</ele>
        <time>2025-12-11T15:26:41Z</time>
      </trkpt>
      <trkpt lat="45.74347" lon="4.65738">
        <ele>480.8</ele>
        <time>2025-12-11T15:26:42Z</time>
      </trkpt>
      <trkpt lat="45.74342" lon="4.65744">
        <ele>481</ele>
        <time>2025-12-11T15:26:43Z</time>
      </trkpt>
      <trkpt lat="45.74338" lon="4.6575">
        <ele>481.2</ele>
        <time>2025-12-11T15:26:44Z</time>
      </trkpt>
      <trkpt lat="45.74334" lon="4.65756">
        <ele>481.4</ele>
        <time>2025-12-11T15:26:45Z</time>
      </trkpt>
      <trkpt lat="45.7433" lon="4.65762">
        <ele>481.6</ele>
        <time>2025-12-11T15:26:46Z</time>
      </trkpt>
      <trkpt lat="45.74326" lon="4.65767">
        <ele>481.8</ele>
        <time>2025-12-11T15:26:47Z</time>
      </trkpt>
      <trkpt lat="45.74322" lon="4.65771">
        <ele>481.8</ele>
        <time>2025-12-11T15:26:48Z</time>
      </trkpt>
      <trkpt lat="45.74318" lon="4.65776">
        <ele>482</ele>
        <time>2025-12-11T15:26:49Z</time>
      </trkpt>
      <trkpt lat="45.74314" lon="4.65781">
        <ele>482.2</ele>
        <time>2025-12-11T15:26:50Z</time>
      </trkpt>
      <trkpt lat="45.74311" lon="4.65786">
        <ele>482.2</ele>
        <time>2025-12-11T15:26:51Z</time>
      </trkpt>
      <trkpt lat="45.74307" lon="4.65792">
        <ele>482.2</ele>
        <time>2025-12-11T15:26:52Z</time>
      </trkpt>
      <trkpt lat="45.74304" lon="4.65798">
        <ele>482.4</ele>
        <time>2025-12-11T15:26:53Z</time>
      </trkpt>
      <trkpt lat="45.74301" lon="4.65804">
        <ele>482.4</ele>
        <time>2025-12-11T15:26:54Z</time>
      </trkpt>
      <trkpt lat="45.74298" lon="4.6581">
        <ele>482.4</ele>
        <time>2025-12-11T15:26:55Z</time>
      </trkpt>
      <trkpt lat="45.74295" lon="4.65816">
        <ele>482.4</ele>
        <time>2025-12-11T15:26:56Z</time>
      </trkpt>
      <trkpt lat="45.74292" lon="4.65822">
        <ele>482.6</ele>
        <time>2025-12-11T15:26:57Z</time>
      </trkpt>
      <trkpt lat="45.7429" lon="4.65828">
        <ele>482.8</ele>
        <time>2025-12-11T15:26:58Z</time>
      </trkpt>
      <trkpt lat="45.74288" lon="4.65833">
        <ele>483</ele>
        <time>2025-12-11T15:26:59Z</time>
      </trkpt>
      <trkpt lat="45.74286" lon="4.65839">
        <ele>483.2</ele>
        <time>2025-12-11T15:27:00Z</time>
      </trkpt>
      <trkpt lat="45.74285" lon="4.65844">
        <ele>483.4</ele>
        <time>2025-12-11T15:27:01Z</time>
      </trkpt>
      <trkpt lat="45.74283" lon="4.65849">
        <ele>483.8</ele>
        <time>2025-12-11T15:27:02Z</time>
      </trkpt>
      <trkpt lat="45.74282" lon="4.65854">
        <ele>484</ele>
        <time>2025-12-11T15:27:03Z</time>
      </trkpt>
      <trkpt lat="45.7428" lon="4.6586">
        <ele>484.2</ele>
        <time>2025-12-11T15:27:04Z</time>
      </trkpt>
      <trkpt lat="45.74279" lon="4.65865">
        <ele>484.4</ele>
        <time>2025-12-11T15:27:05Z</time>
      </trkpt>
      <trkpt lat="45.74278" lon="4.6587">
        <ele>484.4</ele>
        <time>2025-12-11T15:27:06Z</time>
      </trkpt>
      <trkpt lat="45.74276" lon="4.65875">
        <ele>484.6</ele>
        <time>2025-12-11T15:27:07Z</time>
      </trkpt>
      <trkpt lat="45.74275" lon="4.6588">
        <ele>484.8</ele>
        <time>2025-12-11T15:27:08Z</time>
      </trkpt>
      <trkpt lat="45.74273" lon="4.65885">
        <ele>485</ele>
        <time>2025-12-11T15:27:09Z</time>
      </trkpt>
      <trkpt lat="45.74272" lon="4.6589">
        <ele>485</ele>
        <time>2025-12-11T15:27:10Z</time>
      </trkpt>
      <trkpt lat="45.74271" lon="4.65894">
        <ele>485.2</ele>
        <time>2025-12-11T15:27:11Z</time>
      </trkpt>
      <trkpt lat="45.74269" lon="4.65899">
        <ele>485.2</ele>
        <time>2025-12-11T15:27:12Z</time>
      </trkpt>
      <trkpt lat="45.74267" lon="4.65904">
        <ele>485.2</ele>
        <time>2025-12-11T15:27:13Z</time>
      </trkpt>
      <trkpt lat="45.74266" lon="4.65909">
        <ele>485</ele>
        <time>2025-12-11T15:27:14Z</time>
      </trkpt>
      <trkpt lat="45.74264" lon="4.65915">
        <ele>485</ele>
        <time>2025-12-11T15:27:15Z</time>
      </trkpt>
      <trkpt lat="45.74262" lon="4.65921">
        <ele>484.8</ele>
        <time>2025-12-11T15:27:16Z</time>
      </trkpt>
      <trkpt lat="45.7426" lon="4.65927">
        <ele>484.4</ele>
        <time>2025-12-11T15:27:17Z</time>
      </trkpt>
      <trkpt lat="45.74258" lon="4.65933">
        <ele>484.2</ele>
        <time>2025-12-11T15:27:18Z</time>
      </trkpt>
      <trkpt lat="45.74256" lon="4.6594">
        <ele>484</ele>
        <time>2025-12-11T15:27:19Z</time>
      </trkpt>
      <trkpt lat="45.74254" lon="4.65946">
        <ele>483.8</ele>
        <time>2025-12-11T15:27:20Z</time>
      </trkpt>
      <trkpt lat="45.74252" lon="4.65953">
        <ele>483.4</ele>
        <time>2025-12-11T15:27:21Z</time>
      </trkpt>
      <trkpt lat="45.74249" lon="4.6596">
        <ele>483</ele>
        <time>2025-12-11T15:27:22Z</time>
      </trkpt>
      <trkpt lat="45.74247" lon="4.65967">
        <ele>482.6</ele>
        <time>2025-12-11T15:27:23Z</time>
      </trkpt>
      <trkpt lat="45.74244" lon="4.65974">
        <ele>482.2</ele>
        <time>2025-12-11T15:27:24Z</time>
      </trkpt>
      <trkpt lat="45.74241" lon="4.65981">
        <ele>482</ele>
        <time>2025-12-11T15:27:25Z</time>
      </trkpt>
      <trkpt lat="45.74239" lon="4.65989">
        <ele>481.6</ele>
        <time>2025-12-11T15:27:26Z</time>
      </trkpt>
      <trkpt lat="45.74236" lon="4.65997">
        <ele>481.2</ele>
        <time>2025-12-11T15:27:27Z</time>
      </trkpt>
      <trkpt lat="45.74233" lon="4.66005">
        <ele>480.8</ele>
        <time>2025-12-11T15:27:28Z</time>
      </trkpt>
      <trkpt lat="45.7423" lon="4.66013">
        <ele>480.2</ele>
        <time>2025-12-11T15:27:29Z</time>
      </trkpt>
      <trkpt lat="45.74226" lon="4.66021">
        <ele>479.6</ele>
        <time>2025-12-11T15:27:30Z</time>
      </trkpt>
      <trkpt lat="45.74222" lon="4.66029">
        <ele>479</ele>
        <time>2025-12-11T15:27:31Z</time>
      </trkpt>
      <trkpt lat="45.74218" lon="4.66038">
        <ele>478.4</ele>
        <time>2025-12-11T15:27:32Z</time>
      </trkpt>
      <trkpt lat="45.74213" lon="4.66047">
        <ele>477.6</ele>
        <time>2025-12-11T15:27:33Z</time>
      </trkpt>
      <trkpt lat="45.74208" lon="4.66056">
        <ele>476.8</ele>
        <time>2025-12-11T15:27:34Z</time>
      </trkpt>
      <trkpt lat="45.74202" lon="4.66065">
        <ele>476</ele>
        <time>2025-12-11T15:27:35Z</time>
      </trkpt>
      <trkpt lat="45.74196" lon="4.66074">
        <ele>475.2</ele>
        <time>2025-12-11T15:27:36Z</time>
      </trkpt>
      <trkpt lat="45.7419" lon="4.66083">
        <ele>474.6</ele>
        <time>2025-12-11T15:27:37Z</time>
      </trkpt>
      <trkpt lat="45.74184" lon="4.66091">
        <ele>474</ele>
        <time>2025-12-11T15:27:38Z</time>
      </trkpt>
      <trkpt lat="45.74178" lon="4.661">
        <ele>473.6</ele>
        <time>2025-12-11T15:27:39Z</time>
      </trkpt>
      <trkpt lat="45.74171" lon="4.66108">
        <ele>473</ele>
        <time>2025-12-11T15:27:40Z</time>
      </trkpt>
      <trkpt lat="45.74165" lon="4.66116">
        <ele>472.6</ele>
        <time>2025-12-11T15:27:41Z</time>
      </trkpt>
      <trkpt lat="45.74158" lon="4.66124">
        <ele>472.4</ele>
        <time>2025-12-11T15:27:42Z</time>
      </trkpt>
      <trkpt lat="45.74152" lon="4.6613">
        <ele>472.2</ele>
        <time>2025-12-11T15:27:43Z</time>
      </trkpt>
      <trkpt lat="45.74146" lon="4.66135">
        <ele>472</ele>
        <time>2025-12-11T15:27:44Z</time>
      </trkpt>
      <trkpt lat="45.7414" lon="4.66141">
        <ele>472</ele>
        <time>2025-12-11T15:27:45Z</time>
      </trkpt>
      <trkpt lat="45.74133" lon="4.66146">
        <ele>471.8</ele>
        <time>2025-12-11T15:27:46Z</time>
      </trkpt>
      <trkpt lat="45.74126" lon="4.66151">
        <ele>471.8</ele>
        <time>2025-12-11T15:27:47Z</time>
      </trkpt>
      <trkpt lat="45.74119" lon="4.66156">
        <ele>471.4</ele>
        <time>2025-12-11T15:27:48Z</time>
      </trkpt>
      <trkpt lat="45.74112" lon="4.6616">
        <ele>471</ele>
        <time>2025-12-11T15:27:49Z</time>
      </trkpt>
      <trkpt lat="45.74104" lon="4.66166">
        <ele>470.4</ele>
        <time>2025-12-11T15:27:50Z</time>
      </trkpt>
      <trkpt lat="45.74097" lon="4.66171">
        <ele>469.8</ele>
        <time>2025-12-11T15:27:51Z</time>
      </trkpt>
      <trkpt lat="45.7409" lon="4.66176">
        <ele>469.2</ele>
        <time>2025-12-11T15:27:52Z</time>
      </trkpt>
      <trkpt lat="45.74082" lon="4.66182">
        <ele>468.6</ele>
        <time>2025-12-11T15:27:53Z</time>
      </trkpt>
      <trkpt lat="45.74074" lon="4.66186">
        <ele>467.8</ele>
        <time>2025-12-11T15:27:54Z</time>
      </trkpt>
      <trkpt lat="45.74065" lon="4.6619">
        <ele>467.4</ele>
        <time>2025-12-11T15:27:55Z</time>
      </trkpt>
      <trkpt lat="45.74057" lon="4.66193">
        <ele>466.8</ele>
        <time>2025-12-11T15:27:56Z</time>
      </trkpt>
      <trkpt lat="45.74049" lon="4.66197">
        <ele>466.4</ele>
        <time>2025-12-11T15:27:57Z</time>
      </trkpt>
      <trkpt lat="45.74041" lon="4.662">
        <ele>466.2</ele>
        <time>2025-12-11T15:27:58Z</time>
      </trkpt>
      <trkpt lat="45.74034" lon="4.66203">
        <ele>465.8</ele>
        <time>2025-12-11T15:27:59Z</time>
      </trkpt>
      <trkpt lat="45.74026" lon="4.66206">
        <ele>465.6</ele>
        <time>2025-12-11T15:28:00Z</time>
      </trkpt>
      <trkpt lat="45.74019" lon="4.66208">
        <ele>465.4</ele>
        <time>2025-12-11T15:28:01Z</time>
      </trkpt>
      <trkpt lat="45.74012" lon="4.66211">
        <ele>465.4</ele>
        <time>2025-12-11T15:28:02Z</time>
      </trkpt>
      <trkpt lat="45.74004" lon="4.66213">
        <ele>465.4</ele>
        <time>2025-12-11T15:28:03Z</time>
      </trkpt>
      <trkpt lat="45.73997" lon="4.66216">
        <ele>465.4</ele>
        <time>2025-12-11T15:28:04Z</time>
      </trkpt>
      <trkpt lat="45.7399" lon="4.6622">
        <ele>465.2</ele>
        <time>2025-12-11T15:28:05Z</time>
      </trkpt>
      <trkpt lat="45.73982" lon="4.66224">
        <ele>465</ele>
        <time>2025-12-11T15:28:06Z</time>
      </trkpt>
      <trkpt lat="45.73974" lon="4.66227">
        <ele>464.6</ele>
        <time>2025-12-11T15:28:07Z</time>
      </trkpt>
      <trkpt lat="45.73967" lon="4.6623">
        <ele>464</ele>
        <time>2025-12-11T15:28:08Z</time>
      </trkpt>
      <trkpt lat="45.73959" lon="4.66232">
        <ele>463.4</ele>
        <time>2025-12-11T15:28:09Z</time>
      </trkpt>
      <trkpt lat="45.7395" lon="4.66234">
        <ele>462.8</ele>
        <time>2025-12-11T15:28:10Z</time>
      </trkpt>
      <trkpt lat="45.73942" lon="4.66237">
        <ele>462.2</ele>
        <time>2025-12-11T15:28:11Z</time>
      </trkpt>
      <trkpt lat="45.73934" lon="4.6624">
        <ele>461.6</ele>
        <time>2025-12-11T15:28:12Z</time>
      </trkpt>
      <trkpt lat="45.73926" lon="4.66244">
        <ele>461</ele>
        <time>2025-12-11T15:28:13Z</time>
      </trkpt>
      <trkpt lat="45.73918" lon="4.66249">
        <ele>460.4</ele>
        <time>2025-12-11T15:28:14Z</time>
      </trkpt>
      <trkpt lat="45.7391" lon="4.66255">
        <ele>460</ele>
        <time>2025-12-11T15:28:15Z</time>
      </trkpt>
      <trkpt lat="45.73903" lon="4.66262">
        <ele>459.4</ele>
        <time>2025-12-11T15:28:16Z</time>
      </trkpt>
      <trkpt lat="45.73896" lon="4.66268">
        <ele>459</ele>
        <time>2025-12-11T15:28:17Z</time>
      </trkpt>
      <trkpt lat="45.7389" lon="4.66275">
        <ele>458.4</ele>
        <time>2025-12-11T15:28:18Z</time>
      </trkpt>
      <trkpt lat="45.73883" lon="4.66281">
        <ele>457.8</ele>
        <time>2025-12-11T15:28:19Z</time>
      </trkpt>
      <trkpt lat="45.73876" lon="4.66287">
        <ele>457</ele>
        <time>2025-12-11T15:28:20Z</time>
      </trkpt>
      <trkpt lat="45.73869" lon="4.66293">
        <ele>456.2</ele>
        <time>2025-12-11T15:28:21Z</time>
      </trkpt>
      <trkpt lat="45.73861" lon="4.66298">
        <ele>455.2</ele>
        <time>2025-12-11T15:28:22Z</time>
      </trkpt>
      <trkpt lat="45.73853" lon="4.66303">
        <ele>454.6</ele>
        <time>2025-12-11T15:28:23Z</time>
      </trkpt>
      <trkpt lat="45.73846" lon="4.66306">
        <ele>453.8</ele>
        <time>2025-12-11T15:28:24Z</time>
      </trkpt>
      <trkpt lat="45.73838" lon="4.66308">
        <ele>453</ele>
        <time>2025-12-11T15:28:25Z</time>
      </trkpt>
      <trkpt lat="45.7383" lon="4.66309">
        <ele>452.4</ele>
        <time>2025-12-11T15:28:26Z</time>
      </trkpt>
      <trkpt lat="45.73822" lon="4.66309">
        <ele>451.6</ele>
        <time>2025-12-11T15:28:27Z</time>
      </trkpt>
      <trkpt lat="45.73813" lon="4.66307">
        <ele>450.6</ele>
        <time>2025-12-11T15:28:28Z</time>
      </trkpt>
      <trkpt lat="45.73805" lon="4.66307">
        <ele>449.6</ele>
        <time>2025-12-11T15:28:29Z</time>
      </trkpt>
      <trkpt lat="45.73798" lon="4.66309">
        <ele>448.4</ele>
        <time>2025-12-11T15:28:30Z</time>
      </trkpt>
      <trkpt lat="45.73791" lon="4.66314">
        <ele>447.4</ele>
        <time>2025-12-11T15:28:31Z</time>
      </trkpt>
      <trkpt lat="45.73785" lon="4.66321">
        <ele>446.4</ele>
        <time>2025-12-11T15:28:32Z</time>
      </trkpt>
      <trkpt lat="45.7378" lon="4.6633">
        <ele>445.4</ele>
        <time>2025-12-11T15:28:33Z</time>
      </trkpt>
      <trkpt lat="45.73774" lon="4.6634">
        <ele>444.4</ele>
        <time>2025-12-11T15:28:34Z</time>
      </trkpt>
      <trkpt lat="45.73768" lon="4.6635">
        <ele>443.4</ele>
        <time>2025-12-11T15:28:35Z</time>
      </trkpt>
      <trkpt lat="45.73761" lon="4.6636">
        <ele>442.2</ele>
        <time>2025-12-11T15:28:36Z</time>
      </trkpt>
      <trkpt lat="45.73753" lon="4.66369">
        <ele>441</ele>
        <time>2025-12-11T15:28:37Z</time>
      </trkpt>
      <trkpt lat="45.73746" lon="4.66377">
        <ele>439.8</ele>
        <time>2025-12-11T15:28:38Z</time>
      </trkpt>
      <trkpt lat="45.73738" lon="4.66383">
        <ele>438.6</ele>
        <time>2025-12-11T15:28:39Z</time>
      </trkpt>
      <trkpt lat="45.73732" lon="4.66388">
        <ele>437.6</ele>
        <time>2025-12-11T15:28:40Z</time>
      </trkpt>
      <trkpt lat="45.73726" lon="4.66392">
        <ele>437</ele>
        <time>2025-12-11T15:28:41Z</time>
      </trkpt>
      <trkpt lat="45.73721" lon="4.66395">
        <ele>436.4</ele>
        <time>2025-12-11T15:28:42Z</time>
      </trkpt>
      <trkpt lat="45.73716" lon="4.66398">
        <ele>435.8</ele>
        <time>2025-12-11T15:28:43Z</time>
      </trkpt>
      <trkpt lat="45.73712" lon="4.66401">
        <ele>435.2</ele>
        <time>2025-12-11T15:28:44Z</time>
      </trkpt>
      <trkpt lat="45.73709" lon="4.66406">
        <ele>434.6</ele>
        <time>2025-12-11T15:28:45Z</time>
      </trkpt>
      <trkpt lat="45.73706" lon="4.66413">
        <ele>433.8</ele>
        <time>2025-12-11T15:28:46Z</time>
      </trkpt>
      <trkpt lat="45.73703" lon="4.66418">
        <ele>433.2</ele>
        <time>2025-12-11T15:28:47Z</time>
      </trkpt>
      <trkpt lat="45.73699" lon="4.66422">
        <ele>432.4</ele>
        <time>2025-12-11T15:28:48Z</time>
      </trkpt>
      <trkpt lat="45.73694" lon="4.66427">
        <ele>431.6</ele>
        <time>2025-12-11T15:28:49Z</time>
      </trkpt>
      <trkpt lat="45.73688" lon="4.66432">
        <ele>430.8</ele>
        <time>2025-12-11T15:28:50Z</time>
      </trkpt>
      <trkpt lat="45.73681" lon="4.66438">
        <ele>429.6</ele>
        <time>2025-12-11T15:28:51Z</time>
      </trkpt>
      <trkpt lat="45.73674" lon="4.66444">
        <ele>428.2</ele>
        <time>2025-12-11T15:28:52Z</time>
      </trkpt>
      <trkpt lat="45.73667" lon="4.66449">
        <ele>427</ele>
        <time>2025-12-11T15:28:53Z</time>
      </trkpt>
      <trkpt lat="45.7366" lon="4.66455">
        <ele>425.8</ele>
        <time>2025-12-11T15:28:54Z</time>
      </trkpt>
      <trkpt lat="45.73653" lon="4.6646">
        <ele>424.6</ele>
        <time>2025-12-11T15:28:55Z</time>
      </trkpt>
      <trkpt lat="45.73648" lon="4.66464">
        <ele>424</ele>
        <time>2025-12-11T15:28:56Z</time>
      </trkpt>
      <trkpt lat="45.73644" lon="4.66468">
        <ele>423.4</ele>
        <time>2025-12-11T15:28:57Z</time>
      </trkpt>
      <trkpt lat="45.73641" lon="4.66469">
        <ele>423.2</ele>
        <time>2025-12-11T15:28:58Z</time>
      </trkpt>
      <trkpt lat="45.73638" lon="4.66471">
        <ele>422.8</ele>
        <time>2025-12-11T15:28:59Z</time>
      </trkpt>
      <trkpt lat="45.73635" lon="4.66473">
        <ele>422.6</ele>
        <time>2025-12-11T15:29:00Z</time>
      </trkpt>
      <trkpt lat="45.73631" lon="4.66476">
        <ele>422.2</ele>
        <time>2025-12-11T15:29:01Z</time>
      </trkpt>
      <trkpt lat="45.73626" lon="4.66479">
        <ele>421.4</ele>
        <time>2025-12-11T15:29:02Z</time>
      </trkpt>
      <trkpt lat="45.7362" lon="4.66483">
        <ele>420.6</ele>
        <time>2025-12-11T15:29:03Z</time>
      </trkpt>
      <trkpt lat="45.73614" lon="4.66487">
        <ele>419.8</ele>
        <time>2025-12-11T15:29:04Z</time>
      </trkpt>
      <trkpt lat="45.73607" lon="4.66492">
        <ele>418.8</ele>
        <time>2025-12-11T15:29:05Z</time>
      </trkpt>
      <trkpt lat="45.736" lon="4.66497">
        <ele>417.8</ele>
        <time>2025-12-11T15:29:06Z</time>
      </trkpt>
      <trkpt lat="45.73594" lon="4.66501">
        <ele>416.8</ele>
        <time>2025-12-11T15:29:07Z</time>
      </trkpt>
      <trkpt lat="45.73588" lon="4.66506">
        <ele>416</ele>
        <time>2025-12-11T15:29:08Z</time>
      </trkpt>
      <trkpt lat="45.73583" lon="4.66511">
        <ele>415.4</ele>
        <time>2025-12-11T15:29:09Z</time>
      </trkpt>
      <trkpt lat="45.73578" lon="4.66516">
        <ele>414.8</ele>
        <time>2025-12-11T15:29:10Z</time>
      </trkpt>
      <trkpt lat="45.73574" lon="4.66521">
        <ele>414.4</ele>
        <time>2025-12-11T15:29:11Z</time>
      </trkpt>
      <trkpt lat="45.7357" lon="4.66525">
        <ele>414</ele>
        <time>2025-12-11T15:29:12Z</time>
      </trkpt>
      <trkpt lat="45.73567" lon="4.66529">
        <ele>413.6</ele>
        <time>2025-12-11T15:29:13Z</time>
      </trkpt>
      <trkpt lat="45.73564" lon="4.66532">
        <ele>413.4</ele>
        <time>2025-12-11T15:29:14Z</time>
      </trkpt>
      <trkpt lat="45.73561" lon="4.66536">
        <ele>413.2</ele>
        <time>2025-12-11T15:29:15Z</time>
      </trkpt>
      <trkpt lat="45.7356" lon="4.6654">
        <ele>413</ele>
        <time>2025-12-11T15:29:16Z</time>
      </trkpt>
      <trkpt lat="45.73558" lon="4.66545">
        <ele>412.6</ele>
        <time>2025-12-11T15:29:17Z</time>
      </trkpt>
      <trkpt lat="45.73556" lon="4.66552">
        <ele>412.2</ele>
        <time>2025-12-11T15:29:18Z</time>
      </trkpt>
      <trkpt lat="45.73554" lon="4.66559">
        <ele>411.8</ele>
        <time>2025-12-11T15:29:19Z</time>
      </trkpt>
      <trkpt lat="45.73552" lon="4.66565">
        <ele>411.2</ele>
        <time>2025-12-11T15:29:20Z</time>
      </trkpt>
      <trkpt lat="45.73549" lon="4.66572">
        <ele>410.4</ele>
        <time>2025-12-11T15:29:21Z</time>
      </trkpt>
      <trkpt lat="45.73545" lon="4.66577">
        <ele>409.6</ele>
        <time>2025-12-11T15:29:22Z</time>
      </trkpt>
      <trkpt lat="45.73541" lon="4.66582">
        <ele>408.6</ele>
        <time>2025-12-11T15:29:23Z</time>
      </trkpt>
      <trkpt lat="45.73535" lon="4.66588">
        <ele>407.6</ele>
        <time>2025-12-11T15:29:24Z</time>
      </trkpt>
      <trkpt lat="45.7353" lon="4.66595">
        <ele>406.4</ele>
        <time>2025-12-11T15:29:25Z</time>
      </trkpt>
      <trkpt lat="45.73524" lon="4.66601">
        <ele>405.6</ele>
        <time>2025-12-11T15:29:26Z</time>
      </trkpt>
      <trkpt lat="45.73518" lon="4.66607">
        <ele>404.6</ele>
        <time>2025-12-11T15:29:27Z</time>
      </trkpt>
      <trkpt lat="45.73511" lon="4.66613">
        <ele>403.6</ele>
        <time>2025-12-11T15:29:28Z</time>
      </trkpt>
      <trkpt lat="45.73505" lon="4.66619">
        <ele>402.6</ele>
        <time>2025-12-11T15:29:29Z</time>
      </trkpt>
      <trkpt lat="45.73498" lon="4.66624">
        <ele>401.6</ele>
        <time>2025-12-11T15:29:30Z</time>
      </trkpt>
      <trkpt lat="45.7349" lon="4.6663">
        <ele>400.6</ele>
        <time>2025-12-11T15:29:31Z</time>
      </trkpt>
      <trkpt lat="45.73482" lon="4.66635">
        <ele>399.4</ele>
        <time>2025-12-11T15:29:32Z</time>
      </trkpt>
      <trkpt lat="45.73475" lon="4.6664">
        <ele>398.4</ele>
        <time>2025-12-11T15:29:33Z</time>
      </trkpt>
      <trkpt lat="45.73468" lon="4.66645">
        <ele>397.4</ele>
        <time>2025-12-11T15:29:34Z</time>
      </trkpt>
      <trkpt lat="45.7346" lon="4.66651">
        <ele>396.4</ele>
        <time>2025-12-11T15:29:35Z</time>
      </trkpt>
      <trkpt lat="45.73453" lon="4.66656">
        <ele>395.6</ele>
        <time>2025-12-11T15:29:36Z</time>
      </trkpt>
      <trkpt lat="45.73446" lon="4.66661">
        <ele>394.8</ele>
        <time>2025-12-11T15:29:37Z</time>
      </trkpt>
      <trkpt lat="45.7344" lon="4.66666">
        <ele>394.2</ele>
        <time>2025-12-11T15:29:38Z</time>
      </trkpt>
      <trkpt lat="45.73435" lon="4.66671">
        <ele>393.6</ele>
        <time>2025-12-11T15:29:39Z</time>
      </trkpt>
      <trkpt lat="45.73432" lon="4.66675">
        <ele>393.2</ele>
        <time>2025-12-11T15:29:40Z</time>
      </trkpt>
      <trkpt lat="45.73429" lon="4.66678">
        <ele>392.8</ele>
        <time>2025-12-11T15:29:41Z</time>
      </trkpt>
      <trkpt lat="45.73426" lon="4.6668">
        <ele>392.6</ele>
        <time>2025-12-11T15:29:42Z</time>
      </trkpt>
      <trkpt lat="45.73424" lon="4.66681">
        <ele>392.4</ele>
        <time>2025-12-11T15:29:43Z</time>
      </trkpt>
      <trkpt lat="45.73424" lon="4.66682">
        <ele>392.2</ele>
        <time>2025-12-11T15:29:44Z</time>
      </trkpt>
      <trkpt lat="45.73424" lon="4.66682">
        <ele>392.2</ele>
        <time>2025-12-11T15:29:45Z</time>
      </trkpt>
      <trkpt lat="45.73424" lon="4.66682">
        <ele>392</ele>
        <time>2025-12-11T15:29:46Z</time>
      </trkpt>
      <trkpt lat="45.73423" lon="4.66682">
        <ele>392</ele>
        <time>2025-12-11T15:29:47Z</time>
      </trkpt>
      <trkpt lat="45.73421" lon="4.66683">
        <ele>392</ele>
        <time>2025-12-11T15:29:48Z</time>
      </trkpt>
      <trkpt lat="45.73419" lon="4.66685">
        <ele>392</ele>
        <time>2025-12-11T15:29:49Z</time>
      </trkpt>
      <trkpt lat="45.73417" lon="4.66686">
        <ele>391.8</ele>
        <time>2025-12-11T15:29:50Z</time>
      </trkpt>
      <trkpt lat="45.73414" lon="4.66688">
        <ele>391.4</ele>
        <time>2025-12-11T15:29:51Z</time>
      </trkpt>
      <trkpt lat="45.73411" lon="4.66691">
        <ele>391</ele>
        <time>2025-12-11T15:29:52Z</time>
      </trkpt>
      <trkpt lat="45.73407" lon="4.66695">
        <ele>390.4</ele>
        <time>2025-12-11T15:29:53Z</time>
      </trkpt>
      <trkpt lat="45.73402" lon="4.667">
        <ele>389.8</ele>
        <time>2025-12-11T15:29:54Z</time>
      </trkpt>
      <trkpt lat="45.73396" lon="4.66705">
        <ele>389</ele>
        <time>2025-12-11T15:29:55Z</time>
      </trkpt>
      <trkpt lat="45.7339" lon="4.6671">
        <ele>388</ele>
        <time>2025-12-11T15:29:56Z</time>
      </trkpt>
      <trkpt lat="45.73384" lon="4.66715">
        <ele>387.2</ele>
        <time>2025-12-11T15:29:57Z</time>
      </trkpt>
      <trkpt lat="45.73378" lon="4.6672">
        <ele>386.4</ele>
        <time>2025-12-11T15:29:58Z</time>
      </trkpt>
      <trkpt lat="45.73373" lon="4.66725">
        <ele>385.6</ele>
        <time>2025-12-11T15:29:59Z</time>
      </trkpt>
      <trkpt lat="45.73367" lon="4.66731">
        <ele>384.8</ele>
        <time>2025-12-11T15:30:00Z</time>
      </trkpt>
      <trkpt lat="45.73361" lon="4.66736">
        <ele>384</ele>
        <time>2025-12-11T15:30:01Z</time>
      </trkpt>
      <trkpt lat="45.73355" lon="4.66741">
        <ele>383.2</ele>
        <time>2025-12-11T15:30:02Z</time>
      </trkpt>
      <trkpt lat="45.7335" lon="4.66747">
        <ele>382.4</ele>
        <time>2025-12-11T15:30:03Z</time>
      </trkpt>
      <trkpt lat="45.73345" lon="4.66752">
        <ele>381.6</ele>
        <time>2025-12-11T15:30:04Z</time>
      </trkpt>
      <trkpt lat="45.73341" lon="4.66758">
        <ele>380.8</ele>
        <time>2025-12-11T15:30:05Z</time>
      </trkpt>
      <trkpt lat="45.73337" lon="4.66764">
        <ele>380.2</ele>
        <time>2025-12-11T15:30:06Z</time>
      </trkpt>
      <trkpt lat="45.73334" lon="4.66769">
        <ele>379.8</ele>
        <time>2025-12-11T15:30:07Z</time>
      </trkpt>
      <trkpt lat="45.73332" lon="4.66773">
        <ele>379.4</ele>
        <time>2025-12-11T15:30:08Z</time>
      </trkpt>
      <trkpt lat="45.73331" lon="4.66777">
        <ele>379.2</ele>
        <time>2025-12-11T15:30:09Z</time>
      </trkpt>
      <trkpt lat="45.73329" lon="4.66782">
        <ele>379</ele>
        <time>2025-12-11T15:30:10Z</time>
      </trkpt>
      <trkpt lat="45.73326" lon="4.66787">
        <ele>378.6</ele>
        <time>2025-12-11T15:30:11Z</time>
      </trkpt>
      <trkpt lat="45.73323" lon="4.66793">
        <ele>378.2</ele>
        <time>2025-12-11T15:30:12Z</time>
      </trkpt>
      <trkpt lat="45.73319" lon="4.66798">
        <ele>377.4</ele>
        <time>2025-12-11T15:30:13Z</time>
      </trkpt>
      <trkpt lat="45.73314" lon="4.66803">
        <ele>376.8</ele>
        <time>2025-12-11T15:30:14Z</time>
      </trkpt>
      <trkpt lat="45.7331" lon="4.66808">
        <ele>376</ele>
        <time>2025-12-11T15:30:15Z</time>
      </trkpt>
      <trkpt lat="45.73304" lon="4.66814">
        <ele>375</ele>
        <time>2025-12-11T15:30:16Z</time>
      </trkpt>
      <trkpt lat="45.73299" lon="4.6682">
        <ele>374.2</ele>
        <time>2025-12-11T15:30:17Z</time>
      </trkpt>
      <trkpt lat="45.73293" lon="4.66827">
        <ele>373.4</ele>
        <time>2025-12-11T15:30:18Z</time>
      </trkpt>
      <trkpt lat="45.73287" lon="4.66833">
        <ele>372.4</ele>
        <time>2025-12-11T15:30:19Z</time>
      </trkpt>
      <trkpt lat="45.73281" lon="4.66839">
        <ele>371.8</ele>
        <time>2025-12-11T15:30:20Z</time>
      </trkpt>
      <trkpt lat="45.73275" lon="4.66845">
        <ele>371</ele>
        <time>2025-12-11T15:30:21Z</time>
      </trkpt>
      <trkpt lat="45.7327" lon="4.6685">
        <ele>370.6</ele>
        <time>2025-12-11T15:30:22Z</time>
      </trkpt>
      <trkpt lat="45.73266" lon="4.66854">
        <ele>370.2</ele>
        <time>2025-12-11T15:30:23Z</time>
      </trkpt>
      <trkpt lat="45.73262" lon="4.66857">
        <ele>370</ele>
        <time>2025-12-11T15:30:24Z</time>
      </trkpt>
      <trkpt lat="45.73259" lon="4.66861">
        <ele>369.6</ele>
        <time>2025-12-11T15:30:25Z</time>
      </trkpt>
      <trkpt lat="45.73256" lon="4.66864">
        <ele>369.4</ele>
        <time>2025-12-11T15:30:26Z</time>
      </trkpt>
      <trkpt lat="45.73253" lon="4.66868">
        <ele>369.4</ele>
        <time>2025-12-11T15:30:27Z</time>
      </trkpt>
      <trkpt lat="45.7325" lon="4.66871">
        <ele>369.2</ele>
        <time>2025-12-11T15:30:28Z</time>
      </trkpt>
      <trkpt lat="45.73247" lon="4.66875">
        <ele>368.8</ele>
        <time>2025-12-11T15:30:29Z</time>
      </trkpt>
      <trkpt lat="45.73243" lon="4.6688">
        <ele>368.6</ele>
        <time>2025-12-11T15:30:30Z</time>
      </trkpt>
      <trkpt lat="45.7324" lon="4.66886">
        <ele>368</ele>
        <time>2025-12-11T15:30:31Z</time>
      </trkpt>
      <trkpt lat="45.73235" lon="4.66891">
        <ele>367.6</ele>
        <time>2025-12-11T15:30:32Z</time>
      </trkpt>
      <trkpt lat="45.7323" lon="4.66897">
        <ele>367</ele>
        <time>2025-12-11T15:30:33Z</time>
      </trkpt>
      <trkpt lat="45.73226" lon="4.66903">
        <ele>366.4</ele>
        <time>2025-12-11T15:30:34Z</time>
      </trkpt>
      <trkpt lat="45.73221" lon="4.66909">
        <ele>366</ele>
        <time>2025-12-11T15:30:35Z</time>
      </trkpt>
      <trkpt lat="45.73217" lon="4.66913">
        <ele>365.4</ele>
        <time>2025-12-11T15:30:36Z</time>
      </trkpt>
      <trkpt lat="45.73213" lon="4.66918">
        <ele>365</ele>
        <time>2025-12-11T15:30:37Z</time>
      </trkpt>
      <trkpt lat="45.73209" lon="4.66922">
        <ele>364.8</ele>
        <time>2025-12-11T15:30:38Z</time>
      </trkpt>
      <trkpt lat="45.73205" lon="4.66925">
        <ele>364.4</ele>
        <time>2025-12-11T15:30:39Z</time>
      </trkpt>
      <trkpt lat="45.73202" lon="4.66929">
        <ele>364.2</ele>
        <time>2025-12-11T15:30:40Z</time>
      </trkpt>
      <trkpt lat="45.73199" lon="4.66934">
        <ele>364</ele>
        <time>2025-12-11T15:30:41Z</time>
      </trkpt>
      <trkpt lat="45.73196" lon="4.66938">
        <ele>363.6</ele>
        <time>2025-12-11T15:30:42Z</time>
      </trkpt>
      <trkpt lat="45.73192" lon="4.66942">
        <ele>363.2</ele>
        <time>2025-12-11T15:30:43Z</time>
      </trkpt>
      <trkpt lat="45.73189" lon="4.66944">
        <ele>363</ele>
        <time>2025-12-11T15:30:44Z</time>
      </trkpt>
      <trkpt lat="45.73188" lon="4.66945">
        <ele>362.8</ele>
        <time>2025-12-11T15:30:45Z</time>
      </trkpt>
      <trkpt lat="45.73188" lon="4.66945">
        <ele>362.6</ele>
        <time>2025-12-11T15:30:46Z</time>
      </trkpt>
      <trkpt lat="45.73188" lon="4.66945">
        <ele>362.6</ele>
        <time>2025-12-11T15:30:47Z</time>
      </trkpt>
      <trkpt lat="45.73188" lon="4.66945">
        <ele>362.6</ele>
        <time>2025-12-11T15:30:48Z</time>
      </trkpt>
      <trkpt lat="45.73188" lon="4.66945">
        <ele>362.8</ele>
        <time>2025-12-11T15:30:49Z</time>
      </trkpt>
      <trkpt lat="45.73186" lon="4.66945">
        <ele>362.6</ele>
        <time>2025-12-11T15:30:50Z</time>
      </trkpt>
      <trkpt lat="45.73183" lon="4.66947">
        <ele>362.6</ele>
        <time>2025-12-11T15:30:51Z</time>
      </trkpt>
      <trkpt lat="45.7318" lon="4.66948">
        <ele>362.4</ele>
        <time>2025-12-11T15:30:52Z</time>
      </trkpt>
      <trkpt lat="45.73177" lon="4.6695">
        <ele>362.4</ele>
        <time>2025-12-11T15:30:53Z</time>
      </trkpt>
      <trkpt lat="45.73174" lon="4.66952">
        <ele>362.2</ele>
        <time>2025-12-11T15:30:54Z</time>
      </trkpt>
      <trkpt lat="45.73171" lon="4.66954">
        <ele>362</ele>
        <time>2025-12-11T15:30:55Z</time>
      </trkpt>
      <trkpt lat="45.73169" lon="4.66955">
        <ele>362</ele>
        <time>2025-12-11T15:30:56Z</time>
      </trkpt>
      <trkpt lat="45.73168" lon="4.66955">
        <ele>362</ele>
        <time>2025-12-11T15:30:57Z</time>
      </trkpt>
      <trkpt lat="45.73168" lon="4.66955">
        <ele>362</ele>
        <time>2025-12-11T15:30:58Z</time>
      </trkpt>
      <trkpt lat="45.73168" lon="4.66955">
        <ele>362</ele>
        <time>2025-12-11T15:30:59Z</time>
      </trkpt>
      <trkpt lat="45.73168" lon="4.66955">
        <ele>362.2</ele>
        <time>2025-12-11T15:31:00Z</time>
      </trkpt>
      <trkpt lat="45.73168" lon="4.66955">
        <ele>362.2</ele>
        <time>2025-12-11T15:31:01Z</time>
      </trkpt>
      <trkpt lat="45.73168" lon="4.66955">
        <ele>362.2</ele>
        <time>2025-12-11T15:31:02Z</time>
      </trkpt>
      <trkpt lat="45.73168" lon="4.66955">
        <ele>362.2</ele>
        <time>2025-12-11T15:31:03Z</time>
      </trkpt>
      <trkpt lat="45.73168" lon="4.66955">
        <ele>362.2</ele>
        <time>2025-12-11T15:31:04Z</time>
      </trkpt>
      <trkpt lat="45.73168" lon="4.66955">
        <ele>362.2</ele>
        <time>2025-12-11T15:31:05Z</time>
      </trkpt>
      <trkpt lat="45.73168" lon="4.66955">
        <ele>362.2</ele>
        <time>2025-12-11T15:31:06Z</time>
      </trkpt>
      <trkpt lat="45.73168" lon="4.66955">
        <ele>362.2</ele>
        <time>2025-12-11T15:31:07Z</time>
      </trkpt>
      <trkpt lat="45.73168" lon="4.66955">
        <ele>362.2</ele>
        <time>2025-12-11T15:31:08Z</time>
      </trkpt>
      <trkpt lat="45.73168" lon="4.66955">
        <ele>362.2</ele>
        <time>2025-12-11T15:31:09Z</time>
      </trkpt>
      <trkpt lat="45.73168" lon="4.66955">
        <ele>362.2</ele>
        <time>2025-12-11T15:31:10Z</time>
      </trkpt>
      <trkpt lat="45.73168" lon="4.66955">
        <ele>362.2</ele>
        <time>2025-12-11T15:31:11Z</time>
      </trkpt>
      <trkpt lat="45.73168" lon="4.66955">
        <ele>362.2</ele>
        <time>2025-12-11T15:31:12Z</time>
      </trkpt>
      <trkpt lat="45.73168" lon="4.66955">
        <ele>362.2</ele>
        <time>2025-12-11T15:31:13Z</time>
      </trkpt>
      <trkpt lat="45.73168" lon="4.66955">
        <ele>362.2</ele>
        <time>2025-12-11T15:31:14Z</time>
      </trkpt>
      <trkpt lat="45.73168" lon="4.66955">
        <ele>362.2</ele>
        <time>2025-12-11T15:31:15Z</time>
      </trkpt>
      <trkpt lat="45.73168" lon="4.66955">
        <ele>362.2</ele>
        <time>2025-12-11T15:31:16Z</time>
      </trkpt>
      <trkpt lat="45.73168" lon="4.66955">
        <ele>362.2</ele>
        <time>2025-12-11T15:31:17Z</time>
      </trkpt>
      <trkpt lat="45.73168" lon="4.66955">
        <ele>362.2</ele>
        <time>2025-12-11T15:31:18Z</time>
      </trkpt>
      <trkpt lat="45.73168" lon="4.66956">
        <ele>362.2</ele>
        <time>2025-12-11T15:31:19Z</time>
      </trkpt>
      <trkpt lat="45.73167" lon="4.66957">
        <ele>362.2</ele>
        <time>2025-12-11T15:31:20Z</time>
      </trkpt>
      <trkpt lat="45.73166" lon="4.66959">
        <ele>362</ele>
        <time>2025-12-11T15:31:21Z</time>
      </trkpt>
      <trkpt lat="45.73163" lon="4.66961">
        <ele>362</ele>
        <time>2025-12-11T15:31:22Z</time>
      </trkpt>
      <trkpt lat="45.7316" lon="4.66963">
        <ele>361.8</ele>
        <time>2025-12-11T15:31:23Z</time>
      </trkpt>
      <trkpt lat="45.73157" lon="4.66965">
        <ele>361.4</ele>
        <time>2025-12-11T15:31:24Z</time>
      </trkpt>
      <trkpt lat="45.73153" lon="4.66969">
        <ele>361.2</ele>
        <time>2025-12-11T15:31:25Z</time>
      </trkpt>
      <trkpt lat="45.73148" lon="4.66972">
        <ele>360.8</ele>
        <time>2025-12-11T15:31:26Z</time>
      </trkpt>
      <trkpt lat="45.73143" lon="4.66975">
        <ele>360.4</ele>
        <time>2025-12-11T15:31:27Z</time>
      </trkpt>
      <trkpt lat="45.73138" lon="4.66979">
        <ele>360</ele>
        <time>2025-12-11T15:31:28Z</time>
      </trkpt>
      <trkpt lat="45.73133" lon="4.66984">
        <ele>359.6</ele>
        <time>2025-12-11T15:31:29Z</time>
      </trkpt>
      <trkpt lat="45.73128" lon="4.66989">
        <ele>359.2</ele>
        <time>2025-12-11T15:31:30Z</time>
      </trkpt>
      <trkpt lat="45.73122" lon="4.66993">
        <ele>358.8</ele>
        <time>2025-12-11T15:31:31Z</time>
      </trkpt>
      <trkpt lat="45.73116" lon="4.66998">
        <ele>358.2</ele>
        <time>2025-12-11T15:31:32Z</time>
      </trkpt>
      <trkpt lat="45.73111" lon="4.67003">
        <ele>357.8</ele>
        <time>2025-12-11T15:31:33Z</time>
      </trkpt>
      <trkpt lat="45.73105" lon="4.67007">
        <ele>357.4</ele>
        <time>2025-12-11T15:31:34Z</time>
      </trkpt>
      <trkpt lat="45.731" lon="4.67012">
        <ele>356.8</ele>
        <time>2025-12-11T15:31:35Z</time>
      </trkpt>
      <trkpt lat="45.73095" lon="4.67016">
        <ele>356.4</ele>
        <time>2025-12-11T15:31:36Z</time>
      </trkpt>
      <trkpt lat="45.7309" lon="4.67021">
        <ele>356</ele>
        <time>2025-12-11T15:31:37Z</time>
      </trkpt>
      <trkpt lat="45.73084" lon="4.67026">
        <ele>355.4</ele>
        <time>2025-12-11T15:31:38Z</time>
      </trkpt>
      <trkpt lat="45.73078" lon="4.67031">
        <ele>354.8</ele>
        <time>2025-12-11T15:31:39Z</time>
      </trkpt>
      <trkpt lat="45.73071" lon="4.67036">
        <ele>354</ele>
        <time>2025-12-11T15:31:40Z</time>
      </trkpt>
      <trkpt lat="45.73065" lon="4.67042">
        <ele>353</ele>
        <time>2025-12-11T15:31:41Z</time>
      </trkpt>
      <trkpt lat="45.73058" lon="4.67048">
        <ele>352.2</ele>
        <time>2025-12-11T15:31:42Z</time>
      </trkpt>
      <trkpt lat="45.7305" lon="4.67055">
        <ele>351.2</ele>
        <time>2025-12-11T15:31:43Z</time>
      </trkpt>
      <trkpt lat="45.73043" lon="4.67062">
        <ele>350</ele>
        <time>2025-12-11T15:31:44Z</time>
      </trkpt>
      <trkpt lat="45.73035" lon="4.67069">
        <ele>349</ele>
        <time>2025-12-11T15:31:45Z</time>
      </trkpt>
      <trkpt lat="45.73027" lon="4.67077">
        <ele>348.2</ele>
        <time>2025-12-11T15:31:46Z</time>
      </trkpt>
      <trkpt lat="45.73019" lon="4.67084">
        <ele>347.2</ele>
        <time>2025-12-11T15:31:47Z</time>
      </trkpt>
      <trkpt lat="45.73011" lon="4.67092">
        <ele>346.8</ele>
        <time>2025-12-11T15:31:48Z</time>
      </trkpt>
      <trkpt lat="45.73005" lon="4.67101">
        <ele>345.8</ele>
        <time>2025-12-11T15:31:49Z</time>
      </trkpt>
      <trkpt lat="45.72998" lon="4.6711">
        <ele>345</ele>
        <time>2025-12-11T15:31:50Z</time>
      </trkpt>
      <trkpt lat="45.72992" lon="4.6712">
        <ele>344.2</ele>
        <time>2025-12-11T15:31:51Z</time>
      </trkpt>
      <trkpt lat="45.72986" lon="4.67131">
        <ele>343.6</ele>
        <time>2025-12-11T15:31:52Z</time>
      </trkpt>
      <trkpt lat="45.7298" lon="4.67142">
        <ele>343.2</ele>
        <time>2025-12-11T15:31:53Z</time>
      </trkpt>
      <trkpt lat="45.72975" lon="4.67153">
        <ele>342.8</ele>
        <time>2025-12-11T15:31:54Z</time>
      </trkpt>
      <trkpt lat="45.7297" lon="4.67163">
        <ele>342.6</ele>
        <time>2025-12-11T15:31:55Z</time>
      </trkpt>
      <trkpt lat="45.72965" lon="4.67174">
        <ele>342.2</ele>
        <time>2025-12-11T15:31:56Z</time>
      </trkpt>
      <trkpt lat="45.7296" lon="4.67185">
        <ele>341.8</ele>
        <time>2025-12-11T15:31:57Z</time>
      </trkpt>
      <trkpt lat="45.72956" lon="4.67197">
        <ele>341.6</ele>
        <time>2025-12-11T15:31:58Z</time>
      </trkpt>
      <trkpt lat="45.72952" lon="4.67207">
        <ele>341.2</ele>
        <time>2025-12-11T15:31:59Z</time>
      </trkpt>
      <trkpt lat="45.72949" lon="4.67218">
        <ele>341</ele>
        <time>2025-12-11T15:32:00Z</time>
      </trkpt>
      <trkpt lat="45.72945" lon="4.67229">
        <ele>340.6</ele>
        <time>2025-12-11T15:32:01Z</time>
      </trkpt>
      <trkpt lat="45.72941" lon="4.67241">
        <ele>340.2</ele>
        <time>2025-12-11T15:32:02Z</time>
      </trkpt>
      <trkpt lat="45.72936" lon="4.67252">
        <ele>339.6</ele>
        <time>2025-12-11T15:32:03Z</time>
      </trkpt>
      <trkpt lat="45.72932" lon="4.67264">
        <ele>339.2</ele>
        <time>2025-12-11T15:32:04Z</time>
      </trkpt>
      <trkpt lat="45.72928" lon="4.67275">
        <ele>338.6</ele>
        <time>2025-12-11T15:32:05Z</time>
      </trkpt>
      <trkpt lat="45.72923" lon="4.67286">
        <ele>338.2</ele>
        <time>2025-12-11T15:32:06Z</time>
      </trkpt>
      <trkpt lat="45.72919" lon="4.67296">
        <ele>337.6</ele>
        <time>2025-12-11T15:32:07Z</time>
      </trkpt>
      <trkpt lat="45.72914" lon="4.67307">
        <ele>337.2</ele>
        <time>2025-12-11T15:32:08Z</time>
      </trkpt>
      <trkpt lat="45.7291" lon="4.67318">
        <ele>336.8</ele>
        <time>2025-12-11T15:32:09Z</time>
      </trkpt>
      <trkpt lat="45.72906" lon="4.67329">
        <ele>336.4</ele>
        <time>2025-12-11T15:32:10Z</time>
      </trkpt>
      <trkpt lat="45.72901" lon="4.6734">
        <ele>336.2</ele>
        <time>2025-12-11T15:32:11Z</time>
      </trkpt>
      <trkpt lat="45.72897" lon="4.6735">
        <ele>335.8</ele>
        <time>2025-12-11T15:32:12Z</time>
      </trkpt>
      <trkpt lat="45.72892" lon="4.6736">
        <ele>335.6</ele>
        <time>2025-12-11T15:32:13Z</time>
      </trkpt>
      <trkpt lat="45.72887" lon="4.67369">
        <ele>335.4</ele>
        <time>2025-12-11T15:32:14Z</time>
      </trkpt>
      <trkpt lat="45.72882" lon="4.67378">
        <ele>335.2</ele>
        <time>2025-12-11T15:32:15Z</time>
      </trkpt>
      <trkpt lat="45.72877" lon="4.67387">
        <ele>335</ele>
        <time>2025-12-11T15:32:16Z</time>
      </trkpt>
      <trkpt lat="45.72872" lon="4.67395">
        <ele>334.8</ele>
        <time>2025-12-11T15:32:17Z</time>
      </trkpt>
      <trkpt lat="45.72867" lon="4.67403">
        <ele>334.8</ele>
        <time>2025-12-11T15:32:18Z</time>
      </trkpt>
      <trkpt lat="45.72861" lon="4.67411">
        <ele>334.4</ele>
        <time>2025-12-11T15:32:19Z</time>
      </trkpt>
      <trkpt lat="45.72855" lon="4.67418">
        <ele>334.2</ele>
        <time>2025-12-11T15:32:20Z</time>
      </trkpt>
      <trkpt lat="45.72849" lon="4.67424">
        <ele>334.2</ele>
        <time>2025-12-11T15:32:21Z</time>
      </trkpt>
      <trkpt lat="45.72843" lon="4.6743">
        <ele>334</ele>
        <time>2025-12-11T15:32:22Z</time>
      </trkpt>
      <trkpt lat="45.72837" lon="4.67436">
        <ele>333.8</ele>
        <time>2025-12-11T15:32:23Z</time>
      </trkpt>
      <trkpt lat="45.72831" lon="4.67443">
        <ele>333.4</ele>
        <time>2025-12-11T15:32:24Z</time>
      </trkpt>
      <trkpt lat="45.72826" lon="4.67449">
        <ele>333.2</ele>
        <time>2025-12-11T15:32:25Z</time>
      </trkpt>
      <trkpt lat="45.7282" lon="4.67455">
        <ele>333</ele>
        <time>2025-12-11T15:32:26Z</time>
      </trkpt>
      <trkpt lat="45.72816" lon="4.6746">
        <ele>332.8</ele>
        <time>2025-12-11T15:32:27Z</time>
      </trkpt>
      <trkpt lat="45.72813" lon="4.67465">
        <ele>332.6</ele>
        <time>2025-12-11T15:32:28Z</time>
      </trkpt>
      <trkpt lat="45.7281" lon="4.67468">
        <ele>332.6</ele>
        <time>2025-12-11T15:32:29Z</time>
      </trkpt>
      <trkpt lat="45.72807" lon="4.67471">
        <ele>332.6</ele>
        <time>2025-12-11T15:32:30Z</time>
      </trkpt>
      <trkpt lat="45.72804" lon="4.67471">
        <ele>332.4</ele>
        <time>2025-12-11T15:32:31Z</time>
      </trkpt>
      <trkpt lat="45.72801" lon="4.67471">
        <ele>332.2</ele>
        <time>2025-12-11T15:32:32Z</time>
      </trkpt>
      <trkpt lat="45.72798" lon="4.67471">
        <ele>332.2</ele>
        <time>2025-12-11T15:32:33Z</time>
      </trkpt>
      <trkpt lat="45.72794" lon="4.67471">
        <ele>332</ele>
        <time>2025-12-11T15:32:34Z</time>
      </trkpt>
      <trkpt lat="45.72789" lon="4.67471">
        <ele>331.8</ele>
        <time>2025-12-11T15:32:35Z</time>
      </trkpt>
      <trkpt lat="45.72785" lon="4.67472">
        <ele>331.6</ele>
        <time>2025-12-11T15:32:36Z</time>
      </trkpt>
      <trkpt lat="45.72781" lon="4.67474">
        <ele>331.4</ele>
        <time>2025-12-11T15:32:37Z</time>
      </trkpt>
      <trkpt lat="45.72778" lon="4.67475">
        <ele>331.4</ele>
        <time>2025-12-11T15:32:38Z</time>
      </trkpt>
      <trkpt lat="45.72774" lon="4.67477">
        <ele>331.4</ele>
        <time>2025-12-11T15:32:39Z</time>
      </trkpt>
      <trkpt lat="45.72772" lon="4.67479">
        <ele>331.4</ele>
        <time>2025-12-11T15:32:40Z</time>
      </trkpt>
      <trkpt lat="45.72769" lon="4.67481">
        <ele>331.4</ele>
        <time>2025-12-11T15:32:41Z</time>
      </trkpt>
      <trkpt lat="45.72766" lon="4.67482">
        <ele>331.4</ele>
        <time>2025-12-11T15:32:42Z</time>
      </trkpt>
      <trkpt lat="45.72763" lon="4.67484">
        <ele>331.2</ele>
        <time>2025-12-11T15:32:43Z</time>
      </trkpt>
      <trkpt lat="45.72761" lon="4.67486">
        <ele>331.2</ele>
        <time>2025-12-11T15:32:44Z</time>
      </trkpt>
      <trkpt lat="45.72759" lon="4.67488">
        <ele>331</ele>
        <time>2025-12-11T15:32:45Z</time>
      </trkpt>
      <trkpt lat="45.72757" lon="4.67491">
        <ele>331</ele>
        <time>2025-12-11T15:32:46Z</time>
      </trkpt>
      <trkpt lat="45.72754" lon="4.67494">
        <ele>330.8</ele>
        <time>2025-12-11T15:32:47Z</time>
      </trkpt>
      <trkpt lat="45.72751" lon="4.67497">
        <ele>330.6</ele>
        <time>2025-12-11T15:32:48Z</time>
      </trkpt>
      <trkpt lat="45.72748" lon="4.675">
        <ele>330.4</ele>
        <time>2025-12-11T15:32:49Z</time>
      </trkpt>
      <trkpt lat="45.72746" lon="4.67503">
        <ele>330.4</ele>
        <time>2025-12-11T15:32:50Z</time>
      </trkpt>
      <trkpt lat="45.72743" lon="4.67508">
        <ele>330.2</ele>
        <time>2025-12-11T15:32:51Z</time>
      </trkpt>
      <trkpt lat="45.72741" lon="4.67513">
        <ele>330</ele>
        <time>2025-12-11T15:32:52Z</time>
      </trkpt>
      <trkpt lat="45.72739" lon="4.67519">
        <ele>329.6</ele>
        <time>2025-12-11T15:32:53Z</time>
      </trkpt>
      <trkpt lat="45.72737" lon="4.67525">
        <ele>329.2</ele>
        <time>2025-12-11T15:32:54Z</time>
      </trkpt>
      <trkpt lat="45.72735" lon="4.67531">
        <ele>328.6</ele>
        <time>2025-12-11T15:32:55Z</time>
      </trkpt>
      <trkpt lat="45.72732" lon="4.67537">
        <ele>328.2</ele>
        <time>2025-12-11T15:32:56Z</time>
      </trkpt>
      <trkpt lat="45.7273" lon="4.67543">
        <ele>327.6</ele>
        <time>2025-12-11T15:32:57Z</time>
      </trkpt>
      <trkpt lat="45.72728" lon="4.67549">
        <ele>327</ele>
        <time>2025-12-11T15:32:58Z</time>
      </trkpt>
      <trkpt lat="45.72724" lon="4.67554">
        <ele>326.6</ele>
        <time>2025-12-11T15:32:59Z</time>
      </trkpt>
      <trkpt lat="45.7272" lon="4.67558">
        <ele>326</ele>
        <time>2025-12-11T15:33:00Z</time>
      </trkpt>
      <trkpt lat="45.72715" lon="4.67561">
        <ele>325.4</ele>
        <time>2025-12-11T15:33:01Z</time>
      </trkpt>
      <trkpt lat="45.7271" lon="4.67564">
        <ele>325</ele>
        <time>2025-12-11T15:33:02Z</time>
      </trkpt>
      <trkpt lat="45.72706" lon="4.67566">
        <ele>324.6</ele>
        <time>2025-12-11T15:33:03Z</time>
      </trkpt>
      <trkpt lat="45.72701" lon="4.67566">
        <ele>324</ele>
        <time>2025-12-11T15:33:04Z</time>
      </trkpt>
      <trkpt lat="45.72698" lon="4.67567">
        <ele>323.6</ele>
        <time>2025-12-11T15:33:05Z</time>
      </trkpt>
      <trkpt lat="45.72695" lon="4.67567">
        <ele>323.2</ele>
        <time>2025-12-11T15:33:06Z</time>
      </trkpt>
      <trkpt lat="45.7269" lon="4.67568">
        <ele>322.6</ele>
        <time>2025-12-11T15:33:07Z</time>
      </trkpt>
      <trkpt lat="45.72685" lon="4.67568">
        <ele>322</ele>
        <time>2025-12-11T15:33:08Z</time>
      </trkpt>
      <trkpt lat="45.72679" lon="4.6757">
        <ele>321.2</ele>
        <time>2025-12-11T15:33:09Z</time>
      </trkpt>
      <trkpt lat="45.72673" lon="4.67571">
        <ele>320.2</ele>
        <time>2025-12-11T15:33:10Z</time>
      </trkpt>
      <trkpt lat="45.72667" lon="4.67573">
        <ele>319.4</ele>
        <time>2025-12-11T15:33:11Z</time>
      </trkpt>
      <trkpt lat="45.72662" lon="4.67575">
        <ele>318.2</ele>
        <time>2025-12-11T15:33:12Z</time>
      </trkpt>
      <trkpt lat="45.72657" lon="4.67577">
        <ele>317.4</ele>
        <time>2025-12-11T15:33:13Z</time>
      </trkpt>
      <trkpt lat="45.72653" lon="4.67578">
        <ele>316.8</ele>
        <time>2025-12-11T15:33:14Z</time>
      </trkpt>
      <trkpt lat="45.7265" lon="4.6758">
        <ele>316.6</ele>
        <time>2025-12-11T15:33:15Z</time>
      </trkpt>
      <trkpt lat="45.72647" lon="4.67581">
        <ele>315.8</ele>
        <time>2025-12-11T15:33:16Z</time>
      </trkpt>
      <trkpt lat="45.72643" lon="4.67583">
        <ele>315.6</ele>
        <time>2025-12-11T15:33:17Z</time>
      </trkpt>
      <trkpt lat="45.72639" lon="4.67585">
        <ele>315</ele>
        <time>2025-12-11T15:33:18Z</time>
      </trkpt>
      <trkpt lat="45.72634" lon="4.67586">
        <ele>314.2</ele>
        <time>2025-12-11T15:33:19Z</time>
      </trkpt>
      <trkpt lat="45.72628" lon="4.67588">
        <ele>313.4</ele>
        <time>2025-12-11T15:33:20Z</time>
      </trkpt>
      <trkpt lat="45.72623" lon="4.67589">
        <ele>312.6</ele>
        <time>2025-12-11T15:33:21Z</time>
      </trkpt>
      <trkpt lat="45.72619" lon="4.67589">
        <ele>311.6</ele>
        <time>2025-12-11T15:33:22Z</time>
      </trkpt>
      <trkpt lat="45.72615" lon="4.67589">
        <ele>310.8</ele>
        <time>2025-12-11T15:33:23Z</time>
      </trkpt>
      <trkpt lat="45.72611" lon="4.6759">
        <ele>310.2</ele>
        <time>2025-12-11T15:33:24Z</time>
      </trkpt>
      <trkpt lat="45.72607" lon="4.67592">
        <ele>309.4</ele>
        <time>2025-12-11T15:33:25Z</time>
      </trkpt>
      <trkpt lat="45.72602" lon="4.67593">
        <ele>308.8</ele>
        <time>2025-12-11T15:33:26Z</time>
      </trkpt>
      <trkpt lat="45.72597" lon="4.67595">
        <ele>308</ele>
        <time>2025-12-11T15:33:27Z</time>
      </trkpt>
      <trkpt lat="45.72592" lon="4.67596">
        <ele>307.4</ele>
        <time>2025-12-11T15:33:28Z</time>
      </trkpt>
      <trkpt lat="45.72587" lon="4.67598">
        <ele>306.8</ele>
        <time>2025-12-11T15:33:29Z</time>
      </trkpt>
      <trkpt lat="45.72582" lon="4.67602">
        <ele>306.2</ele>
        <time>2025-12-11T15:33:30Z</time>
      </trkpt>
      <trkpt lat="45.72578" lon="4.67606">
        <ele>305.4</ele>
        <time>2025-12-11T15:33:31Z</time>
      </trkpt>
      <trkpt lat="45.72575" lon="4.6761">
        <ele>305.2</ele>
        <time>2025-12-11T15:33:32Z</time>
      </trkpt>
      <trkpt lat="45.72572" lon="4.67614">
        <ele>304.8</ele>
        <time>2025-12-11T15:33:33Z</time>
      </trkpt>
      <trkpt lat="45.7257" lon="4.67619">
        <ele>304.2</ele>
        <time>2025-12-11T15:33:34Z</time>
      </trkpt>
      <trkpt lat="45.72568" lon="4.67623">
        <ele>303.8</ele>
        <time>2025-12-11T15:33:35Z</time>
      </trkpt>
      <trkpt lat="45.72565" lon="4.67628">
        <ele>303.2</ele>
        <time>2025-12-11T15:33:36Z</time>
      </trkpt>
      <trkpt lat="45.72561" lon="4.67632">
        <ele>302.8</ele>
        <time>2025-12-11T15:33:37Z</time>
      </trkpt>
      <trkpt lat="45.72557" lon="4.67637">
        <ele>302</ele>
        <time>2025-12-11T15:33:38Z</time>
      </trkpt>
      <trkpt lat="45.72555" lon="4.67644">
        <ele>301.2</ele>
        <time>2025-12-11T15:33:39Z</time>
      </trkpt>
      <trkpt lat="45.72552" lon="4.6765">
        <ele>300.6</ele>
        <time>2025-12-11T15:33:40Z</time>
      </trkpt>
      <trkpt lat="45.7255" lon="4.67655">
        <ele>300.2</ele>
        <time>2025-12-11T15:33:41Z</time>
      </trkpt>
      <trkpt lat="45.72547" lon="4.67659">
        <ele>300.2</ele>
        <time>2025-12-11T15:33:42Z</time>
      </trkpt>
      <trkpt lat="45.72545" lon="4.67662">
        <ele>300.2</ele>
        <time>2025-12-11T15:33:43Z</time>
      </trkpt>
      <trkpt lat="45.72543" lon="4.67664">
        <ele>300.2</ele>
        <time>2025-12-11T15:33:44Z</time>
      </trkpt>
      <trkpt lat="45.7254" lon="4.67666">
        <ele>300.2</ele>
        <time>2025-12-11T15:33:45Z</time>
      </trkpt>
      <trkpt lat="45.72538" lon="4.67666">
        <ele>300.2</ele>
        <time>2025-12-11T15:33:46Z</time>
      </trkpt>
      <trkpt lat="45.72537" lon="4.67666">
        <ele>300.2</ele>
        <time>2025-12-11T15:33:47Z</time>
      </trkpt>
      <trkpt lat="45.72537" lon="4.67666">
        <ele>300.2</ele>
        <time>2025-12-11T15:33:48Z</time>
      </trkpt>
      <trkpt lat="45.72536" lon="4.67666">
        <ele>300.2</ele>
        <time>2025-12-11T15:33:49Z</time>
      </trkpt>
      <trkpt lat="45.72536" lon="4.67666">
        <ele>300.4</ele>
        <time>2025-12-11T15:33:50Z</time>
      </trkpt>
      <trkpt lat="45.72535" lon="4.67667">
        <ele>300.4</ele>
        <time>2025-12-11T15:33:51Z</time>
      </trkpt>
      <trkpt lat="45.72535" lon="4.67668">
        <ele>300.4</ele>
        <time>2025-12-11T15:33:52Z</time>
      </trkpt>
      <trkpt lat="45.72533" lon="4.67669">
        <ele>300.6</ele>
        <time>2025-12-11T15:33:53Z</time>
      </trkpt>
      <trkpt lat="45.72531" lon="4.6767">
        <ele>300.6</ele>
        <time>2025-12-11T15:33:54Z</time>
      </trkpt>
      <trkpt lat="45.7253" lon="4.67672">
        <ele>300.6</ele>
        <time>2025-12-11T15:33:55Z</time>
      </trkpt>
      <trkpt lat="45.72528" lon="4.67674">
        <ele>300.8</ele>
        <time>2025-12-11T15:33:56Z</time>
      </trkpt>
      <trkpt lat="45.72527" lon="4.67675">
        <ele>300.8</ele>
        <time>2025-12-11T15:33:57Z</time>
      </trkpt>
      <trkpt lat="45.72525" lon="4.67676">
        <ele>300.8</ele>
        <time>2025-12-11T15:33:58Z</time>
      </trkpt>
      <trkpt lat="45.72525" lon="4.67678">
        <ele>301</ele>
        <time>2025-12-11T15:33:59Z</time>
      </trkpt>
      <trkpt lat="45.72523" lon="4.67681">
        <ele>301</ele>
        <time>2025-12-11T15:34:00Z</time>
      </trkpt>
      <trkpt lat="45.7252" lon="4.67684">
        <ele>301</ele>
        <time>2025-12-11T15:34:01Z</time>
      </trkpt>
      <trkpt lat="45.72518" lon="4.67688">
        <ele>300.8</ele>
        <time>2025-12-11T15:34:02Z</time>
      </trkpt>
      <trkpt lat="45.72517" lon="4.67692">
        <ele>300.8</ele>
        <time>2025-12-11T15:34:03Z</time>
      </trkpt>
      <trkpt lat="45.72516" lon="4.67696">
        <ele>300.8</ele>
        <time>2025-12-11T15:34:04Z</time>
      </trkpt>
      <trkpt lat="45.72514" lon="4.67701">
        <ele>300.8</ele>
        <time>2025-12-11T15:34:05Z</time>
      </trkpt>
      <trkpt lat="45.72512" lon="4.67706">
        <ele>300.8</ele>
        <time>2025-12-11T15:34:06Z</time>
      </trkpt>
      <trkpt lat="45.7251" lon="4.6771">
        <ele>300.6</ele>
        <time>2025-12-11T15:34:07Z</time>
      </trkpt>
      <trkpt lat="45.72508" lon="4.67715">
        <ele>300.6</ele>
        <time>2025-12-11T15:34:08Z</time>
      </trkpt>
      <trkpt lat="45.72505" lon="4.67719">
        <ele>300.4</ele>
        <time>2025-12-11T15:34:09Z</time>
      </trkpt>
      <trkpt lat="45.72502" lon="4.67723">
        <ele>300.4</ele>
        <time>2025-12-11T15:34:10Z</time>
      </trkpt>
      <trkpt lat="45.725" lon="4.67726">
        <ele>300.2</ele>
        <time>2025-12-11T15:34:11Z</time>
      </trkpt>
      <trkpt lat="45.72497" lon="4.67728">
        <ele>300.2</ele>
        <time>2025-12-11T15:34:12Z</time>
      </trkpt>
      <trkpt lat="45.72494" lon="4.67731">
        <ele>300.2</ele>
        <time>2025-12-11T15:34:13Z</time>
      </trkpt>
      <trkpt lat="45.72491" lon="4.67732">
        <ele>300</ele>
        <time>2025-12-11T15:34:14Z</time>
      </trkpt>
      <trkpt lat="45.72488" lon="4.67732">
        <ele>300</ele>
        <time>2025-12-11T15:34:15Z</time>
      </trkpt>
      <trkpt lat="45.72486" lon="4.67729">
        <ele>300.2</ele>
        <time>2025-12-11T15:34:16Z</time>
      </trkpt>
      <trkpt lat="45.72484" lon="4.67727">
        <ele>300.2</ele>
        <time>2025-12-11T15:34:17Z</time>
      </trkpt>
      <trkpt lat="45.72481" lon="4.67725">
        <ele>300.2</ele>
        <time>2025-12-11T15:34:18Z</time>
      </trkpt>
      <trkpt lat="45.7248" lon="4.67723">
        <ele>300.4</ele>
        <time>2025-12-11T15:34:19Z</time>
      </trkpt>
      <trkpt lat="45.72478" lon="4.67721">
        <ele>300.4</ele>
        <time>2025-12-11T15:34:20Z</time>
      </trkpt>
      <trkpt lat="45.72477" lon="4.67719">
        <ele>300.6</ele>
        <time>2025-12-11T15:34:21Z</time>
      </trkpt>
      <trkpt lat="45.72476" lon="4.67718">
        <ele>300.8</ele>
        <time>2025-12-11T15:34:22Z</time>
      </trkpt>
      <trkpt lat="45.72475" lon="4.67717">
        <ele>301</ele>
        <time>2025-12-11T15:34:23Z</time>
      </trkpt>
      <trkpt lat="45.72474" lon="4.67716">
        <ele>301.2</ele>
        <time>2025-12-11T15:34:24Z</time>
      </trkpt>
      <trkpt lat="45.72473" lon="4.67715">
        <ele>301.4</ele>
        <time>2025-12-11T15:34:25Z</time>
      </trkpt>
      <trkpt lat="45.72471" lon="4.67714">
        <ele>301.4</ele>
        <time>2025-12-11T15:34:26Z</time>
      </trkpt>
      <trkpt lat="45.7247" lon="4.67713">
        <ele>301.6</ele>
        <time>2025-12-11T15:34:27Z</time>
      </trkpt>
      <trkpt lat="45.72469" lon="4.67711">
        <ele>301.8</ele>
        <time>2025-12-11T15:34:28Z</time>
      </trkpt>
      <trkpt lat="45.72468" lon="4.6771">
        <ele>302</ele>
        <time>2025-12-11T15:34:29Z</time>
      </trkpt>
      <trkpt lat="45.72467" lon="4.67709">
        <ele>302.2</ele>
        <time>2025-12-11T15:34:30Z</time>
      </trkpt>
      <trkpt lat="45.72466" lon="4.67708">
        <ele>302.4</ele>
        <time>2025-12-11T15:34:31Z</time>
      </trkpt>
      <trkpt lat="45.72465" lon="4.67708">
        <ele>302.6</ele>
        <time>2025-12-11T15:34:32Z</time>
      </trkpt>
      <trkpt lat="45.72464" lon="4.67707">
        <ele>302.8</ele>
        <time>2025-12-11T15:34:33Z</time>
      </trkpt>
      <trkpt lat="45.72463" lon="4.67706">
        <ele>303</ele>
        <time>2025-12-11T15:34:34Z</time>
      </trkpt>
      <trkpt lat="45.72461" lon="4.67705">
        <ele>303.2</ele>
        <time>2025-12-11T15:34:35Z</time>
      </trkpt>
      <trkpt lat="45.7246" lon="4.67704">
        <ele>303.4</ele>
        <time>2025-12-11T15:34:36Z</time>
      </trkpt>
      <trkpt lat="45.72459" lon="4.67704">
        <ele>303.6</ele>
        <time>2025-12-11T15:34:37Z</time>
      </trkpt>
      <trkpt lat="45.72459" lon="4.67704">
        <ele>303.8</ele>
        <time>2025-12-11T15:34:38Z</time>
      </trkpt>
      <trkpt lat="45.72457" lon="4.67704">
        <ele>304</ele>
        <time>2025-12-11T15:34:39Z</time>
      </trkpt>
      <trkpt lat="45.72456" lon="4.67703">
        <ele>304.2</ele>
        <time>2025-12-11T15:34:40Z</time>
      </trkpt>
      <trkpt lat="45.72455" lon="4.67703">
        <ele>304.4</ele>
        <time>2025-12-11T15:34:41Z</time>
      </trkpt>
      <trkpt lat="45.72454" lon="4.67702">
        <ele>304.6</ele>
        <time>2025-12-11T15:34:42Z</time>
      </trkpt>
      <trkpt lat="45.72452" lon="4.67701">
        <ele>304.8</ele>
        <time>2025-12-11T15:34:43Z</time>
      </trkpt>
      <trkpt lat="45.72452" lon="4.677">
        <ele>305</ele>
        <time>2025-12-11T15:34:44Z</time>
      </trkpt>
      <trkpt lat="45.72452" lon="4.677">
        <ele>305.2</ele>
        <time>2025-12-11T15:34:45Z</time>
      </trkpt>
      <trkpt lat="45.7245" lon="4.677">
        <ele>305.6</ele>
        <time>2025-12-11T15:34:46Z</time>
      </trkpt>
      <trkpt lat="45.72449" lon="4.677">
        <ele>305.8</ele>
        <time>2025-12-11T15:34:47Z</time>
      </trkpt>
      <trkpt lat="45.72448" lon="4.67698">
        <ele>306</ele>
        <time>2025-12-11T15:34:48Z</time>
      </trkpt>
      <trkpt lat="45.72447" lon="4.67697">
        <ele>306.2</ele>
        <time>2025-12-11T15:34:49Z</time>
      </trkpt>
      <trkpt lat="45.72446" lon="4.67696">
        <ele>306.4</ele>
        <time>2025-12-11T15:34:50Z</time>
      </trkpt>
      <trkpt lat="45.72445" lon="4.67696">
        <ele>306.6</ele>
        <time>2025-12-11T15:34:51Z</time>
      </trkpt>
      <trkpt lat="45.72444" lon="4.67695">
        <ele>306.8</ele>
        <time>2025-12-11T15:34:52Z</time>
      </trkpt>
      <trkpt lat="45.72443" lon="4.67695">
        <ele>307</ele>
        <time>2025-12-11T15:34:53Z</time>
      </trkpt>
      <trkpt lat="45.72442" lon="4.67695">
        <ele>307.2</ele>
        <time>2025-12-11T15:34:54Z</time>
      </trkpt>
      <trkpt lat="45.72441" lon="4.67694">
        <ele>307.4</ele>
        <time>2025-12-11T15:34:55Z</time>
      </trkpt>
      <trkpt lat="45.7244" lon="4.67694">
        <ele>307.6</ele>
        <time>2025-12-11T15:34:56Z</time>
      </trkpt>
      <trkpt lat="45.7244" lon="4.67693">
        <ele>307.8</ele>
        <time>2025-12-11T15:34:57Z</time>
      </trkpt>
      <trkpt lat="45.72439" lon="4.67693">
        <ele>308</ele>
        <time>2025-12-11T15:34:58Z</time>
      </trkpt>
      <trkpt lat="45.72438" lon="4.67692">
        <ele>308.2</ele>
        <time>2025-12-11T15:34:59Z</time>
      </trkpt>
      <trkpt lat="45.72436" lon="4.67692">
        <ele>308.4</ele>
        <time>2025-12-11T15:35:00Z</time>
      </trkpt>
      <trkpt lat="45.72435" lon="4.67692">
        <ele>308.6</ele>
        <time>2025-12-11T15:35:01Z</time>
      </trkpt>
      <trkpt lat="45.72435" lon="4.67692">
        <ele>309</ele>
        <time>2025-12-11T15:35:02Z</time>
      </trkpt>
      <trkpt lat="45.72434" lon="4.67693">
        <ele>309.2</ele>
        <time>2025-12-11T15:35:03Z</time>
      </trkpt>
      <trkpt lat="45.72434" lon="4.67693">
        <ele>309.4</ele>
        <time>2025-12-11T15:35:04Z</time>
      </trkpt>
      <trkpt lat="45.72434" lon="4.67693">
        <ele>309.6</ele>
        <time>2025-12-11T15:35:05Z</time>
      </trkpt>
      <trkpt lat="45.72434" lon="4.67693">
        <ele>310</ele>
        <time>2025-12-11T15:35:06Z</time>
      </trkpt>
      <trkpt lat="45.72434" lon="4.67693">
        <ele>310.2</ele>
        <time>2025-12-11T15:35:07Z</time>
      </trkpt>
      <trkpt lat="45.72434" lon="4.67693">
        <ele>310.2</ele>
        <time>2025-12-11T15:35:08Z</time>
      </trkpt>
      <trkpt lat="45.72434" lon="4.67693">
        <ele>310.2</ele>
        <time>2025-12-11T15:35:09Z</time>
      </trkpt>
      <trkpt lat="45.72433" lon="4.67693">
        <ele>310.2</ele>
        <time>2025-12-11T15:35:10Z</time>
      </trkpt>
      <trkpt lat="45.72433" lon="4.67693">
        <ele>310.2</ele>
        <time>2025-12-11T15:35:11Z</time>
      </trkpt>
      <trkpt lat="45.72434" lon="4.67694">
        <ele>310.2</ele>
        <time>2025-12-11T15:35:12Z</time>
      </trkpt>
      <trkpt lat="45.72434" lon="4.67695">
        <ele>310.2</ele>
        <time>2025-12-11T15:35:13Z</time>
      </trkpt>
      <trkpt lat="45.72434" lon="4.67696">
        <ele>310.4</ele>
        <time>2025-12-11T15:35:14Z</time>
      </trkpt>
      <trkpt lat="45.72434" lon="4.67697">
        <ele>310.4</ele>
        <time>2025-12-11T15:35:15Z</time>
      </trkpt>
      <trkpt lat="45.72433" lon="4.67698">
        <ele>310.6</ele>
        <time>2025-12-11T15:35:16Z</time>
      </trkpt>
      <trkpt lat="45.72433" lon="4.67698">
        <ele>310.6</ele>
        <time>2025-12-11T15:35:17Z</time>
      </trkpt>
      <trkpt lat="45.72433" lon="4.67698">
        <ele>310.8</ele>
        <time>2025-12-11T15:35:18Z</time>
      </trkpt>
      <trkpt lat="45.72433" lon="4.67698">
        <ele>311</ele>
        <time>2025-12-11T15:35:19Z</time>
      </trkpt>
      <trkpt lat="45.72433" lon="4.67699">
        <ele>311</ele>
        <time>2025-12-11T15:35:20Z</time>
      </trkpt>
      <trkpt lat="45.72433" lon="4.677">
        <ele>311.2</ele>
        <time>2025-12-11T15:35:21Z</time>
      </trkpt>
      <trkpt lat="45.72433" lon="4.67701">
        <ele>311.4</ele>
        <time>2025-12-11T15:35:22Z</time>
      </trkpt>
      <trkpt lat="45.72433" lon="4.67702">
        <ele>311.6</ele>
        <time>2025-12-11T15:35:23Z</time>
      </trkpt>
      <trkpt lat="45.72433" lon="4.67703">
        <ele>311.6</ele>
        <time>2025-12-11T15:35:24Z</time>
      </trkpt>
      <trkpt lat="45.72434" lon="4.67705">
        <ele>311.8</ele>
        <time>2025-12-11T15:35:25Z</time>
      </trkpt>
      <trkpt lat="45.72434" lon="4.67705">
        <ele>312</ele>
        <time>2025-12-11T15:35:26Z</time>
      </trkpt>
      <trkpt lat="45.72434" lon="4.67706">
        <ele>312.2</ele>
        <time>2025-12-11T15:35:27Z</time>
      </trkpt>
      <trkpt lat="45.72434" lon="4.67707">
        <ele>312.4</ele>
        <time>2025-12-11T15:35:28Z</time>
      </trkpt>
      <trkpt lat="45.72434" lon="4.67708">
        <ele>312.6</ele>
        <time>2025-12-11T15:35:29Z</time>
      </trkpt>
      <trkpt lat="45.72434" lon="4.67708">
        <ele>312.8</ele>
        <time>2025-12-11T15:35:30Z</time>
      </trkpt>
      <trkpt lat="45.72434" lon="4.67708">
        <ele>312.8</ele>
        <time>2025-12-11T15:35:31Z</time>
      </trkpt>
      <trkpt lat="45.72434" lon="4.67708">
        <ele>313</ele>
        <time>2025-12-11T15:35:32Z</time>
      </trkpt>
      <trkpt lat="45.72434" lon="4.67708">
        <ele>313</ele>
        <time>2025-12-11T15:35:33Z</time>
      </trkpt>
      <trkpt lat="45.72434" lon="4.67708">
        <ele>313.2</ele>
        <time>2025-12-11T15:35:34Z</time>
      </trkpt>
      <trkpt lat="45.72434" lon="4.67708">
        <ele>313.2</ele>
        <time>2025-12-11T15:35:35Z</time>
      </trkpt>
      <trkpt lat="45.72434" lon="4.67708">
        <ele>313.2</ele>
        <time>2025-12-11T15:35:36Z</time>
      </trkpt>
      <trkpt lat="45.72434" lon="4.67708">
        <ele>313.2</ele>
        <time>2025-12-11T15:35:37Z</time>
      </trkpt>
      <trkpt lat="45.72434" lon="4.67708">
        <ele>313.2</ele>
        <time>2025-12-11T15:35:38Z</time>
      </trkpt>
      <trkpt lat="45.72434" lon="4.67709">
        <ele>313.2</ele>
        <time>2025-12-11T15:35:39Z</time>
      </trkpt>
      <trkpt lat="45.72434" lon="4.6771">
        <ele>313.4</ele>
        <time>2025-12-11T15:35:40Z</time>
      </trkpt>
      <trkpt lat="45.72434" lon="4.67712">
        <ele>313.4</ele>
        <time>2025-12-11T15:35:41Z</time>
      </trkpt>
      <trkpt lat="45.72434" lon="4.67714">
        <ele>313.6</ele>
        <time>2025-12-11T15:35:42Z</time>
      </trkpt>
      <trkpt lat="45.72433" lon="4.67715">
        <ele>313.8</ele>
        <time>2025-12-11T15:35:43Z</time>
      </trkpt>
      <trkpt lat="45.72433" lon="4.67717">
        <ele>314</ele>
        <time>2025-12-11T15:35:44Z</time>
      </trkpt>
      <trkpt lat="45.72433" lon="4.67718">
        <ele>314</ele>
        <time>2025-12-11T15:35:45Z</time>
      </trkpt>
      <trkpt lat="45.72433" lon="4.6772">
        <ele>314.2</ele>
        <time>2025-12-11T15:35:46Z</time>
      </trkpt>
      <trkpt lat="45.72433" lon="4.67721">
        <ele>314.4</ele>
        <time>2025-12-11T15:35:47Z</time>
      </trkpt>
      <trkpt lat="45.72432" lon="4.67723">
        <ele>314.6</ele>
        <time>2025-12-11T15:35:48Z</time>
      </trkpt>
      <trkpt lat="45.72432" lon="4.67725">
        <ele>314.8</ele>
        <time>2025-12-11T15:35:49Z</time>
      </trkpt>
      <trkpt lat="45.72432" lon="4.67727">
        <ele>314.8</ele>
        <time>2025-12-11T15:35:50Z</time>
      </trkpt>
      <trkpt lat="45.72432" lon="4.67729">
        <ele>315</ele>
        <time>2025-12-11T15:35:51Z</time>
      </trkpt>
      <trkpt lat="45.72432" lon="4.6773">
        <ele>315</ele>
        <time>2025-12-11T15:35:52Z</time>
      </trkpt>
      <trkpt lat="45.72432" lon="4.67732">
        <ele>315.2</ele>
        <time>2025-12-11T15:35:53Z</time>
      </trkpt>
      <trkpt lat="45.72432" lon="4.67733">
        <ele>315.2</ele>
        <time>2025-12-11T15:35:54Z</time>
      </trkpt>
      <trkpt lat="45.72432" lon="4.67735">
        <ele>315.4</ele>
        <time>2025-12-11T15:35:55Z</time>
      </trkpt>
      <trkpt lat="45.72432" lon="4.67735">
        <ele>315.4</ele>
        <time>2025-12-11T15:35:56Z</time>
      </trkpt>
      <trkpt lat="45.72432" lon="4.67735">
        <ele>315.6</ele>
        <time>2025-12-11T15:35:57Z</time>
      </trkpt>
      <trkpt lat="45.72432" lon="4.67735">
        <ele>315.6</ele>
        <time>2025-12-11T15:35:58Z</time>
      </trkpt>
      <trkpt lat="45.72432" lon="4.67735">
        <ele>315.6</ele>
        <time>2025-12-11T15:35:59Z</time>
      </trkpt>
      <trkpt lat="45.72432" lon="4.67735">
        <ele>315.6</ele>
        <time>2025-12-11T15:36:00Z</time>
      </trkpt>
      <trkpt lat="45.72432" lon="4.67735">
        <ele>315.8</ele>
        <time>2025-12-11T15:36:01Z</time>
      </trkpt>
      <trkpt lat="45.72432" lon="4.67735">
        <ele>315.8</ele>
        <time>2025-12-11T15:36:02Z</time>
      </trkpt>
      <trkpt lat="45.72432" lon="4.67735">
        <ele>315.6</ele>
        <time>2025-12-11T15:36:03Z</time>
      </trkpt>
      <trkpt lat="45.72432" lon="4.67736">
        <ele>315.6</ele>
        <time>2025-12-11T15:36:04Z</time>
      </trkpt>
      <trkpt lat="45.72432" lon="4.67737">
        <ele>315.6</ele>
        <time>2025-12-11T15:36:05Z</time>
      </trkpt>
      <trkpt lat="45.72431" lon="4.67739">
        <ele>315.8</ele>
        <time>2025-12-11T15:36:06Z</time>
      </trkpt>
      <trkpt lat="45.7243" lon="4.67741">
        <ele>315.8</ele>
        <time>2025-12-11T15:36:07Z</time>
      </trkpt>
      <trkpt lat="45.72429" lon="4.67742">
        <ele>316</ele>
        <time>2025-12-11T15:36:08Z</time>
      </trkpt>
      <trkpt lat="45.72428" lon="4.67744">
        <ele>316.2</ele>
        <time>2025-12-11T15:36:09Z</time>
      </trkpt>
      <trkpt lat="45.72427" lon="4.67746">
        <ele>316.4</ele>
        <time>2025-12-11T15:36:10Z</time>
      </trkpt>
      <trkpt lat="45.72425" lon="4.67748">
        <ele>316.4</ele>
        <time>2025-12-11T15:36:11Z</time>
      </trkpt>
      <trkpt lat="45.72425" lon="4.6775">
        <ele>316.6</ele>
        <time>2025-12-11T15:36:12Z</time>
      </trkpt>
      <trkpt lat="45.72424" lon="4.67751">
        <ele>316.8</ele>
        <time>2025-12-11T15:36:13Z</time>
      </trkpt>
      <trkpt lat="45.72424" lon="4.67752">
        <ele>317</ele>
        <time>2025-12-11T15:36:14Z</time>
      </trkpt>
      <trkpt lat="45.72423" lon="4.67754">
        <ele>317.2</ele>
        <time>2025-12-11T15:36:15Z</time>
      </trkpt>
      <trkpt lat="45.72422" lon="4.67755">
        <ele>317.4</ele>
        <time>2025-12-11T15:36:16Z</time>
      </trkpt>
      <trkpt lat="45.72422" lon="4.67757">
        <ele>317.6</ele>
        <time>2025-12-11T15:36:17Z</time>
      </trkpt>
      <trkpt lat="45.72421" lon="4.67758">
        <ele>317.8</ele>
        <time>2025-12-11T15:36:18Z</time>
      </trkpt>
      <trkpt lat="45.72421" lon="4.6776">
        <ele>318</ele>
        <time>2025-12-11T15:36:19Z</time>
      </trkpt>
      <trkpt lat="45.7242" lon="4.67763">
        <ele>318.2</ele>
        <time>2025-12-11T15:36:20Z</time>
      </trkpt>
      <trkpt lat="45.7242" lon="4.67765">
        <ele>318.2</ele>
        <time>2025-12-11T15:36:21Z</time>
      </trkpt>
      <trkpt lat="45.7242" lon="4.67767">
        <ele>318.4</ele>
        <time>2025-12-11T15:36:22Z</time>
      </trkpt>
      <trkpt lat="45.72419" lon="4.67769">
        <ele>318.6</ele>
        <time>2025-12-11T15:36:23Z</time>
      </trkpt>
      <trkpt lat="45.72418" lon="4.67771">
        <ele>318.8</ele>
        <time>2025-12-11T15:36:24Z</time>
      </trkpt>
      <trkpt lat="45.72418" lon="4.67773">
        <ele>319</ele>
        <time>2025-12-11T15:36:25Z</time>
      </trkpt>
      <trkpt lat="45.72418" lon="4.67774">
        <ele>319.2</ele>
        <time>2025-12-11T15:36:26Z</time>
      </trkpt>
      <trkpt lat="45.72417" lon="4.67776">
        <ele>319.4</ele>
        <time>2025-12-11T15:36:27Z</time>
      </trkpt>
      <trkpt lat="45.72417" lon="4.67777">
        <ele>319.6</ele>
        <time>2025-12-11T15:36:28Z</time>
      </trkpt>
      <trkpt lat="45.72417" lon="4.67779">
        <ele>319.8</ele>
        <time>2025-12-11T15:36:29Z</time>
      </trkpt>
      <trkpt lat="45.72416" lon="4.67781">
        <ele>320.2</ele>
        <time>2025-12-11T15:36:30Z</time>
      </trkpt>
      <trkpt lat="45.72415" lon="4.67783">
        <ele>320.4</ele>
        <time>2025-12-11T15:36:31Z</time>
      </trkpt>
      <trkpt lat="45.72415" lon="4.67784">
        <ele>320.6</ele>
        <time>2025-12-11T15:36:32Z</time>
      </trkpt>
      <trkpt lat="45.72415" lon="4.67786">
        <ele>320.8</ele>
        <time>2025-12-11T15:36:33Z</time>
      </trkpt>
      <trkpt lat="45.72415" lon="4.67788">
        <ele>321</ele>
        <time>2025-12-11T15:36:34Z</time>
      </trkpt>
      <trkpt lat="45.72415" lon="4.6779">
        <ele>321.2</ele>
        <time>2025-12-11T15:36:35Z</time>
      </trkpt>
      <trkpt lat="45.72415" lon="4.67792">
        <ele>321.4</ele>
        <time>2025-12-11T15:36:36Z</time>
      </trkpt>
      <trkpt lat="45.72414" lon="4.67794">
        <ele>321.6</ele>
        <time>2025-12-11T15:36:37Z</time>
      </trkpt>
      <trkpt lat="45.72414" lon="4.67797">
        <ele>321.6</ele>
        <time>2025-12-11T15:36:38Z</time>
      </trkpt>
      <trkpt lat="45.72413" lon="4.67799">
        <ele>321.8</ele>
        <time>2025-12-11T15:36:39Z</time>
      </trkpt>
      <trkpt lat="45.72413" lon="4.67801">
        <ele>321.8</ele>
        <time>2025-12-11T15:36:40Z</time>
      </trkpt>
      <trkpt lat="45.72413" lon="4.67804">
        <ele>321.8</ele>
        <time>2025-12-11T15:36:41Z</time>
      </trkpt>
      <trkpt lat="45.72412" lon="4.67807">
        <ele>322</ele>
        <time>2025-12-11T15:36:42Z</time>
      </trkpt>
      <trkpt lat="45.72412" lon="4.67809">
        <ele>322</ele>
        <time>2025-12-11T15:36:43Z</time>
      </trkpt>
      <trkpt lat="45.72412" lon="4.67812">
        <ele>322</ele>
        <time>2025-12-11T15:36:44Z</time>
      </trkpt>
      <trkpt lat="45.72411" lon="4.67814">
        <ele>322</ele>
        <time>2025-12-11T15:36:45Z</time>
      </trkpt>
      <trkpt lat="45.72411" lon="4.67817">
        <ele>322</ele>
        <time>2025-12-11T15:36:46Z</time>
      </trkpt>
      <trkpt lat="45.7241" lon="4.67821">
        <ele>322</ele>
        <time>2025-12-11T15:36:47Z</time>
      </trkpt>
      <trkpt lat="45.7241" lon="4.67824">
        <ele>322.2</ele>
        <time>2025-12-11T15:36:48Z</time>
      </trkpt>
      <trkpt lat="45.7241" lon="4.67827">
        <ele>322.2</ele>
        <time>2025-12-11T15:36:49Z</time>
      </trkpt>
      <trkpt lat="45.7241" lon="4.6783">
        <ele>322.2</ele>
        <time>2025-12-11T15:36:50Z</time>
      </trkpt>
      <trkpt lat="45.7241" lon="4.67834">
        <ele>322.2</ele>
        <time>2025-12-11T15:36:51Z</time>
      </trkpt>
      <trkpt lat="45.7241" lon="4.67837">
        <ele>322.2</ele>
        <time>2025-12-11T15:36:52Z</time>
      </trkpt>
      <trkpt lat="45.7241" lon="4.6784">
        <ele>322.4</ele>
        <time>2025-12-11T15:36:53Z</time>
      </trkpt>
      <trkpt lat="45.7241" lon="4.67843">
        <ele>322.4</ele>
        <time>2025-12-11T15:36:54Z</time>
      </trkpt>
      <trkpt lat="45.7241" lon="4.67846">
        <ele>322.6</ele>
        <time>2025-12-11T15:36:55Z</time>
      </trkpt>
      <trkpt lat="45.7241" lon="4.67849">
        <ele>322.8</ele>
        <time>2025-12-11T15:36:56Z</time>
      </trkpt>
      <trkpt lat="45.72409" lon="4.67852">
        <ele>322.8</ele>
        <time>2025-12-11T15:36:57Z</time>
      </trkpt>
      <trkpt lat="45.72409" lon="4.67855">
        <ele>323</ele>
        <time>2025-12-11T15:36:58Z</time>
      </trkpt>
      <trkpt lat="45.72408" lon="4.67859">
        <ele>323</ele>
        <time>2025-12-11T15:36:59Z</time>
      </trkpt>
      <trkpt lat="45.72408" lon="4.67862">
        <ele>323.2</ele>
        <time>2025-12-11T15:37:00Z</time>
      </trkpt>
      <trkpt lat="45.72407" lon="4.67865">
        <ele>323.2</ele>
        <time>2025-12-11T15:37:01Z</time>
      </trkpt>
      <trkpt lat="45.72406" lon="4.67868">
        <ele>323.4</ele>
        <time>2025-12-11T15:37:02Z</time>
      </trkpt>
      <trkpt lat="45.72406" lon="4.67872">
        <ele>323.4</ele>
        <time>2025-12-11T15:37:03Z</time>
      </trkpt>
      <trkpt lat="45.72405" lon="4.67875">
        <ele>323.6</ele>
        <time>2025-12-11T15:37:04Z</time>
      </trkpt>
      <trkpt lat="45.72404" lon="4.67879">
        <ele>323.6</ele>
        <time>2025-12-11T15:37:05Z</time>
      </trkpt>
      <trkpt lat="45.72404" lon="4.67883">
        <ele>323.6</ele>
        <time>2025-12-11T15:37:06Z</time>
      </trkpt>
      <trkpt lat="45.72403" lon="4.67887">
        <ele>323.4</ele>
        <time>2025-12-11T15:37:07Z</time>
      </trkpt>
      <trkpt lat="45.72402" lon="4.67891">
        <ele>323.4</ele>
        <time>2025-12-11T15:37:08Z</time>
      </trkpt>
      <trkpt lat="45.724" lon="4.67896">
        <ele>323.4</ele>
        <time>2025-12-11T15:37:09Z</time>
      </trkpt>
      <trkpt lat="45.72399" lon="4.67901">
        <ele>323.4</ele>
        <time>2025-12-11T15:37:10Z</time>
      </trkpt>
      <trkpt lat="45.72397" lon="4.67905">
        <ele>323.2</ele>
        <time>2025-12-11T15:37:11Z</time>
      </trkpt>
      <trkpt lat="45.72396" lon="4.67909">
        <ele>323.2</ele>
        <time>2025-12-11T15:37:12Z</time>
      </trkpt>
      <trkpt lat="45.72393" lon="4.67913">
        <ele>323.4</ele>
        <time>2025-12-11T15:37:13Z</time>
      </trkpt>
      <trkpt lat="45.72392" lon="4.67917">
        <ele>323.4</ele>
        <time>2025-12-11T15:37:14Z</time>
      </trkpt>
      <trkpt lat="45.7239" lon="4.67921">
        <ele>323.4</ele>
        <time>2025-12-11T15:37:15Z</time>
      </trkpt>
      <trkpt lat="45.72388" lon="4.67926">
        <ele>323.6</ele>
        <time>2025-12-11T15:37:16Z</time>
      </trkpt>
      <trkpt lat="45.72386" lon="4.67929">
        <ele>323.6</ele>
        <time>2025-12-11T15:37:17Z</time>
      </trkpt>
      <trkpt lat="45.72384" lon="4.67934">
        <ele>323.6</ele>
        <time>2025-12-11T15:37:18Z</time>
      </trkpt>
      <trkpt lat="45.72382" lon="4.67938">
        <ele>323.6</ele>
        <time>2025-12-11T15:37:19Z</time>
      </trkpt>
      <trkpt lat="45.7238" lon="4.67942">
        <ele>323.6</ele>
        <time>2025-12-11T15:37:20Z</time>
      </trkpt>
      <trkpt lat="45.72378" lon="4.67947">
        <ele>323.8</ele>
        <time>2025-12-11T15:37:21Z</time>
      </trkpt>
      <trkpt lat="45.72376" lon="4.67951">
        <ele>323.8</ele>
        <time>2025-12-11T15:37:22Z</time>
      </trkpt>
      <trkpt lat="45.72374" lon="4.67955">
        <ele>323.8</ele>
        <time>2025-12-11T15:37:23Z</time>
      </trkpt>
      <trkpt lat="45.72373" lon="4.67959">
        <ele>323.8</ele>
        <time>2025-12-11T15:37:24Z</time>
      </trkpt>
      <trkpt lat="45.72371" lon="4.67964">
        <ele>323.8</ele>
        <time>2025-12-11T15:37:25Z</time>
      </trkpt>
      <trkpt lat="45.72369" lon="4.67968">
        <ele>323.8</ele>
        <time>2025-12-11T15:37:26Z</time>
      </trkpt>
      <trkpt lat="45.72367" lon="4.67973">
        <ele>323.8</ele>
        <time>2025-12-11T15:37:27Z</time>
      </trkpt>
      <trkpt lat="45.72365" lon="4.67979">
        <ele>323.8</ele>
        <time>2025-12-11T15:37:28Z</time>
      </trkpt>
      <trkpt lat="45.72363" lon="4.67985">
        <ele>323.6</ele>
        <time>2025-12-11T15:37:29Z</time>
      </trkpt>
      <trkpt lat="45.72361" lon="4.67991">
        <ele>323.4</ele>
        <time>2025-12-11T15:37:30Z</time>
      </trkpt>
      <trkpt lat="45.72359" lon="4.67998">
        <ele>323.4</ele>
        <time>2025-12-11T15:37:31Z</time>
      </trkpt>
      <trkpt lat="45.72357" lon="4.68004">
        <ele>323.2</ele>
        <time>2025-12-11T15:37:32Z</time>
      </trkpt>
      <trkpt lat="45.72356" lon="4.6801">
        <ele>323</ele>
        <time>2025-12-11T15:37:33Z</time>
      </trkpt>
      <trkpt lat="45.72354" lon="4.68016">
        <ele>323</ele>
        <time>2025-12-11T15:37:34Z</time>
      </trkpt>
      <trkpt lat="45.72353" lon="4.68023">
        <ele>323</ele>
        <time>2025-12-11T15:37:35Z</time>
      </trkpt>
      <trkpt lat="45.72352" lon="4.68029">
        <ele>323</ele>
        <time>2025-12-11T15:37:36Z</time>
      </trkpt>
      <trkpt lat="45.72351" lon="4.68035">
        <ele>323</ele>
        <time>2025-12-11T15:37:37Z</time>
      </trkpt>
      <trkpt lat="45.7235" lon="4.6804">
        <ele>323</ele>
        <time>2025-12-11T15:37:38Z</time>
      </trkpt>
      <trkpt lat="45.72349" lon="4.68046">
        <ele>323</ele>
        <time>2025-12-11T15:37:39Z</time>
      </trkpt>
      <trkpt lat="45.72348" lon="4.68052">
        <ele>323</ele>
        <time>2025-12-11T15:37:40Z</time>
      </trkpt>
      <trkpt lat="45.72347" lon="4.68059">
        <ele>322.8</ele>
        <time>2025-12-11T15:37:41Z</time>
      </trkpt>
      <trkpt lat="45.72346" lon="4.68066">
        <ele>322.8</ele>
        <time>2025-12-11T15:37:42Z</time>
      </trkpt>
      <trkpt lat="45.72346" lon="4.68073">
        <ele>322.6</ele>
        <time>2025-12-11T15:37:43Z</time>
      </trkpt>
      <trkpt lat="45.72345" lon="4.6808">
        <ele>322.6</ele>
        <time>2025-12-11T15:37:44Z</time>
      </trkpt>
      <trkpt lat="45.72345" lon="4.68087">
        <ele>322.4</ele>
        <time>2025-12-11T15:37:45Z</time>
      </trkpt>
      <trkpt lat="45.72344" lon="4.68094">
        <ele>322.4</ele>
        <time>2025-12-11T15:37:46Z</time>
      </trkpt>
      <trkpt lat="45.72344" lon="4.68101">
        <ele>322.2</ele>
        <time>2025-12-11T15:37:47Z</time>
      </trkpt>
      <trkpt lat="45.72343" lon="4.68109">
        <ele>322.2</ele>
        <time>2025-12-11T15:37:48Z</time>
      </trkpt>
      <trkpt lat="45.72343" lon="4.68116">
        <ele>322.2</ele>
        <time>2025-12-11T15:37:49Z</time>
      </trkpt>
      <trkpt lat="45.72341" lon="4.68122">
        <ele>322</ele>
        <time>2025-12-11T15:37:50Z</time>
      </trkpt>
      <trkpt lat="45.7234" lon="4.68129">
        <ele>322</ele>
        <time>2025-12-11T15:37:51Z</time>
      </trkpt>
      <trkpt lat="45.72338" lon="4.68135">
        <ele>322.2</ele>
        <time>2025-12-11T15:37:52Z</time>
      </trkpt>
      <trkpt lat="45.72337" lon="4.68142">
        <ele>322.2</ele>
        <time>2025-12-11T15:37:53Z</time>
      </trkpt>
      <trkpt lat="45.72335" lon="4.68148">
        <ele>322.2</ele>
        <time>2025-12-11T15:37:54Z</time>
      </trkpt>
      <trkpt lat="45.72334" lon="4.68155">
        <ele>322.2</ele>
        <time>2025-12-11T15:37:55Z</time>
      </trkpt>
      <trkpt lat="45.72333" lon="4.68161">
        <ele>322.2</ele>
        <time>2025-12-11T15:37:56Z</time>
      </trkpt>
      <trkpt lat="45.72332" lon="4.68167">
        <ele>322.2</ele>
        <time>2025-12-11T15:37:57Z</time>
      </trkpt>
      <trkpt lat="45.7233" lon="4.68173">
        <ele>322.4</ele>
        <time>2025-12-11T15:37:58Z</time>
      </trkpt>
      <trkpt lat="45.72328" lon="4.6818">
        <ele>322.4</ele>
        <time>2025-12-11T15:37:59Z</time>
      </trkpt>
      <trkpt lat="45.72327" lon="4.68186">
        <ele>322.4</ele>
        <time>2025-12-11T15:38:00Z</time>
      </trkpt>
      <trkpt lat="45.72326" lon="4.68193">
        <ele>322.4</ele>
        <time>2025-12-11T15:38:01Z</time>
      </trkpt>
      <trkpt lat="45.72324" lon="4.68199">
        <ele>322.4</ele>
        <time>2025-12-11T15:38:02Z</time>
      </trkpt>
      <trkpt lat="45.72323" lon="4.68205">
        <ele>322.4</ele>
        <time>2025-12-11T15:38:03Z</time>
      </trkpt>
      <trkpt lat="45.72322" lon="4.68211">
        <ele>322.6</ele>
        <time>2025-12-11T15:38:04Z</time>
      </trkpt>
      <trkpt lat="45.72321" lon="4.68217">
        <ele>322.6</ele>
        <time>2025-12-11T15:38:05Z</time>
      </trkpt>
      <trkpt lat="45.7232" lon="4.68223">
        <ele>322.8</ele>
        <time>2025-12-11T15:38:06Z</time>
      </trkpt>
      <trkpt lat="45.72318" lon="4.68228">
        <ele>323</ele>
        <time>2025-12-11T15:38:07Z</time>
      </trkpt>
      <trkpt lat="45.72317" lon="4.68234">
        <ele>323.2</ele>
        <time>2025-12-11T15:38:08Z</time>
      </trkpt>
      <trkpt lat="45.72316" lon="4.68238">
        <ele>323.4</ele>
        <time>2025-12-11T15:38:09Z</time>
      </trkpt>
      <trkpt lat="45.72315" lon="4.68243">
        <ele>323.6</ele>
        <time>2025-12-11T15:38:10Z</time>
      </trkpt>
      <trkpt lat="45.72313" lon="4.68247">
        <ele>323.8</ele>
        <time>2025-12-11T15:38:11Z</time>
      </trkpt>
      <trkpt lat="45.72312" lon="4.68251">
        <ele>324</ele>
        <time>2025-12-11T15:38:12Z</time>
      </trkpt>
      <trkpt lat="45.7231" lon="4.68255">
        <ele>324.4</ele>
        <time>2025-12-11T15:38:13Z</time>
      </trkpt>
      <trkpt lat="45.72309" lon="4.68259">
        <ele>324.6</ele>
        <time>2025-12-11T15:38:14Z</time>
      </trkpt>
      <trkpt lat="45.72308" lon="4.68263">
        <ele>325</ele>
        <time>2025-12-11T15:38:15Z</time>
      </trkpt>
      <trkpt lat="45.72307" lon="4.68266">
        <ele>325.2</ele>
        <time>2025-12-11T15:38:16Z</time>
      </trkpt>
      <trkpt lat="45.72307" lon="4.6827">
        <ele>325.4</ele>
        <time>2025-12-11T15:38:17Z</time>
      </trkpt>
      <trkpt lat="45.72306" lon="4.68273">
        <ele>325.6</ele>
        <time>2025-12-11T15:38:18Z</time>
      </trkpt>
      <trkpt lat="45.72305" lon="4.68276">
        <ele>325.8</ele>
        <time>2025-12-11T15:38:19Z</time>
      </trkpt>
      <trkpt lat="45.72304" lon="4.6828">
        <ele>326</ele>
        <time>2025-12-11T15:38:20Z</time>
      </trkpt>
      <trkpt lat="45.72303" lon="4.68283">
        <ele>326.2</ele>
        <time>2025-12-11T15:38:21Z</time>
      </trkpt>
      <trkpt lat="45.72302" lon="4.68286">
        <ele>326.4</ele>
        <time>2025-12-11T15:38:22Z</time>
      </trkpt>
      <trkpt lat="45.72301" lon="4.68289">
        <ele>326.6</ele>
        <time>2025-12-11T15:38:23Z</time>
      </trkpt>
      <trkpt lat="45.723" lon="4.68292">
        <ele>327</ele>
        <time>2025-12-11T15:38:24Z</time>
      </trkpt>
      <trkpt lat="45.72299" lon="4.68296">
        <ele>327.2</ele>
        <time>2025-12-11T15:38:25Z</time>
      </trkpt>
      <trkpt lat="45.72299" lon="4.68299">
        <ele>327.4</ele>
        <time>2025-12-11T15:38:26Z</time>
      </trkpt>
      <trkpt lat="45.72298" lon="4.68302">
        <ele>327.6</ele>
        <time>2025-12-11T15:38:27Z</time>
      </trkpt>
      <trkpt lat="45.72297" lon="4.68305">
        <ele>327.8</ele>
        <time>2025-12-11T15:38:28Z</time>
      </trkpt>
      <trkpt lat="45.72296" lon="4.68308">
        <ele>328</ele>
        <time>2025-12-11T15:38:29Z</time>
      </trkpt>
      <trkpt lat="45.72296" lon="4.68312">
        <ele>328.2</ele>
        <time>2025-12-11T15:38:30Z</time>
      </trkpt>
      <trkpt lat="45.72295" lon="4.68315">
        <ele>328.4</ele>
        <time>2025-12-11T15:38:31Z</time>
      </trkpt>
      <trkpt lat="45.72293" lon="4.68317">
        <ele>328.6</ele>
        <time>2025-12-11T15:38:32Z</time>
      </trkpt>
      <trkpt lat="45.72292" lon="4.6832">
        <ele>328.8</ele>
        <time>2025-12-11T15:38:33Z</time>
      </trkpt>
      <trkpt lat="45.72292" lon="4.68324">
        <ele>328.8</ele>
        <time>2025-12-11T15:38:34Z</time>
      </trkpt>
      <trkpt lat="45.72291" lon="4.68327">
        <ele>329</ele>
        <time>2025-12-11T15:38:35Z</time>
      </trkpt>
      <trkpt lat="45.7229" lon="4.68331">
        <ele>329</ele>
        <time>2025-12-11T15:38:36Z</time>
      </trkpt>
      <trkpt lat="45.7229" lon="4.68334">
        <ele>329.2</ele>
        <time>2025-12-11T15:38:37Z</time>
      </trkpt>
      <trkpt lat="45.7229" lon="4.68338">
        <ele>329.2</ele>
        <time>2025-12-11T15:38:38Z</time>
      </trkpt>
      <trkpt lat="45.72289" lon="4.68341">
        <ele>329.2</ele>
        <time>2025-12-11T15:38:39Z</time>
      </trkpt>
      <trkpt lat="45.72288" lon="4.68345">
        <ele>329.2</ele>
        <time>2025-12-11T15:38:40Z</time>
      </trkpt>
      <trkpt lat="45.72288" lon="4.68349">
        <ele>329.4</ele>
        <time>2025-12-11T15:38:41Z</time>
      </trkpt>
      <trkpt lat="45.72287" lon="4.68353">
        <ele>329.4</ele>
        <time>2025-12-11T15:38:42Z</time>
      </trkpt>
      <trkpt lat="45.72286" lon="4.68357">
        <ele>329.4</ele>
        <time>2025-12-11T15:38:43Z</time>
      </trkpt>
      <trkpt lat="45.72285" lon="4.68361">
        <ele>329.6</ele>
        <time>2025-12-11T15:38:44Z</time>
      </trkpt>
      <trkpt lat="45.72284" lon="4.68364">
        <ele>329.6</ele>
        <time>2025-12-11T15:38:45Z</time>
      </trkpt>
      <trkpt lat="45.72283" lon="4.68368">
        <ele>329.8</ele>
        <time>2025-12-11T15:38:46Z</time>
      </trkpt>
      <trkpt lat="45.72282" lon="4.68372">
        <ele>329.8</ele>
        <time>2025-12-11T15:38:47Z</time>
      </trkpt>
      <trkpt lat="45.72281" lon="4.68375">
        <ele>330</ele>
        <time>2025-12-11T15:38:48Z</time>
      </trkpt>
      <trkpt lat="45.7228" lon="4.68379">
        <ele>330</ele>
        <time>2025-12-11T15:38:49Z</time>
      </trkpt>
      <trkpt lat="45.72279" lon="4.68383">
        <ele>330.2</ele>
        <time>2025-12-11T15:38:50Z</time>
      </trkpt>
      <trkpt lat="45.72278" lon="4.68387">
        <ele>330.4</ele>
        <time>2025-12-11T15:38:51Z</time>
      </trkpt>
      <trkpt lat="45.72278" lon="4.68391">
        <ele>330.6</ele>
        <time>2025-12-11T15:38:52Z</time>
      </trkpt>
      <trkpt lat="45.72277" lon="4.68394">
        <ele>330.6</ele>
        <time>2025-12-11T15:38:53Z</time>
      </trkpt>
      <trkpt lat="45.72276" lon="4.68397">
        <ele>330.8</ele>
        <time>2025-12-11T15:38:54Z</time>
      </trkpt>
      <trkpt lat="45.72275" lon="4.684">
        <ele>331</ele>
        <time>2025-12-11T15:38:55Z</time>
      </trkpt>
      <trkpt lat="45.72274" lon="4.68404">
        <ele>331.2</ele>
        <time>2025-12-11T15:38:56Z</time>
      </trkpt>
      <trkpt lat="45.72274" lon="4.68407">
        <ele>331.2</ele>
        <time>2025-12-11T15:38:57Z</time>
      </trkpt>
      <trkpt lat="45.72273" lon="4.68411">
        <ele>331.4</ele>
        <time>2025-12-11T15:38:58Z</time>
      </trkpt>
      <trkpt lat="45.72272" lon="4.68414">
        <ele>331.6</ele>
        <time>2025-12-11T15:38:59Z</time>
      </trkpt>
      <trkpt lat="45.72271" lon="4.68417">
        <ele>331.6</ele>
        <time>2025-12-11T15:39:00Z</time>
      </trkpt>
      <trkpt lat="45.72271" lon="4.6842">
        <ele>331.8</ele>
        <time>2025-12-11T15:39:01Z</time>
      </trkpt>
      <trkpt lat="45.7227" lon="4.68424">
        <ele>331.8</ele>
        <time>2025-12-11T15:39:02Z</time>
      </trkpt>
      <trkpt lat="45.72269" lon="4.68427">
        <ele>332</ele>
        <time>2025-12-11T15:39:03Z</time>
      </trkpt>
      <trkpt lat="45.72269" lon="4.6843">
        <ele>332.2</ele>
        <time>2025-12-11T15:39:04Z</time>
      </trkpt>
      <trkpt lat="45.72267" lon="4.68434">
        <ele>332.2</ele>
        <time>2025-12-11T15:39:05Z</time>
      </trkpt>
      <trkpt lat="45.72266" lon="4.68437">
        <ele>332.4</ele>
        <time>2025-12-11T15:39:06Z</time>
      </trkpt>
      <trkpt lat="45.72265" lon="4.6844">
        <ele>332.4</ele>
        <time>2025-12-11T15:39:07Z</time>
      </trkpt>
      <trkpt lat="45.72265" lon="4.68443">
        <ele>332.6</ele>
        <time>2025-12-11T15:39:08Z</time>
      </trkpt>
      <trkpt lat="45.72263" lon="4.68447">
        <ele>332.8</ele>
        <time>2025-12-11T15:39:09Z</time>
      </trkpt>
      <trkpt lat="45.72262" lon="4.6845">
        <ele>333</ele>
        <time>2025-12-11T15:39:10Z</time>
      </trkpt>
      <trkpt lat="45.72261" lon="4.68453">
        <ele>333</ele>
        <time>2025-12-11T15:39:11Z</time>
      </trkpt>
      <trkpt lat="45.72261" lon="4.68457">
        <ele>333.2</ele>
        <time>2025-12-11T15:39:12Z</time>
      </trkpt>
      <trkpt lat="45.7226" lon="4.6846">
        <ele>333.4</ele>
        <time>2025-12-11T15:39:13Z</time>
      </trkpt>
      <trkpt lat="45.72259" lon="4.68464">
        <ele>333.4</ele>
        <time>2025-12-11T15:39:14Z</time>
      </trkpt>
      <trkpt lat="45.72258" lon="4.68467">
        <ele>333.4</ele>
        <time>2025-12-11T15:39:15Z</time>
      </trkpt>
      <trkpt lat="45.72257" lon="4.68471">
        <ele>333.6</ele>
        <time>2025-12-11T15:39:16Z</time>
      </trkpt>
      <trkpt lat="45.72257" lon="4.68475">
        <ele>333.6</ele>
        <time>2025-12-11T15:39:17Z</time>
      </trkpt>
      <trkpt lat="45.72256" lon="4.68479">
        <ele>333.8</ele>
        <time>2025-12-11T15:39:18Z</time>
      </trkpt>
      <trkpt lat="45.72255" lon="4.68482">
        <ele>333.8</ele>
        <time>2025-12-11T15:39:19Z</time>
      </trkpt>
      <trkpt lat="45.72255" lon="4.68486">
        <ele>334</ele>
        <time>2025-12-11T15:39:20Z</time>
      </trkpt>
      <trkpt lat="45.72255" lon="4.6849">
        <ele>334.2</ele>
        <time>2025-12-11T15:39:21Z</time>
      </trkpt>
      <trkpt lat="45.72255" lon="4.68493">
        <ele>334.4</ele>
        <time>2025-12-11T15:39:22Z</time>
      </trkpt>
      <trkpt lat="45.72254" lon="4.68497">
        <ele>334.4</ele>
        <time>2025-12-11T15:39:23Z</time>
      </trkpt>
      <trkpt lat="45.72254" lon="4.68501">
        <ele>334.6</ele>
        <time>2025-12-11T15:39:24Z</time>
      </trkpt>
      <trkpt lat="45.72254" lon="4.68504">
        <ele>334.8</ele>
        <time>2025-12-11T15:39:25Z</time>
      </trkpt>
      <trkpt lat="45.72254" lon="4.68508">
        <ele>334.8</ele>
        <time>2025-12-11T15:39:26Z</time>
      </trkpt>
      <trkpt lat="45.72254" lon="4.68512">
        <ele>334.8</ele>
        <time>2025-12-11T15:39:27Z</time>
      </trkpt>
      <trkpt lat="45.72253" lon="4.68516">
        <ele>335</ele>
        <time>2025-12-11T15:39:28Z</time>
      </trkpt>
      <trkpt lat="45.72253" lon="4.6852">
        <ele>335</ele>
        <time>2025-12-11T15:39:29Z</time>
      </trkpt>
      <trkpt lat="45.72252" lon="4.68523">
        <ele>335.2</ele>
        <time>2025-12-11T15:39:30Z</time>
      </trkpt>
      <trkpt lat="45.72252" lon="4.68527">
        <ele>335.2</ele>
        <time>2025-12-11T15:39:31Z</time>
      </trkpt>
      <trkpt lat="45.72251" lon="4.68531">
        <ele>335.2</ele>
        <time>2025-12-11T15:39:32Z</time>
      </trkpt>
      <trkpt lat="45.7225" lon="4.68535">
        <ele>335.2</ele>
        <time>2025-12-11T15:39:33Z</time>
      </trkpt>
      <trkpt lat="45.72249" lon="4.68539">
        <ele>335.2</ele>
        <time>2025-12-11T15:39:34Z</time>
      </trkpt>
      <trkpt lat="45.72248" lon="4.68543">
        <ele>335.2</ele>
        <time>2025-12-11T15:39:35Z</time>
      </trkpt>
      <trkpt lat="45.72246" lon="4.68547">
        <ele>335.2</ele>
        <time>2025-12-11T15:39:36Z</time>
      </trkpt>
      <trkpt lat="45.72244" lon="4.68551">
        <ele>335.2</ele>
        <time>2025-12-11T15:39:37Z</time>
      </trkpt>
      <trkpt lat="45.72243" lon="4.68555">
        <ele>335.2</ele>
        <time>2025-12-11T15:39:38Z</time>
      </trkpt>
      <trkpt lat="45.72241" lon="4.68559">
        <ele>335.2</ele>
        <time>2025-12-11T15:39:39Z</time>
      </trkpt>
      <trkpt lat="45.7224" lon="4.68563">
        <ele>335.2</ele>
        <time>2025-12-11T15:39:40Z</time>
      </trkpt>
      <trkpt lat="45.72238" lon="4.68567">
        <ele>335.4</ele>
        <time>2025-12-11T15:39:41Z</time>
      </trkpt>
      <trkpt lat="45.72237" lon="4.6857">
        <ele>335.4</ele>
        <time>2025-12-11T15:39:42Z</time>
      </trkpt>
      <trkpt lat="45.72236" lon="4.68574">
        <ele>335.6</ele>
        <time>2025-12-11T15:39:43Z</time>
      </trkpt>
      <trkpt lat="45.72234" lon="4.68578">
        <ele>335.6</ele>
        <time>2025-12-11T15:39:44Z</time>
      </trkpt>
      <trkpt lat="45.72232" lon="4.68583">
        <ele>335.6</ele>
        <time>2025-12-11T15:39:45Z</time>
      </trkpt>
      <trkpt lat="45.7223" lon="4.68587">
        <ele>335.6</ele>
        <time>2025-12-11T15:39:46Z</time>
      </trkpt>
      <trkpt lat="45.72229" lon="4.68591">
        <ele>335.6</ele>
        <time>2025-12-11T15:39:47Z</time>
      </trkpt>
      <trkpt lat="45.72227" lon="4.68595">
        <ele>335.6</ele>
        <time>2025-12-11T15:39:48Z</time>
      </trkpt>
      <trkpt lat="45.72226" lon="4.68599">
        <ele>335.6</ele>
        <time>2025-12-11T15:39:49Z</time>
      </trkpt>
      <trkpt lat="45.72224" lon="4.68603">
        <ele>335.6</ele>
        <time>2025-12-11T15:39:50Z</time>
      </trkpt>
      <trkpt lat="45.72223" lon="4.68607">
        <ele>335.6</ele>
        <time>2025-12-11T15:39:51Z</time>
      </trkpt>
      <trkpt lat="45.72221" lon="4.68611">
        <ele>335.6</ele>
        <time>2025-12-11T15:39:52Z</time>
      </trkpt>
      <trkpt lat="45.7222" lon="4.68614">
        <ele>335.6</ele>
        <time>2025-12-11T15:39:53Z</time>
      </trkpt>
      <trkpt lat="45.72218" lon="4.68619">
        <ele>335.6</ele>
        <time>2025-12-11T15:39:54Z</time>
      </trkpt>
      <trkpt lat="45.72217" lon="4.68623">
        <ele>335.6</ele>
        <time>2025-12-11T15:39:55Z</time>
      </trkpt>
      <trkpt lat="45.72215" lon="4.68627">
        <ele>335.6</ele>
        <time>2025-12-11T15:39:56Z</time>
      </trkpt>
      <trkpt lat="45.72213" lon="4.68631">
        <ele>335.8</ele>
        <time>2025-12-11T15:39:57Z</time>
      </trkpt>
      <trkpt lat="45.72212" lon="4.68636">
        <ele>335.8</ele>
        <time>2025-12-11T15:39:58Z</time>
      </trkpt>
      <trkpt lat="45.72211" lon="4.6864">
        <ele>335.8</ele>
        <time>2025-12-11T15:39:59Z</time>
      </trkpt>
      <trkpt lat="45.72209" lon="4.68645">
        <ele>335.8</ele>
        <time>2025-12-11T15:40:00Z</time>
      </trkpt>
      <trkpt lat="45.72207" lon="4.68649">
        <ele>335.8</ele>
        <time>2025-12-11T15:40:01Z</time>
      </trkpt>
      <trkpt lat="45.72206" lon="4.68653">
        <ele>335.8</ele>
        <time>2025-12-11T15:40:02Z</time>
      </trkpt>
      <trkpt lat="45.72205" lon="4.68658">
        <ele>335.8</ele>
        <time>2025-12-11T15:40:03Z</time>
      </trkpt>
      <trkpt lat="45.72203" lon="4.68662">
        <ele>335.8</ele>
        <time>2025-12-11T15:40:04Z</time>
      </trkpt>
      <trkpt lat="45.72201" lon="4.68667">
        <ele>335.8</ele>
        <time>2025-12-11T15:40:05Z</time>
      </trkpt>
      <trkpt lat="45.72199" lon="4.68671">
        <ele>335.8</ele>
        <time>2025-12-11T15:40:06Z</time>
      </trkpt>
      <trkpt lat="45.72197" lon="4.68676">
        <ele>335.8</ele>
        <time>2025-12-11T15:40:07Z</time>
      </trkpt>
      <trkpt lat="45.72196" lon="4.6868">
        <ele>335.8</ele>
        <time>2025-12-11T15:40:08Z</time>
      </trkpt>
      <trkpt lat="45.72194" lon="4.68685">
        <ele>336</ele>
        <time>2025-12-11T15:40:09Z</time>
      </trkpt>
      <trkpt lat="45.72192" lon="4.68689">
        <ele>336</ele>
        <time>2025-12-11T15:40:10Z</time>
      </trkpt>
      <trkpt lat="45.7219" lon="4.68694">
        <ele>336</ele>
        <time>2025-12-11T15:40:11Z</time>
      </trkpt>
      <trkpt lat="45.72188" lon="4.68698">
        <ele>336.2</ele>
        <time>2025-12-11T15:40:12Z</time>
      </trkpt>
      <trkpt lat="45.72187" lon="4.68703">
        <ele>336.2</ele>
        <time>2025-12-11T15:40:13Z</time>
      </trkpt>
      <trkpt lat="45.72185" lon="4.68708">
        <ele>336.2</ele>
        <time>2025-12-11T15:40:14Z</time>
      </trkpt>
      <trkpt lat="45.72183" lon="4.68712">
        <ele>336.4</ele>
        <time>2025-12-11T15:40:15Z</time>
      </trkpt>
      <trkpt lat="45.72182" lon="4.68717">
        <ele>336.4</ele>
        <time>2025-12-11T15:40:16Z</time>
      </trkpt>
      <trkpt lat="45.7218" lon="4.68721">
        <ele>336.6</ele>
        <time>2025-12-11T15:40:17Z</time>
      </trkpt>
      <trkpt lat="45.72178" lon="4.68725">
        <ele>336.6</ele>
        <time>2025-12-11T15:40:18Z</time>
      </trkpt>
      <trkpt lat="45.72176" lon="4.68729">
        <ele>336.8</ele>
        <time>2025-12-11T15:40:19Z</time>
      </trkpt>
      <trkpt lat="45.72175" lon="4.68733">
        <ele>336.8</ele>
        <time>2025-12-11T15:40:20Z</time>
      </trkpt>
      <trkpt lat="45.72173" lon="4.68737">
        <ele>337</ele>
        <time>2025-12-11T15:40:21Z</time>
      </trkpt>
      <trkpt lat="45.72171" lon="4.68742">
        <ele>337</ele>
        <time>2025-12-11T15:40:22Z</time>
      </trkpt>
      <trkpt lat="45.7217" lon="4.68746">
        <ele>337.2</ele>
        <time>2025-12-11T15:40:23Z</time>
      </trkpt>
      <trkpt lat="45.72168" lon="4.6875">
        <ele>337.2</ele>
        <time>2025-12-11T15:40:24Z</time>
      </trkpt>
      <trkpt lat="45.72167" lon="4.68754">
        <ele>337.4</ele>
        <time>2025-12-11T15:40:25Z</time>
      </trkpt>
      <trkpt lat="45.72165" lon="4.68758">
        <ele>337.4</ele>
        <time>2025-12-11T15:40:26Z</time>
      </trkpt>
      <trkpt lat="45.72164" lon="4.68762">
        <ele>337.6</ele>
        <time>2025-12-11T15:40:27Z</time>
      </trkpt>
      <trkpt lat="45.72163" lon="4.68765">
        <ele>337.6</ele>
        <time>2025-12-11T15:40:28Z</time>
      </trkpt>
      <trkpt lat="45.72161" lon="4.68768">
        <ele>337.8</ele>
        <time>2025-12-11T15:40:29Z</time>
      </trkpt>
      <trkpt lat="45.7216" lon="4.68772">
        <ele>337.8</ele>
        <time>2025-12-11T15:40:30Z</time>
      </trkpt>
      <trkpt lat="45.72159" lon="4.68775">
        <ele>338</ele>
        <time>2025-12-11T15:40:31Z</time>
      </trkpt>
      <trkpt lat="45.72159" lon="4.68778">
        <ele>338</ele>
        <time>2025-12-11T15:40:32Z</time>
      </trkpt>
      <trkpt lat="45.72158" lon="4.68779">
        <ele>338.2</ele>
        <time>2025-12-11T15:40:33Z</time>
      </trkpt>
      <trkpt lat="45.72158" lon="4.68779">
        <ele>338.4</ele>
        <time>2025-12-11T15:40:34Z</time>
      </trkpt>
      <trkpt lat="45.72158" lon="4.6878">
        <ele>338.4</ele>
        <time>2025-12-11T15:40:35Z</time>
      </trkpt>
      <trkpt lat="45.72159" lon="4.68781">
        <ele>338.4</ele>
        <time>2025-12-11T15:40:36Z</time>
      </trkpt>
      <trkpt lat="45.72159" lon="4.68784">
        <ele>338.4</ele>
        <time>2025-12-11T15:40:37Z</time>
      </trkpt>
      <trkpt lat="45.72159" lon="4.68786">
        <ele>338.4</ele>
        <time>2025-12-11T15:40:38Z</time>
      </trkpt>
      <trkpt lat="45.72158" lon="4.68789">
        <ele>338.4</ele>
        <time>2025-12-11T15:40:39Z</time>
      </trkpt>
      <trkpt lat="45.72157" lon="4.68793">
        <ele>338.4</ele>
        <time>2025-12-11T15:40:40Z</time>
      </trkpt>
      <trkpt lat="45.72156" lon="4.68798">
        <ele>338.4</ele>
        <time>2025-12-11T15:40:41Z</time>
      </trkpt>
      <trkpt lat="45.72156" lon="4.68802">
        <ele>338.4</ele>
        <time>2025-12-11T15:40:42Z</time>
      </trkpt>
      <trkpt lat="45.72155" lon="4.68805">
        <ele>338.4</ele>
        <time>2025-12-11T15:40:43Z</time>
      </trkpt>
      <trkpt lat="45.72155" lon="4.68809">
        <ele>338.4</ele>
        <time>2025-12-11T15:40:44Z</time>
      </trkpt>
      <trkpt lat="45.72154" lon="4.68812">
        <ele>338.4</ele>
        <time>2025-12-11T15:40:45Z</time>
      </trkpt>
      <trkpt lat="45.72154" lon="4.68816">
        <ele>338.4</ele>
        <time>2025-12-11T15:40:46Z</time>
      </trkpt>
      <trkpt lat="45.72153" lon="4.68819">
        <ele>338.4</ele>
        <time>2025-12-11T15:40:47Z</time>
      </trkpt>
      <trkpt lat="45.72152" lon="4.68823">
        <ele>338.4</ele>
        <time>2025-12-11T15:40:48Z</time>
      </trkpt>
      <trkpt lat="45.7215" lon="4.68827">
        <ele>338.4</ele>
        <time>2025-12-11T15:40:49Z</time>
      </trkpt>
      <trkpt lat="45.72149" lon="4.6883">
        <ele>338.4</ele>
        <time>2025-12-11T15:40:50Z</time>
      </trkpt>
      <trkpt lat="45.72147" lon="4.68834">
        <ele>338.4</ele>
        <time>2025-12-11T15:40:51Z</time>
      </trkpt>
      <trkpt lat="45.72145" lon="4.68837">
        <ele>338.6</ele>
        <time>2025-12-11T15:40:52Z</time>
      </trkpt>
      <trkpt lat="45.72143" lon="4.68841">
        <ele>338.6</ele>
        <time>2025-12-11T15:40:53Z</time>
      </trkpt>
      <trkpt lat="45.72141" lon="4.68844">
        <ele>338.6</ele>
        <time>2025-12-11T15:40:54Z</time>
      </trkpt>
      <trkpt lat="45.7214" lon="4.68847">
        <ele>338.8</ele>
        <time>2025-12-11T15:40:55Z</time>
      </trkpt>
      <trkpt lat="45.72138" lon="4.6885">
        <ele>338.8</ele>
        <time>2025-12-11T15:40:56Z</time>
      </trkpt>
      <trkpt lat="45.72137" lon="4.68853">
        <ele>339</ele>
        <time>2025-12-11T15:40:57Z</time>
      </trkpt>
      <trkpt lat="45.72135" lon="4.68857">
        <ele>339</ele>
        <time>2025-12-11T15:40:58Z</time>
      </trkpt>
      <trkpt lat="45.72134" lon="4.68861">
        <ele>338.8</ele>
        <time>2025-12-11T15:40:59Z</time>
      </trkpt>
      <trkpt lat="45.72132" lon="4.68865">
        <ele>338.8</ele>
        <time>2025-12-11T15:41:00Z</time>
      </trkpt>
      <trkpt lat="45.72131" lon="4.6887">
        <ele>338.6</ele>
        <time>2025-12-11T15:41:01Z</time>
      </trkpt>
      <trkpt lat="45.72129" lon="4.68874">
        <ele>338.6</ele>
        <time>2025-12-11T15:41:02Z</time>
      </trkpt>
      <trkpt lat="45.72127" lon="4.68878">
        <ele>338.6</ele>
        <time>2025-12-11T15:41:03Z</time>
      </trkpt>
      <trkpt lat="45.72126" lon="4.68882">
        <ele>338.4</ele>
        <time>2025-12-11T15:41:04Z</time>
      </trkpt>
      <trkpt lat="45.72123" lon="4.68886">
        <ele>338.4</ele>
        <time>2025-12-11T15:41:05Z</time>
      </trkpt>
      <trkpt lat="45.72121" lon="4.6889">
        <ele>338.4</ele>
        <time>2025-12-11T15:41:06Z</time>
      </trkpt>
      <trkpt lat="45.72119" lon="4.68894">
        <ele>338.2</ele>
        <time>2025-12-11T15:41:07Z</time>
      </trkpt>
      <trkpt lat="45.72116" lon="4.68898">
        <ele>338.2</ele>
        <time>2025-12-11T15:41:08Z</time>
      </trkpt>
      <trkpt lat="45.72114" lon="4.68903">
        <ele>338</ele>
        <time>2025-12-11T15:41:09Z</time>
      </trkpt>
      <trkpt lat="45.72112" lon="4.68908">
        <ele>337.8</ele>
        <time>2025-12-11T15:41:10Z</time>
      </trkpt>
      <trkpt lat="45.7211" lon="4.68913">
        <ele>337.8</ele>
        <time>2025-12-11T15:41:11Z</time>
      </trkpt>
      <trkpt lat="45.72108" lon="4.68919">
        <ele>337.6</ele>
        <time>2025-12-11T15:41:12Z</time>
      </trkpt>
      <trkpt lat="45.72107" lon="4.68924">
        <ele>337.6</ele>
        <time>2025-12-11T15:41:13Z</time>
      </trkpt>
      <trkpt lat="45.72105" lon="4.6893">
        <ele>337.4</ele>
        <time>2025-12-11T15:41:14Z</time>
      </trkpt>
      <trkpt lat="45.72103" lon="4.68935">
        <ele>337.2</ele>
        <time>2025-12-11T15:41:15Z</time>
      </trkpt>
      <trkpt lat="45.72101" lon="4.68941">
        <ele>337</ele>
        <time>2025-12-11T15:41:16Z</time>
      </trkpt>
      <trkpt lat="45.72098" lon="4.68946">
        <ele>337</ele>
        <time>2025-12-11T15:41:17Z</time>
      </trkpt>
      <trkpt lat="45.72096" lon="4.68951">
        <ele>336.8</ele>
        <time>2025-12-11T15:41:18Z</time>
      </trkpt>
      <trkpt lat="45.72095" lon="4.68956">
        <ele>336.6</ele>
        <time>2025-12-11T15:41:19Z</time>
      </trkpt>
      <trkpt lat="45.72093" lon="4.68962">
        <ele>336.6</ele>
        <time>2025-12-11T15:41:20Z</time>
      </trkpt>
      <trkpt lat="45.72091" lon="4.68967">
        <ele>336.4</ele>
        <time>2025-12-11T15:41:21Z</time>
      </trkpt>
      <trkpt lat="45.7209" lon="4.68971">
        <ele>336.4</ele>
        <time>2025-12-11T15:41:22Z</time>
      </trkpt>
      <trkpt lat="45.72088" lon="4.68976">
        <ele>336.2</ele>
        <time>2025-12-11T15:41:23Z</time>
      </trkpt>
      <trkpt lat="45.72087" lon="4.6898">
        <ele>336.2</ele>
        <time>2025-12-11T15:41:24Z</time>
      </trkpt>
      <trkpt lat="45.72086" lon="4.68984">
        <ele>336</ele>
        <time>2025-12-11T15:41:25Z</time>
      </trkpt>
      <trkpt lat="45.72084" lon="4.68989">
        <ele>336</ele>
        <time>2025-12-11T15:41:26Z</time>
      </trkpt>
      <trkpt lat="45.72083" lon="4.68992">
        <ele>336</ele>
        <time>2025-12-11T15:41:27Z</time>
      </trkpt>
      <trkpt lat="45.7208" lon="4.68993">
        <ele>335.8</ele>
        <time>2025-12-11T15:41:28Z</time>
      </trkpt>
      <trkpt lat="45.72077" lon="4.68993">
        <ele>336</ele>
        <time>2025-12-11T15:41:29Z</time>
      </trkpt>
      <trkpt lat="45.72075" lon="4.68992">
        <ele>336</ele>
        <time>2025-12-11T15:41:30Z</time>
      </trkpt>
      <trkpt lat="45.72072" lon="4.68991">
        <ele>336</ele>
        <time>2025-12-11T15:41:31Z</time>
      </trkpt>
      <trkpt lat="45.72069" lon="4.68989">
        <ele>336</ele>
        <time>2025-12-11T15:41:32Z</time>
      </trkpt>
      <trkpt lat="45.72064" lon="4.68988">
        <ele>336</ele>
        <time>2025-12-11T15:41:33Z</time>
      </trkpt>
      <trkpt lat="45.72061" lon="4.68986">
        <ele>335.8</ele>
        <time>2025-12-11T15:41:34Z</time>
      </trkpt>
      <trkpt lat="45.72058" lon="4.68984">
        <ele>335.8</ele>
        <time>2025-12-11T15:41:35Z</time>
      </trkpt>
      <trkpt lat="45.72056" lon="4.68984">
        <ele>335.8</ele>
        <time>2025-12-11T15:41:36Z</time>
      </trkpt>
      <trkpt lat="45.72053" lon="4.68984">
        <ele>335.8</ele>
        <time>2025-12-11T15:41:37Z</time>
      </trkpt>
      <trkpt lat="45.72051" lon="4.68984">
        <ele>335.6</ele>
        <time>2025-12-11T15:41:38Z</time>
      </trkpt>
      <trkpt lat="45.72049" lon="4.68982">
        <ele>335.6</ele>
        <time>2025-12-11T15:41:39Z</time>
      </trkpt>
      <trkpt lat="45.72046" lon="4.68981">
        <ele>335.4</ele>
        <time>2025-12-11T15:41:40Z</time>
      </trkpt>
      <trkpt lat="45.72042" lon="4.6898">
        <ele>335.4</ele>
        <time>2025-12-11T15:41:41Z</time>
      </trkpt>
      <trkpt lat="45.72039" lon="4.68978">
        <ele>335.2</ele>
        <time>2025-12-11T15:41:42Z</time>
      </trkpt>
      <trkpt lat="45.72036" lon="4.68977">
        <ele>335.2</ele>
        <time>2025-12-11T15:41:43Z</time>
      </trkpt>
      <trkpt lat="45.72032" lon="4.68976">
        <ele>335.2</ele>
        <time>2025-12-11T15:41:44Z</time>
      </trkpt>
      <trkpt lat="45.72028" lon="4.68975">
        <ele>335</ele>
        <time>2025-12-11T15:41:45Z</time>
      </trkpt>
      <trkpt lat="45.72025" lon="4.68973">
        <ele>334.8</ele>
        <time>2025-12-11T15:41:46Z</time>
      </trkpt>
      <trkpt lat="45.72022" lon="4.6897">
        <ele>334.6</ele>
        <time>2025-12-11T15:41:47Z</time>
      </trkpt>
      <trkpt lat="45.72018" lon="4.68967">
        <ele>334.4</ele>
        <time>2025-12-11T15:41:48Z</time>
      </trkpt>
      <trkpt lat="45.72014" lon="4.68964">
        <ele>334.2</ele>
        <time>2025-12-11T15:41:49Z</time>
      </trkpt>
      <trkpt lat="45.72009" lon="4.68961">
        <ele>334</ele>
        <time>2025-12-11T15:41:50Z</time>
      </trkpt>
      <trkpt lat="45.72005" lon="4.68957">
        <ele>333.8</ele>
        <time>2025-12-11T15:41:51Z</time>
      </trkpt>
      <trkpt lat="45.72001" lon="4.68954">
        <ele>333.8</ele>
        <time>2025-12-11T15:41:52Z</time>
      </trkpt>
      <trkpt lat="45.71997" lon="4.6895">
        <ele>333.6</ele>
        <time>2025-12-11T15:41:53Z</time>
      </trkpt>
      <trkpt lat="45.71993" lon="4.68947">
        <ele>333.6</ele>
        <time>2025-12-11T15:41:54Z</time>
      </trkpt>
      <trkpt lat="45.71989" lon="4.68944">
        <ele>333.6</ele>
        <time>2025-12-11T15:41:55Z</time>
      </trkpt>
      <trkpt lat="45.71985" lon="4.68941">
        <ele>333.6</ele>
        <time>2025-12-11T15:41:56Z</time>
      </trkpt>
      <trkpt lat="45.71981" lon="4.68938">
        <ele>333.6</ele>
        <time>2025-12-11T15:41:57Z</time>
      </trkpt>
      <trkpt lat="45.71977" lon="4.68936">
        <ele>333.6</ele>
        <time>2025-12-11T15:41:58Z</time>
      </trkpt>
      <trkpt lat="45.71973" lon="4.68933">
        <ele>333.6</ele>
        <time>2025-12-11T15:41:59Z</time>
      </trkpt>
      <trkpt lat="45.71969" lon="4.6893">
        <ele>333.4</ele>
        <time>2025-12-11T15:42:00Z</time>
      </trkpt>
      <trkpt lat="45.71966" lon="4.68926">
        <ele>333.4</ele>
        <time>2025-12-11T15:42:01Z</time>
      </trkpt>
      <trkpt lat="45.71962" lon="4.68923">
        <ele>333.2</ele>
        <time>2025-12-11T15:42:02Z</time>
      </trkpt>
      <trkpt lat="45.7196" lon="4.68921">
        <ele>333.2</ele>
        <time>2025-12-11T15:42:03Z</time>
      </trkpt>
      <trkpt lat="45.71958" lon="4.6892">
        <ele>333.2</ele>
        <time>2025-12-11T15:42:04Z</time>
      </trkpt>
      <trkpt lat="45.71956" lon="4.68922">
        <ele>333.2</ele>
        <time>2025-12-11T15:42:05Z</time>
      </trkpt>
      <trkpt lat="45.71955" lon="4.68926">
        <ele>333.2</ele>
        <time>2025-12-11T15:42:06Z</time>
      </trkpt>
      <trkpt lat="45.71954" lon="4.68931">
        <ele>333</ele>
        <time>2025-12-11T15:42:07Z</time>
      </trkpt>
      <trkpt lat="45.71954" lon="4.68936">
        <ele>333</ele>
        <time>2025-12-11T15:42:08Z</time>
      </trkpt>
      <trkpt lat="45.71953" lon="4.68942">
        <ele>332.8</ele>
        <time>2025-12-11T15:42:09Z</time>
      </trkpt>
      <trkpt lat="45.71952" lon="4.68947">
        <ele>332.6</ele>
        <time>2025-12-11T15:42:10Z</time>
      </trkpt>
      <trkpt lat="45.71952" lon="4.68953">
        <ele>332.4</ele>
        <time>2025-12-11T15:42:11Z</time>
      </trkpt>
      <trkpt lat="45.71951" lon="4.6896">
        <ele>332.2</ele>
        <time>2025-12-11T15:42:12Z</time>
      </trkpt>
      <trkpt lat="45.7195" lon="4.68966">
        <ele>332</ele>
        <time>2025-12-11T15:42:13Z</time>
      </trkpt>
      <trkpt lat="45.71949" lon="4.68972">
        <ele>332</ele>
        <time>2025-12-11T15:42:14Z</time>
      </trkpt>
      <trkpt lat="45.71949" lon="4.68978">
        <ele>331.8</ele>
        <time>2025-12-11T15:42:15Z</time>
      </trkpt>
      <trkpt lat="45.71948" lon="4.68984">
        <ele>331.6</ele>
        <time>2025-12-11T15:42:16Z</time>
      </trkpt>
      <trkpt lat="45.71947" lon="4.6899">
        <ele>331.4</ele>
        <time>2025-12-11T15:42:17Z</time>
      </trkpt>
      <trkpt lat="45.71946" lon="4.68996">
        <ele>331.2</ele>
        <time>2025-12-11T15:42:18Z</time>
      </trkpt>
      <trkpt lat="45.71945" lon="4.69003">
        <ele>331</ele>
        <time>2025-12-11T15:42:19Z</time>
      </trkpt>
      <trkpt lat="45.71945" lon="4.69009">
        <ele>331</ele>
        <time>2025-12-11T15:42:20Z</time>
      </trkpt>
      <trkpt lat="45.71944" lon="4.69016">
        <ele>330.8</ele>
        <time>2025-12-11T15:42:21Z</time>
      </trkpt>
      <trkpt lat="45.71943" lon="4.69022">
        <ele>330.6</ele>
        <time>2025-12-11T15:42:22Z</time>
      </trkpt>
      <trkpt lat="45.71942" lon="4.69029">
        <ele>330.6</ele>
        <time>2025-12-11T15:42:23Z</time>
      </trkpt>
      <trkpt lat="45.71941" lon="4.69036">
        <ele>330.4</ele>
        <time>2025-12-11T15:42:24Z</time>
      </trkpt>
      <trkpt lat="45.7194" lon="4.69043">
        <ele>330.2</ele>
        <time>2025-12-11T15:42:25Z</time>
      </trkpt>
      <trkpt lat="45.71938" lon="4.6905">
        <ele>330.2</ele>
        <time>2025-12-11T15:42:26Z</time>
      </trkpt>
      <trkpt lat="45.71937" lon="4.69057">
        <ele>330</ele>
        <time>2025-12-11T15:42:27Z</time>
      </trkpt>
      <trkpt lat="45.71936" lon="4.69063">
        <ele>330</ele>
        <time>2025-12-11T15:42:28Z</time>
      </trkpt>
      <trkpt lat="45.71935" lon="4.6907">
        <ele>330</ele>
        <time>2025-12-11T15:42:29Z</time>
      </trkpt>
      <trkpt lat="45.71934" lon="4.69077">
        <ele>329.8</ele>
        <time>2025-12-11T15:42:30Z</time>
      </trkpt>
      <trkpt lat="45.71932" lon="4.69083">
        <ele>329.8</ele>
        <time>2025-12-11T15:42:31Z</time>
      </trkpt>
      <trkpt lat="45.7193" lon="4.6909">
        <ele>329.6</ele>
        <time>2025-12-11T15:42:32Z</time>
      </trkpt>
      <trkpt lat="45.71929" lon="4.69097">
        <ele>329.4</ele>
        <time>2025-12-11T15:42:33Z</time>
      </trkpt>
      <trkpt lat="45.71927" lon="4.69104">
        <ele>329.4</ele>
        <time>2025-12-11T15:42:34Z</time>
      </trkpt>
      <trkpt lat="45.71926" lon="4.69111">
        <ele>329.2</ele>
        <time>2025-12-11T15:42:35Z</time>
      </trkpt>
      <trkpt lat="45.71924" lon="4.69118">
        <ele>329.2</ele>
        <time>2025-12-11T15:42:36Z</time>
      </trkpt>
      <trkpt lat="45.71922" lon="4.69124">
        <ele>329.2</ele>
        <time>2025-12-11T15:42:37Z</time>
      </trkpt>
      <trkpt lat="45.71921" lon="4.69131">
        <ele>329</ele>
        <time>2025-12-11T15:42:38Z</time>
      </trkpt>
      <trkpt lat="45.7192" lon="4.69138">
        <ele>329</ele>
        <time>2025-12-11T15:42:39Z</time>
      </trkpt>
      <trkpt lat="45.71918" lon="4.69145">
        <ele>328.8</ele>
        <time>2025-12-11T15:42:40Z</time>
      </trkpt>
      <trkpt lat="45.71917" lon="4.69151">
        <ele>328.6</ele>
        <time>2025-12-11T15:42:41Z</time>
      </trkpt>
      <trkpt lat="45.71916" lon="4.69158">
        <ele>328.6</ele>
        <time>2025-12-11T15:42:42Z</time>
      </trkpt>
      <trkpt lat="45.71915" lon="4.69164">
        <ele>328.8</ele>
        <time>2025-12-11T15:42:43Z</time>
      </trkpt>
      <trkpt lat="45.71914" lon="4.6917">
        <ele>328.8</ele>
        <time>2025-12-11T15:42:44Z</time>
      </trkpt>
      <trkpt lat="45.71913" lon="4.69176">
        <ele>328.8</ele>
        <time>2025-12-11T15:42:45Z</time>
      </trkpt>
      <trkpt lat="45.71912" lon="4.69181">
        <ele>329</ele>
        <time>2025-12-11T15:42:46Z</time>
      </trkpt>
      <trkpt lat="45.71911" lon="4.69187">
        <ele>329</ele>
        <time>2025-12-11T15:42:47Z</time>
      </trkpt>
      <trkpt lat="45.71909" lon="4.69193">
        <ele>329</ele>
        <time>2025-12-11T15:42:48Z</time>
      </trkpt>
      <trkpt lat="45.71908" lon="4.69198">
        <ele>329</ele>
        <time>2025-12-11T15:42:49Z</time>
      </trkpt>
      <trkpt lat="45.71906" lon="4.69203">
        <ele>329</ele>
        <time>2025-12-11T15:42:50Z</time>
      </trkpt>
      <trkpt lat="45.71905" lon="4.69208">
        <ele>329</ele>
        <time>2025-12-11T15:42:51Z</time>
      </trkpt>
      <trkpt lat="45.71903" lon="4.69213">
        <ele>329</ele>
        <time>2025-12-11T15:42:52Z</time>
      </trkpt>
      <trkpt lat="45.71901" lon="4.69218">
        <ele>328.8</ele>
        <time>2025-12-11T15:42:53Z</time>
      </trkpt>
      <trkpt lat="45.71899" lon="4.69223">
        <ele>328.8</ele>
        <time>2025-12-11T15:42:54Z</time>
      </trkpt>
      <trkpt lat="45.71897" lon="4.69229">
        <ele>328.6</ele>
        <time>2025-12-11T15:42:55Z</time>
      </trkpt>
      <trkpt lat="45.71896" lon="4.69234">
        <ele>328.4</ele>
        <time>2025-12-11T15:42:56Z</time>
      </trkpt>
      <trkpt lat="45.71894" lon="4.69241">
        <ele>328.2</ele>
        <time>2025-12-11T15:42:57Z</time>
      </trkpt>
      <trkpt lat="45.71893" lon="4.69247">
        <ele>327.8</ele>
        <time>2025-12-11T15:42:58Z</time>
      </trkpt>
      <trkpt lat="45.71891" lon="4.69255">
        <ele>327.4</ele>
        <time>2025-12-11T15:42:59Z</time>
      </trkpt>
      <trkpt lat="45.7189" lon="4.69262">
        <ele>327</ele>
        <time>2025-12-11T15:43:00Z</time>
      </trkpt>
      <trkpt lat="45.71888" lon="4.69268">
        <ele>326.6</ele>
        <time>2025-12-11T15:43:01Z</time>
      </trkpt>
      <trkpt lat="45.71887" lon="4.69274">
        <ele>326.2</ele>
        <time>2025-12-11T15:43:02Z</time>
      </trkpt>
      <trkpt lat="45.71887" lon="4.69277">
        <ele>326.2</ele>
        <time>2025-12-11T15:43:03Z</time>
      </trkpt>
      <trkpt lat="45.71886" lon="4.6928">
        <ele>326.2</ele>
        <time>2025-12-11T15:43:04Z</time>
      </trkpt>
      <trkpt lat="45.71886" lon="4.69284">
        <ele>326</ele>
        <time>2025-12-11T15:43:05Z</time>
      </trkpt>
      <trkpt lat="45.71887" lon="4.69288">
        <ele>326</ele>
        <time>2025-12-11T15:43:06Z</time>
      </trkpt>
      <trkpt lat="45.7189" lon="4.69292">
        <ele>326</ele>
        <time>2025-12-11T15:43:07Z</time>
      </trkpt>
      <trkpt lat="45.71892" lon="4.69295">
        <ele>326</ele>
        <time>2025-12-11T15:43:08Z</time>
      </trkpt>
      <trkpt lat="45.71895" lon="4.69298">
        <ele>326</ele>
        <time>2025-12-11T15:43:09Z</time>
      </trkpt>
      <trkpt lat="45.71898" lon="4.69302">
        <ele>325.8</ele>
        <time>2025-12-11T15:43:10Z</time>
      </trkpt>
      <trkpt lat="45.71901" lon="4.69304">
        <ele>325.8</ele>
        <time>2025-12-11T15:43:11Z</time>
      </trkpt>
      <trkpt lat="45.71903" lon="4.69307">
        <ele>325.8</ele>
        <time>2025-12-11T15:43:12Z</time>
      </trkpt>
      <trkpt lat="45.71906" lon="4.6931">
        <ele>325.8</ele>
        <time>2025-12-11T15:43:13Z</time>
      </trkpt>
      <trkpt lat="45.71909" lon="4.69312">
        <ele>325.8</ele>
        <time>2025-12-11T15:43:14Z</time>
      </trkpt>
      <trkpt lat="45.71912" lon="4.69314">
        <ele>325.8</ele>
        <time>2025-12-11T15:43:15Z</time>
      </trkpt>
      <trkpt lat="45.71916" lon="4.69316">
        <ele>325.8</ele>
        <time>2025-12-11T15:43:16Z</time>
      </trkpt>
      <trkpt lat="45.71919" lon="4.69319">
        <ele>325.8</ele>
        <time>2025-12-11T15:43:17Z</time>
      </trkpt>
      <trkpt lat="45.71922" lon="4.69322">
        <ele>325.8</ele>
        <time>2025-12-11T15:43:18Z</time>
      </trkpt>
      <trkpt lat="45.71925" lon="4.69324">
        <ele>325.6</ele>
        <time>2025-12-11T15:43:19Z</time>
      </trkpt>
      <trkpt lat="45.71929" lon="4.69326">
        <ele>325.6</ele>
        <time>2025-12-11T15:43:20Z</time>
      </trkpt>
      <trkpt lat="45.71933" lon="4.69328">
        <ele>325.8</ele>
        <time>2025-12-11T15:43:21Z</time>
      </trkpt>
      <trkpt lat="45.71936" lon="4.69331">
        <ele>325.8</ele>
        <time>2025-12-11T15:43:22Z</time>
      </trkpt>
      <trkpt lat="45.71938" lon="4.69332">
        <ele>325.8</ele>
        <time>2025-12-11T15:43:23Z</time>
      </trkpt>
      <trkpt lat="45.71942" lon="4.69334">
        <ele>325.8</ele>
        <time>2025-12-11T15:43:24Z</time>
      </trkpt>
      <trkpt lat="45.71945" lon="4.69336">
        <ele>325.8</ele>
        <time>2025-12-11T15:43:25Z</time>
      </trkpt>
      <trkpt lat="45.71947" lon="4.69337">
        <ele>325.8</ele>
        <time>2025-12-11T15:43:26Z</time>
      </trkpt>
      <trkpt lat="45.7195" lon="4.69338">
        <ele>325.8</ele>
        <time>2025-12-11T15:43:27Z</time>
      </trkpt>
      <trkpt lat="45.71953" lon="4.69339">
        <ele>325.8</ele>
        <time>2025-12-11T15:43:28Z</time>
      </trkpt>
      <trkpt lat="45.71955" lon="4.6934">
        <ele>326</ele>
        <time>2025-12-11T15:43:29Z</time>
      </trkpt>
      <trkpt lat="45.71957" lon="4.69341">
        <ele>326</ele>
        <time>2025-12-11T15:43:30Z</time>
      </trkpt>
      <trkpt lat="45.71959" lon="4.69342">
        <ele>326</ele>
        <time>2025-12-11T15:43:31Z</time>
      </trkpt>
      <trkpt lat="45.7196" lon="4.69343">
        <ele>326</ele>
        <time>2025-12-11T15:43:32Z</time>
      </trkpt>
      <trkpt lat="45.7196" lon="4.69343">
        <ele>326</ele>
        <time>2025-12-11T15:43:33Z</time>
      </trkpt>
      <trkpt lat="45.7196" lon="4.69343">
        <ele>326</ele>
        <time>2025-12-11T15:43:34Z</time>
      </trkpt>
      <trkpt lat="45.7196" lon="4.69343">
        <ele>326</ele>
        <time>2025-12-11T15:43:35Z</time>
      </trkpt>
      <trkpt lat="45.7196" lon="4.69343">
        <ele>326</ele>
        <time>2025-12-11T15:43:36Z</time>
      </trkpt>
      <trkpt lat="45.7196" lon="4.69343">
        <ele>326.2</ele>
        <time>2025-12-11T15:43:37Z</time>
      </trkpt>
      <trkpt lat="45.7196" lon="4.69343">
        <ele>326.2</ele>
        <time>2025-12-11T15:43:38Z</time>
      </trkpt>
      <trkpt lat="45.7196" lon="4.69343">
        <ele>326.2</ele>
        <time>2025-12-11T15:43:39Z</time>
      </trkpt>
      <trkpt lat="45.7196" lon="4.69343">
        <ele>326</ele>
        <time>2025-12-11T15:43:40Z</time>
      </trkpt>
      <trkpt lat="45.7196" lon="4.69343">
        <ele>326</ele>
        <time>2025-12-11T15:43:41Z</time>
      </trkpt>
      <trkpt lat="45.7196" lon="4.69343">
        <ele>326</ele>
        <time>2025-12-11T15:43:42Z</time>
      </trkpt>
      <trkpt lat="45.7196" lon="4.69343">
        <ele>326</ele>
        <time>2025-12-11T15:43:43Z</time>
      </trkpt>
      <trkpt lat="45.7196" lon="4.69343">
        <ele>326</ele>
        <time>2025-12-11T15:43:44Z</time>
      </trkpt>
      <trkpt lat="45.7196" lon="4.69343">
        <ele>326</ele>
        <time>2025-12-11T15:43:45Z</time>
      </trkpt>
      <trkpt lat="45.7196" lon="4.69343">
        <ele>326</ele>
        <time>2025-12-11T15:43:46Z</time>
      </trkpt>
      <trkpt lat="45.7196" lon="4.69343">
        <ele>326</ele>
        <time>2025-12-11T15:43:47Z</time>
      </trkpt>
      <trkpt lat="45.7196" lon="4.69343">
        <ele>326</ele>
        <time>2025-12-11T15:43:48Z</time>
      </trkpt>
      <trkpt lat="45.7196" lon="4.69343">
        <ele>326</ele>
        <time>2025-12-11T15:43:49Z</time>
      </trkpt>
      <trkpt lat="45.7196" lon="4.69343">
        <ele>326</ele>
        <time>2025-12-11T15:43:50Z</time>
      </trkpt>
      <trkpt lat="45.7196" lon="4.69343">
        <ele>326</ele>
        <time>2025-12-11T15:43:51Z</time>
      </trkpt>
      <trkpt lat="45.7196" lon="4.69343">
        <ele>326</ele>
        <time>2025-12-11T15:43:52Z</time>
      </trkpt>
      <trkpt lat="45.7196" lon="4.69343">
        <ele>326</ele>
        <time>2025-12-11T15:43:53Z</time>
      </trkpt>
      <trkpt lat="45.7196" lon="4.69343">
        <ele>326</ele>
        <time>2025-12-11T15:43:54Z</time>
      </trkpt>
      <trkpt lat="45.7196" lon="4.69343">
        <ele>326</ele>
        <time>2025-12-11T15:43:55Z</time>
      </trkpt>
      <trkpt lat="45.71961" lon="4.69343">
        <ele>326.2</ele>
        <time>2025-12-11T15:43:56Z</time>
      </trkpt>
      <trkpt lat="45.71962" lon="4.69344">
        <ele>326.2</ele>
        <time>2025-12-11T15:43:57Z</time>
      </trkpt>
      <trkpt lat="45.71963" lon="4.69345">
        <ele>326.2</ele>
        <time>2025-12-11T15:43:58Z</time>
      </trkpt>
      <trkpt lat="45.71964" lon="4.69347">
        <ele>326</ele>
        <time>2025-12-11T15:43:59Z</time>
      </trkpt>
      <trkpt lat="45.71966" lon="4.69349">
        <ele>326</ele>
        <time>2025-12-11T15:44:00Z</time>
      </trkpt>
      <trkpt lat="45.71969" lon="4.69351">
        <ele>325.8</ele>
        <time>2025-12-11T15:44:01Z</time>
      </trkpt>
      <trkpt lat="45.71973" lon="4.69353">
        <ele>325.6</ele>
        <time>2025-12-11T15:44:02Z</time>
      </trkpt>
      <trkpt lat="45.71976" lon="4.69355">
        <ele>325.4</ele>
        <time>2025-12-11T15:44:03Z</time>
      </trkpt>
      <trkpt lat="45.7198" lon="4.69357">
        <ele>325.4</ele>
        <time>2025-12-11T15:44:04Z</time>
      </trkpt>
      <trkpt lat="45.71984" lon="4.69359">
        <ele>325.2</ele>
        <time>2025-12-11T15:44:05Z</time>
      </trkpt>
      <trkpt lat="45.71988" lon="4.69362">
        <ele>325</ele>
        <time>2025-12-11T15:44:06Z</time>
      </trkpt>
      <trkpt lat="45.71992" lon="4.69364">
        <ele>324.8</ele>
        <time>2025-12-11T15:44:07Z</time>
      </trkpt>
      <trkpt lat="45.71996" lon="4.69366">
        <ele>324.8</ele>
        <time>2025-12-11T15:44:08Z</time>
      </trkpt>
      <trkpt lat="45.72" lon="4.69367">
        <ele>324.6</ele>
        <time>2025-12-11T15:44:09Z</time>
      </trkpt>
      <trkpt lat="45.72004" lon="4.69369">
        <ele>324.6</ele>
        <time>2025-12-11T15:44:10Z</time>
      </trkpt>
      <trkpt lat="45.72008" lon="4.6937">
        <ele>324.6</ele>
        <time>2025-12-11T15:44:11Z</time>
      </trkpt>
      <trkpt lat="45.72012" lon="4.69371">
        <ele>324.6</ele>
        <time>2025-12-11T15:44:12Z</time>
      </trkpt>
      <trkpt lat="45.72016" lon="4.69372">
        <ele>324.8</ele>
        <time>2025-12-11T15:44:13Z</time>
      </trkpt>
      <trkpt lat="45.7202" lon="4.69373">
        <ele>324.8</ele>
        <time>2025-12-11T15:44:14Z</time>
      </trkpt>
      <trkpt lat="45.72024" lon="4.69373">
        <ele>325</ele>
        <time>2025-12-11T15:44:15Z</time>
      </trkpt>
      <trkpt lat="45.72028" lon="4.69373">
        <ele>325.2</ele>
        <time>2025-12-11T15:44:16Z</time>
      </trkpt>
      <trkpt lat="45.72031" lon="4.69373">
        <ele>325.4</ele>
        <time>2025-12-11T15:44:17Z</time>
      </trkpt>
      <trkpt lat="45.72034" lon="4.69373">
        <ele>325.6</ele>
        <time>2025-12-11T15:44:18Z</time>
      </trkpt>
      <trkpt lat="45.72037" lon="4.69374">
        <ele>325.6</ele>
        <time>2025-12-11T15:44:19Z</time>
      </trkpt>
      <trkpt lat="45.7204" lon="4.69375">
        <ele>325.8</ele>
        <time>2025-12-11T15:44:20Z</time>
      </trkpt>
      <trkpt lat="45.72042" lon="4.69376">
        <ele>326</ele>
        <time>2025-12-11T15:44:21Z</time>
      </trkpt>
      <trkpt lat="45.72044" lon="4.69379">
        <ele>326</ele>
        <time>2025-12-11T15:44:22Z</time>
      </trkpt>
      <trkpt lat="45.72045" lon="4.69383">
        <ele>326</ele>
        <time>2025-12-11T15:44:23Z</time>
      </trkpt>
      <trkpt lat="45.72046" lon="4.69387">
        <ele>326</ele>
        <time>2025-12-11T15:44:24Z</time>
      </trkpt>
      <trkpt lat="45.72045" lon="4.69392">
        <ele>326</ele>
        <time>2025-12-11T15:44:25Z</time>
      </trkpt>
      <trkpt lat="45.72045" lon="4.69397">
        <ele>326</ele>
        <time>2025-12-11T15:44:26Z</time>
      </trkpt>
      <trkpt lat="45.72046" lon="4.69402">
        <ele>325.8</ele>
        <time>2025-12-11T15:44:27Z</time>
      </trkpt>
      <trkpt lat="45.72047" lon="4.69408">
        <ele>325.8</ele>
        <time>2025-12-11T15:44:28Z</time>
      </trkpt>
      <trkpt lat="45.72047" lon="4.69413">
        <ele>325.6</ele>
        <time>2025-12-11T15:44:29Z</time>
      </trkpt>
      <trkpt lat="45.72047" lon="4.69419">
        <ele>325.4</ele>
        <time>2025-12-11T15:44:30Z</time>
      </trkpt>
      <trkpt lat="45.72049" lon="4.69425">
        <ele>325.2</ele>
        <time>2025-12-11T15:44:31Z</time>
      </trkpt>
      <trkpt lat="45.7205" lon="4.6943">
        <ele>325</ele>
        <time>2025-12-11T15:44:32Z</time>
      </trkpt>
      <trkpt lat="45.72051" lon="4.69436">
        <ele>324.8</ele>
        <time>2025-12-11T15:44:33Z</time>
      </trkpt>
      <trkpt lat="45.72053" lon="4.69442">
        <ele>324.6</ele>
        <time>2025-12-11T15:44:34Z</time>
      </trkpt>
      <trkpt lat="45.72055" lon="4.69447">
        <ele>324.4</ele>
        <time>2025-12-11T15:44:35Z</time>
      </trkpt>
      <trkpt lat="45.72058" lon="4.69452">
        <ele>324.2</ele>
        <time>2025-12-11T15:44:36Z</time>
      </trkpt>
      <trkpt lat="45.7206" lon="4.69457">
        <ele>324</ele>
        <time>2025-12-11T15:44:37Z</time>
      </trkpt>
      <trkpt lat="45.72063" lon="4.69463">
        <ele>323.8</ele>
        <time>2025-12-11T15:44:38Z</time>
      </trkpt>
      <trkpt lat="45.72064" lon="4.6947">
        <ele>323.8</ele>
        <time>2025-12-11T15:44:39Z</time>
      </trkpt>
      <trkpt lat="45.72066" lon="4.69477">
        <ele>323.6</ele>
        <time>2025-12-11T15:44:40Z</time>
      </trkpt>
      <trkpt lat="45.72068" lon="4.69484">
        <ele>323.2</ele>
        <time>2025-12-11T15:44:41Z</time>
      </trkpt>
      <trkpt lat="45.7207" lon="4.69492">
        <ele>322.8</ele>
        <time>2025-12-11T15:44:42Z</time>
      </trkpt>
      <trkpt lat="45.72073" lon="4.695">
        <ele>322.2</ele>
        <time>2025-12-11T15:44:43Z</time>
      </trkpt>
      <trkpt lat="45.72077" lon="4.69508">
        <ele>321.6</ele>
        <time>2025-12-11T15:44:44Z</time>
      </trkpt>
      <trkpt lat="45.72082" lon="4.69516">
        <ele>320.8</ele>
        <time>2025-12-11T15:44:45Z</time>
      </trkpt>
      <trkpt lat="45.72087" lon="4.69524">
        <ele>320</ele>
        <time>2025-12-11T15:44:46Z</time>
      </trkpt>
      <trkpt lat="45.72092" lon="4.69532">
        <ele>319.4</ele>
        <time>2025-12-11T15:44:47Z</time>
      </trkpt>
      <trkpt lat="45.72096" lon="4.69539">
        <ele>318.6</ele>
        <time>2025-12-11T15:44:48Z</time>
      </trkpt>
      <trkpt lat="45.72101" lon="4.69546">
        <ele>317.8</ele>
        <time>2025-12-11T15:44:49Z</time>
      </trkpt>
      <trkpt lat="45.72105" lon="4.69553">
        <ele>317.2</ele>
        <time>2025-12-11T15:44:50Z</time>
      </trkpt>
      <trkpt lat="45.72109" lon="4.69559">
        <ele>316.6</ele>
        <time>2025-12-11T15:44:51Z</time>
      </trkpt>
      <trkpt lat="45.72112" lon="4.69566">
        <ele>316.4</ele>
        <time>2025-12-11T15:44:52Z</time>
      </trkpt>
      <trkpt lat="45.72116" lon="4.69573">
        <ele>315.8</ele>
        <time>2025-12-11T15:44:53Z</time>
      </trkpt>
      <trkpt lat="45.7212" lon="4.69582">
        <ele>314.8</ele>
        <time>2025-12-11T15:44:54Z</time>
      </trkpt>
      <trkpt lat="45.72123" lon="4.69591">
        <ele>313.6</ele>
        <time>2025-12-11T15:44:55Z</time>
      </trkpt>
      <trkpt lat="45.72127" lon="4.696">
        <ele>312.4</ele>
        <time>2025-12-11T15:44:56Z</time>
      </trkpt>
      <trkpt lat="45.72131" lon="4.69611">
        <ele>311.8</ele>
        <time>2025-12-11T15:44:57Z</time>
      </trkpt>
      <trkpt lat="45.72136" lon="4.69621">
        <ele>311.4</ele>
        <time>2025-12-11T15:44:58Z</time>
      </trkpt>
      <trkpt lat="45.7214" lon="4.69631">
        <ele>310.6</ele>
        <time>2025-12-11T15:44:59Z</time>
      </trkpt>
      <trkpt lat="45.72144" lon="4.69641">
        <ele>310</ele>
        <time>2025-12-11T15:45:00Z</time>
      </trkpt>
      <trkpt lat="45.72148" lon="4.69651">
        <ele>309.4</ele>
        <time>2025-12-11T15:45:01Z</time>
      </trkpt>
      <trkpt lat="45.72152" lon="4.69661">
        <ele>308.8</ele>
        <time>2025-12-11T15:45:02Z</time>
      </trkpt>
      <trkpt lat="45.72156" lon="4.6967">
        <ele>308</ele>
        <time>2025-12-11T15:45:03Z</time>
      </trkpt>
      <trkpt lat="45.7216" lon="4.6968">
        <ele>307.4</ele>
        <time>2025-12-11T15:45:04Z</time>
      </trkpt>
      <trkpt lat="45.72164" lon="4.69689">
        <ele>306.6</ele>
        <time>2025-12-11T15:45:05Z</time>
      </trkpt>
      <trkpt lat="45.72168" lon="4.69699">
        <ele>306</ele>
        <time>2025-12-11T15:45:06Z</time>
      </trkpt>
      <trkpt lat="45.72172" lon="4.69709">
        <ele>305.4</ele>
        <time>2025-12-11T15:45:07Z</time>
      </trkpt>
      <trkpt lat="45.72176" lon="4.69718">
        <ele>304.8</ele>
        <time>2025-12-11T15:45:08Z</time>
      </trkpt>
      <trkpt lat="45.72179" lon="4.69727">
        <ele>304.4</ele>
        <time>2025-12-11T15:45:09Z</time>
      </trkpt>
      <trkpt lat="45.72183" lon="4.69735">
        <ele>303.8</ele>
        <time>2025-12-11T15:45:10Z</time>
      </trkpt>
      <trkpt lat="45.72186" lon="4.69743">
        <ele>303.4</ele>
        <time>2025-12-11T15:45:11Z</time>
      </trkpt>
      <trkpt lat="45.72189" lon="4.6975">
        <ele>303.2</ele>
        <time>2025-12-11T15:45:12Z</time>
      </trkpt>
      <trkpt lat="45.72192" lon="4.69757">
        <ele>303</ele>
        <time>2025-12-11T15:45:13Z</time>
      </trkpt>
      <trkpt lat="45.72194" lon="4.69763">
        <ele>302.8</ele>
        <time>2025-12-11T15:45:14Z</time>
      </trkpt>
      <trkpt lat="45.72195" lon="4.69769">
        <ele>302.8</ele>
        <time>2025-12-11T15:45:15Z</time>
      </trkpt>
      <trkpt lat="45.72196" lon="4.69774">
        <ele>302.8</ele>
        <time>2025-12-11T15:45:16Z</time>
      </trkpt>
      <trkpt lat="45.72196" lon="4.69777">
        <ele>302.6</ele>
        <time>2025-12-11T15:45:17Z</time>
      </trkpt>
      <trkpt lat="45.72196" lon="4.6978">
        <ele>302.6</ele>
        <time>2025-12-11T15:45:18Z</time>
      </trkpt>
      <trkpt lat="45.72196" lon="4.69783">
        <ele>302.6</ele>
        <time>2025-12-11T15:45:19Z</time>
      </trkpt>
      <trkpt lat="45.72196" lon="4.69787">
        <ele>302.6</ele>
        <time>2025-12-11T15:45:20Z</time>
      </trkpt>
      <trkpt lat="45.72195" lon="4.69791">
        <ele>302.6</ele>
        <time>2025-12-11T15:45:21Z</time>
      </trkpt>
      <trkpt lat="45.72193" lon="4.69794">
        <ele>302.4</ele>
        <time>2025-12-11T15:45:22Z</time>
      </trkpt>
      <trkpt lat="45.7219" lon="4.69797">
        <ele>302.4</ele>
        <time>2025-12-11T15:45:23Z</time>
      </trkpt>
      <trkpt lat="45.72187" lon="4.69801">
        <ele>302.4</ele>
        <time>2025-12-11T15:45:24Z</time>
      </trkpt>
      <trkpt lat="45.72185" lon="4.69805">
        <ele>302.4</ele>
        <time>2025-12-11T15:45:25Z</time>
      </trkpt>
      <trkpt lat="45.72183" lon="4.6981">
        <ele>302.4</ele>
        <time>2025-12-11T15:45:26Z</time>
      </trkpt>
      <trkpt lat="45.72182" lon="4.69816">
        <ele>302.4</ele>
        <time>2025-12-11T15:45:27Z</time>
      </trkpt>
      <trkpt lat="45.72182" lon="4.69821">
        <ele>302.4</ele>
        <time>2025-12-11T15:45:28Z</time>
      </trkpt>
      <trkpt lat="45.72182" lon="4.69827">
        <ele>302.4</ele>
        <time>2025-12-11T15:45:29Z</time>
      </trkpt>
      <trkpt lat="45.72184" lon="4.69833">
        <ele>302.4</ele>
        <time>2025-12-11T15:45:30Z</time>
      </trkpt>
      <trkpt lat="45.72187" lon="4.69839">
        <ele>302.4</ele>
        <time>2025-12-11T15:45:31Z</time>
      </trkpt>
      <trkpt lat="45.7219" lon="4.69844">
        <ele>302.2</ele>
        <time>2025-12-11T15:45:32Z</time>
      </trkpt>
      <trkpt lat="45.72194" lon="4.69847">
        <ele>302.2</ele>
        <time>2025-12-11T15:45:33Z</time>
      </trkpt>
      <trkpt lat="45.72198" lon="4.6985">
        <ele>302</ele>
        <time>2025-12-11T15:45:34Z</time>
      </trkpt>
      <trkpt lat="45.72202" lon="4.69853">
        <ele>301.8</ele>
        <time>2025-12-11T15:45:35Z</time>
      </trkpt>
      <trkpt lat="45.72207" lon="4.69856">
        <ele>301.8</ele>
        <time>2025-12-11T15:45:36Z</time>
      </trkpt>
      <trkpt lat="45.72211" lon="4.6986">
        <ele>301.6</ele>
        <time>2025-12-11T15:45:37Z</time>
      </trkpt>
      <trkpt lat="45.72215" lon="4.69864">
        <ele>301.4</ele>
        <time>2025-12-11T15:45:38Z</time>
      </trkpt>
      <trkpt lat="45.72219" lon="4.69872">
        <ele>301</ele>
        <time>2025-12-11T15:45:39Z</time>
      </trkpt>
      <trkpt lat="45.7222" lon="4.69881">
        <ele>300.4</ele>
        <time>2025-12-11T15:45:40Z</time>
      </trkpt>
      <trkpt lat="45.72219" lon="4.69891">
        <ele>299.6</ele>
        <time>2025-12-11T15:45:41Z</time>
      </trkpt>
      <trkpt lat="45.72217" lon="4.69902">
        <ele>298.8</ele>
        <time>2025-12-11T15:45:42Z</time>
      </trkpt>
      <trkpt lat="45.72214" lon="4.69913">
        <ele>298</ele>
        <time>2025-12-11T15:45:43Z</time>
      </trkpt>
      <trkpt lat="45.72211" lon="4.69924">
        <ele>297.2</ele>
        <time>2025-12-11T15:45:44Z</time>
      </trkpt>
      <trkpt lat="45.72208" lon="4.69935">
        <ele>296.4</ele>
        <time>2025-12-11T15:45:45Z</time>
      </trkpt>
      <trkpt lat="45.72205" lon="4.69946">
        <ele>295.8</ele>
        <time>2025-12-11T15:45:46Z</time>
      </trkpt>
      <trkpt lat="45.72203" lon="4.69957">
        <ele>295</ele>
        <time>2025-12-11T15:45:47Z</time>
      </trkpt>
      <trkpt lat="45.722" lon="4.69969">
        <ele>294.6</ele>
        <time>2025-12-11T15:45:48Z</time>
      </trkpt>
      <trkpt lat="45.72197" lon="4.6998">
        <ele>294</ele>
        <time>2025-12-11T15:45:49Z</time>
      </trkpt>
      <trkpt lat="45.72195" lon="4.69992">
        <ele>293.6</ele>
        <time>2025-12-11T15:45:50Z</time>
      </trkpt>
      <trkpt lat="45.72192" lon="4.70003">
        <ele>293.2</ele>
        <time>2025-12-11T15:45:51Z</time>
      </trkpt>
      <trkpt lat="45.7219" lon="4.70014">
        <ele>292.8</ele>
        <time>2025-12-11T15:45:52Z</time>
      </trkpt>
      <trkpt lat="45.72188" lon="4.70025">
        <ele>292.6</ele>
        <time>2025-12-11T15:45:53Z</time>
      </trkpt>
      <trkpt lat="45.72185" lon="4.70037">
        <ele>292.4</ele>
        <time>2025-12-11T15:45:54Z</time>
      </trkpt>
      <trkpt lat="45.72182" lon="4.70048">
        <ele>292.4</ele>
        <time>2025-12-11T15:45:55Z</time>
      </trkpt>
      <trkpt lat="45.7218" lon="4.70059">
        <ele>292.2</ele>
        <time>2025-12-11T15:45:56Z</time>
      </trkpt>
      <trkpt lat="45.72178" lon="4.70071">
        <ele>292</ele>
        <time>2025-12-11T15:45:57Z</time>
      </trkpt>
      <trkpt lat="45.72176" lon="4.70082">
        <ele>292</ele>
        <time>2025-12-11T15:45:58Z</time>
      </trkpt>
      <trkpt lat="45.72173" lon="4.70094">
        <ele>291.8</ele>
        <time>2025-12-11T15:45:59Z</time>
      </trkpt>
      <trkpt lat="45.72171" lon="4.70105">
        <ele>291.4</ele>
        <time>2025-12-11T15:46:00Z</time>
      </trkpt>
      <trkpt lat="45.72169" lon="4.70116">
        <ele>291.2</ele>
        <time>2025-12-11T15:46:01Z</time>
      </trkpt>
      <trkpt lat="45.72167" lon="4.70128">
        <ele>291.2</ele>
        <time>2025-12-11T15:46:02Z</time>
      </trkpt>
      <trkpt lat="45.72165" lon="4.70139">
        <ele>291</ele>
        <time>2025-12-11T15:46:03Z</time>
      </trkpt>
      <trkpt lat="45.72162" lon="4.7015">
        <ele>290.8</ele>
        <time>2025-12-11T15:46:04Z</time>
      </trkpt>
      <trkpt lat="45.7216" lon="4.70161">
        <ele>290.8</ele>
        <time>2025-12-11T15:46:05Z</time>
      </trkpt>
      <trkpt lat="45.72159" lon="4.70173">
        <ele>290.6</ele>
        <time>2025-12-11T15:46:06Z</time>
      </trkpt>
      <trkpt lat="45.72157" lon="4.70184">
        <ele>290.6</ele>
        <time>2025-12-11T15:46:07Z</time>
      </trkpt>
      <trkpt lat="45.72155" lon="4.70195">
        <ele>290.4</ele>
        <time>2025-12-11T15:46:08Z</time>
      </trkpt>
      <trkpt lat="45.72153" lon="4.70205">
        <ele>290.4</ele>
        <time>2025-12-11T15:46:09Z</time>
      </trkpt>
      <trkpt lat="45.72151" lon="4.70216">
        <ele>290.4</ele>
        <time>2025-12-11T15:46:10Z</time>
      </trkpt>
      <trkpt lat="45.72148" lon="4.70226">
        <ele>290.2</ele>
        <time>2025-12-11T15:46:11Z</time>
      </trkpt>
      <trkpt lat="45.72146" lon="4.70236">
        <ele>290.2</ele>
        <time>2025-12-11T15:46:12Z</time>
      </trkpt>
      <trkpt lat="45.72144" lon="4.70246">
        <ele>290</ele>
        <time>2025-12-11T15:46:13Z</time>
      </trkpt>
      <trkpt lat="45.72142" lon="4.70256">
        <ele>290</ele>
        <time>2025-12-11T15:46:14Z</time>
      </trkpt>
      <trkpt lat="45.7214" lon="4.70266">
        <ele>289.8</ele>
        <time>2025-12-11T15:46:15Z</time>
      </trkpt>
      <trkpt lat="45.72139" lon="4.70276">
        <ele>289.6</ele>
        <time>2025-12-11T15:46:16Z</time>
      </trkpt>
      <trkpt lat="45.72137" lon="4.70286">
        <ele>289.4</ele>
        <time>2025-12-11T15:46:17Z</time>
      </trkpt>
      <trkpt lat="45.72135" lon="4.70295">
        <ele>289.4</ele>
        <time>2025-12-11T15:46:18Z</time>
      </trkpt>
      <trkpt lat="45.72133" lon="4.70305">
        <ele>289.2</ele>
        <time>2025-12-11T15:46:19Z</time>
      </trkpt>
      <trkpt lat="45.72131" lon="4.70314">
        <ele>289</ele>
        <time>2025-12-11T15:46:20Z</time>
      </trkpt>
      <trkpt lat="45.72129" lon="4.70323">
        <ele>289</ele>
        <time>2025-12-11T15:46:21Z</time>
      </trkpt>
      <trkpt lat="45.72127" lon="4.70333">
        <ele>288.8</ele>
        <time>2025-12-11T15:46:22Z</time>
      </trkpt>
      <trkpt lat="45.72125" lon="4.70342">
        <ele>288.6</ele>
        <time>2025-12-11T15:46:23Z</time>
      </trkpt>
      <trkpt lat="45.72123" lon="4.70351">
        <ele>288.4</ele>
        <time>2025-12-11T15:46:24Z</time>
      </trkpt>
      <trkpt lat="45.7212" lon="4.7036">
        <ele>288.2</ele>
        <time>2025-12-11T15:46:25Z</time>
      </trkpt>
      <trkpt lat="45.72118" lon="4.7037">
        <ele>288</ele>
        <time>2025-12-11T15:46:26Z</time>
      </trkpt>
      <trkpt lat="45.72116" lon="4.70379">
        <ele>287.6</ele>
        <time>2025-12-11T15:46:27Z</time>
      </trkpt>
      <trkpt lat="45.72115" lon="4.70389">
        <ele>287.4</ele>
        <time>2025-12-11T15:46:28Z</time>
      </trkpt>
      <trkpt lat="45.72113" lon="4.70399">
        <ele>287.2</ele>
        <time>2025-12-11T15:46:29Z</time>
      </trkpt>
      <trkpt lat="45.72111" lon="4.70409">
        <ele>287</ele>
        <time>2025-12-11T15:46:30Z</time>
      </trkpt>
      <trkpt lat="45.72109" lon="4.70419">
        <ele>286.6</ele>
        <time>2025-12-11T15:46:31Z</time>
      </trkpt>
      <trkpt lat="45.72107" lon="4.70429">
        <ele>286.4</ele>
        <time>2025-12-11T15:46:32Z</time>
      </trkpt>
      <trkpt lat="45.72104" lon="4.70438">
        <ele>286.2</ele>
        <time>2025-12-11T15:46:33Z</time>
      </trkpt>
      <trkpt lat="45.72102" lon="4.70448">
        <ele>286</ele>
        <time>2025-12-11T15:46:34Z</time>
      </trkpt>
      <trkpt lat="45.721" lon="4.70458">
        <ele>285.6</ele>
        <time>2025-12-11T15:46:35Z</time>
      </trkpt>
      <trkpt lat="45.72098" lon="4.70469">
        <ele>285.6</ele>
        <time>2025-12-11T15:46:36Z</time>
      </trkpt>
      <trkpt lat="45.72096" lon="4.70479">
        <ele>285.4</ele>
        <time>2025-12-11T15:46:37Z</time>
      </trkpt>
      <trkpt lat="45.72094" lon="4.70489">
        <ele>285.2</ele>
        <time>2025-12-11T15:46:38Z</time>
      </trkpt>
      <trkpt lat="45.72093" lon="4.70499">
        <ele>285</ele>
        <time>2025-12-11T15:46:39Z</time>
      </trkpt>
      <trkpt lat="45.7209" lon="4.70509">
        <ele>285</ele>
        <time>2025-12-11T15:46:40Z</time>
      </trkpt>
      <trkpt lat="45.72088" lon="4.7052">
        <ele>284.8</ele>
        <time>2025-12-11T15:46:41Z</time>
      </trkpt>
      <trkpt lat="45.72085" lon="4.7053">
        <ele>284.8</ele>
        <time>2025-12-11T15:46:42Z</time>
      </trkpt>
      <trkpt lat="45.72082" lon="4.70539">
        <ele>284.8</ele>
        <time>2025-12-11T15:46:43Z</time>
      </trkpt>
      <trkpt lat="45.72079" lon="4.70549">
        <ele>284.8</ele>
        <time>2025-12-11T15:46:44Z</time>
      </trkpt>
      <trkpt lat="45.72075" lon="4.70558">
        <ele>284.8</ele>
        <time>2025-12-11T15:46:45Z</time>
      </trkpt>
      <trkpt lat="45.7207" lon="4.70566">
        <ele>284.6</ele>
        <time>2025-12-11T15:46:46Z</time>
      </trkpt>
      <trkpt lat="45.72066" lon="4.70574">
        <ele>284.6</ele>
        <time>2025-12-11T15:46:47Z</time>
      </trkpt>
      <trkpt lat="45.72061" lon="4.70582">
        <ele>284.4</ele>
        <time>2025-12-11T15:46:48Z</time>
      </trkpt>
      <trkpt lat="45.72056" lon="4.70589">
        <ele>284.2</ele>
        <time>2025-12-11T15:46:49Z</time>
      </trkpt>
      <trkpt lat="45.72052" lon="4.70596">
        <ele>284.2</ele>
        <time>2025-12-11T15:46:50Z</time>
      </trkpt>
      <trkpt lat="45.72048" lon="4.70604">
        <ele>284</ele>
        <time>2025-12-11T15:46:51Z</time>
      </trkpt>
      <trkpt lat="45.72044" lon="4.70612">
        <ele>284</ele>
        <time>2025-12-11T15:46:52Z</time>
      </trkpt>
      <trkpt lat="45.72041" lon="4.7062">
        <ele>283.8</ele>
        <time>2025-12-11T15:46:53Z</time>
      </trkpt>
      <trkpt lat="45.72038" lon="4.70629">
        <ele>283.8</ele>
        <time>2025-12-11T15:46:54Z</time>
      </trkpt>
      <trkpt lat="45.72036" lon="4.70637">
        <ele>283.6</ele>
        <time>2025-12-11T15:46:55Z</time>
      </trkpt>
      <trkpt lat="45.72034" lon="4.70646">
        <ele>283.8</ele>
        <time>2025-12-11T15:46:56Z</time>
      </trkpt>
      <trkpt lat="45.72033" lon="4.70655">
        <ele>283.8</ele>
        <time>2025-12-11T15:46:57Z</time>
      </trkpt>
      <trkpt lat="45.72032" lon="4.70664">
        <ele>283.8</ele>
        <time>2025-12-11T15:46:58Z</time>
      </trkpt>
      <trkpt lat="45.72032" lon="4.70673">
        <ele>284</ele>
        <time>2025-12-11T15:46:59Z</time>
      </trkpt>
      <trkpt lat="45.72032" lon="4.70682">
        <ele>284</ele>
        <time>2025-12-11T15:47:00Z</time>
      </trkpt>
      <trkpt lat="45.72032" lon="4.70692">
        <ele>284</ele>
        <time>2025-12-11T15:47:01Z</time>
      </trkpt>
      <trkpt lat="45.72032" lon="4.70701">
        <ele>284</ele>
        <time>2025-12-11T15:47:02Z</time>
      </trkpt>
      <trkpt lat="45.72032" lon="4.70711">
        <ele>284</ele>
        <time>2025-12-11T15:47:03Z</time>
      </trkpt>
      <trkpt lat="45.72031" lon="4.70721">
        <ele>283.8</ele>
        <time>2025-12-11T15:47:04Z</time>
      </trkpt>
      <trkpt lat="45.72031" lon="4.7073">
        <ele>283.8</ele>
        <time>2025-12-11T15:47:05Z</time>
      </trkpt>
      <trkpt lat="45.72031" lon="4.7074">
        <ele>283.6</ele>
        <time>2025-12-11T15:47:06Z</time>
      </trkpt>
      <trkpt lat="45.7203" lon="4.70749">
        <ele>283.6</ele>
        <time>2025-12-11T15:47:07Z</time>
      </trkpt>
      <trkpt lat="45.7203" lon="4.70759">
        <ele>283.6</ele>
        <time>2025-12-11T15:47:08Z</time>
      </trkpt>
      <trkpt lat="45.7203" lon="4.70769">
        <ele>283.4</ele>
        <time>2025-12-11T15:47:09Z</time>
      </trkpt>
      <trkpt lat="45.72029" lon="4.70778">
        <ele>283.4</ele>
        <time>2025-12-11T15:47:10Z</time>
      </trkpt>
      <trkpt lat="45.72029" lon="4.70788">
        <ele>283.4</ele>
        <time>2025-12-11T15:47:11Z</time>
      </trkpt>
      <trkpt lat="45.72028" lon="4.70797">
        <ele>283.4</ele>
        <time>2025-12-11T15:47:12Z</time>
      </trkpt>
      <trkpt lat="45.72027" lon="4.70807">
        <ele>283.2</ele>
        <time>2025-12-11T15:47:13Z</time>
      </trkpt>
      <trkpt lat="45.72026" lon="4.70816">
        <ele>283.2</ele>
        <time>2025-12-11T15:47:14Z</time>
      </trkpt>
      <trkpt lat="45.72025" lon="4.70826">
        <ele>283</ele>
        <time>2025-12-11T15:47:15Z</time>
      </trkpt>
      <trkpt lat="45.72024" lon="4.70835">
        <ele>283</ele>
        <time>2025-12-11T15:47:16Z</time>
      </trkpt>
      <trkpt lat="45.72023" lon="4.70844">
        <ele>282.8</ele>
        <time>2025-12-11T15:47:17Z</time>
      </trkpt>
      <trkpt lat="45.72021" lon="4.70853">
        <ele>282.8</ele>
        <time>2025-12-11T15:47:18Z</time>
      </trkpt>
      <trkpt lat="45.7202" lon="4.70862">
        <ele>282.8</ele>
        <time>2025-12-11T15:47:19Z</time>
      </trkpt>
      <trkpt lat="45.72018" lon="4.70871">
        <ele>282.8</ele>
        <time>2025-12-11T15:47:20Z</time>
      </trkpt>
      <trkpt lat="45.72017" lon="4.7088">
        <ele>283</ele>
        <time>2025-12-11T15:47:21Z</time>
      </trkpt>
      <trkpt lat="45.72015" lon="4.70888">
        <ele>283</ele>
        <time>2025-12-11T15:47:22Z</time>
      </trkpt>
      <trkpt lat="45.72014" lon="4.70897">
        <ele>283</ele>
        <time>2025-12-11T15:47:23Z</time>
      </trkpt>
      <trkpt lat="45.72012" lon="4.70905">
        <ele>283</ele>
        <time>2025-12-11T15:47:24Z</time>
      </trkpt>
      <trkpt lat="45.72011" lon="4.70914">
        <ele>283</ele>
        <time>2025-12-11T15:47:25Z</time>
      </trkpt>
      <trkpt lat="45.7201" lon="4.70922">
        <ele>283</ele>
        <time>2025-12-11T15:47:26Z</time>
      </trkpt>
      <trkpt lat="45.7201" lon="4.70931">
        <ele>283</ele>
        <time>2025-12-11T15:47:27Z</time>
      </trkpt>
      <trkpt lat="45.72011" lon="4.70939">
        <ele>283</ele>
        <time>2025-12-11T15:47:28Z</time>
      </trkpt>
      <trkpt lat="45.72013" lon="4.70947">
        <ele>283</ele>
        <time>2025-12-11T15:47:29Z</time>
      </trkpt>
      <trkpt lat="45.72015" lon="4.70955">
        <ele>283</ele>
        <time>2025-12-11T15:47:30Z</time>
      </trkpt>
      <trkpt lat="45.72018" lon="4.70963">
        <ele>283</ele>
        <time>2025-12-11T15:47:31Z</time>
      </trkpt>
      <trkpt lat="45.72021" lon="4.7097">
        <ele>283</ele>
        <time>2025-12-11T15:47:32Z</time>
      </trkpt>
      <trkpt lat="45.72023" lon="4.70978">
        <ele>283</ele>
        <time>2025-12-11T15:47:33Z</time>
      </trkpt>
      <trkpt lat="45.72026" lon="4.70986">
        <ele>283</ele>
        <time>2025-12-11T15:47:34Z</time>
      </trkpt>
      <trkpt lat="45.72028" lon="4.70993">
        <ele>283.2</ele>
        <time>2025-12-11T15:47:35Z</time>
      </trkpt>
      <trkpt lat="45.72031" lon="4.71001">
        <ele>283.2</ele>
        <time>2025-12-11T15:47:36Z</time>
      </trkpt>
      <trkpt lat="45.72033" lon="4.71008">
        <ele>283.2</ele>
        <time>2025-12-11T15:47:37Z</time>
      </trkpt>
      <trkpt lat="45.72036" lon="4.71015">
        <ele>283.4</ele>
        <time>2025-12-11T15:47:38Z</time>
      </trkpt>
      <trkpt lat="45.72039" lon="4.71022">
        <ele>283.4</ele>
        <time>2025-12-11T15:47:39Z</time>
      </trkpt>
      <trkpt lat="45.72041" lon="4.71029">
        <ele>283.4</ele>
        <time>2025-12-11T15:47:40Z</time>
      </trkpt>
      <trkpt lat="45.72043" lon="4.71037">
        <ele>283.4</ele>
        <time>2025-12-11T15:47:41Z</time>
      </trkpt>
      <trkpt lat="45.72045" lon="4.71044">
        <ele>283.4</ele>
        <time>2025-12-11T15:47:42Z</time>
      </trkpt>
      <trkpt lat="45.72047" lon="4.71052">
        <ele>283.4</ele>
        <time>2025-12-11T15:47:43Z</time>
      </trkpt>
      <trkpt lat="45.72049" lon="4.7106">
        <ele>283.2</ele>
        <time>2025-12-11T15:47:44Z</time>
      </trkpt>
      <trkpt lat="45.72051" lon="4.71068">
        <ele>283.2</ele>
        <time>2025-12-11T15:47:45Z</time>
      </trkpt>
      <trkpt lat="45.72053" lon="4.71077">
        <ele>283</ele>
        <time>2025-12-11T15:47:46Z</time>
      </trkpt>
      <trkpt lat="45.72054" lon="4.71085">
        <ele>283</ele>
        <time>2025-12-11T15:47:47Z</time>
      </trkpt>
      <trkpt lat="45.72056" lon="4.71094">
        <ele>282.8</ele>
        <time>2025-12-11T15:47:48Z</time>
      </trkpt>
      <trkpt lat="45.72057" lon="4.71103">
        <ele>282.8</ele>
        <time>2025-12-11T15:47:49Z</time>
      </trkpt>
      <trkpt lat="45.72058" lon="4.71112">
        <ele>282.6</ele>
        <time>2025-12-11T15:47:50Z</time>
      </trkpt>
      <trkpt lat="45.72059" lon="4.71121">
        <ele>282.4</ele>
        <time>2025-12-11T15:47:51Z</time>
      </trkpt>
      <trkpt lat="45.7206" lon="4.7113">
        <ele>282.2</ele>
        <time>2025-12-11T15:47:52Z</time>
      </trkpt>
      <trkpt lat="45.72061" lon="4.7114">
        <ele>282</ele>
        <time>2025-12-11T15:47:53Z</time>
      </trkpt>
      <trkpt lat="45.72061" lon="4.71149">
        <ele>281.8</ele>
        <time>2025-12-11T15:47:54Z</time>
      </trkpt>
      <trkpt lat="45.72062" lon="4.71159">
        <ele>281.6</ele>
        <time>2025-12-11T15:47:55Z</time>
      </trkpt>
      <trkpt lat="45.72064" lon="4.71168">
        <ele>281.4</ele>
        <time>2025-12-11T15:47:56Z</time>
      </trkpt>
      <trkpt lat="45.72065" lon="4.71178">
        <ele>281.2</ele>
        <time>2025-12-11T15:47:57Z</time>
      </trkpt>
      <trkpt lat="45.72066" lon="4.71187">
        <ele>281</ele>
        <time>2025-12-11T15:47:58Z</time>
      </trkpt>
      <trkpt lat="45.72068" lon="4.71196">
        <ele>281</ele>
        <time>2025-12-11T15:47:59Z</time>
      </trkpt>
      <trkpt lat="45.7207" lon="4.71205">
        <ele>280.8</ele>
        <time>2025-12-11T15:48:00Z</time>
      </trkpt>
      <trkpt lat="45.72071" lon="4.71214">
        <ele>280.8</ele>
        <time>2025-12-11T15:48:01Z</time>
      </trkpt>
      <trkpt lat="45.72073" lon="4.71223">
        <ele>281</ele>
        <time>2025-12-11T15:48:02Z</time>
      </trkpt>
      <trkpt lat="45.72074" lon="4.71232">
        <ele>281.2</ele>
        <time>2025-12-11T15:48:03Z</time>
      </trkpt>
      <trkpt lat="45.72076" lon="4.71241">
        <ele>281.4</ele>
        <time>2025-12-11T15:48:04Z</time>
      </trkpt>
      <trkpt lat="45.72077" lon="4.71249">
        <ele>281.6</ele>
        <time>2025-12-11T15:48:05Z</time>
      </trkpt>
      <trkpt lat="45.72079" lon="4.71258">
        <ele>281.8</ele>
        <time>2025-12-11T15:48:06Z</time>
      </trkpt>
      <trkpt lat="45.7208" lon="4.71266">
        <ele>282</ele>
        <time>2025-12-11T15:48:07Z</time>
      </trkpt>
      <trkpt lat="45.72082" lon="4.71274">
        <ele>282.2</ele>
        <time>2025-12-11T15:48:08Z</time>
      </trkpt>
      <trkpt lat="45.72083" lon="4.71283">
        <ele>282.2</ele>
        <time>2025-12-11T15:48:09Z</time>
      </trkpt>
      <trkpt lat="45.72085" lon="4.71291">
        <ele>282.2</ele>
        <time>2025-12-11T15:48:10Z</time>
      </trkpt>
      <trkpt lat="45.72086" lon="4.71299">
        <ele>282.2</ele>
        <time>2025-12-11T15:48:11Z</time>
      </trkpt>
      <trkpt lat="45.72088" lon="4.71307">
        <ele>282</ele>
        <time>2025-12-11T15:48:12Z</time>
      </trkpt>
      <trkpt lat="45.72089" lon="4.71315">
        <ele>282</ele>
        <time>2025-12-11T15:48:13Z</time>
      </trkpt>
      <trkpt lat="45.7209" lon="4.71322">
        <ele>281.8</ele>
        <time>2025-12-11T15:48:14Z</time>
      </trkpt>
      <trkpt lat="45.72091" lon="4.7133">
        <ele>281.8</ele>
        <time>2025-12-11T15:48:15Z</time>
      </trkpt>
      <trkpt lat="45.72091" lon="4.71338">
        <ele>281.8</ele>
        <time>2025-12-11T15:48:16Z</time>
      </trkpt>
      <trkpt lat="45.72091" lon="4.71346">
        <ele>281.8</ele>
        <time>2025-12-11T15:48:17Z</time>
      </trkpt>
      <trkpt lat="45.72091" lon="4.71354">
        <ele>281.6</ele>
        <time>2025-12-11T15:48:18Z</time>
      </trkpt>
      <trkpt lat="45.72092" lon="4.71362">
        <ele>281.6</ele>
        <time>2025-12-11T15:48:19Z</time>
      </trkpt>
      <trkpt lat="45.72093" lon="4.7137">
        <ele>281.6</ele>
        <time>2025-12-11T15:48:20Z</time>
      </trkpt>
      <trkpt lat="45.72093" lon="4.71378">
        <ele>281.6</ele>
        <time>2025-12-11T15:48:21Z</time>
      </trkpt>
      <trkpt lat="45.72093" lon="4.71386">
        <ele>281.4</ele>
        <time>2025-12-11T15:48:22Z</time>
      </trkpt>
      <trkpt lat="45.72094" lon="4.71394">
        <ele>281.4</ele>
        <time>2025-12-11T15:48:23Z</time>
      </trkpt>
      <trkpt lat="45.72094" lon="4.71402">
        <ele>281.4</ele>
        <time>2025-12-11T15:48:24Z</time>
      </trkpt>
      <trkpt lat="45.72094" lon="4.7141">
        <ele>281.6</ele>
        <time>2025-12-11T15:48:25Z</time>
      </trkpt>
      <trkpt lat="45.72095" lon="4.71418">
        <ele>281.6</ele>
        <time>2025-12-11T15:48:26Z</time>
      </trkpt>
      <trkpt lat="45.72095" lon="4.71426">
        <ele>281.8</ele>
        <time>2025-12-11T15:48:27Z</time>
      </trkpt>
      <trkpt lat="45.72095" lon="4.71434">
        <ele>281.8</ele>
        <time>2025-12-11T15:48:28Z</time>
      </trkpt>
      <trkpt lat="45.72096" lon="4.71442">
        <ele>281.8</ele>
        <time>2025-12-11T15:48:29Z</time>
      </trkpt>
      <trkpt lat="45.72097" lon="4.7145">
        <ele>282</ele>
        <time>2025-12-11T15:48:30Z</time>
      </trkpt>
      <trkpt lat="45.72097" lon="4.71458">
        <ele>282</ele>
        <time>2025-12-11T15:48:31Z</time>
      </trkpt>
      <trkpt lat="45.72097" lon="4.71466">
        <ele>282</ele>
        <time>2025-12-11T15:48:32Z</time>
      </trkpt>
      <trkpt lat="45.72098" lon="4.71474">
        <ele>282</ele>
        <time>2025-12-11T15:48:33Z</time>
      </trkpt>
      <trkpt lat="45.72098" lon="4.71482">
        <ele>282</ele>
        <time>2025-12-11T15:48:34Z</time>
      </trkpt>
      <trkpt lat="45.72098" lon="4.7149">
        <ele>281.8</ele>
        <time>2025-12-11T15:48:35Z</time>
      </trkpt>
      <trkpt lat="45.72098" lon="4.71498">
        <ele>281.8</ele>
        <time>2025-12-11T15:48:36Z</time>
      </trkpt>
      <trkpt lat="45.72098" lon="4.71506">
        <ele>281.8</ele>
        <time>2025-12-11T15:48:37Z</time>
      </trkpt>
      <trkpt lat="45.72098" lon="4.71514">
        <ele>281.8</ele>
        <time>2025-12-11T15:48:38Z</time>
      </trkpt>
      <trkpt lat="45.72098" lon="4.71522">
        <ele>281.6</ele>
        <time>2025-12-11T15:48:39Z</time>
      </trkpt>
      <trkpt lat="45.72098" lon="4.7153">
        <ele>281.4</ele>
        <time>2025-12-11T15:48:40Z</time>
      </trkpt>
      <trkpt lat="45.72099" lon="4.71539">
        <ele>281.4</ele>
        <time>2025-12-11T15:48:41Z</time>
      </trkpt>
      <trkpt lat="45.72099" lon="4.71548">
        <ele>281.2</ele>
        <time>2025-12-11T15:48:42Z</time>
      </trkpt>
      <trkpt lat="45.721" lon="4.71557">
        <ele>281</ele>
        <time>2025-12-11T15:48:43Z</time>
      </trkpt>
      <trkpt lat="45.721" lon="4.71566">
        <ele>280.8</ele>
        <time>2025-12-11T15:48:44Z</time>
      </trkpt>
      <trkpt lat="45.721" lon="4.71575">
        <ele>280.6</ele>
        <time>2025-12-11T15:48:45Z</time>
      </trkpt>
      <trkpt lat="45.721" lon="4.71584">
        <ele>280.4</ele>
        <time>2025-12-11T15:48:46Z</time>
      </trkpt>
      <trkpt lat="45.721" lon="4.71593">
        <ele>280.2</ele>
        <time>2025-12-11T15:48:47Z</time>
      </trkpt>
      <trkpt lat="45.721" lon="4.71602">
        <ele>280</ele>
        <time>2025-12-11T15:48:48Z</time>
      </trkpt>
      <trkpt lat="45.721" lon="4.71611">
        <ele>279.8</ele>
        <time>2025-12-11T15:48:49Z</time>
      </trkpt>
      <trkpt lat="45.72099" lon="4.71621">
        <ele>279.6</ele>
        <time>2025-12-11T15:48:50Z</time>
      </trkpt>
      <trkpt lat="45.72099" lon="4.7163">
        <ele>279.4</ele>
        <time>2025-12-11T15:48:51Z</time>
      </trkpt>
      <trkpt lat="45.72099" lon="4.7164">
        <ele>279.2</ele>
        <time>2025-12-11T15:48:52Z</time>
      </trkpt>
      <trkpt lat="45.72097" lon="4.7165">
        <ele>278.8</ele>
        <time>2025-12-11T15:48:53Z</time>
      </trkpt>
      <trkpt lat="45.72096" lon="4.71659">
        <ele>278.6</ele>
        <time>2025-12-11T15:48:54Z</time>
      </trkpt>
      <trkpt lat="45.72095" lon="4.71669">
        <ele>278.2</ele>
        <time>2025-12-11T15:48:55Z</time>
      </trkpt>
      <trkpt lat="45.72093" lon="4.71679">
        <ele>278</ele>
        <time>2025-12-11T15:48:56Z</time>
      </trkpt>
      <trkpt lat="45.72091" lon="4.71689">
        <ele>277.6</ele>
        <time>2025-12-11T15:48:57Z</time>
      </trkpt>
      <trkpt lat="45.72089" lon="4.71699">
        <ele>277.4</ele>
        <time>2025-12-11T15:48:58Z</time>
      </trkpt>
      <trkpt lat="45.72086" lon="4.71709">
        <ele>277</ele>
        <time>2025-12-11T15:48:59Z</time>
      </trkpt>
      <trkpt lat="45.72084" lon="4.71719">
        <ele>276.8</ele>
        <time>2025-12-11T15:49:00Z</time>
      </trkpt>
      <trkpt lat="45.7208" lon="4.71729">
        <ele>276.4</ele>
        <time>2025-12-11T15:49:01Z</time>
      </trkpt>
      <trkpt lat="45.72076" lon="4.71738">
        <ele>276</ele>
        <time>2025-12-11T15:49:02Z</time>
      </trkpt>
      <trkpt lat="45.72072" lon="4.71748">
        <ele>275.4</ele>
        <time>2025-12-11T15:49:03Z</time>
      </trkpt>
      <trkpt lat="45.72068" lon="4.71759">
        <ele>274.8</ele>
        <time>2025-12-11T15:49:04Z</time>
      </trkpt>
      <trkpt lat="45.72063" lon="4.71769">
        <ele>274</ele>
        <time>2025-12-11T15:49:05Z</time>
      </trkpt>
      <trkpt lat="45.72058" lon="4.71779">
        <ele>273.2</ele>
        <time>2025-12-11T15:49:06Z</time>
      </trkpt>
      <trkpt lat="45.72052" lon="4.71789">
        <ele>272.2</ele>
        <time>2025-12-11T15:49:07Z</time>
      </trkpt>
      <trkpt lat="45.72046" lon="4.71799">
        <ele>271.4</ele>
        <time>2025-12-11T15:49:08Z</time>
      </trkpt>
      <trkpt lat="45.72039" lon="4.71808">
        <ele>270.8</ele>
        <time>2025-12-11T15:49:09Z</time>
      </trkpt>
      <trkpt lat="45.72032" lon="4.71819">
        <ele>270.2</ele>
        <time>2025-12-11T15:49:10Z</time>
      </trkpt>
      <trkpt lat="45.72027" lon="4.7183">
        <ele>269.8</ele>
        <time>2025-12-11T15:49:11Z</time>
      </trkpt>
      <trkpt lat="45.72023" lon="4.71841">
        <ele>269.8</ele>
        <time>2025-12-11T15:49:12Z</time>
      </trkpt>
      <trkpt lat="45.72019" lon="4.71853">
        <ele>269.8</ele>
        <time>2025-12-11T15:49:13Z</time>
      </trkpt>
      <trkpt lat="45.72018" lon="4.71864">
        <ele>270.2</ele>
        <time>2025-12-11T15:49:14Z</time>
      </trkpt>
      <trkpt lat="45.72016" lon="4.71874">
        <ele>270.6</ele>
        <time>2025-12-11T15:49:15Z</time>
      </trkpt>
      <trkpt lat="45.72015" lon="4.71884">
        <ele>271.2</ele>
        <time>2025-12-11T15:49:16Z</time>
      </trkpt>
      <trkpt lat="45.72014" lon="4.71893">
        <ele>271.8</ele>
        <time>2025-12-11T15:49:17Z</time>
      </trkpt>
      <trkpt lat="45.72014" lon="4.71902">
        <ele>272.6</ele>
        <time>2025-12-11T15:49:18Z</time>
      </trkpt>
      <trkpt lat="45.72013" lon="4.7191">
        <ele>273.2</ele>
        <time>2025-12-11T15:49:19Z</time>
      </trkpt>
      <trkpt lat="45.72013" lon="4.71918">
        <ele>273.6</ele>
        <time>2025-12-11T15:49:20Z</time>
      </trkpt>
      <trkpt lat="45.72012" lon="4.71925">
        <ele>274</ele>
        <time>2025-12-11T15:49:21Z</time>
      </trkpt>
      <trkpt lat="45.72011" lon="4.71933">
        <ele>274.4</ele>
        <time>2025-12-11T15:49:22Z</time>
      </trkpt>
      <trkpt lat="45.7201" lon="4.7194">
        <ele>274.6</ele>
        <time>2025-12-11T15:49:23Z</time>
      </trkpt>
      <trkpt lat="45.7201" lon="4.71947">
        <ele>274.8</ele>
        <time>2025-12-11T15:49:24Z</time>
      </trkpt>
      <trkpt lat="45.72009" lon="4.71954">
        <ele>275</ele>
        <time>2025-12-11T15:49:25Z</time>
      </trkpt>
      <trkpt lat="45.72009" lon="4.71961">
        <ele>275</ele>
        <time>2025-12-11T15:49:26Z</time>
      </trkpt>
      <trkpt lat="45.72008" lon="4.71968">
        <ele>274.8</ele>
        <time>2025-12-11T15:49:27Z</time>
      </trkpt>
      <trkpt lat="45.72008" lon="4.71976">
        <ele>274.8</ele>
        <time>2025-12-11T15:49:28Z</time>
      </trkpt>
      <trkpt lat="45.72007" lon="4.71983">
        <ele>274.6</ele>
        <time>2025-12-11T15:49:29Z</time>
      </trkpt>
      <trkpt lat="45.72007" lon="4.71991">
        <ele>274.4</ele>
        <time>2025-12-11T15:49:30Z</time>
      </trkpt>
      <trkpt lat="45.72006" lon="4.71999">
        <ele>274.4</ele>
        <time>2025-12-11T15:49:31Z</time>
      </trkpt>
      <trkpt lat="45.72006" lon="4.72007">
        <ele>274.2</ele>
        <time>2025-12-11T15:49:32Z</time>
      </trkpt>
      <trkpt lat="45.72005" lon="4.72015">
        <ele>274</ele>
        <time>2025-12-11T15:49:33Z</time>
      </trkpt>
      <trkpt lat="45.72005" lon="4.72024">
        <ele>274</ele>
        <time>2025-12-11T15:49:34Z</time>
      </trkpt>
      <trkpt lat="45.72004" lon="4.72032">
        <ele>273.8</ele>
        <time>2025-12-11T15:49:35Z</time>
      </trkpt>
      <trkpt lat="45.72003" lon="4.7204">
        <ele>273.8</ele>
        <time>2025-12-11T15:49:36Z</time>
      </trkpt>
      <trkpt lat="45.72002" lon="4.72048">
        <ele>273.8</ele>
        <time>2025-12-11T15:49:37Z</time>
      </trkpt>
      <trkpt lat="45.72002" lon="4.72055">
        <ele>273.8</ele>
        <time>2025-12-11T15:49:38Z</time>
      </trkpt>
      <trkpt lat="45.72001" lon="4.72063">
        <ele>273.8</ele>
        <time>2025-12-11T15:49:39Z</time>
      </trkpt>
      <trkpt lat="45.72001" lon="4.72071">
        <ele>273.8</ele>
        <time>2025-12-11T15:49:40Z</time>
      </trkpt>
      <trkpt lat="45.72" lon="4.72079">
        <ele>273.8</ele>
        <time>2025-12-11T15:49:41Z</time>
      </trkpt>
      <trkpt lat="45.72" lon="4.72087">
        <ele>274</ele>
        <time>2025-12-11T15:49:42Z</time>
      </trkpt>
      <trkpt lat="45.71999" lon="4.72095">
        <ele>274</ele>
        <time>2025-12-11T15:49:43Z</time>
      </trkpt>
      <trkpt lat="45.71999" lon="4.72102">
        <ele>274</ele>
        <time>2025-12-11T15:49:44Z</time>
      </trkpt>
      <trkpt lat="45.71998" lon="4.7211">
        <ele>274</ele>
        <time>2025-12-11T15:49:45Z</time>
      </trkpt>
      <trkpt lat="45.71998" lon="4.72118">
        <ele>274.2</ele>
        <time>2025-12-11T15:49:46Z</time>
      </trkpt>
      <trkpt lat="45.71997" lon="4.72125">
        <ele>274.2</ele>
        <time>2025-12-11T15:49:47Z</time>
      </trkpt>
      <trkpt lat="45.71997" lon="4.72133">
        <ele>274.4</ele>
        <time>2025-12-11T15:49:48Z</time>
      </trkpt>
      <trkpt lat="45.71996" lon="4.7214">
        <ele>274.4</ele>
        <time>2025-12-11T15:49:49Z</time>
      </trkpt>
      <trkpt lat="45.71996" lon="4.72148">
        <ele>274.6</ele>
        <time>2025-12-11T15:49:50Z</time>
      </trkpt>
      <trkpt lat="45.71995" lon="4.72155">
        <ele>274.6</ele>
        <time>2025-12-11T15:49:51Z</time>
      </trkpt>
      <trkpt lat="45.71995" lon="4.72162">
        <ele>274.8</ele>
        <time>2025-12-11T15:49:52Z</time>
      </trkpt>
      <trkpt lat="45.71994" lon="4.72169">
        <ele>275</ele>
        <time>2025-12-11T15:49:53Z</time>
      </trkpt>
      <trkpt lat="45.71993" lon="4.72176">
        <ele>275.2</ele>
        <time>2025-12-11T15:49:54Z</time>
      </trkpt>
      <trkpt lat="45.71993" lon="4.72183">
        <ele>275.2</ele>
        <time>2025-12-11T15:49:55Z</time>
      </trkpt>
      <trkpt lat="45.71992" lon="4.72189">
        <ele>275.4</ele>
        <time>2025-12-11T15:49:56Z</time>
      </trkpt>
      <trkpt lat="45.71992" lon="4.72196">
        <ele>275.6</ele>
        <time>2025-12-11T15:49:57Z</time>
      </trkpt>
      <trkpt lat="45.71991" lon="4.72202">
        <ele>275.6</ele>
        <time>2025-12-11T15:49:58Z</time>
      </trkpt>
      <trkpt lat="45.71991" lon="4.72209">
        <ele>275.8</ele>
        <time>2025-12-11T15:49:59Z</time>
      </trkpt>
      <trkpt lat="45.7199" lon="4.72215">
        <ele>276</ele>
        <time>2025-12-11T15:50:00Z</time>
      </trkpt>
      <trkpt lat="45.7199" lon="4.72221">
        <ele>276</ele>
        <time>2025-12-11T15:50:01Z</time>
      </trkpt>
      <trkpt lat="45.71989" lon="4.72228">
        <ele>276.2</ele>
        <time>2025-12-11T15:50:02Z</time>
      </trkpt>
      <trkpt lat="45.71989" lon="4.72234">
        <ele>276.4</ele>
        <time>2025-12-11T15:50:03Z</time>
      </trkpt>
      <trkpt lat="45.71988" lon="4.7224">
        <ele>276.4</ele>
        <time>2025-12-11T15:50:04Z</time>
      </trkpt>
      <trkpt lat="45.71988" lon="4.72246">
        <ele>276.6</ele>
        <time>2025-12-11T15:50:05Z</time>
      </trkpt>
      <trkpt lat="45.71987" lon="4.72252">
        <ele>276.8</ele>
        <time>2025-12-11T15:50:06Z</time>
      </trkpt>
      <trkpt lat="45.71987" lon="4.72257">
        <ele>276.8</ele>
        <time>2025-12-11T15:50:07Z</time>
      </trkpt>
      <trkpt lat="45.71986" lon="4.72263">
        <ele>277</ele>
        <time>2025-12-11T15:50:08Z</time>
      </trkpt>
      <trkpt lat="45.71985" lon="4.72269">
        <ele>277</ele>
        <time>2025-12-11T15:50:09Z</time>
      </trkpt>
      <trkpt lat="45.71985" lon="4.72274">
        <ele>277.2</ele>
        <time>2025-12-11T15:50:10Z</time>
      </trkpt>
      <trkpt lat="45.71984" lon="4.7228">
        <ele>277.2</ele>
        <time>2025-12-11T15:50:11Z</time>
      </trkpt>
      <trkpt lat="45.71983" lon="4.72286">
        <ele>277.2</ele>
        <time>2025-12-11T15:50:12Z</time>
      </trkpt>
      <trkpt lat="45.71983" lon="4.72292">
        <ele>277.4</ele>
        <time>2025-12-11T15:50:13Z</time>
      </trkpt>
      <trkpt lat="45.71981" lon="4.72297">
        <ele>277.6</ele>
        <time>2025-12-11T15:50:14Z</time>
      </trkpt>
      <trkpt lat="45.7198" lon="4.72303">
        <ele>277.6</ele>
        <time>2025-12-11T15:50:15Z</time>
      </trkpt>
      <trkpt lat="45.71979" lon="4.72308">
        <ele>277.8</ele>
        <time>2025-12-11T15:50:16Z</time>
      </trkpt>
      <trkpt lat="45.71979" lon="4.72313">
        <ele>278</ele>
        <time>2025-12-11T15:50:17Z</time>
      </trkpt>
      <trkpt lat="45.71978" lon="4.72318">
        <ele>278.2</ele>
        <time>2025-12-11T15:50:18Z</time>
      </trkpt>
      <trkpt lat="45.71977" lon="4.72322">
        <ele>278.4</ele>
        <time>2025-12-11T15:50:19Z</time>
      </trkpt>
      <trkpt lat="45.71976" lon="4.72327">
        <ele>278.6</ele>
        <time>2025-12-11T15:50:20Z</time>
      </trkpt>
      <trkpt lat="45.71975" lon="4.72331">
        <ele>279</ele>
        <time>2025-12-11T15:50:21Z</time>
      </trkpt>
      <trkpt lat="45.71975" lon="4.72335">
        <ele>279.2</ele>
        <time>2025-12-11T15:50:22Z</time>
      </trkpt>
      <trkpt lat="45.71974" lon="4.7234">
        <ele>279.4</ele>
        <time>2025-12-11T15:50:23Z</time>
      </trkpt>
      <trkpt lat="45.71974" lon="4.72344">
        <ele>279.6</ele>
        <time>2025-12-11T15:50:24Z</time>
      </trkpt>
      <trkpt lat="45.71974" lon="4.72349">
        <ele>280</ele>
        <time>2025-12-11T15:50:25Z</time>
      </trkpt>
      <trkpt lat="45.71974" lon="4.72352">
        <ele>280.2</ele>
        <time>2025-12-11T15:50:26Z</time>
      </trkpt>
      <trkpt lat="45.71974" lon="4.72355">
        <ele>280.4</ele>
        <time>2025-12-11T15:50:27Z</time>
      </trkpt>
      <trkpt lat="45.71974" lon="4.72358">
        <ele>280.8</ele>
        <time>2025-12-11T15:50:28Z</time>
      </trkpt>
      <trkpt lat="45.71975" lon="4.72361">
        <ele>281</ele>
        <time>2025-12-11T15:50:29Z</time>
      </trkpt>
      <trkpt lat="45.71976" lon="4.72364">
        <ele>281.2</ele>
        <time>2025-12-11T15:50:30Z</time>
      </trkpt>
      <trkpt lat="45.71976" lon="4.72367">
        <ele>281.4</ele>
        <time>2025-12-11T15:50:31Z</time>
      </trkpt>
      <trkpt lat="45.71977" lon="4.72369">
        <ele>281.6</ele>
        <time>2025-12-11T15:50:32Z</time>
      </trkpt>
      <trkpt lat="45.71977" lon="4.72372">
        <ele>281.8</ele>
        <time>2025-12-11T15:50:33Z</time>
      </trkpt>
      <trkpt lat="45.71977" lon="4.72375">
        <ele>281.8</ele>
        <time>2025-12-11T15:50:34Z</time>
      </trkpt>
      <trkpt lat="45.71976" lon="4.72378">
        <ele>282</ele>
        <time>2025-12-11T15:50:35Z</time>
      </trkpt>
      <trkpt lat="45.71976" lon="4.72381">
        <ele>282</ele>
        <time>2025-12-11T15:50:36Z</time>
      </trkpt>
      <trkpt lat="45.71977" lon="4.72383">
        <ele>282.2</ele>
        <time>2025-12-11T15:50:37Z</time>
      </trkpt>
      <trkpt lat="45.71977" lon="4.72386">
        <ele>282.2</ele>
        <time>2025-12-11T15:50:38Z</time>
      </trkpt>
      <trkpt lat="45.71979" lon="4.72389">
        <ele>282.4</ele>
        <time>2025-12-11T15:50:39Z</time>
      </trkpt>
      <trkpt lat="45.7198" lon="4.72391">
        <ele>282.4</ele>
        <time>2025-12-11T15:50:40Z</time>
      </trkpt>
      <trkpt lat="45.71982" lon="4.72393">
        <ele>282.6</ele>
        <time>2025-12-11T15:50:41Z</time>
      </trkpt>
      <trkpt lat="45.71984" lon="4.72395">
        <ele>282.6</ele>
        <time>2025-12-11T15:50:42Z</time>
      </trkpt>
      <trkpt lat="45.71986" lon="4.72397">
        <ele>282.6</ele>
        <time>2025-12-11T15:50:43Z</time>
      </trkpt>
      <trkpt lat="45.71988" lon="4.72399">
        <ele>282.8</ele>
        <time>2025-12-11T15:50:44Z</time>
      </trkpt>
      <trkpt lat="45.7199" lon="4.72401">
        <ele>282.8</ele>
        <time>2025-12-11T15:50:45Z</time>
      </trkpt>
      <trkpt lat="45.71993" lon="4.72403">
        <ele>282.8</ele>
        <time>2025-12-11T15:50:46Z</time>
      </trkpt>
      <trkpt lat="45.71995" lon="4.72406">
        <ele>282.8</ele>
        <time>2025-12-11T15:50:47Z</time>
      </trkpt>
      <trkpt lat="45.71997" lon="4.72408">
        <ele>283</ele>
        <time>2025-12-11T15:50:48Z</time>
      </trkpt>
      <trkpt lat="45.71999" lon="4.7241">
        <ele>283</ele>
        <time>2025-12-11T15:50:49Z</time>
      </trkpt>
      <trkpt lat="45.72001" lon="4.72413">
        <ele>283</ele>
        <time>2025-12-11T15:50:50Z</time>
      </trkpt>
      <trkpt lat="45.72004" lon="4.72415">
        <ele>283</ele>
        <time>2025-12-11T15:50:51Z</time>
      </trkpt>
      <trkpt lat="45.72006" lon="4.72417">
        <ele>283.2</ele>
        <time>2025-12-11T15:50:52Z</time>
      </trkpt>
      <trkpt lat="45.72008" lon="4.72419">
        <ele>283.2</ele>
        <time>2025-12-11T15:50:53Z</time>
      </trkpt>
      <trkpt lat="45.7201" lon="4.72422">
        <ele>283.2</ele>
        <time>2025-12-11T15:50:54Z</time>
      </trkpt>
      <trkpt lat="45.72012" lon="4.72424">
        <ele>283.4</ele>
        <time>2025-12-11T15:50:55Z</time>
      </trkpt>
      <trkpt lat="45.72015" lon="4.72427">
        <ele>283.4</ele>
        <time>2025-12-11T15:50:56Z</time>
      </trkpt>
      <trkpt lat="45.72017" lon="4.7243">
        <ele>283.4</ele>
        <time>2025-12-11T15:50:57Z</time>
      </trkpt>
      <trkpt lat="45.72019" lon="4.72433">
        <ele>283.4</ele>
        <time>2025-12-11T15:50:58Z</time>
      </trkpt>
      <trkpt lat="45.72022" lon="4.72436">
        <ele>283.4</ele>
        <time>2025-12-11T15:50:59Z</time>
      </trkpt>
      <trkpt lat="45.72023" lon="4.7244">
        <ele>283.4</ele>
        <time>2025-12-11T15:51:00Z</time>
      </trkpt>
      <trkpt lat="45.72025" lon="4.72444">
        <ele>283.6</ele>
        <time>2025-12-11T15:51:01Z</time>
      </trkpt>
      <trkpt lat="45.72027" lon="4.72448">
        <ele>283.6</ele>
        <time>2025-12-11T15:51:02Z</time>
      </trkpt>
      <trkpt lat="45.72029" lon="4.72452">
        <ele>283.6</ele>
        <time>2025-12-11T15:51:03Z</time>
      </trkpt>
      <trkpt lat="45.72031" lon="4.72455">
        <ele>283.6</ele>
        <time>2025-12-11T15:51:04Z</time>
      </trkpt>
      <trkpt lat="45.72033" lon="4.72459">
        <ele>283.8</ele>
        <time>2025-12-11T15:51:05Z</time>
      </trkpt>
      <trkpt lat="45.72036" lon="4.72462">
        <ele>284</ele>
        <time>2025-12-11T15:51:06Z</time>
      </trkpt>
      <trkpt lat="45.72038" lon="4.72465">
        <ele>284</ele>
        <time>2025-12-11T15:51:07Z</time>
      </trkpt>
      <trkpt lat="45.7204" lon="4.72468">
        <ele>284.2</ele>
        <time>2025-12-11T15:51:08Z</time>
      </trkpt>
      <trkpt lat="45.72043" lon="4.72472">
        <ele>284.4</ele>
        <time>2025-12-11T15:51:09Z</time>
      </trkpt>
      <trkpt lat="45.72046" lon="4.72475">
        <ele>284.4</ele>
        <time>2025-12-11T15:51:10Z</time>
      </trkpt>
      <trkpt lat="45.72049" lon="4.72478">
        <ele>284.6</ele>
        <time>2025-12-11T15:51:11Z</time>
      </trkpt>
      <trkpt lat="45.72051" lon="4.72481">
        <ele>284.6</ele>
        <time>2025-12-11T15:51:12Z</time>
      </trkpt>
      <trkpt lat="45.72054" lon="4.72485">
        <ele>284.8</ele>
        <time>2025-12-11T15:51:13Z</time>
      </trkpt>
      <trkpt lat="45.72057" lon="4.72488">
        <ele>284.8</ele>
        <time>2025-12-11T15:51:14Z</time>
      </trkpt>
      <trkpt lat="45.72059" lon="4.72492">
        <ele>285</ele>
        <time>2025-12-11T15:51:15Z</time>
      </trkpt>
      <trkpt lat="45.72062" lon="4.72496">
        <ele>285</ele>
        <time>2025-12-11T15:51:16Z</time>
      </trkpt>
      <trkpt lat="45.72064" lon="4.725">
        <ele>285.2</ele>
        <time>2025-12-11T15:51:17Z</time>
      </trkpt>
      <trkpt lat="45.72067" lon="4.72504">
        <ele>285.2</ele>
        <time>2025-12-11T15:51:18Z</time>
      </trkpt>
      <trkpt lat="45.72069" lon="4.72508">
        <ele>285.4</ele>
        <time>2025-12-11T15:51:19Z</time>
      </trkpt>
      <trkpt lat="45.72071" lon="4.72512">
        <ele>285.4</ele>
        <time>2025-12-11T15:51:20Z</time>
      </trkpt>
      <trkpt lat="45.72074" lon="4.72516">
        <ele>285.6</ele>
        <time>2025-12-11T15:51:21Z</time>
      </trkpt>
      <trkpt lat="45.72076" lon="4.7252">
        <ele>285.6</ele>
        <time>2025-12-11T15:51:22Z</time>
      </trkpt>
      <trkpt lat="45.72078" lon="4.72524">
        <ele>285.8</ele>
        <time>2025-12-11T15:51:23Z</time>
      </trkpt>
      <trkpt lat="45.7208" lon="4.72529">
        <ele>285.8</ele>
        <time>2025-12-11T15:51:24Z</time>
      </trkpt>
      <trkpt lat="45.72082" lon="4.72533">
        <ele>286</ele>
        <time>2025-12-11T15:51:25Z</time>
      </trkpt>
      <trkpt lat="45.72084" lon="4.72538">
        <ele>286</ele>
        <time>2025-12-11T15:51:26Z</time>
      </trkpt>
      <trkpt lat="45.72086" lon="4.72542">
        <ele>286.2</ele>
        <time>2025-12-11T15:51:27Z</time>
      </trkpt>
      <trkpt lat="45.72087" lon="4.72546">
        <ele>286.4</ele>
        <time>2025-12-11T15:51:28Z</time>
      </trkpt>
      <trkpt lat="45.72089" lon="4.7255">
        <ele>286.4</ele>
        <time>2025-12-11T15:51:29Z</time>
      </trkpt>
      <trkpt lat="45.7209" lon="4.72553">
        <ele>286.6</ele>
        <time>2025-12-11T15:51:30Z</time>
      </trkpt>
      <trkpt lat="45.72092" lon="4.72557">
        <ele>286.8</ele>
        <time>2025-12-11T15:51:31Z</time>
      </trkpt>
      <trkpt lat="45.72093" lon="4.72561">
        <ele>286.8</ele>
        <time>2025-12-11T15:51:32Z</time>
      </trkpt>
      <trkpt lat="45.72095" lon="4.72565">
        <ele>287</ele>
        <time>2025-12-11T15:51:33Z</time>
      </trkpt>
      <trkpt lat="45.72096" lon="4.7257">
        <ele>287</ele>
        <time>2025-12-11T15:51:34Z</time>
      </trkpt>
      <trkpt lat="45.72097" lon="4.72574">
        <ele>287.2</ele>
        <time>2025-12-11T15:51:35Z</time>
      </trkpt>
      <trkpt lat="45.72099" lon="4.72579">
        <ele>287.2</ele>
        <time>2025-12-11T15:51:36Z</time>
      </trkpt>
      <trkpt lat="45.721" lon="4.72583">
        <ele>287.2</ele>
        <time>2025-12-11T15:51:37Z</time>
      </trkpt>
      <trkpt lat="45.72101" lon="4.72588">
        <ele>287.4</ele>
        <time>2025-12-11T15:51:38Z</time>
      </trkpt>
      <trkpt lat="45.72102" lon="4.72593">
        <ele>287.4</ele>
        <time>2025-12-11T15:51:39Z</time>
      </trkpt>
      <trkpt lat="45.72104" lon="4.72598">
        <ele>287.4</ele>
        <time>2025-12-11T15:51:40Z</time>
      </trkpt>
      <trkpt lat="45.72105" lon="4.72602">
        <ele>287.4</ele>
        <time>2025-12-11T15:51:41Z</time>
      </trkpt>
      <trkpt lat="45.72107" lon="4.72607">
        <ele>287.4</ele>
        <time>2025-12-11T15:51:42Z</time>
      </trkpt>
      <trkpt lat="45.72108" lon="4.72612">
        <ele>287.6</ele>
        <time>2025-12-11T15:51:43Z</time>
      </trkpt>
      <trkpt lat="45.7211" lon="4.72618">
        <ele>287.6</ele>
        <time>2025-12-11T15:51:44Z</time>
      </trkpt>
      <trkpt lat="45.72111" lon="4.72623">
        <ele>287.6</ele>
        <time>2025-12-11T15:51:45Z</time>
      </trkpt>
      <trkpt lat="45.72113" lon="4.72628">
        <ele>287.6</ele>
        <time>2025-12-11T15:51:46Z</time>
      </trkpt>
      <trkpt lat="45.72114" lon="4.72633">
        <ele>287.4</ele>
        <time>2025-12-11T15:51:47Z</time>
      </trkpt>
      <trkpt lat="45.72116" lon="4.72639">
        <ele>287.4</ele>
        <time>2025-12-11T15:51:48Z</time>
      </trkpt>
      <trkpt lat="45.72117" lon="4.72644">
        <ele>287.4</ele>
        <time>2025-12-11T15:51:49Z</time>
      </trkpt>
      <trkpt lat="45.72119" lon="4.72649">
        <ele>287.4</ele>
        <time>2025-12-11T15:51:50Z</time>
      </trkpt>
      <trkpt lat="45.7212" lon="4.72654">
        <ele>287.4</ele>
        <time>2025-12-11T15:51:51Z</time>
      </trkpt>
      <trkpt lat="45.72122" lon="4.72659">
        <ele>287.6</ele>
        <time>2025-12-11T15:51:52Z</time>
      </trkpt>
      <trkpt lat="45.72124" lon="4.72665">
        <ele>287.6</ele>
        <time>2025-12-11T15:51:53Z</time>
      </trkpt>
      <trkpt lat="45.72126" lon="4.7267">
        <ele>287.6</ele>
        <time>2025-12-11T15:51:54Z</time>
      </trkpt>
      <trkpt lat="45.72127" lon="4.72675">
        <ele>287.6</ele>
        <time>2025-12-11T15:51:55Z</time>
      </trkpt>
      <trkpt lat="45.72128" lon="4.72681">
        <ele>287.6</ele>
        <time>2025-12-11T15:51:56Z</time>
      </trkpt>
      <trkpt lat="45.7213" lon="4.72686">
        <ele>287.6</ele>
        <time>2025-12-11T15:51:57Z</time>
      </trkpt>
      <trkpt lat="45.72132" lon="4.72691">
        <ele>287.4</ele>
        <time>2025-12-11T15:51:58Z</time>
      </trkpt>
      <trkpt lat="45.72133" lon="4.72697">
        <ele>287.4</ele>
        <time>2025-12-11T15:51:59Z</time>
      </trkpt>
      <trkpt lat="45.72135" lon="4.72702">
        <ele>287.4</ele>
        <time>2025-12-11T15:52:00Z</time>
      </trkpt>
      <trkpt lat="45.72137" lon="4.72707">
        <ele>287.4</ele>
        <time>2025-12-11T15:52:01Z</time>
      </trkpt>
      <trkpt lat="45.72138" lon="4.72713">
        <ele>287.4</ele>
        <time>2025-12-11T15:52:02Z</time>
      </trkpt>
      <trkpt lat="45.7214" lon="4.72718">
        <ele>287.6</ele>
        <time>2025-12-11T15:52:03Z</time>
      </trkpt>
      <trkpt lat="45.72142" lon="4.72723">
        <ele>287.6</ele>
        <time>2025-12-11T15:52:04Z</time>
      </trkpt>
      <trkpt lat="45.72144" lon="4.72728">
        <ele>287.6</ele>
        <time>2025-12-11T15:52:05Z</time>
      </trkpt>
      <trkpt lat="45.72146" lon="4.72734">
        <ele>287.4</ele>
        <time>2025-12-11T15:52:06Z</time>
      </trkpt>
      <trkpt lat="45.72148" lon="4.72739">
        <ele>287.4</ele>
        <time>2025-12-11T15:52:07Z</time>
      </trkpt>
      <trkpt lat="45.7215" lon="4.72744">
        <ele>287.4</ele>
        <time>2025-12-11T15:52:08Z</time>
      </trkpt>
      <trkpt lat="45.72152" lon="4.72749">
        <ele>287.2</ele>
        <time>2025-12-11T15:52:09Z</time>
      </trkpt>
      <trkpt lat="45.72154" lon="4.72754">
        <ele>287.2</ele>
        <time>2025-12-11T15:52:10Z</time>
      </trkpt>
      <trkpt lat="45.72156" lon="4.72759">
        <ele>287.2</ele>
        <time>2025-12-11T15:52:11Z</time>
      </trkpt>
      <trkpt lat="45.72158" lon="4.72764">
        <ele>287.2</ele>
        <time>2025-12-11T15:52:12Z</time>
      </trkpt>
      <trkpt lat="45.7216" lon="4.72769">
        <ele>287.4</ele>
        <time>2025-12-11T15:52:13Z</time>
      </trkpt>
      <trkpt lat="45.72162" lon="4.72775">
        <ele>287.4</ele>
        <time>2025-12-11T15:52:14Z</time>
      </trkpt>
      <trkpt lat="45.72164" lon="4.7278">
        <ele>287.4</ele>
        <time>2025-12-11T15:52:15Z</time>
      </trkpt>
      <trkpt lat="45.72165" lon="4.72785">
        <ele>287.4</ele>
        <time>2025-12-11T15:52:16Z</time>
      </trkpt>
      <trkpt lat="45.72167" lon="4.7279">
        <ele>287.4</ele>
        <time>2025-12-11T15:52:17Z</time>
      </trkpt>
      <trkpt lat="45.72169" lon="4.72795">
        <ele>287.2</ele>
        <time>2025-12-11T15:52:18Z</time>
      </trkpt>
      <trkpt lat="45.7217" lon="4.72801">
        <ele>287.2</ele>
        <time>2025-12-11T15:52:19Z</time>
      </trkpt>
      <trkpt lat="45.72172" lon="4.72806">
        <ele>287.2</ele>
        <time>2025-12-11T15:52:20Z</time>
      </trkpt>
      <trkpt lat="45.72174" lon="4.72811">
        <ele>287.2</ele>
        <time>2025-12-11T15:52:21Z</time>
      </trkpt>
      <trkpt lat="45.72176" lon="4.72816">
        <ele>287.2</ele>
        <time>2025-12-11T15:52:22Z</time>
      </trkpt>
      <trkpt lat="45.72178" lon="4.72822">
        <ele>287.2</ele>
        <time>2025-12-11T15:52:23Z</time>
      </trkpt>
      <trkpt lat="45.7218" lon="4.72827">
        <ele>287.2</ele>
        <time>2025-12-11T15:52:24Z</time>
      </trkpt>
      <trkpt lat="45.72182" lon="4.72832">
        <ele>287.2</ele>
        <time>2025-12-11T15:52:25Z</time>
      </trkpt>
      <trkpt lat="45.72184" lon="4.72837">
        <ele>287.2</ele>
        <time>2025-12-11T15:52:26Z</time>
      </trkpt>
      <trkpt lat="45.72187" lon="4.72843">
        <ele>287.2</ele>
        <time>2025-12-11T15:52:27Z</time>
      </trkpt>
      <trkpt lat="45.72189" lon="4.72848">
        <ele>287.4</ele>
        <time>2025-12-11T15:52:28Z</time>
      </trkpt>
      <trkpt lat="45.72191" lon="4.72853">
        <ele>287.6</ele>
        <time>2025-12-11T15:52:29Z</time>
      </trkpt>
      <trkpt lat="45.72193" lon="4.72858">
        <ele>287.6</ele>
        <time>2025-12-11T15:52:30Z</time>
      </trkpt>
      <trkpt lat="45.72194" lon="4.72864">
        <ele>287.8</ele>
        <time>2025-12-11T15:52:31Z</time>
      </trkpt>
      <trkpt lat="45.72196" lon="4.72869">
        <ele>287.8</ele>
        <time>2025-12-11T15:52:32Z</time>
      </trkpt>
      <trkpt lat="45.72198" lon="4.72874">
        <ele>288</ele>
        <time>2025-12-11T15:52:33Z</time>
      </trkpt>
      <trkpt lat="45.722" lon="4.72879">
        <ele>288</ele>
        <time>2025-12-11T15:52:34Z</time>
      </trkpt>
      <trkpt lat="45.72202" lon="4.72885">
        <ele>288.2</ele>
        <time>2025-12-11T15:52:35Z</time>
      </trkpt>
      <trkpt lat="45.72204" lon="4.72889">
        <ele>288.4</ele>
        <time>2025-12-11T15:52:36Z</time>
      </trkpt>
      <trkpt lat="45.72206" lon="4.72895">
        <ele>288.4</ele>
        <time>2025-12-11T15:52:37Z</time>
      </trkpt>
      <trkpt lat="45.72208" lon="4.729">
        <ele>288.4</ele>
        <time>2025-12-11T15:52:38Z</time>
      </trkpt>
      <trkpt lat="45.7221" lon="4.72904">
        <ele>288.6</ele>
        <time>2025-12-11T15:52:39Z</time>
      </trkpt>
      <trkpt lat="45.72212" lon="4.72909">
        <ele>288.6</ele>
        <time>2025-12-11T15:52:40Z</time>
      </trkpt>
      <trkpt lat="45.72214" lon="4.72914">
        <ele>288.6</ele>
        <time>2025-12-11T15:52:41Z</time>
      </trkpt>
      <trkpt lat="45.72216" lon="4.72919">
        <ele>288.8</ele>
        <time>2025-12-11T15:52:42Z</time>
      </trkpt>
      <trkpt lat="45.72218" lon="4.72924">
        <ele>288.8</ele>
        <time>2025-12-11T15:52:43Z</time>
      </trkpt>
      <trkpt lat="45.7222" lon="4.72928">
        <ele>289</ele>
        <time>2025-12-11T15:52:44Z</time>
      </trkpt>
      <trkpt lat="45.72221" lon="4.72933">
        <ele>289</ele>
        <time>2025-12-11T15:52:45Z</time>
      </trkpt>
      <trkpt lat="45.72223" lon="4.72937">
        <ele>289.2</ele>
        <time>2025-12-11T15:52:46Z</time>
      </trkpt>
      <trkpt lat="45.72225" lon="4.72942">
        <ele>289.4</ele>
        <time>2025-12-11T15:52:47Z</time>
      </trkpt>
      <trkpt lat="45.72227" lon="4.72946">
        <ele>289.4</ele>
        <time>2025-12-11T15:52:48Z</time>
      </trkpt>
      <trkpt lat="45.72229" lon="4.72951">
        <ele>289.6</ele>
        <time>2025-12-11T15:52:49Z</time>
      </trkpt>
      <trkpt lat="45.72231" lon="4.72956">
        <ele>289.6</ele>
        <time>2025-12-11T15:52:50Z</time>
      </trkpt>
      <trkpt lat="45.72233" lon="4.72961">
        <ele>289.6</ele>
        <time>2025-12-11T15:52:51Z</time>
      </trkpt>
      <trkpt lat="45.72234" lon="4.72966">
        <ele>289.8</ele>
        <time>2025-12-11T15:52:52Z</time>
      </trkpt>
      <trkpt lat="45.72236" lon="4.72971">
        <ele>289.8</ele>
        <time>2025-12-11T15:52:53Z</time>
      </trkpt>
      <trkpt lat="45.72238" lon="4.72976">
        <ele>289.8</ele>
        <time>2025-12-11T15:52:54Z</time>
      </trkpt>
      <trkpt lat="45.7224" lon="4.72981">
        <ele>290</ele>
        <time>2025-12-11T15:52:55Z</time>
      </trkpt>
      <trkpt lat="45.72241" lon="4.72985">
        <ele>290</ele>
        <time>2025-12-11T15:52:56Z</time>
      </trkpt>
      <trkpt lat="45.72243" lon="4.7299">
        <ele>290</ele>
        <time>2025-12-11T15:52:57Z</time>
      </trkpt>
      <trkpt lat="45.72245" lon="4.72994">
        <ele>290.2</ele>
        <time>2025-12-11T15:52:58Z</time>
      </trkpt>
      <trkpt lat="45.72247" lon="4.72999">
        <ele>290.2</ele>
        <time>2025-12-11T15:52:59Z</time>
      </trkpt>
      <trkpt lat="45.72248" lon="4.73004">
        <ele>290.2</ele>
        <time>2025-12-11T15:53:00Z</time>
      </trkpt>
      <trkpt lat="45.7225" lon="4.73009">
        <ele>290.2</ele>
        <time>2025-12-11T15:53:01Z</time>
      </trkpt>
      <trkpt lat="45.72251" lon="4.73014">
        <ele>290.4</ele>
        <time>2025-12-11T15:53:02Z</time>
      </trkpt>
      <trkpt lat="45.72253" lon="4.73019">
        <ele>290.4</ele>
        <time>2025-12-11T15:53:03Z</time>
      </trkpt>
      <trkpt lat="45.72254" lon="4.73024">
        <ele>290.4</ele>
        <time>2025-12-11T15:53:04Z</time>
      </trkpt>
      <trkpt lat="45.72256" lon="4.73029">
        <ele>290.6</ele>
        <time>2025-12-11T15:53:05Z</time>
      </trkpt>
      <trkpt lat="45.72258" lon="4.73034">
        <ele>290.6</ele>
        <time>2025-12-11T15:53:06Z</time>
      </trkpt>
      <trkpt lat="45.7226" lon="4.73039">
        <ele>290.6</ele>
        <time>2025-12-11T15:53:07Z</time>
      </trkpt>
      <trkpt lat="45.72262" lon="4.73045">
        <ele>290.6</ele>
        <time>2025-12-11T15:53:08Z</time>
      </trkpt>
      <trkpt lat="45.72264" lon="4.73051">
        <ele>290.6</ele>
        <time>2025-12-11T15:53:09Z</time>
      </trkpt>
      <trkpt lat="45.72266" lon="4.73056">
        <ele>290.6</ele>
        <time>2025-12-11T15:53:10Z</time>
      </trkpt>
      <trkpt lat="45.72268" lon="4.73062">
        <ele>290.6</ele>
        <time>2025-12-11T15:53:11Z</time>
      </trkpt>
      <trkpt lat="45.7227" lon="4.73068">
        <ele>290.6</ele>
        <time>2025-12-11T15:53:12Z</time>
      </trkpt>
      <trkpt lat="45.72272" lon="4.73074">
        <ele>290.6</ele>
        <time>2025-12-11T15:53:13Z</time>
      </trkpt>
      <trkpt lat="45.72274" lon="4.7308">
        <ele>290.6</ele>
        <time>2025-12-11T15:53:14Z</time>
      </trkpt>
      <trkpt lat="45.72276" lon="4.73085">
        <ele>290.6</ele>
        <time>2025-12-11T15:53:15Z</time>
      </trkpt>
      <trkpt lat="45.72278" lon="4.73091">
        <ele>290.4</ele>
        <time>2025-12-11T15:53:16Z</time>
      </trkpt>
      <trkpt lat="45.7228" lon="4.73097">
        <ele>290.6</ele>
        <time>2025-12-11T15:53:17Z</time>
      </trkpt>
      <trkpt lat="45.72282" lon="4.73103">
        <ele>290.4</ele>
        <time>2025-12-11T15:53:18Z</time>
      </trkpt>
      <trkpt lat="45.72284" lon="4.73109">
        <ele>290.4</ele>
        <time>2025-12-11T15:53:19Z</time>
      </trkpt>
      <trkpt lat="45.72286" lon="4.73115">
        <ele>290.4</ele>
        <time>2025-12-11T15:53:20Z</time>
      </trkpt>
      <trkpt lat="45.72288" lon="4.7312">
        <ele>290.6</ele>
        <time>2025-12-11T15:53:21Z</time>
      </trkpt>
      <trkpt lat="45.7229" lon="4.73126">
        <ele>290.6</ele>
        <time>2025-12-11T15:53:22Z</time>
      </trkpt>
      <trkpt lat="45.72292" lon="4.73131">
        <ele>290.6</ele>
        <time>2025-12-11T15:53:23Z</time>
      </trkpt>
      <trkpt lat="45.72294" lon="4.73136">
        <ele>290.6</ele>
        <time>2025-12-11T15:53:24Z</time>
      </trkpt>
      <trkpt lat="45.72297" lon="4.73141">
        <ele>290.6</ele>
        <time>2025-12-11T15:53:25Z</time>
      </trkpt>
      <trkpt lat="45.72299" lon="4.73146">
        <ele>290.6</ele>
        <time>2025-12-11T15:53:26Z</time>
      </trkpt>
      <trkpt lat="45.72301" lon="4.73151">
        <ele>290.6</ele>
        <time>2025-12-11T15:53:27Z</time>
      </trkpt>
      <trkpt lat="45.72303" lon="4.73157">
        <ele>290.6</ele>
        <time>2025-12-11T15:53:28Z</time>
      </trkpt>
      <trkpt lat="45.72306" lon="4.73162">
        <ele>290.6</ele>
        <time>2025-12-11T15:53:29Z</time>
      </trkpt>
      <trkpt lat="45.72308" lon="4.73167">
        <ele>290.6</ele>
        <time>2025-12-11T15:53:30Z</time>
      </trkpt>
      <trkpt lat="45.72311" lon="4.73172">
        <ele>290.8</ele>
        <time>2025-12-11T15:53:31Z</time>
      </trkpt>
      <trkpt lat="45.72314" lon="4.73177">
        <ele>290.8</ele>
        <time>2025-12-11T15:53:32Z</time>
      </trkpt>
      <trkpt lat="45.72317" lon="4.73182">
        <ele>290.8</ele>
        <time>2025-12-11T15:53:33Z</time>
      </trkpt>
      <trkpt lat="45.7232" lon="4.73186">
        <ele>290.8</ele>
        <time>2025-12-11T15:53:34Z</time>
      </trkpt>
      <trkpt lat="45.72323" lon="4.7319">
        <ele>290.8</ele>
        <time>2025-12-11T15:53:35Z</time>
      </trkpt>
      <trkpt lat="45.72326" lon="4.73194">
        <ele>290.8</ele>
        <time>2025-12-11T15:53:36Z</time>
      </trkpt>
      <trkpt lat="45.7233" lon="4.73199">
        <ele>290.6</ele>
        <time>2025-12-11T15:53:37Z</time>
      </trkpt>
      <trkpt lat="45.72333" lon="4.73203">
        <ele>290.6</ele>
        <time>2025-12-11T15:53:38Z</time>
      </trkpt>
      <trkpt lat="45.72336" lon="4.73208">
        <ele>290.6</ele>
        <time>2025-12-11T15:53:39Z</time>
      </trkpt>
      <trkpt lat="45.72339" lon="4.73213">
        <ele>290.4</ele>
        <time>2025-12-11T15:53:40Z</time>
      </trkpt>
      <trkpt lat="45.72342" lon="4.73218">
        <ele>290.4</ele>
        <time>2025-12-11T15:53:41Z</time>
      </trkpt>
      <trkpt lat="45.72345" lon="4.73223">
        <ele>290.2</ele>
        <time>2025-12-11T15:53:42Z</time>
      </trkpt>
      <trkpt lat="45.72348" lon="4.73228">
        <ele>290.2</ele>
        <time>2025-12-11T15:53:43Z</time>
      </trkpt>
      <trkpt lat="45.72351" lon="4.73233">
        <ele>290.2</ele>
        <time>2025-12-11T15:53:44Z</time>
      </trkpt>
      <trkpt lat="45.72354" lon="4.73238">
        <ele>290.2</ele>
        <time>2025-12-11T15:53:45Z</time>
      </trkpt>
      <trkpt lat="45.72358" lon="4.73243">
        <ele>290</ele>
        <time>2025-12-11T15:53:46Z</time>
      </trkpt>
      <trkpt lat="45.72361" lon="4.73249">
        <ele>289.8</ele>
        <time>2025-12-11T15:53:47Z</time>
      </trkpt>
      <trkpt lat="45.72365" lon="4.73256">
        <ele>289.6</ele>
        <time>2025-12-11T15:53:48Z</time>
      </trkpt>
      <trkpt lat="45.72368" lon="4.73262">
        <ele>289.4</ele>
        <time>2025-12-11T15:53:49Z</time>
      </trkpt>
      <trkpt lat="45.72372" lon="4.73268">
        <ele>289.2</ele>
        <time>2025-12-11T15:53:50Z</time>
      </trkpt>
      <trkpt lat="45.72376" lon="4.73275">
        <ele>289</ele>
        <time>2025-12-11T15:53:51Z</time>
      </trkpt>
      <trkpt lat="45.7238" lon="4.73281">
        <ele>288.8</ele>
        <time>2025-12-11T15:53:52Z</time>
      </trkpt>
      <trkpt lat="45.72383" lon="4.73288">
        <ele>288.6</ele>
        <time>2025-12-11T15:53:53Z</time>
      </trkpt>
      <trkpt lat="45.72387" lon="4.73295">
        <ele>288.2</ele>
        <time>2025-12-11T15:53:54Z</time>
      </trkpt>
      <trkpt lat="45.72391" lon="4.73302">
        <ele>288</ele>
        <time>2025-12-11T15:53:55Z</time>
      </trkpt>
      <trkpt lat="45.72395" lon="4.73308">
        <ele>288</ele>
        <time>2025-12-11T15:53:56Z</time>
      </trkpt>
      <trkpt lat="45.72399" lon="4.73315">
        <ele>287.8</ele>
        <time>2025-12-11T15:53:57Z</time>
      </trkpt>
      <trkpt lat="45.72403" lon="4.73322">
        <ele>287.6</ele>
        <time>2025-12-11T15:53:58Z</time>
      </trkpt>
      <trkpt lat="45.72407" lon="4.73329">
        <ele>287.4</ele>
        <time>2025-12-11T15:53:59Z</time>
      </trkpt>
      <trkpt lat="45.72411" lon="4.73337">
        <ele>287.2</ele>
        <time>2025-12-11T15:54:00Z</time>
      </trkpt>
      <trkpt lat="45.72415" lon="4.73344">
        <ele>287</ele>
        <time>2025-12-11T15:54:01Z</time>
      </trkpt>
      <trkpt lat="45.72419" lon="4.73352">
        <ele>286.8</ele>
        <time>2025-12-11T15:54:02Z</time>
      </trkpt>
      <trkpt lat="45.72423" lon="4.73359">
        <ele>286.6</ele>
        <time>2025-12-11T15:54:03Z</time>
      </trkpt>
      <trkpt lat="45.72428" lon="4.73367">
        <ele>286.4</ele>
        <time>2025-12-11T15:54:04Z</time>
      </trkpt>
      <trkpt lat="45.72431" lon="4.73375">
        <ele>286</ele>
        <time>2025-12-11T15:54:05Z</time>
      </trkpt>
      <trkpt lat="45.72435" lon="4.73383">
        <ele>285.6</ele>
        <time>2025-12-11T15:54:06Z</time>
      </trkpt>
      <trkpt lat="45.72439" lon="4.73392">
        <ele>285.2</ele>
        <time>2025-12-11T15:54:07Z</time>
      </trkpt>
      <trkpt lat="45.72443" lon="4.73401">
        <ele>284.8</ele>
        <time>2025-12-11T15:54:08Z</time>
      </trkpt>
      <trkpt lat="45.72447" lon="4.7341">
        <ele>284.2</ele>
        <time>2025-12-11T15:54:09Z</time>
      </trkpt>
      <trkpt lat="45.72451" lon="4.7342">
        <ele>283.6</ele>
        <time>2025-12-11T15:54:10Z</time>
      </trkpt>
      <trkpt lat="45.72455" lon="4.7343">
        <ele>283</ele>
        <time>2025-12-11T15:54:11Z</time>
      </trkpt>
      <trkpt lat="45.72459" lon="4.7344">
        <ele>282.4</ele>
        <time>2025-12-11T15:54:12Z</time>
      </trkpt>
      <trkpt lat="45.72464" lon="4.73451">
        <ele>281.6</ele>
        <time>2025-12-11T15:54:13Z</time>
      </trkpt>
      <trkpt lat="45.72469" lon="4.73461">
        <ele>280.8</ele>
        <time>2025-12-11T15:54:14Z</time>
      </trkpt>
      <trkpt lat="45.72474" lon="4.73471">
        <ele>279.8</ele>
        <time>2025-12-11T15:54:15Z</time>
      </trkpt>
      <trkpt lat="45.7248" lon="4.73481">
        <ele>278.8</ele>
        <time>2025-12-11T15:54:16Z</time>
      </trkpt>
      <trkpt lat="45.72487" lon="4.7349">
        <ele>277.8</ele>
        <time>2025-12-11T15:54:17Z</time>
      </trkpt>
      <trkpt lat="45.72494" lon="4.73499">
        <ele>277</ele>
        <time>2025-12-11T15:54:18Z</time>
      </trkpt>
      <trkpt lat="45.72501" lon="4.73508">
        <ele>276.4</ele>
        <time>2025-12-11T15:54:19Z</time>
      </trkpt>
      <trkpt lat="45.72508" lon="4.73516">
        <ele>275.8</ele>
        <time>2025-12-11T15:54:20Z</time>
      </trkpt>
      <trkpt lat="45.72515" lon="4.73525">
        <ele>275.2</ele>
        <time>2025-12-11T15:54:21Z</time>
      </trkpt>
      <trkpt lat="45.72522" lon="4.73533">
        <ele>274.6</ele>
        <time>2025-12-11T15:54:22Z</time>
      </trkpt>
      <trkpt lat="45.72529" lon="4.73542">
        <ele>274.2</ele>
        <time>2025-12-11T15:54:23Z</time>
      </trkpt>
      <trkpt lat="45.72535" lon="4.7355">
        <ele>274</ele>
        <time>2025-12-11T15:54:24Z</time>
      </trkpt>
      <trkpt lat="45.72539" lon="4.73558">
        <ele>273.6</ele>
        <time>2025-12-11T15:54:25Z</time>
      </trkpt>
      <trkpt lat="45.72542" lon="4.73567">
        <ele>273.4</ele>
        <time>2025-12-11T15:54:26Z</time>
      </trkpt>
      <trkpt lat="45.72544" lon="4.73576">
        <ele>273.2</ele>
        <time>2025-12-11T15:54:27Z</time>
      </trkpt>
      <trkpt lat="45.72542" lon="4.73584">
        <ele>272.8</ele>
        <time>2025-12-11T15:54:28Z</time>
      </trkpt>
      <trkpt lat="45.7254" lon="4.73593">
        <ele>272.4</ele>
        <time>2025-12-11T15:54:29Z</time>
      </trkpt>
      <trkpt lat="45.72536" lon="4.73602">
        <ele>271.8</ele>
        <time>2025-12-11T15:54:30Z</time>
      </trkpt>
      <trkpt lat="45.72532" lon="4.7361">
        <ele>271.4</ele>
        <time>2025-12-11T15:54:31Z</time>
      </trkpt>
      <trkpt lat="45.72528" lon="4.73618">
        <ele>271.2</ele>
        <time>2025-12-11T15:54:32Z</time>
      </trkpt>
      <trkpt lat="45.72524" lon="4.73626">
        <ele>271</ele>
        <time>2025-12-11T15:54:33Z</time>
      </trkpt>
      <trkpt lat="45.7252" lon="4.73633">
        <ele>271</ele>
        <time>2025-12-11T15:54:34Z</time>
      </trkpt>
      <trkpt lat="45.72515" lon="4.7364">
        <ele>271</ele>
        <time>2025-12-11T15:54:35Z</time>
      </trkpt>
      <trkpt lat="45.7251" lon="4.73646">
        <ele>271.2</ele>
        <time>2025-12-11T15:54:36Z</time>
      </trkpt>
      <trkpt lat="45.72505" lon="4.73651">
        <ele>271.4</ele>
        <time>2025-12-11T15:54:37Z</time>
      </trkpt>
      <trkpt lat="45.725" lon="4.73656">
        <ele>271.8</ele>
        <time>2025-12-11T15:54:38Z</time>
      </trkpt>
      <trkpt lat="45.72495" lon="4.73661">
        <ele>272.2</ele>
        <time>2025-12-11T15:54:39Z</time>
      </trkpt>
      <trkpt lat="45.72491" lon="4.73665">
        <ele>272.4</ele>
        <time>2025-12-11T15:54:40Z</time>
      </trkpt>
      <trkpt lat="45.72486" lon="4.73669">
        <ele>272.8</ele>
        <time>2025-12-11T15:54:41Z</time>
      </trkpt>
      <trkpt lat="45.72482" lon="4.73673">
        <ele>273.2</ele>
        <time>2025-12-11T15:54:42Z</time>
      </trkpt>
      <trkpt lat="45.72478" lon="4.73677">
        <ele>273.4</ele>
        <time>2025-12-11T15:54:43Z</time>
      </trkpt>
      <trkpt lat="45.72474" lon="4.73681">
        <ele>273.8</ele>
        <time>2025-12-11T15:54:44Z</time>
      </trkpt>
      <trkpt lat="45.7247" lon="4.73684">
        <ele>274</ele>
        <time>2025-12-11T15:54:45Z</time>
      </trkpt>
      <trkpt lat="45.72466" lon="4.73687">
        <ele>274.4</ele>
        <time>2025-12-11T15:54:46Z</time>
      </trkpt>
      <trkpt lat="45.72462" lon="4.73691">
        <ele>274.6</ele>
        <time>2025-12-11T15:54:47Z</time>
      </trkpt>
      <trkpt lat="45.72459" lon="4.73694">
        <ele>275</ele>
        <time>2025-12-11T15:54:48Z</time>
      </trkpt>
      <trkpt lat="45.72455" lon="4.73697">
        <ele>275.2</ele>
        <time>2025-12-11T15:54:49Z</time>
      </trkpt>
      <trkpt lat="45.72452" lon="4.737">
        <ele>275.4</ele>
        <time>2025-12-11T15:54:50Z</time>
      </trkpt>
      <trkpt lat="45.72449" lon="4.73703">
        <ele>275.6</ele>
        <time>2025-12-11T15:54:51Z</time>
      </trkpt>
      <trkpt lat="45.72446" lon="4.73706">
        <ele>275.8</ele>
        <time>2025-12-11T15:54:52Z</time>
      </trkpt>
      <trkpt lat="45.72443" lon="4.73709">
        <ele>276</ele>
        <time>2025-12-11T15:54:53Z</time>
      </trkpt>
      <trkpt lat="45.72441" lon="4.73712">
        <ele>276.4</ele>
        <time>2025-12-11T15:54:54Z</time>
      </trkpt>
      <trkpt lat="45.72438" lon="4.73715">
        <ele>276.4</ele>
        <time>2025-12-11T15:54:55Z</time>
      </trkpt>
      <trkpt lat="45.72435" lon="4.73718">
        <ele>276.6</ele>
        <time>2025-12-11T15:54:56Z</time>
      </trkpt>
      <trkpt lat="45.72432" lon="4.7372">
        <ele>276.8</ele>
        <time>2025-12-11T15:54:57Z</time>
      </trkpt>
      <trkpt lat="45.7243" lon="4.73724">
        <ele>277</ele>
        <time>2025-12-11T15:54:58Z</time>
      </trkpt>
      <trkpt lat="45.72427" lon="4.73726">
        <ele>277.2</ele>
        <time>2025-12-11T15:54:59Z</time>
      </trkpt>
      <trkpt lat="45.72424" lon="4.73728">
        <ele>277.4</ele>
        <time>2025-12-11T15:55:00Z</time>
      </trkpt>
      <trkpt lat="45.72421" lon="4.7373">
        <ele>277.6</ele>
        <time>2025-12-11T15:55:01Z</time>
      </trkpt>
      <trkpt lat="45.72418" lon="4.73732">
        <ele>277.8</ele>
        <time>2025-12-11T15:55:02Z</time>
      </trkpt>
      <trkpt lat="45.72416" lon="4.73734">
        <ele>278</ele>
        <time>2025-12-11T15:55:03Z</time>
      </trkpt>
      <trkpt lat="45.72413" lon="4.73735">
        <ele>278.2</ele>
        <time>2025-12-11T15:55:04Z</time>
      </trkpt>
      <trkpt lat="45.7241" lon="4.73736">
        <ele>278.4</ele>
        <time>2025-12-11T15:55:05Z</time>
      </trkpt>
      <trkpt lat="45.72408" lon="4.73738">
        <ele>278.6</ele>
        <time>2025-12-11T15:55:06Z</time>
      </trkpt>
      <trkpt lat="45.72405" lon="4.7374">
        <ele>278.8</ele>
        <time>2025-12-11T15:55:07Z</time>
      </trkpt>
      <trkpt lat="45.72402" lon="4.73741">
        <ele>279</ele>
        <time>2025-12-11T15:55:08Z</time>
      </trkpt>
      <trkpt lat="45.724" lon="4.73742">
        <ele>279.2</ele>
        <time>2025-12-11T15:55:09Z</time>
      </trkpt>
      <trkpt lat="45.72397" lon="4.73743">
        <ele>279.2</ele>
        <time>2025-12-11T15:55:10Z</time>
      </trkpt>
      <trkpt lat="45.72395" lon="4.73744">
        <ele>279.4</ele>
        <time>2025-12-11T15:55:11Z</time>
      </trkpt>
      <trkpt lat="45.72392" lon="4.73745">
        <ele>279.6</ele>
        <time>2025-12-11T15:55:12Z</time>
      </trkpt>
      <trkpt lat="45.72389" lon="4.73746">
        <ele>279.6</ele>
        <time>2025-12-11T15:55:13Z</time>
      </trkpt>
      <trkpt lat="45.72386" lon="4.73747">
        <ele>279.8</ele>
        <time>2025-12-11T15:55:14Z</time>
      </trkpt>
      <trkpt lat="45.72384" lon="4.73749">
        <ele>280</ele>
        <time>2025-12-11T15:55:15Z</time>
      </trkpt>
      <trkpt lat="45.72381" lon="4.7375">
        <ele>280</ele>
        <time>2025-12-11T15:55:16Z</time>
      </trkpt>
      <trkpt lat="45.72379" lon="4.73752">
        <ele>280.2</ele>
        <time>2025-12-11T15:55:17Z</time>
      </trkpt>
      <trkpt lat="45.72376" lon="4.73753">
        <ele>280.4</ele>
        <time>2025-12-11T15:55:18Z</time>
      </trkpt>
      <trkpt lat="45.72373" lon="4.73754">
        <ele>280.4</ele>
        <time>2025-12-11T15:55:19Z</time>
      </trkpt>
      <trkpt lat="45.72371" lon="4.73756">
        <ele>280.6</ele>
        <time>2025-12-11T15:55:20Z</time>
      </trkpt>
      <trkpt lat="45.72368" lon="4.73758">
        <ele>280.6</ele>
        <time>2025-12-11T15:55:21Z</time>
      </trkpt>
      <trkpt lat="45.72365" lon="4.73759">
        <ele>280.8</ele>
        <time>2025-12-11T15:55:22Z</time>
      </trkpt>
      <trkpt lat="45.72363" lon="4.7376">
        <ele>281</ele>
        <time>2025-12-11T15:55:23Z</time>
      </trkpt>
      <trkpt lat="45.7236" lon="4.73761">
        <ele>281</ele>
        <time>2025-12-11T15:55:24Z</time>
      </trkpt>
      <trkpt lat="45.72357" lon="4.73763">
        <ele>281.2</ele>
        <time>2025-12-11T15:55:25Z</time>
      </trkpt>
      <trkpt lat="45.72355" lon="4.73765">
        <ele>281.2</ele>
        <time>2025-12-11T15:55:26Z</time>
      </trkpt>
      <trkpt lat="45.72352" lon="4.73766">
        <ele>281.4</ele>
        <time>2025-12-11T15:55:27Z</time>
      </trkpt>
      <trkpt lat="45.72349" lon="4.73767">
        <ele>281.4</ele>
        <time>2025-12-11T15:55:28Z</time>
      </trkpt>
      <trkpt lat="45.72346" lon="4.73769">
        <ele>281.6</ele>
        <time>2025-12-11T15:55:29Z</time>
      </trkpt>
      <trkpt lat="45.72343" lon="4.73771">
        <ele>281.6</ele>
        <time>2025-12-11T15:55:30Z</time>
      </trkpt>
      <trkpt lat="45.72341" lon="4.73772">
        <ele>281.8</ele>
        <time>2025-12-11T15:55:31Z</time>
      </trkpt>
      <trkpt lat="45.72339" lon="4.73774">
        <ele>282</ele>
        <time>2025-12-11T15:55:32Z</time>
      </trkpt>
      <trkpt lat="45.72336" lon="4.73776">
        <ele>282</ele>
        <time>2025-12-11T15:55:33Z</time>
      </trkpt>
      <trkpt lat="45.72333" lon="4.73778">
        <ele>282.2</ele>
        <time>2025-12-11T15:55:34Z</time>
      </trkpt>
      <trkpt lat="45.72331" lon="4.7378">
        <ele>282.2</ele>
        <time>2025-12-11T15:55:35Z</time>
      </trkpt>
      <trkpt lat="45.72329" lon="4.73782">
        <ele>282.4</ele>
        <time>2025-12-11T15:55:36Z</time>
      </trkpt>
      <trkpt lat="45.72327" lon="4.73785">
        <ele>282.6</ele>
        <time>2025-12-11T15:55:37Z</time>
      </trkpt>
      <trkpt lat="45.72325" lon="4.73787">
        <ele>282.6</ele>
        <time>2025-12-11T15:55:38Z</time>
      </trkpt>
      <trkpt lat="45.72323" lon="4.73789">
        <ele>282.8</ele>
        <time>2025-12-11T15:55:39Z</time>
      </trkpt>
      <trkpt lat="45.7232" lon="4.7379">
        <ele>283</ele>
        <time>2025-12-11T15:55:40Z</time>
      </trkpt>
      <trkpt lat="45.72318" lon="4.73793">
        <ele>283</ele>
        <time>2025-12-11T15:55:41Z</time>
      </trkpt>
      <trkpt lat="45.72315" lon="4.73795">
        <ele>283.2</ele>
        <time>2025-12-11T15:55:42Z</time>
      </trkpt>
      <trkpt lat="45.72313" lon="4.73797">
        <ele>283.4</ele>
        <time>2025-12-11T15:55:43Z</time>
      </trkpt>
      <trkpt lat="45.72311" lon="4.738">
        <ele>283.4</ele>
        <time>2025-12-11T15:55:44Z</time>
      </trkpt>
      <trkpt lat="45.72309" lon="4.73802">
        <ele>283.6</ele>
        <time>2025-12-11T15:55:45Z</time>
      </trkpt>
      <trkpt lat="45.72307" lon="4.73804">
        <ele>283.8</ele>
        <time>2025-12-11T15:55:46Z</time>
      </trkpt>
      <trkpt lat="45.72305" lon="4.73806">
        <ele>283.8</ele>
        <time>2025-12-11T15:55:47Z</time>
      </trkpt>
      <trkpt lat="45.72303" lon="4.73808">
        <ele>284</ele>
        <time>2025-12-11T15:55:48Z</time>
      </trkpt>
      <trkpt lat="45.72301" lon="4.73811">
        <ele>284.2</ele>
        <time>2025-12-11T15:55:49Z</time>
      </trkpt>
      <trkpt lat="45.72299" lon="4.73813">
        <ele>284.2</ele>
        <time>2025-12-11T15:55:50Z</time>
      </trkpt>
      <trkpt lat="45.72297" lon="4.73815">
        <ele>284.4</ele>
        <time>2025-12-11T15:55:51Z</time>
      </trkpt>
      <trkpt lat="45.72295" lon="4.73817">
        <ele>284.6</ele>
        <time>2025-12-11T15:55:52Z</time>
      </trkpt>
      <trkpt lat="45.72293" lon="4.73819">
        <ele>284.8</ele>
        <time>2025-12-11T15:55:53Z</time>
      </trkpt>
      <trkpt lat="45.72292" lon="4.73821">
        <ele>285</ele>
        <time>2025-12-11T15:55:54Z</time>
      </trkpt>
      <trkpt lat="45.72291" lon="4.73824">
        <ele>285.2</ele>
        <time>2025-12-11T15:55:55Z</time>
      </trkpt>
      <trkpt lat="45.7229" lon="4.73825">
        <ele>285.4</ele>
        <time>2025-12-11T15:55:56Z</time>
      </trkpt>
      <trkpt lat="45.72289" lon="4.73827">
        <ele>285.6</ele>
        <time>2025-12-11T15:55:57Z</time>
      </trkpt>
      <trkpt lat="45.72288" lon="4.73829">
        <ele>285.8</ele>
        <time>2025-12-11T15:55:58Z</time>
      </trkpt>
      <trkpt lat="45.72288" lon="4.73831">
        <ele>285.8</ele>
        <time>2025-12-11T15:55:59Z</time>
      </trkpt>
      <trkpt lat="45.72287" lon="4.73834">
        <ele>286</ele>
        <time>2025-12-11T15:56:00Z</time>
      </trkpt>
      <trkpt lat="45.72286" lon="4.73836">
        <ele>286.2</ele>
        <time>2025-12-11T15:56:01Z</time>
      </trkpt>
      <trkpt lat="45.72284" lon="4.73838">
        <ele>286.2</ele>
        <time>2025-12-11T15:56:02Z</time>
      </trkpt>
      <trkpt lat="45.72283" lon="4.73841">
        <ele>286.4</ele>
        <time>2025-12-11T15:56:03Z</time>
      </trkpt>
      <trkpt lat="45.72282" lon="4.73844">
        <ele>286.4</ele>
        <time>2025-12-11T15:56:04Z</time>
      </trkpt>
      <trkpt lat="45.72281" lon="4.73847">
        <ele>286.6</ele>
        <time>2025-12-11T15:56:05Z</time>
      </trkpt>
      <trkpt lat="45.72279" lon="4.73849">
        <ele>286.6</ele>
        <time>2025-12-11T15:56:06Z</time>
      </trkpt>
      <trkpt lat="45.72278" lon="4.73852">
        <ele>286.6</ele>
        <time>2025-12-11T15:56:07Z</time>
      </trkpt>
      <trkpt lat="45.72277" lon="4.73855">
        <ele>286.8</ele>
        <time>2025-12-11T15:56:08Z</time>
      </trkpt>
      <trkpt lat="45.72276" lon="4.73858">
        <ele>286.8</ele>
        <time>2025-12-11T15:56:09Z</time>
      </trkpt>
      <trkpt lat="45.72275" lon="4.73861">
        <ele>286.8</ele>
        <time>2025-12-11T15:56:10Z</time>
      </trkpt>
      <trkpt lat="45.72274" lon="4.73864">
        <ele>287</ele>
        <time>2025-12-11T15:56:11Z</time>
      </trkpt>
      <trkpt lat="45.72272" lon="4.73867">
        <ele>287</ele>
        <time>2025-12-11T15:56:12Z</time>
      </trkpt>
      <trkpt lat="45.72271" lon="4.73871">
        <ele>287</ele>
        <time>2025-12-11T15:56:13Z</time>
      </trkpt>
      <trkpt lat="45.7227" lon="4.73874">
        <ele>287.2</ele>
        <time>2025-12-11T15:56:14Z</time>
      </trkpt>
      <trkpt lat="45.72269" lon="4.73877">
        <ele>287.2</ele>
        <time>2025-12-11T15:56:15Z</time>
      </trkpt>
      <trkpt lat="45.72267" lon="4.73881">
        <ele>287.2</ele>
        <time>2025-12-11T15:56:16Z</time>
      </trkpt>
      <trkpt lat="45.72266" lon="4.73884">
        <ele>287.4</ele>
        <time>2025-12-11T15:56:17Z</time>
      </trkpt>
      <trkpt lat="45.72265" lon="4.73887">
        <ele>287.4</ele>
        <time>2025-12-11T15:56:18Z</time>
      </trkpt>
      <trkpt lat="45.72264" lon="4.73891">
        <ele>287.6</ele>
        <time>2025-12-11T15:56:19Z</time>
      </trkpt>
      <trkpt lat="45.72263" lon="4.73894">
        <ele>287.6</ele>
        <time>2025-12-11T15:56:20Z</time>
      </trkpt>
      <trkpt lat="45.72262" lon="4.73897">
        <ele>287.8</ele>
        <time>2025-12-11T15:56:21Z</time>
      </trkpt>
      <trkpt lat="45.7226" lon="4.739">
        <ele>287.8</ele>
        <time>2025-12-11T15:56:22Z</time>
      </trkpt>
      <trkpt lat="45.72259" lon="4.73903">
        <ele>287.8</ele>
        <time>2025-12-11T15:56:23Z</time>
      </trkpt>
      <trkpt lat="45.72257" lon="4.73906">
        <ele>288</ele>
        <time>2025-12-11T15:56:24Z</time>
      </trkpt>
      <trkpt lat="45.72256" lon="4.73909">
        <ele>288</ele>
        <time>2025-12-11T15:56:25Z</time>
      </trkpt>
      <trkpt lat="45.72254" lon="4.73912">
        <ele>288</ele>
        <time>2025-12-11T15:56:26Z</time>
      </trkpt>
      <trkpt lat="45.72253" lon="4.73915">
        <ele>288</ele>
        <time>2025-12-11T15:56:27Z</time>
      </trkpt>
      <trkpt lat="45.72252" lon="4.73919">
        <ele>288.2</ele>
        <time>2025-12-11T15:56:28Z</time>
      </trkpt>
      <trkpt lat="45.72251" lon="4.73922">
        <ele>288.2</ele>
        <time>2025-12-11T15:56:29Z</time>
      </trkpt>
      <trkpt lat="45.7225" lon="4.73924">
        <ele>288.4</ele>
        <time>2025-12-11T15:56:30Z</time>
      </trkpt>
      <trkpt lat="45.72248" lon="4.73926">
        <ele>288.4</ele>
        <time>2025-12-11T15:56:31Z</time>
      </trkpt>
      <trkpt lat="45.72247" lon="4.73929">
        <ele>288.6</ele>
        <time>2025-12-11T15:56:32Z</time>
      </trkpt>
      <trkpt lat="45.72245" lon="4.73932">
        <ele>288.6</ele>
        <time>2025-12-11T15:56:33Z</time>
      </trkpt>
      <trkpt lat="45.72244" lon="4.73935">
        <ele>288.6</ele>
        <time>2025-12-11T15:56:34Z</time>
      </trkpt>
      <trkpt lat="45.72242" lon="4.73937">
        <ele>288.6</ele>
        <time>2025-12-11T15:56:35Z</time>
      </trkpt>
      <trkpt lat="45.72241" lon="4.7394">
        <ele>288.8</ele>
        <time>2025-12-11T15:56:36Z</time>
      </trkpt>
      <trkpt lat="45.72239" lon="4.73943">
        <ele>288.8</ele>
        <time>2025-12-11T15:56:37Z</time>
      </trkpt>
      <trkpt lat="45.72238" lon="4.73946">
        <ele>289</ele>
        <time>2025-12-11T15:56:38Z</time>
      </trkpt>
      <trkpt lat="45.72236" lon="4.73949">
        <ele>289</ele>
        <time>2025-12-11T15:56:39Z</time>
      </trkpt>
      <trkpt lat="45.72235" lon="4.73952">
        <ele>289.2</ele>
        <time>2025-12-11T15:56:40Z</time>
      </trkpt>
      <trkpt lat="45.72233" lon="4.73955">
        <ele>289.2</ele>
        <time>2025-12-11T15:56:41Z</time>
      </trkpt>
      <trkpt lat="45.72231" lon="4.73958">
        <ele>289.4</ele>
        <time>2025-12-11T15:56:42Z</time>
      </trkpt>
      <trkpt lat="45.7223" lon="4.73961">
        <ele>289.6</ele>
        <time>2025-12-11T15:56:43Z</time>
      </trkpt>
      <trkpt lat="45.72228" lon="4.73964">
        <ele>289.6</ele>
        <time>2025-12-11T15:56:44Z</time>
      </trkpt>
      <trkpt lat="45.72227" lon="4.73967">
        <ele>289.8</ele>
        <time>2025-12-11T15:56:45Z</time>
      </trkpt>
      <trkpt lat="45.72225" lon="4.73969">
        <ele>290</ele>
        <time>2025-12-11T15:56:46Z</time>
      </trkpt>
      <trkpt lat="45.72223" lon="4.73972">
        <ele>290</ele>
        <time>2025-12-11T15:56:47Z</time>
      </trkpt>
      <trkpt lat="45.72222" lon="4.73975">
        <ele>290.2</ele>
        <time>2025-12-11T15:56:48Z</time>
      </trkpt>
      <trkpt lat="45.7222" lon="4.73977">
        <ele>290.4</ele>
        <time>2025-12-11T15:56:49Z</time>
      </trkpt>
      <trkpt lat="45.72219" lon="4.7398">
        <ele>290.4</ele>
        <time>2025-12-11T15:56:50Z</time>
      </trkpt>
      <trkpt lat="45.72217" lon="4.73983">
        <ele>290.6</ele>
        <time>2025-12-11T15:56:51Z</time>
      </trkpt>
      <trkpt lat="45.72215" lon="4.73985">
        <ele>290.6</ele>
        <time>2025-12-11T15:56:52Z</time>
      </trkpt>
      <trkpt lat="45.72214" lon="4.73988">
        <ele>290.8</ele>
        <time>2025-12-11T15:56:53Z</time>
      </trkpt>
      <trkpt lat="45.72213" lon="4.73991">
        <ele>290.8</ele>
        <time>2025-12-11T15:56:54Z</time>
      </trkpt>
      <trkpt lat="45.72211" lon="4.73993">
        <ele>291</ele>
        <time>2025-12-11T15:56:55Z</time>
      </trkpt>
      <trkpt lat="45.7221" lon="4.73996">
        <ele>291.2</ele>
        <time>2025-12-11T15:56:56Z</time>
      </trkpt>
      <trkpt lat="45.72209" lon="4.73998">
        <ele>291.4</ele>
        <time>2025-12-11T15:56:57Z</time>
      </trkpt>
      <trkpt lat="45.72207" lon="4.74001">
        <ele>291.4</ele>
        <time>2025-12-11T15:56:58Z</time>
      </trkpt>
      <trkpt lat="45.72206" lon="4.74003">
        <ele>291.6</ele>
        <time>2025-12-11T15:56:59Z</time>
      </trkpt>
      <trkpt lat="45.72205" lon="4.74005">
        <ele>291.8</ele>
        <time>2025-12-11T15:57:00Z</time>
      </trkpt>
      <trkpt lat="45.72204" lon="4.74007">
        <ele>291.8</ele>
        <time>2025-12-11T15:57:01Z</time>
      </trkpt>
      <trkpt lat="45.72202" lon="4.74009">
        <ele>291.8</ele>
        <time>2025-12-11T15:57:02Z</time>
      </trkpt>
      <trkpt lat="45.72201" lon="4.74012">
        <ele>292</ele>
        <time>2025-12-11T15:57:03Z</time>
      </trkpt>
      <trkpt lat="45.722" lon="4.74014">
        <ele>292.2</ele>
        <time>2025-12-11T15:57:04Z</time>
      </trkpt>
      <trkpt lat="45.72199" lon="4.74016">
        <ele>292.2</ele>
        <time>2025-12-11T15:57:05Z</time>
      </trkpt>
      <trkpt lat="45.72198" lon="4.74018">
        <ele>292.2</ele>
        <time>2025-12-11T15:57:06Z</time>
      </trkpt>
      <trkpt lat="45.72196" lon="4.7402">
        <ele>292.4</ele>
        <time>2025-12-11T15:57:07Z</time>
      </trkpt>
      <trkpt lat="45.72195" lon="4.74023">
        <ele>292.4</ele>
        <time>2025-12-11T15:57:08Z</time>
      </trkpt>
      <trkpt lat="45.72194" lon="4.74025">
        <ele>292.6</ele>
        <time>2025-12-11T15:57:09Z</time>
      </trkpt>
      <trkpt lat="45.72192" lon="4.74028">
        <ele>292.8</ele>
        <time>2025-12-11T15:57:10Z</time>
      </trkpt>
      <trkpt lat="45.7219" lon="4.7403">
        <ele>292.8</ele>
        <time>2025-12-11T15:57:11Z</time>
      </trkpt>
      <trkpt lat="45.72189" lon="4.74032">
        <ele>293</ele>
        <time>2025-12-11T15:57:12Z</time>
      </trkpt>
      <trkpt lat="45.72187" lon="4.74034">
        <ele>293</ele>
        <time>2025-12-11T15:57:13Z</time>
      </trkpt>
      <trkpt lat="45.72186" lon="4.74037">
        <ele>293.2</ele>
        <time>2025-12-11T15:57:14Z</time>
      </trkpt>
      <trkpt lat="45.72185" lon="4.74039">
        <ele>293.2</ele>
        <time>2025-12-11T15:57:15Z</time>
      </trkpt>
      <trkpt lat="45.72183" lon="4.74042">
        <ele>293.4</ele>
        <time>2025-12-11T15:57:16Z</time>
      </trkpt>
      <trkpt lat="45.72182" lon="4.74044">
        <ele>293.6</ele>
        <time>2025-12-11T15:57:17Z</time>
      </trkpt>
      <trkpt lat="45.72181" lon="4.74047">
        <ele>293.8</ele>
        <time>2025-12-11T15:57:18Z</time>
      </trkpt>
      <trkpt lat="45.7218" lon="4.7405">
        <ele>293.8</ele>
        <time>2025-12-11T15:57:19Z</time>
      </trkpt>
      <trkpt lat="45.72179" lon="4.74052">
        <ele>294</ele>
        <time>2025-12-11T15:57:20Z</time>
      </trkpt>
      <trkpt lat="45.72178" lon="4.74055">
        <ele>294.2</ele>
        <time>2025-12-11T15:57:21Z</time>
      </trkpt>
      <trkpt lat="45.72176" lon="4.74057">
        <ele>294.2</ele>
        <time>2025-12-11T15:57:22Z</time>
      </trkpt>
      <trkpt lat="45.72175" lon="4.74059">
        <ele>294.4</ele>
        <time>2025-12-11T15:57:23Z</time>
      </trkpt>
      <trkpt lat="45.72173" lon="4.74061">
        <ele>294.4</ele>
        <time>2025-12-11T15:57:24Z</time>
      </trkpt>
      <trkpt lat="45.72171" lon="4.74063">
        <ele>294.4</ele>
        <time>2025-12-11T15:57:25Z</time>
      </trkpt>
      <trkpt lat="45.7217" lon="4.74066">
        <ele>294.4</ele>
        <time>2025-12-11T15:57:26Z</time>
      </trkpt>
      <trkpt lat="45.72168" lon="4.74068">
        <ele>294.6</ele>
        <time>2025-12-11T15:57:27Z</time>
      </trkpt>
      <trkpt lat="45.72167" lon="4.74071">
        <ele>294.6</ele>
        <time>2025-12-11T15:57:28Z</time>
      </trkpt>
      <trkpt lat="45.72165" lon="4.74073">
        <ele>294.6</ele>
        <time>2025-12-11T15:57:29Z</time>
      </trkpt>
      <trkpt lat="45.72164" lon="4.74076">
        <ele>294.6</ele>
        <time>2025-12-11T15:57:30Z</time>
      </trkpt>
      <trkpt lat="45.72162" lon="4.74078">
        <ele>294.6</ele>
        <time>2025-12-11T15:57:31Z</time>
      </trkpt>
      <trkpt lat="45.7216" lon="4.74081">
        <ele>294.8</ele>
        <time>2025-12-11T15:57:32Z</time>
      </trkpt>
      <trkpt lat="45.72159" lon="4.74084">
        <ele>294.8</ele>
        <time>2025-12-11T15:57:33Z</time>
      </trkpt>
      <trkpt lat="45.72157" lon="4.74086">
        <ele>294.8</ele>
        <time>2025-12-11T15:57:34Z</time>
      </trkpt>
      <trkpt lat="45.72155" lon="4.74089">
        <ele>294.8</ele>
        <time>2025-12-11T15:57:35Z</time>
      </trkpt>
      <trkpt lat="45.72154" lon="4.74092">
        <ele>295</ele>
        <time>2025-12-11T15:57:36Z</time>
      </trkpt>
      <trkpt lat="45.72152" lon="4.74094">
        <ele>295</ele>
        <time>2025-12-11T15:57:37Z</time>
      </trkpt>
      <trkpt lat="45.7215" lon="4.74097">
        <ele>295</ele>
        <time>2025-12-11T15:57:38Z</time>
      </trkpt>
      <trkpt lat="45.72148" lon="4.741">
        <ele>295.2</ele>
        <time>2025-12-11T15:57:39Z</time>
      </trkpt>
      <trkpt lat="45.72147" lon="4.74103">
        <ele>295.2</ele>
        <time>2025-12-11T15:57:40Z</time>
      </trkpt>
      <trkpt lat="45.72145" lon="4.74106">
        <ele>295.2</ele>
        <time>2025-12-11T15:57:41Z</time>
      </trkpt>
      <trkpt lat="45.72143" lon="4.74109">
        <ele>295.2</ele>
        <time>2025-12-11T15:57:42Z</time>
      </trkpt>
      <trkpt lat="45.72142" lon="4.74112">
        <ele>295.2</ele>
        <time>2025-12-11T15:57:43Z</time>
      </trkpt>
      <trkpt lat="45.7214" lon="4.74115">
        <ele>295.4</ele>
        <time>2025-12-11T15:57:44Z</time>
      </trkpt>
      <trkpt lat="45.72138" lon="4.74118">
        <ele>295.4</ele>
        <time>2025-12-11T15:57:45Z</time>
      </trkpt>
      <trkpt lat="45.72136" lon="4.74121">
        <ele>295.4</ele>
        <time>2025-12-11T15:57:46Z</time>
      </trkpt>
      <trkpt lat="45.72135" lon="4.74124">
        <ele>295.4</ele>
        <time>2025-12-11T15:57:47Z</time>
      </trkpt>
      <trkpt lat="45.72134" lon="4.74127">
        <ele>295.6</ele>
        <time>2025-12-11T15:57:48Z</time>
      </trkpt>
      <trkpt lat="45.72132" lon="4.7413">
        <ele>295.6</ele>
        <time>2025-12-11T15:57:49Z</time>
      </trkpt>
      <trkpt lat="45.7213" lon="4.74133">
        <ele>295.6</ele>
        <time>2025-12-11T15:57:50Z</time>
      </trkpt>
      <trkpt lat="45.72129" lon="4.74136">
        <ele>295.8</ele>
        <time>2025-12-11T15:57:51Z</time>
      </trkpt>
      <trkpt lat="45.72127" lon="4.74139">
        <ele>295.8</ele>
        <time>2025-12-11T15:57:52Z</time>
      </trkpt>
      <trkpt lat="45.72126" lon="4.7414">
        <ele>296</ele>
        <time>2025-12-11T15:57:53Z</time>
      </trkpt>
      <trkpt lat="45.72124" lon="4.74142">
        <ele>296</ele>
        <time>2025-12-11T15:57:54Z</time>
      </trkpt>
      <trkpt lat="45.72123" lon="4.74145">
        <ele>296</ele>
        <time>2025-12-11T15:57:55Z</time>
      </trkpt>
      <trkpt lat="45.72121" lon="4.74148">
        <ele>296</ele>
        <time>2025-12-11T15:57:56Z</time>
      </trkpt>
      <trkpt lat="45.7212" lon="4.74151">
        <ele>296.2</ele>
        <time>2025-12-11T15:57:57Z</time>
      </trkpt>
      <trkpt lat="45.72118" lon="4.74153">
        <ele>296.2</ele>
        <time>2025-12-11T15:57:58Z</time>
      </trkpt>
      <trkpt lat="45.72116" lon="4.74156">
        <ele>296.4</ele>
        <time>2025-12-11T15:57:59Z</time>
      </trkpt>
      <trkpt lat="45.72115" lon="4.74158">
        <ele>296.4</ele>
        <time>2025-12-11T15:58:00Z</time>
      </trkpt>
      <trkpt lat="45.72114" lon="4.74161">
        <ele>296.6</ele>
        <time>2025-12-11T15:58:01Z</time>
      </trkpt>
      <trkpt lat="45.72112" lon="4.74164">
        <ele>296.6</ele>
        <time>2025-12-11T15:58:02Z</time>
      </trkpt>
      <trkpt lat="45.72111" lon="4.74166">
        <ele>296.8</ele>
        <time>2025-12-11T15:58:03Z</time>
      </trkpt>
      <trkpt lat="45.72109" lon="4.74169">
        <ele>296.8</ele>
        <time>2025-12-11T15:58:04Z</time>
      </trkpt>
      <trkpt lat="45.72108" lon="4.74171">
        <ele>297</ele>
        <time>2025-12-11T15:58:05Z</time>
      </trkpt>
      <trkpt lat="45.72107" lon="4.74173">
        <ele>297</ele>
        <time>2025-12-11T15:58:06Z</time>
      </trkpt>
      <trkpt lat="45.72106" lon="4.74175">
        <ele>297</ele>
        <time>2025-12-11T15:58:07Z</time>
      </trkpt>
      <trkpt lat="45.72104" lon="4.74178">
        <ele>297</ele>
        <time>2025-12-11T15:58:08Z</time>
      </trkpt>
      <trkpt lat="45.72103" lon="4.7418">
        <ele>297.2</ele>
        <time>2025-12-11T15:58:09Z</time>
      </trkpt>
      <trkpt lat="45.72102" lon="4.74183">
        <ele>297.2</ele>
        <time>2025-12-11T15:58:10Z</time>
      </trkpt>
      <trkpt lat="45.72101" lon="4.74185">
        <ele>297.2</ele>
        <time>2025-12-11T15:58:11Z</time>
      </trkpt>
      <trkpt lat="45.721" lon="4.74188">
        <ele>297.4</ele>
        <time>2025-12-11T15:58:12Z</time>
      </trkpt>
      <trkpt lat="45.72098" lon="4.7419">
        <ele>297.4</ele>
        <time>2025-12-11T15:58:13Z</time>
      </trkpt>
      <trkpt lat="45.72097" lon="4.74192">
        <ele>297.6</ele>
        <time>2025-12-11T15:58:14Z</time>
      </trkpt>
      <trkpt lat="45.72095" lon="4.74193">
        <ele>297.6</ele>
        <time>2025-12-11T15:58:15Z</time>
      </trkpt>
      <trkpt lat="45.72093" lon="4.74196">
        <ele>297.6</ele>
        <time>2025-12-11T15:58:16Z</time>
      </trkpt>
      <trkpt lat="45.72092" lon="4.74198">
        <ele>297.8</ele>
        <time>2025-12-11T15:58:17Z</time>
      </trkpt>
      <trkpt lat="45.7209" lon="4.742">
        <ele>297.8</ele>
        <time>2025-12-11T15:58:18Z</time>
      </trkpt>
      <trkpt lat="45.72089" lon="4.74203">
        <ele>298</ele>
        <time>2025-12-11T15:58:19Z</time>
      </trkpt>
      <trkpt lat="45.72088" lon="4.74205">
        <ele>298</ele>
        <time>2025-12-11T15:58:20Z</time>
      </trkpt>
      <trkpt lat="45.72086" lon="4.74208">
        <ele>298</ele>
        <time>2025-12-11T15:58:21Z</time>
      </trkpt>
      <trkpt lat="45.72085" lon="4.7421">
        <ele>298.2</ele>
        <time>2025-12-11T15:58:22Z</time>
      </trkpt>
      <trkpt lat="45.72084" lon="4.74213">
        <ele>298.2</ele>
        <time>2025-12-11T15:58:23Z</time>
      </trkpt>
      <trkpt lat="45.72082" lon="4.74215">
        <ele>298.4</ele>
        <time>2025-12-11T15:58:24Z</time>
      </trkpt>
      <trkpt lat="45.72081" lon="4.74218">
        <ele>298.4</ele>
        <time>2025-12-11T15:58:25Z</time>
      </trkpt>
      <trkpt lat="45.72079" lon="4.7422">
        <ele>298.6</ele>
        <time>2025-12-11T15:58:26Z</time>
      </trkpt>
      <trkpt lat="45.72078" lon="4.74223">
        <ele>298.6</ele>
        <time>2025-12-11T15:58:27Z</time>
      </trkpt>
      <trkpt lat="45.72077" lon="4.74226">
        <ele>298.6</ele>
        <time>2025-12-11T15:58:28Z</time>
      </trkpt>
      <trkpt lat="45.72075" lon="4.74228">
        <ele>298.8</ele>
        <time>2025-12-11T15:58:29Z</time>
      </trkpt>
      <trkpt lat="45.72074" lon="4.74231">
        <ele>299</ele>
        <time>2025-12-11T15:58:30Z</time>
      </trkpt>
      <trkpt lat="45.72073" lon="4.74233">
        <ele>299</ele>
        <time>2025-12-11T15:58:31Z</time>
      </trkpt>
      <trkpt lat="45.72071" lon="4.74235">
        <ele>299</ele>
        <time>2025-12-11T15:58:32Z</time>
      </trkpt>
      <trkpt lat="45.7207" lon="4.74237">
        <ele>299.2</ele>
        <time>2025-12-11T15:58:33Z</time>
      </trkpt>
      <trkpt lat="45.72068" lon="4.74239">
        <ele>299.2</ele>
        <time>2025-12-11T15:58:34Z</time>
      </trkpt>
      <trkpt lat="45.72067" lon="4.74242">
        <ele>299.4</ele>
        <time>2025-12-11T15:58:35Z</time>
      </trkpt>
      <trkpt lat="45.72065" lon="4.74244">
        <ele>299.4</ele>
        <time>2025-12-11T15:58:36Z</time>
      </trkpt>
      <trkpt lat="45.72063" lon="4.74247">
        <ele>299.4</ele>
        <time>2025-12-11T15:58:37Z</time>
      </trkpt>
      <trkpt lat="45.72062" lon="4.7425">
        <ele>299.6</ele>
        <time>2025-12-11T15:58:38Z</time>
      </trkpt>
      <trkpt lat="45.7206" lon="4.74252">
        <ele>299.6</ele>
        <time>2025-12-11T15:58:39Z</time>
      </trkpt>
      <trkpt lat="45.72059" lon="4.74255">
        <ele>299.6</ele>
        <time>2025-12-11T15:58:40Z</time>
      </trkpt>
      <trkpt lat="45.72058" lon="4.74258">
        <ele>299.8</ele>
        <time>2025-12-11T15:58:41Z</time>
      </trkpt>
      <trkpt lat="45.72056" lon="4.7426">
        <ele>299.8</ele>
        <time>2025-12-11T15:58:42Z</time>
      </trkpt>
      <trkpt lat="45.72055" lon="4.74262">
        <ele>299.8</ele>
        <time>2025-12-11T15:58:43Z</time>
      </trkpt>
      <trkpt lat="45.72053" lon="4.74265">
        <ele>300</ele>
        <time>2025-12-11T15:58:44Z</time>
      </trkpt>
      <trkpt lat="45.72052" lon="4.74267">
        <ele>300</ele>
        <time>2025-12-11T15:58:45Z</time>
      </trkpt>
      <trkpt lat="45.72051" lon="4.7427">
        <ele>300.2</ele>
        <time>2025-12-11T15:58:46Z</time>
      </trkpt>
      <trkpt lat="45.7205" lon="4.74272">
        <ele>300.2</ele>
        <time>2025-12-11T15:58:47Z</time>
      </trkpt>
      <trkpt lat="45.72048" lon="4.74275">
        <ele>300.4</ele>
        <time>2025-12-11T15:58:48Z</time>
      </trkpt>
      <trkpt lat="45.72046" lon="4.74277">
        <ele>300.4</ele>
        <time>2025-12-11T15:58:49Z</time>
      </trkpt>
      <trkpt lat="45.72044" lon="4.74279">
        <ele>300.6</ele>
        <time>2025-12-11T15:58:50Z</time>
      </trkpt>
      <trkpt lat="45.72043" lon="4.74281">
        <ele>300.6</ele>
        <time>2025-12-11T15:58:51Z</time>
      </trkpt>
      <trkpt lat="45.72041" lon="4.74284">
        <ele>300.8</ele>
        <time>2025-12-11T15:58:52Z</time>
      </trkpt>
      <trkpt lat="45.7204" lon="4.74287">
        <ele>300.8</ele>
        <time>2025-12-11T15:58:53Z</time>
      </trkpt>
      <trkpt lat="45.72038" lon="4.74289">
        <ele>301</ele>
        <time>2025-12-11T15:58:54Z</time>
      </trkpt>
      <trkpt lat="45.72036" lon="4.74291">
        <ele>301</ele>
        <time>2025-12-11T15:58:55Z</time>
      </trkpt>
      <trkpt lat="45.72035" lon="4.74292">
        <ele>301.2</ele>
        <time>2025-12-11T15:58:56Z</time>
      </trkpt>
      <trkpt lat="45.72033" lon="4.74295">
        <ele>301.2</ele>
        <time>2025-12-11T15:58:57Z</time>
      </trkpt>
      <trkpt lat="45.72032" lon="4.74297">
        <ele>301.2</ele>
        <time>2025-12-11T15:58:58Z</time>
      </trkpt>
      <trkpt lat="45.72031" lon="4.743">
        <ele>301.4</ele>
        <time>2025-12-11T15:58:59Z</time>
      </trkpt>
      <trkpt lat="45.72029" lon="4.74303">
        <ele>301.4</ele>
        <time>2025-12-11T15:59:00Z</time>
      </trkpt>
      <trkpt lat="45.72028" lon="4.74306">
        <ele>301.6</ele>
        <time>2025-12-11T15:59:01Z</time>
      </trkpt>
      <trkpt lat="45.72026" lon="4.74308">
        <ele>301.6</ele>
        <time>2025-12-11T15:59:02Z</time>
      </trkpt>
      <trkpt lat="45.72025" lon="4.74311">
        <ele>301.8</ele>
        <time>2025-12-11T15:59:03Z</time>
      </trkpt>
      <trkpt lat="45.72023" lon="4.74313">
        <ele>301.8</ele>
        <time>2025-12-11T15:59:04Z</time>
      </trkpt>
      <trkpt lat="45.72022" lon="4.74315">
        <ele>302</ele>
        <time>2025-12-11T15:59:05Z</time>
      </trkpt>
      <trkpt lat="45.72021" lon="4.74317">
        <ele>302.2</ele>
        <time>2025-12-11T15:59:06Z</time>
      </trkpt>
      <trkpt lat="45.7202" lon="4.7432">
        <ele>302.2</ele>
        <time>2025-12-11T15:59:07Z</time>
      </trkpt>
      <trkpt lat="45.72018" lon="4.74322">
        <ele>302.4</ele>
        <time>2025-12-11T15:59:08Z</time>
      </trkpt>
      <trkpt lat="45.72017" lon="4.74324">
        <ele>302.4</ele>
        <time>2025-12-11T15:59:09Z</time>
      </trkpt>
      <trkpt lat="45.72016" lon="4.74326">
        <ele>302.6</ele>
        <time>2025-12-11T15:59:10Z</time>
      </trkpt>
      <trkpt lat="45.72014" lon="4.74329">
        <ele>302.6</ele>
        <time>2025-12-11T15:59:11Z</time>
      </trkpt>
      <trkpt lat="45.72013" lon="4.74331">
        <ele>302.8</ele>
        <time>2025-12-11T15:59:12Z</time>
      </trkpt>
      <trkpt lat="45.72012" lon="4.74334">
        <ele>302.8</ele>
        <time>2025-12-11T15:59:13Z</time>
      </trkpt>
      <trkpt lat="45.72011" lon="4.74337">
        <ele>303</ele>
        <time>2025-12-11T15:59:14Z</time>
      </trkpt>
      <trkpt lat="45.7201" lon="4.7434">
        <ele>303</ele>
        <time>2025-12-11T15:59:15Z</time>
      </trkpt>
      <trkpt lat="45.72008" lon="4.74342">
        <ele>303.2</ele>
        <time>2025-12-11T15:59:16Z</time>
      </trkpt>
      <trkpt lat="45.72006" lon="4.74344">
        <ele>303.4</ele>
        <time>2025-12-11T15:59:17Z</time>
      </trkpt>
      <trkpt lat="45.72005" lon="4.74346">
        <ele>303.6</ele>
        <time>2025-12-11T15:59:18Z</time>
      </trkpt>
      <trkpt lat="45.72004" lon="4.74348">
        <ele>303.8</ele>
        <time>2025-12-11T15:59:19Z</time>
      </trkpt>
      <trkpt lat="45.72003" lon="4.74351">
        <ele>304</ele>
        <time>2025-12-11T15:59:20Z</time>
      </trkpt>
      <trkpt lat="45.72001" lon="4.74354">
        <ele>304</ele>
        <time>2025-12-11T15:59:21Z</time>
      </trkpt>
      <trkpt lat="45.72001" lon="4.74356">
        <ele>304.2</ele>
        <time>2025-12-11T15:59:22Z</time>
      </trkpt>
      <trkpt lat="45.72" lon="4.74358">
        <ele>304.4</ele>
        <time>2025-12-11T15:59:23Z</time>
      </trkpt>
      <trkpt lat="45.71999" lon="4.74361">
        <ele>304.6</ele>
        <time>2025-12-11T15:59:24Z</time>
      </trkpt>
      <trkpt lat="45.71999" lon="4.74363">
        <ele>304.6</ele>
        <time>2025-12-11T15:59:25Z</time>
      </trkpt>
      <trkpt lat="45.71998" lon="4.74365">
        <ele>304.8</ele>
        <time>2025-12-11T15:59:26Z</time>
      </trkpt>
      <trkpt lat="45.71997" lon="4.74367">
        <ele>305</ele>
        <time>2025-12-11T15:59:27Z</time>
      </trkpt>
      <trkpt lat="45.71996" lon="4.74369">
        <ele>305.2</ele>
        <time>2025-12-11T15:59:28Z</time>
      </trkpt>
      <trkpt lat="45.71995" lon="4.74371">
        <ele>305.4</ele>
        <time>2025-12-11T15:59:29Z</time>
      </trkpt>
      <trkpt lat="45.71994" lon="4.74374">
        <ele>305.6</ele>
        <time>2025-12-11T15:59:30Z</time>
      </trkpt>
      <trkpt lat="45.71994" lon="4.74376">
        <ele>305.8</ele>
        <time>2025-12-11T15:59:31Z</time>
      </trkpt>
      <trkpt lat="45.71993" lon="4.74377">
        <ele>306</ele>
        <time>2025-12-11T15:59:32Z</time>
      </trkpt>
      <trkpt lat="45.71992" lon="4.7438">
        <ele>306.2</ele>
        <time>2025-12-11T15:59:33Z</time>
      </trkpt>
      <trkpt lat="45.71991" lon="4.74382">
        <ele>306.2</ele>
        <time>2025-12-11T15:59:34Z</time>
      </trkpt>
      <trkpt lat="45.7199" lon="4.74384">
        <ele>306.4</ele>
        <time>2025-12-11T15:59:35Z</time>
      </trkpt>
      <trkpt lat="45.71989" lon="4.74385">
        <ele>306.4</ele>
        <time>2025-12-11T15:59:36Z</time>
      </trkpt>
      <trkpt lat="45.71988" lon="4.74387">
        <ele>306.6</ele>
        <time>2025-12-11T15:59:37Z</time>
      </trkpt>
      <trkpt lat="45.71987" lon="4.74389">
        <ele>306.6</ele>
        <time>2025-12-11T15:59:38Z</time>
      </trkpt>
      <trkpt lat="45.71987" lon="4.74391">
        <ele>306.8</ele>
        <time>2025-12-11T15:59:39Z</time>
      </trkpt>
      <trkpt lat="45.71986" lon="4.74394">
        <ele>306.8</ele>
        <time>2025-12-11T15:59:40Z</time>
      </trkpt>
      <trkpt lat="45.71985" lon="4.74396">
        <ele>307</ele>
        <time>2025-12-11T15:59:41Z</time>
      </trkpt>
      <trkpt lat="45.71984" lon="4.74398">
        <ele>307</ele>
        <time>2025-12-11T15:59:42Z</time>
      </trkpt>
      <trkpt lat="45.71983" lon="4.744">
        <ele>307.2</ele>
        <time>2025-12-11T15:59:43Z</time>
      </trkpt>
      <trkpt lat="45.71982" lon="4.74403">
        <ele>307.2</ele>
        <time>2025-12-11T15:59:44Z</time>
      </trkpt>
      <trkpt lat="45.71981" lon="4.74405">
        <ele>307.2</ele>
        <time>2025-12-11T15:59:45Z</time>
      </trkpt>
      <trkpt lat="45.7198" lon="4.74407">
        <ele>307.4</ele>
        <time>2025-12-11T15:59:46Z</time>
      </trkpt>
      <trkpt lat="45.71979" lon="4.74409">
        <ele>307.4</ele>
        <time>2025-12-11T15:59:47Z</time>
      </trkpt>
      <trkpt lat="45.71979" lon="4.74411">
        <ele>307.6</ele>
        <time>2025-12-11T15:59:48Z</time>
      </trkpt>
      <trkpt lat="45.71978" lon="4.74413">
        <ele>307.6</ele>
        <time>2025-12-11T15:59:49Z</time>
      </trkpt>
      <trkpt lat="45.71977" lon="4.74414">
        <ele>307.6</ele>
        <time>2025-12-11T15:59:50Z</time>
      </trkpt>
      <trkpt lat="45.71976" lon="4.74416">
        <ele>307.8</ele>
        <time>2025-12-11T15:59:51Z</time>
      </trkpt>
      <trkpt lat="45.71975" lon="4.74417">
        <ele>307.8</ele>
        <time>2025-12-11T15:59:52Z</time>
      </trkpt>
      <trkpt lat="45.71974" lon="4.74419">
        <ele>307.8</ele>
        <time>2025-12-11T15:59:53Z</time>
      </trkpt>
      <trkpt lat="45.71972" lon="4.74421">
        <ele>308</ele>
        <time>2025-12-11T15:59:54Z</time>
      </trkpt>
      <trkpt lat="45.71971" lon="4.74422">
        <ele>308</ele>
        <time>2025-12-11T15:59:55Z</time>
      </trkpt>
      <trkpt lat="45.7197" lon="4.74423">
        <ele>308.2</ele>
        <time>2025-12-11T15:59:56Z</time>
      </trkpt>
      <trkpt lat="45.71969" lon="4.74425">
        <ele>308.2</ele>
        <time>2025-12-11T15:59:57Z</time>
      </trkpt>
      <trkpt lat="45.71968" lon="4.74427">
        <ele>308.4</ele>
        <time>2025-12-11T15:59:58Z</time>
      </trkpt>
      <trkpt lat="45.71967" lon="4.74429">
        <ele>308.4</ele>
        <time>2025-12-11T15:59:59Z</time>
      </trkpt>
      <trkpt lat="45.71966" lon="4.74431">
        <ele>308.6</ele>
        <time>2025-12-11T16:00:00Z</time>
      </trkpt>
      <trkpt lat="45.71964" lon="4.74433">
        <ele>308.6</ele>
        <time>2025-12-11T16:00:01Z</time>
      </trkpt>
      <trkpt lat="45.71963" lon="4.74435">
        <ele>308.6</ele>
        <time>2025-12-11T16:00:02Z</time>
      </trkpt>
      <trkpt lat="45.71962" lon="4.74437">
        <ele>308.8</ele>
        <time>2025-12-11T16:00:03Z</time>
      </trkpt>
      <trkpt lat="45.7196" lon="4.7444">
        <ele>308.8</ele>
        <time>2025-12-11T16:00:04Z</time>
      </trkpt>
      <trkpt lat="45.71959" lon="4.74442">
        <ele>309</ele>
        <time>2025-12-11T16:00:05Z</time>
      </trkpt>
      <trkpt lat="45.71958" lon="4.74444">
        <ele>309</ele>
        <time>2025-12-11T16:00:06Z</time>
      </trkpt>
      <trkpt lat="45.71956" lon="4.74447">
        <ele>309.2</ele>
        <time>2025-12-11T16:00:07Z</time>
      </trkpt>
      <trkpt lat="45.71955" lon="4.74449">
        <ele>309.2</ele>
        <time>2025-12-11T16:00:08Z</time>
      </trkpt>
      <trkpt lat="45.71954" lon="4.74451">
        <ele>309.2</ele>
        <time>2025-12-11T16:00:09Z</time>
      </trkpt>
      <trkpt lat="45.71952" lon="4.74454">
        <ele>309.4</ele>
        <time>2025-12-11T16:00:10Z</time>
      </trkpt>
      <trkpt lat="45.71951" lon="4.74456">
        <ele>309.4</ele>
        <time>2025-12-11T16:00:11Z</time>
      </trkpt>
      <trkpt lat="45.7195" lon="4.74459">
        <ele>309.6</ele>
        <time>2025-12-11T16:00:12Z</time>
      </trkpt>
      <trkpt lat="45.71949" lon="4.74461">
        <ele>309.6</ele>
        <time>2025-12-11T16:00:13Z</time>
      </trkpt>
      <trkpt lat="45.71947" lon="4.74464">
        <ele>309.8</ele>
        <time>2025-12-11T16:00:14Z</time>
      </trkpt>
      <trkpt lat="45.71946" lon="4.74466">
        <ele>309.8</ele>
        <time>2025-12-11T16:00:15Z</time>
      </trkpt>
      <trkpt lat="45.71944" lon="4.74469">
        <ele>310</ele>
        <time>2025-12-11T16:00:16Z</time>
      </trkpt>
      <trkpt lat="45.71943" lon="4.74471">
        <ele>310</ele>
        <time>2025-12-11T16:00:17Z</time>
      </trkpt>
      <trkpt lat="45.71942" lon="4.74473">
        <ele>310</ele>
        <time>2025-12-11T16:00:18Z</time>
      </trkpt>
      <trkpt lat="45.7194" lon="4.74475">
        <ele>310.2</ele>
        <time>2025-12-11T16:00:19Z</time>
      </trkpt>
      <trkpt lat="45.71939" lon="4.74477">
        <ele>310.2</ele>
        <time>2025-12-11T16:00:20Z</time>
      </trkpt>
      <trkpt lat="45.71937" lon="4.74479">
        <ele>310.4</ele>
        <time>2025-12-11T16:00:21Z</time>
      </trkpt>
      <trkpt lat="45.71936" lon="4.74482">
        <ele>310.4</ele>
        <time>2025-12-11T16:00:22Z</time>
      </trkpt>
      <trkpt lat="45.71935" lon="4.74485">
        <ele>310.4</ele>
        <time>2025-12-11T16:00:23Z</time>
      </trkpt>
      <trkpt lat="45.71934" lon="4.74487">
        <ele>310.6</ele>
        <time>2025-12-11T16:00:24Z</time>
      </trkpt>
      <trkpt lat="45.71932" lon="4.74489">
        <ele>310.6</ele>
        <time>2025-12-11T16:00:25Z</time>
      </trkpt>
      <trkpt lat="45.7193" lon="4.74492">
        <ele>310.8</ele>
        <time>2025-12-11T16:00:26Z</time>
      </trkpt>
      <trkpt lat="45.71929" lon="4.74494">
        <ele>310.8</ele>
        <time>2025-12-11T16:00:27Z</time>
      </trkpt>
      <trkpt lat="45.71927" lon="4.74497">
        <ele>311</ele>
        <time>2025-12-11T16:00:28Z</time>
      </trkpt>
      <trkpt lat="45.71926" lon="4.745">
        <ele>311</ele>
        <time>2025-12-11T16:00:29Z</time>
      </trkpt>
      <trkpt lat="45.71925" lon="4.74502">
        <ele>311.2</ele>
        <time>2025-12-11T16:00:30Z</time>
      </trkpt>
      <trkpt lat="45.71924" lon="4.74505">
        <ele>311.2</ele>
        <time>2025-12-11T16:00:31Z</time>
      </trkpt>
      <trkpt lat="45.71922" lon="4.74507">
        <ele>311.4</ele>
        <time>2025-12-11T16:00:32Z</time>
      </trkpt>
      <trkpt lat="45.71921" lon="4.74509">
        <ele>311.6</ele>
        <time>2025-12-11T16:00:33Z</time>
      </trkpt>
      <trkpt lat="45.7192" lon="4.74512">
        <ele>311.6</ele>
        <time>2025-12-11T16:00:34Z</time>
      </trkpt>
      <trkpt lat="45.71919" lon="4.74515">
        <ele>311.8</ele>
        <time>2025-12-11T16:00:35Z</time>
      </trkpt>
      <trkpt lat="45.71917" lon="4.74517">
        <ele>311.8</ele>
        <time>2025-12-11T16:00:36Z</time>
      </trkpt>
      <trkpt lat="45.71915" lon="4.7452">
        <ele>312</ele>
        <time>2025-12-11T16:00:37Z</time>
      </trkpt>
      <trkpt lat="45.71913" lon="4.74522">
        <ele>312.2</ele>
        <time>2025-12-11T16:00:38Z</time>
      </trkpt>
      <trkpt lat="45.71911" lon="4.74525">
        <ele>312.2</ele>
        <time>2025-12-11T16:00:39Z</time>
      </trkpt>
      <trkpt lat="45.7191" lon="4.74527">
        <ele>312.2</ele>
        <time>2025-12-11T16:00:40Z</time>
      </trkpt>
      <trkpt lat="45.71908" lon="4.7453">
        <ele>312.4</ele>
        <time>2025-12-11T16:00:41Z</time>
      </trkpt>
      <trkpt lat="45.71907" lon="4.74533">
        <ele>312.4</ele>
        <time>2025-12-11T16:00:42Z</time>
      </trkpt>
      <trkpt lat="45.71905" lon="4.74535">
        <ele>312.6</ele>
        <time>2025-12-11T16:00:43Z</time>
      </trkpt>
      <trkpt lat="45.71903" lon="4.74538">
        <ele>312.6</ele>
        <time>2025-12-11T16:00:44Z</time>
      </trkpt>
      <trkpt lat="45.71902" lon="4.7454">
        <ele>312.8</ele>
        <time>2025-12-11T16:00:45Z</time>
      </trkpt>
      <trkpt lat="45.71901" lon="4.74543">
        <ele>312.8</ele>
        <time>2025-12-11T16:00:46Z</time>
      </trkpt>
      <trkpt lat="45.719" lon="4.74546">
        <ele>313</ele>
        <time>2025-12-11T16:00:47Z</time>
      </trkpt>
      <trkpt lat="45.71899" lon="4.74548">
        <ele>313</ele>
        <time>2025-12-11T16:00:48Z</time>
      </trkpt>
      <trkpt lat="45.71898" lon="4.74551">
        <ele>313.2</ele>
        <time>2025-12-11T16:00:49Z</time>
      </trkpt>
      <trkpt lat="45.71897" lon="4.74553">
        <ele>313.2</ele>
        <time>2025-12-11T16:00:50Z</time>
      </trkpt>
      <trkpt lat="45.71896" lon="4.74556">
        <ele>313.2</ele>
        <time>2025-12-11T16:00:51Z</time>
      </trkpt>
      <trkpt lat="45.71894" lon="4.74558">
        <ele>313.4</ele>
        <time>2025-12-11T16:00:52Z</time>
      </trkpt>
      <trkpt lat="45.71893" lon="4.74561">
        <ele>313.4</ele>
        <time>2025-12-11T16:00:53Z</time>
      </trkpt>
      <trkpt lat="45.71892" lon="4.74563">
        <ele>313.4</ele>
        <time>2025-12-11T16:00:54Z</time>
      </trkpt>
      <trkpt lat="45.7189" lon="4.74566">
        <ele>313.6</ele>
        <time>2025-12-11T16:00:55Z</time>
      </trkpt>
      <trkpt lat="45.71889" lon="4.74568">
        <ele>313.6</ele>
        <time>2025-12-11T16:00:56Z</time>
      </trkpt>
      <trkpt lat="45.71888" lon="4.74571">
        <ele>313.6</ele>
        <time>2025-12-11T16:00:57Z</time>
      </trkpt>
      <trkpt lat="45.71886" lon="4.74574">
        <ele>313.6</ele>
        <time>2025-12-11T16:00:58Z</time>
      </trkpt>
      <trkpt lat="45.71885" lon="4.74577">
        <ele>313.8</ele>
        <time>2025-12-11T16:00:59Z</time>
      </trkpt>
      <trkpt lat="45.71883" lon="4.7458">
        <ele>313.8</ele>
        <time>2025-12-11T16:01:00Z</time>
      </trkpt>
      <trkpt lat="45.71882" lon="4.74583">
        <ele>314</ele>
        <time>2025-12-11T16:01:01Z</time>
      </trkpt>
      <trkpt lat="45.7188" lon="4.74585">
        <ele>314</ele>
        <time>2025-12-11T16:01:02Z</time>
      </trkpt>
      <trkpt lat="45.71879" lon="4.74588">
        <ele>314</ele>
        <time>2025-12-11T16:01:03Z</time>
      </trkpt>
      <trkpt lat="45.71877" lon="4.74591">
        <ele>314.2</ele>
        <time>2025-12-11T16:01:04Z</time>
      </trkpt>
      <trkpt lat="45.71876" lon="4.74594">
        <ele>314.2</ele>
        <time>2025-12-11T16:01:05Z</time>
      </trkpt>
      <trkpt lat="45.71875" lon="4.74597">
        <ele>314.2</ele>
        <time>2025-12-11T16:01:06Z</time>
      </trkpt>
      <trkpt lat="45.71873" lon="4.74599">
        <ele>314.4</ele>
        <time>2025-12-11T16:01:07Z</time>
      </trkpt>
      <trkpt lat="45.71871" lon="4.74601">
        <ele>314.4</ele>
        <time>2025-12-11T16:01:08Z</time>
      </trkpt>
      <trkpt lat="45.7187" lon="4.74604">
        <ele>314.6</ele>
        <time>2025-12-11T16:01:09Z</time>
      </trkpt>
      <trkpt lat="45.71868" lon="4.74607">
        <ele>314.6</ele>
        <time>2025-12-11T16:01:10Z</time>
      </trkpt>
      <trkpt lat="45.71867" lon="4.7461">
        <ele>314.6</ele>
        <time>2025-12-11T16:01:11Z</time>
      </trkpt>
      <trkpt lat="45.71865" lon="4.74613">
        <ele>314.8</ele>
        <time>2025-12-11T16:01:12Z</time>
      </trkpt>
      <trkpt lat="45.71864" lon="4.74615">
        <ele>314.8</ele>
        <time>2025-12-11T16:01:13Z</time>
      </trkpt>
      <trkpt lat="45.71863" lon="4.74618">
        <ele>314.8</ele>
        <time>2025-12-11T16:01:14Z</time>
      </trkpt>
      <trkpt lat="45.71861" lon="4.7462">
        <ele>315</ele>
        <time>2025-12-11T16:01:15Z</time>
      </trkpt>
      <trkpt lat="45.7186" lon="4.74623">
        <ele>315</ele>
        <time>2025-12-11T16:01:16Z</time>
      </trkpt>
      <trkpt lat="45.71859" lon="4.74626">
        <ele>315</ele>
        <time>2025-12-11T16:01:17Z</time>
      </trkpt>
      <trkpt lat="45.71857" lon="4.74628">
        <ele>315.2</ele>
        <time>2025-12-11T16:01:18Z</time>
      </trkpt>
      <trkpt lat="45.71856" lon="4.74631">
        <ele>315.2</ele>
        <time>2025-12-11T16:01:19Z</time>
      </trkpt>
      <trkpt lat="45.71854" lon="4.74634">
        <ele>315.2</ele>
        <time>2025-12-11T16:01:20Z</time>
      </trkpt>
      <trkpt lat="45.71853" lon="4.74637">
        <ele>315.4</ele>
        <time>2025-12-11T16:01:21Z</time>
      </trkpt>
      <trkpt lat="45.71851" lon="4.7464">
        <ele>315.4</ele>
        <time>2025-12-11T16:01:22Z</time>
      </trkpt>
      <trkpt lat="45.7185" lon="4.74642">
        <ele>315.4</ele>
        <time>2025-12-11T16:01:23Z</time>
      </trkpt>
      <trkpt lat="45.71849" lon="4.74645">
        <ele>315.6</ele>
        <time>2025-12-11T16:01:24Z</time>
      </trkpt>
      <trkpt lat="45.71848" lon="4.74648">
        <ele>315.6</ele>
        <time>2025-12-11T16:01:25Z</time>
      </trkpt>
      <trkpt lat="45.71846" lon="4.74651">
        <ele>315.8</ele>
        <time>2025-12-11T16:01:26Z</time>
      </trkpt>
      <trkpt lat="45.71845" lon="4.74654">
        <ele>315.8</ele>
        <time>2025-12-11T16:01:27Z</time>
      </trkpt>
      <trkpt lat="45.71843" lon="4.74656">
        <ele>316</ele>
        <time>2025-12-11T16:01:28Z</time>
      </trkpt>
      <trkpt lat="45.71842" lon="4.74658">
        <ele>316</ele>
        <time>2025-12-11T16:01:29Z</time>
      </trkpt>
      <trkpt lat="45.7184" lon="4.74661">
        <ele>316.2</ele>
        <time>2025-12-11T16:01:30Z</time>
      </trkpt>
      <trkpt lat="45.71839" lon="4.74664">
        <ele>316.4</ele>
        <time>2025-12-11T16:01:31Z</time>
      </trkpt>
      <trkpt lat="45.71838" lon="4.74666">
        <ele>316.4</ele>
        <time>2025-12-11T16:01:32Z</time>
      </trkpt>
      <trkpt lat="45.71836" lon="4.74669">
        <ele>316.6</ele>
        <time>2025-12-11T16:01:33Z</time>
      </trkpt>
      <trkpt lat="45.71835" lon="4.74672">
        <ele>316.6</ele>
        <time>2025-12-11T16:01:34Z</time>
      </trkpt>
      <trkpt lat="45.71833" lon="4.74675">
        <ele>316.8</ele>
        <time>2025-12-11T16:01:35Z</time>
      </trkpt>
      <trkpt lat="45.71832" lon="4.74678">
        <ele>316.8</ele>
        <time>2025-12-11T16:01:36Z</time>
      </trkpt>
      <trkpt lat="45.7183" lon="4.74681">
        <ele>317</ele>
        <time>2025-12-11T16:01:37Z</time>
      </trkpt>
      <trkpt lat="45.71829" lon="4.74683">
        <ele>317.2</ele>
        <time>2025-12-11T16:01:38Z</time>
      </trkpt>
      <trkpt lat="45.71827" lon="4.74685">
        <ele>317.2</ele>
        <time>2025-12-11T16:01:39Z</time>
      </trkpt>
      <trkpt lat="45.71826" lon="4.74688">
        <ele>317.2</ele>
        <time>2025-12-11T16:01:40Z</time>
      </trkpt>
      <trkpt lat="45.71824" lon="4.74691">
        <ele>317.4</ele>
        <time>2025-12-11T16:01:41Z</time>
      </trkpt>
      <trkpt lat="45.71823" lon="4.74693">
        <ele>317.4</ele>
        <time>2025-12-11T16:01:42Z</time>
      </trkpt>
      <trkpt lat="45.71822" lon="4.74696">
        <ele>317.6</ele>
        <time>2025-12-11T16:01:43Z</time>
      </trkpt>
      <trkpt lat="45.71821" lon="4.74699">
        <ele>317.6</ele>
        <time>2025-12-11T16:01:44Z</time>
      </trkpt>
      <trkpt lat="45.71819" lon="4.74701">
        <ele>317.8</ele>
        <time>2025-12-11T16:01:45Z</time>
      </trkpt>
      <trkpt lat="45.71818" lon="4.74704">
        <ele>317.8</ele>
        <time>2025-12-11T16:01:46Z</time>
      </trkpt>
      <trkpt lat="45.71816" lon="4.74706">
        <ele>318</ele>
        <time>2025-12-11T16:01:47Z</time>
      </trkpt>
      <trkpt lat="45.71815" lon="4.74708">
        <ele>318.2</ele>
        <time>2025-12-11T16:01:48Z</time>
      </trkpt>
      <trkpt lat="45.71813" lon="4.7471">
        <ele>318.2</ele>
        <time>2025-12-11T16:01:49Z</time>
      </trkpt>
      <trkpt lat="45.71812" lon="4.74712">
        <ele>318.4</ele>
        <time>2025-12-11T16:01:50Z</time>
      </trkpt>
      <trkpt lat="45.71811" lon="4.74715">
        <ele>318.6</ele>
        <time>2025-12-11T16:01:51Z</time>
      </trkpt>
      <trkpt lat="45.7181" lon="4.74717">
        <ele>318.6</ele>
        <time>2025-12-11T16:01:52Z</time>
      </trkpt>
      <trkpt lat="45.71809" lon="4.74719">
        <ele>318.6</ele>
        <time>2025-12-11T16:01:53Z</time>
      </trkpt>
      <trkpt lat="45.71807" lon="4.74721">
        <ele>318.8</ele>
        <time>2025-12-11T16:01:54Z</time>
      </trkpt>
      <trkpt lat="45.71806" lon="4.74723">
        <ele>318.8</ele>
        <time>2025-12-11T16:01:55Z</time>
      </trkpt>
      <trkpt lat="45.71804" lon="4.74725">
        <ele>318.8</ele>
        <time>2025-12-11T16:01:56Z</time>
      </trkpt>
      <trkpt lat="45.71801" lon="4.74726">
        <ele>319</ele>
        <time>2025-12-11T16:01:57Z</time>
      </trkpt>
      <trkpt lat="45.71799" lon="4.74727">
        <ele>319</ele>
        <time>2025-12-11T16:01:58Z</time>
      </trkpt>
      <trkpt lat="45.71797" lon="4.74728">
        <ele>319</ele>
        <time>2025-12-11T16:01:59Z</time>
      </trkpt>
      <trkpt lat="45.71795" lon="4.74729">
        <ele>319</ele>
        <time>2025-12-11T16:02:00Z</time>
      </trkpt>
      <trkpt lat="45.71792" lon="4.7473">
        <ele>319</ele>
        <time>2025-12-11T16:02:01Z</time>
      </trkpt>
      <trkpt lat="45.7179" lon="4.74731">
        <ele>319.2</ele>
        <time>2025-12-11T16:02:02Z</time>
      </trkpt>
      <trkpt lat="45.71788" lon="4.74732">
        <ele>319.2</ele>
        <time>2025-12-11T16:02:03Z</time>
      </trkpt>
      <trkpt lat="45.71786" lon="4.74734">
        <ele>319.4</ele>
        <time>2025-12-11T16:02:04Z</time>
      </trkpt>
      <trkpt lat="45.71784" lon="4.74735">
        <ele>319.4</ele>
        <time>2025-12-11T16:02:05Z</time>
      </trkpt>
      <trkpt lat="45.71781" lon="4.74736">
        <ele>319.6</ele>
        <time>2025-12-11T16:02:06Z</time>
      </trkpt>
      <trkpt lat="45.71779" lon="4.74737">
        <ele>319.6</ele>
        <time>2025-12-11T16:02:07Z</time>
      </trkpt>
      <trkpt lat="45.71777" lon="4.74739">
        <ele>319.8</ele>
        <time>2025-12-11T16:02:08Z</time>
      </trkpt>
      <trkpt lat="45.71775" lon="4.7474">
        <ele>320</ele>
        <time>2025-12-11T16:02:09Z</time>
      </trkpt>
      <trkpt lat="45.71773" lon="4.74741">
        <ele>320</ele>
        <time>2025-12-11T16:02:10Z</time>
      </trkpt>
      <trkpt lat="45.71771" lon="4.74743">
        <ele>320.2</ele>
        <time>2025-12-11T16:02:11Z</time>
      </trkpt>
      <trkpt lat="45.71769" lon="4.74744">
        <ele>320.2</ele>
        <time>2025-12-11T16:02:12Z</time>
      </trkpt>
      <trkpt lat="45.71766" lon="4.74745">
        <ele>320.2</ele>
        <time>2025-12-11T16:02:13Z</time>
      </trkpt>
      <trkpt lat="45.71764" lon="4.74747">
        <ele>320.4</ele>
        <time>2025-12-11T16:02:14Z</time>
      </trkpt>
      <trkpt lat="45.71762" lon="4.74748">
        <ele>320.4</ele>
        <time>2025-12-11T16:02:15Z</time>
      </trkpt>
      <trkpt lat="45.7176" lon="4.74749">
        <ele>320.4</ele>
        <time>2025-12-11T16:02:16Z</time>
      </trkpt>
      <trkpt lat="45.71757" lon="4.74751">
        <ele>320.6</ele>
        <time>2025-12-11T16:02:17Z</time>
      </trkpt>
      <trkpt lat="45.71755" lon="4.74752">
        <ele>320.6</ele>
        <time>2025-12-11T16:02:18Z</time>
      </trkpt>
      <trkpt lat="45.71753" lon="4.74753">
        <ele>320.8</ele>
        <time>2025-12-11T16:02:19Z</time>
      </trkpt>
      <trkpt lat="45.7175" lon="4.74755">
        <ele>320.8</ele>
        <time>2025-12-11T16:02:20Z</time>
      </trkpt>
      <trkpt lat="45.71748" lon="4.74757">
        <ele>320.8</ele>
        <time>2025-12-11T16:02:21Z</time>
      </trkpt>
      <trkpt lat="45.71746" lon="4.74758">
        <ele>321</ele>
        <time>2025-12-11T16:02:22Z</time>
      </trkpt>
      <trkpt lat="45.71743" lon="4.74759">
        <ele>321</ele>
        <time>2025-12-11T16:02:23Z</time>
      </trkpt>
      <trkpt lat="45.71741" lon="4.74761">
        <ele>321</ele>
        <time>2025-12-11T16:02:24Z</time>
      </trkpt>
      <trkpt lat="45.71738" lon="4.74763">
        <ele>321</ele>
        <time>2025-12-11T16:02:25Z</time>
      </trkpt>
      <trkpt lat="45.71735" lon="4.74764">
        <ele>321</ele>
        <time>2025-12-11T16:02:26Z</time>
      </trkpt>
      <trkpt lat="45.71732" lon="4.74766">
        <ele>321</ele>
        <time>2025-12-11T16:02:27Z</time>
      </trkpt>
      <trkpt lat="45.7173" lon="4.74768">
        <ele>321.2</ele>
        <time>2025-12-11T16:02:28Z</time>
      </trkpt>
      <trkpt lat="45.71727" lon="4.74769">
        <ele>321.2</ele>
        <time>2025-12-11T16:02:29Z</time>
      </trkpt>
      <trkpt lat="45.71724" lon="4.74771">
        <ele>321.2</ele>
        <time>2025-12-11T16:02:30Z</time>
      </trkpt>
      <trkpt lat="45.71721" lon="4.74772">
        <ele>321.2</ele>
        <time>2025-12-11T16:02:31Z</time>
      </trkpt>
      <trkpt lat="45.71719" lon="4.74774">
        <ele>321.4</ele>
        <time>2025-12-11T16:02:32Z</time>
      </trkpt>
      <trkpt lat="45.71716" lon="4.74775">
        <ele>321.4</ele>
        <time>2025-12-11T16:02:33Z</time>
      </trkpt>
      <trkpt lat="45.71714" lon="4.74777">
        <ele>321.4</ele>
        <time>2025-12-11T16:02:34Z</time>
      </trkpt>
      <trkpt lat="45.71711" lon="4.74778">
        <ele>321.6</ele>
        <time>2025-12-11T16:02:35Z</time>
      </trkpt>
      <trkpt lat="45.71709" lon="4.74779">
        <ele>321.6</ele>
        <time>2025-12-11T16:02:36Z</time>
      </trkpt>
      <trkpt lat="45.71706" lon="4.74781">
        <ele>321.8</ele>
        <time>2025-12-11T16:02:37Z</time>
      </trkpt>
      <trkpt lat="45.71704" lon="4.74782">
        <ele>321.8</ele>
        <time>2025-12-11T16:02:38Z</time>
      </trkpt>
      <trkpt lat="45.71702" lon="4.74784">
        <ele>321.8</ele>
        <time>2025-12-11T16:02:39Z</time>
      </trkpt>
      <trkpt lat="45.71699" lon="4.74786">
        <ele>322</ele>
        <time>2025-12-11T16:02:40Z</time>
      </trkpt>
      <trkpt lat="45.71696" lon="4.74788">
        <ele>322</ele>
        <time>2025-12-11T16:02:41Z</time>
      </trkpt>
      <trkpt lat="45.71694" lon="4.7479">
        <ele>322.2</ele>
        <time>2025-12-11T16:02:42Z</time>
      </trkpt>
      <trkpt lat="45.71691" lon="4.74791">
        <ele>322.2</ele>
        <time>2025-12-11T16:02:43Z</time>
      </trkpt>
      <trkpt lat="45.71688" lon="4.74793">
        <ele>322.4</ele>
        <time>2025-12-11T16:02:44Z</time>
      </trkpt>
      <trkpt lat="45.71686" lon="4.74795">
        <ele>322.4</ele>
        <time>2025-12-11T16:02:45Z</time>
      </trkpt>
      <trkpt lat="45.71683" lon="4.74797">
        <ele>322.4</ele>
        <time>2025-12-11T16:02:46Z</time>
      </trkpt>
      <trkpt lat="45.71681" lon="4.748">
        <ele>322.4</ele>
        <time>2025-12-11T16:02:47Z</time>
      </trkpt>
      <trkpt lat="45.71678" lon="4.74802">
        <ele>322.4</ele>
        <time>2025-12-11T16:02:48Z</time>
      </trkpt>
      <trkpt lat="45.71676" lon="4.74805">
        <ele>322.4</ele>
        <time>2025-12-11T16:02:49Z</time>
      </trkpt>
      <trkpt lat="45.71673" lon="4.74808">
        <ele>322.4</ele>
        <time>2025-12-11T16:02:50Z</time>
      </trkpt>
      <trkpt lat="45.7167" lon="4.7481">
        <ele>322.4</ele>
        <time>2025-12-11T16:02:51Z</time>
      </trkpt>
      <trkpt lat="45.71668" lon="4.74813">
        <ele>322.4</ele>
        <time>2025-12-11T16:02:52Z</time>
      </trkpt>
      <trkpt lat="45.71665" lon="4.74816">
        <ele>322.4</ele>
        <time>2025-12-11T16:02:53Z</time>
      </trkpt>
      <trkpt lat="45.71662" lon="4.74819">
        <ele>322.4</ele>
        <time>2025-12-11T16:02:54Z</time>
      </trkpt>
      <trkpt lat="45.7166" lon="4.74822">
        <ele>322.4</ele>
        <time>2025-12-11T16:02:55Z</time>
      </trkpt>
      <trkpt lat="45.71657" lon="4.74825">
        <ele>322.2</ele>
        <time>2025-12-11T16:02:56Z</time>
      </trkpt>
      <trkpt lat="45.71654" lon="4.74828">
        <ele>322.2</ele>
        <time>2025-12-11T16:02:57Z</time>
      </trkpt>
      <trkpt lat="45.71651" lon="4.74831">
        <ele>322</ele>
        <time>2025-12-11T16:02:58Z</time>
      </trkpt>
      <trkpt lat="45.71648" lon="4.74834">
        <ele>322</ele>
        <time>2025-12-11T16:02:59Z</time>
      </trkpt>
      <trkpt lat="45.71646" lon="4.74837">
        <ele>322</ele>
        <time>2025-12-11T16:03:00Z</time>
      </trkpt>
      <trkpt lat="45.71643" lon="4.7484">
        <ele>321.8</ele>
        <time>2025-12-11T16:03:01Z</time>
      </trkpt>
      <trkpt lat="45.7164" lon="4.74843">
        <ele>321.8</ele>
        <time>2025-12-11T16:03:02Z</time>
      </trkpt>
      <trkpt lat="45.71637" lon="4.74847">
        <ele>321.6</ele>
        <time>2025-12-11T16:03:03Z</time>
      </trkpt>
      <trkpt lat="45.71634" lon="4.7485">
        <ele>321.4</ele>
        <time>2025-12-11T16:03:04Z</time>
      </trkpt>
      <trkpt lat="45.7163" lon="4.74853">
        <ele>321.4</ele>
        <time>2025-12-11T16:03:05Z</time>
      </trkpt>
      <trkpt lat="45.71627" lon="4.74857">
        <ele>321.4</ele>
        <time>2025-12-11T16:03:06Z</time>
      </trkpt>
      <trkpt lat="45.71624" lon="4.7486">
        <ele>321.2</ele>
        <time>2025-12-11T16:03:07Z</time>
      </trkpt>
      <trkpt lat="45.71621" lon="4.74862">
        <ele>321.2</ele>
        <time>2025-12-11T16:03:08Z</time>
      </trkpt>
      <trkpt lat="45.71619" lon="4.74864">
        <ele>321.4</ele>
        <time>2025-12-11T16:03:09Z</time>
      </trkpt>
      <trkpt lat="45.71617" lon="4.74867">
        <ele>321.4</ele>
        <time>2025-12-11T16:03:10Z</time>
      </trkpt>
      <trkpt lat="45.71614" lon="4.7487">
        <ele>321.4</ele>
        <time>2025-12-11T16:03:11Z</time>
      </trkpt>
      <trkpt lat="45.71613" lon="4.74874">
        <ele>321.4</ele>
        <time>2025-12-11T16:03:12Z</time>
      </trkpt>
      <trkpt lat="45.7161" lon="4.74878">
        <ele>321.4</ele>
        <time>2025-12-11T16:03:13Z</time>
      </trkpt>
      <trkpt lat="45.71608" lon="4.74883">
        <ele>321.2</ele>
        <time>2025-12-11T16:03:14Z</time>
      </trkpt>
      <trkpt lat="45.71606" lon="4.74888">
        <ele>321</ele>
        <time>2025-12-11T16:03:15Z</time>
      </trkpt>
      <trkpt lat="45.71604" lon="4.74893">
        <ele>321</ele>
        <time>2025-12-11T16:03:16Z</time>
      </trkpt>
      <trkpt lat="45.71601" lon="4.74898">
        <ele>320.8</ele>
        <time>2025-12-11T16:03:17Z</time>
      </trkpt>
      <trkpt lat="45.71599" lon="4.74903">
        <ele>320.6</ele>
        <time>2025-12-11T16:03:18Z</time>
      </trkpt>
      <trkpt lat="45.71597" lon="4.74909">
        <ele>320.6</ele>
        <time>2025-12-11T16:03:19Z</time>
      </trkpt>
      <trkpt lat="45.71595" lon="4.74914">
        <ele>320.6</ele>
        <time>2025-12-11T16:03:20Z</time>
      </trkpt>
      <trkpt lat="45.71592" lon="4.74919">
        <ele>320.4</ele>
        <time>2025-12-11T16:03:21Z</time>
      </trkpt>
      <trkpt lat="45.7159" lon="4.74924">
        <ele>320.4</ele>
        <time>2025-12-11T16:03:22Z</time>
      </trkpt>
      <trkpt lat="45.71587" lon="4.7493">
        <ele>320.2</ele>
        <time>2025-12-11T16:03:23Z</time>
      </trkpt>
      <trkpt lat="45.71585" lon="4.74935">
        <ele>320.2</ele>
        <time>2025-12-11T16:03:24Z</time>
      </trkpt>
      <trkpt lat="45.71582" lon="4.74941">
        <ele>320</ele>
        <time>2025-12-11T16:03:25Z</time>
      </trkpt>
      <trkpt lat="45.71579" lon="4.74946">
        <ele>319.8</ele>
        <time>2025-12-11T16:03:26Z</time>
      </trkpt>
      <trkpt lat="45.71576" lon="4.74952">
        <ele>319.6</ele>
        <time>2025-12-11T16:03:27Z</time>
      </trkpt>
      <trkpt lat="45.71574" lon="4.74957">
        <ele>319.4</ele>
        <time>2025-12-11T16:03:28Z</time>
      </trkpt>
      <trkpt lat="45.71571" lon="4.74963">
        <ele>319.2</ele>
        <time>2025-12-11T16:03:29Z</time>
      </trkpt>
      <trkpt lat="45.71568" lon="4.74969">
        <ele>319.2</ele>
        <time>2025-12-11T16:03:30Z</time>
      </trkpt>
      <trkpt lat="45.71565" lon="4.74975">
        <ele>319</ele>
        <time>2025-12-11T16:03:31Z</time>
      </trkpt>
      <trkpt lat="45.71562" lon="4.7498">
        <ele>318.8</ele>
        <time>2025-12-11T16:03:32Z</time>
      </trkpt>
      <trkpt lat="45.71559" lon="4.74985">
        <ele>318.6</ele>
        <time>2025-12-11T16:03:33Z</time>
      </trkpt>
      <trkpt lat="45.71556" lon="4.74991">
        <ele>318.6</ele>
        <time>2025-12-11T16:03:34Z</time>
      </trkpt>
      <trkpt lat="45.71553" lon="4.74996">
        <ele>318.4</ele>
        <time>2025-12-11T16:03:35Z</time>
      </trkpt>
      <trkpt lat="45.71549" lon="4.75002">
        <ele>318.4</ele>
        <time>2025-12-11T16:03:36Z</time>
      </trkpt>
      <trkpt lat="45.71546" lon="4.75006">
        <ele>318.2</ele>
        <time>2025-12-11T16:03:37Z</time>
      </trkpt>
      <trkpt lat="45.71543" lon="4.75011">
        <ele>318.2</ele>
        <time>2025-12-11T16:03:38Z</time>
      </trkpt>
      <trkpt lat="45.71539" lon="4.75015">
        <ele>318</ele>
        <time>2025-12-11T16:03:39Z</time>
      </trkpt>
      <trkpt lat="45.71535" lon="4.75018">
        <ele>318</ele>
        <time>2025-12-11T16:03:40Z</time>
      </trkpt>
      <trkpt lat="45.7153" lon="4.7502">
        <ele>317.8</ele>
        <time>2025-12-11T16:03:41Z</time>
      </trkpt>
      <trkpt lat="45.71525" lon="4.75023">
        <ele>317.8</ele>
        <time>2025-12-11T16:03:42Z</time>
      </trkpt>
      <trkpt lat="45.71521" lon="4.75026">
        <ele>317.8</ele>
        <time>2025-12-11T16:03:43Z</time>
      </trkpt>
      <trkpt lat="45.71516" lon="4.75028">
        <ele>317.8</ele>
        <time>2025-12-11T16:03:44Z</time>
      </trkpt>
      <trkpt lat="45.71512" lon="4.7503">
        <ele>317.6</ele>
        <time>2025-12-11T16:03:45Z</time>
      </trkpt>
      <trkpt lat="45.71508" lon="4.75033">
        <ele>317.6</ele>
        <time>2025-12-11T16:03:46Z</time>
      </trkpt>
      <trkpt lat="45.71505" lon="4.75036">
        <ele>317.6</ele>
        <time>2025-12-11T16:03:47Z</time>
      </trkpt>
      <trkpt lat="45.71502" lon="4.75041">
        <ele>317.8</ele>
        <time>2025-12-11T16:03:48Z</time>
      </trkpt>
      <trkpt lat="45.715" lon="4.75046">
        <ele>317.8</ele>
        <time>2025-12-11T16:03:49Z</time>
      </trkpt>
      <trkpt lat="45.71499" lon="4.75052">
        <ele>317.8</ele>
        <time>2025-12-11T16:03:50Z</time>
      </trkpt>
      <trkpt lat="45.71498" lon="4.75058">
        <ele>317.8</ele>
        <time>2025-12-11T16:03:51Z</time>
      </trkpt>
      <trkpt lat="45.71498" lon="4.75064">
        <ele>317.8</ele>
        <time>2025-12-11T16:03:52Z</time>
      </trkpt>
      <trkpt lat="45.71497" lon="4.7507">
        <ele>317.8</ele>
        <time>2025-12-11T16:03:53Z</time>
      </trkpt>
      <trkpt lat="45.71497" lon="4.75076">
        <ele>317.6</ele>
        <time>2025-12-11T16:03:54Z</time>
      </trkpt>
      <trkpt lat="45.71496" lon="4.75083">
        <ele>317.6</ele>
        <time>2025-12-11T16:03:55Z</time>
      </trkpt>
      <trkpt lat="45.71496" lon="4.7509">
        <ele>317.4</ele>
        <time>2025-12-11T16:03:56Z</time>
      </trkpt>
      <trkpt lat="45.71496" lon="4.75097">
        <ele>317.2</ele>
        <time>2025-12-11T16:03:57Z</time>
      </trkpt>
      <trkpt lat="45.71495" lon="4.75104">
        <ele>317.2</ele>
        <time>2025-12-11T16:03:58Z</time>
      </trkpt>
      <trkpt lat="45.71494" lon="4.7511">
        <ele>317</ele>
        <time>2025-12-11T16:03:59Z</time>
      </trkpt>
      <trkpt lat="45.71494" lon="4.75117">
        <ele>317</ele>
        <time>2025-12-11T16:04:00Z</time>
      </trkpt>
      <trkpt lat="45.71494" lon="4.75123">
        <ele>316.8</ele>
        <time>2025-12-11T16:04:01Z</time>
      </trkpt>
      <trkpt lat="45.71493" lon="4.7513">
        <ele>316.8</ele>
        <time>2025-12-11T16:04:02Z</time>
      </trkpt>
      <trkpt lat="45.71493" lon="4.75137">
        <ele>316.8</ele>
        <time>2025-12-11T16:04:03Z</time>
      </trkpt>
      <trkpt lat="45.71492" lon="4.75143">
        <ele>316.8</ele>
        <time>2025-12-11T16:04:04Z</time>
      </trkpt>
      <trkpt lat="45.71491" lon="4.7515">
        <ele>316.8</ele>
        <time>2025-12-11T16:04:05Z</time>
      </trkpt>
      <trkpt lat="45.71491" lon="4.75156">
        <ele>316.8</ele>
        <time>2025-12-11T16:04:06Z</time>
      </trkpt>
      <trkpt lat="45.7149" lon="4.75163">
        <ele>316.8</ele>
        <time>2025-12-11T16:04:07Z</time>
      </trkpt>
      <trkpt lat="45.71489" lon="4.75169">
        <ele>316.8</ele>
        <time>2025-12-11T16:04:08Z</time>
      </trkpt>
      <trkpt lat="45.71487" lon="4.75176">
        <ele>316.8</ele>
        <time>2025-12-11T16:04:09Z</time>
      </trkpt>
      <trkpt lat="45.71486" lon="4.75182">
        <ele>316.8</ele>
        <time>2025-12-11T16:04:10Z</time>
      </trkpt>
      <trkpt lat="45.71485" lon="4.75188">
        <ele>316.8</ele>
        <time>2025-12-11T16:04:11Z</time>
      </trkpt>
      <trkpt lat="45.71484" lon="4.75194">
        <ele>317</ele>
        <time>2025-12-11T16:04:12Z</time>
      </trkpt>
      <trkpt lat="45.71483" lon="4.752">
        <ele>317</ele>
        <time>2025-12-11T16:04:13Z</time>
      </trkpt>
      <trkpt lat="45.71482" lon="4.75206">
        <ele>317</ele>
        <time>2025-12-11T16:04:14Z</time>
      </trkpt>
      <trkpt lat="45.71481" lon="4.75213">
        <ele>317</ele>
        <time>2025-12-11T16:04:15Z</time>
      </trkpt>
      <trkpt lat="45.71479" lon="4.75219">
        <ele>317</ele>
        <time>2025-12-11T16:04:16Z</time>
      </trkpt>
      <trkpt lat="45.71478" lon="4.75225">
        <ele>317.2</ele>
        <time>2025-12-11T16:04:17Z</time>
      </trkpt>
      <trkpt lat="45.71477" lon="4.75231">
        <ele>317.2</ele>
        <time>2025-12-11T16:04:18Z</time>
      </trkpt>
      <trkpt lat="45.71476" lon="4.75237">
        <ele>317.4</ele>
        <time>2025-12-11T16:04:19Z</time>
      </trkpt>
      <trkpt lat="45.71474" lon="4.75243">
        <ele>317.6</ele>
        <time>2025-12-11T16:04:20Z</time>
      </trkpt>
      <trkpt lat="45.71473" lon="4.75249">
        <ele>317.6</ele>
        <time>2025-12-11T16:04:21Z</time>
      </trkpt>
      <trkpt lat="45.71472" lon="4.75254">
        <ele>317.8</ele>
        <time>2025-12-11T16:04:22Z</time>
      </trkpt>
      <trkpt lat="45.71471" lon="4.7526">
        <ele>317.8</ele>
        <time>2025-12-11T16:04:23Z</time>
      </trkpt>
      <trkpt lat="45.7147" lon="4.75266">
        <ele>318</ele>
        <time>2025-12-11T16:04:24Z</time>
      </trkpt>
      <trkpt lat="45.71469" lon="4.75271">
        <ele>318.2</ele>
        <time>2025-12-11T16:04:25Z</time>
      </trkpt>
      <trkpt lat="45.71468" lon="4.75276">
        <ele>318.2</ele>
        <time>2025-12-11T16:04:26Z</time>
      </trkpt>
      <trkpt lat="45.71467" lon="4.75282">
        <ele>318.4</ele>
        <time>2025-12-11T16:04:27Z</time>
      </trkpt>
      <trkpt lat="45.71465" lon="4.75287">
        <ele>318.4</ele>
        <time>2025-12-11T16:04:28Z</time>
      </trkpt>
      <trkpt lat="45.71463" lon="4.75292">
        <ele>318.6</ele>
        <time>2025-12-11T16:04:29Z</time>
      </trkpt>
      <trkpt lat="45.71461" lon="4.75297">
        <ele>318.6</ele>
        <time>2025-12-11T16:04:30Z</time>
      </trkpt>
      <trkpt lat="45.7146" lon="4.75303">
        <ele>318.8</ele>
        <time>2025-12-11T16:04:31Z</time>
      </trkpt>
      <trkpt lat="45.71458" lon="4.75308">
        <ele>318.8</ele>
        <time>2025-12-11T16:04:32Z</time>
      </trkpt>
      <trkpt lat="45.71457" lon="4.75313">
        <ele>319</ele>
        <time>2025-12-11T16:04:33Z</time>
      </trkpt>
      <trkpt lat="45.71456" lon="4.75318">
        <ele>319.2</ele>
        <time>2025-12-11T16:04:34Z</time>
      </trkpt>
      <trkpt lat="45.71455" lon="4.75323">
        <ele>319.2</ele>
        <time>2025-12-11T16:04:35Z</time>
      </trkpt>
      <trkpt lat="45.71454" lon="4.75329">
        <ele>319.4</ele>
        <time>2025-12-11T16:04:36Z</time>
      </trkpt>
      <trkpt lat="45.71452" lon="4.75334">
        <ele>319.6</ele>
        <time>2025-12-11T16:04:37Z</time>
      </trkpt>
      <trkpt lat="45.71452" lon="4.75339">
        <ele>319.8</ele>
        <time>2025-12-11T16:04:38Z</time>
      </trkpt>
      <trkpt lat="45.7145" lon="4.75343">
        <ele>320</ele>
        <time>2025-12-11T16:04:39Z</time>
      </trkpt>
      <trkpt lat="45.71449" lon="4.75348">
        <ele>320.2</ele>
        <time>2025-12-11T16:04:40Z</time>
      </trkpt>
      <trkpt lat="45.71448" lon="4.75353">
        <ele>320.4</ele>
        <time>2025-12-11T16:04:41Z</time>
      </trkpt>
      <trkpt lat="45.71447" lon="4.75357">
        <ele>320.4</ele>
        <time>2025-12-11T16:04:42Z</time>
      </trkpt>
      <trkpt lat="45.71447" lon="4.75362">
        <ele>320.6</ele>
        <time>2025-12-11T16:04:43Z</time>
      </trkpt>
      <trkpt lat="45.71446" lon="4.75367">
        <ele>320.8</ele>
        <time>2025-12-11T16:04:44Z</time>
      </trkpt>
      <trkpt lat="45.71445" lon="4.75371">
        <ele>321</ele>
        <time>2025-12-11T16:04:45Z</time>
      </trkpt>
      <trkpt lat="45.71444" lon="4.75376">
        <ele>321.2</ele>
        <time>2025-12-11T16:04:46Z</time>
      </trkpt>
      <trkpt lat="45.71444" lon="4.7538">
        <ele>321.4</ele>
        <time>2025-12-11T16:04:47Z</time>
      </trkpt>
      <trkpt lat="45.71442" lon="4.75385">
        <ele>321.6</ele>
        <time>2025-12-11T16:04:48Z</time>
      </trkpt>
      <trkpt lat="45.71441" lon="4.75389">
        <ele>321.8</ele>
        <time>2025-12-11T16:04:49Z</time>
      </trkpt>
      <trkpt lat="45.7144" lon="4.75393">
        <ele>322</ele>
        <time>2025-12-11T16:04:50Z</time>
      </trkpt>
      <trkpt lat="45.71438" lon="4.75397">
        <ele>322</ele>
        <time>2025-12-11T16:04:51Z</time>
      </trkpt>
      <trkpt lat="45.71437" lon="4.75401">
        <ele>322.2</ele>
        <time>2025-12-11T16:04:52Z</time>
      </trkpt>
      <trkpt lat="45.71435" lon="4.75404">
        <ele>322.4</ele>
        <time>2025-12-11T16:04:53Z</time>
      </trkpt>
      <trkpt lat="45.71434" lon="4.75408">
        <ele>322.6</ele>
        <time>2025-12-11T16:04:54Z</time>
      </trkpt>
      <trkpt lat="45.71432" lon="4.75411">
        <ele>322.8</ele>
        <time>2025-12-11T16:04:55Z</time>
      </trkpt>
      <trkpt lat="45.7143" lon="4.75414">
        <ele>323</ele>
        <time>2025-12-11T16:04:56Z</time>
      </trkpt>
      <trkpt lat="45.71429" lon="4.75417">
        <ele>323.2</ele>
        <time>2025-12-11T16:04:57Z</time>
      </trkpt>
      <trkpt lat="45.71427" lon="4.75419">
        <ele>323.4</ele>
        <time>2025-12-11T16:04:58Z</time>
      </trkpt>
      <trkpt lat="45.71425" lon="4.75422">
        <ele>323.6</ele>
        <time>2025-12-11T16:04:59Z</time>
      </trkpt>
      <trkpt lat="45.71424" lon="4.75424">
        <ele>323.8</ele>
        <time>2025-12-11T16:05:00Z</time>
      </trkpt>
      <trkpt lat="45.71422" lon="4.75426">
        <ele>323.8</ele>
        <time>2025-12-11T16:05:01Z</time>
      </trkpt>
      <trkpt lat="45.71421" lon="4.75428">
        <ele>324</ele>
        <time>2025-12-11T16:05:02Z</time>
      </trkpt>
      <trkpt lat="45.7142" lon="4.7543">
        <ele>324</ele>
        <time>2025-12-11T16:05:03Z</time>
      </trkpt>
      <trkpt lat="45.71419" lon="4.75431">
        <ele>324.2</ele>
        <time>2025-12-11T16:05:04Z</time>
      </trkpt>
      <trkpt lat="45.71417" lon="4.75433">
        <ele>324.2</ele>
        <time>2025-12-11T16:05:05Z</time>
      </trkpt>
      <trkpt lat="45.71414" lon="4.75434">
        <ele>324.2</ele>
        <time>2025-12-11T16:05:06Z</time>
      </trkpt>
      <trkpt lat="45.71412" lon="4.75434">
        <ele>324.2</ele>
        <time>2025-12-11T16:05:07Z</time>
      </trkpt>
      <trkpt lat="45.71409" lon="4.75435">
        <ele>324.2</ele>
        <time>2025-12-11T16:05:08Z</time>
      </trkpt>
      <trkpt lat="45.71406" lon="4.75437">
        <ele>324.2</ele>
        <time>2025-12-11T16:05:09Z</time>
      </trkpt>
      <trkpt lat="45.71403" lon="4.75438">
        <ele>324.2</ele>
        <time>2025-12-11T16:05:10Z</time>
      </trkpt>
      <trkpt lat="45.71401" lon="4.75439">
        <ele>324.2</ele>
        <time>2025-12-11T16:05:11Z</time>
      </trkpt>
      <trkpt lat="45.71398" lon="4.7544">
        <ele>324</ele>
        <time>2025-12-11T16:05:12Z</time>
      </trkpt>
      <trkpt lat="45.71395" lon="4.75442">
        <ele>324</ele>
        <time>2025-12-11T16:05:13Z</time>
      </trkpt>
      <trkpt lat="45.71392" lon="4.75443">
        <ele>324</ele>
        <time>2025-12-11T16:05:14Z</time>
      </trkpt>
      <trkpt lat="45.71389" lon="4.75444">
        <ele>324</ele>
        <time>2025-12-11T16:05:15Z</time>
      </trkpt>
      <trkpt lat="45.71387" lon="4.75446">
        <ele>324</ele>
        <time>2025-12-11T16:05:16Z</time>
      </trkpt>
      <trkpt lat="45.71385" lon="4.75448">
        <ele>323.8</ele>
        <time>2025-12-11T16:05:17Z</time>
      </trkpt>
      <trkpt lat="45.71382" lon="4.7545">
        <ele>323.8</ele>
        <time>2025-12-11T16:05:18Z</time>
      </trkpt>
      <trkpt lat="45.71379" lon="4.75452">
        <ele>323.8</ele>
        <time>2025-12-11T16:05:19Z</time>
      </trkpt>
      <trkpt lat="45.71376" lon="4.75454">
        <ele>323.6</ele>
        <time>2025-12-11T16:05:20Z</time>
      </trkpt>
      <trkpt lat="45.71373" lon="4.75457">
        <ele>323.6</ele>
        <time>2025-12-11T16:05:21Z</time>
      </trkpt>
      <trkpt lat="45.7137" lon="4.7546">
        <ele>323.6</ele>
        <time>2025-12-11T16:05:22Z</time>
      </trkpt>
      <trkpt lat="45.71367" lon="4.75463">
        <ele>323.4</ele>
        <time>2025-12-11T16:05:23Z</time>
      </trkpt>
      <trkpt lat="45.71364" lon="4.75467">
        <ele>323.4</ele>
        <time>2025-12-11T16:05:24Z</time>
      </trkpt>
      <trkpt lat="45.71361" lon="4.75471">
        <ele>323.4</ele>
        <time>2025-12-11T16:05:25Z</time>
      </trkpt>
      <trkpt lat="45.71359" lon="4.75475">
        <ele>323.4</ele>
        <time>2025-12-11T16:05:26Z</time>
      </trkpt>
      <trkpt lat="45.71357" lon="4.75479">
        <ele>323.4</ele>
        <time>2025-12-11T16:05:27Z</time>
      </trkpt>
      <trkpt lat="45.71355" lon="4.75483">
        <ele>323.4</ele>
        <time>2025-12-11T16:05:28Z</time>
      </trkpt>
      <trkpt lat="45.71353" lon="4.75487">
        <ele>323.4</ele>
        <time>2025-12-11T16:05:29Z</time>
      </trkpt>
      <trkpt lat="45.71352" lon="4.7549">
        <ele>323.6</ele>
        <time>2025-12-11T16:05:30Z</time>
      </trkpt>
      <trkpt lat="45.71351" lon="4.75495">
        <ele>323.6</ele>
        <time>2025-12-11T16:05:31Z</time>
      </trkpt>
      <trkpt lat="45.7135" lon="4.75499">
        <ele>323.6</ele>
        <time>2025-12-11T16:05:32Z</time>
      </trkpt>
      <trkpt lat="45.71348" lon="4.75503">
        <ele>323.6</ele>
        <time>2025-12-11T16:05:33Z</time>
      </trkpt>
      <trkpt lat="45.71347" lon="4.75508">
        <ele>323.6</ele>
        <time>2025-12-11T16:05:34Z</time>
      </trkpt>
      <trkpt lat="45.71345" lon="4.75512">
        <ele>323.6</ele>
        <time>2025-12-11T16:05:35Z</time>
      </trkpt>
      <trkpt lat="45.71344" lon="4.75517">
        <ele>323.4</ele>
        <time>2025-12-11T16:05:36Z</time>
      </trkpt>
      <trkpt lat="45.71342" lon="4.75523">
        <ele>323.4</ele>
        <time>2025-12-11T16:05:37Z</time>
      </trkpt>
      <trkpt lat="45.71341" lon="4.75528">
        <ele>323.4</ele>
        <time>2025-12-11T16:05:38Z</time>
      </trkpt>
      <trkpt lat="45.7134" lon="4.75533">
        <ele>323.4</ele>
        <time>2025-12-11T16:05:39Z</time>
      </trkpt>
      <trkpt lat="45.71338" lon="4.75539">
        <ele>323.4</ele>
        <time>2025-12-11T16:05:40Z</time>
      </trkpt>
      <trkpt lat="45.71337" lon="4.75544">
        <ele>323.4</ele>
        <time>2025-12-11T16:05:41Z</time>
      </trkpt>
      <trkpt lat="45.71335" lon="4.75549">
        <ele>323.4</ele>
        <time>2025-12-11T16:05:42Z</time>
      </trkpt>
      <trkpt lat="45.71333" lon="4.75554">
        <ele>323.2</ele>
        <time>2025-12-11T16:05:43Z</time>
      </trkpt>
      <trkpt lat="45.71332" lon="4.7556">
        <ele>323.2</ele>
        <time>2025-12-11T16:05:44Z</time>
      </trkpt>
      <trkpt lat="45.71331" lon="4.75565">
        <ele>323.4</ele>
        <time>2025-12-11T16:05:45Z</time>
      </trkpt>
      <trkpt lat="45.7133" lon="4.75571">
        <ele>323.4</ele>
        <time>2025-12-11T16:05:46Z</time>
      </trkpt>
      <trkpt lat="45.71329" lon="4.75575">
        <ele>323.4</ele>
        <time>2025-12-11T16:05:47Z</time>
      </trkpt>
      <trkpt lat="45.71327" lon="4.7558">
        <ele>323.6</ele>
        <time>2025-12-11T16:05:48Z</time>
      </trkpt>
      <trkpt lat="45.71326" lon="4.75584">
        <ele>323.6</ele>
        <time>2025-12-11T16:05:49Z</time>
      </trkpt>
      <trkpt lat="45.71325" lon="4.75588">
        <ele>323.6</ele>
        <time>2025-12-11T16:05:50Z</time>
      </trkpt>
      <trkpt lat="45.71325" lon="4.75592">
        <ele>323.8</ele>
        <time>2025-12-11T16:05:51Z</time>
      </trkpt>
      <trkpt lat="45.71324" lon="4.75595">
        <ele>323.8</ele>
        <time>2025-12-11T16:05:52Z</time>
      </trkpt>
      <trkpt lat="45.71322" lon="4.75598">
        <ele>323.8</ele>
        <time>2025-12-11T16:05:53Z</time>
      </trkpt>
      <trkpt lat="45.71321" lon="4.75601">
        <ele>324</ele>
        <time>2025-12-11T16:05:54Z</time>
      </trkpt>
      <trkpt lat="45.71319" lon="4.75603">
        <ele>324</ele>
        <time>2025-12-11T16:05:55Z</time>
      </trkpt>
      <trkpt lat="45.71318" lon="4.75605">
        <ele>324</ele>
        <time>2025-12-11T16:05:56Z</time>
      </trkpt>
      <trkpt lat="45.71317" lon="4.75606">
        <ele>324.2</ele>
        <time>2025-12-11T16:05:57Z</time>
      </trkpt>
      <trkpt lat="45.71317" lon="4.75607">
        <ele>324.2</ele>
        <time>2025-12-11T16:05:58Z</time>
      </trkpt>
      <trkpt lat="45.71317" lon="4.75607">
        <ele>324.2</ele>
        <time>2025-12-11T16:05:59Z</time>
      </trkpt>
      <trkpt lat="45.71317" lon="4.75607">
        <ele>324.4</ele>
        <time>2025-12-11T16:06:00Z</time>
      </trkpt>
      <trkpt lat="45.71317" lon="4.75607">
        <ele>324.4</ele>
        <time>2025-12-11T16:06:01Z</time>
      </trkpt>
      <trkpt lat="45.71317" lon="4.75607">
        <ele>324.4</ele>
        <time>2025-12-11T16:06:02Z</time>
      </trkpt>
      <trkpt lat="45.71317" lon="4.75607">
        <ele>324.4</ele>
        <time>2025-12-11T16:06:03Z</time>
      </trkpt>
      <trkpt lat="45.71317" lon="4.75607">
        <ele>324.4</ele>
        <time>2025-12-11T16:06:04Z</time>
      </trkpt>
      <trkpt lat="45.71317" lon="4.75607">
        <ele>324.4</ele>
        <time>2025-12-11T16:06:05Z</time>
      </trkpt>
      <trkpt lat="45.71317" lon="4.75607">
        <ele>324.4</ele>
        <time>2025-12-11T16:06:06Z</time>
      </trkpt>
      <trkpt lat="45.71317" lon="4.75607">
        <ele>324.4</ele>
        <time>2025-12-11T16:06:07Z</time>
      </trkpt>
      <trkpt lat="45.71317" lon="4.75607">
        <ele>324.4</ele>
        <time>2025-12-11T16:06:08Z</time>
      </trkpt>
      <trkpt lat="45.71317" lon="4.75607">
        <ele>324.4</ele>
        <time>2025-12-11T16:06:09Z</time>
      </trkpt>
      <trkpt lat="45.71317" lon="4.75607">
        <ele>324.4</ele>
        <time>2025-12-11T16:06:10Z</time>
      </trkpt>
      <trkpt lat="45.71317" lon="4.75607">
        <ele>324.4</ele>
        <time>2025-12-11T16:06:11Z</time>
      </trkpt>
      <trkpt lat="45.71317" lon="4.75607">
        <ele>324.4</ele>
        <time>2025-12-11T16:06:12Z</time>
      </trkpt>
      <trkpt lat="45.71317" lon="4.75607">
        <ele>324.4</ele>
        <time>2025-12-11T16:06:13Z</time>
      </trkpt>
      <trkpt lat="45.71317" lon="4.75607">
        <ele>324.4</ele>
        <time>2025-12-11T16:06:14Z</time>
      </trkpt>
      <trkpt lat="45.71317" lon="4.75607">
        <ele>324.4</ele>
        <time>2025-12-11T16:06:15Z</time>
      </trkpt>
      <trkpt lat="45.71317" lon="4.75607">
        <ele>324.4</ele>
        <time>2025-12-11T16:06:16Z</time>
      </trkpt>
      <trkpt lat="45.71317" lon="4.75607">
        <ele>324.4</ele>
        <time>2025-12-11T16:06:17Z</time>
      </trkpt>
      <trkpt lat="45.71317" lon="4.75607">
        <ele>324.4</ele>
        <time>2025-12-11T16:06:18Z</time>
      </trkpt>
      <trkpt lat="45.71317" lon="4.75607">
        <ele>324.4</ele>
        <time>2025-12-11T16:06:19Z</time>
      </trkpt>
      <trkpt lat="45.71317" lon="4.75607">
        <ele>324.4</ele>
        <time>2025-12-11T16:06:20Z</time>
      </trkpt>
      <trkpt lat="45.71317" lon="4.75607">
        <ele>324.4</ele>
        <time>2025-12-11T16:06:21Z</time>
      </trkpt>
      <trkpt lat="45.71317" lon="4.75607">
        <ele>324.4</ele>
        <time>2025-12-11T16:06:22Z</time>
      </trkpt>
      <trkpt lat="45.71317" lon="4.75607">
        <ele>324.4</ele>
        <time>2025-12-11T16:06:23Z</time>
      </trkpt>
      <trkpt lat="45.71317" lon="4.75607">
        <ele>324.4</ele>
        <time>2025-12-11T16:06:24Z</time>
      </trkpt>
      <trkpt lat="45.71317" lon="4.75607">
        <ele>324.4</ele>
        <time>2025-12-11T16:06:25Z</time>
      </trkpt>
      <trkpt lat="45.71317" lon="4.75607">
        <ele>324.4</ele>
        <time>2025-12-11T16:06:26Z</time>
      </trkpt>
      <trkpt lat="45.71317" lon="4.75607">
        <ele>324.4</ele>
        <time>2025-12-11T16:06:27Z</time>
      </trkpt>
      <trkpt lat="45.71317" lon="4.75607">
        <ele>324.4</ele>
        <time>2025-12-11T16:06:28Z</time>
      </trkpt>
      <trkpt lat="45.71317" lon="4.75607">
        <ele>324.4</ele>
        <time>2025-12-11T16:06:29Z</time>
      </trkpt>
      <trkpt lat="45.71317" lon="4.75607">
        <ele>324.4</ele>
        <time>2025-12-11T16:06:30Z</time>
      </trkpt>
      <trkpt lat="45.71317" lon="4.75607">
        <ele>324.4</ele>
        <time>2025-12-11T16:06:31Z</time>
      </trkpt>
      <trkpt lat="45.71317" lon="4.75607">
        <ele>324.4</ele>
        <time>2025-12-11T16:06:32Z</time>
      </trkpt>
      <trkpt lat="45.71317" lon="4.75607">
        <ele>324.4</ele>
        <time>2025-12-11T16:06:33Z</time>
      </trkpt>
      <trkpt lat="45.71317" lon="4.75607">
        <ele>324.4</ele>
        <time>2025-12-11T16:06:34Z</time>
      </trkpt>
      <trkpt lat="45.71317" lon="4.75607">
        <ele>324.4</ele>
        <time>2025-12-11T16:06:35Z</time>
      </trkpt>
      <trkpt lat="45.71317" lon="4.75607">
        <ele>324.4</ele>
        <time>2025-12-11T16:06:36Z</time>
      </trkpt>
      <trkpt lat="45.71317" lon="4.75607">
        <ele>324.4</ele>
        <time>2025-12-11T16:06:37Z</time>
      </trkpt>
      <trkpt lat="45.71317" lon="4.75607">
        <ele>324.4</ele>
        <time>2025-12-11T16:06:38Z</time>
      </trkpt>
      <trkpt lat="45.71317" lon="4.75607">
        <ele>324.4</ele>
        <time>2025-12-11T16:06:39Z</time>
      </trkpt>
      <trkpt lat="45.71317" lon="4.75607">
        <ele>324.4</ele>
        <time>2025-12-11T16:06:40Z</time>
      </trkpt>
      <trkpt lat="45.71317" lon="4.75607">
        <ele>324.4</ele>
        <time>2025-12-11T16:06:41Z</time>
      </trkpt>
      <trkpt lat="45.71317" lon="4.75607">
        <ele>324.4</ele>
        <time>2025-12-11T16:06:42Z</time>
      </trkpt>
      <trkpt lat="45.71317" lon="4.75607">
        <ele>324.4</ele>
        <time>2025-12-11T16:06:43Z</time>
      </trkpt>
      <trkpt lat="45.71317" lon="4.75607">
        <ele>324.4</ele>
        <time>2025-12-11T16:06:44Z</time>
      </trkpt>
      <trkpt lat="45.71317" lon="4.75607">
        <ele>324.4</ele>
        <time>2025-12-11T16:06:45Z</time>
      </trkpt>
      <trkpt lat="45.71317" lon="4.75607">
        <ele>324.4</ele>
        <time>2025-12-11T16:06:46Z</time>
      </trkpt>
      <trkpt lat="45.71317" lon="4.75607">
        <ele>324.4</ele>
        <time>2025-12-11T16:06:47Z</time>
      </trkpt>
      <trkpt lat="45.71317" lon="4.75607">
        <ele>324.4</ele>
        <time>2025-12-11T16:06:48Z</time>
      </trkpt>
      <trkpt lat="45.71317" lon="4.75607">
        <ele>324.4</ele>
        <time>2025-12-11T16:06:49Z</time>
      </trkpt>
      <trkpt lat="45.71317" lon="4.75607">
        <ele>324.4</ele>
        <time>2025-12-11T16:06:50Z</time>
      </trkpt>
      <trkpt lat="45.71317" lon="4.75607">
        <ele>324.4</ele>
        <time>2025-12-11T16:06:51Z</time>
      </trkpt>
      <trkpt lat="45.71317" lon="4.75607">
        <ele>324.4</ele>
        <time>2025-12-11T16:06:52Z</time>
      </trkpt>
      <trkpt lat="45.71317" lon="4.75607">
        <ele>324.4</ele>
        <time>2025-12-11T16:06:53Z</time>
      </trkpt>
      <trkpt lat="45.71317" lon="4.75607">
        <ele>324.4</ele>
        <time>2025-12-11T16:06:54Z</time>
      </trkpt>
      <trkpt lat="45.71317" lon="4.75607">
        <ele>324.4</ele>
        <time>2025-12-11T16:06:55Z</time>
      </trkpt>
      <trkpt lat="45.71317" lon="4.75607">
        <ele>324.4</ele>
        <time>2025-12-11T16:06:56Z</time>
      </trkpt>
      <trkpt lat="45.71316" lon="4.75607">
        <ele>324.4</ele>
        <time>2025-12-11T16:06:57Z</time>
      </trkpt>
      <trkpt lat="45.71315" lon="4.75608">
        <ele>324.4</ele>
        <time>2025-12-11T16:06:58Z</time>
      </trkpt>
      <trkpt lat="45.71314" lon="4.75609">
        <ele>324.6</ele>
        <time>2025-12-11T16:06:59Z</time>
      </trkpt>
      <trkpt lat="45.71313" lon="4.75611">
        <ele>324.4</ele>
        <time>2025-12-11T16:07:00Z</time>
      </trkpt>
      <trkpt lat="45.71312" lon="4.75613">
        <ele>324.4</ele>
        <time>2025-12-11T16:07:01Z</time>
      </trkpt>
      <trkpt lat="45.7131" lon="4.75615">
        <ele>324.4</ele>
        <time>2025-12-11T16:07:02Z</time>
      </trkpt>
      <trkpt lat="45.71307" lon="4.75616">
        <ele>324.4</ele>
        <time>2025-12-11T16:07:03Z</time>
      </trkpt>
      <trkpt lat="45.71305" lon="4.75617">
        <ele>324.4</ele>
        <time>2025-12-11T16:07:04Z</time>
      </trkpt>
      <trkpt lat="45.71302" lon="4.75617">
        <ele>324.4</ele>
        <time>2025-12-11T16:07:05Z</time>
      </trkpt>
      <trkpt lat="45.71299" lon="4.75618">
        <ele>324.4</ele>
        <time>2025-12-11T16:07:06Z</time>
      </trkpt>
      <trkpt lat="45.71295" lon="4.75618">
        <ele>324.4</ele>
        <time>2025-12-11T16:07:07Z</time>
      </trkpt>
      <trkpt lat="45.71292" lon="4.75619">
        <ele>324.2</ele>
        <time>2025-12-11T16:07:08Z</time>
      </trkpt>
      <trkpt lat="45.71288" lon="4.75619">
        <ele>324.2</ele>
        <time>2025-12-11T16:07:09Z</time>
      </trkpt>
      <trkpt lat="45.71284" lon="4.75619">
        <ele>324.2</ele>
        <time>2025-12-11T16:07:10Z</time>
      </trkpt>
      <trkpt lat="45.7128" lon="4.75619">
        <ele>324</ele>
        <time>2025-12-11T16:07:11Z</time>
      </trkpt>
      <trkpt lat="45.71276" lon="4.75619">
        <ele>324</ele>
        <time>2025-12-11T16:07:12Z</time>
      </trkpt>
      <trkpt lat="45.71273" lon="4.7562">
        <ele>324</ele>
        <time>2025-12-11T16:07:13Z</time>
      </trkpt>
      <trkpt lat="45.71269" lon="4.7562">
        <ele>324</ele>
        <time>2025-12-11T16:07:14Z</time>
      </trkpt>
      <trkpt lat="45.71266" lon="4.7562">
        <ele>324</ele>
        <time>2025-12-11T16:07:15Z</time>
      </trkpt>
      <trkpt lat="45.71262" lon="4.75617">
        <ele>324</ele>
        <time>2025-12-11T16:07:16Z</time>
      </trkpt>
      <trkpt lat="45.71259" lon="4.75615">
        <ele>324</ele>
        <time>2025-12-11T16:07:17Z</time>
      </trkpt>
      <trkpt lat="45.71257" lon="4.7561">
        <ele>323.8</ele>
        <time>2025-12-11T16:07:18Z</time>
      </trkpt>
      <trkpt lat="45.71255" lon="4.75605">
        <ele>323.8</ele>
        <time>2025-12-11T16:07:19Z</time>
      </trkpt>
      <trkpt lat="45.71253" lon="4.75599">
        <ele>323.6</ele>
        <time>2025-12-11T16:07:20Z</time>
      </trkpt>
      <trkpt lat="45.71253" lon="4.75593">
        <ele>323.4</ele>
        <time>2025-12-11T16:07:21Z</time>
      </trkpt>
      <trkpt lat="45.71251" lon="4.75587">
        <ele>323.2</ele>
        <time>2025-12-11T16:07:22Z</time>
      </trkpt>
      <trkpt lat="45.7125" lon="4.75581">
        <ele>322.8</ele>
        <time>2025-12-11T16:07:23Z</time>
      </trkpt>
      <trkpt lat="45.71248" lon="4.75574">
        <ele>322.6</ele>
        <time>2025-12-11T16:07:24Z</time>
      </trkpt>
      <trkpt lat="45.71246" lon="4.75567">
        <ele>322.2</ele>
        <time>2025-12-11T16:07:25Z</time>
      </trkpt>
      <trkpt lat="45.71244" lon="4.7556">
        <ele>322</ele>
        <time>2025-12-11T16:07:26Z</time>
      </trkpt>
      <trkpt lat="45.71243" lon="4.75553">
        <ele>321.6</ele>
        <time>2025-12-11T16:07:27Z</time>
      </trkpt>
      <trkpt lat="45.71241" lon="4.75545">
        <ele>321.4</ele>
        <time>2025-12-11T16:07:28Z</time>
      </trkpt>
      <trkpt lat="45.7124" lon="4.75537">
        <ele>321</ele>
        <time>2025-12-11T16:07:29Z</time>
      </trkpt>
      <trkpt lat="45.71239" lon="4.75529">
        <ele>320.8</ele>
        <time>2025-12-11T16:07:30Z</time>
      </trkpt>
      <trkpt lat="45.71237" lon="4.7552">
        <ele>320.4</ele>
        <time>2025-12-11T16:07:31Z</time>
      </trkpt>
      <trkpt lat="45.71236" lon="4.75511">
        <ele>320</ele>
        <time>2025-12-11T16:07:32Z</time>
      </trkpt>
      <trkpt lat="45.71235" lon="4.75502">
        <ele>319.8</ele>
        <time>2025-12-11T16:07:33Z</time>
      </trkpt>
      <trkpt lat="45.71234" lon="4.75494">
        <ele>319.4</ele>
        <time>2025-12-11T16:07:34Z</time>
      </trkpt>
      <trkpt lat="45.71233" lon="4.75485">
        <ele>319.2</ele>
        <time>2025-12-11T16:07:35Z</time>
      </trkpt>
      <trkpt lat="45.71233" lon="4.75476">
        <ele>319</ele>
        <time>2025-12-11T16:07:36Z</time>
      </trkpt>
      <trkpt lat="45.71234" lon="4.75467">
        <ele>318.8</ele>
        <time>2025-12-11T16:07:37Z</time>
      </trkpt>
      <trkpt lat="45.71233" lon="4.75458">
        <ele>318.6</ele>
        <time>2025-12-11T16:07:38Z</time>
      </trkpt>
      <trkpt lat="45.71233" lon="4.75449">
        <ele>318.2</ele>
        <time>2025-12-11T16:07:39Z</time>
      </trkpt>
      <trkpt lat="45.71231" lon="4.75441">
        <ele>318</ele>
        <time>2025-12-11T16:07:40Z</time>
      </trkpt>
      <trkpt lat="45.71227" lon="4.75434">
        <ele>317.8</ele>
        <time>2025-12-11T16:07:41Z</time>
      </trkpt>
      <trkpt lat="45.71222" lon="4.75429">
        <ele>317.4</ele>
        <time>2025-12-11T16:07:42Z</time>
      </trkpt>
      <trkpt lat="45.71215" lon="4.75428">
        <ele>317</ele>
        <time>2025-12-11T16:07:43Z</time>
      </trkpt>
      <trkpt lat="45.71208" lon="4.7543">
        <ele>316.6</ele>
        <time>2025-12-11T16:07:44Z</time>
      </trkpt>
      <trkpt lat="45.71201" lon="4.75433">
        <ele>316.2</ele>
        <time>2025-12-11T16:07:45Z</time>
      </trkpt>
      <trkpt lat="45.71195" lon="4.75436">
        <ele>316</ele>
        <time>2025-12-11T16:07:46Z</time>
      </trkpt>
      <trkpt lat="45.71188" lon="4.75439">
        <ele>315.8</ele>
        <time>2025-12-11T16:07:47Z</time>
      </trkpt>
      <trkpt lat="45.71182" lon="4.75442">
        <ele>315.6</ele>
        <time>2025-12-11T16:07:48Z</time>
      </trkpt>
      <trkpt lat="45.71175" lon="4.75445">
        <ele>315.4</ele>
        <time>2025-12-11T16:07:49Z</time>
      </trkpt>
      <trkpt lat="45.71169" lon="4.75448">
        <ele>315.2</ele>
        <time>2025-12-11T16:07:50Z</time>
      </trkpt>
      <trkpt lat="45.71163" lon="4.75451">
        <ele>315.2</ele>
        <time>2025-12-11T16:07:51Z</time>
      </trkpt>
      <trkpt lat="45.71157" lon="4.75453">
        <ele>315</ele>
        <time>2025-12-11T16:07:52Z</time>
      </trkpt>
      <trkpt lat="45.7115" lon="4.75454">
        <ele>314.8</ele>
        <time>2025-12-11T16:07:53Z</time>
      </trkpt>
      <trkpt lat="45.71144" lon="4.75453">
        <ele>314.6</ele>
        <time>2025-12-11T16:07:54Z</time>
      </trkpt>
      <trkpt lat="45.71138" lon="4.7545">
        <ele>314.4</ele>
        <time>2025-12-11T16:07:55Z</time>
      </trkpt>
      <trkpt lat="45.71133" lon="4.75444">
        <ele>314</ele>
        <time>2025-12-11T16:07:56Z</time>
      </trkpt>
      <trkpt lat="45.71128" lon="4.75437">
        <ele>313.6</ele>
        <time>2025-12-11T16:07:57Z</time>
      </trkpt>
      <trkpt lat="45.71123" lon="4.75432">
        <ele>313.4</ele>
        <time>2025-12-11T16:07:58Z</time>
      </trkpt>
      <trkpt lat="45.71116" lon="4.75428">
        <ele>313</ele>
        <time>2025-12-11T16:07:59Z</time>
      </trkpt>
      <trkpt lat="45.71109" lon="4.75426">
        <ele>312.6</ele>
        <time>2025-12-11T16:08:00Z</time>
      </trkpt>
      <trkpt lat="45.71102" lon="4.75424">
        <ele>312.2</ele>
        <time>2025-12-11T16:08:01Z</time>
      </trkpt>
      <trkpt lat="45.71095" lon="4.75423">
        <ele>311.8</ele>
        <time>2025-12-11T16:08:02Z</time>
      </trkpt>
      <trkpt lat="45.71087" lon="4.75422">
        <ele>311.2</ele>
        <time>2025-12-11T16:08:03Z</time>
      </trkpt>
      <trkpt lat="45.7108" lon="4.7542">
        <ele>311</ele>
        <time>2025-12-11T16:08:04Z</time>
      </trkpt>
      <trkpt lat="45.71073" lon="4.7542">
        <ele>310.6</ele>
        <time>2025-12-11T16:08:05Z</time>
      </trkpt>
      <trkpt lat="45.71067" lon="4.7542">
        <ele>310.4</ele>
        <time>2025-12-11T16:08:06Z</time>
      </trkpt>
      <trkpt lat="45.71062" lon="4.75422">
        <ele>310.4</ele>
        <time>2025-12-11T16:08:07Z</time>
      </trkpt>
      <trkpt lat="45.71058" lon="4.75425">
        <ele>310.4</ele>
        <time>2025-12-11T16:08:08Z</time>
      </trkpt>
      <trkpt lat="45.71056" lon="4.7543">
        <ele>310.4</ele>
        <time>2025-12-11T16:08:09Z</time>
      </trkpt>
      <trkpt lat="45.71055" lon="4.75437">
        <ele>310.2</ele>
        <time>2025-12-11T16:08:10Z</time>
      </trkpt>
      <trkpt lat="45.71055" lon="4.75444">
        <ele>310.2</ele>
        <time>2025-12-11T16:08:11Z</time>
      </trkpt>
      <trkpt lat="45.71054" lon="4.75451">
        <ele>310</ele>
        <time>2025-12-11T16:08:12Z</time>
      </trkpt>
      <trkpt lat="45.71054" lon="4.75458">
        <ele>309.8</ele>
        <time>2025-12-11T16:08:13Z</time>
      </trkpt>
      <trkpt lat="45.71053" lon="4.75465">
        <ele>309.6</ele>
        <time>2025-12-11T16:08:14Z</time>
      </trkpt>
      <trkpt lat="45.71053" lon="4.75472">
        <ele>309.6</ele>
        <time>2025-12-11T16:08:15Z</time>
      </trkpt>
      <trkpt lat="45.71053" lon="4.75479">
        <ele>309.4</ele>
        <time>2025-12-11T16:08:16Z</time>
      </trkpt>
      <trkpt lat="45.71053" lon="4.75487">
        <ele>309.4</ele>
        <time>2025-12-11T16:08:17Z</time>
      </trkpt>
      <trkpt lat="45.71053" lon="4.75494">
        <ele>309.4</ele>
        <time>2025-12-11T16:08:18Z</time>
      </trkpt>
      <trkpt lat="45.71054" lon="4.75501">
        <ele>309.4</ele>
        <time>2025-12-11T16:08:19Z</time>
      </trkpt>
      <trkpt lat="45.71054" lon="4.75508">
        <ele>309.2</ele>
        <time>2025-12-11T16:08:20Z</time>
      </trkpt>
      <trkpt lat="45.71054" lon="4.75514">
        <ele>309.4</ele>
        <time>2025-12-11T16:08:21Z</time>
      </trkpt>
      <trkpt lat="45.71055" lon="4.7552">
        <ele>309.4</ele>
        <time>2025-12-11T16:08:22Z</time>
      </trkpt>
      <trkpt lat="45.71054" lon="4.75526">
        <ele>309.4</ele>
        <time>2025-12-11T16:08:23Z</time>
      </trkpt>
      <trkpt lat="45.71055" lon="4.75532">
        <ele>309.4</ele>
        <time>2025-12-11T16:08:24Z</time>
      </trkpt>
      <trkpt lat="45.71057" lon="4.75536">
        <ele>309.6</ele>
        <time>2025-12-11T16:08:25Z</time>
      </trkpt>
      <trkpt lat="45.7106" lon="4.75539">
        <ele>309.8</ele>
        <time>2025-12-11T16:08:26Z</time>
      </trkpt>
      <trkpt lat="45.71063" lon="4.7554">
        <ele>310</ele>
        <time>2025-12-11T16:08:27Z</time>
      </trkpt>
      <trkpt lat="45.71065" lon="4.7554">
        <ele>310.4</ele>
        <time>2025-12-11T16:08:28Z</time>
      </trkpt>
      <trkpt lat="45.71068" lon="4.7554">
        <ele>310.6</ele>
        <time>2025-12-11T16:08:29Z</time>
      </trkpt>
      <trkpt lat="45.7107" lon="4.75539">
        <ele>310.8</ele>
        <time>2025-12-11T16:08:30Z</time>
      </trkpt>
      <trkpt lat="45.71072" lon="4.75539">
        <ele>311</ele>
        <time>2025-12-11T16:08:31Z</time>
      </trkpt>
      <trkpt lat="45.71074" lon="4.75539">
        <ele>311.2</ele>
        <time>2025-12-11T16:08:32Z</time>
      </trkpt>
      <trkpt lat="45.71076" lon="4.75539">
        <ele>311.4</ele>
        <time>2025-12-11T16:08:33Z</time>
      </trkpt>
      <trkpt lat="45.71078" lon="4.7554">
        <ele>311.6</ele>
        <time>2025-12-11T16:08:34Z</time>
      </trkpt>
      <trkpt lat="45.7108" lon="4.75541">
        <ele>311.6</ele>
        <time>2025-12-11T16:08:35Z</time>
      </trkpt>
      <trkpt lat="45.71082" lon="4.75541">
        <ele>311.8</ele>
        <time>2025-12-11T16:08:36Z</time>
      </trkpt>
      <trkpt lat="45.71083" lon="4.75541">
        <ele>311.8</ele>
        <time>2025-12-11T16:08:37Z</time>
      </trkpt>
      <trkpt lat="45.71084" lon="4.75541">
        <ele>311.8</ele>
        <time>2025-12-11T16:08:38Z</time>
      </trkpt>
      <trkpt lat="45.71084" lon="4.75541">
        <ele>312</ele>
        <time>2025-12-11T16:08:39Z</time>
      </trkpt>
      <trkpt lat="45.71084" lon="4.75541">
        <ele>312</ele>
        <time>2025-12-11T16:08:40Z</time>
      </trkpt>
      <trkpt lat="45.71084" lon="4.75541">
        <ele>312.2</ele>
        <time>2025-12-11T16:08:41Z</time>
      </trkpt>
      <trkpt lat="45.71084" lon="4.75541">
        <ele>312.2</ele>
        <time>2025-12-11T16:08:42Z</time>
      </trkpt>
      <trkpt lat="45.71084" lon="4.75541">
        <ele>312.2</ele>
        <time>2025-12-11T16:08:43Z</time>
      </trkpt>
      <trkpt lat="45.71084" lon="4.75541">
        <ele>312.2</ele>
        <time>2025-12-11T16:08:44Z</time>
      </trkpt>
      <trkpt lat="45.71084" lon="4.75541">
        <ele>312.2</ele>
        <time>2025-12-11T16:08:45Z</time>
      </trkpt>
      <trkpt lat="45.71084" lon="4.75541">
        <ele>312.2</ele>
        <time>2025-12-11T16:08:46Z</time>
      </trkpt>
      <trkpt lat="45.71084" lon="4.75541">
        <ele>312.2</ele>
        <time>2025-12-11T16:08:47Z</time>
      </trkpt>
      <trkpt lat="45.71084" lon="4.75541">
        <ele>312.2</ele>
        <time>2025-12-11T16:08:48Z</time>
      </trkpt>
      <trkpt lat="45.71084" lon="4.75541">
        <ele>312.2</ele>
        <time>2025-12-11T16:08:49Z</time>
      </trkpt>
      <trkpt lat="45.71084" lon="4.75541">
        <ele>312.2</ele>
        <time>2025-12-11T16:08:50Z</time>
      </trkpt>
      <trkpt lat="45.71084" lon="4.75541">
        <ele>312.2</ele>
        <time>2025-12-11T16:08:51Z</time>
      </trkpt>
      <trkpt lat="45.71084" lon="4.75541">
        <ele>312.2</ele>
        <time>2025-12-11T16:08:52Z</time>
      </trkpt>
      <trkpt lat="45.71084" lon="4.75541">
        <ele>312.2</ele>
        <time>2025-12-11T16:08:53Z</time>
      </trkpt>
      <trkpt lat="45.71084" lon="4.75541">
        <ele>312.2</ele>
        <time>2025-12-11T16:08:54Z</time>
      </trkpt>
      <trkpt lat="45.71084" lon="4.75541">
        <ele>312.2</ele>
        <time>2025-12-11T16:08:55Z</time>
      </trkpt>
      <trkpt lat="45.71084" lon="4.75541">
        <ele>312.2</ele>
        <time>2025-12-11T16:08:56Z</time>
      </trkpt>
      <trkpt lat="45.71084" lon="4.75541">
        <ele>312.2</ele>
        <time>2025-12-11T16:08:57Z</time>
      </trkpt>
      <trkpt lat="45.71084" lon="4.75541">
        <ele>312.2</ele>
        <time>2025-12-11T16:08:58Z</time>
      </trkpt>
      <trkpt lat="45.71084" lon="4.75541">
        <ele>312.2</ele>
        <time>2025-12-11T16:08:59Z</time>
      </trkpt>
      <trkpt lat="45.71084" lon="4.75541">
        <ele>312.2</ele>
        <time>2025-12-11T16:09:00Z</time>
      </trkpt>
      <trkpt lat="45.71084" lon="4.75541">
        <ele>312.2</ele>
        <time>2025-12-11T16:09:01Z</time>
      </trkpt>
      <trkpt lat="45.71084" lon="4.75541">
        <ele>312.2</ele>
        <time>2025-12-11T16:09:02Z</time>
      </trkpt>
      <trkpt lat="45.71084" lon="4.75541">
        <ele>312.2</ele>
        <time>2025-12-11T16:09:03Z</time>
      </trkpt>
      <trkpt lat="45.71084" lon="4.75541">
        <ele>312.2</ele>
        <time>2025-12-11T16:09:04Z</time>
      </trkpt>
      <trkpt lat="45.71084" lon="4.75541">
        <ele>312.2</ele>
        <time>2025-12-11T16:09:05Z</time>
      </trkpt>
      <trkpt lat="45.71084" lon="4.75541">
        <ele>312.2</ele>
        <time>2025-12-11T16:09:06Z</time>
      </trkpt>
      <trkpt lat="45.71084" lon="4.75541">
        <ele>312.2</ele>
        <time>2025-12-11T16:09:07Z</time>
      </trkpt>
      <trkpt lat="45.71084" lon="4.75541">
        <ele>312.2</ele>
        <time>2025-12-11T16:09:08Z</time>
      </trkpt>
      <trkpt lat="45.71084" lon="4.75541">
        <ele>312.2</ele>
        <time>2025-12-11T16:09:09Z</time>
      </trkpt>
      <trkpt lat="45.71084" lon="4.75541">
        <ele>312.2</ele>
        <time>2025-12-11T16:09:10Z</time>
      </trkpt>
      <trkpt lat="45.71084" lon="4.75541">
        <ele>312.2</ele>
        <time>2025-12-11T16:09:11Z</time>
      </trkpt>
      <trkpt lat="45.71084" lon="4.75541">
        <ele>312.2</ele>
        <time>2025-12-11T16:09:12Z</time>
      </trkpt>
      <trkpt lat="45.71084" lon="4.75541">
        <ele>312.2</ele>
        <time>2025-12-11T16:09:13Z</time>
      </trkpt>
      <trkpt lat="45.71084" lon="4.75541">
        <ele>312.2</ele>
        <time>2025-12-11T16:09:14Z</time>
      </trkpt>
      <trkpt lat="45.71084" lon="4.75541">
        <ele>312</ele>
        <time>2025-12-11T16:09:15Z</time>
      </trkpt>
    </trkseg>
  </trk>
</gpx>